<?xml version="1.0" encoding="UTF-8" standalone="no" ?>
<gpx xmlns="http://www.topografix.com/GPX/1/1" xmlns:xsi="http://www.w3.org/2001/XMLSchema-instance" xsi:schemaLocation="http://www.topografix.com/GPX/1/1 http://www.topografix.com/GPX/1/1/gpx.xsd" version="1.1" creator="VisuGPX - https://www.visugpx.com">
  <metadata>
    <name>boucle St Pierre d\'Alvey/St Pierre de Curtille</name>
    <desc><![CDATA[boucle St Pierre d\'Alvey/St Pierre de Curtille par la montagne du Chat et retour par Lucey/Yenne]]></desc>
  </metadata>
  <trk>
    <name><![CDATA[boucle St Pierre d\'Alvey/St Pierre de Curtille_1]]></name>
    <trkseg>
      <trkpt lat="45.62539" lon="5.72652">
        <ele>669.5</ele>
        <time>2014-11-22T09:05:39Z</time>
      </trkpt>
      <trkpt lat="45.6265" lon="5.72552">
        <ele>669.5</ele>
        <time>2014-11-22T09:05:44Z</time>
      </trkpt>
      <trkpt lat="45.62656" lon="5.72541">
        <ele>674.14685</ele>
        <time>2014-11-22T09:05:49Z</time>
      </trkpt>
      <trkpt lat="45.62661" lon="5.72538">
        <ele>674.14685</ele>
        <time>2014-11-22T09:05:54Z</time>
      </trkpt>
      <trkpt lat="45.62669" lon="5.7253">
        <ele>677.8483</ele>
        <time>2014-11-22T09:05:59Z</time>
      </trkpt>
      <trkpt lat="45.62674" lon="5.72526">
        <ele>677.8483</ele>
        <time>2014-11-22T09:06:04Z</time>
      </trkpt>
      <trkpt lat="45.62678" lon="5.72524">
        <ele>681.2765</ele>
        <time>2014-11-22T09:06:09Z</time>
      </trkpt>
      <trkpt lat="45.62684" lon="5.72521">
        <ele>681.2765</ele>
        <time>2014-11-22T09:06:14Z</time>
      </trkpt>
      <trkpt lat="45.62688" lon="5.72516">
        <ele>684.97925</ele>
        <time>2014-11-22T09:06:19Z</time>
      </trkpt>
      <trkpt lat="45.62694" lon="5.72509">
        <ele>684.97925</ele>
        <time>2014-11-22T09:06:24Z</time>
      </trkpt>
      <trkpt lat="45.62698" lon="5.72504">
        <ele>689.1224</ele>
        <time>2014-11-22T09:06:29Z</time>
      </trkpt>
      <trkpt lat="45.62703" lon="5.72498">
        <ele>689.1224</ele>
        <time>2014-11-22T09:06:34Z</time>
      </trkpt>
      <trkpt lat="45.62704" lon="5.72496">
        <ele>689.1224</ele>
        <time>2014-11-22T09:06:39Z</time>
      </trkpt>
      <trkpt lat="45.62709" lon="5.72493">
        <ele>692.3752</ele>
        <time>2014-11-22T09:06:44Z</time>
      </trkpt>
      <trkpt lat="45.62712" lon="5.72491">
        <ele>692.3752</ele>
        <time>2014-11-22T09:06:49Z</time>
      </trkpt>
      <trkpt lat="45.62716" lon="5.7249">
        <ele>692.3752</ele>
        <time>2014-11-22T09:06:54Z</time>
      </trkpt>
      <trkpt lat="45.62724" lon="5.72484">
        <ele>694.86</ele>
        <time>2014-11-22T09:06:59Z</time>
      </trkpt>
      <trkpt lat="45.62728" lon="5.7248">
        <ele>694.86</ele>
        <time>2014-11-22T09:07:04Z</time>
      </trkpt>
      <trkpt lat="45.62735" lon="5.72477">
        <ele>696.7595</ele>
        <time>2014-11-22T09:07:09Z</time>
      </trkpt>
      <trkpt lat="45.62742" lon="5.72473">
        <ele>696.7595</ele>
        <time>2014-11-22T09:07:14Z</time>
      </trkpt>
      <trkpt lat="45.62748" lon="5.72469">
        <ele>698.4093</ele>
        <time>2014-11-22T09:07:19Z</time>
      </trkpt>
      <trkpt lat="45.62757" lon="5.72466">
        <ele>698.4093</ele>
        <time>2014-11-22T09:07:24Z</time>
      </trkpt>
      <trkpt lat="45.62761" lon="5.72463">
        <ele>699.4827</ele>
        <time>2014-11-22T09:07:29Z</time>
      </trkpt>
      <trkpt lat="45.62767" lon="5.7246">
        <ele>699.4827</ele>
        <time>2014-11-22T09:07:34Z</time>
      </trkpt>
      <trkpt lat="45.62773" lon="5.72456">
        <ele>699.9424</ele>
        <time>2014-11-22T09:07:39Z</time>
      </trkpt>
      <trkpt lat="45.62777" lon="5.72454">
        <ele>699.9424</ele>
        <time>2014-11-22T09:07:44Z</time>
      </trkpt>
      <trkpt lat="45.62782" lon="5.72451">
        <ele>700.40125</ele>
        <time>2014-11-22T09:07:49Z</time>
      </trkpt>
      <trkpt lat="45.62787" lon="5.72448">
        <ele>700.40125</ele>
        <time>2014-11-22T09:07:54Z</time>
      </trkpt>
      <trkpt lat="45.62792" lon="5.72446">
        <ele>701.07513</ele>
        <time>2014-11-22T09:07:59Z</time>
      </trkpt>
      <trkpt lat="45.628" lon="5.7244">
        <ele>701.5165</ele>
        <time>2014-11-22T09:08:04Z</time>
      </trkpt>
      <trkpt lat="45.62807" lon="5.72433">
        <ele>701.5165</ele>
        <time>2014-11-22T09:08:09Z</time>
      </trkpt>
      <trkpt lat="45.62811" lon="5.72432">
        <ele>701.8844</ele>
        <time>2014-11-22T09:08:14Z</time>
      </trkpt>
      <trkpt lat="45.62814" lon="5.72429">
        <ele>701.8844</ele>
        <time>2014-11-22T09:08:19Z</time>
      </trkpt>
      <trkpt lat="45.62818" lon="5.72423">
        <ele>701.84216</ele>
        <time>2014-11-22T09:08:24Z</time>
      </trkpt>
      <trkpt lat="45.62824" lon="5.72418">
        <ele>701.84216</ele>
        <time>2014-11-22T09:08:29Z</time>
      </trkpt>
      <trkpt lat="45.62831" lon="5.72413">
        <ele>701.2201</ele>
        <time>2014-11-22T09:08:34Z</time>
      </trkpt>
      <trkpt lat="45.62838" lon="5.72403">
        <ele>700.5156</ele>
        <time>2014-11-22T09:08:39Z</time>
      </trkpt>
      <trkpt lat="45.62841" lon="5.72396">
        <ele>700.5156</ele>
        <time>2014-11-22T09:08:44Z</time>
      </trkpt>
      <trkpt lat="45.62843" lon="5.72391">
        <ele>699.923</ele>
        <time>2014-11-22T09:08:49Z</time>
      </trkpt>
      <trkpt lat="45.62848" lon="5.72385">
        <ele>699.923</ele>
        <time>2014-11-22T09:08:54Z</time>
      </trkpt>
      <trkpt lat="45.62855" lon="5.72377">
        <ele>699.1821</ele>
        <time>2014-11-22T09:08:59Z</time>
      </trkpt>
      <trkpt lat="45.62861" lon="5.72367">
        <ele>698.72675</ele>
        <time>2014-11-22T09:09:04Z</time>
      </trkpt>
      <trkpt lat="45.62864" lon="5.72362">
        <ele>698.72675</ele>
        <time>2014-11-22T09:09:09Z</time>
      </trkpt>
      <trkpt lat="45.62872" lon="5.72357">
        <ele>698.1233</ele>
        <time>2014-11-22T09:09:14Z</time>
      </trkpt>
      <trkpt lat="45.62875" lon="5.72357">
        <ele>698.1233</ele>
        <time>2014-11-22T09:09:19Z</time>
      </trkpt>
      <trkpt lat="45.62879" lon="5.72352">
        <ele>698.1233</ele>
        <time>2014-11-22T09:09:24Z</time>
      </trkpt>
      <trkpt lat="45.62881" lon="5.72349">
        <ele>697.83026</ele>
        <time>2014-11-22T09:09:29Z</time>
      </trkpt>
      <trkpt lat="45.62884" lon="5.72349">
        <ele>697.83026</ele>
        <time>2014-11-22T09:09:34Z</time>
      </trkpt>
      <trkpt lat="45.62887" lon="5.72348">
        <ele>697.83026</ele>
        <time>2014-11-22T09:09:39Z</time>
      </trkpt>
      <trkpt lat="45.62896" lon="5.72345">
        <ele>698.3635</ele>
        <time>2014-11-22T09:09:45Z</time>
      </trkpt>
      <trkpt lat="45.62896" lon="5.72343">
        <ele>698.3635</ele>
        <time>2014-11-22T09:09:49Z</time>
      </trkpt>
      <trkpt lat="45.62899" lon="5.72338">
        <ele>698.3635</ele>
        <time>2014-11-22T09:09:54Z</time>
      </trkpt>
      <trkpt lat="45.62902" lon="5.72334">
        <ele>697.7252</ele>
        <time>2014-11-22T09:09:59Z</time>
      </trkpt>
      <trkpt lat="45.6291" lon="5.72331">
        <ele>697.7252</ele>
        <time>2014-11-22T09:10:04Z</time>
      </trkpt>
      <trkpt lat="45.62918" lon="5.72332">
        <ele>696.7451</ele>
        <time>2014-11-22T09:10:09Z</time>
      </trkpt>
      <trkpt lat="45.62924" lon="5.72334">
        <ele>696.7451</ele>
        <time>2014-11-22T09:10:14Z</time>
      </trkpt>
      <trkpt lat="45.62931" lon="5.72335">
        <ele>696.2982</ele>
        <time>2014-11-22T09:10:19Z</time>
      </trkpt>
      <trkpt lat="45.62934" lon="5.72335">
        <ele>696.2982</ele>
        <time>2014-11-22T09:10:24Z</time>
      </trkpt>
      <trkpt lat="45.6294" lon="5.72335">
        <ele>694.83575</ele>
        <time>2014-11-22T09:10:29Z</time>
      </trkpt>
      <trkpt lat="45.62948" lon="5.72336">
        <ele>694.83575</ele>
        <time>2014-11-22T09:10:34Z</time>
      </trkpt>
      <trkpt lat="45.62953" lon="5.72341">
        <ele>693.48706</ele>
        <time>2014-11-22T09:10:39Z</time>
      </trkpt>
      <trkpt lat="45.6296" lon="5.72342">
        <ele>693.48706</ele>
        <time>2014-11-22T09:10:44Z</time>
      </trkpt>
      <trkpt lat="45.62968" lon="5.72343">
        <ele>691.711</ele>
        <time>2014-11-22T09:10:49Z</time>
      </trkpt>
      <trkpt lat="45.62976" lon="5.72344">
        <ele>691.711</ele>
        <time>2014-11-22T09:10:54Z</time>
      </trkpt>
      <trkpt lat="45.6298" lon="5.72342">
        <ele>690.0419</ele>
        <time>2014-11-22T09:10:59Z</time>
      </trkpt>
      <trkpt lat="45.62983" lon="5.72339">
        <ele>690.0419</ele>
        <time>2014-11-22T09:11:04Z</time>
      </trkpt>
      <trkpt lat="45.62987" lon="5.72338">
        <ele>690.0419</ele>
        <time>2014-11-22T09:11:09Z</time>
      </trkpt>
      <trkpt lat="45.62996" lon="5.72337">
        <ele>687.583</ele>
        <time>2014-11-22T09:11:14Z</time>
      </trkpt>
      <trkpt lat="45.62999" lon="5.72334">
        <ele>687.583</ele>
        <time>2014-11-22T09:11:19Z</time>
      </trkpt>
      <trkpt lat="45.63006" lon="5.7233">
        <ele>684.962</ele>
        <time>2014-11-22T09:11:24Z</time>
      </trkpt>
      <trkpt lat="45.63009" lon="5.72329">
        <ele>684.962</ele>
        <time>2014-11-22T09:11:29Z</time>
      </trkpt>
      <trkpt lat="45.6301" lon="5.72327">
        <ele>684.962</ele>
        <time>2014-11-22T09:11:34Z</time>
      </trkpt>
      <trkpt lat="45.63014" lon="5.72325">
        <ele>684.962</ele>
        <time>2014-11-22T09:11:39Z</time>
      </trkpt>
      <trkpt lat="45.63018" lon="5.72318">
        <ele>682.2201</ele>
        <time>2014-11-22T09:11:44Z</time>
      </trkpt>
      <trkpt lat="45.63022" lon="5.72316">
        <ele>682.2201</ele>
        <time>2014-11-22T09:11:49Z</time>
      </trkpt>
      <trkpt lat="45.63024" lon="5.72314">
        <ele>682.2201</ele>
        <time>2014-11-22T09:11:54Z</time>
      </trkpt>
      <trkpt lat="45.63032" lon="5.72314">
        <ele>679.3416</ele>
        <time>2014-11-22T09:11:59Z</time>
      </trkpt>
      <trkpt lat="45.63038" lon="5.72313">
        <ele>679.3416</ele>
        <time>2014-11-22T09:12:04Z</time>
      </trkpt>
      <trkpt lat="45.63043" lon="5.72311">
        <ele>676.6494</ele>
        <time>2014-11-22T09:12:09Z</time>
      </trkpt>
      <trkpt lat="45.63046" lon="5.7231">
        <ele>676.6494</ele>
        <time>2014-11-22T09:12:14Z</time>
      </trkpt>
      <trkpt lat="45.63052" lon="5.72307">
        <ele>672.9845</ele>
        <time>2014-11-22T09:12:19Z</time>
      </trkpt>
      <trkpt lat="45.6306" lon="5.72306">
        <ele>672.9845</ele>
        <time>2014-11-22T09:12:24Z</time>
      </trkpt>
      <trkpt lat="45.63065" lon="5.72304">
        <ele>669.8464</ele>
        <time>2014-11-22T09:12:29Z</time>
      </trkpt>
      <trkpt lat="45.63073" lon="5.72302">
        <ele>669.8464</ele>
        <time>2014-11-22T09:12:34Z</time>
      </trkpt>
      <trkpt lat="45.63079" lon="5.72301">
        <ele>667.2451</ele>
        <time>2014-11-22T09:12:39Z</time>
      </trkpt>
      <trkpt lat="45.63082" lon="5.723">
        <ele>667.2451</ele>
        <time>2014-11-22T09:12:44Z</time>
      </trkpt>
      <trkpt lat="45.63084" lon="5.72295">
        <ele>667.2451</ele>
        <time>2014-11-22T09:12:49Z</time>
      </trkpt>
      <trkpt lat="45.63095" lon="5.72295">
        <ele>666.3828</ele>
        <time>2014-11-22T09:12:54Z</time>
      </trkpt>
      <trkpt lat="45.63102" lon="5.7229">
        <ele>666.3828</ele>
        <time>2014-11-22T09:12:59Z</time>
      </trkpt>
      <trkpt lat="45.63114" lon="5.72288">
        <ele>664.04004</ele>
        <time>2014-11-22T09:13:04Z</time>
      </trkpt>
      <trkpt lat="45.63129" lon="5.72289">
        <ele>661.8264</ele>
        <time>2014-11-22T09:13:09Z</time>
      </trkpt>
      <trkpt lat="45.63139" lon="5.7229">
        <ele>659.9933</ele>
        <time>2014-11-22T09:13:14Z</time>
      </trkpt>
      <trkpt lat="45.63148" lon="5.72292">
        <ele>659.9933</ele>
        <time>2014-11-22T09:13:19Z</time>
      </trkpt>
      <trkpt lat="45.63155" lon="5.72292">
        <ele>658.85</ele>
        <time>2014-11-22T09:13:25Z</time>
      </trkpt>
      <trkpt lat="45.63161" lon="5.72292">
        <ele>658.85</ele>
        <time>2014-11-22T09:13:29Z</time>
      </trkpt>
      <trkpt lat="45.63169" lon="5.72294">
        <ele>658.4325</ele>
        <time>2014-11-22T09:13:35Z</time>
      </trkpt>
      <trkpt lat="45.63174" lon="5.72296">
        <ele>658.4325</ele>
        <time>2014-11-22T09:13:39Z</time>
      </trkpt>
      <trkpt lat="45.63178" lon="5.72295">
        <ele>658.50165</ele>
        <time>2014-11-22T09:13:44Z</time>
      </trkpt>
      <trkpt lat="45.63182" lon="5.72297">
        <ele>658.50165</ele>
        <time>2014-11-22T09:13:49Z</time>
      </trkpt>
      <trkpt lat="45.63189" lon="5.72297">
        <ele>658.2156</ele>
        <time>2014-11-22T09:13:54Z</time>
      </trkpt>
      <trkpt lat="45.63198" lon="5.72297">
        <ele>658.2156</ele>
        <time>2014-11-22T09:13:59Z</time>
      </trkpt>
      <trkpt lat="45.63203" lon="5.72296">
        <ele>657.237</ele>
        <time>2014-11-22T09:14:04Z</time>
      </trkpt>
      <trkpt lat="45.63211" lon="5.72297">
        <ele>657.237</ele>
        <time>2014-11-22T09:14:10Z</time>
      </trkpt>
      <trkpt lat="45.63215" lon="5.72297">
        <ele>656.54846</ele>
        <time>2014-11-22T09:14:14Z</time>
      </trkpt>
      <trkpt lat="45.63217" lon="5.72296">
        <ele>656.54846</ele>
        <time>2014-11-22T09:14:19Z</time>
      </trkpt>
      <trkpt lat="45.63224" lon="5.72296">
        <ele>655.76825</ele>
        <time>2014-11-22T09:14:24Z</time>
      </trkpt>
      <trkpt lat="45.63231" lon="5.72297">
        <ele>655.76825</ele>
        <time>2014-11-22T09:14:29Z</time>
      </trkpt>
      <trkpt lat="45.63234" lon="5.72296">
        <ele>655.0246</ele>
        <time>2014-11-22T09:14:34Z</time>
      </trkpt>
      <trkpt lat="45.63242" lon="5.72295">
        <ele>655.0246</ele>
        <time>2014-11-22T09:14:39Z</time>
      </trkpt>
      <trkpt lat="45.63247" lon="5.72293">
        <ele>654.26996</ele>
        <time>2014-11-22T09:14:44Z</time>
      </trkpt>
      <trkpt lat="45.6326" lon="5.72289">
        <ele>653.58124</ele>
        <time>2014-11-22T09:14:49Z</time>
      </trkpt>
      <trkpt lat="45.63271" lon="5.72287">
        <ele>653.40607</ele>
        <time>2014-11-22T09:14:54Z</time>
      </trkpt>
      <trkpt lat="45.63278" lon="5.72286">
        <ele>653.40607</ele>
        <time>2014-11-22T09:14:59Z</time>
      </trkpt>
      <trkpt lat="45.63289" lon="5.72285">
        <ele>653.4311</ele>
        <time>2014-11-22T09:15:04Z</time>
      </trkpt>
      <trkpt lat="45.63297" lon="5.72285">
        <ele>653.4311</ele>
        <time>2014-11-22T09:15:09Z</time>
      </trkpt>
      <trkpt lat="45.63302" lon="5.72284">
        <ele>653.39703</ele>
        <time>2014-11-22T09:15:14Z</time>
      </trkpt>
      <trkpt lat="45.63312" lon="5.72283">
        <ele>653.7423</ele>
        <time>2014-11-22T09:15:19Z</time>
      </trkpt>
      <trkpt lat="45.63316" lon="5.72282">
        <ele>653.7423</ele>
        <time>2014-11-22T09:15:24Z</time>
      </trkpt>
      <trkpt lat="45.6332" lon="5.72279">
        <ele>653.4282</ele>
        <time>2014-11-22T09:15:29Z</time>
      </trkpt>
      <trkpt lat="45.63325" lon="5.72273">
        <ele>653.4282</ele>
        <time>2014-11-22T09:15:35Z</time>
      </trkpt>
      <trkpt lat="45.6333" lon="5.72267">
        <ele>652.62714</ele>
        <time>2014-11-22T09:15:39Z</time>
      </trkpt>
      <trkpt lat="45.63341" lon="5.72266">
        <ele>651.8721</ele>
        <time>2014-11-22T09:15:44Z</time>
      </trkpt>
      <trkpt lat="45.63346" lon="5.72266">
        <ele>651.8721</ele>
        <time>2014-11-22T09:15:49Z</time>
      </trkpt>
      <trkpt lat="45.63353" lon="5.72263">
        <ele>651.38306</ele>
        <time>2014-11-22T09:15:54Z</time>
      </trkpt>
      <trkpt lat="45.6336" lon="5.72259">
        <ele>651.38306</ele>
        <time>2014-11-22T09:15:59Z</time>
      </trkpt>
      <trkpt lat="45.63364" lon="5.72255">
        <ele>650.9597</ele>
        <time>2014-11-22T09:16:05Z</time>
      </trkpt>
      <trkpt lat="45.63367" lon="5.7225">
        <ele>650.9597</ele>
        <time>2014-11-22T09:16:09Z</time>
      </trkpt>
      <trkpt lat="45.63369" lon="5.72248">
        <ele>650.9597</ele>
        <time>2014-11-22T09:16:14Z</time>
      </trkpt>
      <trkpt lat="45.63373" lon="5.72241">
        <ele>651.0406</ele>
        <time>2014-11-22T09:16:19Z</time>
      </trkpt>
      <trkpt lat="45.63382" lon="5.72238">
        <ele>650.6513</ele>
        <time>2014-11-22T09:16:24Z</time>
      </trkpt>
      <trkpt lat="45.63388" lon="5.72236">
        <ele>650.6513</ele>
        <time>2014-11-22T09:16:29Z</time>
      </trkpt>
      <trkpt lat="45.63393" lon="5.72235">
        <ele>649.7853</ele>
        <time>2014-11-22T09:16:34Z</time>
      </trkpt>
      <trkpt lat="45.63397" lon="5.72229">
        <ele>649.7853</ele>
        <time>2014-11-22T09:16:39Z</time>
      </trkpt>
      <trkpt lat="45.63398" lon="5.72224">
        <ele>648.5994</ele>
        <time>2014-11-22T09:16:44Z</time>
      </trkpt>
      <trkpt lat="45.63401" lon="5.72219">
        <ele>648.5994</ele>
        <time>2014-11-22T09:16:49Z</time>
      </trkpt>
      <trkpt lat="45.63407" lon="5.72225">
        <ele>648.44196</ele>
        <time>2014-11-22T09:16:54Z</time>
      </trkpt>
      <trkpt lat="45.63411" lon="5.72229">
        <ele>648.44196</ele>
        <time>2014-11-22T09:16:59Z</time>
      </trkpt>
      <trkpt lat="45.63414" lon="5.72232">
        <ele>648.44196</ele>
        <time>2014-11-22T09:17:04Z</time>
      </trkpt>
      <trkpt lat="45.63421" lon="5.72235">
        <ele>648.35034</ele>
        <time>2014-11-22T09:17:09Z</time>
      </trkpt>
      <trkpt lat="45.63423" lon="5.72237">
        <ele>648.35034</ele>
        <time>2014-11-22T09:17:15Z</time>
      </trkpt>
      <trkpt lat="45.63425" lon="5.7224">
        <ele>648.35034</ele>
        <time>2014-11-22T09:17:19Z</time>
      </trkpt>
      <trkpt lat="45.63429" lon="5.72246">
        <ele>648.66864</ele>
        <time>2014-11-22T09:17:24Z</time>
      </trkpt>
      <trkpt lat="45.63432" lon="5.72252">
        <ele>648.66864</ele>
        <time>2014-11-22T09:17:29Z</time>
      </trkpt>
      <trkpt lat="45.63435" lon="5.72257">
        <ele>648.38446</ele>
        <time>2014-11-22T09:17:35Z</time>
      </trkpt>
      <trkpt lat="45.63439" lon="5.7226">
        <ele>648.38446</ele>
        <time>2014-11-22T09:17:39Z</time>
      </trkpt>
      <trkpt lat="45.63447" lon="5.72262">
        <ele>648.11224</ele>
        <time>2014-11-22T09:17:44Z</time>
      </trkpt>
      <trkpt lat="45.63453" lon="5.72261">
        <ele>648.11224</ele>
        <time>2014-11-22T09:17:49Z</time>
      </trkpt>
      <trkpt lat="45.63457" lon="5.72262">
        <ele>647.5303</ele>
        <time>2014-11-22T09:17:54Z</time>
      </trkpt>
      <trkpt lat="45.63466" lon="5.72263">
        <ele>647.5303</ele>
        <time>2014-11-22T09:17:59Z</time>
      </trkpt>
      <trkpt lat="45.63474" lon="5.72265">
        <ele>647.63525</ele>
        <time>2014-11-22T09:18:04Z</time>
      </trkpt>
      <trkpt lat="45.63484" lon="5.72267">
        <ele>647.9371</ele>
        <time>2014-11-22T09:18:09Z</time>
      </trkpt>
      <trkpt lat="45.63491" lon="5.72271">
        <ele>647.9371</ele>
        <time>2014-11-22T09:18:14Z</time>
      </trkpt>
      <trkpt lat="45.63496" lon="5.72276">
        <ele>647.83856</ele>
        <time>2014-11-22T09:18:20Z</time>
      </trkpt>
      <trkpt lat="45.63503" lon="5.72287">
        <ele>648.00574</ele>
        <time>2014-11-22T09:18:25Z</time>
      </trkpt>
      <trkpt lat="45.63509" lon="5.72299">
        <ele>648.4452</ele>
        <time>2014-11-22T09:18:29Z</time>
      </trkpt>
      <trkpt lat="45.63514" lon="5.72309">
        <ele>648.4452</ele>
        <time>2014-11-22T09:18:34Z</time>
      </trkpt>
      <trkpt lat="45.63521" lon="5.72322">
        <ele>649.1479</ele>
        <time>2014-11-22T09:18:39Z</time>
      </trkpt>
      <trkpt lat="45.63527" lon="5.72331">
        <ele>649.6428</ele>
        <time>2014-11-22T09:18:44Z</time>
      </trkpt>
      <trkpt lat="45.63533" lon="5.72339">
        <ele>649.6428</ele>
        <time>2014-11-22T09:18:49Z</time>
      </trkpt>
      <trkpt lat="45.63537" lon="5.72347">
        <ele>649.3796</ele>
        <time>2014-11-22T09:18:54Z</time>
      </trkpt>
      <trkpt lat="45.63544" lon="5.72354">
        <ele>649.3796</ele>
        <time>2014-11-22T09:18:59Z</time>
      </trkpt>
      <trkpt lat="45.63551" lon="5.72356">
        <ele>649.1065</ele>
        <time>2014-11-22T09:19:04Z</time>
      </trkpt>
      <trkpt lat="45.63561" lon="5.72355">
        <ele>648.8233</ele>
        <time>2014-11-22T09:19:09Z</time>
      </trkpt>
      <trkpt lat="45.63571" lon="5.72357">
        <ele>648.57324</ele>
        <time>2014-11-22T09:19:14Z</time>
      </trkpt>
      <trkpt lat="45.6358" lon="5.72357">
        <ele>648.48267</ele>
        <time>2014-11-22T09:19:19Z</time>
      </trkpt>
      <trkpt lat="45.63586" lon="5.72354">
        <ele>648.48267</ele>
        <time>2014-11-22T09:19:24Z</time>
      </trkpt>
      <trkpt lat="45.63593" lon="5.72352">
        <ele>648.2791</ele>
        <time>2014-11-22T09:19:29Z</time>
      </trkpt>
      <trkpt lat="45.636" lon="5.72351">
        <ele>648.2791</ele>
        <time>2014-11-22T09:19:34Z</time>
      </trkpt>
      <trkpt lat="45.63609" lon="5.7235">
        <ele>648.28705</ele>
        <time>2014-11-22T09:19:39Z</time>
      </trkpt>
      <trkpt lat="45.6362" lon="5.72349">
        <ele>648.302</ele>
        <time>2014-11-22T09:19:44Z</time>
      </trkpt>
      <trkpt lat="45.63629" lon="5.72347">
        <ele>648.2212</ele>
        <time>2014-11-22T09:19:49Z</time>
      </trkpt>
      <trkpt lat="45.63637" lon="5.72348">
        <ele>648.2212</ele>
        <time>2014-11-22T09:19:54Z</time>
      </trkpt>
      <trkpt lat="45.63645" lon="5.72349">
        <ele>648.67035</ele>
        <time>2014-11-22T09:19:59Z</time>
      </trkpt>
      <trkpt lat="45.63652" lon="5.72344">
        <ele>648.67035</ele>
        <time>2014-11-22T09:20:04Z</time>
      </trkpt>
      <trkpt lat="45.63659" lon="5.7234">
        <ele>649.14667</ele>
        <time>2014-11-22T09:20:09Z</time>
      </trkpt>
      <trkpt lat="45.63666" lon="5.72338">
        <ele>649.14667</ele>
        <time>2014-11-22T09:20:14Z</time>
      </trkpt>
      <trkpt lat="45.63672" lon="5.72337">
        <ele>649.66</ele>
        <time>2014-11-22T09:20:19Z</time>
      </trkpt>
      <trkpt lat="45.63683" lon="5.72336">
        <ele>650.1904</ele>
        <time>2014-11-22T09:20:24Z</time>
      </trkpt>
      <trkpt lat="45.63691" lon="5.72335">
        <ele>650.1904</ele>
        <time>2014-11-22T09:20:29Z</time>
      </trkpt>
      <trkpt lat="45.63696" lon="5.72334">
        <ele>650.7918</ele>
        <time>2014-11-22T09:20:34Z</time>
      </trkpt>
      <trkpt lat="45.63707" lon="5.72332">
        <ele>651.6869</ele>
        <time>2014-11-22T09:20:40Z</time>
      </trkpt>
      <trkpt lat="45.63711" lon="5.72331">
        <ele>651.6869</ele>
        <time>2014-11-22T09:20:44Z</time>
      </trkpt>
      <trkpt lat="45.63719" lon="5.7233">
        <ele>652.15826</ele>
        <time>2014-11-22T09:20:49Z</time>
      </trkpt>
      <trkpt lat="45.63724" lon="5.72329">
        <ele>652.15826</ele>
        <time>2014-11-22T09:20:55Z</time>
      </trkpt>
      <trkpt lat="45.63727" lon="5.72328">
        <ele>652.15826</ele>
        <time>2014-11-22T09:20:59Z</time>
      </trkpt>
      <trkpt lat="45.63736" lon="5.72326">
        <ele>652.4944</ele>
        <time>2014-11-22T09:21:04Z</time>
      </trkpt>
      <trkpt lat="45.63743" lon="5.72326">
        <ele>652.4944</ele>
        <time>2014-11-22T09:21:09Z</time>
      </trkpt>
      <trkpt lat="45.6375" lon="5.72329">
        <ele>652.9196</ele>
        <time>2014-11-22T09:21:14Z</time>
      </trkpt>
      <trkpt lat="45.63759" lon="5.72329">
        <ele>653.09375</ele>
        <time>2014-11-22T09:21:19Z</time>
      </trkpt>
      <trkpt lat="45.63767" lon="5.72329">
        <ele>653.09375</ele>
        <time>2014-11-22T09:21:24Z</time>
      </trkpt>
      <trkpt lat="45.63776" lon="5.7233">
        <ele>653.4955</ele>
        <time>2014-11-22T09:21:29Z</time>
      </trkpt>
      <trkpt lat="45.63781" lon="5.72331">
        <ele>653.4955</ele>
        <time>2014-11-22T09:21:34Z</time>
      </trkpt>
      <trkpt lat="45.63785" lon="5.72331">
        <ele>653.9765</ele>
        <time>2014-11-22T09:21:39Z</time>
      </trkpt>
      <trkpt lat="45.63788" lon="5.72329">
        <ele>653.9765</ele>
        <time>2014-11-22T09:21:44Z</time>
      </trkpt>
      <trkpt lat="45.63794" lon="5.72329">
        <ele>654.41364</ele>
        <time>2014-11-22T09:21:49Z</time>
      </trkpt>
      <trkpt lat="45.63802" lon="5.72329">
        <ele>654.41364</ele>
        <time>2014-11-22T09:21:54Z</time>
      </trkpt>
      <trkpt lat="45.63809" lon="5.72329">
        <ele>655.09686</ele>
        <time>2014-11-22T09:21:59Z</time>
      </trkpt>
      <trkpt lat="45.63818" lon="5.72328">
        <ele>655.09686</ele>
        <time>2014-11-22T09:22:04Z</time>
      </trkpt>
      <trkpt lat="45.63825" lon="5.72326">
        <ele>655.90466</ele>
        <time>2014-11-22T09:22:09Z</time>
      </trkpt>
      <trkpt lat="45.63831" lon="5.72325">
        <ele>655.90466</ele>
        <time>2014-11-22T09:22:14Z</time>
      </trkpt>
      <trkpt lat="45.63836" lon="5.72326">
        <ele>656.42145</ele>
        <time>2014-11-22T09:22:19Z</time>
      </trkpt>
      <trkpt lat="45.63844" lon="5.72327">
        <ele>656.42145</ele>
        <time>2014-11-22T09:22:24Z</time>
      </trkpt>
      <trkpt lat="45.63853" lon="5.7233">
        <ele>657.15717</ele>
        <time>2014-11-22T09:22:29Z</time>
      </trkpt>
      <trkpt lat="45.63861" lon="5.7233">
        <ele>657.15717</ele>
        <time>2014-11-22T09:22:34Z</time>
      </trkpt>
      <trkpt lat="45.63864" lon="5.7233">
        <ele>657.4012</ele>
        <time>2014-11-22T09:22:39Z</time>
      </trkpt>
      <trkpt lat="45.63869" lon="5.72327">
        <ele>657.4012</ele>
        <time>2014-11-22T09:22:44Z</time>
      </trkpt>
      <trkpt lat="45.63875" lon="5.72325">
        <ele>657.33307</ele>
        <time>2014-11-22T09:22:49Z</time>
      </trkpt>
      <trkpt lat="45.63879" lon="5.72324">
        <ele>657.33307</ele>
        <time>2014-11-22T09:22:54Z</time>
      </trkpt>
      <trkpt lat="45.63883" lon="5.72323">
        <ele>657.33307</ele>
        <time>2014-11-22T09:22:59Z</time>
      </trkpt>
      <trkpt lat="45.63888" lon="5.72323">
        <ele>656.4856</ele>
        <time>2014-11-22T09:23:04Z</time>
      </trkpt>
      <trkpt lat="45.63908" lon="5.72326">
        <ele>656.4038</ele>
        <time>2014-11-22T09:23:09Z</time>
      </trkpt>
      <trkpt lat="45.63913" lon="5.72326">
        <ele>656.4038</ele>
        <time>2014-11-22T09:23:14Z</time>
      </trkpt>
      <trkpt lat="45.63919" lon="5.72325">
        <ele>655.6473</ele>
        <time>2014-11-22T09:23:19Z</time>
      </trkpt>
      <trkpt lat="45.63924" lon="5.72323">
        <ele>655.6473</ele>
        <time>2014-11-22T09:23:24Z</time>
      </trkpt>
      <trkpt lat="45.63927" lon="5.72322">
        <ele>655.6473</ele>
        <time>2014-11-22T09:23:29Z</time>
      </trkpt>
      <trkpt lat="45.63934" lon="5.7232">
        <ele>654.7005</ele>
        <time>2014-11-22T09:23:34Z</time>
      </trkpt>
      <trkpt lat="45.63941" lon="5.72321">
        <ele>654.7005</ele>
        <time>2014-11-22T09:23:39Z</time>
      </trkpt>
      <trkpt lat="45.63951" lon="5.7232">
        <ele>654.3876</ele>
        <time>2014-11-22T09:23:44Z</time>
      </trkpt>
      <trkpt lat="45.63956" lon="5.7232">
        <ele>654.3876</ele>
        <time>2014-11-22T09:23:49Z</time>
      </trkpt>
      <trkpt lat="45.63963" lon="5.72318">
        <ele>653.6826</ele>
        <time>2014-11-22T09:23:54Z</time>
      </trkpt>
      <trkpt lat="45.63968" lon="5.72318">
        <ele>653.6826</ele>
        <time>2014-11-22T09:23:59Z</time>
      </trkpt>
      <trkpt lat="45.63971" lon="5.72317">
        <ele>653.6826</ele>
        <time>2014-11-22T09:24:04Z</time>
      </trkpt>
      <trkpt lat="45.6398" lon="5.72317">
        <ele>651.8813</ele>
        <time>2014-11-22T09:24:09Z</time>
      </trkpt>
      <trkpt lat="45.63989" lon="5.72318">
        <ele>649.7471</ele>
        <time>2014-11-22T09:24:14Z</time>
      </trkpt>
      <trkpt lat="45.63998" lon="5.7232">
        <ele>648.13226</ele>
        <time>2014-11-22T09:24:19Z</time>
      </trkpt>
      <trkpt lat="45.64005" lon="5.72325">
        <ele>648.13226</ele>
        <time>2014-11-22T09:24:24Z</time>
      </trkpt>
      <trkpt lat="45.6401" lon="5.72327">
        <ele>646.7872</ele>
        <time>2014-11-22T09:24:29Z</time>
      </trkpt>
      <trkpt lat="45.64016" lon="5.72327">
        <ele>646.7872</ele>
        <time>2014-11-22T09:24:34Z</time>
      </trkpt>
      <trkpt lat="45.64026" lon="5.7233">
        <ele>645.5084</ele>
        <time>2014-11-22T09:24:39Z</time>
      </trkpt>
      <trkpt lat="45.64031" lon="5.72335">
        <ele>645.5084</ele>
        <time>2014-11-22T09:24:44Z</time>
      </trkpt>
      <trkpt lat="45.64039" lon="5.7234">
        <ele>645.13074</ele>
        <time>2014-11-22T09:24:49Z</time>
      </trkpt>
      <trkpt lat="45.64044" lon="5.72343">
        <ele>645.13074</ele>
        <time>2014-11-22T09:24:54Z</time>
      </trkpt>
      <trkpt lat="45.64048" lon="5.72346">
        <ele>645.099</ele>
        <time>2014-11-22T09:24:59Z</time>
      </trkpt>
      <trkpt lat="45.6405" lon="5.72347">
        <ele>645.099</ele>
        <time>2014-11-22T09:25:04Z</time>
      </trkpt>
      <trkpt lat="45.6405" lon="5.72347">
        <ele>645.099</ele>
        <time>2014-11-22T09:25:09Z</time>
      </trkpt>
      <trkpt lat="45.64056" lon="5.72345">
        <ele>645.099</ele>
        <time>2014-11-22T09:25:14Z</time>
      </trkpt>
      <trkpt lat="45.64061" lon="5.72346">
        <ele>646.2958</ele>
        <time>2014-11-22T09:25:19Z</time>
      </trkpt>
      <trkpt lat="45.64063" lon="5.72347">
        <ele>646.2958</ele>
        <time>2014-11-22T09:25:24Z</time>
      </trkpt>
      <trkpt lat="45.64067" lon="5.7235">
        <ele>646.2958</ele>
        <time>2014-11-22T09:25:29Z</time>
      </trkpt>
      <trkpt lat="45.64074" lon="5.72353">
        <ele>647.79144</ele>
        <time>2014-11-22T09:25:34Z</time>
      </trkpt>
      <trkpt lat="45.64079" lon="5.72358">
        <ele>647.79144</ele>
        <time>2014-11-22T09:25:40Z</time>
      </trkpt>
      <trkpt lat="45.64085" lon="5.72362">
        <ele>649.25714</ele>
        <time>2014-11-22T09:25:44Z</time>
      </trkpt>
      <trkpt lat="45.6409" lon="5.72366">
        <ele>649.25714</ele>
        <time>2014-11-22T09:25:49Z</time>
      </trkpt>
      <trkpt lat="45.64099" lon="5.72371">
        <ele>650.4746</ele>
        <time>2014-11-22T09:25:54Z</time>
      </trkpt>
      <trkpt lat="45.64104" lon="5.72373">
        <ele>650.4746</ele>
        <time>2014-11-22T09:25:59Z</time>
      </trkpt>
      <trkpt lat="45.64111" lon="5.72375">
        <ele>651.6028</ele>
        <time>2014-11-22T09:26:04Z</time>
      </trkpt>
      <trkpt lat="45.64117" lon="5.72375">
        <ele>651.6028</ele>
        <time>2014-11-22T09:26:09Z</time>
      </trkpt>
      <trkpt lat="45.64125" lon="5.72377">
        <ele>652.5441</ele>
        <time>2014-11-22T09:26:14Z</time>
      </trkpt>
      <trkpt lat="45.64133" lon="5.7238">
        <ele>652.5441</ele>
        <time>2014-11-22T09:26:19Z</time>
      </trkpt>
      <trkpt lat="45.64141" lon="5.72385">
        <ele>653.5257</ele>
        <time>2014-11-22T09:26:24Z</time>
      </trkpt>
      <trkpt lat="45.64147" lon="5.72391">
        <ele>653.5257</ele>
        <time>2014-11-22T09:26:29Z</time>
      </trkpt>
      <trkpt lat="45.64151" lon="5.72398">
        <ele>654.0807</ele>
        <time>2014-11-22T09:26:34Z</time>
      </trkpt>
      <trkpt lat="45.64157" lon="5.72401">
        <ele>654.0807</ele>
        <time>2014-11-22T09:26:39Z</time>
      </trkpt>
      <trkpt lat="45.64165" lon="5.72401">
        <ele>654.1956</ele>
        <time>2014-11-22T09:26:44Z</time>
      </trkpt>
      <trkpt lat="45.64173" lon="5.724">
        <ele>654.1956</ele>
        <time>2014-11-22T09:26:49Z</time>
      </trkpt>
      <trkpt lat="45.64181" lon="5.72402">
        <ele>654.4645</ele>
        <time>2014-11-22T09:26:54Z</time>
      </trkpt>
      <trkpt lat="45.64188" lon="5.72402">
        <ele>654.4645</ele>
        <time>2014-11-22T09:26:59Z</time>
      </trkpt>
      <trkpt lat="45.64198" lon="5.72402">
        <ele>655.1779</ele>
        <time>2014-11-22T09:27:04Z</time>
      </trkpt>
      <trkpt lat="45.64207" lon="5.72401">
        <ele>655.1779</ele>
        <time>2014-11-22T09:27:09Z</time>
      </trkpt>
      <trkpt lat="45.64214" lon="5.724">
        <ele>655.869</ele>
        <time>2014-11-22T09:27:14Z</time>
      </trkpt>
      <trkpt lat="45.64222" lon="5.724">
        <ele>655.869</ele>
        <time>2014-11-22T09:27:19Z</time>
      </trkpt>
      <trkpt lat="45.64229" lon="5.72402">
        <ele>656.7393</ele>
        <time>2014-11-22T09:27:24Z</time>
      </trkpt>
      <trkpt lat="45.64239" lon="5.72402">
        <ele>657.58606</ele>
        <time>2014-11-22T09:27:29Z</time>
      </trkpt>
      <trkpt lat="45.64247" lon="5.72404">
        <ele>657.58606</ele>
        <time>2014-11-22T09:27:34Z</time>
      </trkpt>
      <trkpt lat="45.64255" lon="5.72405">
        <ele>658.27905</ele>
        <time>2014-11-22T09:27:39Z</time>
      </trkpt>
      <trkpt lat="45.64262" lon="5.72407">
        <ele>658.27905</ele>
        <time>2014-11-22T09:27:44Z</time>
      </trkpt>
      <trkpt lat="45.64269" lon="5.72409">
        <ele>658.87103</ele>
        <time>2014-11-22T09:27:49Z</time>
      </trkpt>
      <trkpt lat="45.64276" lon="5.72411">
        <ele>658.87103</ele>
        <time>2014-11-22T09:27:54Z</time>
      </trkpt>
      <trkpt lat="45.64284" lon="5.72414">
        <ele>659.62756</ele>
        <time>2014-11-22T09:27:59Z</time>
      </trkpt>
      <trkpt lat="45.64292" lon="5.72416">
        <ele>659.62756</ele>
        <time>2014-11-22T09:28:04Z</time>
      </trkpt>
      <trkpt lat="45.64294" lon="5.72418">
        <ele>660.57794</ele>
        <time>2014-11-22T09:28:10Z</time>
      </trkpt>
      <trkpt lat="45.643" lon="5.7242">
        <ele>660.57794</ele>
        <time>2014-11-22T09:28:14Z</time>
      </trkpt>
      <trkpt lat="45.64307" lon="5.72422">
        <ele>661.5327</ele>
        <time>2014-11-22T09:28:20Z</time>
      </trkpt>
      <trkpt lat="45.64313" lon="5.72423">
        <ele>661.5327</ele>
        <time>2014-11-22T09:28:24Z</time>
      </trkpt>
      <trkpt lat="45.64322" lon="5.72424">
        <ele>662.7631</ele>
        <time>2014-11-22T09:28:29Z</time>
      </trkpt>
      <trkpt lat="45.64329" lon="5.72423">
        <ele>662.7631</ele>
        <time>2014-11-22T09:28:34Z</time>
      </trkpt>
      <trkpt lat="45.64336" lon="5.72424">
        <ele>664.0874</ele>
        <time>2014-11-22T09:28:39Z</time>
      </trkpt>
      <trkpt lat="45.64342" lon="5.72425">
        <ele>664.0874</ele>
        <time>2014-11-22T09:28:44Z</time>
      </trkpt>
      <trkpt lat="45.64349" lon="5.72428">
        <ele>665.1784</ele>
        <time>2014-11-22T09:28:49Z</time>
      </trkpt>
      <trkpt lat="45.64353" lon="5.72432">
        <ele>665.1784</ele>
        <time>2014-11-22T09:28:54Z</time>
      </trkpt>
      <trkpt lat="45.6436" lon="5.72435">
        <ele>665.6762</ele>
        <time>2014-11-22T09:28:59Z</time>
      </trkpt>
      <trkpt lat="45.64366" lon="5.72438">
        <ele>665.6762</ele>
        <time>2014-11-22T09:29:04Z</time>
      </trkpt>
      <trkpt lat="45.64373" lon="5.7244">
        <ele>665.9406</ele>
        <time>2014-11-22T09:29:09Z</time>
      </trkpt>
      <trkpt lat="45.6438" lon="5.72443">
        <ele>665.9406</ele>
        <time>2014-11-22T09:29:14Z</time>
      </trkpt>
      <trkpt lat="45.64387" lon="5.72446">
        <ele>666.0033</ele>
        <time>2014-11-22T09:29:19Z</time>
      </trkpt>
      <trkpt lat="45.64393" lon="5.72448">
        <ele>666.0033</ele>
        <time>2014-11-22T09:29:24Z</time>
      </trkpt>
      <trkpt lat="45.64398" lon="5.72451">
        <ele>666.0669</ele>
        <time>2014-11-22T09:29:29Z</time>
      </trkpt>
      <trkpt lat="45.64406" lon="5.72455">
        <ele>666.0669</ele>
        <time>2014-11-22T09:29:34Z</time>
      </trkpt>
      <trkpt lat="45.64412" lon="5.72457">
        <ele>665.8727</ele>
        <time>2014-11-22T09:29:39Z</time>
      </trkpt>
      <trkpt lat="45.64419" lon="5.72462">
        <ele>665.8727</ele>
        <time>2014-11-22T09:29:44Z</time>
      </trkpt>
      <trkpt lat="45.64426" lon="5.72466">
        <ele>665.71484</ele>
        <time>2014-11-22T09:29:49Z</time>
      </trkpt>
      <trkpt lat="45.64432" lon="5.72469">
        <ele>665.71484</ele>
        <time>2014-11-22T09:29:54Z</time>
      </trkpt>
      <trkpt lat="45.64439" lon="5.72473">
        <ele>665.3904</ele>
        <time>2014-11-22T09:29:59Z</time>
      </trkpt>
      <trkpt lat="45.64446" lon="5.72476">
        <ele>665.3904</ele>
        <time>2014-11-22T09:30:04Z</time>
      </trkpt>
      <trkpt lat="45.64451" lon="5.72478">
        <ele>664.76917</ele>
        <time>2014-11-22T09:30:09Z</time>
      </trkpt>
      <trkpt lat="45.64459" lon="5.72481">
        <ele>664.76917</ele>
        <time>2014-11-22T09:30:14Z</time>
      </trkpt>
      <trkpt lat="45.64466" lon="5.72484">
        <ele>663.9046</ele>
        <time>2014-11-22T09:30:19Z</time>
      </trkpt>
      <trkpt lat="45.64472" lon="5.72486">
        <ele>663.9046</ele>
        <time>2014-11-22T09:30:24Z</time>
      </trkpt>
      <trkpt lat="45.64479" lon="5.72488">
        <ele>662.94775</ele>
        <time>2014-11-22T09:30:29Z</time>
      </trkpt>
      <trkpt lat="45.64486" lon="5.72489">
        <ele>662.94775</ele>
        <time>2014-11-22T09:30:34Z</time>
      </trkpt>
      <trkpt lat="45.64493" lon="5.72491">
        <ele>661.7937</ele>
        <time>2014-11-22T09:30:39Z</time>
      </trkpt>
      <trkpt lat="45.645" lon="5.72492">
        <ele>661.7937</ele>
        <time>2014-11-22T09:30:44Z</time>
      </trkpt>
      <trkpt lat="45.64506" lon="5.72493">
        <ele>660.5765</ele>
        <time>2014-11-22T09:30:49Z</time>
      </trkpt>
      <trkpt lat="45.64513" lon="5.72494">
        <ele>660.5765</ele>
        <time>2014-11-22T09:30:54Z</time>
      </trkpt>
      <trkpt lat="45.64519" lon="5.72493">
        <ele>659.1898</ele>
        <time>2014-11-22T09:30:59Z</time>
      </trkpt>
      <trkpt lat="45.64525" lon="5.72495">
        <ele>659.1898</ele>
        <time>2014-11-22T09:31:04Z</time>
      </trkpt>
      <trkpt lat="45.64532" lon="5.72496">
        <ele>657.5502</ele>
        <time>2014-11-22T09:31:09Z</time>
      </trkpt>
      <trkpt lat="45.64538" lon="5.72496">
        <ele>657.5502</ele>
        <time>2014-11-22T09:31:14Z</time>
      </trkpt>
      <trkpt lat="45.64547" lon="5.72494">
        <ele>655.7968</ele>
        <time>2014-11-22T09:31:19Z</time>
      </trkpt>
      <trkpt lat="45.64555" lon="5.72493">
        <ele>655.7968</ele>
        <time>2014-11-22T09:31:24Z</time>
      </trkpt>
      <trkpt lat="45.64562" lon="5.72493">
        <ele>653.9872</ele>
        <time>2014-11-22T09:31:29Z</time>
      </trkpt>
      <trkpt lat="45.64571" lon="5.72494">
        <ele>652.2896</ele>
        <time>2014-11-22T09:31:35Z</time>
      </trkpt>
      <trkpt lat="45.6458" lon="5.72498">
        <ele>652.2896</ele>
        <time>2014-11-22T09:31:39Z</time>
      </trkpt>
      <trkpt lat="45.64588" lon="5.72499">
        <ele>650.7159</ele>
        <time>2014-11-22T09:31:44Z</time>
      </trkpt>
      <trkpt lat="45.64595" lon="5.72495">
        <ele>650.7159</ele>
        <time>2014-11-22T09:31:49Z</time>
      </trkpt>
      <trkpt lat="45.64604" lon="5.72494">
        <ele>649.07446</ele>
        <time>2014-11-22T09:31:54Z</time>
      </trkpt>
      <trkpt lat="45.64608" lon="5.72492">
        <ele>649.07446</ele>
        <time>2014-11-22T09:31:59Z</time>
      </trkpt>
      <trkpt lat="45.64616" lon="5.72489">
        <ele>647.3755</ele>
        <time>2014-11-22T09:32:04Z</time>
      </trkpt>
      <trkpt lat="45.64621" lon="5.72487">
        <ele>647.3755</ele>
        <time>2014-11-22T09:32:09Z</time>
      </trkpt>
      <trkpt lat="45.64629" lon="5.72488">
        <ele>645.54175</ele>
        <time>2014-11-22T09:32:14Z</time>
      </trkpt>
      <trkpt lat="45.64635" lon="5.7249">
        <ele>645.54175</ele>
        <time>2014-11-22T09:32:19Z</time>
      </trkpt>
      <trkpt lat="45.64641" lon="5.72494">
        <ele>643.5887</ele>
        <time>2014-11-22T09:32:24Z</time>
      </trkpt>
      <trkpt lat="45.64647" lon="5.72497">
        <ele>643.5887</ele>
        <time>2014-11-22T09:32:29Z</time>
      </trkpt>
      <trkpt lat="45.64655" lon="5.72499">
        <ele>641.3864</ele>
        <time>2014-11-22T09:32:34Z</time>
      </trkpt>
      <trkpt lat="45.64663" lon="5.725">
        <ele>641.3864</ele>
        <time>2014-11-22T09:32:39Z</time>
      </trkpt>
      <trkpt lat="45.6467" lon="5.72501">
        <ele>638.9163</ele>
        <time>2014-11-22T09:32:44Z</time>
      </trkpt>
      <trkpt lat="45.64679" lon="5.72501">
        <ele>638.9163</ele>
        <time>2014-11-22T09:32:49Z</time>
      </trkpt>
      <trkpt lat="45.64688" lon="5.72501">
        <ele>636.70917</ele>
        <time>2014-11-22T09:32:54Z</time>
      </trkpt>
      <trkpt lat="45.64695" lon="5.72502">
        <ele>636.70917</ele>
        <time>2014-11-22T09:32:59Z</time>
      </trkpt>
      <trkpt lat="45.64706" lon="5.72502">
        <ele>634.79486</ele>
        <time>2014-11-22T09:33:04Z</time>
      </trkpt>
      <trkpt lat="45.64715" lon="5.72501">
        <ele>633.3153</ele>
        <time>2014-11-22T09:33:09Z</time>
      </trkpt>
      <trkpt lat="45.64721" lon="5.725">
        <ele>633.3153</ele>
        <time>2014-11-22T09:33:14Z</time>
      </trkpt>
      <trkpt lat="45.64731" lon="5.725">
        <ele>631.8674</ele>
        <time>2014-11-22T09:33:19Z</time>
      </trkpt>
      <trkpt lat="45.64739" lon="5.72501">
        <ele>631.8674</ele>
        <time>2014-11-22T09:33:24Z</time>
      </trkpt>
      <trkpt lat="45.64747" lon="5.72502">
        <ele>630.85565</ele>
        <time>2014-11-22T09:33:29Z</time>
      </trkpt>
      <trkpt lat="45.64756" lon="5.72504">
        <ele>630.09143</ele>
        <time>2014-11-22T09:33:34Z</time>
      </trkpt>
      <trkpt lat="45.64765" lon="5.72506">
        <ele>630.09143</ele>
        <time>2014-11-22T09:33:39Z</time>
      </trkpt>
      <trkpt lat="45.64773" lon="5.72507">
        <ele>629.4424</ele>
        <time>2014-11-22T09:33:44Z</time>
      </trkpt>
      <trkpt lat="45.6478" lon="5.72507">
        <ele>629.4424</ele>
        <time>2014-11-22T09:33:49Z</time>
      </trkpt>
      <trkpt lat="45.64787" lon="5.72505">
        <ele>628.6124</ele>
        <time>2014-11-22T09:33:54Z</time>
      </trkpt>
      <trkpt lat="45.64794" lon="5.72503">
        <ele>628.6124</ele>
        <time>2014-11-22T09:33:59Z</time>
      </trkpt>
      <trkpt lat="45.64803" lon="5.725">
        <ele>627.6447</ele>
        <time>2014-11-22T09:34:04Z</time>
      </trkpt>
      <trkpt lat="45.64809" lon="5.72499">
        <ele>627.6447</ele>
        <time>2014-11-22T09:34:09Z</time>
      </trkpt>
      <trkpt lat="45.64816" lon="5.72492">
        <ele>626.3488</ele>
        <time>2014-11-22T09:34:14Z</time>
      </trkpt>
      <trkpt lat="45.64823" lon="5.72491">
        <ele>626.3488</ele>
        <time>2014-11-22T09:34:19Z</time>
      </trkpt>
      <trkpt lat="45.64832" lon="5.72492">
        <ele>624.95264</ele>
        <time>2014-11-22T09:34:24Z</time>
      </trkpt>
      <trkpt lat="45.64839" lon="5.72497">
        <ele>624.95264</ele>
        <time>2014-11-22T09:34:29Z</time>
      </trkpt>
      <trkpt lat="45.64847" lon="5.72503">
        <ele>624.0999</ele>
        <time>2014-11-22T09:34:34Z</time>
      </trkpt>
      <trkpt lat="45.64852" lon="5.72507">
        <ele>624.0999</ele>
        <time>2014-11-22T09:34:39Z</time>
      </trkpt>
      <trkpt lat="45.64859" lon="5.72509">
        <ele>623.6072</ele>
        <time>2014-11-22T09:34:44Z</time>
      </trkpt>
      <trkpt lat="45.64866" lon="5.7251">
        <ele>623.6072</ele>
        <time>2014-11-22T09:34:49Z</time>
      </trkpt>
      <trkpt lat="45.64874" lon="5.72513">
        <ele>623.54834</ele>
        <time>2014-11-22T09:34:54Z</time>
      </trkpt>
      <trkpt lat="45.6488" lon="5.72513">
        <ele>623.54834</ele>
        <time>2014-11-22T09:34:59Z</time>
      </trkpt>
      <trkpt lat="45.64888" lon="5.72517">
        <ele>623.71674</ele>
        <time>2014-11-22T09:35:04Z</time>
      </trkpt>
      <trkpt lat="45.64896" lon="5.7252">
        <ele>623.71674</ele>
        <time>2014-11-22T09:35:09Z</time>
      </trkpt>
      <trkpt lat="45.64907" lon="5.72518">
        <ele>624.48224</ele>
        <time>2014-11-22T09:35:14Z</time>
      </trkpt>
      <trkpt lat="45.64924" lon="5.72513">
        <ele>625.66693</ele>
        <time>2014-11-22T09:35:19Z</time>
      </trkpt>
      <trkpt lat="45.64953" lon="5.72502">
        <ele>627.2345</ele>
        <time>2014-11-22T09:35:24Z</time>
      </trkpt>
      <trkpt lat="45.64983" lon="5.7249">
        <ele>629.1791</ele>
        <time>2014-11-22T09:35:29Z</time>
      </trkpt>
      <trkpt lat="45.6501" lon="5.72477">
        <ele>631.40753</ele>
        <time>2014-11-22T09:35:34Z</time>
      </trkpt>
      <trkpt lat="45.65025" lon="5.72476">
        <ele>633.7609</ele>
        <time>2014-11-22T09:35:39Z</time>
      </trkpt>
      <trkpt lat="45.65034" lon="5.72476">
        <ele>636.25</ele>
        <time>2014-11-22T09:35:44Z</time>
      </trkpt>
      <trkpt lat="45.6504" lon="5.72476">
        <ele>636.25</ele>
        <time>2014-11-22T09:35:49Z</time>
      </trkpt>
      <trkpt lat="45.65047" lon="5.72488">
        <ele>638.7117</ele>
        <time>2014-11-22T09:35:54Z</time>
      </trkpt>
      <trkpt lat="45.65049" lon="5.72498">
        <ele>638.7117</ele>
        <time>2014-11-22T09:35:59Z</time>
      </trkpt>
      <trkpt lat="45.6505" lon="5.72508">
        <ele>640.8939</ele>
        <time>2014-11-22T09:36:04Z</time>
      </trkpt>
      <trkpt lat="45.65053" lon="5.72518">
        <ele>640.8939</ele>
        <time>2014-11-22T09:36:09Z</time>
      </trkpt>
      <trkpt lat="45.6506" lon="5.72522">
        <ele>642.9534</ele>
        <time>2014-11-22T09:36:14Z</time>
      </trkpt>
      <trkpt lat="45.65067" lon="5.72521">
        <ele>642.9534</ele>
        <time>2014-11-22T09:36:19Z</time>
      </trkpt>
      <trkpt lat="45.65075" lon="5.7252">
        <ele>644.7186</ele>
        <time>2014-11-22T09:36:25Z</time>
      </trkpt>
      <trkpt lat="45.65083" lon="5.72519">
        <ele>644.7186</ele>
        <time>2014-11-22T09:36:29Z</time>
      </trkpt>
      <trkpt lat="45.6509" lon="5.72516">
        <ele>646.04596</ele>
        <time>2014-11-22T09:36:34Z</time>
      </trkpt>
      <trkpt lat="45.65098" lon="5.72516">
        <ele>646.04596</ele>
        <time>2014-11-22T09:36:39Z</time>
      </trkpt>
      <trkpt lat="45.65104" lon="5.72515">
        <ele>647.13525</ele>
        <time>2014-11-22T09:36:44Z</time>
      </trkpt>
      <trkpt lat="45.65114" lon="5.72513">
        <ele>648.01404</ele>
        <time>2014-11-22T09:36:50Z</time>
      </trkpt>
      <trkpt lat="45.65119" lon="5.72513">
        <ele>648.01404</ele>
        <time>2014-11-22T09:36:54Z</time>
      </trkpt>
      <trkpt lat="45.65128" lon="5.72511">
        <ele>648.46344</ele>
        <time>2014-11-22T09:36:59Z</time>
      </trkpt>
      <trkpt lat="45.65136" lon="5.72511">
        <ele>648.46344</ele>
        <time>2014-11-22T09:37:04Z</time>
      </trkpt>
      <trkpt lat="45.65144" lon="5.72511">
        <ele>648.75757</ele>
        <time>2014-11-22T09:37:09Z</time>
      </trkpt>
      <trkpt lat="45.6515" lon="5.72511">
        <ele>648.75757</ele>
        <time>2014-11-22T09:37:14Z</time>
      </trkpt>
      <trkpt lat="45.65158" lon="5.72509">
        <ele>648.7044</ele>
        <time>2014-11-22T09:37:19Z</time>
      </trkpt>
      <trkpt lat="45.65165" lon="5.72509">
        <ele>648.7044</ele>
        <time>2014-11-22T09:37:24Z</time>
      </trkpt>
      <trkpt lat="45.65172" lon="5.72508">
        <ele>648.5594</ele>
        <time>2014-11-22T09:37:29Z</time>
      </trkpt>
      <trkpt lat="45.65179" lon="5.72506">
        <ele>648.5594</ele>
        <time>2014-11-22T09:37:34Z</time>
      </trkpt>
      <trkpt lat="45.65186" lon="5.72505">
        <ele>648.27124</ele>
        <time>2014-11-22T09:37:39Z</time>
      </trkpt>
      <trkpt lat="45.65195" lon="5.72504">
        <ele>648.27124</ele>
        <time>2014-11-22T09:37:44Z</time>
      </trkpt>
      <trkpt lat="45.65202" lon="5.72501">
        <ele>648.13904</ele>
        <time>2014-11-22T09:37:49Z</time>
      </trkpt>
      <trkpt lat="45.65209" lon="5.72498">
        <ele>648.13904</ele>
        <time>2014-11-22T09:37:54Z</time>
      </trkpt>
      <trkpt lat="45.65216" lon="5.72498">
        <ele>647.90625</ele>
        <time>2014-11-22T09:37:59Z</time>
      </trkpt>
      <trkpt lat="45.65224" lon="5.72497">
        <ele>647.90625</ele>
        <time>2014-11-22T09:38:04Z</time>
      </trkpt>
      <trkpt lat="45.6523" lon="5.72496">
        <ele>647.63824</ele>
        <time>2014-11-22T09:38:09Z</time>
      </trkpt>
      <trkpt lat="45.65238" lon="5.72495">
        <ele>647.63824</ele>
        <time>2014-11-22T09:38:14Z</time>
      </trkpt>
      <trkpt lat="45.65246" lon="5.72494">
        <ele>647.22284</ele>
        <time>2014-11-22T09:38:19Z</time>
      </trkpt>
      <trkpt lat="45.65252" lon="5.72493">
        <ele>647.22284</ele>
        <time>2014-11-22T09:38:24Z</time>
      </trkpt>
      <trkpt lat="45.65259" lon="5.72493">
        <ele>646.6863</ele>
        <time>2014-11-22T09:38:29Z</time>
      </trkpt>
      <trkpt lat="45.65266" lon="5.72491">
        <ele>646.6863</ele>
        <time>2014-11-22T09:38:34Z</time>
      </trkpt>
      <trkpt lat="45.65273" lon="5.72489">
        <ele>645.9524</ele>
        <time>2014-11-22T09:38:39Z</time>
      </trkpt>
      <trkpt lat="45.65279" lon="5.72488">
        <ele>645.9524</ele>
        <time>2014-11-22T09:38:44Z</time>
      </trkpt>
      <trkpt lat="45.65288" lon="5.72487">
        <ele>645.1963</ele>
        <time>2014-11-22T09:38:49Z</time>
      </trkpt>
      <trkpt lat="45.65297" lon="5.72486">
        <ele>645.1963</ele>
        <time>2014-11-22T09:38:54Z</time>
      </trkpt>
      <trkpt lat="45.65304" lon="5.72484">
        <ele>644.4074</ele>
        <time>2014-11-22T09:38:59Z</time>
      </trkpt>
      <trkpt lat="45.65305" lon="5.72484">
        <ele>644.4074</ele>
        <time>2014-11-22T09:39:04Z</time>
      </trkpt>
      <trkpt lat="45.65307" lon="5.72483">
        <ele>644.4074</ele>
        <time>2014-11-22T09:39:09Z</time>
      </trkpt>
      <trkpt lat="45.65311" lon="5.72488">
        <ele>644.4074</ele>
        <time>2014-11-22T09:39:14Z</time>
      </trkpt>
      <trkpt lat="45.65311" lon="5.72488">
        <ele>644.4074</ele>
        <time>2014-11-22T09:39:19Z</time>
      </trkpt>
      <trkpt lat="45.65312" lon="5.72487">
        <ele>643.47504</ele>
        <time>2014-11-22T09:39:24Z</time>
      </trkpt>
      <trkpt lat="45.65312" lon="5.72486">
        <ele>643.47504</ele>
        <time>2014-11-22T09:39:29Z</time>
      </trkpt>
      <trkpt lat="45.65313" lon="5.72486">
        <ele>643.47504</ele>
        <time>2014-11-22T09:39:34Z</time>
      </trkpt>
      <trkpt lat="45.65313" lon="5.72489">
        <ele>643.47504</ele>
        <time>2014-11-22T09:39:40Z</time>
      </trkpt>
      <trkpt lat="45.65314" lon="5.72489">
        <ele>643.47504</ele>
        <time>2014-11-22T09:39:44Z</time>
      </trkpt>
      <trkpt lat="45.65314" lon="5.72489">
        <ele>643.47504</ele>
        <time>2014-11-22T09:39:49Z</time>
      </trkpt>
      <trkpt lat="45.65315" lon="5.72489">
        <ele>643.47504</ele>
        <time>2014-11-22T09:39:54Z</time>
      </trkpt>
      <trkpt lat="45.65315" lon="5.72489">
        <ele>643.47504</ele>
        <time>2014-11-22T09:39:59Z</time>
      </trkpt>
      <trkpt lat="45.65321" lon="5.72498">
        <ele>642.7296</ele>
        <time>2014-11-22T09:40:04Z</time>
      </trkpt>
      <trkpt lat="45.65325" lon="5.72506">
        <ele>642.7296</ele>
        <time>2014-11-22T09:40:09Z</time>
      </trkpt>
      <trkpt lat="45.65328" lon="5.72514">
        <ele>641.9291</ele>
        <time>2014-11-22T09:40:14Z</time>
      </trkpt>
      <trkpt lat="45.65333" lon="5.72523">
        <ele>641.9291</ele>
        <time>2014-11-22T09:40:19Z</time>
      </trkpt>
      <trkpt lat="45.65338" lon="5.72531">
        <ele>640.9357</ele>
        <time>2014-11-22T09:40:24Z</time>
      </trkpt>
      <trkpt lat="45.65344" lon="5.72537">
        <ele>640.9357</ele>
        <time>2014-11-22T09:40:29Z</time>
      </trkpt>
      <trkpt lat="45.65351" lon="5.72545">
        <ele>640.1414</ele>
        <time>2014-11-22T09:40:34Z</time>
      </trkpt>
      <trkpt lat="45.65355" lon="5.72553">
        <ele>640.1414</ele>
        <time>2014-11-22T09:40:39Z</time>
      </trkpt>
      <trkpt lat="45.6536" lon="5.72561">
        <ele>639.30334</ele>
        <time>2014-11-22T09:40:45Z</time>
      </trkpt>
      <trkpt lat="45.65365" lon="5.72569">
        <ele>639.30334</ele>
        <time>2014-11-22T09:40:50Z</time>
      </trkpt>
      <trkpt lat="45.6537" lon="5.72576">
        <ele>638.58575</ele>
        <time>2014-11-22T09:40:54Z</time>
      </trkpt>
      <trkpt lat="45.65375" lon="5.72582">
        <ele>638.58575</ele>
        <time>2014-11-22T09:40:59Z</time>
      </trkpt>
      <trkpt lat="45.65381" lon="5.72586">
        <ele>637.8378</ele>
        <time>2014-11-22T09:41:04Z</time>
      </trkpt>
      <trkpt lat="45.65387" lon="5.72589">
        <ele>637.8378</ele>
        <time>2014-11-22T09:41:09Z</time>
      </trkpt>
      <trkpt lat="45.65393" lon="5.72593">
        <ele>636.70374</ele>
        <time>2014-11-22T09:41:14Z</time>
      </trkpt>
      <trkpt lat="45.65397" lon="5.72596">
        <ele>636.70374</ele>
        <time>2014-11-22T09:41:19Z</time>
      </trkpt>
      <trkpt lat="45.65406" lon="5.726">
        <ele>635.30164</ele>
        <time>2014-11-22T09:41:24Z</time>
      </trkpt>
      <trkpt lat="45.65416" lon="5.72605">
        <ele>633.85693</ele>
        <time>2014-11-22T09:41:29Z</time>
      </trkpt>
      <trkpt lat="45.65423" lon="5.72608">
        <ele>633.85693</ele>
        <time>2014-11-22T09:41:34Z</time>
      </trkpt>
      <trkpt lat="45.6543" lon="5.72613">
        <ele>632.6795</ele>
        <time>2014-11-22T09:41:39Z</time>
      </trkpt>
      <trkpt lat="45.65437" lon="5.72616">
        <ele>632.6795</ele>
        <time>2014-11-22T09:41:44Z</time>
      </trkpt>
      <trkpt lat="45.65441" lon="5.72619">
        <ele>631.8826</ele>
        <time>2014-11-22T09:41:49Z</time>
      </trkpt>
      <trkpt lat="45.65446" lon="5.72623">
        <ele>631.8826</ele>
        <time>2014-11-22T09:41:54Z</time>
      </trkpt>
      <trkpt lat="45.65453" lon="5.72632">
        <ele>631.4837</ele>
        <time>2014-11-22T09:41:59Z</time>
      </trkpt>
      <trkpt lat="45.6546" lon="5.72638">
        <ele>631.4837</ele>
        <time>2014-11-22T09:42:04Z</time>
      </trkpt>
      <trkpt lat="45.65465" lon="5.72644">
        <ele>631.0943</ele>
        <time>2014-11-22T09:42:09Z</time>
      </trkpt>
      <trkpt lat="45.65469" lon="5.72651">
        <ele>631.0943</ele>
        <time>2014-11-22T09:42:14Z</time>
      </trkpt>
      <trkpt lat="45.65474" lon="5.72659">
        <ele>629.89307</ele>
        <time>2014-11-22T09:42:19Z</time>
      </trkpt>
      <trkpt lat="45.6548" lon="5.72664">
        <ele>629.89307</ele>
        <time>2014-11-22T09:42:24Z</time>
      </trkpt>
      <trkpt lat="45.65486" lon="5.72669">
        <ele>628.99475</ele>
        <time>2014-11-22T09:42:30Z</time>
      </trkpt>
      <trkpt lat="45.65492" lon="5.72677">
        <ele>628.99475</ele>
        <time>2014-11-22T09:42:34Z</time>
      </trkpt>
      <trkpt lat="45.65499" lon="5.72682">
        <ele>628.0911</ele>
        <time>2014-11-22T09:42:39Z</time>
      </trkpt>
      <trkpt lat="45.65505" lon="5.72689">
        <ele>628.0911</ele>
        <time>2014-11-22T09:42:44Z</time>
      </trkpt>
      <trkpt lat="45.65512" lon="5.72695">
        <ele>627.74677</ele>
        <time>2014-11-22T09:42:49Z</time>
      </trkpt>
      <trkpt lat="45.6552" lon="5.72699">
        <ele>627.74677</ele>
        <time>2014-11-22T09:42:54Z</time>
      </trkpt>
      <trkpt lat="45.65525" lon="5.72706">
        <ele>627.8201</ele>
        <time>2014-11-22T09:42:59Z</time>
      </trkpt>
      <trkpt lat="45.6553" lon="5.72713">
        <ele>627.8201</ele>
        <time>2014-11-22T09:43:04Z</time>
      </trkpt>
      <trkpt lat="45.65536" lon="5.72718">
        <ele>628.0493</ele>
        <time>2014-11-22T09:43:09Z</time>
      </trkpt>
      <trkpt lat="45.65544" lon="5.72725">
        <ele>628.29193</ele>
        <time>2014-11-22T09:43:14Z</time>
      </trkpt>
      <trkpt lat="45.65551" lon="5.72731">
        <ele>628.29193</ele>
        <time>2014-11-22T09:43:19Z</time>
      </trkpt>
      <trkpt lat="45.65556" lon="5.72739">
        <ele>628.74744</ele>
        <time>2014-11-22T09:43:24Z</time>
      </trkpt>
      <trkpt lat="45.6556" lon="5.72746">
        <ele>628.74744</ele>
        <time>2014-11-22T09:43:29Z</time>
      </trkpt>
      <trkpt lat="45.65565" lon="5.72755">
        <ele>629.11</ele>
        <time>2014-11-22T09:43:34Z</time>
      </trkpt>
      <trkpt lat="45.65569" lon="5.72765">
        <ele>629.11</ele>
        <time>2014-11-22T09:43:39Z</time>
      </trkpt>
      <trkpt lat="45.65573" lon="5.72774">
        <ele>629.3704</ele>
        <time>2014-11-22T09:43:44Z</time>
      </trkpt>
      <trkpt lat="45.65578" lon="5.72783">
        <ele>629.3704</ele>
        <time>2014-11-22T09:43:49Z</time>
      </trkpt>
      <trkpt lat="45.65583" lon="5.72791">
        <ele>629.46265</ele>
        <time>2014-11-22T09:43:54Z</time>
      </trkpt>
      <trkpt lat="45.65588" lon="5.72798">
        <ele>629.46265</ele>
        <time>2014-11-22T09:43:59Z</time>
      </trkpt>
      <trkpt lat="45.65594" lon="5.72805">
        <ele>629.3836</ele>
        <time>2014-11-22T09:44:04Z</time>
      </trkpt>
      <trkpt lat="45.656" lon="5.72812">
        <ele>629.3836</ele>
        <time>2014-11-22T09:44:09Z</time>
      </trkpt>
      <trkpt lat="45.65605" lon="5.72819">
        <ele>629.21747</ele>
        <time>2014-11-22T09:44:14Z</time>
      </trkpt>
      <trkpt lat="45.65611" lon="5.72825">
        <ele>629.21747</ele>
        <time>2014-11-22T09:44:19Z</time>
      </trkpt>
      <trkpt lat="45.65616" lon="5.72833">
        <ele>628.89825</ele>
        <time>2014-11-22T09:44:24Z</time>
      </trkpt>
      <trkpt lat="45.65622" lon="5.7284">
        <ele>628.89825</ele>
        <time>2014-11-22T09:44:29Z</time>
      </trkpt>
      <trkpt lat="45.65626" lon="5.72847">
        <ele>628.4373</ele>
        <time>2014-11-22T09:44:34Z</time>
      </trkpt>
      <trkpt lat="45.6563" lon="5.72856">
        <ele>628.4373</ele>
        <time>2014-11-22T09:44:39Z</time>
      </trkpt>
      <trkpt lat="45.65633" lon="5.72864">
        <ele>627.7159</ele>
        <time>2014-11-22T09:44:44Z</time>
      </trkpt>
      <trkpt lat="45.65637" lon="5.72872">
        <ele>627.7159</ele>
        <time>2014-11-22T09:44:49Z</time>
      </trkpt>
      <trkpt lat="45.65641" lon="5.72881">
        <ele>627.0714</ele>
        <time>2014-11-22T09:44:54Z</time>
      </trkpt>
      <trkpt lat="45.65643" lon="5.7289">
        <ele>627.0714</ele>
        <time>2014-11-22T09:44:59Z</time>
      </trkpt>
      <trkpt lat="45.65647" lon="5.729">
        <ele>626.3983</ele>
        <time>2014-11-22T09:45:04Z</time>
      </trkpt>
      <trkpt lat="45.65651" lon="5.72909">
        <ele>626.3983</ele>
        <time>2014-11-22T09:45:09Z</time>
      </trkpt>
      <trkpt lat="45.65655" lon="5.72919">
        <ele>625.78625</ele>
        <time>2014-11-22T09:45:14Z</time>
      </trkpt>
      <trkpt lat="45.65658" lon="5.72929">
        <ele>625.78625</ele>
        <time>2014-11-22T09:45:19Z</time>
      </trkpt>
      <trkpt lat="45.65661" lon="5.72937">
        <ele>625.1308</ele>
        <time>2014-11-22T09:45:24Z</time>
      </trkpt>
      <trkpt lat="45.65665" lon="5.72945">
        <ele>625.1308</ele>
        <time>2014-11-22T09:45:29Z</time>
      </trkpt>
      <trkpt lat="45.6567" lon="5.72953">
        <ele>624.32074</ele>
        <time>2014-11-22T09:45:34Z</time>
      </trkpt>
      <trkpt lat="45.65674" lon="5.72961">
        <ele>624.32074</ele>
        <time>2014-11-22T09:45:39Z</time>
      </trkpt>
      <trkpt lat="45.65679" lon="5.72968">
        <ele>623.5419</ele>
        <time>2014-11-22T09:45:44Z</time>
      </trkpt>
      <trkpt lat="45.65684" lon="5.72976">
        <ele>623.5419</ele>
        <time>2014-11-22T09:45:49Z</time>
      </trkpt>
      <trkpt lat="45.65689" lon="5.72983">
        <ele>622.70667</ele>
        <time>2014-11-22T09:45:54Z</time>
      </trkpt>
      <trkpt lat="45.65695" lon="5.72989">
        <ele>622.70667</ele>
        <time>2014-11-22T09:45:59Z</time>
      </trkpt>
      <trkpt lat="45.657" lon="5.72996">
        <ele>621.97925</ele>
        <time>2014-11-22T09:46:04Z</time>
      </trkpt>
      <trkpt lat="45.65705" lon="5.73002">
        <ele>621.97925</ele>
        <time>2014-11-22T09:46:09Z</time>
      </trkpt>
      <trkpt lat="45.6571" lon="5.73009">
        <ele>621.3383</ele>
        <time>2014-11-22T09:46:14Z</time>
      </trkpt>
      <trkpt lat="45.65716" lon="5.73016">
        <ele>621.3383</ele>
        <time>2014-11-22T09:46:19Z</time>
      </trkpt>
      <trkpt lat="45.65721" lon="5.73023">
        <ele>620.6199</ele>
        <time>2014-11-22T09:46:24Z</time>
      </trkpt>
      <trkpt lat="45.65726" lon="5.7303">
        <ele>620.6199</ele>
        <time>2014-11-22T09:46:29Z</time>
      </trkpt>
      <trkpt lat="45.6573" lon="5.73035">
        <ele>619.85944</ele>
        <time>2014-11-22T09:46:34Z</time>
      </trkpt>
      <trkpt lat="45.65738" lon="5.73043">
        <ele>619.14764</ele>
        <time>2014-11-22T09:46:39Z</time>
      </trkpt>
      <trkpt lat="45.65743" lon="5.73048">
        <ele>619.14764</ele>
        <time>2014-11-22T09:46:44Z</time>
      </trkpt>
      <trkpt lat="45.65749" lon="5.73055">
        <ele>618.4531</ele>
        <time>2014-11-22T09:46:49Z</time>
      </trkpt>
      <trkpt lat="45.65753" lon="5.73061">
        <ele>618.4531</ele>
        <time>2014-11-22T09:46:54Z</time>
      </trkpt>
      <trkpt lat="45.65757" lon="5.73067">
        <ele>617.4727</ele>
        <time>2014-11-22T09:46:59Z</time>
      </trkpt>
      <trkpt lat="45.65764" lon="5.73075">
        <ele>617.4727</ele>
        <time>2014-11-22T09:47:04Z</time>
      </trkpt>
      <trkpt lat="45.6577" lon="5.73081">
        <ele>616.63257</ele>
        <time>2014-11-22T09:47:09Z</time>
      </trkpt>
      <trkpt lat="45.65776" lon="5.73086">
        <ele>616.63257</ele>
        <time>2014-11-22T09:47:14Z</time>
      </trkpt>
      <trkpt lat="45.65782" lon="5.73091">
        <ele>615.86597</ele>
        <time>2014-11-22T09:47:19Z</time>
      </trkpt>
      <trkpt lat="45.65787" lon="5.73094">
        <ele>615.86597</ele>
        <time>2014-11-22T09:47:24Z</time>
      </trkpt>
      <trkpt lat="45.65795" lon="5.731">
        <ele>615.1541</ele>
        <time>2014-11-22T09:47:29Z</time>
      </trkpt>
      <trkpt lat="45.65801" lon="5.73104">
        <ele>615.1541</ele>
        <time>2014-11-22T09:47:34Z</time>
      </trkpt>
      <trkpt lat="45.65807" lon="5.73108">
        <ele>614.39276</ele>
        <time>2014-11-22T09:47:39Z</time>
      </trkpt>
      <trkpt lat="45.65813" lon="5.73112">
        <ele>614.39276</ele>
        <time>2014-11-22T09:47:44Z</time>
      </trkpt>
      <trkpt lat="45.6582" lon="5.73116">
        <ele>613.65857</ele>
        <time>2014-11-22T09:47:49Z</time>
      </trkpt>
      <trkpt lat="45.65827" lon="5.7312">
        <ele>613.65857</ele>
        <time>2014-11-22T09:47:54Z</time>
      </trkpt>
      <trkpt lat="45.65834" lon="5.73124">
        <ele>613.0655</ele>
        <time>2014-11-22T09:47:59Z</time>
      </trkpt>
      <trkpt lat="45.65841" lon="5.73127">
        <ele>613.0655</ele>
        <time>2014-11-22T09:48:04Z</time>
      </trkpt>
      <trkpt lat="45.65847" lon="5.73131">
        <ele>612.53156</ele>
        <time>2014-11-22T09:48:09Z</time>
      </trkpt>
      <trkpt lat="45.65854" lon="5.73133">
        <ele>612.53156</ele>
        <time>2014-11-22T09:48:14Z</time>
      </trkpt>
      <trkpt lat="45.65861" lon="5.73136">
        <ele>611.96606</ele>
        <time>2014-11-22T09:48:19Z</time>
      </trkpt>
      <trkpt lat="45.65868" lon="5.73139">
        <ele>611.96606</ele>
        <time>2014-11-22T09:48:24Z</time>
      </trkpt>
      <trkpt lat="45.65874" lon="5.73141">
        <ele>611.27057</ele>
        <time>2014-11-22T09:48:29Z</time>
      </trkpt>
      <trkpt lat="45.65881" lon="5.73145">
        <ele>611.27057</ele>
        <time>2014-11-22T09:48:34Z</time>
      </trkpt>
      <trkpt lat="45.65887" lon="5.73149">
        <ele>610.5417</ele>
        <time>2014-11-22T09:48:39Z</time>
      </trkpt>
      <trkpt lat="45.65893" lon="5.73156">
        <ele>610.5417</ele>
        <time>2014-11-22T09:48:44Z</time>
      </trkpt>
      <trkpt lat="45.65898" lon="5.73162">
        <ele>609.8113</ele>
        <time>2014-11-22T09:48:49Z</time>
      </trkpt>
      <trkpt lat="45.65904" lon="5.73169">
        <ele>609.8113</ele>
        <time>2014-11-22T09:48:54Z</time>
      </trkpt>
      <trkpt lat="45.65909" lon="5.73176">
        <ele>609.18085</ele>
        <time>2014-11-22T09:48:59Z</time>
      </trkpt>
      <trkpt lat="45.65914" lon="5.73184">
        <ele>609.18085</ele>
        <time>2014-11-22T09:49:04Z</time>
      </trkpt>
      <trkpt lat="45.65918" lon="5.7319">
        <ele>608.48486</ele>
        <time>2014-11-22T09:49:09Z</time>
      </trkpt>
      <trkpt lat="45.65924" lon="5.73199">
        <ele>608.48486</ele>
        <time>2014-11-22T09:49:15Z</time>
      </trkpt>
      <trkpt lat="45.65928" lon="5.73207">
        <ele>607.6276</ele>
        <time>2014-11-22T09:49:19Z</time>
      </trkpt>
      <trkpt lat="45.65933" lon="5.73215">
        <ele>607.6276</ele>
        <time>2014-11-22T09:49:24Z</time>
      </trkpt>
      <trkpt lat="45.65934" lon="5.73223">
        <ele>606.9101</ele>
        <time>2014-11-22T09:49:29Z</time>
      </trkpt>
      <trkpt lat="45.65936" lon="5.73233">
        <ele>606.9101</ele>
        <time>2014-11-22T09:49:34Z</time>
      </trkpt>
      <trkpt lat="45.65936" lon="5.73244">
        <ele>605.99097</ele>
        <time>2014-11-22T09:49:39Z</time>
      </trkpt>
      <trkpt lat="45.65935" lon="5.73254">
        <ele>605.99097</ele>
        <time>2014-11-22T09:49:44Z</time>
      </trkpt>
      <trkpt lat="45.65935" lon="5.73265">
        <ele>605.0301</ele>
        <time>2014-11-22T09:49:49Z</time>
      </trkpt>
      <trkpt lat="45.65935" lon="5.73276">
        <ele>605.0301</ele>
        <time>2014-11-22T09:49:54Z</time>
      </trkpt>
      <trkpt lat="45.65937" lon="5.73286">
        <ele>603.9163</ele>
        <time>2014-11-22T09:49:59Z</time>
      </trkpt>
      <trkpt lat="45.65941" lon="5.73295">
        <ele>603.9163</ele>
        <time>2014-11-22T09:50:04Z</time>
      </trkpt>
      <trkpt lat="45.65948" lon="5.73301">
        <ele>602.74884</ele>
        <time>2014-11-22T09:50:09Z</time>
      </trkpt>
      <trkpt lat="45.65955" lon="5.73302">
        <ele>602.74884</ele>
        <time>2014-11-22T09:50:14Z</time>
      </trkpt>
      <trkpt lat="45.65962" lon="5.73303">
        <ele>601.3602</ele>
        <time>2014-11-22T09:50:19Z</time>
      </trkpt>
      <trkpt lat="45.65969" lon="5.73306">
        <ele>601.3602</ele>
        <time>2014-11-22T09:50:24Z</time>
      </trkpt>
      <trkpt lat="45.65975" lon="5.73311">
        <ele>599.99945</ele>
        <time>2014-11-22T09:50:29Z</time>
      </trkpt>
      <trkpt lat="45.65981" lon="5.73316">
        <ele>599.99945</ele>
        <time>2014-11-22T09:50:34Z</time>
      </trkpt>
      <trkpt lat="45.65986" lon="5.73324">
        <ele>598.2486</ele>
        <time>2014-11-22T09:50:39Z</time>
      </trkpt>
      <trkpt lat="45.65991" lon="5.73331">
        <ele>598.2486</ele>
        <time>2014-11-22T09:50:44Z</time>
      </trkpt>
      <trkpt lat="45.65994" lon="5.7334">
        <ele>596.8023</ele>
        <time>2014-11-22T09:50:49Z</time>
      </trkpt>
      <trkpt lat="45.65999" lon="5.73347">
        <ele>596.8023</ele>
        <time>2014-11-22T09:50:54Z</time>
      </trkpt>
      <trkpt lat="45.66004" lon="5.73355">
        <ele>595.2802</ele>
        <time>2014-11-22T09:50:59Z</time>
      </trkpt>
      <trkpt lat="45.6601" lon="5.73361">
        <ele>595.2802</ele>
        <time>2014-11-22T09:51:05Z</time>
      </trkpt>
      <trkpt lat="45.66018" lon="5.73366">
        <ele>593.8054</ele>
        <time>2014-11-22T09:51:09Z</time>
      </trkpt>
      <trkpt lat="45.66024" lon="5.73371">
        <ele>593.8054</ele>
        <time>2014-11-22T09:51:14Z</time>
      </trkpt>
      <trkpt lat="45.66031" lon="5.73376">
        <ele>592.2903</ele>
        <time>2014-11-22T09:51:19Z</time>
      </trkpt>
      <trkpt lat="45.66035" lon="5.73384">
        <ele>592.2903</ele>
        <time>2014-11-22T09:51:24Z</time>
      </trkpt>
      <trkpt lat="45.66038" lon="5.73393">
        <ele>590.7832</ele>
        <time>2014-11-22T09:51:29Z</time>
      </trkpt>
      <trkpt lat="45.66043" lon="5.734">
        <ele>590.7832</ele>
        <time>2014-11-22T09:51:34Z</time>
      </trkpt>
      <trkpt lat="45.66047" lon="5.73409">
        <ele>589.2137</ele>
        <time>2014-11-22T09:51:39Z</time>
      </trkpt>
      <trkpt lat="45.66049" lon="5.73419">
        <ele>589.2137</ele>
        <time>2014-11-22T09:51:44Z</time>
      </trkpt>
      <trkpt lat="45.66052" lon="5.73431">
        <ele>587.57416</ele>
        <time>2014-11-22T09:51:49Z</time>
      </trkpt>
      <trkpt lat="45.66056" lon="5.73439">
        <ele>587.57416</ele>
        <time>2014-11-22T09:51:54Z</time>
      </trkpt>
      <trkpt lat="45.66058" lon="5.73448">
        <ele>586.04517</ele>
        <time>2014-11-22T09:51:59Z</time>
      </trkpt>
      <trkpt lat="45.66062" lon="5.73455">
        <ele>586.04517</ele>
        <time>2014-11-22T09:52:04Z</time>
      </trkpt>
      <trkpt lat="45.66065" lon="5.73461">
        <ele>584.40436</ele>
        <time>2014-11-22T09:52:09Z</time>
      </trkpt>
      <trkpt lat="45.66064" lon="5.73462">
        <ele>584.40436</ele>
        <time>2014-11-22T09:52:14Z</time>
      </trkpt>
      <trkpt lat="45.66066" lon="5.73464">
        <ele>584.40436</ele>
        <time>2014-11-22T09:52:19Z</time>
      </trkpt>
      <trkpt lat="45.66068" lon="5.73462">
        <ele>584.40436</ele>
        <time>2014-11-22T09:52:25Z</time>
      </trkpt>
      <trkpt lat="45.66069" lon="5.73462">
        <ele>584.40436</ele>
        <time>2014-11-22T09:52:29Z</time>
      </trkpt>
      <trkpt lat="45.66071" lon="5.73463">
        <ele>582.9794</ele>
        <time>2014-11-22T09:52:34Z</time>
      </trkpt>
      <trkpt lat="45.6607" lon="5.73464">
        <ele>582.9794</ele>
        <time>2014-11-22T09:52:39Z</time>
      </trkpt>
      <trkpt lat="45.6607" lon="5.73464">
        <ele>582.9794</ele>
        <time>2014-11-22T09:52:44Z</time>
      </trkpt>
      <trkpt lat="45.66067" lon="5.73461">
        <ele>582.9794</ele>
        <time>2014-11-22T09:52:49Z</time>
      </trkpt>
      <trkpt lat="45.66066" lon="5.73462">
        <ele>582.9794</ele>
        <time>2014-11-22T09:52:54Z</time>
      </trkpt>
      <trkpt lat="45.66066" lon="5.73463">
        <ele>582.9794</ele>
        <time>2014-11-22T09:52:59Z</time>
      </trkpt>
      <trkpt lat="45.66065" lon="5.73464">
        <ele>582.9794</ele>
        <time>2014-11-22T09:53:05Z</time>
      </trkpt>
      <trkpt lat="45.66066" lon="5.73464">
        <ele>582.9794</ele>
        <time>2014-11-22T09:53:09Z</time>
      </trkpt>
      <trkpt lat="45.66066" lon="5.73465">
        <ele>582.9794</ele>
        <time>2014-11-22T09:53:14Z</time>
      </trkpt>
      <trkpt lat="45.6607" lon="5.73469">
        <ele>580.8912</ele>
        <time>2014-11-22T09:53:20Z</time>
      </trkpt>
      <trkpt lat="45.66072" lon="5.73472">
        <ele>580.8912</ele>
        <time>2014-11-22T09:53:24Z</time>
      </trkpt>
      <trkpt lat="45.66078" lon="5.73475">
        <ele>579.1864</ele>
        <time>2014-11-22T09:53:29Z</time>
      </trkpt>
      <trkpt lat="45.6608" lon="5.73475">
        <ele>579.1864</ele>
        <time>2014-11-22T09:53:35Z</time>
      </trkpt>
      <trkpt lat="45.66082" lon="5.73478">
        <ele>579.1864</ele>
        <time>2014-11-22T09:53:39Z</time>
      </trkpt>
      <trkpt lat="45.66083" lon="5.7348">
        <ele>579.1864</ele>
        <time>2014-11-22T09:53:44Z</time>
      </trkpt>
      <trkpt lat="45.66088" lon="5.73483">
        <ele>577.07526</ele>
        <time>2014-11-22T09:53:49Z</time>
      </trkpt>
      <trkpt lat="45.66092" lon="5.7349">
        <ele>577.07526</ele>
        <time>2014-11-22T09:53:54Z</time>
      </trkpt>
      <trkpt lat="45.66098" lon="5.73492">
        <ele>575.10974</ele>
        <time>2014-11-22T09:53:59Z</time>
      </trkpt>
      <trkpt lat="45.66105" lon="5.73497">
        <ele>575.10974</ele>
        <time>2014-11-22T09:54:04Z</time>
      </trkpt>
      <trkpt lat="45.66109" lon="5.73501">
        <ele>573.109</ele>
        <time>2014-11-22T09:54:09Z</time>
      </trkpt>
      <trkpt lat="45.66116" lon="5.73507">
        <ele>573.109</ele>
        <time>2014-11-22T09:54:14Z</time>
      </trkpt>
      <trkpt lat="45.66124" lon="5.73512">
        <ele>571.36676</ele>
        <time>2014-11-22T09:54:19Z</time>
      </trkpt>
      <trkpt lat="45.6613" lon="5.73517">
        <ele>571.36676</ele>
        <time>2014-11-22T09:54:24Z</time>
      </trkpt>
      <trkpt lat="45.66135" lon="5.73521">
        <ele>569.5634</ele>
        <time>2014-11-22T09:54:29Z</time>
      </trkpt>
      <trkpt lat="45.66141" lon="5.73525">
        <ele>569.5634</ele>
        <time>2014-11-22T09:54:34Z</time>
      </trkpt>
      <trkpt lat="45.66146" lon="5.73529">
        <ele>567.9794</ele>
        <time>2014-11-22T09:54:39Z</time>
      </trkpt>
      <trkpt lat="45.66151" lon="5.73532">
        <ele>567.9794</ele>
        <time>2014-11-22T09:54:44Z</time>
      </trkpt>
      <trkpt lat="45.66157" lon="5.73535">
        <ele>566.3694</ele>
        <time>2014-11-22T09:54:49Z</time>
      </trkpt>
      <trkpt lat="45.66164" lon="5.73539">
        <ele>566.3694</ele>
        <time>2014-11-22T09:54:54Z</time>
      </trkpt>
      <trkpt lat="45.66169" lon="5.73541">
        <ele>564.708</ele>
        <time>2014-11-22T09:54:59Z</time>
      </trkpt>
      <trkpt lat="45.66176" lon="5.73542">
        <ele>564.708</ele>
        <time>2014-11-22T09:55:04Z</time>
      </trkpt>
      <trkpt lat="45.66181" lon="5.73545">
        <ele>563.3895</ele>
        <time>2014-11-22T09:55:09Z</time>
      </trkpt>
      <trkpt lat="45.66187" lon="5.73546">
        <ele>563.3895</ele>
        <time>2014-11-22T09:55:15Z</time>
      </trkpt>
      <trkpt lat="45.66191" lon="5.73547">
        <ele>562.2163</ele>
        <time>2014-11-22T09:55:19Z</time>
      </trkpt>
      <trkpt lat="45.66198" lon="5.73549">
        <ele>562.2163</ele>
        <time>2014-11-22T09:55:24Z</time>
      </trkpt>
      <trkpt lat="45.66199" lon="5.7355">
        <ele>562.2163</ele>
        <time>2014-11-22T09:55:29Z</time>
      </trkpt>
      <trkpt lat="45.66202" lon="5.73551">
        <ele>561.1056</ele>
        <time>2014-11-22T09:55:35Z</time>
      </trkpt>
      <trkpt lat="45.66201" lon="5.73552">
        <ele>561.1056</ele>
        <time>2014-11-22T09:55:39Z</time>
      </trkpt>
      <trkpt lat="45.66202" lon="5.73553">
        <ele>561.1056</ele>
        <time>2014-11-22T09:55:44Z</time>
      </trkpt>
      <trkpt lat="45.662" lon="5.7355">
        <ele>561.1056</ele>
        <time>2014-11-22T09:55:49Z</time>
      </trkpt>
      <trkpt lat="45.662" lon="5.7355">
        <ele>561.1056</ele>
        <time>2014-11-22T09:55:54Z</time>
      </trkpt>
      <trkpt lat="45.662" lon="5.7355">
        <ele>561.1056</ele>
        <time>2014-11-22T09:55:59Z</time>
      </trkpt>
      <trkpt lat="45.662" lon="5.7355">
        <ele>561.1056</ele>
        <time>2014-11-22T09:56:04Z</time>
      </trkpt>
      <trkpt lat="45.66199" lon="5.73553">
        <ele>561.1056</ele>
        <time>2014-11-22T09:56:09Z</time>
      </trkpt>
      <trkpt lat="45.66193" lon="5.7355">
        <ele>560.09576</ele>
        <time>2014-11-22T09:56:14Z</time>
      </trkpt>
      <trkpt lat="45.66188" lon="5.73548">
        <ele>560.09576</ele>
        <time>2014-11-22T09:56:19Z</time>
      </trkpt>
      <trkpt lat="45.66179" lon="5.73545">
        <ele>559.36615</ele>
        <time>2014-11-22T09:56:24Z</time>
      </trkpt>
      <trkpt lat="45.66171" lon="5.73541">
        <ele>559.36615</ele>
        <time>2014-11-22T09:56:29Z</time>
      </trkpt>
      <trkpt lat="45.66164" lon="5.73538">
        <ele>559.09644</ele>
        <time>2014-11-22T09:56:34Z</time>
      </trkpt>
      <trkpt lat="45.66156" lon="5.73535">
        <ele>559.09644</ele>
        <time>2014-11-22T09:56:39Z</time>
      </trkpt>
      <trkpt lat="45.66149" lon="5.73531">
        <ele>559.25006</ele>
        <time>2014-11-22T09:56:44Z</time>
      </trkpt>
      <trkpt lat="45.66142" lon="5.73526">
        <ele>559.25006</ele>
        <time>2014-11-22T09:56:49Z</time>
      </trkpt>
      <trkpt lat="45.66134" lon="5.7352">
        <ele>559.83514</ele>
        <time>2014-11-22T09:56:54Z</time>
      </trkpt>
      <trkpt lat="45.66128" lon="5.73514">
        <ele>559.83514</ele>
        <time>2014-11-22T09:56:59Z</time>
      </trkpt>
      <trkpt lat="45.66121" lon="5.7351">
        <ele>560.82916</ele>
        <time>2014-11-22T09:57:04Z</time>
      </trkpt>
      <trkpt lat="45.66115" lon="5.73503">
        <ele>560.82916</ele>
        <time>2014-11-22T09:57:09Z</time>
      </trkpt>
      <trkpt lat="45.66107" lon="5.73497">
        <ele>562.13806</ele>
        <time>2014-11-22T09:57:14Z</time>
      </trkpt>
      <trkpt lat="45.66101" lon="5.73491">
        <ele>562.13806</ele>
        <time>2014-11-22T09:57:19Z</time>
      </trkpt>
      <trkpt lat="45.66095" lon="5.73486">
        <ele>563.7891</ele>
        <time>2014-11-22T09:57:24Z</time>
      </trkpt>
      <trkpt lat="45.66088" lon="5.7348">
        <ele>563.7891</ele>
        <time>2014-11-22T09:57:29Z</time>
      </trkpt>
      <trkpt lat="45.66082" lon="5.73475">
        <ele>565.5185</ele>
        <time>2014-11-22T09:57:34Z</time>
      </trkpt>
      <trkpt lat="45.66076" lon="5.73469">
        <ele>565.5185</ele>
        <time>2014-11-22T09:57:39Z</time>
      </trkpt>
      <trkpt lat="45.66072" lon="5.73463">
        <ele>567.2399</ele>
        <time>2014-11-22T09:57:44Z</time>
      </trkpt>
      <trkpt lat="45.6607" lon="5.73465">
        <ele>567.2399</ele>
        <time>2014-11-22T09:57:49Z</time>
      </trkpt>
      <trkpt lat="45.66068" lon="5.73464">
        <ele>567.2399</ele>
        <time>2014-11-22T09:57:54Z</time>
      </trkpt>
      <trkpt lat="45.66068" lon="5.73463">
        <ele>567.2399</ele>
        <time>2014-11-22T09:57:59Z</time>
      </trkpt>
      <trkpt lat="45.66069" lon="5.73463">
        <ele>567.2399</ele>
        <time>2014-11-22T09:58:04Z</time>
      </trkpt>
      <trkpt lat="45.66067" lon="5.73463">
        <ele>567.2399</ele>
        <time>2014-11-22T09:58:09Z</time>
      </trkpt>
      <trkpt lat="45.66065" lon="5.73463">
        <ele>568.87384</ele>
        <time>2014-11-22T09:58:14Z</time>
      </trkpt>
      <trkpt lat="45.66066" lon="5.73462">
        <ele>568.87384</ele>
        <time>2014-11-22T09:58:19Z</time>
      </trkpt>
      <trkpt lat="45.66069" lon="5.73462">
        <ele>568.87384</ele>
        <time>2014-11-22T09:58:24Z</time>
      </trkpt>
      <trkpt lat="45.66068" lon="5.73461">
        <ele>568.87384</ele>
        <time>2014-11-22T09:58:29Z</time>
      </trkpt>
      <trkpt lat="45.66067" lon="5.73461">
        <ele>568.87384</ele>
        <time>2014-11-22T09:58:34Z</time>
      </trkpt>
      <trkpt lat="45.66061" lon="5.73457">
        <ele>570.8367</ele>
        <time>2014-11-22T09:58:39Z</time>
      </trkpt>
      <trkpt lat="45.66061" lon="5.73451">
        <ele>570.8367</ele>
        <time>2014-11-22T09:58:44Z</time>
      </trkpt>
      <trkpt lat="45.66062" lon="5.73449">
        <ele>570.8367</ele>
        <time>2014-11-22T09:58:49Z</time>
      </trkpt>
      <trkpt lat="45.66062" lon="5.73448">
        <ele>570.8367</ele>
        <time>2014-11-22T09:58:54Z</time>
      </trkpt>
      <trkpt lat="45.66061" lon="5.73445">
        <ele>572.6632</ele>
        <time>2014-11-22T09:58:59Z</time>
      </trkpt>
      <trkpt lat="45.66057" lon="5.73432">
        <ele>574.6435</ele>
        <time>2014-11-22T09:59:04Z</time>
      </trkpt>
      <trkpt lat="45.66052" lon="5.73421">
        <ele>574.6435</ele>
        <time>2014-11-22T09:59:09Z</time>
      </trkpt>
      <trkpt lat="45.6605" lon="5.73413">
        <ele>576.6425</ele>
        <time>2014-11-22T09:59:14Z</time>
      </trkpt>
      <trkpt lat="45.66046" lon="5.73405">
        <ele>576.6425</ele>
        <time>2014-11-22T09:59:19Z</time>
      </trkpt>
      <trkpt lat="45.66042" lon="5.73395">
        <ele>578.6217</ele>
        <time>2014-11-22T09:59:24Z</time>
      </trkpt>
      <trkpt lat="45.66038" lon="5.73384">
        <ele>580.9924</ele>
        <time>2014-11-22T09:59:29Z</time>
      </trkpt>
      <trkpt lat="45.6604" lon="5.73372">
        <ele>580.9924</ele>
        <time>2014-11-22T09:59:34Z</time>
      </trkpt>
      <trkpt lat="45.66044" lon="5.73364">
        <ele>583.8464</ele>
        <time>2014-11-22T09:59:39Z</time>
      </trkpt>
      <trkpt lat="45.6605" lon="5.73356">
        <ele>583.8464</ele>
        <time>2014-11-22T09:59:44Z</time>
      </trkpt>
      <trkpt lat="45.66055" lon="5.7335">
        <ele>586.4607</ele>
        <time>2014-11-22T09:59:49Z</time>
      </trkpt>
      <trkpt lat="45.6606" lon="5.73343">
        <ele>586.4607</ele>
        <time>2014-11-22T09:59:54Z</time>
      </trkpt>
      <trkpt lat="45.66066" lon="5.73337">
        <ele>588.8292</ele>
        <time>2014-11-22T09:59:59Z</time>
      </trkpt>
      <trkpt lat="45.66072" lon="5.73331">
        <ele>588.8292</ele>
        <time>2014-11-22T10:00:04Z</time>
      </trkpt>
      <trkpt lat="45.66078" lon="5.73325">
        <ele>590.86084</ele>
        <time>2014-11-22T10:00:09Z</time>
      </trkpt>
      <trkpt lat="45.66084" lon="5.73318">
        <ele>590.86084</ele>
        <time>2014-11-22T10:00:14Z</time>
      </trkpt>
      <trkpt lat="45.6609" lon="5.73311">
        <ele>592.61615</ele>
        <time>2014-11-22T10:00:19Z</time>
      </trkpt>
      <trkpt lat="45.66097" lon="5.73306">
        <ele>592.61615</ele>
        <time>2014-11-22T10:00:24Z</time>
      </trkpt>
      <trkpt lat="45.66103" lon="5.73299">
        <ele>593.93646</ele>
        <time>2014-11-22T10:00:29Z</time>
      </trkpt>
      <trkpt lat="45.6611" lon="5.73295">
        <ele>593.93646</ele>
        <time>2014-11-22T10:00:34Z</time>
      </trkpt>
      <trkpt lat="45.66117" lon="5.73288">
        <ele>594.9354</ele>
        <time>2014-11-22T10:00:39Z</time>
      </trkpt>
      <trkpt lat="45.66124" lon="5.73286">
        <ele>594.9354</ele>
        <time>2014-11-22T10:00:44Z</time>
      </trkpt>
      <trkpt lat="45.6613" lon="5.73292">
        <ele>595.5753</ele>
        <time>2014-11-22T10:00:49Z</time>
      </trkpt>
      <trkpt lat="45.66136" lon="5.73299">
        <ele>595.5753</ele>
        <time>2014-11-22T10:00:54Z</time>
      </trkpt>
      <trkpt lat="45.66141" lon="5.73306">
        <ele>595.75055</ele>
        <time>2014-11-22T10:00:59Z</time>
      </trkpt>
      <trkpt lat="45.66147" lon="5.73312">
        <ele>595.75055</ele>
        <time>2014-11-22T10:01:04Z</time>
      </trkpt>
      <trkpt lat="45.66152" lon="5.73318">
        <ele>595.6672</ele>
        <time>2014-11-22T10:01:09Z</time>
      </trkpt>
      <trkpt lat="45.66157" lon="5.73325">
        <ele>595.6672</ele>
        <time>2014-11-22T10:01:14Z</time>
      </trkpt>
      <trkpt lat="45.66159" lon="5.73334">
        <ele>595.0994</ele>
        <time>2014-11-22T10:01:19Z</time>
      </trkpt>
      <trkpt lat="45.6616" lon="5.73344">
        <ele>595.0994</ele>
        <time>2014-11-22T10:01:24Z</time>
      </trkpt>
      <trkpt lat="45.66159" lon="5.73352">
        <ele>594.3006</ele>
        <time>2014-11-22T10:01:29Z</time>
      </trkpt>
      <trkpt lat="45.66159" lon="5.7336">
        <ele>594.3006</ele>
        <time>2014-11-22T10:01:34Z</time>
      </trkpt>
      <trkpt lat="45.66159" lon="5.73372">
        <ele>593.0739</ele>
        <time>2014-11-22T10:01:39Z</time>
      </trkpt>
      <trkpt lat="45.66159" lon="5.73381">
        <ele>593.0739</ele>
        <time>2014-11-22T10:01:44Z</time>
      </trkpt>
      <trkpt lat="45.6616" lon="5.7339">
        <ele>591.9157</ele>
        <time>2014-11-22T10:01:49Z</time>
      </trkpt>
      <trkpt lat="45.6616" lon="5.73388">
        <ele>591.9157</ele>
        <time>2014-11-22T10:01:54Z</time>
      </trkpt>
      <trkpt lat="45.6616" lon="5.73387">
        <ele>591.9157</ele>
        <time>2014-11-22T10:01:59Z</time>
      </trkpt>
      <trkpt lat="45.66162" lon="5.73379">
        <ele>591.9157</ele>
        <time>2014-11-22T10:02:04Z</time>
      </trkpt>
      <trkpt lat="45.66168" lon="5.73375">
        <ele>590.8392</ele>
        <time>2014-11-22T10:02:09Z</time>
      </trkpt>
      <trkpt lat="45.66176" lon="5.73375">
        <ele>590.8392</ele>
        <time>2014-11-22T10:02:14Z</time>
      </trkpt>
      <trkpt lat="45.66182" lon="5.73374">
        <ele>589.3806</ele>
        <time>2014-11-22T10:02:19Z</time>
      </trkpt>
      <trkpt lat="45.6619" lon="5.73372">
        <ele>589.3806</ele>
        <time>2014-11-22T10:02:24Z</time>
      </trkpt>
      <trkpt lat="45.66198" lon="5.73371">
        <ele>588.0629</ele>
        <time>2014-11-22T10:02:29Z</time>
      </trkpt>
      <trkpt lat="45.66204" lon="5.7337">
        <ele>588.0629</ele>
        <time>2014-11-22T10:02:34Z</time>
      </trkpt>
      <trkpt lat="45.66212" lon="5.73369">
        <ele>586.7504</ele>
        <time>2014-11-22T10:02:39Z</time>
      </trkpt>
      <trkpt lat="45.66218" lon="5.73372">
        <ele>586.7504</ele>
        <time>2014-11-22T10:02:44Z</time>
      </trkpt>
      <trkpt lat="45.66226" lon="5.73375">
        <ele>585.4472</ele>
        <time>2014-11-22T10:02:49Z</time>
      </trkpt>
      <trkpt lat="45.66234" lon="5.73375">
        <ele>585.4472</ele>
        <time>2014-11-22T10:02:54Z</time>
      </trkpt>
      <trkpt lat="45.6624" lon="5.73371">
        <ele>584.1426</ele>
        <time>2014-11-22T10:02:59Z</time>
      </trkpt>
      <trkpt lat="45.66248" lon="5.73373">
        <ele>584.1426</ele>
        <time>2014-11-22T10:03:04Z</time>
      </trkpt>
      <trkpt lat="45.66253" lon="5.73376">
        <ele>582.8988</ele>
        <time>2014-11-22T10:03:09Z</time>
      </trkpt>
      <trkpt lat="45.66251" lon="5.73366">
        <ele>582.8988</ele>
        <time>2014-11-22T10:03:14Z</time>
      </trkpt>
      <trkpt lat="45.66248" lon="5.73355">
        <ele>581.9462</ele>
        <time>2014-11-22T10:03:19Z</time>
      </trkpt>
      <trkpt lat="45.66248" lon="5.73343">
        <ele>581.9462</ele>
        <time>2014-11-22T10:03:24Z</time>
      </trkpt>
      <trkpt lat="45.6625" lon="5.73332">
        <ele>581.1373</ele>
        <time>2014-11-22T10:03:29Z</time>
      </trkpt>
      <trkpt lat="45.66252" lon="5.73321">
        <ele>581.1373</ele>
        <time>2014-11-22T10:03:34Z</time>
      </trkpt>
      <trkpt lat="45.66259" lon="5.73316">
        <ele>580.2052</ele>
        <time>2014-11-22T10:03:39Z</time>
      </trkpt>
      <trkpt lat="45.66266" lon="5.73316">
        <ele>580.2052</ele>
        <time>2014-11-22T10:03:44Z</time>
      </trkpt>
      <trkpt lat="45.66274" lon="5.73318">
        <ele>579.0613</ele>
        <time>2014-11-22T10:03:49Z</time>
      </trkpt>
      <trkpt lat="45.66282" lon="5.73319">
        <ele>579.0613</ele>
        <time>2014-11-22T10:03:54Z</time>
      </trkpt>
      <trkpt lat="45.6629" lon="5.73319">
        <ele>577.6675</ele>
        <time>2014-11-22T10:03:59Z</time>
      </trkpt>
      <trkpt lat="45.66298" lon="5.73319">
        <ele>577.6675</ele>
        <time>2014-11-22T10:04:04Z</time>
      </trkpt>
      <trkpt lat="45.66306" lon="5.73319">
        <ele>576.03235</ele>
        <time>2014-11-22T10:04:09Z</time>
      </trkpt>
      <trkpt lat="45.66313" lon="5.7332">
        <ele>576.03235</ele>
        <time>2014-11-22T10:04:14Z</time>
      </trkpt>
      <trkpt lat="45.66321" lon="5.73322">
        <ele>574.4237</ele>
        <time>2014-11-22T10:04:19Z</time>
      </trkpt>
      <trkpt lat="45.66329" lon="5.73323">
        <ele>574.4237</ele>
        <time>2014-11-22T10:04:24Z</time>
      </trkpt>
      <trkpt lat="45.66338" lon="5.73325">
        <ele>572.94556</ele>
        <time>2014-11-22T10:04:29Z</time>
      </trkpt>
      <trkpt lat="45.66345" lon="5.73326">
        <ele>572.94556</ele>
        <time>2014-11-22T10:04:34Z</time>
      </trkpt>
      <trkpt lat="45.66353" lon="5.73327">
        <ele>571.5353</ele>
        <time>2014-11-22T10:04:39Z</time>
      </trkpt>
      <trkpt lat="45.66359" lon="5.73324">
        <ele>571.5353</ele>
        <time>2014-11-22T10:04:44Z</time>
      </trkpt>
      <trkpt lat="45.66364" lon="5.73316">
        <ele>570.22107</ele>
        <time>2014-11-22T10:04:49Z</time>
      </trkpt>
      <trkpt lat="45.6637" lon="5.73307">
        <ele>570.22107</ele>
        <time>2014-11-22T10:04:54Z</time>
      </trkpt>
      <trkpt lat="45.66375" lon="5.73297">
        <ele>568.7404</ele>
        <time>2014-11-22T10:04:59Z</time>
      </trkpt>
      <trkpt lat="45.66379" lon="5.73289">
        <ele>568.7404</ele>
        <time>2014-11-22T10:05:04Z</time>
      </trkpt>
      <trkpt lat="45.66384" lon="5.73283">
        <ele>566.95135</ele>
        <time>2014-11-22T10:05:09Z</time>
      </trkpt>
      <trkpt lat="45.66389" lon="5.73276">
        <ele>566.95135</ele>
        <time>2014-11-22T10:05:14Z</time>
      </trkpt>
      <trkpt lat="45.66394" lon="5.7327">
        <ele>565.069</ele>
        <time>2014-11-22T10:05:19Z</time>
      </trkpt>
      <trkpt lat="45.66398" lon="5.73261">
        <ele>565.069</ele>
        <time>2014-11-22T10:05:24Z</time>
      </trkpt>
      <trkpt lat="45.66402" lon="5.73252">
        <ele>563.0477</ele>
        <time>2014-11-22T10:05:29Z</time>
      </trkpt>
      <trkpt lat="45.66407" lon="5.73248">
        <ele>563.0477</ele>
        <time>2014-11-22T10:05:34Z</time>
      </trkpt>
      <trkpt lat="45.66414" lon="5.73248">
        <ele>560.8601</ele>
        <time>2014-11-22T10:05:39Z</time>
      </trkpt>
      <trkpt lat="45.6642" lon="5.73246">
        <ele>560.8601</ele>
        <time>2014-11-22T10:05:44Z</time>
      </trkpt>
      <trkpt lat="45.66427" lon="5.73245">
        <ele>558.45215</ele>
        <time>2014-11-22T10:05:49Z</time>
      </trkpt>
      <trkpt lat="45.66432" lon="5.73244">
        <ele>558.45215</ele>
        <time>2014-11-22T10:05:54Z</time>
      </trkpt>
      <trkpt lat="45.66438" lon="5.73241">
        <ele>555.7743</ele>
        <time>2014-11-22T10:05:59Z</time>
      </trkpt>
      <trkpt lat="45.66445" lon="5.7324">
        <ele>555.7743</ele>
        <time>2014-11-22T10:06:04Z</time>
      </trkpt>
      <trkpt lat="45.66452" lon="5.73237">
        <ele>552.89655</ele>
        <time>2014-11-22T10:06:09Z</time>
      </trkpt>
      <trkpt lat="45.6646" lon="5.73235">
        <ele>552.89655</ele>
        <time>2014-11-22T10:06:14Z</time>
      </trkpt>
      <trkpt lat="45.66465" lon="5.73235">
        <ele>549.84094</ele>
        <time>2014-11-22T10:06:19Z</time>
      </trkpt>
      <trkpt lat="45.66473" lon="5.73236">
        <ele>549.84094</ele>
        <time>2014-11-22T10:06:24Z</time>
      </trkpt>
      <trkpt lat="45.6648" lon="5.73237">
        <ele>546.7436</ele>
        <time>2014-11-22T10:06:29Z</time>
      </trkpt>
      <trkpt lat="45.66488" lon="5.73234">
        <ele>546.7436</ele>
        <time>2014-11-22T10:06:34Z</time>
      </trkpt>
      <trkpt lat="45.66495" lon="5.73234">
        <ele>543.4998</ele>
        <time>2014-11-22T10:06:39Z</time>
      </trkpt>
      <trkpt lat="45.66503" lon="5.73235">
        <ele>543.4998</ele>
        <time>2014-11-22T10:06:44Z</time>
      </trkpt>
      <trkpt lat="45.66511" lon="5.73236">
        <ele>540.3156</ele>
        <time>2014-11-22T10:06:49Z</time>
      </trkpt>
      <trkpt lat="45.66519" lon="5.73239">
        <ele>540.3156</ele>
        <time>2014-11-22T10:06:54Z</time>
      </trkpt>
      <trkpt lat="45.66526" lon="5.73241">
        <ele>537.3238</ele>
        <time>2014-11-22T10:06:59Z</time>
      </trkpt>
      <trkpt lat="45.66534" lon="5.73243">
        <ele>537.3238</ele>
        <time>2014-11-22T10:07:04Z</time>
      </trkpt>
      <trkpt lat="45.66542" lon="5.73248">
        <ele>534.61786</ele>
        <time>2014-11-22T10:07:09Z</time>
      </trkpt>
      <trkpt lat="45.66549" lon="5.73251">
        <ele>534.61786</ele>
        <time>2014-11-22T10:07:14Z</time>
      </trkpt>
      <trkpt lat="45.66556" lon="5.73252">
        <ele>531.90875</ele>
        <time>2014-11-22T10:07:19Z</time>
      </trkpt>
      <trkpt lat="45.66564" lon="5.73251">
        <ele>531.90875</ele>
        <time>2014-11-22T10:07:24Z</time>
      </trkpt>
      <trkpt lat="45.66571" lon="5.73253">
        <ele>529.2023</ele>
        <time>2014-11-22T10:07:29Z</time>
      </trkpt>
      <trkpt lat="45.66578" lon="5.73257">
        <ele>529.2023</ele>
        <time>2014-11-22T10:07:34Z</time>
      </trkpt>
      <trkpt lat="45.66586" lon="5.73259">
        <ele>526.5756</ele>
        <time>2014-11-22T10:07:39Z</time>
      </trkpt>
      <trkpt lat="45.66593" lon="5.73264">
        <ele>526.5756</ele>
        <time>2014-11-22T10:07:44Z</time>
      </trkpt>
      <trkpt lat="45.66601" lon="5.73267">
        <ele>524.3161</ele>
        <time>2014-11-22T10:07:49Z</time>
      </trkpt>
      <trkpt lat="45.66609" lon="5.73271">
        <ele>524.3161</ele>
        <time>2014-11-22T10:07:54Z</time>
      </trkpt>
      <trkpt lat="45.66616" lon="5.73274">
        <ele>522.25616</ele>
        <time>2014-11-22T10:07:59Z</time>
      </trkpt>
      <trkpt lat="45.66623" lon="5.7328">
        <ele>522.25616</ele>
        <time>2014-11-22T10:08:04Z</time>
      </trkpt>
      <trkpt lat="45.6663" lon="5.73285">
        <ele>520.4274</ele>
        <time>2014-11-22T10:08:09Z</time>
      </trkpt>
      <trkpt lat="45.66637" lon="5.7329">
        <ele>520.4274</ele>
        <time>2014-11-22T10:08:14Z</time>
      </trkpt>
      <trkpt lat="45.66644" lon="5.73296">
        <ele>518.64197</ele>
        <time>2014-11-22T10:08:19Z</time>
      </trkpt>
      <trkpt lat="45.6665" lon="5.73302">
        <ele>518.64197</ele>
        <time>2014-11-22T10:08:24Z</time>
      </trkpt>
      <trkpt lat="45.66651" lon="5.73313">
        <ele>516.956</ele>
        <time>2014-11-22T10:08:29Z</time>
      </trkpt>
      <trkpt lat="45.66649" lon="5.73323">
        <ele>516.956</ele>
        <time>2014-11-22T10:08:34Z</time>
      </trkpt>
      <trkpt lat="45.66647" lon="5.73333">
        <ele>515.2627</ele>
        <time>2014-11-22T10:08:39Z</time>
      </trkpt>
      <trkpt lat="45.66646" lon="5.73344">
        <ele>515.2627</ele>
        <time>2014-11-22T10:08:44Z</time>
      </trkpt>
      <trkpt lat="45.66643" lon="5.73355">
        <ele>513.69336</ele>
        <time>2014-11-22T10:08:49Z</time>
      </trkpt>
      <trkpt lat="45.66642" lon="5.73361">
        <ele>513.69336</ele>
        <time>2014-11-22T10:08:54Z</time>
      </trkpt>
      <trkpt lat="45.6664" lon="5.73377">
        <ele>512.23956</ele>
        <time>2014-11-22T10:08:59Z</time>
      </trkpt>
      <trkpt lat="45.66643" lon="5.73387">
        <ele>512.23956</ele>
        <time>2014-11-22T10:09:04Z</time>
      </trkpt>
      <trkpt lat="45.66645" lon="5.73395">
        <ele>510.73444</ele>
        <time>2014-11-22T10:09:09Z</time>
      </trkpt>
      <trkpt lat="45.6665" lon="5.73407">
        <ele>509.4125</ele>
        <time>2014-11-22T10:09:14Z</time>
      </trkpt>
      <trkpt lat="45.66654" lon="5.73413">
        <ele>509.4125</ele>
        <time>2014-11-22T10:09:19Z</time>
      </trkpt>
      <trkpt lat="45.66661" lon="5.73422">
        <ele>508.20224</ele>
        <time>2014-11-22T10:09:24Z</time>
      </trkpt>
      <trkpt lat="45.66667" lon="5.73428">
        <ele>508.20224</ele>
        <time>2014-11-22T10:09:29Z</time>
      </trkpt>
      <trkpt lat="45.66672" lon="5.73435">
        <ele>506.96478</ele>
        <time>2014-11-22T10:09:34Z</time>
      </trkpt>
      <trkpt lat="45.66677" lon="5.73441">
        <ele>506.96478</ele>
        <time>2014-11-22T10:09:39Z</time>
      </trkpt>
      <trkpt lat="45.66678" lon="5.73443">
        <ele>506.96478</ele>
        <time>2014-11-22T10:09:44Z</time>
      </trkpt>
      <trkpt lat="45.66678" lon="5.73442">
        <ele>506.96478</ele>
        <time>2014-11-22T10:09:49Z</time>
      </trkpt>
      <trkpt lat="45.66679" lon="5.73442">
        <ele>505.9318</ele>
        <time>2014-11-22T10:09:54Z</time>
      </trkpt>
      <trkpt lat="45.66679" lon="5.73442">
        <ele>505.9318</ele>
        <time>2014-11-22T10:09:59Z</time>
      </trkpt>
      <trkpt lat="45.66684" lon="5.73448">
        <ele>505.9318</ele>
        <time>2014-11-22T10:10:04Z</time>
      </trkpt>
      <trkpt lat="45.6669" lon="5.73455">
        <ele>504.65433</ele>
        <time>2014-11-22T10:10:09Z</time>
      </trkpt>
      <trkpt lat="45.66696" lon="5.73463">
        <ele>504.65433</ele>
        <time>2014-11-22T10:10:14Z</time>
      </trkpt>
      <trkpt lat="45.66702" lon="5.73471">
        <ele>503.39432</ele>
        <time>2014-11-22T10:10:19Z</time>
      </trkpt>
      <trkpt lat="45.66708" lon="5.73477">
        <ele>503.39432</ele>
        <time>2014-11-22T10:10:24Z</time>
      </trkpt>
      <trkpt lat="45.66713" lon="5.73484">
        <ele>502.19263</ele>
        <time>2014-11-22T10:10:29Z</time>
      </trkpt>
      <trkpt lat="45.66719" lon="5.73492">
        <ele>502.19263</ele>
        <time>2014-11-22T10:10:34Z</time>
      </trkpt>
      <trkpt lat="45.66724" lon="5.73499">
        <ele>500.98593</ele>
        <time>2014-11-22T10:10:39Z</time>
      </trkpt>
      <trkpt lat="45.6673" lon="5.73506">
        <ele>500.98593</ele>
        <time>2014-11-22T10:10:44Z</time>
      </trkpt>
      <trkpt lat="45.66732" lon="5.73507">
        <ele>499.73</ele>
        <time>2014-11-22T10:10:49Z</time>
      </trkpt>
      <trkpt lat="45.66734" lon="5.73512">
        <ele>499.73</ele>
        <time>2014-11-22T10:10:54Z</time>
      </trkpt>
      <trkpt lat="45.66733" lon="5.73516">
        <ele>499.73</ele>
        <time>2014-11-22T10:10:59Z</time>
      </trkpt>
      <trkpt lat="45.66732" lon="5.73519">
        <ele>498.93155</ele>
        <time>2014-11-22T10:11:04Z</time>
      </trkpt>
      <trkpt lat="45.66727" lon="5.73527">
        <ele>498.93155</ele>
        <time>2014-11-22T10:11:09Z</time>
      </trkpt>
      <trkpt lat="45.66722" lon="5.73535">
        <ele>498.32373</ele>
        <time>2014-11-22T10:11:14Z</time>
      </trkpt>
      <trkpt lat="45.66718" lon="5.73544">
        <ele>498.32373</ele>
        <time>2014-11-22T10:11:19Z</time>
      </trkpt>
      <trkpt lat="45.66712" lon="5.73558">
        <ele>497.9615</ele>
        <time>2014-11-22T10:11:24Z</time>
      </trkpt>
      <trkpt lat="45.66705" lon="5.73573">
        <ele>497.98135</ele>
        <time>2014-11-22T10:11:29Z</time>
      </trkpt>
      <trkpt lat="45.66698" lon="5.73588">
        <ele>498.29266</ele>
        <time>2014-11-22T10:11:34Z</time>
      </trkpt>
      <trkpt lat="45.66688" lon="5.73598">
        <ele>498.825</ele>
        <time>2014-11-22T10:11:39Z</time>
      </trkpt>
      <trkpt lat="45.66674" lon="5.73611">
        <ele>499.6567</ele>
        <time>2014-11-22T10:11:44Z</time>
      </trkpt>
      <trkpt lat="45.66651" lon="5.73625">
        <ele>500.78745</ele>
        <time>2014-11-22T10:11:49Z</time>
      </trkpt>
      <trkpt lat="45.6663" lon="5.73636">
        <ele>502.17288</ele>
        <time>2014-11-22T10:11:54Z</time>
      </trkpt>
      <trkpt lat="45.66624" lon="5.73646">
        <ele>502.17288</ele>
        <time>2014-11-22T10:11:59Z</time>
      </trkpt>
      <trkpt lat="45.66621" lon="5.73657">
        <ele>503.4543</ele>
        <time>2014-11-22T10:12:04Z</time>
      </trkpt>
      <trkpt lat="45.66617" lon="5.73668">
        <ele>503.4543</ele>
        <time>2014-11-22T10:12:09Z</time>
      </trkpt>
      <trkpt lat="45.66616" lon="5.73678">
        <ele>504.67444</ele>
        <time>2014-11-22T10:12:14Z</time>
      </trkpt>
      <trkpt lat="45.66613" lon="5.73689">
        <ele>504.67444</ele>
        <time>2014-11-22T10:12:19Z</time>
      </trkpt>
      <trkpt lat="45.66609" lon="5.73699">
        <ele>505.80112</ele>
        <time>2014-11-22T10:12:24Z</time>
      </trkpt>
      <trkpt lat="45.66608" lon="5.73711">
        <ele>505.80112</ele>
        <time>2014-11-22T10:12:29Z</time>
      </trkpt>
      <trkpt lat="45.66605" lon="5.73721">
        <ele>506.66074</ele>
        <time>2014-11-22T10:12:34Z</time>
      </trkpt>
      <trkpt lat="45.66603" lon="5.73731">
        <ele>506.66074</ele>
        <time>2014-11-22T10:12:39Z</time>
      </trkpt>
      <trkpt lat="45.66602" lon="5.73741">
        <ele>507.1511</ele>
        <time>2014-11-22T10:12:44Z</time>
      </trkpt>
      <trkpt lat="45.66599" lon="5.7375">
        <ele>507.1511</ele>
        <time>2014-11-22T10:12:49Z</time>
      </trkpt>
      <trkpt lat="45.66595" lon="5.73761">
        <ele>507.78387</ele>
        <time>2014-11-22T10:12:54Z</time>
      </trkpt>
      <trkpt lat="45.66593" lon="5.73771">
        <ele>507.78387</ele>
        <time>2014-11-22T10:12:59Z</time>
      </trkpt>
      <trkpt lat="45.66589" lon="5.73782">
        <ele>508.78796</ele>
        <time>2014-11-22T10:13:05Z</time>
      </trkpt>
      <trkpt lat="45.66585" lon="5.73793">
        <ele>508.78796</ele>
        <time>2014-11-22T10:13:09Z</time>
      </trkpt>
      <trkpt lat="45.66582" lon="5.73802">
        <ele>509.72607</ele>
        <time>2014-11-22T10:13:14Z</time>
      </trkpt>
      <trkpt lat="45.66578" lon="5.73811">
        <ele>509.72607</ele>
        <time>2014-11-22T10:13:20Z</time>
      </trkpt>
      <trkpt lat="45.66572" lon="5.7382">
        <ele>510.4384</ele>
        <time>2014-11-22T10:13:24Z</time>
      </trkpt>
      <trkpt lat="45.66569" lon="5.73828">
        <ele>510.4384</ele>
        <time>2014-11-22T10:13:29Z</time>
      </trkpt>
      <trkpt lat="45.66564" lon="5.73835">
        <ele>510.547</ele>
        <time>2014-11-22T10:13:34Z</time>
      </trkpt>
      <trkpt lat="45.66558" lon="5.73842">
        <ele>510.547</ele>
        <time>2014-11-22T10:13:39Z</time>
      </trkpt>
      <trkpt lat="45.66553" lon="5.73851">
        <ele>510.5972</ele>
        <time>2014-11-22T10:13:44Z</time>
      </trkpt>
      <trkpt lat="45.66547" lon="5.73859">
        <ele>510.5972</ele>
        <time>2014-11-22T10:13:49Z</time>
      </trkpt>
      <trkpt lat="45.66542" lon="5.73867">
        <ele>510.70544</ele>
        <time>2014-11-22T10:13:54Z</time>
      </trkpt>
      <trkpt lat="45.66536" lon="5.73876">
        <ele>510.70544</ele>
        <time>2014-11-22T10:13:59Z</time>
      </trkpt>
      <trkpt lat="45.6653" lon="5.73884">
        <ele>510.76343</ele>
        <time>2014-11-22T10:14:04Z</time>
      </trkpt>
      <trkpt lat="45.66526" lon="5.73891">
        <ele>510.76343</ele>
        <time>2014-11-22T10:14:09Z</time>
      </trkpt>
      <trkpt lat="45.6652" lon="5.739">
        <ele>510.82968</ele>
        <time>2014-11-22T10:14:14Z</time>
      </trkpt>
      <trkpt lat="45.66513" lon="5.73909">
        <ele>510.9009</ele>
        <time>2014-11-22T10:14:19Z</time>
      </trkpt>
      <trkpt lat="45.66507" lon="5.73916">
        <ele>510.9009</ele>
        <time>2014-11-22T10:14:24Z</time>
      </trkpt>
      <trkpt lat="45.66501" lon="5.73925">
        <ele>510.97424</ele>
        <time>2014-11-22T10:14:29Z</time>
      </trkpt>
      <trkpt lat="45.66496" lon="5.73935">
        <ele>510.97424</ele>
        <time>2014-11-22T10:14:34Z</time>
      </trkpt>
      <trkpt lat="45.6649" lon="5.73943">
        <ele>511.0327</ele>
        <time>2014-11-22T10:14:39Z</time>
      </trkpt>
      <trkpt lat="45.66485" lon="5.73951">
        <ele>511.0327</ele>
        <time>2014-11-22T10:14:44Z</time>
      </trkpt>
      <trkpt lat="45.66481" lon="5.73961">
        <ele>511.19055</ele>
        <time>2014-11-22T10:14:49Z</time>
      </trkpt>
      <trkpt lat="45.66477" lon="5.73969">
        <ele>511.19055</ele>
        <time>2014-11-22T10:14:54Z</time>
      </trkpt>
      <trkpt lat="45.66473" lon="5.73978">
        <ele>511.38043</ele>
        <time>2014-11-22T10:14:59Z</time>
      </trkpt>
      <trkpt lat="45.66469" lon="5.73988">
        <ele>511.38043</ele>
        <time>2014-11-22T10:15:04Z</time>
      </trkpt>
      <trkpt lat="45.66466" lon="5.73997">
        <ele>511.5113</ele>
        <time>2014-11-22T10:15:09Z</time>
      </trkpt>
      <trkpt lat="45.66463" lon="5.74005">
        <ele>511.5113</ele>
        <time>2014-11-22T10:15:14Z</time>
      </trkpt>
      <trkpt lat="45.66458" lon="5.74015">
        <ele>511.4414</ele>
        <time>2014-11-22T10:15:19Z</time>
      </trkpt>
      <trkpt lat="45.66454" lon="5.74025">
        <ele>511.4414</ele>
        <time>2014-11-22T10:15:24Z</time>
      </trkpt>
      <trkpt lat="45.6645" lon="5.74035">
        <ele>511.35715</ele>
        <time>2014-11-22T10:15:29Z</time>
      </trkpt>
      <trkpt lat="45.66446" lon="5.74047">
        <ele>511.34497</ele>
        <time>2014-11-22T10:15:34Z</time>
      </trkpt>
      <trkpt lat="45.66442" lon="5.74058">
        <ele>511.34497</ele>
        <time>2014-11-22T10:15:39Z</time>
      </trkpt>
      <trkpt lat="45.66439" lon="5.74068">
        <ele>511.45602</ele>
        <time>2014-11-22T10:15:44Z</time>
      </trkpt>
      <trkpt lat="45.66436" lon="5.74077">
        <ele>511.45602</ele>
        <time>2014-11-22T10:15:49Z</time>
      </trkpt>
      <trkpt lat="45.66433" lon="5.74086">
        <ele>511.43488</ele>
        <time>2014-11-22T10:15:54Z</time>
      </trkpt>
      <trkpt lat="45.66429" lon="5.74098">
        <ele>511.37674</ele>
        <time>2014-11-22T10:15:59Z</time>
      </trkpt>
      <trkpt lat="45.66426" lon="5.74107">
        <ele>511.37674</ele>
        <time>2014-11-22T10:16:04Z</time>
      </trkpt>
      <trkpt lat="45.66422" lon="5.74118">
        <ele>511.21155</ele>
        <time>2014-11-22T10:16:09Z</time>
      </trkpt>
      <trkpt lat="45.6642" lon="5.74128">
        <ele>511.21155</ele>
        <time>2014-11-22T10:16:14Z</time>
      </trkpt>
      <trkpt lat="45.66416" lon="5.74143">
        <ele>511.00455</ele>
        <time>2014-11-22T10:16:19Z</time>
      </trkpt>
      <trkpt lat="45.66411" lon="5.74154">
        <ele>511.00455</ele>
        <time>2014-11-22T10:16:24Z</time>
      </trkpt>
      <trkpt lat="45.66406" lon="5.74163">
        <ele>510.9027</ele>
        <time>2014-11-22T10:16:29Z</time>
      </trkpt>
      <trkpt lat="45.66405" lon="5.74171">
        <ele>510.9027</ele>
        <time>2014-11-22T10:16:34Z</time>
      </trkpt>
      <trkpt lat="45.66401" lon="5.74181">
        <ele>510.56662</ele>
        <time>2014-11-22T10:16:39Z</time>
      </trkpt>
      <trkpt lat="45.66396" lon="5.74189">
        <ele>510.56662</ele>
        <time>2014-11-22T10:16:44Z</time>
      </trkpt>
      <trkpt lat="45.66391" lon="5.74199">
        <ele>510.53262</ele>
        <time>2014-11-22T10:16:49Z</time>
      </trkpt>
      <trkpt lat="45.66386" lon="5.74207">
        <ele>510.53262</ele>
        <time>2014-11-22T10:16:55Z</time>
      </trkpt>
      <trkpt lat="45.66382" lon="5.74217">
        <ele>510.3747</ele>
        <time>2014-11-22T10:16:59Z</time>
      </trkpt>
      <trkpt lat="45.66376" lon="5.74229">
        <ele>510.20288</ele>
        <time>2014-11-22T10:17:05Z</time>
      </trkpt>
      <trkpt lat="45.6637" lon="5.74237">
        <ele>510.20288</ele>
        <time>2014-11-22T10:17:09Z</time>
      </trkpt>
      <trkpt lat="45.66366" lon="5.74248">
        <ele>510.1336</ele>
        <time>2014-11-22T10:17:14Z</time>
      </trkpt>
      <trkpt lat="45.6636" lon="5.74256">
        <ele>510.1336</ele>
        <time>2014-11-22T10:17:19Z</time>
      </trkpt>
      <trkpt lat="45.66356" lon="5.74265">
        <ele>509.79904</ele>
        <time>2014-11-22T10:17:24Z</time>
      </trkpt>
      <trkpt lat="45.66352" lon="5.74274">
        <ele>509.79904</ele>
        <time>2014-11-22T10:17:29Z</time>
      </trkpt>
      <trkpt lat="45.6635" lon="5.74281">
        <ele>509.30582</ele>
        <time>2014-11-22T10:17:34Z</time>
      </trkpt>
      <trkpt lat="45.6635" lon="5.74293">
        <ele>509.30582</ele>
        <time>2014-11-22T10:17:39Z</time>
      </trkpt>
      <trkpt lat="45.6635" lon="5.74305">
        <ele>508.55154</ele>
        <time>2014-11-22T10:17:44Z</time>
      </trkpt>
      <trkpt lat="45.66351" lon="5.74316">
        <ele>508.55154</ele>
        <time>2014-11-22T10:17:49Z</time>
      </trkpt>
      <trkpt lat="45.66352" lon="5.74327">
        <ele>507.97528</ele>
        <time>2014-11-22T10:17:54Z</time>
      </trkpt>
      <trkpt lat="45.66354" lon="5.74336">
        <ele>507.97528</ele>
        <time>2014-11-22T10:17:59Z</time>
      </trkpt>
      <trkpt lat="45.66358" lon="5.74348">
        <ele>507.40695</ele>
        <time>2014-11-22T10:18:04Z</time>
      </trkpt>
      <trkpt lat="45.6636" lon="5.74357">
        <ele>507.40695</ele>
        <time>2014-11-22T10:18:09Z</time>
      </trkpt>
      <trkpt lat="45.66364" lon="5.7437">
        <ele>506.87634</ele>
        <time>2014-11-22T10:18:15Z</time>
      </trkpt>
      <trkpt lat="45.66366" lon="5.74378">
        <ele>506.87634</ele>
        <time>2014-11-22T10:18:19Z</time>
      </trkpt>
      <trkpt lat="45.66371" lon="5.74386">
        <ele>506.20917</ele>
        <time>2014-11-22T10:18:24Z</time>
      </trkpt>
      <trkpt lat="45.66375" lon="5.74392">
        <ele>506.20917</ele>
        <time>2014-11-22T10:18:29Z</time>
      </trkpt>
      <trkpt lat="45.66381" lon="5.74398">
        <ele>505.59024</ele>
        <time>2014-11-22T10:18:34Z</time>
      </trkpt>
      <trkpt lat="45.66386" lon="5.74406">
        <ele>505.59024</ele>
        <time>2014-11-22T10:18:39Z</time>
      </trkpt>
      <trkpt lat="45.66391" lon="5.74411">
        <ele>504.77267</ele>
        <time>2014-11-22T10:18:44Z</time>
      </trkpt>
      <trkpt lat="45.66396" lon="5.74418">
        <ele>504.77267</ele>
        <time>2014-11-22T10:18:49Z</time>
      </trkpt>
      <trkpt lat="45.66402" lon="5.74425">
        <ele>503.74454</ele>
        <time>2014-11-22T10:18:54Z</time>
      </trkpt>
      <trkpt lat="45.66407" lon="5.74434">
        <ele>503.74454</ele>
        <time>2014-11-22T10:18:59Z</time>
      </trkpt>
      <trkpt lat="45.66412" lon="5.74441">
        <ele>502.5241</ele>
        <time>2014-11-22T10:19:04Z</time>
      </trkpt>
      <trkpt lat="45.66416" lon="5.7445">
        <ele>502.5241</ele>
        <time>2014-11-22T10:19:09Z</time>
      </trkpt>
      <trkpt lat="45.66421" lon="5.74459">
        <ele>501.41708</ele>
        <time>2014-11-22T10:19:14Z</time>
      </trkpt>
      <trkpt lat="45.66424" lon="5.74466">
        <ele>501.41708</ele>
        <time>2014-11-22T10:19:19Z</time>
      </trkpt>
      <trkpt lat="45.66428" lon="5.74476">
        <ele>500.1588</ele>
        <time>2014-11-22T10:19:24Z</time>
      </trkpt>
      <trkpt lat="45.66432" lon="5.74485">
        <ele>500.1588</ele>
        <time>2014-11-22T10:19:29Z</time>
      </trkpt>
      <trkpt lat="45.66434" lon="5.74492">
        <ele>498.87903</ele>
        <time>2014-11-22T10:19:34Z</time>
      </trkpt>
      <trkpt lat="45.66437" lon="5.74504">
        <ele>497.64044</ele>
        <time>2014-11-22T10:19:39Z</time>
      </trkpt>
      <trkpt lat="45.66438" lon="5.74516">
        <ele>497.64044</ele>
        <time>2014-11-22T10:19:44Z</time>
      </trkpt>
      <trkpt lat="45.66438" lon="5.74525">
        <ele>496.4721</ele>
        <time>2014-11-22T10:19:49Z</time>
      </trkpt>
      <trkpt lat="45.66439" lon="5.74534">
        <ele>496.4721</ele>
        <time>2014-11-22T10:19:54Z</time>
      </trkpt>
      <trkpt lat="45.6644" lon="5.74543">
        <ele>495.1557</ele>
        <time>2014-11-22T10:19:59Z</time>
      </trkpt>
      <trkpt lat="45.66443" lon="5.74553">
        <ele>495.1557</ele>
        <time>2014-11-22T10:20:04Z</time>
      </trkpt>
      <trkpt lat="45.66445" lon="5.74561">
        <ele>493.7199</ele>
        <time>2014-11-22T10:20:09Z</time>
      </trkpt>
      <trkpt lat="45.66448" lon="5.74569">
        <ele>493.7199</ele>
        <time>2014-11-22T10:20:14Z</time>
      </trkpt>
      <trkpt lat="45.6645" lon="5.74576">
        <ele>491.87448</ele>
        <time>2014-11-22T10:20:19Z</time>
      </trkpt>
      <trkpt lat="45.66452" lon="5.74582">
        <ele>491.87448</ele>
        <time>2014-11-22T10:20:24Z</time>
      </trkpt>
      <trkpt lat="45.66455" lon="5.74588">
        <ele>489.7119</ele>
        <time>2014-11-22T10:20:29Z</time>
      </trkpt>
      <trkpt lat="45.66461" lon="5.74597">
        <ele>489.7119</ele>
        <time>2014-11-22T10:20:34Z</time>
      </trkpt>
      <trkpt lat="45.66466" lon="5.74601">
        <ele>487.5493</ele>
        <time>2014-11-22T10:20:39Z</time>
      </trkpt>
      <trkpt lat="45.66472" lon="5.74607">
        <ele>487.5493</ele>
        <time>2014-11-22T10:20:44Z</time>
      </trkpt>
      <trkpt lat="45.66478" lon="5.7461">
        <ele>485.37756</ele>
        <time>2014-11-22T10:20:49Z</time>
      </trkpt>
      <trkpt lat="45.66483" lon="5.74616">
        <ele>485.37756</ele>
        <time>2014-11-22T10:20:54Z</time>
      </trkpt>
      <trkpt lat="45.66489" lon="5.7462">
        <ele>483.5487</ele>
        <time>2014-11-22T10:20:59Z</time>
      </trkpt>
      <trkpt lat="45.66493" lon="5.74624">
        <ele>483.5487</ele>
        <time>2014-11-22T10:21:04Z</time>
      </trkpt>
      <trkpt lat="45.66501" lon="5.74629">
        <ele>481.58063</ele>
        <time>2014-11-22T10:21:09Z</time>
      </trkpt>
      <trkpt lat="45.66505" lon="5.74637">
        <ele>481.58063</ele>
        <time>2014-11-22T10:21:15Z</time>
      </trkpt>
      <trkpt lat="45.66509" lon="5.74644">
        <ele>479.56024</ele>
        <time>2014-11-22T10:21:19Z</time>
      </trkpt>
      <trkpt lat="45.66511" lon="5.74652">
        <ele>479.56024</ele>
        <time>2014-11-22T10:21:24Z</time>
      </trkpt>
      <trkpt lat="45.66512" lon="5.74661">
        <ele>477.6401</ele>
        <time>2014-11-22T10:21:29Z</time>
      </trkpt>
      <trkpt lat="45.66512" lon="5.74671">
        <ele>477.6401</ele>
        <time>2014-11-22T10:21:34Z</time>
      </trkpt>
      <trkpt lat="45.66512" lon="5.74678">
        <ele>476.10526</ele>
        <time>2014-11-22T10:21:39Z</time>
      </trkpt>
      <trkpt lat="45.6651" lon="5.74686">
        <ele>476.10526</ele>
        <time>2014-11-22T10:21:44Z</time>
      </trkpt>
      <trkpt lat="45.6651" lon="5.74697">
        <ele>474.48367</ele>
        <time>2014-11-22T10:21:49Z</time>
      </trkpt>
      <trkpt lat="45.66512" lon="5.74706">
        <ele>474.48367</ele>
        <time>2014-11-22T10:21:54Z</time>
      </trkpt>
      <trkpt lat="45.66512" lon="5.74714">
        <ele>472.91452</ele>
        <time>2014-11-22T10:21:59Z</time>
      </trkpt>
      <trkpt lat="45.66511" lon="5.74722">
        <ele>472.91452</ele>
        <time>2014-11-22T10:22:04Z</time>
      </trkpt>
      <trkpt lat="45.66511" lon="5.74724">
        <ele>472.91452</ele>
        <time>2014-11-22T10:22:09Z</time>
      </trkpt>
      <trkpt lat="45.66511" lon="5.74733">
        <ele>470.9789</ele>
        <time>2014-11-22T10:22:14Z</time>
      </trkpt>
      <trkpt lat="45.6651" lon="5.74743">
        <ele>470.9789</ele>
        <time>2014-11-22T10:22:19Z</time>
      </trkpt>
      <trkpt lat="45.66509" lon="5.74753">
        <ele>468.72186</ele>
        <time>2014-11-22T10:22:24Z</time>
      </trkpt>
      <trkpt lat="45.66508" lon="5.74763">
        <ele>468.72186</ele>
        <time>2014-11-22T10:22:30Z</time>
      </trkpt>
      <trkpt lat="45.66507" lon="5.74776">
        <ele>466.38776</ele>
        <time>2014-11-22T10:22:34Z</time>
      </trkpt>
      <trkpt lat="45.66508" lon="5.7479">
        <ele>464.47678</ele>
        <time>2014-11-22T10:22:39Z</time>
      </trkpt>
      <trkpt lat="45.66509" lon="5.74801">
        <ele>464.47678</ele>
        <time>2014-11-22T10:22:44Z</time>
      </trkpt>
      <trkpt lat="45.66509" lon="5.7481">
        <ele>463.07645</ele>
        <time>2014-11-22T10:22:49Z</time>
      </trkpt>
      <trkpt lat="45.66509" lon="5.74819">
        <ele>463.07645</ele>
        <time>2014-11-22T10:22:54Z</time>
      </trkpt>
      <trkpt lat="45.66511" lon="5.74829">
        <ele>461.87717</ele>
        <time>2014-11-22T10:22:59Z</time>
      </trkpt>
      <trkpt lat="45.66512" lon="5.74838">
        <ele>461.87717</ele>
        <time>2014-11-22T10:23:04Z</time>
      </trkpt>
      <trkpt lat="45.66512" lon="5.7485">
        <ele>460.60577</ele>
        <time>2014-11-22T10:23:09Z</time>
      </trkpt>
      <trkpt lat="45.66513" lon="5.74858">
        <ele>460.60577</ele>
        <time>2014-11-22T10:23:14Z</time>
      </trkpt>
      <trkpt lat="45.66515" lon="5.74868">
        <ele>459.57135</ele>
        <time>2014-11-22T10:23:19Z</time>
      </trkpt>
      <trkpt lat="45.66518" lon="5.74876">
        <ele>459.57135</ele>
        <time>2014-11-22T10:23:24Z</time>
      </trkpt>
      <trkpt lat="45.66522" lon="5.74885">
        <ele>458.67035</ele>
        <time>2014-11-22T10:23:29Z</time>
      </trkpt>
      <trkpt lat="45.66526" lon="5.74893">
        <ele>458.67035</ele>
        <time>2014-11-22T10:23:34Z</time>
      </trkpt>
      <trkpt lat="45.66529" lon="5.74903">
        <ele>457.84958</ele>
        <time>2014-11-22T10:23:39Z</time>
      </trkpt>
      <trkpt lat="45.6653" lon="5.74913">
        <ele>457.84958</ele>
        <time>2014-11-22T10:23:44Z</time>
      </trkpt>
      <trkpt lat="45.66529" lon="5.74922">
        <ele>457.08826</ele>
        <time>2014-11-22T10:23:49Z</time>
      </trkpt>
      <trkpt lat="45.66531" lon="5.74933">
        <ele>457.08826</ele>
        <time>2014-11-22T10:23:54Z</time>
      </trkpt>
      <trkpt lat="45.66531" lon="5.74943">
        <ele>456.46774</ele>
        <time>2014-11-22T10:23:59Z</time>
      </trkpt>
      <trkpt lat="45.66532" lon="5.74953">
        <ele>456.46774</ele>
        <time>2014-11-22T10:24:04Z</time>
      </trkpt>
      <trkpt lat="45.66534" lon="5.74961">
        <ele>455.76035</ele>
        <time>2014-11-22T10:24:10Z</time>
      </trkpt>
      <trkpt lat="45.66535" lon="5.7497">
        <ele>455.76035</ele>
        <time>2014-11-22T10:24:14Z</time>
      </trkpt>
      <trkpt lat="45.66536" lon="5.74982">
        <ele>455.15875</ele>
        <time>2014-11-22T10:24:19Z</time>
      </trkpt>
      <trkpt lat="45.66539" lon="5.74992">
        <ele>455.15875</ele>
        <time>2014-11-22T10:24:24Z</time>
      </trkpt>
      <trkpt lat="45.66543" lon="5.75002">
        <ele>454.69702</ele>
        <time>2014-11-22T10:24:30Z</time>
      </trkpt>
      <trkpt lat="45.66546" lon="5.75009">
        <ele>454.69702</ele>
        <time>2014-11-22T10:24:34Z</time>
      </trkpt>
      <trkpt lat="45.66551" lon="5.75016">
        <ele>454.14685</ele>
        <time>2014-11-22T10:24:39Z</time>
      </trkpt>
      <trkpt lat="45.66557" lon="5.75025">
        <ele>454.14685</ele>
        <time>2014-11-22T10:24:44Z</time>
      </trkpt>
      <trkpt lat="45.66562" lon="5.75034">
        <ele>453.9599</ele>
        <time>2014-11-22T10:24:49Z</time>
      </trkpt>
      <trkpt lat="45.66567" lon="5.75042">
        <ele>453.9599</ele>
        <time>2014-11-22T10:24:54Z</time>
      </trkpt>
      <trkpt lat="45.66571" lon="5.75052">
        <ele>454.17877</ele>
        <time>2014-11-22T10:24:59Z</time>
      </trkpt>
      <trkpt lat="45.66576" lon="5.7506">
        <ele>454.17877</ele>
        <time>2014-11-22T10:25:04Z</time>
      </trkpt>
      <trkpt lat="45.6658" lon="5.75069">
        <ele>454.75546</ele>
        <time>2014-11-22T10:25:09Z</time>
      </trkpt>
      <trkpt lat="45.66584" lon="5.75077">
        <ele>454.75546</ele>
        <time>2014-11-22T10:25:14Z</time>
      </trkpt>
      <trkpt lat="45.66589" lon="5.75083">
        <ele>455.35617</ele>
        <time>2014-11-22T10:25:19Z</time>
      </trkpt>
      <trkpt lat="45.66592" lon="5.75094">
        <ele>455.35617</ele>
        <time>2014-11-22T10:25:24Z</time>
      </trkpt>
      <trkpt lat="45.66596" lon="5.75102">
        <ele>455.74362</ele>
        <time>2014-11-22T10:25:29Z</time>
      </trkpt>
      <trkpt lat="45.66593" lon="5.75111">
        <ele>455.74362</ele>
        <time>2014-11-22T10:25:34Z</time>
      </trkpt>
      <trkpt lat="45.66588" lon="5.75115">
        <ele>456.04443</ele>
        <time>2014-11-22T10:25:40Z</time>
      </trkpt>
      <trkpt lat="45.66581" lon="5.75119">
        <ele>456.04443</ele>
        <time>2014-11-22T10:25:44Z</time>
      </trkpt>
      <trkpt lat="45.66574" lon="5.75118">
        <ele>456.13126</ele>
        <time>2014-11-22T10:25:50Z</time>
      </trkpt>
      <trkpt lat="45.6657" lon="5.75113">
        <ele>456.13126</ele>
        <time>2014-11-22T10:25:54Z</time>
      </trkpt>
      <trkpt lat="45.66571" lon="5.7511">
        <ele>456.13126</ele>
        <time>2014-11-22T10:25:59Z</time>
      </trkpt>
      <trkpt lat="45.66571" lon="5.7511">
        <ele>456.13126</ele>
        <time>2014-11-22T10:26:04Z</time>
      </trkpt>
      <trkpt lat="45.66571" lon="5.7511">
        <ele>456.13126</ele>
        <time>2014-11-22T10:26:09Z</time>
      </trkpt>
      <trkpt lat="45.66573" lon="5.75106">
        <ele>456.4199</ele>
        <time>2014-11-22T10:26:14Z</time>
      </trkpt>
      <trkpt lat="45.66572" lon="5.75108">
        <ele>456.4199</ele>
        <time>2014-11-22T10:26:19Z</time>
      </trkpt>
      <trkpt lat="45.66566" lon="5.75108">
        <ele>456.4199</ele>
        <time>2014-11-22T10:26:25Z</time>
      </trkpt>
      <trkpt lat="45.66569" lon="5.75106">
        <ele>456.4449</ele>
        <time>2014-11-22T10:26:29Z</time>
      </trkpt>
      <trkpt lat="45.6657" lon="5.75107">
        <ele>456.4449</ele>
        <time>2014-11-22T10:26:34Z</time>
      </trkpt>
      <trkpt lat="45.66569" lon="5.75103">
        <ele>456.4449</ele>
        <time>2014-11-22T10:26:39Z</time>
      </trkpt>
      <trkpt lat="45.66605" lon="5.75113">
        <ele>457.80765</ele>
        <time>2014-11-22T10:32:03Z</time>
      </trkpt>
      <trkpt lat="45.6661" lon="5.75119">
        <ele>457.80765</ele>
        <time>2014-11-22T10:32:08Z</time>
      </trkpt>
      <trkpt lat="45.66616" lon="5.75126">
        <ele>458.94763</ele>
        <time>2014-11-22T10:32:13Z</time>
      </trkpt>
      <trkpt lat="45.66621" lon="5.75133">
        <ele>458.94763</ele>
        <time>2014-11-22T10:32:18Z</time>
      </trkpt>
      <trkpt lat="45.66626" lon="5.75139">
        <ele>459.7021</ele>
        <time>2014-11-22T10:32:23Z</time>
      </trkpt>
      <trkpt lat="45.66631" lon="5.75147">
        <ele>459.7021</ele>
        <time>2014-11-22T10:32:28Z</time>
      </trkpt>
      <trkpt lat="45.66636" lon="5.75153">
        <ele>460.28183</ele>
        <time>2014-11-22T10:32:33Z</time>
      </trkpt>
      <trkpt lat="45.66641" lon="5.7516">
        <ele>460.28183</ele>
        <time>2014-11-22T10:32:38Z</time>
      </trkpt>
      <trkpt lat="45.66646" lon="5.75167">
        <ele>460.69525</ele>
        <time>2014-11-22T10:32:43Z</time>
      </trkpt>
      <trkpt lat="45.6665" lon="5.75174">
        <ele>460.69525</ele>
        <time>2014-11-22T10:32:48Z</time>
      </trkpt>
      <trkpt lat="45.66656" lon="5.75181">
        <ele>460.9796</ele>
        <time>2014-11-22T10:32:53Z</time>
      </trkpt>
      <trkpt lat="45.66661" lon="5.75189">
        <ele>460.9796</ele>
        <time>2014-11-22T10:32:58Z</time>
      </trkpt>
      <trkpt lat="45.66666" lon="5.75197">
        <ele>461.1411</ele>
        <time>2014-11-22T10:33:03Z</time>
      </trkpt>
      <trkpt lat="45.66671" lon="5.75203">
        <ele>461.1411</ele>
        <time>2014-11-22T10:33:08Z</time>
      </trkpt>
      <trkpt lat="45.66675" lon="5.7521">
        <ele>461.08502</ele>
        <time>2014-11-22T10:33:13Z</time>
      </trkpt>
      <trkpt lat="45.6668" lon="5.75215">
        <ele>461.08502</ele>
        <time>2014-11-22T10:33:18Z</time>
      </trkpt>
      <trkpt lat="45.66685" lon="5.75223">
        <ele>460.82513</ele>
        <time>2014-11-22T10:33:23Z</time>
      </trkpt>
      <trkpt lat="45.6669" lon="5.7523">
        <ele>460.82513</ele>
        <time>2014-11-22T10:33:28Z</time>
      </trkpt>
      <trkpt lat="45.66694" lon="5.75234">
        <ele>460.25967</ele>
        <time>2014-11-22T10:33:33Z</time>
      </trkpt>
      <trkpt lat="45.66695" lon="5.75234">
        <ele>460.25967</ele>
        <time>2014-11-22T10:33:38Z</time>
      </trkpt>
      <trkpt lat="45.66697" lon="5.75236">
        <ele>460.25967</ele>
        <time>2014-11-22T10:33:43Z</time>
      </trkpt>
      <trkpt lat="45.66703" lon="5.7524">
        <ele>459.64117</ele>
        <time>2014-11-22T10:33:48Z</time>
      </trkpt>
      <trkpt lat="45.66708" lon="5.75246">
        <ele>459.64117</ele>
        <time>2014-11-22T10:33:53Z</time>
      </trkpt>
      <trkpt lat="45.66711" lon="5.75254">
        <ele>458.75708</ele>
        <time>2014-11-22T10:33:58Z</time>
      </trkpt>
      <trkpt lat="45.6671" lon="5.75265">
        <ele>458.75708</ele>
        <time>2014-11-22T10:34:04Z</time>
      </trkpt>
      <trkpt lat="45.66704" lon="5.75271">
        <ele>457.9445</ele>
        <time>2014-11-22T10:34:08Z</time>
      </trkpt>
      <trkpt lat="45.66699" lon="5.75276">
        <ele>457.9445</ele>
        <time>2014-11-22T10:34:13Z</time>
      </trkpt>
      <trkpt lat="45.66693" lon="5.75281">
        <ele>457.31393</ele>
        <time>2014-11-22T10:34:18Z</time>
      </trkpt>
      <trkpt lat="45.66686" lon="5.75284">
        <ele>457.31393</ele>
        <time>2014-11-22T10:34:23Z</time>
      </trkpt>
      <trkpt lat="45.66679" lon="5.75284">
        <ele>456.9673</ele>
        <time>2014-11-22T10:34:28Z</time>
      </trkpt>
      <trkpt lat="45.66672" lon="5.75282">
        <ele>456.9673</ele>
        <time>2014-11-22T10:34:33Z</time>
      </trkpt>
      <trkpt lat="45.66665" lon="5.75283">
        <ele>456.79654</ele>
        <time>2014-11-22T10:34:38Z</time>
      </trkpt>
      <trkpt lat="45.66657" lon="5.75283">
        <ele>456.79654</ele>
        <time>2014-11-22T10:34:43Z</time>
      </trkpt>
      <trkpt lat="45.6665" lon="5.75283">
        <ele>456.51382</ele>
        <time>2014-11-22T10:34:48Z</time>
      </trkpt>
      <trkpt lat="45.66642" lon="5.75282">
        <ele>456.51382</ele>
        <time>2014-11-22T10:34:53Z</time>
      </trkpt>
      <trkpt lat="45.66635" lon="5.75282">
        <ele>456.16983</ele>
        <time>2014-11-22T10:34:58Z</time>
      </trkpt>
      <trkpt lat="45.66627" lon="5.75281">
        <ele>456.16983</ele>
        <time>2014-11-22T10:35:04Z</time>
      </trkpt>
      <trkpt lat="45.66622" lon="5.75281">
        <ele>455.52356</ele>
        <time>2014-11-22T10:35:08Z</time>
      </trkpt>
      <trkpt lat="45.66614" lon="5.75281">
        <ele>455.52356</ele>
        <time>2014-11-22T10:35:13Z</time>
      </trkpt>
      <trkpt lat="45.66606" lon="5.75279">
        <ele>454.77048</ele>
        <time>2014-11-22T10:35:18Z</time>
      </trkpt>
      <trkpt lat="45.66598" lon="5.75277">
        <ele>454.77048</ele>
        <time>2014-11-22T10:35:23Z</time>
      </trkpt>
      <trkpt lat="45.6659" lon="5.75275">
        <ele>453.97687</ele>
        <time>2014-11-22T10:35:28Z</time>
      </trkpt>
      <trkpt lat="45.66582" lon="5.75272">
        <ele>453.97687</ele>
        <time>2014-11-22T10:35:33Z</time>
      </trkpt>
      <trkpt lat="45.66574" lon="5.75272">
        <ele>453.2618</ele>
        <time>2014-11-22T10:35:38Z</time>
      </trkpt>
      <trkpt lat="45.66567" lon="5.75273">
        <ele>453.2618</ele>
        <time>2014-11-22T10:35:43Z</time>
      </trkpt>
      <trkpt lat="45.6656" lon="5.75278">
        <ele>452.505</ele>
        <time>2014-11-22T10:35:48Z</time>
      </trkpt>
      <trkpt lat="45.66553" lon="5.7528">
        <ele>452.505</ele>
        <time>2014-11-22T10:35:53Z</time>
      </trkpt>
      <trkpt lat="45.66547" lon="5.75285">
        <ele>451.55185</ele>
        <time>2014-11-22T10:35:58Z</time>
      </trkpt>
      <trkpt lat="45.66541" lon="5.75291">
        <ele>451.55185</ele>
        <time>2014-11-22T10:36:03Z</time>
      </trkpt>
      <trkpt lat="45.66537" lon="5.75299">
        <ele>450.4038</ele>
        <time>2014-11-22T10:36:08Z</time>
      </trkpt>
      <trkpt lat="45.66533" lon="5.7531">
        <ele>450.4038</ele>
        <time>2014-11-22T10:36:13Z</time>
      </trkpt>
      <trkpt lat="45.6653" lon="5.7532">
        <ele>449.1492</ele>
        <time>2014-11-22T10:36:18Z</time>
      </trkpt>
      <trkpt lat="45.66527" lon="5.7533">
        <ele>449.1492</ele>
        <time>2014-11-22T10:36:23Z</time>
      </trkpt>
      <trkpt lat="45.66524" lon="5.7534">
        <ele>447.9568</ele>
        <time>2014-11-22T10:36:28Z</time>
      </trkpt>
      <trkpt lat="45.66521" lon="5.7535">
        <ele>447.9568</ele>
        <time>2014-11-22T10:36:33Z</time>
      </trkpt>
      <trkpt lat="45.66517" lon="5.7536">
        <ele>446.8817</ele>
        <time>2014-11-22T10:36:38Z</time>
      </trkpt>
      <trkpt lat="45.66514" lon="5.75369">
        <ele>446.8817</ele>
        <time>2014-11-22T10:36:43Z</time>
      </trkpt>
      <trkpt lat="45.6651" lon="5.75378">
        <ele>445.88843</ele>
        <time>2014-11-22T10:36:48Z</time>
      </trkpt>
      <trkpt lat="45.66507" lon="5.75389">
        <ele>445.88843</ele>
        <time>2014-11-22T10:36:53Z</time>
      </trkpt>
      <trkpt lat="45.66501" lon="5.75401">
        <ele>445.04453</ele>
        <time>2014-11-22T10:36:58Z</time>
      </trkpt>
      <trkpt lat="45.66493" lon="5.75423">
        <ele>444.31143</ele>
        <time>2014-11-22T10:37:03Z</time>
      </trkpt>
      <trkpt lat="45.66484" lon="5.75445">
        <ele>443.62415</ele>
        <time>2014-11-22T10:37:08Z</time>
      </trkpt>
      <trkpt lat="45.66475" lon="5.75465">
        <ele>442.95123</ele>
        <time>2014-11-22T10:37:13Z</time>
      </trkpt>
      <trkpt lat="45.6646" lon="5.75472">
        <ele>442.19138</ele>
        <time>2014-11-22T10:37:18Z</time>
      </trkpt>
      <trkpt lat="45.66445" lon="5.75468">
        <ele>441.66888</ele>
        <time>2014-11-22T10:37:23Z</time>
      </trkpt>
      <trkpt lat="45.66437" lon="5.75464">
        <ele>441.66888</ele>
        <time>2014-11-22T10:37:28Z</time>
      </trkpt>
      <trkpt lat="45.6643" lon="5.7546">
        <ele>441.32327</ele>
        <time>2014-11-22T10:37:33Z</time>
      </trkpt>
      <trkpt lat="45.66423" lon="5.75456">
        <ele>441.32327</ele>
        <time>2014-11-22T10:37:38Z</time>
      </trkpt>
      <trkpt lat="45.66417" lon="5.75452">
        <ele>440.80978</ele>
        <time>2014-11-22T10:37:43Z</time>
      </trkpt>
      <trkpt lat="45.66411" lon="5.75448">
        <ele>440.80978</ele>
        <time>2014-11-22T10:37:48Z</time>
      </trkpt>
      <trkpt lat="45.66405" lon="5.75445">
        <ele>440.1265</ele>
        <time>2014-11-22T10:37:53Z</time>
      </trkpt>
      <trkpt lat="45.66401" lon="5.75442">
        <ele>440.1265</ele>
        <time>2014-11-22T10:37:58Z</time>
      </trkpt>
      <trkpt lat="45.66396" lon="5.75439">
        <ele>439.27203</ele>
        <time>2014-11-22T10:38:03Z</time>
      </trkpt>
      <trkpt lat="45.6639" lon="5.75435">
        <ele>439.27203</ele>
        <time>2014-11-22T10:38:08Z</time>
      </trkpt>
      <trkpt lat="45.66384" lon="5.7543">
        <ele>438.4618</ele>
        <time>2014-11-22T10:38:13Z</time>
      </trkpt>
      <trkpt lat="45.66377" lon="5.75427">
        <ele>438.4618</ele>
        <time>2014-11-22T10:38:18Z</time>
      </trkpt>
      <trkpt lat="45.66371" lon="5.75423">
        <ele>437.82312</ele>
        <time>2014-11-22T10:38:23Z</time>
      </trkpt>
      <trkpt lat="45.66365" lon="5.7542">
        <ele>437.82312</ele>
        <time>2014-11-22T10:38:28Z</time>
      </trkpt>
      <trkpt lat="45.66359" lon="5.75417">
        <ele>437.04126</ele>
        <time>2014-11-22T10:38:33Z</time>
      </trkpt>
      <trkpt lat="45.66352" lon="5.75414">
        <ele>437.04126</ele>
        <time>2014-11-22T10:38:38Z</time>
      </trkpt>
      <trkpt lat="45.66344" lon="5.75411">
        <ele>436.19955</ele>
        <time>2014-11-22T10:38:43Z</time>
      </trkpt>
      <trkpt lat="45.66338" lon="5.7541">
        <ele>436.19955</ele>
        <time>2014-11-22T10:38:48Z</time>
      </trkpt>
      <trkpt lat="45.66331" lon="5.75408">
        <ele>435.23132</ele>
        <time>2014-11-22T10:38:53Z</time>
      </trkpt>
      <trkpt lat="45.66324" lon="5.75407">
        <ele>435.23132</ele>
        <time>2014-11-22T10:38:58Z</time>
      </trkpt>
      <trkpt lat="45.66317" lon="5.75407">
        <ele>434.21918</ele>
        <time>2014-11-22T10:39:03Z</time>
      </trkpt>
      <trkpt lat="45.6631" lon="5.75406">
        <ele>434.21918</ele>
        <time>2014-11-22T10:39:09Z</time>
      </trkpt>
      <trkpt lat="45.66305" lon="5.75406">
        <ele>433.12448</ele>
        <time>2014-11-22T10:39:13Z</time>
      </trkpt>
      <trkpt lat="45.66297" lon="5.75406">
        <ele>433.12448</ele>
        <time>2014-11-22T10:39:18Z</time>
      </trkpt>
      <trkpt lat="45.6629" lon="5.75406">
        <ele>431.85406</ele>
        <time>2014-11-22T10:39:23Z</time>
      </trkpt>
      <trkpt lat="45.66283" lon="5.75406">
        <ele>431.85406</ele>
        <time>2014-11-22T10:39:28Z</time>
      </trkpt>
      <trkpt lat="45.66275" lon="5.75407">
        <ele>430.43726</ele>
        <time>2014-11-22T10:39:33Z</time>
      </trkpt>
      <trkpt lat="45.66268" lon="5.7541">
        <ele>430.43726</ele>
        <time>2014-11-22T10:39:38Z</time>
      </trkpt>
      <trkpt lat="45.66263" lon="5.75418">
        <ele>429.17548</ele>
        <time>2014-11-22T10:39:43Z</time>
      </trkpt>
      <trkpt lat="45.66264" lon="5.75423">
        <ele>429.17548</ele>
        <time>2014-11-22T10:39:48Z</time>
      </trkpt>
      <trkpt lat="45.66265" lon="5.75431">
        <ele>427.74228</ele>
        <time>2014-11-22T10:39:53Z</time>
      </trkpt>
      <trkpt lat="45.66269" lon="5.75439">
        <ele>427.74228</ele>
        <time>2014-11-22T10:39:58Z</time>
      </trkpt>
      <trkpt lat="45.66274" lon="5.75446">
        <ele>426.1959</ele>
        <time>2014-11-22T10:40:03Z</time>
      </trkpt>
      <trkpt lat="45.66278" lon="5.75453">
        <ele>426.1959</ele>
        <time>2014-11-22T10:40:08Z</time>
      </trkpt>
      <trkpt lat="45.66282" lon="5.75461">
        <ele>424.38873</ele>
        <time>2014-11-22T10:40:13Z</time>
      </trkpt>
      <trkpt lat="45.66285" lon="5.7547">
        <ele>424.38873</ele>
        <time>2014-11-22T10:40:18Z</time>
      </trkpt>
      <trkpt lat="45.66287" lon="5.75479">
        <ele>422.44424</ele>
        <time>2014-11-22T10:40:23Z</time>
      </trkpt>
      <trkpt lat="45.66289" lon="5.75488">
        <ele>422.44424</ele>
        <time>2014-11-22T10:40:28Z</time>
      </trkpt>
      <trkpt lat="45.6629" lon="5.75497">
        <ele>420.17444</ele>
        <time>2014-11-22T10:40:33Z</time>
      </trkpt>
      <trkpt lat="45.66293" lon="5.75504">
        <ele>420.17444</ele>
        <time>2014-11-22T10:40:38Z</time>
      </trkpt>
      <trkpt lat="45.66295" lon="5.75511">
        <ele>417.8383</ele>
        <time>2014-11-22T10:40:43Z</time>
      </trkpt>
      <trkpt lat="45.66298" lon="5.75519">
        <ele>417.8383</ele>
        <time>2014-11-22T10:40:48Z</time>
      </trkpt>
      <trkpt lat="45.66299" lon="5.75527">
        <ele>414.89774</ele>
        <time>2014-11-22T10:40:53Z</time>
      </trkpt>
      <trkpt lat="45.66299" lon="5.75534">
        <ele>414.89774</ele>
        <time>2014-11-22T10:40:58Z</time>
      </trkpt>
      <trkpt lat="45.663" lon="5.75542">
        <ele>411.20163</ele>
        <time>2014-11-22T10:41:03Z</time>
      </trkpt>
      <trkpt lat="45.66302" lon="5.75551">
        <ele>411.20163</ele>
        <time>2014-11-22T10:41:08Z</time>
      </trkpt>
      <trkpt lat="45.66306" lon="5.7556">
        <ele>407.7073</ele>
        <time>2014-11-22T10:41:13Z</time>
      </trkpt>
      <trkpt lat="45.6631" lon="5.75568">
        <ele>407.7073</ele>
        <time>2014-11-22T10:41:18Z</time>
      </trkpt>
      <trkpt lat="45.66312" lon="5.75575">
        <ele>404.09045</ele>
        <time>2014-11-22T10:41:23Z</time>
      </trkpt>
      <trkpt lat="45.66316" lon="5.75583">
        <ele>404.09045</ele>
        <time>2014-11-22T10:41:28Z</time>
      </trkpt>
      <trkpt lat="45.66322" lon="5.75591">
        <ele>400.71378</ele>
        <time>2014-11-22T10:41:33Z</time>
      </trkpt>
      <trkpt lat="45.66328" lon="5.75598">
        <ele>400.71378</ele>
        <time>2014-11-22T10:41:38Z</time>
      </trkpt>
      <trkpt lat="45.66335" lon="5.75605">
        <ele>397.65314</ele>
        <time>2014-11-22T10:41:43Z</time>
      </trkpt>
      <trkpt lat="45.66341" lon="5.75612">
        <ele>397.65314</ele>
        <time>2014-11-22T10:41:48Z</time>
      </trkpt>
      <trkpt lat="45.66347" lon="5.75619">
        <ele>394.87686</ele>
        <time>2014-11-22T10:41:54Z</time>
      </trkpt>
      <trkpt lat="45.66353" lon="5.75625">
        <ele>394.87686</ele>
        <time>2014-11-22T10:41:58Z</time>
      </trkpt>
      <trkpt lat="45.66358" lon="5.75634">
        <ele>392.39792</ele>
        <time>2014-11-22T10:42:04Z</time>
      </trkpt>
      <trkpt lat="45.66362" lon="5.75641">
        <ele>392.39792</ele>
        <time>2014-11-22T10:42:09Z</time>
      </trkpt>
      <trkpt lat="45.66367" lon="5.75648">
        <ele>389.86703</ele>
        <time>2014-11-22T10:42:13Z</time>
      </trkpt>
      <trkpt lat="45.66374" lon="5.75655">
        <ele>389.86703</ele>
        <time>2014-11-22T10:42:18Z</time>
      </trkpt>
      <trkpt lat="45.66377" lon="5.75659">
        <ele>387.5947</ele>
        <time>2014-11-22T10:42:23Z</time>
      </trkpt>
      <trkpt lat="45.66384" lon="5.75663">
        <ele>387.5947</ele>
        <time>2014-11-22T10:42:28Z</time>
      </trkpt>
      <trkpt lat="45.66389" lon="5.75669">
        <ele>385.24802</ele>
        <time>2014-11-22T10:42:33Z</time>
      </trkpt>
      <trkpt lat="45.66395" lon="5.75674">
        <ele>385.24802</ele>
        <time>2014-11-22T10:42:38Z</time>
      </trkpt>
      <trkpt lat="45.66402" lon="5.75677">
        <ele>383.00858</ele>
        <time>2014-11-22T10:42:43Z</time>
      </trkpt>
      <trkpt lat="45.66408" lon="5.75682">
        <ele>383.00858</ele>
        <time>2014-11-22T10:42:48Z</time>
      </trkpt>
      <trkpt lat="45.66415" lon="5.75687">
        <ele>380.51093</ele>
        <time>2014-11-22T10:42:53Z</time>
      </trkpt>
      <trkpt lat="45.6642" lon="5.75694">
        <ele>380.51093</ele>
        <time>2014-11-22T10:42:58Z</time>
      </trkpt>
      <trkpt lat="45.66426" lon="5.75699">
        <ele>378.39703</ele>
        <time>2014-11-22T10:43:03Z</time>
      </trkpt>
      <trkpt lat="45.66432" lon="5.75705">
        <ele>378.39703</ele>
        <time>2014-11-22T10:43:08Z</time>
      </trkpt>
      <trkpt lat="45.66438" lon="5.75711">
        <ele>376.2373</ele>
        <time>2014-11-22T10:43:14Z</time>
      </trkpt>
      <trkpt lat="45.66444" lon="5.75718">
        <ele>376.2373</ele>
        <time>2014-11-22T10:43:18Z</time>
      </trkpt>
      <trkpt lat="45.66451" lon="5.75725">
        <ele>374.29654</ele>
        <time>2014-11-22T10:43:23Z</time>
      </trkpt>
      <trkpt lat="45.66457" lon="5.7573">
        <ele>374.29654</ele>
        <time>2014-11-22T10:43:28Z</time>
      </trkpt>
      <trkpt lat="45.66462" lon="5.7573">
        <ele>372.315</ele>
        <time>2014-11-22T10:43:33Z</time>
      </trkpt>
      <trkpt lat="45.66467" lon="5.75728">
        <ele>372.315</ele>
        <time>2014-11-22T10:43:38Z</time>
      </trkpt>
      <trkpt lat="45.66475" lon="5.75728">
        <ele>371.21927</ele>
        <time>2014-11-22T10:43:43Z</time>
      </trkpt>
      <trkpt lat="45.66483" lon="5.75732">
        <ele>371.21927</ele>
        <time>2014-11-22T10:43:48Z</time>
      </trkpt>
      <trkpt lat="45.66491" lon="5.75737">
        <ele>370.52505</ele>
        <time>2014-11-22T10:43:53Z</time>
      </trkpt>
      <trkpt lat="45.66498" lon="5.7574">
        <ele>370.52505</ele>
        <time>2014-11-22T10:43:58Z</time>
      </trkpt>
      <trkpt lat="45.66505" lon="5.75744">
        <ele>369.84003</ele>
        <time>2014-11-22T10:44:03Z</time>
      </trkpt>
      <trkpt lat="45.66512" lon="5.75749">
        <ele>369.84003</ele>
        <time>2014-11-22T10:44:08Z</time>
      </trkpt>
      <trkpt lat="45.66518" lon="5.75753">
        <ele>369.0744</ele>
        <time>2014-11-22T10:44:13Z</time>
      </trkpt>
      <trkpt lat="45.66525" lon="5.75758">
        <ele>369.0744</ele>
        <time>2014-11-22T10:44:18Z</time>
      </trkpt>
      <trkpt lat="45.66529" lon="5.75766">
        <ele>368.63504</ele>
        <time>2014-11-22T10:44:23Z</time>
      </trkpt>
      <trkpt lat="45.66532" lon="5.75777">
        <ele>368.63504</ele>
        <time>2014-11-22T10:44:28Z</time>
      </trkpt>
      <trkpt lat="45.66534" lon="5.7578">
        <ele>368.71066</ele>
        <time>2014-11-22T10:44:33Z</time>
      </trkpt>
      <trkpt lat="45.66535" lon="5.75781">
        <ele>368.71066</ele>
        <time>2014-11-22T10:44:38Z</time>
      </trkpt>
      <trkpt lat="45.66536" lon="5.7578">
        <ele>368.71066</ele>
        <time>2014-11-22T10:44:43Z</time>
      </trkpt>
      <trkpt lat="45.66537" lon="5.75784">
        <ele>368.71066</ele>
        <time>2014-11-22T10:44:48Z</time>
      </trkpt>
      <trkpt lat="45.66536" lon="5.75793">
        <ele>369.22958</ele>
        <time>2014-11-22T10:44:53Z</time>
      </trkpt>
      <trkpt lat="45.66534" lon="5.75802">
        <ele>369.22958</ele>
        <time>2014-11-22T10:44:58Z</time>
      </trkpt>
      <trkpt lat="45.66535" lon="5.75812">
        <ele>369.51892</ele>
        <time>2014-11-22T10:45:03Z</time>
      </trkpt>
      <trkpt lat="45.66539" lon="5.75822">
        <ele>369.51892</ele>
        <time>2014-11-22T10:45:08Z</time>
      </trkpt>
      <trkpt lat="45.66542" lon="5.75826">
        <ele>369.8925</ele>
        <time>2014-11-22T10:45:13Z</time>
      </trkpt>
      <trkpt lat="45.66547" lon="5.75834">
        <ele>369.8925</ele>
        <time>2014-11-22T10:45:18Z</time>
      </trkpt>
      <trkpt lat="45.6655" lon="5.75841">
        <ele>369.86267</ele>
        <time>2014-11-22T10:45:23Z</time>
      </trkpt>
      <trkpt lat="45.66554" lon="5.75851">
        <ele>369.86267</ele>
        <time>2014-11-22T10:45:28Z</time>
      </trkpt>
      <trkpt lat="45.66558" lon="5.7586">
        <ele>369.77142</ele>
        <time>2014-11-22T10:45:33Z</time>
      </trkpt>
      <trkpt lat="45.66561" lon="5.75867">
        <ele>369.77142</ele>
        <time>2014-11-22T10:45:38Z</time>
      </trkpt>
      <trkpt lat="45.66563" lon="5.75875">
        <ele>369.0855</ele>
        <time>2014-11-22T10:45:43Z</time>
      </trkpt>
      <trkpt lat="45.66565" lon="5.75884">
        <ele>369.0855</ele>
        <time>2014-11-22T10:45:48Z</time>
      </trkpt>
      <trkpt lat="45.66568" lon="5.75895">
        <ele>368.37903</ele>
        <time>2014-11-22T10:45:53Z</time>
      </trkpt>
      <trkpt lat="45.66569" lon="5.75906">
        <ele>368.37903</ele>
        <time>2014-11-22T10:45:58Z</time>
      </trkpt>
      <trkpt lat="45.66568" lon="5.75908">
        <ele>367.72287</ele>
        <time>2014-11-22T10:46:04Z</time>
      </trkpt>
      <trkpt lat="45.66568" lon="5.75911">
        <ele>367.72287</ele>
        <time>2014-11-22T10:46:08Z</time>
      </trkpt>
      <trkpt lat="45.66568" lon="5.75919">
        <ele>367.72287</ele>
        <time>2014-11-22T10:46:13Z</time>
      </trkpt>
      <trkpt lat="45.66568" lon="5.7593">
        <ele>367.65817</ele>
        <time>2014-11-22T10:46:18Z</time>
      </trkpt>
      <trkpt lat="45.66567" lon="5.75942">
        <ele>367.65817</ele>
        <time>2014-11-22T10:46:24Z</time>
      </trkpt>
      <trkpt lat="45.66568" lon="5.7595">
        <ele>368.03622</ele>
        <time>2014-11-22T10:46:28Z</time>
      </trkpt>
      <trkpt lat="45.66566" lon="5.75961">
        <ele>368.03622</ele>
        <time>2014-11-22T10:46:33Z</time>
      </trkpt>
      <trkpt lat="45.66565" lon="5.75969">
        <ele>367.93985</ele>
        <time>2014-11-22T10:46:38Z</time>
      </trkpt>
      <trkpt lat="45.66566" lon="5.75975">
        <ele>367.93985</ele>
        <time>2014-11-22T10:46:43Z</time>
      </trkpt>
      <trkpt lat="45.66563" lon="5.75986">
        <ele>367.7889</ele>
        <time>2014-11-22T10:46:48Z</time>
      </trkpt>
      <trkpt lat="45.66563" lon="5.75995">
        <ele>367.7889</ele>
        <time>2014-11-22T10:46:54Z</time>
      </trkpt>
      <trkpt lat="45.66563" lon="5.76006">
        <ele>367.77084</ele>
        <time>2014-11-22T10:46:59Z</time>
      </trkpt>
      <trkpt lat="45.66564" lon="5.76016">
        <ele>367.77084</ele>
        <time>2014-11-22T10:47:03Z</time>
      </trkpt>
      <trkpt lat="45.66568" lon="5.76025">
        <ele>368.0014</ele>
        <time>2014-11-22T10:47:08Z</time>
      </trkpt>
      <trkpt lat="45.66573" lon="5.76031">
        <ele>368.0014</ele>
        <time>2014-11-22T10:47:13Z</time>
      </trkpt>
      <trkpt lat="45.6658" lon="5.76035">
        <ele>368.05405</ele>
        <time>2014-11-22T10:47:18Z</time>
      </trkpt>
      <trkpt lat="45.66586" lon="5.76038">
        <ele>368.05405</ele>
        <time>2014-11-22T10:47:23Z</time>
      </trkpt>
      <trkpt lat="45.66593" lon="5.76042">
        <ele>368.12503</ele>
        <time>2014-11-22T10:47:28Z</time>
      </trkpt>
      <trkpt lat="45.66599" lon="5.76044">
        <ele>368.12503</ele>
        <time>2014-11-22T10:47:33Z</time>
      </trkpt>
      <trkpt lat="45.66607" lon="5.76048">
        <ele>368.09354</ele>
        <time>2014-11-22T10:47:38Z</time>
      </trkpt>
      <trkpt lat="45.66614" lon="5.76052">
        <ele>368.09354</ele>
        <time>2014-11-22T10:47:43Z</time>
      </trkpt>
      <trkpt lat="45.6662" lon="5.76054">
        <ele>367.94904</ele>
        <time>2014-11-22T10:47:48Z</time>
      </trkpt>
      <trkpt lat="45.66626" lon="5.76056">
        <ele>367.94904</ele>
        <time>2014-11-22T10:47:53Z</time>
      </trkpt>
      <trkpt lat="45.66632" lon="5.76056">
        <ele>367.9847</ele>
        <time>2014-11-22T10:47:58Z</time>
      </trkpt>
      <trkpt lat="45.66639" lon="5.76054">
        <ele>367.9847</ele>
        <time>2014-11-22T10:48:03Z</time>
      </trkpt>
      <trkpt lat="45.66647" lon="5.76054">
        <ele>367.59286</ele>
        <time>2014-11-22T10:48:08Z</time>
      </trkpt>
      <trkpt lat="45.66653" lon="5.76052">
        <ele>367.59286</ele>
        <time>2014-11-22T10:48:14Z</time>
      </trkpt>
      <trkpt lat="45.66662" lon="5.76052">
        <ele>366.2981</ele>
        <time>2014-11-22T10:48:18Z</time>
      </trkpt>
      <trkpt lat="45.66667" lon="5.76049">
        <ele>366.2981</ele>
        <time>2014-11-22T10:48:23Z</time>
      </trkpt>
      <trkpt lat="45.66675" lon="5.76049">
        <ele>364.81552</ele>
        <time>2014-11-22T10:48:28Z</time>
      </trkpt>
      <trkpt lat="45.66679" lon="5.76058">
        <ele>364.81552</ele>
        <time>2014-11-22T10:48:33Z</time>
      </trkpt>
      <trkpt lat="45.6668" lon="5.76071">
        <ele>364.2119</ele>
        <time>2014-11-22T10:48:38Z</time>
      </trkpt>
      <trkpt lat="45.66681" lon="5.76083">
        <ele>364.2119</ele>
        <time>2014-11-22T10:48:43Z</time>
      </trkpt>
      <trkpt lat="45.66681" lon="5.76093">
        <ele>362.50455</ele>
        <time>2014-11-22T10:48:48Z</time>
      </trkpt>
      <trkpt lat="45.66677" lon="5.76102">
        <ele>362.50455</ele>
        <time>2014-11-22T10:48:53Z</time>
      </trkpt>
      <trkpt lat="45.66676" lon="5.7611">
        <ele>361.03003</ele>
        <time>2014-11-22T10:48:58Z</time>
      </trkpt>
      <trkpt lat="45.66675" lon="5.76122">
        <ele>361.03003</ele>
        <time>2014-11-22T10:49:03Z</time>
      </trkpt>
      <trkpt lat="45.66676" lon="5.76133">
        <ele>359.7724</ele>
        <time>2014-11-22T10:49:08Z</time>
      </trkpt>
      <trkpt lat="45.66678" lon="5.76141">
        <ele>359.7724</ele>
        <time>2014-11-22T10:49:13Z</time>
      </trkpt>
      <trkpt lat="45.66683" lon="5.76149">
        <ele>358.37054</ele>
        <time>2014-11-22T10:49:18Z</time>
      </trkpt>
      <trkpt lat="45.66686" lon="5.76156">
        <ele>358.37054</ele>
        <time>2014-11-22T10:49:24Z</time>
      </trkpt>
      <trkpt lat="45.6669" lon="5.76161">
        <ele>356.86493</ele>
        <time>2014-11-22T10:49:28Z</time>
      </trkpt>
      <trkpt lat="45.66696" lon="5.76169">
        <ele>356.86493</ele>
        <time>2014-11-22T10:49:33Z</time>
      </trkpt>
      <trkpt lat="45.66695" lon="5.76166">
        <ele>356.0861</ele>
        <time>2014-11-22T10:49:38Z</time>
      </trkpt>
      <trkpt lat="45.66696" lon="5.76166">
        <ele>356.0861</ele>
        <time>2014-11-22T10:49:43Z</time>
      </trkpt>
      <trkpt lat="45.66703" lon="5.76171">
        <ele>356.0861</ele>
        <time>2014-11-22T10:49:48Z</time>
      </trkpt>
      <trkpt lat="45.66709" lon="5.76171">
        <ele>354.42368</ele>
        <time>2014-11-22T10:49:53Z</time>
      </trkpt>
      <trkpt lat="45.66715" lon="5.76174">
        <ele>354.42368</ele>
        <time>2014-11-22T10:49:58Z</time>
      </trkpt>
      <trkpt lat="45.66722" lon="5.76177">
        <ele>352.9966</ele>
        <time>2014-11-22T10:50:03Z</time>
      </trkpt>
      <trkpt lat="45.66729" lon="5.7618">
        <ele>352.9966</ele>
        <time>2014-11-22T10:50:08Z</time>
      </trkpt>
      <trkpt lat="45.66738" lon="5.76179">
        <ele>351.90424</ele>
        <time>2014-11-22T10:50:13Z</time>
      </trkpt>
      <trkpt lat="45.66745" lon="5.76187">
        <ele>351.90424</ele>
        <time>2014-11-22T10:50:18Z</time>
      </trkpt>
      <trkpt lat="45.66749" lon="5.76198">
        <ele>350.38745</ele>
        <time>2014-11-22T10:50:23Z</time>
      </trkpt>
      <trkpt lat="45.66758" lon="5.76202">
        <ele>349.22852</ele>
        <time>2014-11-22T10:50:28Z</time>
      </trkpt>
      <trkpt lat="45.66763" lon="5.7621">
        <ele>349.22852</ele>
        <time>2014-11-22T10:50:33Z</time>
      </trkpt>
      <trkpt lat="45.66769" lon="5.76215">
        <ele>347.82532</ele>
        <time>2014-11-22T10:50:38Z</time>
      </trkpt>
      <trkpt lat="45.66775" lon="5.76219">
        <ele>347.82532</ele>
        <time>2014-11-22T10:50:43Z</time>
      </trkpt>
      <trkpt lat="45.6678" lon="5.76218">
        <ele>346.32693</ele>
        <time>2014-11-22T10:50:48Z</time>
      </trkpt>
      <trkpt lat="45.66786" lon="5.76215">
        <ele>346.32693</ele>
        <time>2014-11-22T10:50:54Z</time>
      </trkpt>
      <trkpt lat="45.6679" lon="5.7621">
        <ele>345.44812</ele>
        <time>2014-11-22T10:50:58Z</time>
      </trkpt>
      <trkpt lat="45.66795" lon="5.76202">
        <ele>345.44812</ele>
        <time>2014-11-22T10:51:03Z</time>
      </trkpt>
      <trkpt lat="45.66802" lon="5.76198">
        <ele>344.99918</ele>
        <time>2014-11-22T10:51:08Z</time>
      </trkpt>
      <trkpt lat="45.66812" lon="5.76199">
        <ele>344.1979</ele>
        <time>2014-11-22T10:51:13Z</time>
      </trkpt>
      <trkpt lat="45.66822" lon="5.76197">
        <ele>343.9634</ele>
        <time>2014-11-22T10:51:18Z</time>
      </trkpt>
      <trkpt lat="45.66829" lon="5.76197">
        <ele>343.9634</ele>
        <time>2014-11-22T10:51:23Z</time>
      </trkpt>
      <trkpt lat="45.6683" lon="5.76198">
        <ele>343.9634</ele>
        <time>2014-11-22T10:51:28Z</time>
      </trkpt>
      <trkpt lat="45.66834" lon="5.76203">
        <ele>343.89188</ele>
        <time>2014-11-22T10:51:33Z</time>
      </trkpt>
      <trkpt lat="45.66838" lon="5.76211">
        <ele>343.89188</ele>
        <time>2014-11-22T10:51:38Z</time>
      </trkpt>
      <trkpt lat="45.66842" lon="5.76219">
        <ele>344.14197</ele>
        <time>2014-11-22T10:51:43Z</time>
      </trkpt>
      <trkpt lat="45.66844" lon="5.76229">
        <ele>344.14197</ele>
        <time>2014-11-22T10:51:48Z</time>
      </trkpt>
      <trkpt lat="45.66849" lon="5.7624">
        <ele>343.63492</ele>
        <time>2014-11-22T10:51:53Z</time>
      </trkpt>
      <trkpt lat="45.66853" lon="5.76246">
        <ele>343.63492</ele>
        <time>2014-11-22T10:51:58Z</time>
      </trkpt>
      <trkpt lat="45.66858" lon="5.76256">
        <ele>342.627</ele>
        <time>2014-11-22T10:52:03Z</time>
      </trkpt>
      <trkpt lat="45.66863" lon="5.76261">
        <ele>342.627</ele>
        <time>2014-11-22T10:52:09Z</time>
      </trkpt>
      <trkpt lat="45.66868" lon="5.7627">
        <ele>341.61658</ele>
        <time>2014-11-22T10:52:13Z</time>
      </trkpt>
      <trkpt lat="45.66872" lon="5.76279">
        <ele>341.61658</ele>
        <time>2014-11-22T10:52:18Z</time>
      </trkpt>
      <trkpt lat="45.66878" lon="5.76284">
        <ele>340.44577</ele>
        <time>2014-11-22T10:52:23Z</time>
      </trkpt>
      <trkpt lat="45.66885" lon="5.76288">
        <ele>340.44577</ele>
        <time>2014-11-22T10:52:28Z</time>
      </trkpt>
      <trkpt lat="45.6689" lon="5.76293">
        <ele>339.1272</ele>
        <time>2014-11-22T10:52:33Z</time>
      </trkpt>
      <trkpt lat="45.66895" lon="5.76301">
        <ele>339.1272</ele>
        <time>2014-11-22T10:52:38Z</time>
      </trkpt>
      <trkpt lat="45.66901" lon="5.76305">
        <ele>337.5578</ele>
        <time>2014-11-22T10:52:44Z</time>
      </trkpt>
      <trkpt lat="45.66907" lon="5.76309">
        <ele>337.5578</ele>
        <time>2014-11-22T10:52:48Z</time>
      </trkpt>
      <trkpt lat="45.66912" lon="5.76307">
        <ele>336.62268</ele>
        <time>2014-11-22T10:52:53Z</time>
      </trkpt>
      <trkpt lat="45.66917" lon="5.76304">
        <ele>336.62268</ele>
        <time>2014-11-22T10:52:58Z</time>
      </trkpt>
      <trkpt lat="45.66923" lon="5.76297">
        <ele>335.79993</ele>
        <time>2014-11-22T10:53:03Z</time>
      </trkpt>
      <trkpt lat="45.66927" lon="5.76293">
        <ele>335.79993</ele>
        <time>2014-11-22T10:53:08Z</time>
      </trkpt>
      <trkpt lat="45.66935" lon="5.76288">
        <ele>335.02365</ele>
        <time>2014-11-22T10:53:13Z</time>
      </trkpt>
      <trkpt lat="45.66944" lon="5.76289">
        <ele>334.23257</ele>
        <time>2014-11-22T10:53:18Z</time>
      </trkpt>
      <trkpt lat="45.66944" lon="5.76299">
        <ele>334.23257</ele>
        <time>2014-11-22T10:53:24Z</time>
      </trkpt>
      <trkpt lat="45.66939" lon="5.76309">
        <ele>332.4189</ele>
        <time>2014-11-22T10:53:29Z</time>
      </trkpt>
      <trkpt lat="45.6694" lon="5.76314">
        <ele>332.4189</ele>
        <time>2014-11-22T10:53:33Z</time>
      </trkpt>
      <trkpt lat="45.66939" lon="5.76323">
        <ele>330.87106</ele>
        <time>2014-11-22T10:53:38Z</time>
      </trkpt>
      <trkpt lat="45.66938" lon="5.76329">
        <ele>330.87106</ele>
        <time>2014-11-22T10:53:43Z</time>
      </trkpt>
      <trkpt lat="45.66934" lon="5.76336">
        <ele>329.24002</ele>
        <time>2014-11-22T10:53:48Z</time>
      </trkpt>
      <trkpt lat="45.66929" lon="5.76342">
        <ele>329.24002</ele>
        <time>2014-11-22T10:53:53Z</time>
      </trkpt>
      <trkpt lat="45.66927" lon="5.76346">
        <ele>327.145</ele>
        <time>2014-11-22T10:53:58Z</time>
      </trkpt>
      <trkpt lat="45.66922" lon="5.76352">
        <ele>327.145</ele>
        <time>2014-11-22T10:54:03Z</time>
      </trkpt>
      <trkpt lat="45.66914" lon="5.76352">
        <ele>324.883</ele>
        <time>2014-11-22T10:54:08Z</time>
      </trkpt>
      <trkpt lat="45.66908" lon="5.76345">
        <ele>324.883</ele>
        <time>2014-11-22T10:54:13Z</time>
      </trkpt>
      <trkpt lat="45.66902" lon="5.76341">
        <ele>322.4414</ele>
        <time>2014-11-22T10:54:18Z</time>
      </trkpt>
      <trkpt lat="45.66895" lon="5.76336">
        <ele>322.4414</ele>
        <time>2014-11-22T10:54:23Z</time>
      </trkpt>
      <trkpt lat="45.66889" lon="5.76331">
        <ele>320.12604</ele>
        <time>2014-11-22T10:54:28Z</time>
      </trkpt>
      <trkpt lat="45.6688" lon="5.76331">
        <ele>320.12604</ele>
        <time>2014-11-22T10:54:33Z</time>
      </trkpt>
      <trkpt lat="45.66872" lon="5.76331">
        <ele>318.2631</ele>
        <time>2014-11-22T10:54:38Z</time>
      </trkpt>
      <trkpt lat="45.66864" lon="5.76332">
        <ele>318.2631</ele>
        <time>2014-11-22T10:54:43Z</time>
      </trkpt>
      <trkpt lat="45.66858" lon="5.7633">
        <ele>316.49054</ele>
        <time>2014-11-22T10:54:48Z</time>
      </trkpt>
      <trkpt lat="45.6685" lon="5.76331">
        <ele>316.49054</ele>
        <time>2014-11-22T10:54:53Z</time>
      </trkpt>
      <trkpt lat="45.66847" lon="5.76333">
        <ele>314.3574</ele>
        <time>2014-11-22T10:54:58Z</time>
      </trkpt>
      <trkpt lat="45.66846" lon="5.76339">
        <ele>314.3574</ele>
        <time>2014-11-22T10:55:03Z</time>
      </trkpt>
      <trkpt lat="45.66847" lon="5.76342">
        <ele>314.3574</ele>
        <time>2014-11-22T10:55:08Z</time>
      </trkpt>
      <trkpt lat="45.66851" lon="5.76348">
        <ele>312.36902</ele>
        <time>2014-11-22T10:55:13Z</time>
      </trkpt>
      <trkpt lat="45.66852" lon="5.7635">
        <ele>312.36902</ele>
        <time>2014-11-22T10:55:18Z</time>
      </trkpt>
      <trkpt lat="45.66854" lon="5.76351">
        <ele>312.36902</ele>
        <time>2014-11-22T10:55:23Z</time>
      </trkpt>
      <trkpt lat="45.66854" lon="5.7635">
        <ele>312.36902</ele>
        <time>2014-11-22T10:55:28Z</time>
      </trkpt>
      <trkpt lat="45.66855" lon="5.7635">
        <ele>312.36902</ele>
        <time>2014-11-22T10:55:33Z</time>
      </trkpt>
      <trkpt lat="45.66856" lon="5.7635">
        <ele>312.36902</ele>
        <time>2014-11-22T10:55:38Z</time>
      </trkpt>
      <trkpt lat="45.66855" lon="5.76351">
        <ele>312.36902</ele>
        <time>2014-11-22T10:55:43Z</time>
      </trkpt>
      <trkpt lat="45.66857" lon="5.76355">
        <ele>310.18622</ele>
        <time>2014-11-22T10:55:48Z</time>
      </trkpt>
      <trkpt lat="45.66861" lon="5.76364">
        <ele>310.18622</ele>
        <time>2014-11-22T10:55:53Z</time>
      </trkpt>
      <trkpt lat="45.66863" lon="5.76373">
        <ele>308.24448</ele>
        <time>2014-11-22T10:55:58Z</time>
      </trkpt>
      <trkpt lat="45.66866" lon="5.76381">
        <ele>308.24448</ele>
        <time>2014-11-22T10:56:03Z</time>
      </trkpt>
      <trkpt lat="45.66871" lon="5.76391">
        <ele>306.24045</ele>
        <time>2014-11-22T10:56:08Z</time>
      </trkpt>
      <trkpt lat="45.66873" lon="5.764">
        <ele>306.24045</ele>
        <time>2014-11-22T10:56:13Z</time>
      </trkpt>
      <trkpt lat="45.66873" lon="5.76408">
        <ele>304.4984</ele>
        <time>2014-11-22T10:56:18Z</time>
      </trkpt>
      <trkpt lat="45.66871" lon="5.76418">
        <ele>304.4984</ele>
        <time>2014-11-22T10:56:23Z</time>
      </trkpt>
      <trkpt lat="45.66871" lon="5.76422">
        <ele>302.91458</ele>
        <time>2014-11-22T10:56:28Z</time>
      </trkpt>
      <trkpt lat="45.66873" lon="5.76423">
        <ele>302.91458</ele>
        <time>2014-11-22T10:56:33Z</time>
      </trkpt>
      <trkpt lat="45.66874" lon="5.76422">
        <ele>302.91458</ele>
        <time>2014-11-22T10:56:38Z</time>
      </trkpt>
      <trkpt lat="45.66874" lon="5.76426">
        <ele>302.91458</ele>
        <time>2014-11-22T10:56:43Z</time>
      </trkpt>
      <trkpt lat="45.66879" lon="5.76433">
        <ele>301.43536</ele>
        <time>2014-11-22T10:56:48Z</time>
      </trkpt>
      <trkpt lat="45.66885" lon="5.76436">
        <ele>301.43536</ele>
        <time>2014-11-22T10:56:53Z</time>
      </trkpt>
      <trkpt lat="45.66893" lon="5.76439">
        <ele>299.96765</ele>
        <time>2014-11-22T10:56:59Z</time>
      </trkpt>
      <trkpt lat="45.669" lon="5.7644">
        <ele>299.96765</ele>
        <time>2014-11-22T10:57:03Z</time>
      </trkpt>
      <trkpt lat="45.66906" lon="5.76441">
        <ele>298.65552</ele>
        <time>2014-11-22T10:57:08Z</time>
      </trkpt>
      <trkpt lat="45.66913" lon="5.76443">
        <ele>298.65552</ele>
        <time>2014-11-22T10:57:13Z</time>
      </trkpt>
      <trkpt lat="45.66921" lon="5.76442">
        <ele>297.25732</ele>
        <time>2014-11-22T10:57:18Z</time>
      </trkpt>
      <trkpt lat="45.6693" lon="5.76442">
        <ele>297.25732</ele>
        <time>2014-11-22T10:57:23Z</time>
      </trkpt>
      <trkpt lat="45.66936" lon="5.76439">
        <ele>295.79434</ele>
        <time>2014-11-22T10:57:29Z</time>
      </trkpt>
      <trkpt lat="45.66946" lon="5.76437">
        <ele>294.21436</ele>
        <time>2014-11-22T10:57:33Z</time>
      </trkpt>
      <trkpt lat="45.66955" lon="5.76434">
        <ele>292.82947</ele>
        <time>2014-11-22T10:57:38Z</time>
      </trkpt>
      <trkpt lat="45.66958" lon="5.76431">
        <ele>292.82947</ele>
        <time>2014-11-22T10:57:43Z</time>
      </trkpt>
      <trkpt lat="45.66968" lon="5.76428">
        <ele>291.7698</ele>
        <time>2014-11-22T10:57:48Z</time>
      </trkpt>
      <trkpt lat="45.66974" lon="5.7642">
        <ele>291.7698</ele>
        <time>2014-11-22T10:57:53Z</time>
      </trkpt>
      <trkpt lat="45.66981" lon="5.76416">
        <ele>291.60168</ele>
        <time>2014-11-22T10:57:58Z</time>
      </trkpt>
      <trkpt lat="45.66986" lon="5.76409">
        <ele>291.60168</ele>
        <time>2014-11-22T10:58:03Z</time>
      </trkpt>
      <trkpt lat="45.66991" lon="5.76402">
        <ele>293.27957</ele>
        <time>2014-11-22T10:58:09Z</time>
      </trkpt>
      <trkpt lat="45.66999" lon="5.76401">
        <ele>293.27957</ele>
        <time>2014-11-22T10:58:13Z</time>
      </trkpt>
      <trkpt lat="45.67007" lon="5.764">
        <ele>295.59308</ele>
        <time>2014-11-22T10:58:18Z</time>
      </trkpt>
      <trkpt lat="45.67015" lon="5.76397">
        <ele>295.59308</ele>
        <time>2014-11-22T10:58:23Z</time>
      </trkpt>
      <trkpt lat="45.6702" lon="5.76396">
        <ele>296.9145</ele>
        <time>2014-11-22T10:58:28Z</time>
      </trkpt>
      <trkpt lat="45.67027" lon="5.76398">
        <ele>296.9145</ele>
        <time>2014-11-22T10:58:34Z</time>
      </trkpt>
      <trkpt lat="45.67035" lon="5.76401">
        <ele>296.45905</ele>
        <time>2014-11-22T10:58:39Z</time>
      </trkpt>
      <trkpt lat="45.67041" lon="5.76406">
        <ele>296.45905</ele>
        <time>2014-11-22T10:58:43Z</time>
      </trkpt>
      <trkpt lat="45.67048" lon="5.76413">
        <ele>295.7384</ele>
        <time>2014-11-22T10:58:48Z</time>
      </trkpt>
      <trkpt lat="45.67055" lon="5.76418">
        <ele>295.7384</ele>
        <time>2014-11-22T10:58:53Z</time>
      </trkpt>
      <trkpt lat="45.67062" lon="5.76426">
        <ele>295.1451</ele>
        <time>2014-11-22T10:58:58Z</time>
      </trkpt>
      <trkpt lat="45.67068" lon="5.76433">
        <ele>295.1451</ele>
        <time>2014-11-22T10:59:03Z</time>
      </trkpt>
      <trkpt lat="45.67072" lon="5.76441">
        <ele>294.52383</ele>
        <time>2014-11-22T10:59:08Z</time>
      </trkpt>
      <trkpt lat="45.67077" lon="5.76447">
        <ele>294.52383</ele>
        <time>2014-11-22T10:59:13Z</time>
      </trkpt>
      <trkpt lat="45.67086" lon="5.76449">
        <ele>293.9613</ele>
        <time>2014-11-22T10:59:18Z</time>
      </trkpt>
      <trkpt lat="45.67093" lon="5.76454">
        <ele>293.9613</ele>
        <time>2014-11-22T10:59:23Z</time>
      </trkpt>
      <trkpt lat="45.67102" lon="5.76458">
        <ele>293.98462</ele>
        <time>2014-11-22T10:59:29Z</time>
      </trkpt>
      <trkpt lat="45.67107" lon="5.76463">
        <ele>293.98462</ele>
        <time>2014-11-22T10:59:33Z</time>
      </trkpt>
      <trkpt lat="45.67114" lon="5.76466">
        <ele>293.95636</ele>
        <time>2014-11-22T10:59:39Z</time>
      </trkpt>
      <trkpt lat="45.67122" lon="5.76472">
        <ele>293.95636</ele>
        <time>2014-11-22T10:59:43Z</time>
      </trkpt>
      <trkpt lat="45.67127" lon="5.76478">
        <ele>294.35266</ele>
        <time>2014-11-22T10:59:48Z</time>
      </trkpt>
      <trkpt lat="45.67135" lon="5.76483">
        <ele>294.35266</ele>
        <time>2014-11-22T10:59:53Z</time>
      </trkpt>
      <trkpt lat="45.6714" lon="5.76487">
        <ele>294.90738</ele>
        <time>2014-11-22T10:59:58Z</time>
      </trkpt>
      <trkpt lat="45.67146" lon="5.7649">
        <ele>294.90738</ele>
        <time>2014-11-22T11:00:03Z</time>
      </trkpt>
      <trkpt lat="45.67154" lon="5.76495">
        <ele>295.3736</ele>
        <time>2014-11-22T11:00:08Z</time>
      </trkpt>
      <trkpt lat="45.67165" lon="5.76498">
        <ele>296.21448</ele>
        <time>2014-11-22T11:00:13Z</time>
      </trkpt>
      <trkpt lat="45.67171" lon="5.76498">
        <ele>296.21448</ele>
        <time>2014-11-22T11:00:18Z</time>
      </trkpt>
      <trkpt lat="45.67177" lon="5.76503">
        <ele>296.11462</ele>
        <time>2014-11-22T11:00:23Z</time>
      </trkpt>
      <trkpt lat="45.67185" lon="5.76504">
        <ele>296.11462</ele>
        <time>2014-11-22T11:00:28Z</time>
      </trkpt>
      <trkpt lat="45.6719" lon="5.7651">
        <ele>295.42868</ele>
        <time>2014-11-22T11:00:33Z</time>
      </trkpt>
      <trkpt lat="45.67197" lon="5.76514">
        <ele>295.42868</ele>
        <time>2014-11-22T11:00:38Z</time>
      </trkpt>
      <trkpt lat="45.67206" lon="5.76514">
        <ele>294.8761</ele>
        <time>2014-11-22T11:00:43Z</time>
      </trkpt>
      <trkpt lat="45.67213" lon="5.76516">
        <ele>294.8761</ele>
        <time>2014-11-22T11:00:49Z</time>
      </trkpt>
      <trkpt lat="45.67218" lon="5.76519">
        <ele>294.54684</ele>
        <time>2014-11-22T11:00:53Z</time>
      </trkpt>
      <trkpt lat="45.67226" lon="5.76522">
        <ele>294.54684</ele>
        <time>2014-11-22T11:00:58Z</time>
      </trkpt>
      <trkpt lat="45.67233" lon="5.76524">
        <ele>294.6245</ele>
        <time>2014-11-22T11:01:03Z</time>
      </trkpt>
      <trkpt lat="45.6724" lon="5.76528">
        <ele>294.6245</ele>
        <time>2014-11-22T11:01:08Z</time>
      </trkpt>
      <trkpt lat="45.67249" lon="5.76533">
        <ele>294.2694</ele>
        <time>2014-11-22T11:01:13Z</time>
      </trkpt>
      <trkpt lat="45.67257" lon="5.76536">
        <ele>294.2694</ele>
        <time>2014-11-22T11:01:18Z</time>
      </trkpt>
      <trkpt lat="45.67264" lon="5.7654">
        <ele>293.8578</ele>
        <time>2014-11-22T11:01:23Z</time>
      </trkpt>
      <trkpt lat="45.67271" lon="5.76545">
        <ele>293.8578</ele>
        <time>2014-11-22T11:01:28Z</time>
      </trkpt>
      <trkpt lat="45.67281" lon="5.76548">
        <ele>293.13315</ele>
        <time>2014-11-22T11:01:33Z</time>
      </trkpt>
      <trkpt lat="45.67289" lon="5.7655">
        <ele>293.13315</ele>
        <time>2014-11-22T11:01:38Z</time>
      </trkpt>
      <trkpt lat="45.67295" lon="5.76553">
        <ele>292.3344</ele>
        <time>2014-11-22T11:01:43Z</time>
      </trkpt>
      <trkpt lat="45.67298" lon="5.76557">
        <ele>292.3344</ele>
        <time>2014-11-22T11:01:48Z</time>
      </trkpt>
      <trkpt lat="45.67305" lon="5.76559">
        <ele>292.28848</ele>
        <time>2014-11-22T11:01:53Z</time>
      </trkpt>
      <trkpt lat="45.67314" lon="5.76558">
        <ele>292.28848</ele>
        <time>2014-11-22T11:01:58Z</time>
      </trkpt>
      <trkpt lat="45.6732" lon="5.7656">
        <ele>292.27515</ele>
        <time>2014-11-22T11:02:03Z</time>
      </trkpt>
      <trkpt lat="45.67326" lon="5.76564">
        <ele>292.27515</ele>
        <time>2014-11-22T11:02:09Z</time>
      </trkpt>
      <trkpt lat="45.67334" lon="5.7657">
        <ele>291.9009</ele>
        <time>2014-11-22T11:02:13Z</time>
      </trkpt>
      <trkpt lat="45.67343" lon="5.76577">
        <ele>291.19135</ele>
        <time>2014-11-22T11:02:18Z</time>
      </trkpt>
      <trkpt lat="45.67348" lon="5.7658">
        <ele>291.19135</ele>
        <time>2014-11-22T11:02:23Z</time>
      </trkpt>
      <trkpt lat="45.67355" lon="5.76584">
        <ele>290.40173</ele>
        <time>2014-11-22T11:02:28Z</time>
      </trkpt>
      <trkpt lat="45.67361" lon="5.76589">
        <ele>290.40173</ele>
        <time>2014-11-22T11:02:34Z</time>
      </trkpt>
      <trkpt lat="45.67368" lon="5.76591">
        <ele>289.68243</ele>
        <time>2014-11-22T11:02:38Z</time>
      </trkpt>
      <trkpt lat="45.67374" lon="5.76596">
        <ele>289.68243</ele>
        <time>2014-11-22T11:02:43Z</time>
      </trkpt>
      <trkpt lat="45.67381" lon="5.76598">
        <ele>289.17264</ele>
        <time>2014-11-22T11:02:48Z</time>
      </trkpt>
      <trkpt lat="45.67388" lon="5.76601">
        <ele>289.17264</ele>
        <time>2014-11-22T11:02:53Z</time>
      </trkpt>
      <trkpt lat="45.67394" lon="5.76603">
        <ele>289.26016</ele>
        <time>2014-11-22T11:02:58Z</time>
      </trkpt>
      <trkpt lat="45.67401" lon="5.76606">
        <ele>289.26016</ele>
        <time>2014-11-22T11:03:04Z</time>
      </trkpt>
      <trkpt lat="45.67407" lon="5.76608">
        <ele>289.19308</ele>
        <time>2014-11-22T11:03:08Z</time>
      </trkpt>
      <trkpt lat="45.67414" lon="5.7661">
        <ele>289.19308</ele>
        <time>2014-11-22T11:03:13Z</time>
      </trkpt>
      <trkpt lat="45.67421" lon="5.76613">
        <ele>289.3992</ele>
        <time>2014-11-22T11:03:18Z</time>
      </trkpt>
      <trkpt lat="45.67427" lon="5.76616">
        <ele>289.3992</ele>
        <time>2014-11-22T11:03:23Z</time>
      </trkpt>
      <trkpt lat="45.67434" lon="5.76619">
        <ele>289.53928</ele>
        <time>2014-11-22T11:03:28Z</time>
      </trkpt>
      <trkpt lat="45.67442" lon="5.7662">
        <ele>289.53928</ele>
        <time>2014-11-22T11:03:33Z</time>
      </trkpt>
      <trkpt lat="45.67451" lon="5.76622">
        <ele>289.31363</ele>
        <time>2014-11-22T11:03:39Z</time>
      </trkpt>
      <trkpt lat="45.67458" lon="5.76627">
        <ele>289.31363</ele>
        <time>2014-11-22T11:03:43Z</time>
      </trkpt>
      <trkpt lat="45.67466" lon="5.7663">
        <ele>288.25833</ele>
        <time>2014-11-22T11:03:48Z</time>
      </trkpt>
      <trkpt lat="45.67473" lon="5.76631">
        <ele>288.25833</ele>
        <time>2014-11-22T11:03:53Z</time>
      </trkpt>
      <trkpt lat="45.67477" lon="5.76632">
        <ele>288.0355</ele>
        <time>2014-11-22T11:03:58Z</time>
      </trkpt>
      <trkpt lat="45.67482" lon="5.76628">
        <ele>288.0355</ele>
        <time>2014-11-22T11:04:03Z</time>
      </trkpt>
      <trkpt lat="45.67489" lon="5.76629">
        <ele>288.4247</ele>
        <time>2014-11-22T11:04:08Z</time>
      </trkpt>
      <trkpt lat="45.67493" lon="5.76628">
        <ele>288.4247</ele>
        <time>2014-11-22T11:04:13Z</time>
      </trkpt>
      <trkpt lat="45.67502" lon="5.7663">
        <ele>288.49954</ele>
        <time>2014-11-22T11:04:18Z</time>
      </trkpt>
      <trkpt lat="45.67513" lon="5.7663">
        <ele>287.95016</ele>
        <time>2014-11-22T11:04:23Z</time>
      </trkpt>
      <trkpt lat="45.67519" lon="5.76627">
        <ele>287.95016</ele>
        <time>2014-11-22T11:04:28Z</time>
      </trkpt>
      <trkpt lat="45.67524" lon="5.76626">
        <ele>288.17743</ele>
        <time>2014-11-22T11:04:34Z</time>
      </trkpt>
      <trkpt lat="45.67532" lon="5.76627">
        <ele>288.17743</ele>
        <time>2014-11-22T11:04:38Z</time>
      </trkpt>
      <trkpt lat="45.6754" lon="5.76625">
        <ele>288.08484</ele>
        <time>2014-11-22T11:04:43Z</time>
      </trkpt>
      <trkpt lat="45.67546" lon="5.76622">
        <ele>288.08484</ele>
        <time>2014-11-22T11:04:49Z</time>
      </trkpt>
      <trkpt lat="45.67551" lon="5.76617">
        <ele>288.06976</ele>
        <time>2014-11-22T11:04:54Z</time>
      </trkpt>
      <trkpt lat="45.67558" lon="5.76616">
        <ele>288.06976</ele>
        <time>2014-11-22T11:04:58Z</time>
      </trkpt>
      <trkpt lat="45.67566" lon="5.76612">
        <ele>288.05338</ele>
        <time>2014-11-22T11:05:03Z</time>
      </trkpt>
      <trkpt lat="45.67572" lon="5.76607">
        <ele>288.05338</ele>
        <time>2014-11-22T11:05:08Z</time>
      </trkpt>
      <trkpt lat="45.67579" lon="5.76601">
        <ele>287.6457</ele>
        <time>2014-11-22T11:05:13Z</time>
      </trkpt>
      <trkpt lat="45.67584" lon="5.76595">
        <ele>287.6457</ele>
        <time>2014-11-22T11:05:18Z</time>
      </trkpt>
      <trkpt lat="45.67591" lon="5.7659">
        <ele>286.90448</ele>
        <time>2014-11-22T11:05:23Z</time>
      </trkpt>
      <trkpt lat="45.67599" lon="5.76597">
        <ele>286.0283</ele>
        <time>2014-11-22T11:05:28Z</time>
      </trkpt>
      <trkpt lat="45.67598" lon="5.76608">
        <ele>286.0283</ele>
        <time>2014-11-22T11:05:33Z</time>
      </trkpt>
      <trkpt lat="45.67596" lon="5.76606">
        <ele>285.9941</ele>
        <time>2014-11-22T11:05:38Z</time>
      </trkpt>
      <trkpt lat="45.67595" lon="5.76607">
        <ele>285.9941</ele>
        <time>2014-11-22T11:05:43Z</time>
      </trkpt>
      <trkpt lat="45.67596" lon="5.76606">
        <ele>285.9941</ele>
        <time>2014-11-22T11:05:49Z</time>
      </trkpt>
      <trkpt lat="45.67598" lon="5.76604">
        <ele>285.9941</ele>
        <time>2014-11-22T11:05:53Z</time>
      </trkpt>
      <trkpt lat="45.67597" lon="5.76605">
        <ele>285.9941</ele>
        <time>2014-11-22T11:05:58Z</time>
      </trkpt>
      <trkpt lat="45.67595" lon="5.76607">
        <ele>285.9941</ele>
        <time>2014-11-22T11:06:04Z</time>
      </trkpt>
      <trkpt lat="45.67596" lon="5.76607">
        <ele>285.9941</ele>
        <time>2014-11-22T11:06:08Z</time>
      </trkpt>
      <trkpt lat="45.67596" lon="5.76606">
        <ele>285.9941</ele>
        <time>2014-11-22T11:06:13Z</time>
      </trkpt>
      <trkpt lat="45.67594" lon="5.76604">
        <ele>286.36462</ele>
        <time>2014-11-22T11:06:18Z</time>
      </trkpt>
      <trkpt lat="45.67592" lon="5.76603">
        <ele>286.36462</ele>
        <time>2014-11-22T11:06:23Z</time>
      </trkpt>
      <trkpt lat="45.67594" lon="5.76604">
        <ele>286.36462</ele>
        <time>2014-11-22T11:06:28Z</time>
      </trkpt>
      <trkpt lat="45.67597" lon="5.76608">
        <ele>286.36462</ele>
        <time>2014-11-22T11:06:33Z</time>
      </trkpt>
      <trkpt lat="45.67593" lon="5.76618">
        <ele>286.04178</ele>
        <time>2014-11-22T11:06:39Z</time>
      </trkpt>
      <trkpt lat="45.67587" lon="5.76627">
        <ele>285.88364</ele>
        <time>2014-11-22T11:06:43Z</time>
      </trkpt>
      <trkpt lat="45.67586" lon="5.76633">
        <ele>285.88364</ele>
        <time>2014-11-22T11:06:48Z</time>
      </trkpt>
      <trkpt lat="45.67582" lon="5.76637">
        <ele>285.6039</ele>
        <time>2014-11-22T11:06:53Z</time>
      </trkpt>
      <trkpt lat="45.67576" lon="5.76645">
        <ele>285.6039</ele>
        <time>2014-11-22T11:06:58Z</time>
      </trkpt>
      <trkpt lat="45.67569" lon="5.76653">
        <ele>286.73917</ele>
        <time>2014-11-22T11:07:03Z</time>
      </trkpt>
      <trkpt lat="45.67565" lon="5.76657">
        <ele>286.73917</ele>
        <time>2014-11-22T11:07:08Z</time>
      </trkpt>
      <trkpt lat="45.67557" lon="5.76662">
        <ele>287.69717</ele>
        <time>2014-11-22T11:07:13Z</time>
      </trkpt>
      <trkpt lat="45.67553" lon="5.76667">
        <ele>287.69717</ele>
        <time>2014-11-22T11:07:18Z</time>
      </trkpt>
      <trkpt lat="45.67547" lon="5.76672">
        <ele>288.71817</ele>
        <time>2014-11-22T11:07:23Z</time>
      </trkpt>
      <trkpt lat="45.67541" lon="5.76674">
        <ele>288.71817</ele>
        <time>2014-11-22T11:07:28Z</time>
      </trkpt>
      <trkpt lat="45.67535" lon="5.76678">
        <ele>289.82278</ele>
        <time>2014-11-22T11:07:33Z</time>
      </trkpt>
      <trkpt lat="45.67529" lon="5.76683">
        <ele>289.82278</ele>
        <time>2014-11-22T11:07:39Z</time>
      </trkpt>
      <trkpt lat="45.67521" lon="5.76685">
        <ele>291.765</ele>
        <time>2014-11-22T11:07:43Z</time>
      </trkpt>
      <trkpt lat="45.67514" lon="5.76691">
        <ele>291.765</ele>
        <time>2014-11-22T11:07:48Z</time>
      </trkpt>
      <trkpt lat="45.67507" lon="5.76694">
        <ele>294.362</ele>
        <time>2014-11-22T11:07:53Z</time>
      </trkpt>
      <trkpt lat="45.67501" lon="5.76693">
        <ele>294.362</ele>
        <time>2014-11-22T11:07:59Z</time>
      </trkpt>
      <trkpt lat="45.67494" lon="5.76694">
        <ele>297.0968</ele>
        <time>2014-11-22T11:08:03Z</time>
      </trkpt>
      <trkpt lat="45.67487" lon="5.76696">
        <ele>297.0968</ele>
        <time>2014-11-22T11:08:09Z</time>
      </trkpt>
      <trkpt lat="45.67482" lon="5.76698">
        <ele>299.4612</ele>
        <time>2014-11-22T11:08:13Z</time>
      </trkpt>
      <trkpt lat="45.67474" lon="5.76702">
        <ele>299.4612</ele>
        <time>2014-11-22T11:08:18Z</time>
      </trkpt>
      <trkpt lat="45.67468" lon="5.76702">
        <ele>301.23056</ele>
        <time>2014-11-22T11:08:23Z</time>
      </trkpt>
      <trkpt lat="45.67462" lon="5.76701">
        <ele>301.23056</ele>
        <time>2014-11-22T11:08:28Z</time>
      </trkpt>
      <trkpt lat="45.67456" lon="5.767">
        <ele>302.9478</ele>
        <time>2014-11-22T11:08:33Z</time>
      </trkpt>
      <trkpt lat="45.6745" lon="5.76698">
        <ele>302.9478</ele>
        <time>2014-11-22T11:08:38Z</time>
      </trkpt>
      <trkpt lat="45.67442" lon="5.76696">
        <ele>304.7849</ele>
        <time>2014-11-22T11:08:43Z</time>
      </trkpt>
      <trkpt lat="45.67434" lon="5.76692">
        <ele>304.7849</ele>
        <time>2014-11-22T11:08:48Z</time>
      </trkpt>
      <trkpt lat="45.67428" lon="5.76694">
        <ele>306.94415</ele>
        <time>2014-11-22T11:08:53Z</time>
      </trkpt>
      <trkpt lat="45.67428" lon="5.76701">
        <ele>306.94415</ele>
        <time>2014-11-22T11:08:58Z</time>
      </trkpt>
      <trkpt lat="45.67432" lon="5.76707">
        <ele>309.6843</ele>
        <time>2014-11-22T11:09:03Z</time>
      </trkpt>
      <trkpt lat="45.6744" lon="5.76711">
        <ele>312.11945</ele>
        <time>2014-11-22T11:09:08Z</time>
      </trkpt>
      <trkpt lat="45.67444" lon="5.76714">
        <ele>312.11945</ele>
        <time>2014-11-22T11:09:13Z</time>
      </trkpt>
      <trkpt lat="45.67449" lon="5.76718">
        <ele>314.4099</ele>
        <time>2014-11-22T11:09:18Z</time>
      </trkpt>
      <trkpt lat="45.67457" lon="5.76722">
        <ele>314.4099</ele>
        <time>2014-11-22T11:09:23Z</time>
      </trkpt>
      <trkpt lat="45.67458" lon="5.76724">
        <ele>317.36755</ele>
        <time>2014-11-22T11:09:28Z</time>
      </trkpt>
      <trkpt lat="45.67461" lon="5.76725">
        <ele>317.36755</ele>
        <time>2014-11-22T11:09:33Z</time>
      </trkpt>
      <trkpt lat="45.67471" lon="5.76735">
        <ele>320.05685</ele>
        <time>2014-11-22T11:09:38Z</time>
      </trkpt>
      <trkpt lat="45.67475" lon="5.76742">
        <ele>320.05685</ele>
        <time>2014-11-22T11:09:43Z</time>
      </trkpt>
      <trkpt lat="45.6748" lon="5.76751">
        <ele>322.4046</ele>
        <time>2014-11-22T11:09:48Z</time>
      </trkpt>
      <trkpt lat="45.67485" lon="5.7676">
        <ele>322.4046</ele>
        <time>2014-11-22T11:09:53Z</time>
      </trkpt>
      <trkpt lat="45.67488" lon="5.76769">
        <ele>324.90604</ele>
        <time>2014-11-22T11:09:58Z</time>
      </trkpt>
      <trkpt lat="45.67491" lon="5.76778">
        <ele>324.90604</ele>
        <time>2014-11-22T11:10:03Z</time>
      </trkpt>
      <trkpt lat="45.67494" lon="5.76788">
        <ele>327.42902</ele>
        <time>2014-11-22T11:10:08Z</time>
      </trkpt>
      <trkpt lat="45.67495" lon="5.76798">
        <ele>327.42902</ele>
        <time>2014-11-22T11:10:13Z</time>
      </trkpt>
      <trkpt lat="45.67497" lon="5.76808">
        <ele>329.99524</ele>
        <time>2014-11-22T11:10:18Z</time>
      </trkpt>
      <trkpt lat="45.675" lon="5.76817">
        <ele>329.99524</ele>
        <time>2014-11-22T11:10:23Z</time>
      </trkpt>
      <trkpt lat="45.67503" lon="5.76825">
        <ele>332.38</ele>
        <time>2014-11-22T11:10:28Z</time>
      </trkpt>
      <trkpt lat="45.67507" lon="5.76832">
        <ele>332.38</ele>
        <time>2014-11-22T11:10:33Z</time>
      </trkpt>
      <trkpt lat="45.67513" lon="5.76834">
        <ele>334.40457</ele>
        <time>2014-11-22T11:10:38Z</time>
      </trkpt>
      <trkpt lat="45.67522" lon="5.76838">
        <ele>336.14948</ele>
        <time>2014-11-22T11:10:43Z</time>
      </trkpt>
      <trkpt lat="45.67527" lon="5.7684">
        <ele>336.14948</ele>
        <time>2014-11-22T11:10:48Z</time>
      </trkpt>
      <trkpt lat="45.67535" lon="5.76844">
        <ele>337.89218</ele>
        <time>2014-11-22T11:10:53Z</time>
      </trkpt>
      <trkpt lat="45.67542" lon="5.76846">
        <ele>337.89218</ele>
        <time>2014-11-22T11:10:58Z</time>
      </trkpt>
      <trkpt lat="45.6755" lon="5.76849">
        <ele>339.58725</ele>
        <time>2014-11-22T11:11:03Z</time>
      </trkpt>
      <trkpt lat="45.67557" lon="5.76853">
        <ele>339.58725</ele>
        <time>2014-11-22T11:11:08Z</time>
      </trkpt>
      <trkpt lat="45.67564" lon="5.76855">
        <ele>341.1352</ele>
        <time>2014-11-22T11:11:13Z</time>
      </trkpt>
      <trkpt lat="45.67571" lon="5.76857">
        <ele>341.1352</ele>
        <time>2014-11-22T11:11:18Z</time>
      </trkpt>
      <trkpt lat="45.67577" lon="5.76856">
        <ele>342.57425</ele>
        <time>2014-11-22T11:11:23Z</time>
      </trkpt>
      <trkpt lat="45.67584" lon="5.76858">
        <ele>342.57425</ele>
        <time>2014-11-22T11:11:28Z</time>
      </trkpt>
      <trkpt lat="45.67585" lon="5.76859">
        <ele>342.57425</ele>
        <time>2014-11-22T11:11:33Z</time>
      </trkpt>
      <trkpt lat="45.67585" lon="5.76859">
        <ele>342.57425</ele>
        <time>2014-11-22T11:11:38Z</time>
      </trkpt>
      <trkpt lat="45.6759" lon="5.76856">
        <ele>343.6808</ele>
        <time>2014-11-22T11:11:43Z</time>
      </trkpt>
      <trkpt lat="45.67594" lon="5.76854">
        <ele>343.6808</ele>
        <time>2014-11-22T11:11:48Z</time>
      </trkpt>
      <trkpt lat="45.67602" lon="5.76851">
        <ele>344.34958</ele>
        <time>2014-11-22T11:11:53Z</time>
      </trkpt>
      <trkpt lat="45.6761" lon="5.76849">
        <ele>344.34958</ele>
        <time>2014-11-22T11:11:58Z</time>
      </trkpt>
      <trkpt lat="45.67618" lon="5.76845">
        <ele>345.21954</ele>
        <time>2014-11-22T11:12:03Z</time>
      </trkpt>
      <trkpt lat="45.67624" lon="5.76841">
        <ele>345.21954</ele>
        <time>2014-11-22T11:12:08Z</time>
      </trkpt>
      <trkpt lat="45.67632" lon="5.76835">
        <ele>346.26248</ele>
        <time>2014-11-22T11:12:13Z</time>
      </trkpt>
      <trkpt lat="45.67639" lon="5.7683">
        <ele>346.26248</ele>
        <time>2014-11-22T11:12:18Z</time>
      </trkpt>
      <trkpt lat="45.67644" lon="5.76825">
        <ele>347.46628</ele>
        <time>2014-11-22T11:12:23Z</time>
      </trkpt>
      <trkpt lat="45.67651" lon="5.76822">
        <ele>347.46628</ele>
        <time>2014-11-22T11:12:28Z</time>
      </trkpt>
      <trkpt lat="45.67658" lon="5.76819">
        <ele>348.22855</ele>
        <time>2014-11-22T11:12:33Z</time>
      </trkpt>
      <trkpt lat="45.67665" lon="5.76817">
        <ele>348.22855</ele>
        <time>2014-11-22T11:12:38Z</time>
      </trkpt>
      <trkpt lat="45.67669" lon="5.76814">
        <ele>348.32394</ele>
        <time>2014-11-22T11:12:43Z</time>
      </trkpt>
      <trkpt lat="45.67675" lon="5.76811">
        <ele>348.32394</ele>
        <time>2014-11-22T11:12:48Z</time>
      </trkpt>
      <trkpt lat="45.67683" lon="5.76805">
        <ele>347.89145</ele>
        <time>2014-11-22T11:12:53Z</time>
      </trkpt>
      <trkpt lat="45.67691" lon="5.76798">
        <ele>347.66666</ele>
        <time>2014-11-22T11:12:58Z</time>
      </trkpt>
      <trkpt lat="45.67697" lon="5.7679">
        <ele>347.66666</ele>
        <time>2014-11-22T11:13:03Z</time>
      </trkpt>
      <trkpt lat="45.67702" lon="5.76781">
        <ele>347.84067</ele>
        <time>2014-11-22T11:13:08Z</time>
      </trkpt>
      <trkpt lat="45.67708" lon="5.76775">
        <ele>347.84067</ele>
        <time>2014-11-22T11:13:13Z</time>
      </trkpt>
      <trkpt lat="45.67712" lon="5.76769">
        <ele>348.0994</ele>
        <time>2014-11-22T11:13:18Z</time>
      </trkpt>
      <trkpt lat="45.67719" lon="5.76762">
        <ele>348.8722</ele>
        <time>2014-11-22T11:13:23Z</time>
      </trkpt>
      <trkpt lat="45.67722" lon="5.76756">
        <ele>348.8722</ele>
        <time>2014-11-22T11:13:28Z</time>
      </trkpt>
      <trkpt lat="45.67729" lon="5.76752">
        <ele>350.02222</ele>
        <time>2014-11-22T11:13:33Z</time>
      </trkpt>
      <trkpt lat="45.67734" lon="5.76758">
        <ele>350.02222</ele>
        <time>2014-11-22T11:13:38Z</time>
      </trkpt>
      <trkpt lat="45.67739" lon="5.76763">
        <ele>351.06137</ele>
        <time>2014-11-22T11:13:43Z</time>
      </trkpt>
      <trkpt lat="45.67744" lon="5.76766">
        <ele>351.06137</ele>
        <time>2014-11-22T11:13:48Z</time>
      </trkpt>
      <trkpt lat="45.67746" lon="5.76769">
        <ele>351.06137</ele>
        <time>2014-11-22T11:13:53Z</time>
      </trkpt>
      <trkpt lat="45.67751" lon="5.76774">
        <ele>351.91235</ele>
        <time>2014-11-22T11:13:58Z</time>
      </trkpt>
      <trkpt lat="45.67757" lon="5.7678">
        <ele>351.91235</ele>
        <time>2014-11-22T11:14:03Z</time>
      </trkpt>
      <trkpt lat="45.67763" lon="5.76785">
        <ele>352.9365</ele>
        <time>2014-11-22T11:14:08Z</time>
      </trkpt>
      <trkpt lat="45.67768" lon="5.76789">
        <ele>352.9365</ele>
        <time>2014-11-22T11:14:13Z</time>
      </trkpt>
      <trkpt lat="45.67772" lon="5.76794">
        <ele>353.93472</ele>
        <time>2014-11-22T11:14:18Z</time>
      </trkpt>
      <trkpt lat="45.67775" lon="5.76797">
        <ele>353.93472</ele>
        <time>2014-11-22T11:14:23Z</time>
      </trkpt>
      <trkpt lat="45.67781" lon="5.76802">
        <ele>354.78043</ele>
        <time>2014-11-22T11:14:28Z</time>
      </trkpt>
      <trkpt lat="45.67788" lon="5.76808">
        <ele>354.78043</ele>
        <time>2014-11-22T11:14:33Z</time>
      </trkpt>
      <trkpt lat="45.67794" lon="5.76812">
        <ele>355.65927</ele>
        <time>2014-11-22T11:14:38Z</time>
      </trkpt>
      <trkpt lat="45.67801" lon="5.76817">
        <ele>355.65927</ele>
        <time>2014-11-22T11:14:43Z</time>
      </trkpt>
      <trkpt lat="45.67805" lon="5.7682">
        <ele>356.57025</ele>
        <time>2014-11-22T11:14:48Z</time>
      </trkpt>
      <trkpt lat="45.67807" lon="5.76822">
        <ele>356.57025</ele>
        <time>2014-11-22T11:14:53Z</time>
      </trkpt>
      <trkpt lat="45.67814" lon="5.76827">
        <ele>357.64206</ele>
        <time>2014-11-22T11:14:58Z</time>
      </trkpt>
      <trkpt lat="45.67821" lon="5.76831">
        <ele>357.64206</ele>
        <time>2014-11-22T11:15:03Z</time>
      </trkpt>
      <trkpt lat="45.67829" lon="5.76835">
        <ele>358.87808</ele>
        <time>2014-11-22T11:15:08Z</time>
      </trkpt>
      <trkpt lat="45.67835" lon="5.76838">
        <ele>358.87808</ele>
        <time>2014-11-22T11:15:13Z</time>
      </trkpt>
      <trkpt lat="45.67845" lon="5.7684">
        <ele>360.3387</ele>
        <time>2014-11-22T11:15:18Z</time>
      </trkpt>
      <trkpt lat="45.67855" lon="5.76844">
        <ele>361.58923</ele>
        <time>2014-11-22T11:15:23Z</time>
      </trkpt>
      <trkpt lat="45.6786" lon="5.76848">
        <ele>361.58923</ele>
        <time>2014-11-22T11:15:28Z</time>
      </trkpt>
      <trkpt lat="45.67865" lon="5.76854">
        <ele>362.25623</ele>
        <time>2014-11-22T11:15:33Z</time>
      </trkpt>
      <trkpt lat="45.67872" lon="5.76861">
        <ele>362.25623</ele>
        <time>2014-11-22T11:15:38Z</time>
      </trkpt>
      <trkpt lat="45.67881" lon="5.76869">
        <ele>362.80237</ele>
        <time>2014-11-22T11:15:43Z</time>
      </trkpt>
      <trkpt lat="45.67893" lon="5.76887">
        <ele>364.5069</ele>
        <time>2014-11-22T11:15:48Z</time>
      </trkpt>
      <trkpt lat="45.67904" lon="5.76899">
        <ele>366.43344</ele>
        <time>2014-11-22T11:15:53Z</time>
      </trkpt>
      <trkpt lat="45.67915" lon="5.76908">
        <ele>367.23807</ele>
        <time>2014-11-22T11:15:58Z</time>
      </trkpt>
      <trkpt lat="45.67922" lon="5.76914">
        <ele>367.23807</ele>
        <time>2014-11-22T11:16:03Z</time>
      </trkpt>
      <trkpt lat="45.67929" lon="5.76922">
        <ele>368.28726</ele>
        <time>2014-11-22T11:16:08Z</time>
      </trkpt>
      <trkpt lat="45.67929" lon="5.76929">
        <ele>368.28726</ele>
        <time>2014-11-22T11:16:13Z</time>
      </trkpt>
      <trkpt lat="45.67929" lon="5.76937">
        <ele>369.27548</ele>
        <time>2014-11-22T11:16:18Z</time>
      </trkpt>
      <trkpt lat="45.67928" lon="5.76948">
        <ele>369.27548</ele>
        <time>2014-11-22T11:16:23Z</time>
      </trkpt>
      <trkpt lat="45.67928" lon="5.76959">
        <ele>370.5107</ele>
        <time>2014-11-22T11:16:28Z</time>
      </trkpt>
      <trkpt lat="45.67927" lon="5.76971">
        <ele>370.5107</ele>
        <time>2014-11-22T11:16:33Z</time>
      </trkpt>
      <trkpt lat="45.67928" lon="5.76982">
        <ele>371.71548</ele>
        <time>2014-11-22T11:16:38Z</time>
      </trkpt>
      <trkpt lat="45.67928" lon="5.76993">
        <ele>371.71548</ele>
        <time>2014-11-22T11:16:43Z</time>
      </trkpt>
      <trkpt lat="45.67928" lon="5.77002">
        <ele>373.18054</ele>
        <time>2014-11-22T11:16:49Z</time>
      </trkpt>
      <trkpt lat="45.67927" lon="5.77011">
        <ele>373.18054</ele>
        <time>2014-11-22T11:16:53Z</time>
      </trkpt>
      <trkpt lat="45.67927" lon="5.77021">
        <ele>374.5691</ele>
        <time>2014-11-22T11:16:58Z</time>
      </trkpt>
      <trkpt lat="45.67924" lon="5.7703">
        <ele>374.5691</ele>
        <time>2014-11-22T11:17:03Z</time>
      </trkpt>
      <trkpt lat="45.67921" lon="5.77039">
        <ele>375.33884</ele>
        <time>2014-11-22T11:17:08Z</time>
      </trkpt>
      <trkpt lat="45.6792" lon="5.77048">
        <ele>375.33884</ele>
        <time>2014-11-22T11:17:13Z</time>
      </trkpt>
      <trkpt lat="45.67919" lon="5.77058">
        <ele>375.39243</ele>
        <time>2014-11-22T11:17:18Z</time>
      </trkpt>
      <trkpt lat="45.67919" lon="5.77066">
        <ele>375.39243</ele>
        <time>2014-11-22T11:17:23Z</time>
      </trkpt>
      <trkpt lat="45.67919" lon="5.77075">
        <ele>374.72824</ele>
        <time>2014-11-22T11:17:28Z</time>
      </trkpt>
      <trkpt lat="45.6792" lon="5.77086">
        <ele>374.72824</ele>
        <time>2014-11-22T11:17:33Z</time>
      </trkpt>
      <trkpt lat="45.67921" lon="5.77094">
        <ele>373.3034</ele>
        <time>2014-11-22T11:17:38Z</time>
      </trkpt>
      <trkpt lat="45.67922" lon="5.77102">
        <ele>373.3034</ele>
        <time>2014-11-22T11:17:43Z</time>
      </trkpt>
      <trkpt lat="45.67924" lon="5.7711">
        <ele>371.4983</ele>
        <time>2014-11-22T11:17:48Z</time>
      </trkpt>
      <trkpt lat="45.67925" lon="5.77119">
        <ele>371.4983</ele>
        <time>2014-11-22T11:17:53Z</time>
      </trkpt>
      <trkpt lat="45.67931" lon="5.77126">
        <ele>369.19073</ele>
        <time>2014-11-22T11:17:58Z</time>
      </trkpt>
      <trkpt lat="45.67939" lon="5.77143">
        <ele>366.80206</ele>
        <time>2014-11-22T11:18:03Z</time>
      </trkpt>
      <trkpt lat="45.67953" lon="5.77164">
        <ele>364.63638</ele>
        <time>2014-11-22T11:18:08Z</time>
      </trkpt>
      <trkpt lat="45.67967" lon="5.77193">
        <ele>363.55106</ele>
        <time>2014-11-22T11:18:13Z</time>
      </trkpt>
      <trkpt lat="45.67976" lon="5.77234">
        <ele>363.55917</ele>
        <time>2014-11-22T11:18:18Z</time>
      </trkpt>
      <trkpt lat="45.67992" lon="5.77278">
        <ele>364.55438</ele>
        <time>2014-11-22T11:18:23Z</time>
      </trkpt>
      <trkpt lat="45.68013" lon="5.77318">
        <ele>365.70016</ele>
        <time>2014-11-22T11:18:28Z</time>
      </trkpt>
      <trkpt lat="45.68029" lon="5.77359">
        <ele>367.6765</ele>
        <time>2014-11-22T11:18:33Z</time>
      </trkpt>
      <trkpt lat="45.6805" lon="5.77392">
        <ele>370.1166</ele>
        <time>2014-11-22T11:18:38Z</time>
      </trkpt>
      <trkpt lat="45.68073" lon="5.77424">
        <ele>372.73685</ele>
        <time>2014-11-22T11:18:43Z</time>
      </trkpt>
      <trkpt lat="45.68093" lon="5.77455">
        <ele>375.49002</ele>
        <time>2014-11-22T11:18:48Z</time>
      </trkpt>
      <trkpt lat="45.68103" lon="5.77469">
        <ele>378.15903</ele>
        <time>2014-11-22T11:18:53Z</time>
      </trkpt>
      <trkpt lat="45.68107" lon="5.77477">
        <ele>378.15903</ele>
        <time>2014-11-22T11:18:58Z</time>
      </trkpt>
      <trkpt lat="45.68112" lon="5.77485">
        <ele>380.78787</ele>
        <time>2014-11-22T11:19:03Z</time>
      </trkpt>
      <trkpt lat="45.68115" lon="5.77491">
        <ele>380.78787</ele>
        <time>2014-11-22T11:19:08Z</time>
      </trkpt>
      <trkpt lat="45.68117" lon="5.77498">
        <ele>383.12924</ele>
        <time>2014-11-22T11:19:13Z</time>
      </trkpt>
      <trkpt lat="45.68119" lon="5.77505">
        <ele>383.12924</ele>
        <time>2014-11-22T11:19:18Z</time>
      </trkpt>
      <trkpt lat="45.68119" lon="5.77512">
        <ele>385.21414</ele>
        <time>2014-11-22T11:19:23Z</time>
      </trkpt>
      <trkpt lat="45.68118" lon="5.77522">
        <ele>385.21414</ele>
        <time>2014-11-22T11:19:28Z</time>
      </trkpt>
      <trkpt lat="45.68119" lon="5.77531">
        <ele>386.76944</ele>
        <time>2014-11-22T11:19:33Z</time>
      </trkpt>
      <trkpt lat="45.6812" lon="5.77539">
        <ele>386.76944</ele>
        <time>2014-11-22T11:19:38Z</time>
      </trkpt>
      <trkpt lat="45.68121" lon="5.77548">
        <ele>388.2209</ele>
        <time>2014-11-22T11:19:43Z</time>
      </trkpt>
      <trkpt lat="45.68121" lon="5.77548">
        <ele>388.2209</ele>
        <time>2014-11-22T11:19:48Z</time>
      </trkpt>
      <trkpt lat="45.68121" lon="5.77549">
        <ele>388.2209</ele>
        <time>2014-11-22T11:19:53Z</time>
      </trkpt>
      <trkpt lat="45.68123" lon="5.77556">
        <ele>388.2209</ele>
        <time>2014-11-22T11:19:58Z</time>
      </trkpt>
      <trkpt lat="45.6812" lon="5.77551">
        <ele>389.50208</ele>
        <time>2014-11-22T11:20:03Z</time>
      </trkpt>
      <trkpt lat="45.68119" lon="5.77541">
        <ele>389.50208</ele>
        <time>2014-11-22T11:20:08Z</time>
      </trkpt>
      <trkpt lat="45.68117" lon="5.77531">
        <ele>390.7538</ele>
        <time>2014-11-22T11:20:13Z</time>
      </trkpt>
      <trkpt lat="45.68117" lon="5.77523">
        <ele>390.7538</ele>
        <time>2014-11-22T11:20:18Z</time>
      </trkpt>
      <trkpt lat="45.68117" lon="5.77512">
        <ele>391.9913</ele>
        <time>2014-11-22T11:20:23Z</time>
      </trkpt>
      <trkpt lat="45.68121" lon="5.77506">
        <ele>391.9913</ele>
        <time>2014-11-22T11:20:28Z</time>
      </trkpt>
      <trkpt lat="45.68124" lon="5.77506">
        <ele>391.9913</ele>
        <time>2014-11-22T11:20:33Z</time>
      </trkpt>
      <trkpt lat="45.68127" lon="5.77512">
        <ele>393.1279</ele>
        <time>2014-11-22T11:20:38Z</time>
      </trkpt>
      <trkpt lat="45.6813" lon="5.77521">
        <ele>393.1279</ele>
        <time>2014-11-22T11:20:43Z</time>
      </trkpt>
      <trkpt lat="45.68134" lon="5.77528">
        <ele>394.51593</ele>
        <time>2014-11-22T11:20:48Z</time>
      </trkpt>
      <trkpt lat="45.68139" lon="5.77536">
        <ele>394.51593</ele>
        <time>2014-11-22T11:20:53Z</time>
      </trkpt>
      <trkpt lat="45.68142" lon="5.77543">
        <ele>396.1065</ele>
        <time>2014-11-22T11:20:58Z</time>
      </trkpt>
      <trkpt lat="45.68146" lon="5.77553">
        <ele>396.1065</ele>
        <time>2014-11-22T11:21:03Z</time>
      </trkpt>
      <trkpt lat="45.6815" lon="5.77561">
        <ele>397.62323</ele>
        <time>2014-11-22T11:21:08Z</time>
      </trkpt>
      <trkpt lat="45.68153" lon="5.7757">
        <ele>397.62323</ele>
        <time>2014-11-22T11:21:13Z</time>
      </trkpt>
      <trkpt lat="45.68156" lon="5.77577">
        <ele>399.257</ele>
        <time>2014-11-22T11:21:18Z</time>
      </trkpt>
      <trkpt lat="45.6816" lon="5.77585">
        <ele>399.257</ele>
        <time>2014-11-22T11:21:23Z</time>
      </trkpt>
      <trkpt lat="45.68162" lon="5.77592">
        <ele>400.65115</ele>
        <time>2014-11-22T11:21:28Z</time>
      </trkpt>
      <trkpt lat="45.68166" lon="5.776">
        <ele>400.65115</ele>
        <time>2014-11-22T11:21:33Z</time>
      </trkpt>
      <trkpt lat="45.68168" lon="5.77608">
        <ele>402.12448</ele>
        <time>2014-11-22T11:21:38Z</time>
      </trkpt>
      <trkpt lat="45.6817" lon="5.77616">
        <ele>402.12448</ele>
        <time>2014-11-22T11:21:43Z</time>
      </trkpt>
      <trkpt lat="45.68173" lon="5.77626">
        <ele>403.79926</ele>
        <time>2014-11-22T11:21:48Z</time>
      </trkpt>
      <trkpt lat="45.68177" lon="5.77636">
        <ele>403.79926</ele>
        <time>2014-11-22T11:21:53Z</time>
      </trkpt>
      <trkpt lat="45.68181" lon="5.77652">
        <ele>405.47122</ele>
        <time>2014-11-22T11:21:58Z</time>
      </trkpt>
      <trkpt lat="45.68186" lon="5.77667">
        <ele>406.89346</ele>
        <time>2014-11-22T11:22:03Z</time>
      </trkpt>
      <trkpt lat="45.6819" lon="5.77678">
        <ele>406.89346</ele>
        <time>2014-11-22T11:22:08Z</time>
      </trkpt>
      <trkpt lat="45.68191" lon="5.77687">
        <ele>408.12625</ele>
        <time>2014-11-22T11:22:13Z</time>
      </trkpt>
      <trkpt lat="45.68193" lon="5.77697">
        <ele>408.12625</ele>
        <time>2014-11-22T11:22:18Z</time>
      </trkpt>
      <trkpt lat="45.68195" lon="5.77708">
        <ele>409.226</ele>
        <time>2014-11-22T11:22:23Z</time>
      </trkpt>
      <trkpt lat="45.68197" lon="5.77719">
        <ele>409.226</ele>
        <time>2014-11-22T11:22:28Z</time>
      </trkpt>
      <trkpt lat="45.68198" lon="5.77729">
        <ele>410.13016</ele>
        <time>2014-11-22T11:22:33Z</time>
      </trkpt>
      <trkpt lat="45.682" lon="5.77738">
        <ele>410.13016</ele>
        <time>2014-11-22T11:22:38Z</time>
      </trkpt>
      <trkpt lat="45.68202" lon="5.77749">
        <ele>411.15594</ele>
        <time>2014-11-22T11:22:43Z</time>
      </trkpt>
      <trkpt lat="45.68204" lon="5.77758">
        <ele>411.15594</ele>
        <time>2014-11-22T11:22:48Z</time>
      </trkpt>
      <trkpt lat="45.68206" lon="5.77768">
        <ele>412.0206</ele>
        <time>2014-11-22T11:22:53Z</time>
      </trkpt>
      <trkpt lat="45.68209" lon="5.77778">
        <ele>412.0206</ele>
        <time>2014-11-22T11:22:58Z</time>
      </trkpt>
      <trkpt lat="45.6821" lon="5.77787">
        <ele>412.67883</ele>
        <time>2014-11-22T11:23:03Z</time>
      </trkpt>
      <trkpt lat="45.68214" lon="5.77797">
        <ele>412.67883</ele>
        <time>2014-11-22T11:23:08Z</time>
      </trkpt>
      <trkpt lat="45.68216" lon="5.77806">
        <ele>413.2333</ele>
        <time>2014-11-22T11:23:13Z</time>
      </trkpt>
      <trkpt lat="45.6822" lon="5.77815">
        <ele>413.2333</ele>
        <time>2014-11-22T11:23:18Z</time>
      </trkpt>
      <trkpt lat="45.68223" lon="5.77825">
        <ele>413.5202</ele>
        <time>2014-11-22T11:23:23Z</time>
      </trkpt>
      <trkpt lat="45.68227" lon="5.77834">
        <ele>413.5202</ele>
        <time>2014-11-22T11:23:28Z</time>
      </trkpt>
      <trkpt lat="45.6823" lon="5.77844">
        <ele>413.56128</ele>
        <time>2014-11-22T11:23:33Z</time>
      </trkpt>
      <trkpt lat="45.68234" lon="5.77853">
        <ele>413.56128</ele>
        <time>2014-11-22T11:23:38Z</time>
      </trkpt>
      <trkpt lat="45.68238" lon="5.77861">
        <ele>413.37753</ele>
        <time>2014-11-22T11:23:43Z</time>
      </trkpt>
      <trkpt lat="45.68241" lon="5.77869">
        <ele>413.37753</ele>
        <time>2014-11-22T11:23:48Z</time>
      </trkpt>
      <trkpt lat="45.68245" lon="5.77878">
        <ele>413.06104</ele>
        <time>2014-11-22T11:23:53Z</time>
      </trkpt>
      <trkpt lat="45.68251" lon="5.77885">
        <ele>413.06104</ele>
        <time>2014-11-22T11:23:58Z</time>
      </trkpt>
      <trkpt lat="45.68255" lon="5.77892">
        <ele>412.61105</ele>
        <time>2014-11-22T11:24:03Z</time>
      </trkpt>
      <trkpt lat="45.68258" lon="5.779">
        <ele>412.61105</ele>
        <time>2014-11-22T11:24:08Z</time>
      </trkpt>
      <trkpt lat="45.68262" lon="5.77906">
        <ele>411.60925</ele>
        <time>2014-11-22T11:24:13Z</time>
      </trkpt>
      <trkpt lat="45.68262" lon="5.77906">
        <ele>411.60925</ele>
        <time>2014-11-22T11:24:18Z</time>
      </trkpt>
      <trkpt lat="45.68262" lon="5.77907">
        <ele>411.60925</ele>
        <time>2014-11-22T11:24:23Z</time>
      </trkpt>
      <trkpt lat="45.68261" lon="5.77907">
        <ele>411.60925</ele>
        <time>2014-11-22T11:24:28Z</time>
      </trkpt>
      <trkpt lat="45.6826" lon="5.77907">
        <ele>411.60925</ele>
        <time>2014-11-22T11:24:33Z</time>
      </trkpt>
      <trkpt lat="45.68259" lon="5.77906">
        <ele>411.60925</ele>
        <time>2014-11-22T11:24:38Z</time>
      </trkpt>
      <trkpt lat="45.6826" lon="5.77905">
        <ele>411.60925</ele>
        <time>2014-11-22T11:24:43Z</time>
      </trkpt>
      <trkpt lat="45.68262" lon="5.77904">
        <ele>411.60925</ele>
        <time>2014-11-22T11:24:48Z</time>
      </trkpt>
      <trkpt lat="45.68262" lon="5.77904">
        <ele>411.60925</ele>
        <time>2014-11-22T11:24:53Z</time>
      </trkpt>
      <trkpt lat="45.68262" lon="5.77904">
        <ele>411.60925</ele>
        <time>2014-11-22T11:24:58Z</time>
      </trkpt>
      <trkpt lat="45.68262" lon="5.77904">
        <ele>411.60925</ele>
        <time>2014-11-22T11:25:03Z</time>
      </trkpt>
      <trkpt lat="45.68262" lon="5.77908">
        <ele>410.33255</ele>
        <time>2014-11-22T11:25:08Z</time>
      </trkpt>
      <trkpt lat="45.68265" lon="5.77918">
        <ele>410.33255</ele>
        <time>2014-11-22T11:25:13Z</time>
      </trkpt>
      <trkpt lat="45.68266" lon="5.77928">
        <ele>409.23996</ele>
        <time>2014-11-22T11:25:18Z</time>
      </trkpt>
      <trkpt lat="45.6827" lon="5.77936">
        <ele>409.23996</ele>
        <time>2014-11-22T11:25:23Z</time>
      </trkpt>
      <trkpt lat="45.68274" lon="5.77944">
        <ele>408.06445</ele>
        <time>2014-11-22T11:25:28Z</time>
      </trkpt>
      <trkpt lat="45.68279" lon="5.77951">
        <ele>408.06445</ele>
        <time>2014-11-22T11:25:33Z</time>
      </trkpt>
      <trkpt lat="45.68283" lon="5.77958">
        <ele>406.73172</ele>
        <time>2014-11-22T11:25:38Z</time>
      </trkpt>
      <trkpt lat="45.68286" lon="5.77968">
        <ele>406.73172</ele>
        <time>2014-11-22T11:25:43Z</time>
      </trkpt>
      <trkpt lat="45.68288" lon="5.77978">
        <ele>405.2886</ele>
        <time>2014-11-22T11:25:48Z</time>
      </trkpt>
      <trkpt lat="45.68288" lon="5.77988">
        <ele>405.2886</ele>
        <time>2014-11-22T11:25:53Z</time>
      </trkpt>
      <trkpt lat="45.68289" lon="5.77997">
        <ele>403.37512</ele>
        <time>2014-11-22T11:25:58Z</time>
      </trkpt>
      <trkpt lat="45.68288" lon="5.78007">
        <ele>403.37512</ele>
        <time>2014-11-22T11:26:03Z</time>
      </trkpt>
      <trkpt lat="45.68285" lon="5.78016">
        <ele>400.73108</ele>
        <time>2014-11-22T11:26:08Z</time>
      </trkpt>
      <trkpt lat="45.68282" lon="5.78026">
        <ele>400.73108</ele>
        <time>2014-11-22T11:26:13Z</time>
      </trkpt>
      <trkpt lat="45.68278" lon="5.78035">
        <ele>397.89542</ele>
        <time>2014-11-22T11:26:18Z</time>
      </trkpt>
      <trkpt lat="45.68274" lon="5.78044">
        <ele>397.89542</ele>
        <time>2014-11-22T11:26:23Z</time>
      </trkpt>
      <trkpt lat="45.68271" lon="5.78053">
        <ele>395.20944</ele>
        <time>2014-11-22T11:26:28Z</time>
      </trkpt>
      <trkpt lat="45.68268" lon="5.78062">
        <ele>395.20944</ele>
        <time>2014-11-22T11:26:33Z</time>
      </trkpt>
      <trkpt lat="45.68266" lon="5.78072">
        <ele>392.95996</ele>
        <time>2014-11-22T11:26:38Z</time>
      </trkpt>
      <trkpt lat="45.68262" lon="5.78082">
        <ele>392.95996</ele>
        <time>2014-11-22T11:26:43Z</time>
      </trkpt>
      <trkpt lat="45.68258" lon="5.78092">
        <ele>391.4257</ele>
        <time>2014-11-22T11:26:48Z</time>
      </trkpt>
      <trkpt lat="45.68255" lon="5.78102">
        <ele>391.4257</ele>
        <time>2014-11-22T11:26:53Z</time>
      </trkpt>
      <trkpt lat="45.68253" lon="5.78112">
        <ele>390.37274</ele>
        <time>2014-11-22T11:26:58Z</time>
      </trkpt>
      <trkpt lat="45.6825" lon="5.78121">
        <ele>390.37274</ele>
        <time>2014-11-22T11:27:03Z</time>
      </trkpt>
      <trkpt lat="45.68248" lon="5.78132">
        <ele>389.77017</ele>
        <time>2014-11-22T11:27:08Z</time>
      </trkpt>
      <trkpt lat="45.68248" lon="5.78144">
        <ele>389.77017</ele>
        <time>2014-11-22T11:27:13Z</time>
      </trkpt>
      <trkpt lat="45.68248" lon="5.78156">
        <ele>389.5014</ele>
        <time>2014-11-22T11:27:18Z</time>
      </trkpt>
      <trkpt lat="45.68249" lon="5.78166">
        <ele>389.5014</ele>
        <time>2014-11-22T11:27:23Z</time>
      </trkpt>
      <trkpt lat="45.68248" lon="5.78178">
        <ele>389.4717</ele>
        <time>2014-11-22T11:27:28Z</time>
      </trkpt>
      <trkpt lat="45.68248" lon="5.78189">
        <ele>389.4717</ele>
        <time>2014-11-22T11:27:33Z</time>
      </trkpt>
      <trkpt lat="45.68248" lon="5.78199">
        <ele>389.7366</ele>
        <time>2014-11-22T11:27:38Z</time>
      </trkpt>
      <trkpt lat="45.68249" lon="5.78211">
        <ele>389.7366</ele>
        <time>2014-11-22T11:27:43Z</time>
      </trkpt>
      <trkpt lat="45.68249" lon="5.78222">
        <ele>390.07266</ele>
        <time>2014-11-22T11:27:48Z</time>
      </trkpt>
      <trkpt lat="45.68249" lon="5.78232">
        <ele>390.07266</ele>
        <time>2014-11-22T11:27:53Z</time>
      </trkpt>
      <trkpt lat="45.68249" lon="5.78243">
        <ele>390.48877</ele>
        <time>2014-11-22T11:27:58Z</time>
      </trkpt>
      <trkpt lat="45.68249" lon="5.78254">
        <ele>390.48877</ele>
        <time>2014-11-22T11:28:03Z</time>
      </trkpt>
      <trkpt lat="45.6825" lon="5.78264">
        <ele>390.84863</ele>
        <time>2014-11-22T11:28:08Z</time>
      </trkpt>
      <trkpt lat="45.68252" lon="5.78275">
        <ele>390.84863</ele>
        <time>2014-11-22T11:28:13Z</time>
      </trkpt>
      <trkpt lat="45.68252" lon="5.78284">
        <ele>390.8242</ele>
        <time>2014-11-22T11:28:18Z</time>
      </trkpt>
      <trkpt lat="45.68254" lon="5.78295">
        <ele>390.8242</ele>
        <time>2014-11-22T11:28:23Z</time>
      </trkpt>
      <trkpt lat="45.68256" lon="5.78305">
        <ele>390.97717</ele>
        <time>2014-11-22T11:28:28Z</time>
      </trkpt>
      <trkpt lat="45.68255" lon="5.78314">
        <ele>390.97717</ele>
        <time>2014-11-22T11:28:33Z</time>
      </trkpt>
      <trkpt lat="45.68253" lon="5.78321">
        <ele>390.77542</ele>
        <time>2014-11-22T11:28:38Z</time>
      </trkpt>
      <trkpt lat="45.6825" lon="5.7833">
        <ele>390.77542</ele>
        <time>2014-11-22T11:28:43Z</time>
      </trkpt>
      <trkpt lat="45.68247" lon="5.78341">
        <ele>389.9717</ele>
        <time>2014-11-22T11:28:48Z</time>
      </trkpt>
      <trkpt lat="45.68245" lon="5.78351">
        <ele>389.9717</ele>
        <time>2014-11-22T11:28:54Z</time>
      </trkpt>
      <trkpt lat="45.68243" lon="5.7836">
        <ele>388.94388</ele>
        <time>2014-11-22T11:28:58Z</time>
      </trkpt>
      <trkpt lat="45.68242" lon="5.7837">
        <ele>388.94388</ele>
        <time>2014-11-22T11:29:03Z</time>
      </trkpt>
      <trkpt lat="45.68242" lon="5.78379">
        <ele>388.08575</ele>
        <time>2014-11-22T11:29:08Z</time>
      </trkpt>
      <trkpt lat="45.68243" lon="5.78391">
        <ele>388.08575</ele>
        <time>2014-11-22T11:29:13Z</time>
      </trkpt>
      <trkpt lat="45.68239" lon="5.78399">
        <ele>387.12756</ele>
        <time>2014-11-22T11:29:18Z</time>
      </trkpt>
      <trkpt lat="45.68241" lon="5.7841">
        <ele>387.12756</ele>
        <time>2014-11-22T11:29:23Z</time>
      </trkpt>
      <trkpt lat="45.68242" lon="5.7842">
        <ele>386.23746</ele>
        <time>2014-11-22T11:29:28Z</time>
      </trkpt>
      <trkpt lat="45.6824" lon="5.78427">
        <ele>386.23746</ele>
        <time>2014-11-22T11:29:33Z</time>
      </trkpt>
      <trkpt lat="45.68237" lon="5.78435">
        <ele>385.28275</ele>
        <time>2014-11-22T11:29:38Z</time>
      </trkpt>
      <trkpt lat="45.68231" lon="5.78443">
        <ele>385.28275</ele>
        <time>2014-11-22T11:29:43Z</time>
      </trkpt>
      <trkpt lat="45.68227" lon="5.78451">
        <ele>383.95325</ele>
        <time>2014-11-22T11:29:48Z</time>
      </trkpt>
      <trkpt lat="45.68222" lon="5.78457">
        <ele>383.95325</ele>
        <time>2014-11-22T11:29:53Z</time>
      </trkpt>
      <trkpt lat="45.68215" lon="5.78462">
        <ele>382.46686</ele>
        <time>2014-11-22T11:29:58Z</time>
      </trkpt>
      <trkpt lat="45.6821" lon="5.78467">
        <ele>382.46686</ele>
        <time>2014-11-22T11:30:03Z</time>
      </trkpt>
      <trkpt lat="45.68205" lon="5.78473">
        <ele>380.59354</ele>
        <time>2014-11-22T11:30:08Z</time>
      </trkpt>
      <trkpt lat="45.68199" lon="5.78481">
        <ele>380.59354</ele>
        <time>2014-11-22T11:30:13Z</time>
      </trkpt>
      <trkpt lat="45.68197" lon="5.78489">
        <ele>378.46695</ele>
        <time>2014-11-22T11:30:18Z</time>
      </trkpt>
      <trkpt lat="45.68196" lon="5.78496">
        <ele>378.46695</ele>
        <time>2014-11-22T11:30:23Z</time>
      </trkpt>
      <trkpt lat="45.68198" lon="5.78502">
        <ele>376.44214</ele>
        <time>2014-11-22T11:30:28Z</time>
      </trkpt>
      <trkpt lat="45.682" lon="5.78513">
        <ele>376.44214</ele>
        <time>2014-11-22T11:30:33Z</time>
      </trkpt>
      <trkpt lat="45.68201" lon="5.78526">
        <ele>374.94858</ele>
        <time>2014-11-22T11:30:38Z</time>
      </trkpt>
      <trkpt lat="45.68203" lon="5.78539">
        <ele>374.94858</ele>
        <time>2014-11-22T11:30:43Z</time>
      </trkpt>
      <trkpt lat="45.68206" lon="5.78546">
        <ele>373.89255</ele>
        <time>2014-11-22T11:30:48Z</time>
      </trkpt>
      <trkpt lat="45.68209" lon="5.78554">
        <ele>373.89255</ele>
        <time>2014-11-22T11:30:53Z</time>
      </trkpt>
      <trkpt lat="45.68214" lon="5.78563">
        <ele>372.73923</ele>
        <time>2014-11-22T11:30:58Z</time>
      </trkpt>
      <trkpt lat="45.68217" lon="5.78571">
        <ele>372.73923</ele>
        <time>2014-11-22T11:31:03Z</time>
      </trkpt>
      <trkpt lat="45.68221" lon="5.78579">
        <ele>371.77133</ele>
        <time>2014-11-22T11:31:08Z</time>
      </trkpt>
      <trkpt lat="45.68226" lon="5.78588">
        <ele>371.77133</ele>
        <time>2014-11-22T11:31:13Z</time>
      </trkpt>
      <trkpt lat="45.6823" lon="5.78598">
        <ele>371.4232</ele>
        <time>2014-11-22T11:31:18Z</time>
      </trkpt>
      <trkpt lat="45.68231" lon="5.78608">
        <ele>371.4232</ele>
        <time>2014-11-22T11:31:23Z</time>
      </trkpt>
      <trkpt lat="45.68229" lon="5.78618">
        <ele>371.02896</ele>
        <time>2014-11-22T11:31:28Z</time>
      </trkpt>
      <trkpt lat="45.68228" lon="5.78627">
        <ele>371.02896</ele>
        <time>2014-11-22T11:31:33Z</time>
      </trkpt>
      <trkpt lat="45.68228" lon="5.78642">
        <ele>370.3752</ele>
        <time>2014-11-22T11:31:38Z</time>
      </trkpt>
      <trkpt lat="45.68225" lon="5.78662">
        <ele>370.11514</ele>
        <time>2014-11-22T11:31:43Z</time>
      </trkpt>
      <trkpt lat="45.68221" lon="5.78682">
        <ele>369.87277</ele>
        <time>2014-11-22T11:31:48Z</time>
      </trkpt>
      <trkpt lat="45.68217" lon="5.78703">
        <ele>369.8617</ele>
        <time>2014-11-22T11:31:53Z</time>
      </trkpt>
      <trkpt lat="45.68213" lon="5.78723">
        <ele>370.01974</ele>
        <time>2014-11-22T11:31:58Z</time>
      </trkpt>
      <trkpt lat="45.68209" lon="5.78744">
        <ele>370.49045</ele>
        <time>2014-11-22T11:32:03Z</time>
      </trkpt>
      <trkpt lat="45.68205" lon="5.78762">
        <ele>371.1754</ele>
        <time>2014-11-22T11:32:08Z</time>
      </trkpt>
      <trkpt lat="45.68199" lon="5.78776">
        <ele>372.38626</ele>
        <time>2014-11-22T11:32:13Z</time>
      </trkpt>
      <trkpt lat="45.68187" lon="5.78787">
        <ele>373.44476</ele>
        <time>2014-11-22T11:32:18Z</time>
      </trkpt>
      <trkpt lat="45.68173" lon="5.78799">
        <ele>374.57315</ele>
        <time>2014-11-22T11:32:23Z</time>
      </trkpt>
      <trkpt lat="45.68161" lon="5.78809">
        <ele>375.6602</ele>
        <time>2014-11-22T11:32:28Z</time>
      </trkpt>
      <trkpt lat="45.68152" lon="5.78824">
        <ele>376.58847</ele>
        <time>2014-11-22T11:32:33Z</time>
      </trkpt>
      <trkpt lat="45.68142" lon="5.7884">
        <ele>377.49472</ele>
        <time>2014-11-22T11:32:38Z</time>
      </trkpt>
      <trkpt lat="45.68132" lon="5.78857">
        <ele>378.40488</ele>
        <time>2014-11-22T11:32:43Z</time>
      </trkpt>
      <trkpt lat="45.68122" lon="5.78875">
        <ele>379.24216</ele>
        <time>2014-11-22T11:32:48Z</time>
      </trkpt>
      <trkpt lat="45.68111" lon="5.78897">
        <ele>380.05096</ele>
        <time>2014-11-22T11:32:54Z</time>
      </trkpt>
      <trkpt lat="45.68101" lon="5.78916">
        <ele>381.03113</ele>
        <time>2014-11-22T11:32:58Z</time>
      </trkpt>
      <trkpt lat="45.68094" lon="5.78933">
        <ele>382.06476</ele>
        <time>2014-11-22T11:33:03Z</time>
      </trkpt>
      <trkpt lat="45.68087" lon="5.78954">
        <ele>383.25882</ele>
        <time>2014-11-22T11:33:08Z</time>
      </trkpt>
      <trkpt lat="45.68081" lon="5.78972">
        <ele>384.27963</ele>
        <time>2014-11-22T11:33:13Z</time>
      </trkpt>
      <trkpt lat="45.68072" lon="5.78988">
        <ele>385.53925</ele>
        <time>2014-11-22T11:33:18Z</time>
      </trkpt>
      <trkpt lat="45.68061" lon="5.79004">
        <ele>387.33237</ele>
        <time>2014-11-22T11:33:23Z</time>
      </trkpt>
      <trkpt lat="45.68054" lon="5.79014">
        <ele>389.05167</ele>
        <time>2014-11-22T11:33:28Z</time>
      </trkpt>
      <trkpt lat="45.68048" lon="5.79027">
        <ele>390.84088</ele>
        <time>2014-11-22T11:33:33Z</time>
      </trkpt>
      <trkpt lat="45.68043" lon="5.79033">
        <ele>390.84088</ele>
        <time>2014-11-22T11:33:38Z</time>
      </trkpt>
      <trkpt lat="45.68037" lon="5.79044">
        <ele>392.67453</ele>
        <time>2014-11-22T11:33:43Z</time>
      </trkpt>
      <trkpt lat="45.6803" lon="5.79049">
        <ele>392.67453</ele>
        <time>2014-11-22T11:33:48Z</time>
      </trkpt>
      <trkpt lat="45.68026" lon="5.79056">
        <ele>394.55798</ele>
        <time>2014-11-22T11:33:53Z</time>
      </trkpt>
      <trkpt lat="45.6802" lon="5.79064">
        <ele>394.55798</ele>
        <time>2014-11-22T11:33:58Z</time>
      </trkpt>
      <trkpt lat="45.68014" lon="5.79071">
        <ele>396.33762</ele>
        <time>2014-11-22T11:34:03Z</time>
      </trkpt>
      <trkpt lat="45.68009" lon="5.79076">
        <ele>396.33762</ele>
        <time>2014-11-22T11:34:08Z</time>
      </trkpt>
      <trkpt lat="45.68002" lon="5.79083">
        <ele>398.23178</ele>
        <time>2014-11-22T11:34:13Z</time>
      </trkpt>
      <trkpt lat="45.67996" lon="5.7909">
        <ele>398.23178</ele>
        <time>2014-11-22T11:34:18Z</time>
      </trkpt>
      <trkpt lat="45.67991" lon="5.79096">
        <ele>400.02484</ele>
        <time>2014-11-22T11:34:23Z</time>
      </trkpt>
      <trkpt lat="45.67986" lon="5.791">
        <ele>400.02484</ele>
        <time>2014-11-22T11:34:28Z</time>
      </trkpt>
      <trkpt lat="45.6798" lon="5.79107">
        <ele>401.5317</ele>
        <time>2014-11-22T11:34:33Z</time>
      </trkpt>
      <trkpt lat="45.67975" lon="5.79112">
        <ele>401.5317</ele>
        <time>2014-11-22T11:34:38Z</time>
      </trkpt>
      <trkpt lat="45.6797" lon="5.79119">
        <ele>402.95667</ele>
        <time>2014-11-22T11:34:43Z</time>
      </trkpt>
      <trkpt lat="45.67965" lon="5.79124">
        <ele>402.95667</ele>
        <time>2014-11-22T11:34:48Z</time>
      </trkpt>
      <trkpt lat="45.6796" lon="5.79132">
        <ele>404.41724</ele>
        <time>2014-11-22T11:34:53Z</time>
      </trkpt>
      <trkpt lat="45.67954" lon="5.79138">
        <ele>404.41724</ele>
        <time>2014-11-22T11:34:58Z</time>
      </trkpt>
      <trkpt lat="45.67948" lon="5.79145">
        <ele>405.89276</ele>
        <time>2014-11-22T11:35:03Z</time>
      </trkpt>
      <trkpt lat="45.67943" lon="5.79152">
        <ele>405.89276</ele>
        <time>2014-11-22T11:35:08Z</time>
      </trkpt>
      <trkpt lat="45.67937" lon="5.79158">
        <ele>407.37857</ele>
        <time>2014-11-22T11:35:13Z</time>
      </trkpt>
      <trkpt lat="45.67934" lon="5.79164">
        <ele>407.37857</ele>
        <time>2014-11-22T11:35:18Z</time>
      </trkpt>
      <trkpt lat="45.6793" lon="5.79167">
        <ele>408.55347</ele>
        <time>2014-11-22T11:35:23Z</time>
      </trkpt>
      <trkpt lat="45.67925" lon="5.79173">
        <ele>408.55347</ele>
        <time>2014-11-22T11:35:28Z</time>
      </trkpt>
      <trkpt lat="45.6792" lon="5.79179">
        <ele>409.6973</ele>
        <time>2014-11-22T11:35:33Z</time>
      </trkpt>
      <trkpt lat="45.67914" lon="5.79185">
        <ele>409.6973</ele>
        <time>2014-11-22T11:35:38Z</time>
      </trkpt>
      <trkpt lat="45.67909" lon="5.79192">
        <ele>410.8102</ele>
        <time>2014-11-22T11:35:43Z</time>
      </trkpt>
      <trkpt lat="45.67903" lon="5.79199">
        <ele>410.8102</ele>
        <time>2014-11-22T11:35:48Z</time>
      </trkpt>
      <trkpt lat="45.67897" lon="5.79204">
        <ele>411.76285</ele>
        <time>2014-11-22T11:35:53Z</time>
      </trkpt>
      <trkpt lat="45.67892" lon="5.7921">
        <ele>411.76285</ele>
        <time>2014-11-22T11:35:58Z</time>
      </trkpt>
      <trkpt lat="45.67886" lon="5.79217">
        <ele>412.6954</ele>
        <time>2014-11-22T11:36:03Z</time>
      </trkpt>
      <trkpt lat="45.67881" lon="5.79223">
        <ele>412.6954</ele>
        <time>2014-11-22T11:36:08Z</time>
      </trkpt>
      <trkpt lat="45.67876" lon="5.7923">
        <ele>413.5938</ele>
        <time>2014-11-22T11:36:13Z</time>
      </trkpt>
      <trkpt lat="45.6787" lon="5.79236">
        <ele>413.5938</ele>
        <time>2014-11-22T11:36:18Z</time>
      </trkpt>
      <trkpt lat="45.67865" lon="5.79243">
        <ele>414.4885</ele>
        <time>2014-11-22T11:36:23Z</time>
      </trkpt>
      <trkpt lat="45.67861" lon="5.7925">
        <ele>414.4885</ele>
        <time>2014-11-22T11:36:28Z</time>
      </trkpt>
      <trkpt lat="45.67857" lon="5.79257">
        <ele>415.2493</ele>
        <time>2014-11-22T11:36:33Z</time>
      </trkpt>
      <trkpt lat="45.67853" lon="5.79264">
        <ele>415.2493</ele>
        <time>2014-11-22T11:36:38Z</time>
      </trkpt>
      <trkpt lat="45.67849" lon="5.79273">
        <ele>416.1308</ele>
        <time>2014-11-22T11:36:43Z</time>
      </trkpt>
      <trkpt lat="45.67843" lon="5.79285">
        <ele>417.10916</ele>
        <time>2014-11-22T11:36:49Z</time>
      </trkpt>
      <trkpt lat="45.6784" lon="5.79289">
        <ele>417.10916</ele>
        <time>2014-11-22T11:36:53Z</time>
      </trkpt>
      <trkpt lat="45.67838" lon="5.79296">
        <ele>418.14783</ele>
        <time>2014-11-22T11:36:58Z</time>
      </trkpt>
      <trkpt lat="45.67838" lon="5.79308">
        <ele>418.14783</ele>
        <time>2014-11-22T11:37:04Z</time>
      </trkpt>
      <trkpt lat="45.67841" lon="5.79315">
        <ele>419.429</ele>
        <time>2014-11-22T11:37:08Z</time>
      </trkpt>
      <trkpt lat="45.67844" lon="5.79324">
        <ele>419.429</ele>
        <time>2014-11-22T11:37:13Z</time>
      </trkpt>
      <trkpt lat="45.67849" lon="5.79333">
        <ele>420.63083</ele>
        <time>2014-11-22T11:37:18Z</time>
      </trkpt>
      <trkpt lat="45.67852" lon="5.79342">
        <ele>420.63083</ele>
        <time>2014-11-22T11:37:23Z</time>
      </trkpt>
      <trkpt lat="45.67857" lon="5.79351">
        <ele>421.35464</ele>
        <time>2014-11-22T11:37:28Z</time>
      </trkpt>
      <trkpt lat="45.67861" lon="5.79361">
        <ele>421.35464</ele>
        <time>2014-11-22T11:37:33Z</time>
      </trkpt>
      <trkpt lat="45.67866" lon="5.7937">
        <ele>422.1404</ele>
        <time>2014-11-22T11:37:38Z</time>
      </trkpt>
      <trkpt lat="45.67873" lon="5.79386">
        <ele>422.6956</ele>
        <time>2014-11-22T11:37:43Z</time>
      </trkpt>
      <trkpt lat="45.67882" lon="5.79403">
        <ele>423.25436</ele>
        <time>2014-11-22T11:37:48Z</time>
      </trkpt>
      <trkpt lat="45.67894" lon="5.79427">
        <ele>423.6446</ele>
        <time>2014-11-22T11:37:53Z</time>
      </trkpt>
      <trkpt lat="45.6791" lon="5.79454">
        <ele>423.8226</ele>
        <time>2014-11-22T11:37:58Z</time>
      </trkpt>
      <trkpt lat="45.67922" lon="5.79486">
        <ele>423.9071</ele>
        <time>2014-11-22T11:38:03Z</time>
      </trkpt>
      <trkpt lat="45.67931" lon="5.79504">
        <ele>423.60486</ele>
        <time>2014-11-22T11:38:08Z</time>
      </trkpt>
      <trkpt lat="45.67933" lon="5.79514">
        <ele>423.60486</ele>
        <time>2014-11-22T11:38:13Z</time>
      </trkpt>
      <trkpt lat="45.67936" lon="5.79522">
        <ele>423.02</ele>
        <time>2014-11-22T11:38:18Z</time>
      </trkpt>
      <trkpt lat="45.67941" lon="5.7953">
        <ele>423.02</ele>
        <time>2014-11-22T11:38:23Z</time>
      </trkpt>
      <trkpt lat="45.67946" lon="5.79535">
        <ele>422.4371</ele>
        <time>2014-11-22T11:38:28Z</time>
      </trkpt>
      <trkpt lat="45.67953" lon="5.79543">
        <ele>422.4371</ele>
        <time>2014-11-22T11:38:33Z</time>
      </trkpt>
      <trkpt lat="45.67958" lon="5.79548">
        <ele>421.96136</ele>
        <time>2014-11-22T11:38:38Z</time>
      </trkpt>
      <trkpt lat="45.67962" lon="5.79553">
        <ele>421.96136</ele>
        <time>2014-11-22T11:38:43Z</time>
      </trkpt>
      <trkpt lat="45.67968" lon="5.79562">
        <ele>422.20868</ele>
        <time>2014-11-22T11:38:48Z</time>
      </trkpt>
      <trkpt lat="45.67976" lon="5.79568">
        <ele>422.20868</ele>
        <time>2014-11-22T11:38:53Z</time>
      </trkpt>
      <trkpt lat="45.6798" lon="5.79574">
        <ele>422.22012</ele>
        <time>2014-11-22T11:38:58Z</time>
      </trkpt>
      <trkpt lat="45.67985" lon="5.7958">
        <ele>422.22012</ele>
        <time>2014-11-22T11:39:03Z</time>
      </trkpt>
      <trkpt lat="45.67992" lon="5.79584">
        <ele>422.33276</ele>
        <time>2014-11-22T11:39:08Z</time>
      </trkpt>
      <trkpt lat="45.67998" lon="5.79589">
        <ele>422.33276</ele>
        <time>2014-11-22T11:39:13Z</time>
      </trkpt>
      <trkpt lat="45.68004" lon="5.79594">
        <ele>421.77777</ele>
        <time>2014-11-22T11:39:18Z</time>
      </trkpt>
      <trkpt lat="45.68008" lon="5.796">
        <ele>421.77777</ele>
        <time>2014-11-22T11:39:23Z</time>
      </trkpt>
      <trkpt lat="45.68015" lon="5.79607">
        <ele>421.12714</ele>
        <time>2014-11-22T11:39:28Z</time>
      </trkpt>
      <trkpt lat="45.68019" lon="5.79612">
        <ele>421.12714</ele>
        <time>2014-11-22T11:39:33Z</time>
      </trkpt>
      <trkpt lat="45.6803" lon="5.79618">
        <ele>420.00327</ele>
        <time>2014-11-22T11:39:38Z</time>
      </trkpt>
      <trkpt lat="45.68038" lon="5.79624">
        <ele>418.9654</ele>
        <time>2014-11-22T11:39:43Z</time>
      </trkpt>
      <trkpt lat="45.68056" lon="5.79632">
        <ele>417.98373</ele>
        <time>2014-11-22T11:39:48Z</time>
      </trkpt>
      <trkpt lat="45.68082" lon="5.79641">
        <ele>417.27548</ele>
        <time>2014-11-22T11:39:53Z</time>
      </trkpt>
      <trkpt lat="45.68106" lon="5.79655">
        <ele>416.89685</ele>
        <time>2014-11-22T11:39:58Z</time>
      </trkpt>
      <trkpt lat="45.68127" lon="5.79677">
        <ele>416.4522</ele>
        <time>2014-11-22T11:40:03Z</time>
      </trkpt>
      <trkpt lat="45.68142" lon="5.79699">
        <ele>416.0794</ele>
        <time>2014-11-22T11:40:08Z</time>
      </trkpt>
      <trkpt lat="45.6815" lon="5.7971">
        <ele>415.5745</ele>
        <time>2014-11-22T11:40:13Z</time>
      </trkpt>
      <trkpt lat="45.68155" lon="5.79718">
        <ele>415.5745</ele>
        <time>2014-11-22T11:40:18Z</time>
      </trkpt>
      <trkpt lat="45.6816" lon="5.79728">
        <ele>414.60458</ele>
        <time>2014-11-22T11:40:23Z</time>
      </trkpt>
      <trkpt lat="45.68164" lon="5.79736">
        <ele>414.60458</ele>
        <time>2014-11-22T11:40:28Z</time>
      </trkpt>
      <trkpt lat="45.68168" lon="5.79739">
        <ele>413.12186</ele>
        <time>2014-11-22T11:40:33Z</time>
      </trkpt>
      <trkpt lat="45.68172" lon="5.79748">
        <ele>413.12186</ele>
        <time>2014-11-22T11:40:38Z</time>
      </trkpt>
      <trkpt lat="45.68177" lon="5.79755">
        <ele>411.68857</ele>
        <time>2014-11-22T11:40:43Z</time>
      </trkpt>
      <trkpt lat="45.68184" lon="5.79762">
        <ele>411.68857</ele>
        <time>2014-11-22T11:40:48Z</time>
      </trkpt>
      <trkpt lat="45.68191" lon="5.7977">
        <ele>410.4652</ele>
        <time>2014-11-22T11:40:53Z</time>
      </trkpt>
      <trkpt lat="45.68194" lon="5.79772">
        <ele>410.4652</ele>
        <time>2014-11-22T11:40:58Z</time>
      </trkpt>
      <trkpt lat="45.68196" lon="5.79774">
        <ele>410.4652</ele>
        <time>2014-11-22T11:41:03Z</time>
      </trkpt>
      <trkpt lat="45.68196" lon="5.79775">
        <ele>410.4652</ele>
        <time>2014-11-22T11:41:08Z</time>
      </trkpt>
      <trkpt lat="45.68198" lon="5.79776">
        <ele>410.4652</ele>
        <time>2014-11-22T11:41:13Z</time>
      </trkpt>
      <trkpt lat="45.68207" lon="5.79784">
        <ele>409.7294</ele>
        <time>2014-11-22T11:41:18Z</time>
      </trkpt>
      <trkpt lat="45.68215" lon="5.79793">
        <ele>409.10278</ele>
        <time>2014-11-22T11:41:23Z</time>
      </trkpt>
      <trkpt lat="45.68228" lon="5.79815">
        <ele>408.32086</ele>
        <time>2014-11-22T11:41:28Z</time>
      </trkpt>
      <trkpt lat="45.68243" lon="5.79842">
        <ele>407.97467</ele>
        <time>2014-11-22T11:41:33Z</time>
      </trkpt>
      <trkpt lat="45.68262" lon="5.79866">
        <ele>407.88998</ele>
        <time>2014-11-22T11:41:38Z</time>
      </trkpt>
      <trkpt lat="45.68278" lon="5.79881">
        <ele>408.0197</ele>
        <time>2014-11-22T11:41:43Z</time>
      </trkpt>
      <trkpt lat="45.68297" lon="5.79904">
        <ele>408.3196</ele>
        <time>2014-11-22T11:41:48Z</time>
      </trkpt>
      <trkpt lat="45.68316" lon="5.79928">
        <ele>408.56064</ele>
        <time>2014-11-22T11:41:53Z</time>
      </trkpt>
      <trkpt lat="45.68323" lon="5.79933">
        <ele>408.56064</ele>
        <time>2014-11-22T11:41:58Z</time>
      </trkpt>
      <trkpt lat="45.68329" lon="5.79938">
        <ele>408.66046</ele>
        <time>2014-11-22T11:42:03Z</time>
      </trkpt>
      <trkpt lat="45.68335" lon="5.79944">
        <ele>408.66046</ele>
        <time>2014-11-22T11:42:08Z</time>
      </trkpt>
      <trkpt lat="45.68343" lon="5.7995">
        <ele>408.77356</ele>
        <time>2014-11-22T11:42:13Z</time>
      </trkpt>
      <trkpt lat="45.68349" lon="5.79955">
        <ele>408.77356</ele>
        <time>2014-11-22T11:42:18Z</time>
      </trkpt>
      <trkpt lat="45.68355" lon="5.79961">
        <ele>408.85565</ele>
        <time>2014-11-22T11:42:23Z</time>
      </trkpt>
      <trkpt lat="45.68361" lon="5.79968">
        <ele>408.85565</ele>
        <time>2014-11-22T11:42:28Z</time>
      </trkpt>
      <trkpt lat="45.68368" lon="5.79977">
        <ele>409.00986</ele>
        <time>2014-11-22T11:42:33Z</time>
      </trkpt>
      <trkpt lat="45.68371" lon="5.79982">
        <ele>409.00986</ele>
        <time>2014-11-22T11:42:38Z</time>
      </trkpt>
      <trkpt lat="45.68376" lon="5.79989">
        <ele>408.88464</ele>
        <time>2014-11-22T11:42:43Z</time>
      </trkpt>
      <trkpt lat="45.6838" lon="5.79997">
        <ele>408.88464</ele>
        <time>2014-11-22T11:42:48Z</time>
      </trkpt>
      <trkpt lat="45.68384" lon="5.80005">
        <ele>408.52972</ele>
        <time>2014-11-22T11:42:53Z</time>
      </trkpt>
      <trkpt lat="45.68388" lon="5.80015">
        <ele>408.52972</ele>
        <time>2014-11-22T11:42:58Z</time>
      </trkpt>
      <trkpt lat="45.68397" lon="5.80031">
        <ele>408.10703</ele>
        <time>2014-11-22T11:43:03Z</time>
      </trkpt>
      <trkpt lat="45.6841" lon="5.8006">
        <ele>407.4785</ele>
        <time>2014-11-22T11:43:08Z</time>
      </trkpt>
      <trkpt lat="45.68424" lon="5.80095">
        <ele>406.8482</ele>
        <time>2014-11-22T11:43:14Z</time>
      </trkpt>
      <trkpt lat="45.68445" lon="5.80129">
        <ele>406.0737</ele>
        <time>2014-11-22T11:43:18Z</time>
      </trkpt>
      <trkpt lat="45.68464" lon="5.8016">
        <ele>405.44125</ele>
        <time>2014-11-22T11:43:23Z</time>
      </trkpt>
      <trkpt lat="45.68485" lon="5.8019">
        <ele>404.63922</ele>
        <time>2014-11-22T11:43:28Z</time>
      </trkpt>
      <trkpt lat="45.68492" lon="5.80198">
        <ele>404.63922</ele>
        <time>2014-11-22T11:43:33Z</time>
      </trkpt>
      <trkpt lat="45.68497" lon="5.80203">
        <ele>403.63867</ele>
        <time>2014-11-22T11:43:38Z</time>
      </trkpt>
      <trkpt lat="45.68502" lon="5.80211">
        <ele>403.63867</ele>
        <time>2014-11-22T11:43:43Z</time>
      </trkpt>
      <trkpt lat="45.68507" lon="5.80219">
        <ele>402.80237</ele>
        <time>2014-11-22T11:43:48Z</time>
      </trkpt>
      <trkpt lat="45.68513" lon="5.80227">
        <ele>402.80237</ele>
        <time>2014-11-22T11:43:53Z</time>
      </trkpt>
      <trkpt lat="45.6852" lon="5.80234">
        <ele>402.0624</ele>
        <time>2014-11-22T11:43:58Z</time>
      </trkpt>
      <trkpt lat="45.68524" lon="5.80239">
        <ele>402.0624</ele>
        <time>2014-11-22T11:44:03Z</time>
      </trkpt>
      <trkpt lat="45.68529" lon="5.80246">
        <ele>401.1538</ele>
        <time>2014-11-22T11:44:08Z</time>
      </trkpt>
      <trkpt lat="45.68533" lon="5.80254">
        <ele>401.1538</ele>
        <time>2014-11-22T11:44:13Z</time>
      </trkpt>
      <trkpt lat="45.6854" lon="5.80262">
        <ele>399.87466</ele>
        <time>2014-11-22T11:44:18Z</time>
      </trkpt>
      <trkpt lat="45.68545" lon="5.80269">
        <ele>399.87466</ele>
        <time>2014-11-22T11:44:23Z</time>
      </trkpt>
      <trkpt lat="45.68549" lon="5.80275">
        <ele>398.6297</ele>
        <time>2014-11-22T11:44:28Z</time>
      </trkpt>
      <trkpt lat="45.68554" lon="5.80285">
        <ele>398.6297</ele>
        <time>2014-11-22T11:44:33Z</time>
      </trkpt>
      <trkpt lat="45.68559" lon="5.80294">
        <ele>397.33267</ele>
        <time>2014-11-22T11:44:38Z</time>
      </trkpt>
      <trkpt lat="45.68563" lon="5.80304">
        <ele>397.33267</ele>
        <time>2014-11-22T11:44:43Z</time>
      </trkpt>
      <trkpt lat="45.68567" lon="5.80305">
        <ele>396.1919</ele>
        <time>2014-11-22T11:44:48Z</time>
      </trkpt>
      <trkpt lat="45.68572" lon="5.80298">
        <ele>396.1919</ele>
        <time>2014-11-22T11:44:53Z</time>
      </trkpt>
      <trkpt lat="45.68577" lon="5.8029">
        <ele>394.93872</ele>
        <time>2014-11-22T11:44:58Z</time>
      </trkpt>
      <trkpt lat="45.68582" lon="5.80288">
        <ele>394.93872</ele>
        <time>2014-11-22T11:45:03Z</time>
      </trkpt>
      <trkpt lat="45.68588" lon="5.80292">
        <ele>393.5119</ele>
        <time>2014-11-22T11:45:08Z</time>
      </trkpt>
      <trkpt lat="45.68593" lon="5.80298">
        <ele>393.5119</ele>
        <time>2014-11-22T11:45:13Z</time>
      </trkpt>
      <trkpt lat="45.68596" lon="5.80306">
        <ele>391.61</ele>
        <time>2014-11-22T11:45:18Z</time>
      </trkpt>
      <trkpt lat="45.686" lon="5.80313">
        <ele>391.61</ele>
        <time>2014-11-22T11:45:23Z</time>
      </trkpt>
      <trkpt lat="45.68605" lon="5.8032">
        <ele>388.8397</ele>
        <time>2014-11-22T11:45:28Z</time>
      </trkpt>
      <trkpt lat="45.68604" lon="5.80321">
        <ele>388.8397</ele>
        <time>2014-11-22T11:45:33Z</time>
      </trkpt>
      <trkpt lat="45.68604" lon="5.80321">
        <ele>388.8397</ele>
        <time>2014-11-22T11:45:38Z</time>
      </trkpt>
      <trkpt lat="45.68607" lon="5.8033">
        <ele>388.8397</ele>
        <time>2014-11-22T11:45:43Z</time>
      </trkpt>
      <trkpt lat="45.68613" lon="5.8034">
        <ele>386.17923</ele>
        <time>2014-11-22T11:45:48Z</time>
      </trkpt>
      <trkpt lat="45.68619" lon="5.80347">
        <ele>386.17923</ele>
        <time>2014-11-22T11:45:53Z</time>
      </trkpt>
      <trkpt lat="45.68625" lon="5.80349">
        <ele>384.21747</ele>
        <time>2014-11-22T11:45:58Z</time>
      </trkpt>
      <trkpt lat="45.68631" lon="5.80348">
        <ele>384.21747</ele>
        <time>2014-11-22T11:46:03Z</time>
      </trkpt>
      <trkpt lat="45.68639" lon="5.80346">
        <ele>382.77737</ele>
        <time>2014-11-22T11:46:08Z</time>
      </trkpt>
      <trkpt lat="45.68649" lon="5.80343">
        <ele>381.5781</ele>
        <time>2014-11-22T11:46:13Z</time>
      </trkpt>
      <trkpt lat="45.68655" lon="5.8034">
        <ele>381.5781</ele>
        <time>2014-11-22T11:46:18Z</time>
      </trkpt>
      <trkpt lat="45.68663" lon="5.80337">
        <ele>380.64685</ele>
        <time>2014-11-22T11:46:23Z</time>
      </trkpt>
      <trkpt lat="45.68671" lon="5.80333">
        <ele>380.64685</ele>
        <time>2014-11-22T11:46:28Z</time>
      </trkpt>
      <trkpt lat="45.68678" lon="5.80331">
        <ele>379.7486</ele>
        <time>2014-11-22T11:46:33Z</time>
      </trkpt>
      <trkpt lat="45.68686" lon="5.80327">
        <ele>379.7486</ele>
        <time>2014-11-22T11:46:38Z</time>
      </trkpt>
      <trkpt lat="45.68694" lon="5.80324">
        <ele>378.99677</ele>
        <time>2014-11-22T11:46:43Z</time>
      </trkpt>
      <trkpt lat="45.687" lon="5.8032">
        <ele>378.99677</ele>
        <time>2014-11-22T11:46:48Z</time>
      </trkpt>
      <trkpt lat="45.68708" lon="5.80318">
        <ele>378.3951</ele>
        <time>2014-11-22T11:46:53Z</time>
      </trkpt>
      <trkpt lat="45.68717" lon="5.80316">
        <ele>377.90338</ele>
        <time>2014-11-22T11:46:59Z</time>
      </trkpt>
      <trkpt lat="45.68722" lon="5.80314">
        <ele>377.90338</ele>
        <time>2014-11-22T11:47:03Z</time>
      </trkpt>
      <trkpt lat="45.6873" lon="5.80312">
        <ele>377.5127</ele>
        <time>2014-11-22T11:47:08Z</time>
      </trkpt>
      <trkpt lat="45.68737" lon="5.8031">
        <ele>377.5127</ele>
        <time>2014-11-22T11:47:13Z</time>
      </trkpt>
      <trkpt lat="45.68745" lon="5.80309">
        <ele>377.24332</ele>
        <time>2014-11-22T11:47:18Z</time>
      </trkpt>
      <trkpt lat="45.68752" lon="5.80308">
        <ele>377.24332</ele>
        <time>2014-11-22T11:47:23Z</time>
      </trkpt>
      <trkpt lat="45.68759" lon="5.80307">
        <ele>376.9406</ele>
        <time>2014-11-22T11:47:28Z</time>
      </trkpt>
      <trkpt lat="45.68766" lon="5.80307">
        <ele>376.9406</ele>
        <time>2014-11-22T11:47:33Z</time>
      </trkpt>
      <trkpt lat="45.68774" lon="5.80308">
        <ele>376.66318</ele>
        <time>2014-11-22T11:47:38Z</time>
      </trkpt>
      <trkpt lat="45.6878" lon="5.80307">
        <ele>376.66318</ele>
        <time>2014-11-22T11:47:43Z</time>
      </trkpt>
      <trkpt lat="45.68787" lon="5.80309">
        <ele>376.27783</ele>
        <time>2014-11-22T11:47:48Z</time>
      </trkpt>
      <trkpt lat="45.68795" lon="5.8031">
        <ele>376.27783</ele>
        <time>2014-11-22T11:47:53Z</time>
      </trkpt>
      <trkpt lat="45.68802" lon="5.80313">
        <ele>375.89197</ele>
        <time>2014-11-22T11:47:58Z</time>
      </trkpt>
      <trkpt lat="45.68809" lon="5.80318">
        <ele>375.89197</ele>
        <time>2014-11-22T11:48:03Z</time>
      </trkpt>
      <trkpt lat="45.68817" lon="5.80319">
        <ele>375.47543</ele>
        <time>2014-11-22T11:48:08Z</time>
      </trkpt>
      <trkpt lat="45.68824" lon="5.80323">
        <ele>375.47543</ele>
        <time>2014-11-22T11:48:13Z</time>
      </trkpt>
      <trkpt lat="45.6883" lon="5.80325">
        <ele>374.7985</ele>
        <time>2014-11-22T11:48:18Z</time>
      </trkpt>
      <trkpt lat="45.68837" lon="5.80328">
        <ele>374.7985</ele>
        <time>2014-11-22T11:48:23Z</time>
      </trkpt>
      <trkpt lat="45.68844" lon="5.80331">
        <ele>374.1103</ele>
        <time>2014-11-22T11:48:28Z</time>
      </trkpt>
      <trkpt lat="45.68846" lon="5.80331">
        <ele>374.1103</ele>
        <time>2014-11-22T11:48:33Z</time>
      </trkpt>
      <trkpt lat="45.68852" lon="5.80331">
        <ele>374.1103</ele>
        <time>2014-11-22T11:48:38Z</time>
      </trkpt>
      <trkpt lat="45.68863" lon="5.80337">
        <ele>373.5407</ele>
        <time>2014-11-22T11:48:43Z</time>
      </trkpt>
      <trkpt lat="45.6887" lon="5.80342">
        <ele>373.5407</ele>
        <time>2014-11-22T11:48:48Z</time>
      </trkpt>
      <trkpt lat="45.68875" lon="5.80344">
        <ele>372.70535</ele>
        <time>2014-11-22T11:48:53Z</time>
      </trkpt>
      <trkpt lat="45.68882" lon="5.80347">
        <ele>372.70535</ele>
        <time>2014-11-22T11:48:58Z</time>
      </trkpt>
      <trkpt lat="45.6889" lon="5.80352">
        <ele>371.52267</ele>
        <time>2014-11-22T11:49:03Z</time>
      </trkpt>
      <trkpt lat="45.68895" lon="5.80355">
        <ele>371.52267</ele>
        <time>2014-11-22T11:49:08Z</time>
      </trkpt>
      <trkpt lat="45.68902" lon="5.8036">
        <ele>370.29276</ele>
        <time>2014-11-22T11:49:13Z</time>
      </trkpt>
      <trkpt lat="45.68908" lon="5.80365">
        <ele>370.29276</ele>
        <time>2014-11-22T11:49:18Z</time>
      </trkpt>
      <trkpt lat="45.68915" lon="5.8037">
        <ele>368.99106</ele>
        <time>2014-11-22T11:49:23Z</time>
      </trkpt>
      <trkpt lat="45.68923" lon="5.80374">
        <ele>368.99106</ele>
        <time>2014-11-22T11:49:28Z</time>
      </trkpt>
      <trkpt lat="45.6893" lon="5.80378">
        <ele>367.58072</ele>
        <time>2014-11-22T11:49:33Z</time>
      </trkpt>
      <trkpt lat="45.68937" lon="5.80381">
        <ele>367.58072</ele>
        <time>2014-11-22T11:49:38Z</time>
      </trkpt>
      <trkpt lat="45.68942" lon="5.80389">
        <ele>366.1287</ele>
        <time>2014-11-22T11:49:43Z</time>
      </trkpt>
      <trkpt lat="45.68943" lon="5.804">
        <ele>366.1287</ele>
        <time>2014-11-22T11:49:48Z</time>
      </trkpt>
      <trkpt lat="45.68945" lon="5.8041">
        <ele>364.35123</ele>
        <time>2014-11-22T11:49:53Z</time>
      </trkpt>
      <trkpt lat="45.68947" lon="5.8042">
        <ele>364.35123</ele>
        <time>2014-11-22T11:49:58Z</time>
      </trkpt>
      <trkpt lat="45.6895" lon="5.80444">
        <ele>362.37552</ele>
        <time>2014-11-22T11:50:03Z</time>
      </trkpt>
      <trkpt lat="45.68956" lon="5.80482">
        <ele>360.5504</ele>
        <time>2014-11-22T11:50:08Z</time>
      </trkpt>
      <trkpt lat="45.68961" lon="5.80521">
        <ele>358.60785</ele>
        <time>2014-11-22T11:50:13Z</time>
      </trkpt>
      <trkpt lat="45.68965" lon="5.80562">
        <ele>356.8474</ele>
        <time>2014-11-22T11:50:18Z</time>
      </trkpt>
      <trkpt lat="45.68971" lon="5.80602">
        <ele>355.32993</ele>
        <time>2014-11-22T11:50:23Z</time>
      </trkpt>
      <trkpt lat="45.68974" lon="5.80618">
        <ele>354.0822</ele>
        <time>2014-11-22T11:50:28Z</time>
      </trkpt>
      <trkpt lat="45.68975" lon="5.80629">
        <ele>354.0822</ele>
        <time>2014-11-22T11:50:33Z</time>
      </trkpt>
      <trkpt lat="45.68976" lon="5.8064">
        <ele>352.76807</ele>
        <time>2014-11-22T11:50:38Z</time>
      </trkpt>
      <trkpt lat="45.68977" lon="5.80649">
        <ele>352.76807</ele>
        <time>2014-11-22T11:50:43Z</time>
      </trkpt>
      <trkpt lat="45.68978" lon="5.80659">
        <ele>351.1193</ele>
        <time>2014-11-22T11:50:48Z</time>
      </trkpt>
      <trkpt lat="45.68978" lon="5.8067">
        <ele>351.1193</ele>
        <time>2014-11-22T11:50:53Z</time>
      </trkpt>
      <trkpt lat="45.68979" lon="5.8068">
        <ele>349.40714</ele>
        <time>2014-11-22T11:50:58Z</time>
      </trkpt>
      <trkpt lat="45.6898" lon="5.8069">
        <ele>349.40714</ele>
        <time>2014-11-22T11:51:03Z</time>
      </trkpt>
      <trkpt lat="45.68982" lon="5.80701">
        <ele>347.75336</ele>
        <time>2014-11-22T11:51:08Z</time>
      </trkpt>
      <trkpt lat="45.68984" lon="5.80713">
        <ele>347.75336</ele>
        <time>2014-11-22T11:51:13Z</time>
      </trkpt>
      <trkpt lat="45.68985" lon="5.80722">
        <ele>346.1985</ele>
        <time>2014-11-22T11:51:18Z</time>
      </trkpt>
      <trkpt lat="45.68988" lon="5.80732">
        <ele>346.1985</ele>
        <time>2014-11-22T11:51:23Z</time>
      </trkpt>
      <trkpt lat="45.68991" lon="5.80743">
        <ele>344.8374</ele>
        <time>2014-11-22T11:51:28Z</time>
      </trkpt>
      <trkpt lat="45.68994" lon="5.80753">
        <ele>344.8374</ele>
        <time>2014-11-22T11:51:33Z</time>
      </trkpt>
      <trkpt lat="45.68997" lon="5.80763">
        <ele>343.84387</ele>
        <time>2014-11-22T11:51:38Z</time>
      </trkpt>
      <trkpt lat="45.69001" lon="5.80775">
        <ele>343.13284</ele>
        <time>2014-11-22T11:51:43Z</time>
      </trkpt>
      <trkpt lat="45.69003" lon="5.80782">
        <ele>343.13284</ele>
        <time>2014-11-22T11:51:48Z</time>
      </trkpt>
      <trkpt lat="45.69005" lon="5.8079">
        <ele>342.62473</ele>
        <time>2014-11-22T11:51:53Z</time>
      </trkpt>
      <trkpt lat="45.69008" lon="5.80802">
        <ele>342.62473</ele>
        <time>2014-11-22T11:51:58Z</time>
      </trkpt>
      <trkpt lat="45.6901" lon="5.80814">
        <ele>342.31717</ele>
        <time>2014-11-22T11:52:03Z</time>
      </trkpt>
      <trkpt lat="45.69014" lon="5.80822">
        <ele>342.31717</ele>
        <time>2014-11-22T11:52:08Z</time>
      </trkpt>
      <trkpt lat="45.69017" lon="5.80831">
        <ele>342.00568</ele>
        <time>2014-11-22T11:52:13Z</time>
      </trkpt>
      <trkpt lat="45.69022" lon="5.8084">
        <ele>342.00568</ele>
        <time>2014-11-22T11:52:18Z</time>
      </trkpt>
      <trkpt lat="45.69026" lon="5.80849">
        <ele>341.74573</ele>
        <time>2014-11-22T11:52:23Z</time>
      </trkpt>
      <trkpt lat="45.6903" lon="5.80858">
        <ele>341.74573</ele>
        <time>2014-11-22T11:52:28Z</time>
      </trkpt>
      <trkpt lat="45.69033" lon="5.80867">
        <ele>341.37244</ele>
        <time>2014-11-22T11:52:33Z</time>
      </trkpt>
      <trkpt lat="45.69034" lon="5.80879">
        <ele>341.37244</ele>
        <time>2014-11-22T11:52:38Z</time>
      </trkpt>
      <trkpt lat="45.69035" lon="5.80887">
        <ele>340.90628</ele>
        <time>2014-11-22T11:52:43Z</time>
      </trkpt>
      <trkpt lat="45.69035" lon="5.80897">
        <ele>340.90628</ele>
        <time>2014-11-22T11:52:48Z</time>
      </trkpt>
      <trkpt lat="45.69039" lon="5.80907">
        <ele>340.2368</ele>
        <time>2014-11-22T11:52:53Z</time>
      </trkpt>
      <trkpt lat="45.69043" lon="5.80914">
        <ele>340.2368</ele>
        <time>2014-11-22T11:52:59Z</time>
      </trkpt>
      <trkpt lat="45.69047" lon="5.80921">
        <ele>339.52158</ele>
        <time>2014-11-22T11:53:03Z</time>
      </trkpt>
      <trkpt lat="45.69047" lon="5.80921">
        <ele>339.52158</ele>
        <time>2014-11-22T11:53:09Z</time>
      </trkpt>
      <trkpt lat="45.6905" lon="5.8093">
        <ele>339.52158</ele>
        <time>2014-11-22T11:53:13Z</time>
      </trkpt>
      <trkpt lat="45.69052" lon="5.8094">
        <ele>338.67627</ele>
        <time>2014-11-22T11:53:18Z</time>
      </trkpt>
      <trkpt lat="45.69055" lon="5.8095">
        <ele>338.67627</ele>
        <time>2014-11-22T11:53:23Z</time>
      </trkpt>
      <trkpt lat="45.69057" lon="5.80958">
        <ele>337.7816</ele>
        <time>2014-11-22T11:53:28Z</time>
      </trkpt>
      <trkpt lat="45.6906" lon="5.80968">
        <ele>337.7816</ele>
        <time>2014-11-22T11:53:33Z</time>
      </trkpt>
      <trkpt lat="45.69061" lon="5.80976">
        <ele>336.76837</ele>
        <time>2014-11-22T11:53:38Z</time>
      </trkpt>
      <trkpt lat="45.69063" lon="5.80985">
        <ele>336.76837</ele>
        <time>2014-11-22T11:53:43Z</time>
      </trkpt>
      <trkpt lat="45.69064" lon="5.80997">
        <ele>335.71695</ele>
        <time>2014-11-22T11:53:48Z</time>
      </trkpt>
      <trkpt lat="45.69063" lon="5.81004">
        <ele>335.71695</ele>
        <time>2014-11-22T11:53:53Z</time>
      </trkpt>
      <trkpt lat="45.69064" lon="5.81013">
        <ele>334.1111</ele>
        <time>2014-11-22T11:53:58Z</time>
      </trkpt>
      <trkpt lat="45.69064" lon="5.81022">
        <ele>334.1111</ele>
        <time>2014-11-22T11:54:03Z</time>
      </trkpt>
      <trkpt lat="45.69063" lon="5.81033">
        <ele>332.18024</ele>
        <time>2014-11-22T11:54:09Z</time>
      </trkpt>
      <trkpt lat="45.69063" lon="5.81042">
        <ele>332.18024</ele>
        <time>2014-11-22T11:54:13Z</time>
      </trkpt>
      <trkpt lat="45.69061" lon="5.81053">
        <ele>330.0657</ele>
        <time>2014-11-22T11:54:18Z</time>
      </trkpt>
      <trkpt lat="45.69057" lon="5.8106">
        <ele>330.0657</ele>
        <time>2014-11-22T11:54:23Z</time>
      </trkpt>
      <trkpt lat="45.69053" lon="5.81067">
        <ele>327.79816</ele>
        <time>2014-11-22T11:54:28Z</time>
      </trkpt>
      <trkpt lat="45.69048" lon="5.81075">
        <ele>327.79816</ele>
        <time>2014-11-22T11:54:33Z</time>
      </trkpt>
      <trkpt lat="45.69044" lon="5.81083">
        <ele>325.4209</ele>
        <time>2014-11-22T11:54:38Z</time>
      </trkpt>
      <trkpt lat="45.6904" lon="5.81092">
        <ele>325.4209</ele>
        <time>2014-11-22T11:54:44Z</time>
      </trkpt>
      <trkpt lat="45.69035" lon="5.811">
        <ele>323.03186</ele>
        <time>2014-11-22T11:54:48Z</time>
      </trkpt>
      <trkpt lat="45.69031" lon="5.81109">
        <ele>323.03186</ele>
        <time>2014-11-22T11:54:53Z</time>
      </trkpt>
      <trkpt lat="45.69027" lon="5.81118">
        <ele>320.95248</ele>
        <time>2014-11-22T11:54:58Z</time>
      </trkpt>
      <trkpt lat="45.69021" lon="5.81128">
        <ele>320.95248</ele>
        <time>2014-11-22T11:55:03Z</time>
      </trkpt>
      <trkpt lat="45.69017" lon="5.81135">
        <ele>319.10495</ele>
        <time>2014-11-22T11:55:08Z</time>
      </trkpt>
      <trkpt lat="45.69013" lon="5.81145">
        <ele>319.10495</ele>
        <time>2014-11-22T11:55:13Z</time>
      </trkpt>
      <trkpt lat="45.6901" lon="5.81152">
        <ele>317.47415</ele>
        <time>2014-11-22T11:55:18Z</time>
      </trkpt>
      <trkpt lat="45.69006" lon="5.8116">
        <ele>317.47415</ele>
        <time>2014-11-22T11:55:24Z</time>
      </trkpt>
      <trkpt lat="45.69002" lon="5.81169">
        <ele>316.07422</ele>
        <time>2014-11-22T11:55:29Z</time>
      </trkpt>
      <trkpt lat="45.68997" lon="5.81177">
        <ele>316.07422</ele>
        <time>2014-11-22T11:55:33Z</time>
      </trkpt>
      <trkpt lat="45.68994" lon="5.81185">
        <ele>314.58615</ele>
        <time>2014-11-22T11:55:38Z</time>
      </trkpt>
      <trkpt lat="45.68989" lon="5.81195">
        <ele>313.5504</ele>
        <time>2014-11-22T11:55:43Z</time>
      </trkpt>
      <trkpt lat="45.68986" lon="5.81202">
        <ele>313.5504</ele>
        <time>2014-11-22T11:55:48Z</time>
      </trkpt>
      <trkpt lat="45.68983" lon="5.8121">
        <ele>312.93326</ele>
        <time>2014-11-22T11:55:53Z</time>
      </trkpt>
      <trkpt lat="45.68981" lon="5.81219">
        <ele>312.93326</ele>
        <time>2014-11-22T11:55:58Z</time>
      </trkpt>
      <trkpt lat="45.68979" lon="5.8123">
        <ele>312.3275</ele>
        <time>2014-11-22T11:56:03Z</time>
      </trkpt>
      <trkpt lat="45.68978" lon="5.81241">
        <ele>312.3275</ele>
        <time>2014-11-22T11:56:08Z</time>
      </trkpt>
      <trkpt lat="45.68976" lon="5.81253">
        <ele>311.9179</ele>
        <time>2014-11-22T11:56:13Z</time>
      </trkpt>
      <trkpt lat="45.68974" lon="5.81264">
        <ele>311.9179</ele>
        <time>2014-11-22T11:56:18Z</time>
      </trkpt>
      <trkpt lat="45.68972" lon="5.81273">
        <ele>311.4427</ele>
        <time>2014-11-22T11:56:23Z</time>
      </trkpt>
      <trkpt lat="45.68973" lon="5.8128">
        <ele>311.4427</ele>
        <time>2014-11-22T11:56:28Z</time>
      </trkpt>
      <trkpt lat="45.6897" lon="5.81289">
        <ele>310.44336</ele>
        <time>2014-11-22T11:56:33Z</time>
      </trkpt>
      <trkpt lat="45.68967" lon="5.81301">
        <ele>309.53412</ele>
        <time>2014-11-22T11:56:38Z</time>
      </trkpt>
      <trkpt lat="45.68965" lon="5.8131">
        <ele>309.53412</ele>
        <time>2014-11-22T11:56:44Z</time>
      </trkpt>
      <trkpt lat="45.68963" lon="5.81321">
        <ele>308.99564</ele>
        <time>2014-11-22T11:56:48Z</time>
      </trkpt>
      <trkpt lat="45.6896" lon="5.81334">
        <ele>308.79865</ele>
        <time>2014-11-22T11:56:53Z</time>
      </trkpt>
      <trkpt lat="45.68959" lon="5.81344">
        <ele>308.79865</ele>
        <time>2014-11-22T11:56:58Z</time>
      </trkpt>
      <trkpt lat="45.68957" lon="5.81353">
        <ele>308.69894</ele>
        <time>2014-11-22T11:57:03Z</time>
      </trkpt>
      <trkpt lat="45.68955" lon="5.81362">
        <ele>308.69894</ele>
        <time>2014-11-22T11:57:08Z</time>
      </trkpt>
      <trkpt lat="45.68952" lon="5.81373">
        <ele>308.96</ele>
        <time>2014-11-22T11:57:14Z</time>
      </trkpt>
      <trkpt lat="45.6895" lon="5.81383">
        <ele>308.96</ele>
        <time>2014-11-22T11:57:18Z</time>
      </trkpt>
      <trkpt lat="45.68949" lon="5.81394">
        <ele>309.2341</ele>
        <time>2014-11-22T11:57:23Z</time>
      </trkpt>
      <trkpt lat="45.68946" lon="5.81405">
        <ele>309.2341</ele>
        <time>2014-11-22T11:57:28Z</time>
      </trkpt>
      <trkpt lat="45.68944" lon="5.81415">
        <ele>309.77545</ele>
        <time>2014-11-22T11:57:33Z</time>
      </trkpt>
      <trkpt lat="45.68941" lon="5.81424">
        <ele>309.77545</ele>
        <time>2014-11-22T11:57:38Z</time>
      </trkpt>
      <trkpt lat="45.68937" lon="5.81433">
        <ele>310.329</ele>
        <time>2014-11-22T11:57:43Z</time>
      </trkpt>
      <trkpt lat="45.68934" lon="5.81441">
        <ele>310.329</ele>
        <time>2014-11-22T11:57:48Z</time>
      </trkpt>
      <trkpt lat="45.68932" lon="5.81448">
        <ele>310.87454</ele>
        <time>2014-11-22T11:57:53Z</time>
      </trkpt>
      <trkpt lat="45.68927" lon="5.81456">
        <ele>310.87454</ele>
        <time>2014-11-22T11:57:58Z</time>
      </trkpt>
      <trkpt lat="45.68913" lon="5.81473">
        <ele>311.16287</ele>
        <time>2014-11-22T11:58:03Z</time>
      </trkpt>
      <trkpt lat="45.68893" lon="5.81497">
        <ele>311.51157</ele>
        <time>2014-11-22T11:58:08Z</time>
      </trkpt>
      <trkpt lat="45.68875" lon="5.81517">
        <ele>312.0562</ele>
        <time>2014-11-22T11:58:13Z</time>
      </trkpt>
      <trkpt lat="45.6887" lon="5.81528">
        <ele>312.64822</ele>
        <time>2014-11-22T11:58:18Z</time>
      </trkpt>
      <trkpt lat="45.68868" lon="5.81533">
        <ele>312.64822</ele>
        <time>2014-11-22T11:58:23Z</time>
      </trkpt>
      <trkpt lat="45.68866" lon="5.81543">
        <ele>312.40042</ele>
        <time>2014-11-22T11:58:28Z</time>
      </trkpt>
      <trkpt lat="45.68869" lon="5.81559">
        <ele>312.5685</ele>
        <time>2014-11-22T11:58:33Z</time>
      </trkpt>
      <trkpt lat="45.68878" lon="5.81581">
        <ele>313.2485</ele>
        <time>2014-11-22T11:58:38Z</time>
      </trkpt>
      <trkpt lat="45.68888" lon="5.81614">
        <ele>314.38385</ele>
        <time>2014-11-22T11:58:43Z</time>
      </trkpt>
      <trkpt lat="45.68901" lon="5.81649">
        <ele>316.36774</ele>
        <time>2014-11-22T11:58:48Z</time>
      </trkpt>
      <trkpt lat="45.68907" lon="5.81688">
        <ele>318.84174</ele>
        <time>2014-11-22T11:58:53Z</time>
      </trkpt>
      <trkpt lat="45.68907" lon="5.81722">
        <ele>321.55887</ele>
        <time>2014-11-22T11:58:58Z</time>
      </trkpt>
      <trkpt lat="45.68905" lon="5.81757">
        <ele>324.14572</ele>
        <time>2014-11-22T11:59:03Z</time>
      </trkpt>
      <trkpt lat="45.68909" lon="5.81782">
        <ele>327.1071</ele>
        <time>2014-11-22T11:59:08Z</time>
      </trkpt>
      <trkpt lat="45.68919" lon="5.81788">
        <ele>330.44867</ele>
        <time>2014-11-22T11:59:13Z</time>
      </trkpt>
      <trkpt lat="45.68925" lon="5.81795">
        <ele>330.44867</ele>
        <time>2014-11-22T11:59:18Z</time>
      </trkpt>
      <trkpt lat="45.6893" lon="5.81802">
        <ele>333.36783</ele>
        <time>2014-11-22T11:59:23Z</time>
      </trkpt>
      <trkpt lat="45.68935" lon="5.81809">
        <ele>333.36783</ele>
        <time>2014-11-22T11:59:28Z</time>
      </trkpt>
      <trkpt lat="45.6894" lon="5.81815">
        <ele>335.71317</ele>
        <time>2014-11-22T11:59:33Z</time>
      </trkpt>
      <trkpt lat="45.68946" lon="5.81821">
        <ele>335.71317</ele>
        <time>2014-11-22T11:59:38Z</time>
      </trkpt>
      <trkpt lat="45.68952" lon="5.81822">
        <ele>337.56238</ele>
        <time>2014-11-22T11:59:43Z</time>
      </trkpt>
      <trkpt lat="45.6896" lon="5.81821">
        <ele>337.56238</ele>
        <time>2014-11-22T11:59:48Z</time>
      </trkpt>
      <trkpt lat="45.68967" lon="5.81822">
        <ele>339.16208</ele>
        <time>2014-11-22T11:59:53Z</time>
      </trkpt>
      <trkpt lat="45.68972" lon="5.81829">
        <ele>339.16208</ele>
        <time>2014-11-22T11:59:58Z</time>
      </trkpt>
      <trkpt lat="45.68976" lon="5.81837">
        <ele>340.4822</ele>
        <time>2014-11-22T12:00:03Z</time>
      </trkpt>
      <trkpt lat="45.6898" lon="5.81847">
        <ele>340.4822</ele>
        <time>2014-11-22T12:00:08Z</time>
      </trkpt>
      <trkpt lat="45.68981" lon="5.81858">
        <ele>341.81302</ele>
        <time>2014-11-22T12:00:13Z</time>
      </trkpt>
      <trkpt lat="45.68981" lon="5.81867">
        <ele>341.81302</ele>
        <time>2014-11-22T12:00:18Z</time>
      </trkpt>
      <trkpt lat="45.68981" lon="5.81867">
        <ele>341.81302</ele>
        <time>2014-11-22T12:00:23Z</time>
      </trkpt>
      <trkpt lat="45.68981" lon="5.81867">
        <ele>341.81302</ele>
        <time>2014-11-22T12:00:28Z</time>
      </trkpt>
      <trkpt lat="45.68981" lon="5.81867">
        <ele>341.81302</ele>
        <time>2014-11-22T12:00:33Z</time>
      </trkpt>
      <trkpt lat="45.68981" lon="5.81867">
        <ele>341.81302</ele>
        <time>2014-11-22T12:00:38Z</time>
      </trkpt>
      <trkpt lat="45.68981" lon="5.81867">
        <ele>341.81302</ele>
        <time>2014-11-22T12:00:43Z</time>
      </trkpt>
      <trkpt lat="45.68981" lon="5.81867">
        <ele>341.81302</ele>
        <time>2014-11-22T12:00:48Z</time>
      </trkpt>
      <trkpt lat="45.68981" lon="5.81867">
        <ele>341.81302</ele>
        <time>2014-11-22T12:00:53Z</time>
      </trkpt>
      <trkpt lat="45.68981" lon="5.81867">
        <ele>341.81302</ele>
        <time>2014-11-22T12:00:58Z</time>
      </trkpt>
      <trkpt lat="45.68981" lon="5.81867">
        <ele>341.81302</ele>
        <time>2014-11-22T12:01:03Z</time>
      </trkpt>
      <trkpt lat="45.68981" lon="5.81867">
        <ele>341.81302</ele>
        <time>2014-11-22T12:01:08Z</time>
      </trkpt>
      <trkpt lat="45.68981" lon="5.81868">
        <ele>341.81302</ele>
        <time>2014-11-22T12:01:13Z</time>
      </trkpt>
      <trkpt lat="45.68981" lon="5.81868">
        <ele>341.81302</ele>
        <time>2014-11-22T12:01:18Z</time>
      </trkpt>
      <trkpt lat="45.68981" lon="5.81868">
        <ele>341.81302</ele>
        <time>2014-11-22T12:01:23Z</time>
      </trkpt>
      <trkpt lat="45.6898" lon="5.81869">
        <ele>342.89044</ele>
        <time>2014-11-22T12:01:28Z</time>
      </trkpt>
      <trkpt lat="45.68982" lon="5.81878">
        <ele>342.89044</ele>
        <time>2014-11-22T12:01:33Z</time>
      </trkpt>
      <trkpt lat="45.68982" lon="5.81887">
        <ele>343.6869</ele>
        <time>2014-11-22T12:01:38Z</time>
      </trkpt>
      <trkpt lat="45.68983" lon="5.81895">
        <ele>343.6869</ele>
        <time>2014-11-22T12:01:44Z</time>
      </trkpt>
      <trkpt lat="45.68985" lon="5.81905">
        <ele>344.0193</ele>
        <time>2014-11-22T12:01:48Z</time>
      </trkpt>
      <trkpt lat="45.68988" lon="5.81916">
        <ele>344.0193</ele>
        <time>2014-11-22T12:01:53Z</time>
      </trkpt>
      <trkpt lat="45.68992" lon="5.81926">
        <ele>344.56973</ele>
        <time>2014-11-22T12:01:58Z</time>
      </trkpt>
      <trkpt lat="45.68996" lon="5.81934">
        <ele>344.56973</ele>
        <time>2014-11-22T12:02:03Z</time>
      </trkpt>
      <trkpt lat="45.69001" lon="5.8194">
        <ele>344.94666</ele>
        <time>2014-11-22T12:02:08Z</time>
      </trkpt>
      <trkpt lat="45.69004" lon="5.81948">
        <ele>344.94666</ele>
        <time>2014-11-22T12:02:13Z</time>
      </trkpt>
      <trkpt lat="45.69005" lon="5.81957">
        <ele>345.42197</ele>
        <time>2014-11-22T12:02:18Z</time>
      </trkpt>
      <trkpt lat="45.69005" lon="5.81965">
        <ele>345.42197</ele>
        <time>2014-11-22T12:02:23Z</time>
      </trkpt>
      <trkpt lat="45.69006" lon="5.81968">
        <ele>345.42197</ele>
        <time>2014-11-22T12:02:28Z</time>
      </trkpt>
      <trkpt lat="45.69008" lon="5.81977">
        <ele>345.36844</ele>
        <time>2014-11-22T12:02:33Z</time>
      </trkpt>
      <trkpt lat="45.69009" lon="5.81985">
        <ele>345.36844</ele>
        <time>2014-11-22T12:02:38Z</time>
      </trkpt>
      <trkpt lat="45.69007" lon="5.81994">
        <ele>345.2297</ele>
        <time>2014-11-22T12:02:43Z</time>
      </trkpt>
      <trkpt lat="45.69006" lon="5.82008">
        <ele>345.25873</ele>
        <time>2014-11-22T12:02:48Z</time>
      </trkpt>
      <trkpt lat="45.69004" lon="5.82014">
        <ele>345.25873</ele>
        <time>2014-11-22T12:02:53Z</time>
      </trkpt>
      <trkpt lat="45.69003" lon="5.82023">
        <ele>345.27158</ele>
        <time>2014-11-22T12:02:58Z</time>
      </trkpt>
      <trkpt lat="45.68999" lon="5.8204">
        <ele>345.35736</ele>
        <time>2014-11-22T12:03:03Z</time>
      </trkpt>
      <trkpt lat="45.68991" lon="5.82054">
        <ele>345.15182</ele>
        <time>2014-11-22T12:03:08Z</time>
      </trkpt>
      <trkpt lat="45.68983" lon="5.8207">
        <ele>345.09662</ele>
        <time>2014-11-22T12:03:13Z</time>
      </trkpt>
      <trkpt lat="45.68975" lon="5.82088">
        <ele>345.1826</ele>
        <time>2014-11-22T12:03:18Z</time>
      </trkpt>
      <trkpt lat="45.68969" lon="5.82101">
        <ele>345.37213</ele>
        <time>2014-11-22T12:03:23Z</time>
      </trkpt>
      <trkpt lat="45.6896" lon="5.82116">
        <ele>345.60138</ele>
        <time>2014-11-22T12:03:28Z</time>
      </trkpt>
      <trkpt lat="45.6895" lon="5.82133">
        <ele>345.73898</ele>
        <time>2014-11-22T12:03:33Z</time>
      </trkpt>
      <trkpt lat="45.68941" lon="5.82152">
        <ele>345.8941</ele>
        <time>2014-11-22T12:03:38Z</time>
      </trkpt>
      <trkpt lat="45.68932" lon="5.8217">
        <ele>346.03824</ele>
        <time>2014-11-22T12:03:44Z</time>
      </trkpt>
      <trkpt lat="45.68923" lon="5.82188">
        <ele>346.23145</ele>
        <time>2014-11-22T12:03:48Z</time>
      </trkpt>
      <trkpt lat="45.68914" lon="5.82206">
        <ele>346.44275</ele>
        <time>2014-11-22T12:03:53Z</time>
      </trkpt>
      <trkpt lat="45.68905" lon="5.82224">
        <ele>346.72995</ele>
        <time>2014-11-22T12:03:58Z</time>
      </trkpt>
      <trkpt lat="45.68896" lon="5.8224">
        <ele>346.91574</ele>
        <time>2014-11-22T12:04:03Z</time>
      </trkpt>
      <trkpt lat="45.6889" lon="5.82255">
        <ele>346.99472</ele>
        <time>2014-11-22T12:04:08Z</time>
      </trkpt>
      <trkpt lat="45.68887" lon="5.82267">
        <ele>347.43765</ele>
        <time>2014-11-22T12:04:13Z</time>
      </trkpt>
      <trkpt lat="45.68883" lon="5.82279">
        <ele>347.43765</ele>
        <time>2014-11-22T12:04:18Z</time>
      </trkpt>
      <trkpt lat="45.68879" lon="5.82288">
        <ele>348.161</ele>
        <time>2014-11-22T12:04:23Z</time>
      </trkpt>
      <trkpt lat="45.68875" lon="5.82299">
        <ele>348.161</ele>
        <time>2014-11-22T12:04:28Z</time>
      </trkpt>
      <trkpt lat="45.68873" lon="5.82308">
        <ele>348.89914</ele>
        <time>2014-11-22T12:04:33Z</time>
      </trkpt>
      <trkpt lat="45.6887" lon="5.82319">
        <ele>348.89914</ele>
        <time>2014-11-22T12:04:38Z</time>
      </trkpt>
      <trkpt lat="45.68868" lon="5.82326">
        <ele>349.42038</ele>
        <time>2014-11-22T12:04:43Z</time>
      </trkpt>
      <trkpt lat="45.68865" lon="5.82337">
        <ele>349.42038</ele>
        <time>2014-11-22T12:04:48Z</time>
      </trkpt>
      <trkpt lat="45.68864" lon="5.82348">
        <ele>350.04376</ele>
        <time>2014-11-22T12:04:53Z</time>
      </trkpt>
      <trkpt lat="45.68864" lon="5.82358">
        <ele>350.04376</ele>
        <time>2014-11-22T12:04:58Z</time>
      </trkpt>
      <trkpt lat="45.68866" lon="5.8237">
        <ele>350.89175</ele>
        <time>2014-11-22T12:05:03Z</time>
      </trkpt>
      <trkpt lat="45.68868" lon="5.82378">
        <ele>350.89175</ele>
        <time>2014-11-22T12:05:08Z</time>
      </trkpt>
      <trkpt lat="45.68872" lon="5.82388">
        <ele>351.73132</ele>
        <time>2014-11-22T12:05:13Z</time>
      </trkpt>
      <trkpt lat="45.68876" lon="5.82398">
        <ele>351.73132</ele>
        <time>2014-11-22T12:05:18Z</time>
      </trkpt>
      <trkpt lat="45.68879" lon="5.82407">
        <ele>352.9662</ele>
        <time>2014-11-22T12:05:23Z</time>
      </trkpt>
      <trkpt lat="45.68883" lon="5.82416">
        <ele>352.9662</ele>
        <time>2014-11-22T12:05:28Z</time>
      </trkpt>
      <trkpt lat="45.68886" lon="5.8243">
        <ele>354.2776</ele>
        <time>2014-11-22T12:05:33Z</time>
      </trkpt>
      <trkpt lat="45.68886" lon="5.82445">
        <ele>355.44202</ele>
        <time>2014-11-22T12:05:38Z</time>
      </trkpt>
      <trkpt lat="45.68884" lon="5.82459">
        <ele>356.58426</ele>
        <time>2014-11-22T12:05:43Z</time>
      </trkpt>
      <trkpt lat="45.6888" lon="5.82474">
        <ele>357.44534</ele>
        <time>2014-11-22T12:05:48Z</time>
      </trkpt>
      <trkpt lat="45.68878" lon="5.82488">
        <ele>358.52106</ele>
        <time>2014-11-22T12:05:53Z</time>
      </trkpt>
      <trkpt lat="45.68875" lon="5.82498">
        <ele>358.52106</ele>
        <time>2014-11-22T12:05:58Z</time>
      </trkpt>
      <trkpt lat="45.68874" lon="5.82506">
        <ele>359.4055</ele>
        <time>2014-11-22T12:06:03Z</time>
      </trkpt>
      <trkpt lat="45.68872" lon="5.82515">
        <ele>359.4055</ele>
        <time>2014-11-22T12:06:08Z</time>
      </trkpt>
      <trkpt lat="45.68872" lon="5.82525">
        <ele>360.34283</ele>
        <time>2014-11-22T12:06:13Z</time>
      </trkpt>
      <trkpt lat="45.6887" lon="5.82533">
        <ele>360.34283</ele>
        <time>2014-11-22T12:06:18Z</time>
      </trkpt>
      <trkpt lat="45.68869" lon="5.82543">
        <ele>361.37177</ele>
        <time>2014-11-22T12:06:23Z</time>
      </trkpt>
      <trkpt lat="45.68867" lon="5.82554">
        <ele>361.37177</ele>
        <time>2014-11-22T12:06:28Z</time>
      </trkpt>
      <trkpt lat="45.68866" lon="5.82563">
        <ele>362.48477</ele>
        <time>2014-11-22T12:06:33Z</time>
      </trkpt>
      <trkpt lat="45.68866" lon="5.82572">
        <ele>362.48477</ele>
        <time>2014-11-22T12:06:38Z</time>
      </trkpt>
      <trkpt lat="45.68867" lon="5.82581">
        <ele>364.1934</ele>
        <time>2014-11-22T12:06:43Z</time>
      </trkpt>
      <trkpt lat="45.68865" lon="5.82593">
        <ele>364.1934</ele>
        <time>2014-11-22T12:06:48Z</time>
      </trkpt>
      <trkpt lat="45.68864" lon="5.82602">
        <ele>365.86026</ele>
        <time>2014-11-22T12:06:53Z</time>
      </trkpt>
      <trkpt lat="45.68864" lon="5.82612">
        <ele>365.86026</ele>
        <time>2014-11-22T12:06:58Z</time>
      </trkpt>
      <trkpt lat="45.68864" lon="5.82622">
        <ele>367.77414</ele>
        <time>2014-11-22T12:07:03Z</time>
      </trkpt>
      <trkpt lat="45.68864" lon="5.82632">
        <ele>367.77414</ele>
        <time>2014-11-22T12:07:08Z</time>
      </trkpt>
      <trkpt lat="45.68864" lon="5.82642">
        <ele>369.92804</ele>
        <time>2014-11-22T12:07:13Z</time>
      </trkpt>
      <trkpt lat="45.68863" lon="5.82655">
        <ele>372.08432</ele>
        <time>2014-11-22T12:07:18Z</time>
      </trkpt>
      <trkpt lat="45.68863" lon="5.82664">
        <ele>372.08432</ele>
        <time>2014-11-22T12:07:23Z</time>
      </trkpt>
      <trkpt lat="45.68862" lon="5.82672">
        <ele>373.86423</ele>
        <time>2014-11-22T12:07:28Z</time>
      </trkpt>
      <trkpt lat="45.68861" lon="5.82683">
        <ele>373.86423</ele>
        <time>2014-11-22T12:07:33Z</time>
      </trkpt>
      <trkpt lat="45.68859" lon="5.82694">
        <ele>375.60977</ele>
        <time>2014-11-22T12:07:38Z</time>
      </trkpt>
      <trkpt lat="45.68859" lon="5.82706">
        <ele>375.60977</ele>
        <time>2014-11-22T12:07:44Z</time>
      </trkpt>
      <trkpt lat="45.68859" lon="5.82718">
        <ele>377.72443</ele>
        <time>2014-11-22T12:07:48Z</time>
      </trkpt>
      <trkpt lat="45.68856" lon="5.82729">
        <ele>377.72443</ele>
        <time>2014-11-22T12:07:53Z</time>
      </trkpt>
      <trkpt lat="45.68856" lon="5.82737">
        <ele>379.64432</ele>
        <time>2014-11-22T12:07:58Z</time>
      </trkpt>
      <trkpt lat="45.68855" lon="5.82747">
        <ele>379.64432</ele>
        <time>2014-11-22T12:08:04Z</time>
      </trkpt>
      <trkpt lat="45.68855" lon="5.82758">
        <ele>381.4817</ele>
        <time>2014-11-22T12:08:08Z</time>
      </trkpt>
      <trkpt lat="45.68856" lon="5.82767">
        <ele>381.4817</ele>
        <time>2014-11-22T12:08:13Z</time>
      </trkpt>
      <trkpt lat="45.68855" lon="5.82777">
        <ele>383.00943</ele>
        <time>2014-11-22T12:08:18Z</time>
      </trkpt>
      <trkpt lat="45.68855" lon="5.82787">
        <ele>383.00943</ele>
        <time>2014-11-22T12:08:23Z</time>
      </trkpt>
      <trkpt lat="45.68854" lon="5.82797">
        <ele>384.65207</ele>
        <time>2014-11-22T12:08:28Z</time>
      </trkpt>
      <trkpt lat="45.68855" lon="5.82806">
        <ele>384.65207</ele>
        <time>2014-11-22T12:08:33Z</time>
      </trkpt>
      <trkpt lat="45.68855" lon="5.82817">
        <ele>386.3849</ele>
        <time>2014-11-22T12:08:39Z</time>
      </trkpt>
      <trkpt lat="45.68856" lon="5.82826">
        <ele>386.3849</ele>
        <time>2014-11-22T12:08:44Z</time>
      </trkpt>
      <trkpt lat="45.68857" lon="5.82836">
        <ele>388.1991</ele>
        <time>2014-11-22T12:08:48Z</time>
      </trkpt>
      <trkpt lat="45.68857" lon="5.82848">
        <ele>388.1991</ele>
        <time>2014-11-22T12:08:53Z</time>
      </trkpt>
      <trkpt lat="45.68857" lon="5.82858">
        <ele>389.74063</ele>
        <time>2014-11-22T12:08:59Z</time>
      </trkpt>
      <trkpt lat="45.68857" lon="5.82868">
        <ele>389.74063</ele>
        <time>2014-11-22T12:09:03Z</time>
      </trkpt>
      <trkpt lat="45.68855" lon="5.82878">
        <ele>391.2298</ele>
        <time>2014-11-22T12:09:08Z</time>
      </trkpt>
      <trkpt lat="45.68854" lon="5.82888">
        <ele>391.2298</ele>
        <time>2014-11-22T12:09:13Z</time>
      </trkpt>
      <trkpt lat="45.68854" lon="5.82897">
        <ele>392.82782</ele>
        <time>2014-11-22T12:09:18Z</time>
      </trkpt>
      <trkpt lat="45.68853" lon="5.82906">
        <ele>392.82782</ele>
        <time>2014-11-22T12:09:23Z</time>
      </trkpt>
      <trkpt lat="45.68852" lon="5.82918">
        <ele>394.66934</ele>
        <time>2014-11-22T12:09:28Z</time>
      </trkpt>
      <trkpt lat="45.68851" lon="5.82925">
        <ele>394.66934</ele>
        <time>2014-11-22T12:09:33Z</time>
      </trkpt>
      <trkpt lat="45.68852" lon="5.82936">
        <ele>396.89297</ele>
        <time>2014-11-22T12:09:38Z</time>
      </trkpt>
      <trkpt lat="45.68853" lon="5.82945">
        <ele>396.89297</ele>
        <time>2014-11-22T12:09:43Z</time>
      </trkpt>
      <trkpt lat="45.68855" lon="5.82953">
        <ele>398.86234</ele>
        <time>2014-11-22T12:09:48Z</time>
      </trkpt>
      <trkpt lat="45.68857" lon="5.8296">
        <ele>398.86234</ele>
        <time>2014-11-22T12:09:53Z</time>
      </trkpt>
      <trkpt lat="45.68858" lon="5.8297">
        <ele>401.0406</ele>
        <time>2014-11-22T12:09:59Z</time>
      </trkpt>
      <trkpt lat="45.6886" lon="5.82976">
        <ele>401.0406</ele>
        <time>2014-11-22T12:10:03Z</time>
      </trkpt>
      <trkpt lat="45.68861" lon="5.82984">
        <ele>402.66025</ele>
        <time>2014-11-22T12:10:09Z</time>
      </trkpt>
      <trkpt lat="45.68862" lon="5.82993">
        <ele>402.66025</ele>
        <time>2014-11-22T12:10:14Z</time>
      </trkpt>
      <trkpt lat="45.68864" lon="5.83002">
        <ele>404.45294</ele>
        <time>2014-11-22T12:10:18Z</time>
      </trkpt>
      <trkpt lat="45.68865" lon="5.83013">
        <ele>404.45294</ele>
        <time>2014-11-22T12:10:23Z</time>
      </trkpt>
      <trkpt lat="45.68866" lon="5.83022">
        <ele>406.7215</ele>
        <time>2014-11-22T12:10:28Z</time>
      </trkpt>
      <trkpt lat="45.68865" lon="5.83028">
        <ele>406.7215</ele>
        <time>2014-11-22T12:10:33Z</time>
      </trkpt>
      <trkpt lat="45.68866" lon="5.83037">
        <ele>408.40497</ele>
        <time>2014-11-22T12:10:38Z</time>
      </trkpt>
      <trkpt lat="45.68867" lon="5.83046">
        <ele>408.40497</ele>
        <time>2014-11-22T12:10:43Z</time>
      </trkpt>
      <trkpt lat="45.68869" lon="5.83056">
        <ele>409.77588</ele>
        <time>2014-11-22T12:10:48Z</time>
      </trkpt>
      <trkpt lat="45.68871" lon="5.83066">
        <ele>409.77588</ele>
        <time>2014-11-22T12:10:53Z</time>
      </trkpt>
      <trkpt lat="45.68872" lon="5.83074">
        <ele>411.62082</ele>
        <time>2014-11-22T12:10:58Z</time>
      </trkpt>
      <trkpt lat="45.68872" lon="5.83083">
        <ele>411.62082</ele>
        <time>2014-11-22T12:11:03Z</time>
      </trkpt>
      <trkpt lat="45.68871" lon="5.83093">
        <ele>413.3127</ele>
        <time>2014-11-22T12:11:09Z</time>
      </trkpt>
      <trkpt lat="45.68873" lon="5.83103">
        <ele>413.3127</ele>
        <time>2014-11-22T12:11:13Z</time>
      </trkpt>
      <trkpt lat="45.68873" lon="5.83111">
        <ele>414.0982</ele>
        <time>2014-11-22T12:11:18Z</time>
      </trkpt>
      <trkpt lat="45.68872" lon="5.83123">
        <ele>414.0982</ele>
        <time>2014-11-22T12:11:24Z</time>
      </trkpt>
      <trkpt lat="45.68872" lon="5.83134">
        <ele>414.75168</ele>
        <time>2014-11-22T12:11:28Z</time>
      </trkpt>
      <trkpt lat="45.68875" lon="5.83145">
        <ele>414.75168</ele>
        <time>2014-11-22T12:11:33Z</time>
      </trkpt>
      <trkpt lat="45.68877" lon="5.83152">
        <ele>415.3571</ele>
        <time>2014-11-22T12:11:39Z</time>
      </trkpt>
      <trkpt lat="45.68878" lon="5.83156">
        <ele>415.3571</ele>
        <time>2014-11-22T12:11:43Z</time>
      </trkpt>
      <trkpt lat="45.68879" lon="5.83161">
        <ele>415.3571</ele>
        <time>2014-11-22T12:11:48Z</time>
      </trkpt>
      <trkpt lat="45.68881" lon="5.8317">
        <ele>417.1308</ele>
        <time>2014-11-22T12:11:53Z</time>
      </trkpt>
      <trkpt lat="45.68883" lon="5.83181">
        <ele>417.1308</ele>
        <time>2014-11-22T12:11:58Z</time>
      </trkpt>
      <trkpt lat="45.68887" lon="5.83192">
        <ele>418.6458</ele>
        <time>2014-11-22T12:12:03Z</time>
      </trkpt>
      <trkpt lat="45.68887" lon="5.83204">
        <ele>418.6458</ele>
        <time>2014-11-22T12:12:08Z</time>
      </trkpt>
      <trkpt lat="45.68891" lon="5.83216">
        <ele>420.54074</ele>
        <time>2014-11-22T12:12:13Z</time>
      </trkpt>
      <trkpt lat="45.68892" lon="5.83225">
        <ele>420.54074</ele>
        <time>2014-11-22T12:12:18Z</time>
      </trkpt>
      <trkpt lat="45.68895" lon="5.83232">
        <ele>422.4694</ele>
        <time>2014-11-22T12:12:23Z</time>
      </trkpt>
      <trkpt lat="45.68896" lon="5.83239">
        <ele>422.4694</ele>
        <time>2014-11-22T12:12:28Z</time>
      </trkpt>
      <trkpt lat="45.68899" lon="5.83245">
        <ele>424.2984</ele>
        <time>2014-11-22T12:12:33Z</time>
      </trkpt>
      <trkpt lat="45.689" lon="5.83246">
        <ele>424.2984</ele>
        <time>2014-11-22T12:12:38Z</time>
      </trkpt>
      <trkpt lat="45.68902" lon="5.83253">
        <ele>424.2984</ele>
        <time>2014-11-22T12:12:43Z</time>
      </trkpt>
      <trkpt lat="45.68903" lon="5.83259">
        <ele>426.3944</ele>
        <time>2014-11-22T12:12:49Z</time>
      </trkpt>
      <trkpt lat="45.68905" lon="5.83266">
        <ele>426.3944</ele>
        <time>2014-11-22T12:12:53Z</time>
      </trkpt>
      <trkpt lat="45.68907" lon="5.83276">
        <ele>427.8859</ele>
        <time>2014-11-22T12:12:58Z</time>
      </trkpt>
      <trkpt lat="45.68907" lon="5.83277">
        <ele>427.8859</ele>
        <time>2014-11-22T12:13:03Z</time>
      </trkpt>
      <trkpt lat="45.68908" lon="5.83286">
        <ele>427.8859</ele>
        <time>2014-11-22T12:13:08Z</time>
      </trkpt>
      <trkpt lat="45.68909" lon="5.83295">
        <ele>429.61</ele>
        <time>2014-11-22T12:13:13Z</time>
      </trkpt>
      <trkpt lat="45.68911" lon="5.83303">
        <ele>429.61</ele>
        <time>2014-11-22T12:13:19Z</time>
      </trkpt>
      <trkpt lat="45.6891" lon="5.83312">
        <ele>431.28967</ele>
        <time>2014-11-22T12:13:23Z</time>
      </trkpt>
      <trkpt lat="45.68913" lon="5.83321">
        <ele>431.28967</ele>
        <time>2014-11-22T12:13:28Z</time>
      </trkpt>
      <trkpt lat="45.68913" lon="5.83329">
        <ele>432.8558</ele>
        <time>2014-11-22T12:13:33Z</time>
      </trkpt>
      <trkpt lat="45.68915" lon="5.83334">
        <ele>432.8558</ele>
        <time>2014-11-22T12:13:38Z</time>
      </trkpt>
      <trkpt lat="45.68916" lon="5.8334">
        <ele>432.8558</ele>
        <time>2014-11-22T12:13:43Z</time>
      </trkpt>
      <trkpt lat="45.68917" lon="5.83348">
        <ele>434.20142</ele>
        <time>2014-11-22T12:13:48Z</time>
      </trkpt>
      <trkpt lat="45.6892" lon="5.83356">
        <ele>434.20142</ele>
        <time>2014-11-22T12:13:53Z</time>
      </trkpt>
      <trkpt lat="45.68922" lon="5.83365">
        <ele>436.43854</ele>
        <time>2014-11-22T12:13:58Z</time>
      </trkpt>
      <trkpt lat="45.68924" lon="5.8337">
        <ele>436.43854</ele>
        <time>2014-11-22T12:14:03Z</time>
      </trkpt>
      <trkpt lat="45.68924" lon="5.83374">
        <ele>436.43854</ele>
        <time>2014-11-22T12:14:08Z</time>
      </trkpt>
      <trkpt lat="45.68926" lon="5.83389">
        <ele>439.1252</ele>
        <time>2014-11-22T12:14:13Z</time>
      </trkpt>
      <trkpt lat="45.68928" lon="5.83396">
        <ele>439.1252</ele>
        <time>2014-11-22T12:14:18Z</time>
      </trkpt>
      <trkpt lat="45.68931" lon="5.83405">
        <ele>442.28293</ele>
        <time>2014-11-22T12:14:23Z</time>
      </trkpt>
      <trkpt lat="45.68931" lon="5.83406">
        <ele>442.28293</ele>
        <time>2014-11-22T12:14:29Z</time>
      </trkpt>
      <trkpt lat="45.68932" lon="5.8341">
        <ele>442.28293</ele>
        <time>2014-11-22T12:14:33Z</time>
      </trkpt>
      <trkpt lat="45.68934" lon="5.83417">
        <ele>442.28293</ele>
        <time>2014-11-22T12:14:38Z</time>
      </trkpt>
      <trkpt lat="45.68934" lon="5.83417">
        <ele>445.7719</ele>
        <time>2014-11-22T12:14:43Z</time>
      </trkpt>
      <trkpt lat="45.68936" lon="5.83425">
        <ele>445.7719</ele>
        <time>2014-11-22T12:14:48Z</time>
      </trkpt>
      <trkpt lat="45.68941" lon="5.83435">
        <ele>448.23672</ele>
        <time>2014-11-22T12:14:53Z</time>
      </trkpt>
      <trkpt lat="45.68943" lon="5.83443">
        <ele>448.23672</ele>
        <time>2014-11-22T12:14:58Z</time>
      </trkpt>
      <trkpt lat="45.68948" lon="5.8345">
        <ele>450.38443</ele>
        <time>2014-11-22T12:15:03Z</time>
      </trkpt>
      <trkpt lat="45.68951" lon="5.83454">
        <ele>450.38443</ele>
        <time>2014-11-22T12:15:08Z</time>
      </trkpt>
      <trkpt lat="45.68954" lon="5.83464">
        <ele>452.40982</ele>
        <time>2014-11-22T12:15:14Z</time>
      </trkpt>
      <trkpt lat="45.68958" lon="5.83471">
        <ele>452.40982</ele>
        <time>2014-11-22T12:15:18Z</time>
      </trkpt>
      <trkpt lat="45.68959" lon="5.83478">
        <ele>453.65808</ele>
        <time>2014-11-22T12:15:23Z</time>
      </trkpt>
      <trkpt lat="45.68964" lon="5.83483">
        <ele>453.65808</ele>
        <time>2014-11-22T12:15:28Z</time>
      </trkpt>
      <trkpt lat="45.68967" lon="5.83487">
        <ele>454.28842</ele>
        <time>2014-11-22T12:15:33Z</time>
      </trkpt>
      <trkpt lat="45.68967" lon="5.83491">
        <ele>454.28842</ele>
        <time>2014-11-22T12:15:38Z</time>
      </trkpt>
      <trkpt lat="45.6897" lon="5.83496">
        <ele>454.28842</ele>
        <time>2014-11-22T12:15:43Z</time>
      </trkpt>
      <trkpt lat="45.68974" lon="5.83499">
        <ele>454.49338</ele>
        <time>2014-11-22T12:15:48Z</time>
      </trkpt>
      <trkpt lat="45.6898" lon="5.83502">
        <ele>454.49338</ele>
        <time>2014-11-22T12:15:53Z</time>
      </trkpt>
      <trkpt lat="45.68986" lon="5.83506">
        <ele>455.79285</ele>
        <time>2014-11-22T12:15:58Z</time>
      </trkpt>
      <trkpt lat="45.6899" lon="5.83512">
        <ele>455.79285</ele>
        <time>2014-11-22T12:16:03Z</time>
      </trkpt>
      <trkpt lat="45.68994" lon="5.83517">
        <ele>456.4504</ele>
        <time>2014-11-22T12:16:08Z</time>
      </trkpt>
      <trkpt lat="45.68996" lon="5.83519">
        <ele>456.4504</ele>
        <time>2014-11-22T12:16:13Z</time>
      </trkpt>
      <trkpt lat="45.68999" lon="5.83526">
        <ele>456.4504</ele>
        <time>2014-11-22T12:16:19Z</time>
      </trkpt>
      <trkpt lat="45.69005" lon="5.83531">
        <ele>455.72363</ele>
        <time>2014-11-22T12:16:23Z</time>
      </trkpt>
      <trkpt lat="45.69009" lon="5.83537">
        <ele>455.72363</ele>
        <time>2014-11-22T12:16:28Z</time>
      </trkpt>
      <trkpt lat="45.69014" lon="5.83541">
        <ele>454.60022</ele>
        <time>2014-11-22T12:16:33Z</time>
      </trkpt>
      <trkpt lat="45.69018" lon="5.83546">
        <ele>454.60022</ele>
        <time>2014-11-22T12:16:39Z</time>
      </trkpt>
      <trkpt lat="45.69022" lon="5.8355">
        <ele>453.07413</ele>
        <time>2014-11-22T12:16:43Z</time>
      </trkpt>
      <trkpt lat="45.69028" lon="5.83555">
        <ele>453.07413</ele>
        <time>2014-11-22T12:16:48Z</time>
      </trkpt>
      <trkpt lat="45.69032" lon="5.83559">
        <ele>451.51547</ele>
        <time>2014-11-22T12:16:53Z</time>
      </trkpt>
      <trkpt lat="45.69036" lon="5.83564">
        <ele>451.51547</ele>
        <time>2014-11-22T12:16:58Z</time>
      </trkpt>
      <trkpt lat="45.69043" lon="5.8357">
        <ele>450.26727</ele>
        <time>2014-11-22T12:17:04Z</time>
      </trkpt>
      <trkpt lat="45.69049" lon="5.83574">
        <ele>450.26727</ele>
        <time>2014-11-22T12:17:08Z</time>
      </trkpt>
      <trkpt lat="45.6906" lon="5.83577">
        <ele>449.1564</ele>
        <time>2014-11-22T12:17:14Z</time>
      </trkpt>
      <trkpt lat="45.69067" lon="5.83582">
        <ele>449.1564</ele>
        <time>2014-11-22T12:17:18Z</time>
      </trkpt>
      <trkpt lat="45.69071" lon="5.83584">
        <ele>449.0019</ele>
        <time>2014-11-22T12:17:23Z</time>
      </trkpt>
      <trkpt lat="45.69079" lon="5.8359">
        <ele>449.91135</ele>
        <time>2014-11-22T12:17:28Z</time>
      </trkpt>
      <trkpt lat="45.69092" lon="5.83597">
        <ele>451.43372</ele>
        <time>2014-11-22T12:17:33Z</time>
      </trkpt>
      <trkpt lat="45.69103" lon="5.83602">
        <ele>453.25015</ele>
        <time>2014-11-22T12:17:38Z</time>
      </trkpt>
      <trkpt lat="45.69109" lon="5.83604">
        <ele>453.25015</ele>
        <time>2014-11-22T12:17:44Z</time>
      </trkpt>
      <trkpt lat="45.69115" lon="5.83612">
        <ele>456.85123</ele>
        <time>2014-11-22T12:17:48Z</time>
      </trkpt>
      <trkpt lat="45.69113" lon="5.83615">
        <ele>456.85123</ele>
        <time>2014-11-22T12:17:53Z</time>
      </trkpt>
      <trkpt lat="45.69116" lon="5.83622">
        <ele>456.85123</ele>
        <time>2014-11-22T12:17:58Z</time>
      </trkpt>
      <trkpt lat="45.69123" lon="5.83622">
        <ele>460.73077</ele>
        <time>2014-11-22T12:18:03Z</time>
      </trkpt>
      <trkpt lat="45.6913" lon="5.83624">
        <ele>460.73077</ele>
        <time>2014-11-22T12:18:08Z</time>
      </trkpt>
      <trkpt lat="45.69133" lon="5.83624">
        <ele>464.4579</ele>
        <time>2014-11-22T12:18:13Z</time>
      </trkpt>
      <trkpt lat="45.69136" lon="5.83627">
        <ele>464.4579</ele>
        <time>2014-11-22T12:18:18Z</time>
      </trkpt>
      <trkpt lat="45.69141" lon="5.83629">
        <ele>467.76343</ele>
        <time>2014-11-22T12:18:23Z</time>
      </trkpt>
      <trkpt lat="45.69146" lon="5.83631">
        <ele>467.76343</ele>
        <time>2014-11-22T12:18:28Z</time>
      </trkpt>
      <trkpt lat="45.69149" lon="5.8363">
        <ele>467.76343</ele>
        <time>2014-11-22T12:18:33Z</time>
      </trkpt>
      <trkpt lat="45.69157" lon="5.83635">
        <ele>471.37912</ele>
        <time>2014-11-22T12:18:38Z</time>
      </trkpt>
      <trkpt lat="45.69161" lon="5.83638">
        <ele>471.37912</ele>
        <time>2014-11-22T12:18:43Z</time>
      </trkpt>
      <trkpt lat="45.69164" lon="5.83643">
        <ele>474.26715</ele>
        <time>2014-11-22T12:18:48Z</time>
      </trkpt>
      <trkpt lat="45.69165" lon="5.83643">
        <ele>474.26715</ele>
        <time>2014-11-22T12:18:53Z</time>
      </trkpt>
      <trkpt lat="45.69167" lon="5.83646">
        <ele>474.26715</ele>
        <time>2014-11-22T12:18:58Z</time>
      </trkpt>
      <trkpt lat="45.69169" lon="5.83648">
        <ele>474.26715</ele>
        <time>2014-11-22T12:19:03Z</time>
      </trkpt>
      <trkpt lat="45.69173" lon="5.83651">
        <ele>476.17413</ele>
        <time>2014-11-22T12:19:08Z</time>
      </trkpt>
      <trkpt lat="45.69178" lon="5.83655">
        <ele>476.17413</ele>
        <time>2014-11-22T12:19:13Z</time>
      </trkpt>
      <trkpt lat="45.69181" lon="5.83657">
        <ele>476.17413</ele>
        <time>2014-11-22T12:19:18Z</time>
      </trkpt>
      <trkpt lat="45.69185" lon="5.83659">
        <ele>477.50214</ele>
        <time>2014-11-22T12:19:23Z</time>
      </trkpt>
      <trkpt lat="45.69187" lon="5.83661">
        <ele>477.50214</ele>
        <time>2014-11-22T12:19:28Z</time>
      </trkpt>
      <trkpt lat="45.69191" lon="5.83662">
        <ele>477.50214</ele>
        <time>2014-11-22T12:19:34Z</time>
      </trkpt>
      <trkpt lat="45.69198" lon="5.83667">
        <ele>478.5389</ele>
        <time>2014-11-22T12:19:38Z</time>
      </trkpt>
      <trkpt lat="45.69202" lon="5.8367">
        <ele>478.5389</ele>
        <time>2014-11-22T12:19:43Z</time>
      </trkpt>
      <trkpt lat="45.69208" lon="5.83676">
        <ele>479.06192</ele>
        <time>2014-11-22T12:19:48Z</time>
      </trkpt>
      <trkpt lat="45.69213" lon="5.8368">
        <ele>479.06192</ele>
        <time>2014-11-22T12:19:53Z</time>
      </trkpt>
      <trkpt lat="45.69217" lon="5.83684">
        <ele>479.50046</ele>
        <time>2014-11-22T12:19:58Z</time>
      </trkpt>
      <trkpt lat="45.69221" lon="5.83692">
        <ele>479.50046</ele>
        <time>2014-11-22T12:20:03Z</time>
      </trkpt>
      <trkpt lat="45.6923" lon="5.83697">
        <ele>480.51202</ele>
        <time>2014-11-22T12:20:08Z</time>
      </trkpt>
      <trkpt lat="45.69238" lon="5.83703">
        <ele>480.51202</ele>
        <time>2014-11-22T12:20:13Z</time>
      </trkpt>
      <trkpt lat="45.69244" lon="5.83708">
        <ele>481.50803</ele>
        <time>2014-11-22T12:20:18Z</time>
      </trkpt>
      <trkpt lat="45.69248" lon="5.8371">
        <ele>481.50803</ele>
        <time>2014-11-22T12:20:23Z</time>
      </trkpt>
      <trkpt lat="45.69253" lon="5.83715">
        <ele>482.76465</ele>
        <time>2014-11-22T12:20:28Z</time>
      </trkpt>
      <trkpt lat="45.69255" lon="5.83721">
        <ele>482.76465</ele>
        <time>2014-11-22T12:20:33Z</time>
      </trkpt>
      <trkpt lat="45.69258" lon="5.83727">
        <ele>483.1535</ele>
        <time>2014-11-22T12:20:38Z</time>
      </trkpt>
      <trkpt lat="45.69263" lon="5.8373">
        <ele>483.1535</ele>
        <time>2014-11-22T12:20:43Z</time>
      </trkpt>
      <trkpt lat="45.69268" lon="5.83736">
        <ele>483.1015</ele>
        <time>2014-11-22T12:20:48Z</time>
      </trkpt>
      <trkpt lat="45.69274" lon="5.83742">
        <ele>483.1015</ele>
        <time>2014-11-22T12:20:53Z</time>
      </trkpt>
      <trkpt lat="45.69283" lon="5.83748">
        <ele>483.72598</ele>
        <time>2014-11-22T12:20:58Z</time>
      </trkpt>
      <trkpt lat="45.6929" lon="5.83755">
        <ele>483.72598</ele>
        <time>2014-11-22T12:21:03Z</time>
      </trkpt>
      <trkpt lat="45.69296" lon="5.83761">
        <ele>484.95056</ele>
        <time>2014-11-22T12:21:08Z</time>
      </trkpt>
      <trkpt lat="45.69303" lon="5.83767">
        <ele>484.95056</ele>
        <time>2014-11-22T12:21:13Z</time>
      </trkpt>
      <trkpt lat="45.69306" lon="5.83769">
        <ele>486.76053</ele>
        <time>2014-11-22T12:21:18Z</time>
      </trkpt>
      <trkpt lat="45.69309" lon="5.83772">
        <ele>486.76053</ele>
        <time>2014-11-22T12:21:23Z</time>
      </trkpt>
      <trkpt lat="45.69315" lon="5.8378">
        <ele>488.43427</ele>
        <time>2014-11-22T12:21:28Z</time>
      </trkpt>
      <trkpt lat="45.69319" lon="5.83785">
        <ele>488.43427</ele>
        <time>2014-11-22T12:21:33Z</time>
      </trkpt>
      <trkpt lat="45.69327" lon="5.83792">
        <ele>490.55746</ele>
        <time>2014-11-22T12:21:38Z</time>
      </trkpt>
      <trkpt lat="45.69334" lon="5.838">
        <ele>490.55746</ele>
        <time>2014-11-22T12:21:43Z</time>
      </trkpt>
      <trkpt lat="45.69338" lon="5.83803">
        <ele>492.99405</ele>
        <time>2014-11-22T12:21:48Z</time>
      </trkpt>
      <trkpt lat="45.69345" lon="5.8381">
        <ele>492.99405</ele>
        <time>2014-11-22T12:21:53Z</time>
      </trkpt>
      <trkpt lat="45.69347" lon="5.83814">
        <ele>494.66602</ele>
        <time>2014-11-22T12:21:58Z</time>
      </trkpt>
      <trkpt lat="45.6935" lon="5.8382">
        <ele>494.66602</ele>
        <time>2014-11-22T12:22:03Z</time>
      </trkpt>
      <trkpt lat="45.69353" lon="5.83823">
        <ele>494.66602</ele>
        <time>2014-11-22T12:22:08Z</time>
      </trkpt>
      <trkpt lat="45.69357" lon="5.83825">
        <ele>495.59985</ele>
        <time>2014-11-22T12:22:13Z</time>
      </trkpt>
      <trkpt lat="45.6936" lon="5.83824">
        <ele>495.59985</ele>
        <time>2014-11-22T12:22:18Z</time>
      </trkpt>
      <trkpt lat="45.69363" lon="5.83825">
        <ele>495.59985</ele>
        <time>2014-11-22T12:22:23Z</time>
      </trkpt>
      <trkpt lat="45.69371" lon="5.83826">
        <ele>497.4794</ele>
        <time>2014-11-22T12:22:28Z</time>
      </trkpt>
      <trkpt lat="45.69377" lon="5.83826">
        <ele>497.4794</ele>
        <time>2014-11-22T12:22:33Z</time>
      </trkpt>
      <trkpt lat="45.69382" lon="5.83826">
        <ele>500.13287</ele>
        <time>2014-11-22T12:22:38Z</time>
      </trkpt>
      <trkpt lat="45.69386" lon="5.83827">
        <ele>500.13287</ele>
        <time>2014-11-22T12:22:43Z</time>
      </trkpt>
      <trkpt lat="45.69392" lon="5.83826">
        <ele>503.35568</ele>
        <time>2014-11-22T12:22:48Z</time>
      </trkpt>
      <trkpt lat="45.69399" lon="5.83827">
        <ele>503.35568</ele>
        <time>2014-11-22T12:22:53Z</time>
      </trkpt>
      <trkpt lat="45.6941" lon="5.83835">
        <ele>505.6165</ele>
        <time>2014-11-22T12:22:58Z</time>
      </trkpt>
      <trkpt lat="45.69416" lon="5.83836">
        <ele>505.6165</ele>
        <time>2014-11-22T12:23:03Z</time>
      </trkpt>
      <trkpt lat="45.69423" lon="5.83835">
        <ele>508.0931</ele>
        <time>2014-11-22T12:23:08Z</time>
      </trkpt>
      <trkpt lat="45.69427" lon="5.83834">
        <ele>508.0931</ele>
        <time>2014-11-22T12:23:13Z</time>
      </trkpt>
      <trkpt lat="45.69429" lon="5.83835">
        <ele>508.0931</ele>
        <time>2014-11-22T12:23:18Z</time>
      </trkpt>
      <trkpt lat="45.69431" lon="5.83838">
        <ele>510.37756</ele>
        <time>2014-11-22T12:23:23Z</time>
      </trkpt>
      <trkpt lat="45.69435" lon="5.8384">
        <ele>510.37756</ele>
        <time>2014-11-22T12:23:28Z</time>
      </trkpt>
      <trkpt lat="45.69438" lon="5.83842">
        <ele>510.37756</ele>
        <time>2014-11-22T12:23:33Z</time>
      </trkpt>
      <trkpt lat="45.69441" lon="5.83845">
        <ele>512.0203</ele>
        <time>2014-11-22T12:23:38Z</time>
      </trkpt>
      <trkpt lat="45.69443" lon="5.83846">
        <ele>512.0203</ele>
        <time>2014-11-22T12:23:43Z</time>
      </trkpt>
      <trkpt lat="45.69446" lon="5.83843">
        <ele>512.0203</ele>
        <time>2014-11-22T12:23:48Z</time>
      </trkpt>
      <trkpt lat="45.69455" lon="5.83842">
        <ele>513.65875</ele>
        <time>2014-11-22T12:23:54Z</time>
      </trkpt>
      <trkpt lat="45.69463" lon="5.83842">
        <ele>513.65875</ele>
        <time>2014-11-22T12:23:59Z</time>
      </trkpt>
      <trkpt lat="45.69469" lon="5.83841">
        <ele>515.1629</ele>
        <time>2014-11-22T12:24:03Z</time>
      </trkpt>
      <trkpt lat="45.69476" lon="5.83837">
        <ele>515.1629</ele>
        <time>2014-11-22T12:24:08Z</time>
      </trkpt>
      <trkpt lat="45.69485" lon="5.83835">
        <ele>517.23425</ele>
        <time>2014-11-22T12:24:14Z</time>
      </trkpt>
      <trkpt lat="45.69493" lon="5.83836">
        <ele>517.23425</ele>
        <time>2014-11-22T12:24:18Z</time>
      </trkpt>
      <trkpt lat="45.69502" lon="5.83838">
        <ele>518.56116</ele>
        <time>2014-11-22T12:24:24Z</time>
      </trkpt>
      <trkpt lat="45.69507" lon="5.83839">
        <ele>518.56116</ele>
        <time>2014-11-22T12:24:28Z</time>
      </trkpt>
      <trkpt lat="45.69514" lon="5.8384">
        <ele>519.90485</ele>
        <time>2014-11-22T12:24:33Z</time>
      </trkpt>
      <trkpt lat="45.69517" lon="5.83841">
        <ele>519.90485</ele>
        <time>2014-11-22T12:24:38Z</time>
      </trkpt>
      <trkpt lat="45.69523" lon="5.83842">
        <ele>519.90485</ele>
        <time>2014-11-22T12:24:43Z</time>
      </trkpt>
      <trkpt lat="45.6953" lon="5.83846">
        <ele>520.8467</ele>
        <time>2014-11-22T12:24:48Z</time>
      </trkpt>
      <trkpt lat="45.69534" lon="5.83849">
        <ele>520.8467</ele>
        <time>2014-11-22T12:24:53Z</time>
      </trkpt>
      <trkpt lat="45.69539" lon="5.83851">
        <ele>521.37445</ele>
        <time>2014-11-22T12:24:58Z</time>
      </trkpt>
      <trkpt lat="45.69546" lon="5.83858">
        <ele>521.37445</ele>
        <time>2014-11-22T12:25:03Z</time>
      </trkpt>
      <trkpt lat="45.69551" lon="5.83861">
        <ele>522.458</ele>
        <time>2014-11-22T12:25:08Z</time>
      </trkpt>
      <trkpt lat="45.69556" lon="5.83865">
        <ele>522.458</ele>
        <time>2014-11-22T12:25:13Z</time>
      </trkpt>
      <trkpt lat="45.69563" lon="5.83873">
        <ele>523.539</ele>
        <time>2014-11-22T12:25:18Z</time>
      </trkpt>
      <trkpt lat="45.69568" lon="5.8388">
        <ele>523.539</ele>
        <time>2014-11-22T12:25:23Z</time>
      </trkpt>
      <trkpt lat="45.69571" lon="5.83885">
        <ele>525.12317</ele>
        <time>2014-11-22T12:25:28Z</time>
      </trkpt>
      <trkpt lat="45.69577" lon="5.83893">
        <ele>525.12317</ele>
        <time>2014-11-22T12:25:33Z</time>
      </trkpt>
      <trkpt lat="45.69582" lon="5.83902">
        <ele>527.8507</ele>
        <time>2014-11-22T12:25:38Z</time>
      </trkpt>
      <trkpt lat="45.69581" lon="5.83903">
        <ele>527.8507</ele>
        <time>2014-11-22T12:25:43Z</time>
      </trkpt>
      <trkpt lat="45.69578" lon="5.83905">
        <ele>527.8507</ele>
        <time>2014-11-22T12:25:48Z</time>
      </trkpt>
      <trkpt lat="45.69574" lon="5.83904">
        <ele>527.8507</ele>
        <time>2014-11-22T12:25:53Z</time>
      </trkpt>
      <trkpt lat="45.69568" lon="5.83904">
        <ele>531.7496</ele>
        <time>2014-11-22T12:25:58Z</time>
      </trkpt>
      <trkpt lat="45.69562" lon="5.83902">
        <ele>531.7496</ele>
        <time>2014-11-22T12:26:03Z</time>
      </trkpt>
      <trkpt lat="45.69558" lon="5.83904">
        <ele>535.86237</ele>
        <time>2014-11-22T12:26:08Z</time>
      </trkpt>
      <trkpt lat="45.69553" lon="5.83905">
        <ele>535.86237</ele>
        <time>2014-11-22T12:26:13Z</time>
      </trkpt>
      <trkpt lat="45.69546" lon="5.83906">
        <ele>539.9645</ele>
        <time>2014-11-22T12:26:18Z</time>
      </trkpt>
      <trkpt lat="45.69541" lon="5.83908">
        <ele>539.9645</ele>
        <time>2014-11-22T12:26:23Z</time>
      </trkpt>
      <trkpt lat="45.69538" lon="5.83917">
        <ele>544.0495</ele>
        <time>2014-11-22T12:26:28Z</time>
      </trkpt>
      <trkpt lat="45.69539" lon="5.83925">
        <ele>544.0495</ele>
        <time>2014-11-22T12:26:34Z</time>
      </trkpt>
      <trkpt lat="45.69537" lon="5.83929">
        <ele>544.0495</ele>
        <time>2014-11-22T12:26:38Z</time>
      </trkpt>
      <trkpt lat="45.69537" lon="5.8393">
        <ele>548.09735</ele>
        <time>2014-11-22T12:26:43Z</time>
      </trkpt>
      <trkpt lat="45.69537" lon="5.8393">
        <ele>548.09735</ele>
        <time>2014-11-22T12:26:48Z</time>
      </trkpt>
      <trkpt lat="45.69354" lon="5.84264">
        <ele>558.14215</ele>
        <time>2014-11-22T13:09:10Z</time>
      </trkpt>
      <trkpt lat="45.69352" lon="5.84268">
        <ele>558.14215</ele>
        <time>2014-11-22T13:09:15Z</time>
      </trkpt>
      <trkpt lat="45.69351" lon="5.84273">
        <ele>558.14215</ele>
        <time>2014-11-22T13:09:20Z</time>
      </trkpt>
      <trkpt lat="45.69347" lon="5.84279">
        <ele>565.85144</ele>
        <time>2014-11-22T13:09:25Z</time>
      </trkpt>
      <trkpt lat="45.69348" lon="5.84287">
        <ele>565.85144</ele>
        <time>2014-11-22T13:09:30Z</time>
      </trkpt>
      <trkpt lat="45.69346" lon="5.84295">
        <ele>571.1927</ele>
        <time>2014-11-22T13:09:35Z</time>
      </trkpt>
      <trkpt lat="45.69345" lon="5.84301">
        <ele>571.1927</ele>
        <time>2014-11-22T13:09:40Z</time>
      </trkpt>
      <trkpt lat="45.69342" lon="5.84304">
        <ele>571.1927</ele>
        <time>2014-11-22T13:09:45Z</time>
      </trkpt>
      <trkpt lat="45.69338" lon="5.84301">
        <ele>576.1024</ele>
        <time>2014-11-22T13:09:50Z</time>
      </trkpt>
      <trkpt lat="45.69333" lon="5.84297">
        <ele>576.1024</ele>
        <time>2014-11-22T13:09:55Z</time>
      </trkpt>
      <trkpt lat="45.6933" lon="5.84291">
        <ele>580.8487</ele>
        <time>2014-11-22T13:10:00Z</time>
      </trkpt>
      <trkpt lat="45.69328" lon="5.84285">
        <ele>580.8487</ele>
        <time>2014-11-22T13:10:05Z</time>
      </trkpt>
      <trkpt lat="45.69325" lon="5.84277">
        <ele>585.4646</ele>
        <time>2014-11-22T13:10:10Z</time>
      </trkpt>
      <trkpt lat="45.69322" lon="5.84272">
        <ele>585.4646</ele>
        <time>2014-11-22T13:10:15Z</time>
      </trkpt>
      <trkpt lat="45.69315" lon="5.84274">
        <ele>589.3616</ele>
        <time>2014-11-22T13:10:20Z</time>
      </trkpt>
      <trkpt lat="45.6931" lon="5.8428">
        <ele>589.3616</ele>
        <time>2014-11-22T13:10:25Z</time>
      </trkpt>
      <trkpt lat="45.69311" lon="5.84288">
        <ele>592.9765</ele>
        <time>2014-11-22T13:10:30Z</time>
      </trkpt>
      <trkpt lat="45.69313" lon="5.84297">
        <ele>592.9765</ele>
        <time>2014-11-22T13:10:35Z</time>
      </trkpt>
      <trkpt lat="45.69315" lon="5.84303">
        <ele>595.64874</ele>
        <time>2014-11-22T13:10:40Z</time>
      </trkpt>
      <trkpt lat="45.69317" lon="5.84312">
        <ele>595.64874</ele>
        <time>2014-11-22T13:10:45Z</time>
      </trkpt>
      <trkpt lat="45.69318" lon="5.8432">
        <ele>597.8644</ele>
        <time>2014-11-22T13:10:50Z</time>
      </trkpt>
      <trkpt lat="45.6932" lon="5.84325">
        <ele>597.8644</ele>
        <time>2014-11-22T13:10:55Z</time>
      </trkpt>
      <trkpt lat="45.69319" lon="5.84336">
        <ele>599.31146</ele>
        <time>2014-11-22T13:11:00Z</time>
      </trkpt>
      <trkpt lat="45.69321" lon="5.84345">
        <ele>599.31146</ele>
        <time>2014-11-22T13:11:05Z</time>
      </trkpt>
      <trkpt lat="45.69322" lon="5.84355">
        <ele>600.395</ele>
        <time>2014-11-22T13:11:10Z</time>
      </trkpt>
      <trkpt lat="45.69325" lon="5.84363">
        <ele>600.395</ele>
        <time>2014-11-22T13:11:15Z</time>
      </trkpt>
      <trkpt lat="45.69324" lon="5.84374">
        <ele>601.41943</ele>
        <time>2014-11-22T13:11:20Z</time>
      </trkpt>
      <trkpt lat="45.69326" lon="5.84384">
        <ele>601.41943</ele>
        <time>2014-11-22T13:11:25Z</time>
      </trkpt>
      <trkpt lat="45.69326" lon="5.84394">
        <ele>602.5663</ele>
        <time>2014-11-22T13:11:30Z</time>
      </trkpt>
      <trkpt lat="45.69324" lon="5.84402">
        <ele>602.5663</ele>
        <time>2014-11-22T13:11:35Z</time>
      </trkpt>
      <trkpt lat="45.69323" lon="5.84412">
        <ele>603.2397</ele>
        <time>2014-11-22T13:11:40Z</time>
      </trkpt>
      <trkpt lat="45.6932" lon="5.84419">
        <ele>603.2397</ele>
        <time>2014-11-22T13:11:45Z</time>
      </trkpt>
      <trkpt lat="45.69317" lon="5.84427">
        <ele>603.1916</ele>
        <time>2014-11-22T13:11:50Z</time>
      </trkpt>
      <trkpt lat="45.69317" lon="5.84434">
        <ele>603.1916</ele>
        <time>2014-11-22T13:11:55Z</time>
      </trkpt>
      <trkpt lat="45.69316" lon="5.84445">
        <ele>603.1023</ele>
        <time>2014-11-22T13:12:00Z</time>
      </trkpt>
      <trkpt lat="45.69317" lon="5.84455">
        <ele>603.1023</ele>
        <time>2014-11-22T13:12:05Z</time>
      </trkpt>
      <trkpt lat="45.6932" lon="5.84466">
        <ele>603.6453</ele>
        <time>2014-11-22T13:12:10Z</time>
      </trkpt>
      <trkpt lat="45.69325" lon="5.84474">
        <ele>603.6453</ele>
        <time>2014-11-22T13:12:15Z</time>
      </trkpt>
      <trkpt lat="45.6933" lon="5.84483">
        <ele>604.7947</ele>
        <time>2014-11-22T13:12:20Z</time>
      </trkpt>
      <trkpt lat="45.69337" lon="5.84488">
        <ele>604.7947</ele>
        <time>2014-11-22T13:12:25Z</time>
      </trkpt>
      <trkpt lat="45.69342" lon="5.84489">
        <ele>605.8615</ele>
        <time>2014-11-22T13:12:30Z</time>
      </trkpt>
      <trkpt lat="45.69348" lon="5.8449">
        <ele>605.8615</ele>
        <time>2014-11-22T13:12:35Z</time>
      </trkpt>
      <trkpt lat="45.69354" lon="5.84491">
        <ele>606.82764</ele>
        <time>2014-11-22T13:12:40Z</time>
      </trkpt>
      <trkpt lat="45.69358" lon="5.84495">
        <ele>606.82764</ele>
        <time>2014-11-22T13:12:45Z</time>
      </trkpt>
      <trkpt lat="45.69363" lon="5.84502">
        <ele>606.8981</ele>
        <time>2014-11-22T13:12:50Z</time>
      </trkpt>
      <trkpt lat="45.69367" lon="5.84509">
        <ele>606.8981</ele>
        <time>2014-11-22T13:12:55Z</time>
      </trkpt>
      <trkpt lat="45.69368" lon="5.84517">
        <ele>605.71356</ele>
        <time>2014-11-22T13:13:00Z</time>
      </trkpt>
      <trkpt lat="45.69366" lon="5.84525">
        <ele>605.71356</ele>
        <time>2014-11-22T13:13:05Z</time>
      </trkpt>
      <trkpt lat="45.69362" lon="5.84535">
        <ele>604.34247</ele>
        <time>2014-11-22T13:13:10Z</time>
      </trkpt>
      <trkpt lat="45.69358" lon="5.84542">
        <ele>604.34247</ele>
        <time>2014-11-22T13:13:15Z</time>
      </trkpt>
      <trkpt lat="45.69352" lon="5.84551">
        <ele>604.19305</ele>
        <time>2014-11-22T13:13:20Z</time>
      </trkpt>
      <trkpt lat="45.69349" lon="5.84561">
        <ele>604.19305</ele>
        <time>2014-11-22T13:13:25Z</time>
      </trkpt>
      <trkpt lat="45.69341" lon="5.84568">
        <ele>604.4627</ele>
        <time>2014-11-22T13:13:31Z</time>
      </trkpt>
      <trkpt lat="45.69339" lon="5.84577">
        <ele>604.4627</ele>
        <time>2014-11-22T13:13:36Z</time>
      </trkpt>
      <trkpt lat="45.69335" lon="5.84586">
        <ele>604.46387</ele>
        <time>2014-11-22T13:13:41Z</time>
      </trkpt>
      <trkpt lat="45.69334" lon="5.84594">
        <ele>604.46387</ele>
        <time>2014-11-22T13:13:45Z</time>
      </trkpt>
      <trkpt lat="45.69331" lon="5.84602">
        <ele>605.67883</ele>
        <time>2014-11-22T13:13:51Z</time>
      </trkpt>
      <trkpt lat="45.69324" lon="5.8461">
        <ele>605.67883</ele>
        <time>2014-11-22T13:13:56Z</time>
      </trkpt>
      <trkpt lat="45.6932" lon="5.84616">
        <ele>606.91205</ele>
        <time>2014-11-22T13:14:02Z</time>
      </trkpt>
      <trkpt lat="45.69316" lon="5.84622">
        <ele>606.91205</ele>
        <time>2014-11-22T13:14:05Z</time>
      </trkpt>
      <trkpt lat="45.69309" lon="5.84625">
        <ele>607.9636</ele>
        <time>2014-11-22T13:14:10Z</time>
      </trkpt>
      <trkpt lat="45.69304" lon="5.84632">
        <ele>607.9636</ele>
        <time>2014-11-22T13:14:15Z</time>
      </trkpt>
      <trkpt lat="45.69298" lon="5.84636">
        <ele>608.8504</ele>
        <time>2014-11-22T13:14:20Z</time>
      </trkpt>
      <trkpt lat="45.69293" lon="5.84642">
        <ele>608.8504</ele>
        <time>2014-11-22T13:14:25Z</time>
      </trkpt>
      <trkpt lat="45.6929" lon="5.8465">
        <ele>609.7181</ele>
        <time>2014-11-22T13:14:30Z</time>
      </trkpt>
      <trkpt lat="45.69287" lon="5.84657">
        <ele>609.7181</ele>
        <time>2014-11-22T13:14:35Z</time>
      </trkpt>
      <trkpt lat="45.69284" lon="5.84663">
        <ele>610.03864</ele>
        <time>2014-11-22T13:14:40Z</time>
      </trkpt>
      <trkpt lat="45.69283" lon="5.84671">
        <ele>610.03864</ele>
        <time>2014-11-22T13:14:45Z</time>
      </trkpt>
      <trkpt lat="45.6928" lon="5.84678">
        <ele>609.56915</ele>
        <time>2014-11-22T13:14:50Z</time>
      </trkpt>
      <trkpt lat="45.69278" lon="5.84682">
        <ele>609.56915</ele>
        <time>2014-11-22T13:14:55Z</time>
      </trkpt>
      <trkpt lat="45.69275" lon="5.84687">
        <ele>609.56915</ele>
        <time>2014-11-22T13:15:00Z</time>
      </trkpt>
      <trkpt lat="45.69273" lon="5.84691">
        <ele>607.7984</ele>
        <time>2014-11-22T13:15:05Z</time>
      </trkpt>
      <trkpt lat="45.69269" lon="5.84695">
        <ele>607.7984</ele>
        <time>2014-11-22T13:15:10Z</time>
      </trkpt>
      <trkpt lat="45.69264" lon="5.84705">
        <ele>606.4324</ele>
        <time>2014-11-22T13:15:15Z</time>
      </trkpt>
      <trkpt lat="45.69262" lon="5.84717">
        <ele>606.4324</ele>
        <time>2014-11-22T13:15:20Z</time>
      </trkpt>
      <trkpt lat="45.6926" lon="5.84728">
        <ele>605.4651</ele>
        <time>2014-11-22T13:15:25Z</time>
      </trkpt>
      <trkpt lat="45.69258" lon="5.84738">
        <ele>605.4651</ele>
        <time>2014-11-22T13:15:30Z</time>
      </trkpt>
      <trkpt lat="45.69259" lon="5.84749">
        <ele>605.53827</ele>
        <time>2014-11-22T13:15:35Z</time>
      </trkpt>
      <trkpt lat="45.69261" lon="5.84756">
        <ele>605.53827</ele>
        <time>2014-11-22T13:15:40Z</time>
      </trkpt>
      <trkpt lat="45.69263" lon="5.84761">
        <ele>606.27783</ele>
        <time>2014-11-22T13:15:45Z</time>
      </trkpt>
      <trkpt lat="45.69265" lon="5.84769">
        <ele>606.27783</ele>
        <time>2014-11-22T13:15:50Z</time>
      </trkpt>
      <trkpt lat="45.69266" lon="5.84783">
        <ele>607.3494</ele>
        <time>2014-11-22T13:15:55Z</time>
      </trkpt>
      <trkpt lat="45.69265" lon="5.84795">
        <ele>607.3494</ele>
        <time>2014-11-22T13:16:00Z</time>
      </trkpt>
      <trkpt lat="45.69263" lon="5.84804">
        <ele>610.05634</ele>
        <time>2014-11-22T13:16:05Z</time>
      </trkpt>
      <trkpt lat="45.69261" lon="5.84812">
        <ele>610.05634</ele>
        <time>2014-11-22T13:16:10Z</time>
      </trkpt>
      <trkpt lat="45.69261" lon="5.84826">
        <ele>613.7566</ele>
        <time>2014-11-22T13:16:15Z</time>
      </trkpt>
      <trkpt lat="45.6926" lon="5.84841">
        <ele>617.98224</ele>
        <time>2014-11-22T13:16:20Z</time>
      </trkpt>
      <trkpt lat="45.69261" lon="5.84854">
        <ele>622.3268</ele>
        <time>2014-11-22T13:16:25Z</time>
      </trkpt>
      <trkpt lat="45.69262" lon="5.84858">
        <ele>622.3268</ele>
        <time>2014-11-22T13:16:30Z</time>
      </trkpt>
      <trkpt lat="45.69262" lon="5.84874">
        <ele>626.83124</ele>
        <time>2014-11-22T13:16:35Z</time>
      </trkpt>
      <trkpt lat="45.69262" lon="5.84885">
        <ele>626.83124</ele>
        <time>2014-11-22T13:16:40Z</time>
      </trkpt>
      <trkpt lat="45.69262" lon="5.84896">
        <ele>632.0374</ele>
        <time>2014-11-22T13:16:45Z</time>
      </trkpt>
      <trkpt lat="45.69264" lon="5.849">
        <ele>632.0374</ele>
        <time>2014-11-22T13:16:50Z</time>
      </trkpt>
      <trkpt lat="45.69265" lon="5.84912">
        <ele>637.1482</ele>
        <time>2014-11-22T13:16:55Z</time>
      </trkpt>
      <trkpt lat="45.69267" lon="5.84922">
        <ele>637.1482</ele>
        <time>2014-11-22T13:17:00Z</time>
      </trkpt>
      <trkpt lat="45.69268" lon="5.84933">
        <ele>642.60724</ele>
        <time>2014-11-22T13:17:05Z</time>
      </trkpt>
      <trkpt lat="45.69268" lon="5.84938">
        <ele>642.60724</ele>
        <time>2014-11-22T13:17:10Z</time>
      </trkpt>
      <trkpt lat="45.69275" lon="5.84953">
        <ele>646.2881</ele>
        <time>2014-11-22T13:17:15Z</time>
      </trkpt>
      <trkpt lat="45.69279" lon="5.84964">
        <ele>646.2881</ele>
        <time>2014-11-22T13:17:20Z</time>
      </trkpt>
      <trkpt lat="45.69279" lon="5.84972">
        <ele>649.0935</ele>
        <time>2014-11-22T13:17:25Z</time>
      </trkpt>
      <trkpt lat="45.69279" lon="5.84984">
        <ele>649.0935</ele>
        <time>2014-11-22T13:17:30Z</time>
      </trkpt>
      <trkpt lat="45.69279" lon="5.84987">
        <ele>652.12164</ele>
        <time>2014-11-22T13:17:35Z</time>
      </trkpt>
      <trkpt lat="45.69279" lon="5.84988">
        <ele>652.12164</ele>
        <time>2014-11-22T13:17:40Z</time>
      </trkpt>
      <trkpt lat="45.69279" lon="5.84987">
        <ele>652.12164</ele>
        <time>2014-11-22T13:17:45Z</time>
      </trkpt>
      <trkpt lat="45.69279" lon="5.84987">
        <ele>652.12164</ele>
        <time>2014-11-22T13:17:50Z</time>
      </trkpt>
      <trkpt lat="45.69279" lon="5.84987">
        <ele>652.12164</ele>
        <time>2014-11-22T13:17:55Z</time>
      </trkpt>
      <trkpt lat="45.69276" lon="5.84983">
        <ele>652.12164</ele>
        <time>2014-11-22T13:18:00Z</time>
      </trkpt>
      <trkpt lat="45.69272" lon="5.84981">
        <ele>655.1936</ele>
        <time>2014-11-22T13:18:05Z</time>
      </trkpt>
      <trkpt lat="45.69272" lon="5.8498">
        <ele>655.1936</ele>
        <time>2014-11-22T13:18:10Z</time>
      </trkpt>
      <trkpt lat="45.69272" lon="5.84981">
        <ele>655.1936</ele>
        <time>2014-11-22T13:18:15Z</time>
      </trkpt>
      <trkpt lat="45.69272" lon="5.84981">
        <ele>655.1936</ele>
        <time>2014-11-22T13:18:20Z</time>
      </trkpt>
      <trkpt lat="45.69277" lon="5.84987">
        <ele>655.1936</ele>
        <time>2014-11-22T13:18:25Z</time>
      </trkpt>
      <trkpt lat="45.69282" lon="5.84991">
        <ele>657.2498</ele>
        <time>2014-11-22T13:18:30Z</time>
      </trkpt>
      <trkpt lat="45.69288" lon="5.84998">
        <ele>657.2498</ele>
        <time>2014-11-22T13:18:35Z</time>
      </trkpt>
      <trkpt lat="45.69293" lon="5.85001">
        <ele>657.9026</ele>
        <time>2014-11-22T13:18:40Z</time>
      </trkpt>
      <trkpt lat="45.69296" lon="5.85002">
        <ele>657.9026</ele>
        <time>2014-11-22T13:18:45Z</time>
      </trkpt>
      <trkpt lat="45.69302" lon="5.85001">
        <ele>658.15125</ele>
        <time>2014-11-22T13:18:50Z</time>
      </trkpt>
      <trkpt lat="45.69309" lon="5.84999">
        <ele>658.15125</ele>
        <time>2014-11-22T13:18:55Z</time>
      </trkpt>
      <trkpt lat="45.69313" lon="5.84996">
        <ele>658.1734</ele>
        <time>2014-11-22T13:19:00Z</time>
      </trkpt>
      <trkpt lat="45.69321" lon="5.84992">
        <ele>658.1734</ele>
        <time>2014-11-22T13:19:05Z</time>
      </trkpt>
      <trkpt lat="45.69326" lon="5.8499">
        <ele>658.66785</ele>
        <time>2014-11-22T13:19:10Z</time>
      </trkpt>
      <trkpt lat="45.69331" lon="5.84987">
        <ele>658.66785</ele>
        <time>2014-11-22T13:19:15Z</time>
      </trkpt>
      <trkpt lat="45.69338" lon="5.84985">
        <ele>659.4446</ele>
        <time>2014-11-22T13:19:20Z</time>
      </trkpt>
      <trkpt lat="45.69346" lon="5.84984">
        <ele>659.4446</ele>
        <time>2014-11-22T13:19:25Z</time>
      </trkpt>
      <trkpt lat="45.69352" lon="5.84981">
        <ele>659.6209</ele>
        <time>2014-11-22T13:19:30Z</time>
      </trkpt>
      <trkpt lat="45.69358" lon="5.84979">
        <ele>659.6209</ele>
        <time>2014-11-22T13:19:35Z</time>
      </trkpt>
      <trkpt lat="45.69363" lon="5.84976">
        <ele>658.6254</ele>
        <time>2014-11-22T13:19:40Z</time>
      </trkpt>
      <trkpt lat="45.6937" lon="5.84976">
        <ele>658.6254</ele>
        <time>2014-11-22T13:19:45Z</time>
      </trkpt>
      <trkpt lat="45.69379" lon="5.84974">
        <ele>658.0939</ele>
        <time>2014-11-22T13:19:50Z</time>
      </trkpt>
      <trkpt lat="45.69383" lon="5.84972">
        <ele>658.0939</ele>
        <time>2014-11-22T13:19:55Z</time>
      </trkpt>
      <trkpt lat="45.69387" lon="5.84971">
        <ele>658.0939</ele>
        <time>2014-11-22T13:20:00Z</time>
      </trkpt>
      <trkpt lat="45.69393" lon="5.84968">
        <ele>657.0761</ele>
        <time>2014-11-22T13:20:05Z</time>
      </trkpt>
      <trkpt lat="45.69396" lon="5.84966">
        <ele>657.0761</ele>
        <time>2014-11-22T13:20:10Z</time>
      </trkpt>
      <trkpt lat="45.694" lon="5.84964">
        <ele>657.0761</ele>
        <time>2014-11-22T13:20:15Z</time>
      </trkpt>
      <trkpt lat="45.69404" lon="5.84959">
        <ele>656.0765</ele>
        <time>2014-11-22T13:20:20Z</time>
      </trkpt>
      <trkpt lat="45.69409" lon="5.84955">
        <ele>656.0765</ele>
        <time>2014-11-22T13:20:25Z</time>
      </trkpt>
      <trkpt lat="45.69413" lon="5.8495">
        <ele>655.10126</ele>
        <time>2014-11-22T13:20:30Z</time>
      </trkpt>
      <trkpt lat="45.69418" lon="5.84945">
        <ele>655.10126</ele>
        <time>2014-11-22T13:20:35Z</time>
      </trkpt>
      <trkpt lat="45.69425" lon="5.84938">
        <ele>654.5162</ele>
        <time>2014-11-22T13:20:40Z</time>
      </trkpt>
      <trkpt lat="45.69431" lon="5.84932">
        <ele>654.5162</ele>
        <time>2014-11-22T13:20:45Z</time>
      </trkpt>
      <trkpt lat="45.69435" lon="5.84928">
        <ele>654.2266</ele>
        <time>2014-11-22T13:20:50Z</time>
      </trkpt>
      <trkpt lat="45.69442" lon="5.84922">
        <ele>654.2266</ele>
        <time>2014-11-22T13:20:55Z</time>
      </trkpt>
      <trkpt lat="45.69445" lon="5.84918">
        <ele>653.7839</ele>
        <time>2014-11-22T13:21:00Z</time>
      </trkpt>
      <trkpt lat="45.69452" lon="5.84914">
        <ele>653.7839</ele>
        <time>2014-11-22T13:21:05Z</time>
      </trkpt>
      <trkpt lat="45.69458" lon="5.84909">
        <ele>653.7666</ele>
        <time>2014-11-22T13:21:10Z</time>
      </trkpt>
      <trkpt lat="45.69466" lon="5.84905">
        <ele>653.7666</ele>
        <time>2014-11-22T13:21:15Z</time>
      </trkpt>
      <trkpt lat="45.69471" lon="5.84898">
        <ele>654.4073</ele>
        <time>2014-11-22T13:21:20Z</time>
      </trkpt>
      <trkpt lat="45.69474" lon="5.84892">
        <ele>654.4073</ele>
        <time>2014-11-22T13:21:25Z</time>
      </trkpt>
      <trkpt lat="45.69482" lon="5.84882">
        <ele>655.8327</ele>
        <time>2014-11-22T13:21:30Z</time>
      </trkpt>
      <trkpt lat="45.69486" lon="5.84875">
        <ele>655.8327</ele>
        <time>2014-11-22T13:21:35Z</time>
      </trkpt>
      <trkpt lat="45.69489" lon="5.84871">
        <ele>657.45197</ele>
        <time>2014-11-22T13:21:40Z</time>
      </trkpt>
      <trkpt lat="45.69491" lon="5.84867">
        <ele>657.45197</ele>
        <time>2014-11-22T13:21:45Z</time>
      </trkpt>
      <trkpt lat="45.69494" lon="5.84863">
        <ele>657.45197</ele>
        <time>2014-11-22T13:21:50Z</time>
      </trkpt>
      <trkpt lat="45.69497" lon="5.8486">
        <ele>659.16364</ele>
        <time>2014-11-22T13:21:55Z</time>
      </trkpt>
      <trkpt lat="45.69502" lon="5.84855">
        <ele>659.16364</ele>
        <time>2014-11-22T13:22:00Z</time>
      </trkpt>
      <trkpt lat="45.6951" lon="5.84846">
        <ele>660.00867</ele>
        <time>2014-11-22T13:22:05Z</time>
      </trkpt>
      <trkpt lat="45.69515" lon="5.84837">
        <ele>660.00867</ele>
        <time>2014-11-22T13:22:10Z</time>
      </trkpt>
      <trkpt lat="45.69519" lon="5.84831">
        <ele>660.7725</ele>
        <time>2014-11-22T13:22:15Z</time>
      </trkpt>
      <trkpt lat="45.69523" lon="5.84826">
        <ele>660.7725</ele>
        <time>2014-11-22T13:22:20Z</time>
      </trkpt>
      <trkpt lat="45.69524" lon="5.84824">
        <ele>660.7725</ele>
        <time>2014-11-22T13:22:25Z</time>
      </trkpt>
      <trkpt lat="45.69526" lon="5.84822">
        <ele>661.20325</ele>
        <time>2014-11-22T13:22:30Z</time>
      </trkpt>
      <trkpt lat="45.69532" lon="5.84816">
        <ele>661.20325</ele>
        <time>2014-11-22T13:22:35Z</time>
      </trkpt>
      <trkpt lat="45.69537" lon="5.84805">
        <ele>662.22095</ele>
        <time>2014-11-22T13:22:40Z</time>
      </trkpt>
      <trkpt lat="45.69541" lon="5.84798">
        <ele>662.22095</ele>
        <time>2014-11-22T13:22:45Z</time>
      </trkpt>
      <trkpt lat="45.69544" lon="5.84789">
        <ele>663.3795</ele>
        <time>2014-11-22T13:22:50Z</time>
      </trkpt>
      <trkpt lat="45.69548" lon="5.84784">
        <ele>663.3795</ele>
        <time>2014-11-22T13:22:55Z</time>
      </trkpt>
      <trkpt lat="45.69554" lon="5.8478">
        <ele>663.8761</ele>
        <time>2014-11-22T13:23:00Z</time>
      </trkpt>
      <trkpt lat="45.69559" lon="5.8478">
        <ele>663.8761</ele>
        <time>2014-11-22T13:23:05Z</time>
      </trkpt>
      <trkpt lat="45.69564" lon="5.84781">
        <ele>663.11255</ele>
        <time>2014-11-22T13:23:10Z</time>
      </trkpt>
      <trkpt lat="45.69568" lon="5.84781">
        <ele>663.11255</ele>
        <time>2014-11-22T13:23:15Z</time>
      </trkpt>
      <trkpt lat="45.6957" lon="5.84783">
        <ele>663.11255</ele>
        <time>2014-11-22T13:23:20Z</time>
      </trkpt>
      <trkpt lat="45.69578" lon="5.84786">
        <ele>661.1291</ele>
        <time>2014-11-22T13:23:25Z</time>
      </trkpt>
      <trkpt lat="45.69585" lon="5.84787">
        <ele>661.1291</ele>
        <time>2014-11-22T13:23:30Z</time>
      </trkpt>
      <trkpt lat="45.69593" lon="5.8479">
        <ele>659.69556</ele>
        <time>2014-11-22T13:23:35Z</time>
      </trkpt>
      <trkpt lat="45.69603" lon="5.84791">
        <ele>658.8939</ele>
        <time>2014-11-22T13:23:40Z</time>
      </trkpt>
      <trkpt lat="45.6961" lon="5.84795">
        <ele>658.8939</ele>
        <time>2014-11-22T13:23:45Z</time>
      </trkpt>
      <trkpt lat="45.69625" lon="5.84785">
        <ele>657.94775</ele>
        <time>2014-11-22T13:23:50Z</time>
      </trkpt>
      <trkpt lat="45.69642" lon="5.84782">
        <ele>657.5648</ele>
        <time>2014-11-22T13:23:55Z</time>
      </trkpt>
      <trkpt lat="45.69655" lon="5.84787">
        <ele>657.31824</ele>
        <time>2014-11-22T13:24:00Z</time>
      </trkpt>
      <trkpt lat="45.69667" lon="5.84789">
        <ele>657.1291</ele>
        <time>2014-11-22T13:24:05Z</time>
      </trkpt>
      <trkpt lat="45.69676" lon="5.84794">
        <ele>657.09686</ele>
        <time>2014-11-22T13:24:10Z</time>
      </trkpt>
      <trkpt lat="45.69682" lon="5.84804">
        <ele>657.7023</ele>
        <time>2014-11-22T13:24:15Z</time>
      </trkpt>
      <trkpt lat="45.69689" lon="5.84811">
        <ele>657.7023</ele>
        <time>2014-11-22T13:24:20Z</time>
      </trkpt>
      <trkpt lat="45.69697" lon="5.84823">
        <ele>659.0142</ele>
        <time>2014-11-22T13:24:25Z</time>
      </trkpt>
      <trkpt lat="45.69702" lon="5.84839">
        <ele>661.59863</ele>
        <time>2014-11-22T13:24:30Z</time>
      </trkpt>
      <trkpt lat="45.69707" lon="5.84843">
        <ele>661.59863</ele>
        <time>2014-11-22T13:24:35Z</time>
      </trkpt>
      <trkpt lat="45.69713" lon="5.84841">
        <ele>663.3391</ele>
        <time>2014-11-22T13:24:40Z</time>
      </trkpt>
      <trkpt lat="45.69719" lon="5.84844">
        <ele>663.3391</ele>
        <time>2014-11-22T13:24:45Z</time>
      </trkpt>
      <trkpt lat="45.69724" lon="5.84843">
        <ele>664.65485</ele>
        <time>2014-11-22T13:24:50Z</time>
      </trkpt>
      <trkpt lat="45.6973" lon="5.84839">
        <ele>664.65485</ele>
        <time>2014-11-22T13:24:55Z</time>
      </trkpt>
      <trkpt lat="45.69736" lon="5.84841">
        <ele>665.4453</ele>
        <time>2014-11-22T13:25:00Z</time>
      </trkpt>
      <trkpt lat="45.69741" lon="5.84843">
        <ele>665.4453</ele>
        <time>2014-11-22T13:25:05Z</time>
      </trkpt>
      <trkpt lat="45.69747" lon="5.84848">
        <ele>666.05115</ele>
        <time>2014-11-22T13:25:10Z</time>
      </trkpt>
      <trkpt lat="45.69752" lon="5.84853">
        <ele>666.05115</ele>
        <time>2014-11-22T13:25:15Z</time>
      </trkpt>
      <trkpt lat="45.69758" lon="5.84859">
        <ele>666.1112</ele>
        <time>2014-11-22T13:25:20Z</time>
      </trkpt>
      <trkpt lat="45.69764" lon="5.84861">
        <ele>666.1112</ele>
        <time>2014-11-22T13:25:25Z</time>
      </trkpt>
      <trkpt lat="45.69769" lon="5.84867">
        <ele>666.1856</ele>
        <time>2014-11-22T13:25:30Z</time>
      </trkpt>
      <trkpt lat="45.69776" lon="5.84869">
        <ele>666.1856</ele>
        <time>2014-11-22T13:25:35Z</time>
      </trkpt>
      <trkpt lat="45.69781" lon="5.84875">
        <ele>666.73584</ele>
        <time>2014-11-22T13:25:40Z</time>
      </trkpt>
      <trkpt lat="45.69783" lon="5.84877">
        <ele>666.73584</ele>
        <time>2014-11-22T13:25:45Z</time>
      </trkpt>
      <trkpt lat="45.69786" lon="5.84888">
        <ele>667.6116</ele>
        <time>2014-11-22T13:25:50Z</time>
      </trkpt>
      <trkpt lat="45.69787" lon="5.849">
        <ele>667.6116</ele>
        <time>2014-11-22T13:25:55Z</time>
      </trkpt>
      <trkpt lat="45.69788" lon="5.84908">
        <ele>669.8687</ele>
        <time>2014-11-22T13:26:00Z</time>
      </trkpt>
      <trkpt lat="45.69788" lon="5.84913">
        <ele>669.8687</ele>
        <time>2014-11-22T13:26:05Z</time>
      </trkpt>
      <trkpt lat="45.6979" lon="5.8492">
        <ele>669.8687</ele>
        <time>2014-11-22T13:26:10Z</time>
      </trkpt>
      <trkpt lat="45.6979" lon="5.84928">
        <ele>673.70337</ele>
        <time>2014-11-22T13:26:15Z</time>
      </trkpt>
      <trkpt lat="45.69792" lon="5.84946">
        <ele>677.7799</ele>
        <time>2014-11-22T13:26:20Z</time>
      </trkpt>
      <trkpt lat="45.69792" lon="5.84954">
        <ele>677.7799</ele>
        <time>2014-11-22T13:26:25Z</time>
      </trkpt>
      <trkpt lat="45.69791" lon="5.84964">
        <ele>682.21454</ele>
        <time>2014-11-22T13:26:30Z</time>
      </trkpt>
      <trkpt lat="45.69797" lon="5.8498">
        <ele>685.13983</ele>
        <time>2014-11-22T13:26:35Z</time>
      </trkpt>
      <trkpt lat="45.69802" lon="5.84989">
        <ele>685.13983</ele>
        <time>2014-11-22T13:26:40Z</time>
      </trkpt>
      <trkpt lat="45.69807" lon="5.84993">
        <ele>686.18427</ele>
        <time>2014-11-22T13:26:45Z</time>
      </trkpt>
      <trkpt lat="45.69812" lon="5.84997">
        <ele>686.18427</ele>
        <time>2014-11-22T13:26:50Z</time>
      </trkpt>
      <trkpt lat="45.69816" lon="5.85003">
        <ele>686.1765</ele>
        <time>2014-11-22T13:26:55Z</time>
      </trkpt>
      <trkpt lat="45.69819" lon="5.85012">
        <ele>686.1765</ele>
        <time>2014-11-22T13:27:00Z</time>
      </trkpt>
      <trkpt lat="45.69821" lon="5.8502">
        <ele>686.5213</ele>
        <time>2014-11-22T13:27:05Z</time>
      </trkpt>
      <trkpt lat="45.69824" lon="5.85027">
        <ele>686.5213</ele>
        <time>2014-11-22T13:27:10Z</time>
      </trkpt>
      <trkpt lat="45.69829" lon="5.85032">
        <ele>685.53625</ele>
        <time>2014-11-22T13:27:15Z</time>
      </trkpt>
      <trkpt lat="45.69832" lon="5.85038">
        <ele>685.53625</ele>
        <time>2014-11-22T13:27:20Z</time>
      </trkpt>
      <trkpt lat="45.69837" lon="5.85047">
        <ele>683.8568</ele>
        <time>2014-11-22T13:27:25Z</time>
      </trkpt>
      <trkpt lat="45.69842" lon="5.85054">
        <ele>683.8568</ele>
        <time>2014-11-22T13:27:30Z</time>
      </trkpt>
      <trkpt lat="45.69846" lon="5.85057">
        <ele>681.65576</ele>
        <time>2014-11-22T13:27:35Z</time>
      </trkpt>
      <trkpt lat="45.69851" lon="5.85061">
        <ele>681.65576</ele>
        <time>2014-11-22T13:27:40Z</time>
      </trkpt>
      <trkpt lat="45.69855" lon="5.85064">
        <ele>679.3254</ele>
        <time>2014-11-22T13:27:45Z</time>
      </trkpt>
      <trkpt lat="45.69857" lon="5.85067">
        <ele>679.3254</ele>
        <time>2014-11-22T13:27:50Z</time>
      </trkpt>
      <trkpt lat="45.6986" lon="5.85071">
        <ele>679.3254</ele>
        <time>2014-11-22T13:27:55Z</time>
      </trkpt>
      <trkpt lat="45.69862" lon="5.85075">
        <ele>676.8835</ele>
        <time>2014-11-22T13:28:00Z</time>
      </trkpt>
      <trkpt lat="45.69865" lon="5.85081">
        <ele>676.8835</ele>
        <time>2014-11-22T13:28:05Z</time>
      </trkpt>
      <trkpt lat="45.69866" lon="5.85087">
        <ele>674.9955</ele>
        <time>2014-11-22T13:28:10Z</time>
      </trkpt>
      <trkpt lat="45.69868" lon="5.85104">
        <ele>674.1177</ele>
        <time>2014-11-22T13:28:15Z</time>
      </trkpt>
      <trkpt lat="45.69873" lon="5.85111">
        <ele>674.1177</ele>
        <time>2014-11-22T13:28:20Z</time>
      </trkpt>
      <trkpt lat="45.69879" lon="5.85122">
        <ele>672.9119</ele>
        <time>2014-11-22T13:28:25Z</time>
      </trkpt>
      <trkpt lat="45.69882" lon="5.85124">
        <ele>672.9119</ele>
        <time>2014-11-22T13:28:30Z</time>
      </trkpt>
      <trkpt lat="45.69883" lon="5.85124">
        <ele>672.9119</ele>
        <time>2014-11-22T13:28:35Z</time>
      </trkpt>
      <trkpt lat="45.69885" lon="5.85124">
        <ele>672.9119</ele>
        <time>2014-11-22T13:28:40Z</time>
      </trkpt>
      <trkpt lat="45.69889" lon="5.85127">
        <ele>672.171</ele>
        <time>2014-11-22T13:28:45Z</time>
      </trkpt>
      <trkpt lat="45.69892" lon="5.85128">
        <ele>672.171</ele>
        <time>2014-11-22T13:28:50Z</time>
      </trkpt>
      <trkpt lat="45.69897" lon="5.85129">
        <ele>672.171</ele>
        <time>2014-11-22T13:28:55Z</time>
      </trkpt>
      <trkpt lat="45.69903" lon="5.85131">
        <ele>671.17285</ele>
        <time>2014-11-22T13:29:00Z</time>
      </trkpt>
      <trkpt lat="45.69911" lon="5.85135">
        <ele>671.17285</ele>
        <time>2014-11-22T13:29:05Z</time>
      </trkpt>
      <trkpt lat="45.69917" lon="5.85138">
        <ele>669.6666</ele>
        <time>2014-11-22T13:29:10Z</time>
      </trkpt>
      <trkpt lat="45.69924" lon="5.8514">
        <ele>669.6666</ele>
        <time>2014-11-22T13:29:15Z</time>
      </trkpt>
      <trkpt lat="45.6993" lon="5.85142">
        <ele>668.2717</ele>
        <time>2014-11-22T13:29:20Z</time>
      </trkpt>
      <trkpt lat="45.69936" lon="5.85144">
        <ele>668.2717</ele>
        <time>2014-11-22T13:29:25Z</time>
      </trkpt>
      <trkpt lat="45.69941" lon="5.85142">
        <ele>666.769</ele>
        <time>2014-11-22T13:29:30Z</time>
      </trkpt>
      <trkpt lat="45.6995" lon="5.85145">
        <ele>665.3446</ele>
        <time>2014-11-22T13:29:35Z</time>
      </trkpt>
      <trkpt lat="45.69957" lon="5.85145">
        <ele>665.3446</ele>
        <time>2014-11-22T13:29:40Z</time>
      </trkpt>
      <trkpt lat="45.69961" lon="5.85147">
        <ele>663.96906</ele>
        <time>2014-11-22T13:29:45Z</time>
      </trkpt>
      <trkpt lat="45.69965" lon="5.85147">
        <ele>663.96906</ele>
        <time>2014-11-22T13:29:50Z</time>
      </trkpt>
      <trkpt lat="45.69974" lon="5.85149">
        <ele>662.2976</ele>
        <time>2014-11-22T13:29:55Z</time>
      </trkpt>
      <trkpt lat="45.69985" lon="5.8515">
        <ele>660.93384</ele>
        <time>2014-11-22T13:30:00Z</time>
      </trkpt>
      <trkpt lat="45.7" lon="5.85147">
        <ele>659.312</ele>
        <time>2014-11-22T13:30:05Z</time>
      </trkpt>
      <trkpt lat="45.70009" lon="5.85147">
        <ele>657.6867</ele>
        <time>2014-11-22T13:30:10Z</time>
      </trkpt>
      <trkpt lat="45.70017" lon="5.85146">
        <ele>657.6867</ele>
        <time>2014-11-22T13:30:15Z</time>
      </trkpt>
      <trkpt lat="45.70025" lon="5.85147">
        <ele>656.35126</ele>
        <time>2014-11-22T13:30:20Z</time>
      </trkpt>
      <trkpt lat="45.7003" lon="5.85145">
        <ele>656.35126</ele>
        <time>2014-11-22T13:30:25Z</time>
      </trkpt>
      <trkpt lat="45.70036" lon="5.85142">
        <ele>655.01447</ele>
        <time>2014-11-22T13:30:30Z</time>
      </trkpt>
      <trkpt lat="45.70043" lon="5.85138">
        <ele>655.01447</ele>
        <time>2014-11-22T13:30:35Z</time>
      </trkpt>
      <trkpt lat="45.70051" lon="5.85133">
        <ele>653.5506</ele>
        <time>2014-11-22T13:30:40Z</time>
      </trkpt>
      <trkpt lat="45.70057" lon="5.8513">
        <ele>653.5506</ele>
        <time>2014-11-22T13:30:45Z</time>
      </trkpt>
      <trkpt lat="45.70062" lon="5.85127">
        <ele>651.8865</ele>
        <time>2014-11-22T13:30:50Z</time>
      </trkpt>
      <trkpt lat="45.70068" lon="5.85125">
        <ele>651.8865</ele>
        <time>2014-11-22T13:30:55Z</time>
      </trkpt>
      <trkpt lat="45.70075" lon="5.85124">
        <ele>649.998</ele>
        <time>2014-11-22T13:31:01Z</time>
      </trkpt>
      <trkpt lat="45.70085" lon="5.85125">
        <ele>648.6415</ele>
        <time>2014-11-22T13:31:05Z</time>
      </trkpt>
      <trkpt lat="45.70095" lon="5.85126">
        <ele>648.1413</ele>
        <time>2014-11-22T13:31:10Z</time>
      </trkpt>
      <trkpt lat="45.70105" lon="5.85126">
        <ele>648.1615</ele>
        <time>2014-11-22T13:31:15Z</time>
      </trkpt>
      <trkpt lat="45.70113" lon="5.85128">
        <ele>648.1615</ele>
        <time>2014-11-22T13:31:20Z</time>
      </trkpt>
      <trkpt lat="45.70121" lon="5.85128">
        <ele>648.317</ele>
        <time>2014-11-22T13:31:25Z</time>
      </trkpt>
      <trkpt lat="45.70128" lon="5.85126">
        <ele>648.317</ele>
        <time>2014-11-22T13:31:31Z</time>
      </trkpt>
      <trkpt lat="45.70133" lon="5.85126">
        <ele>648.3804</ele>
        <time>2014-11-22T13:31:35Z</time>
      </trkpt>
      <trkpt lat="45.7014" lon="5.85125">
        <ele>648.3804</ele>
        <time>2014-11-22T13:31:40Z</time>
      </trkpt>
      <trkpt lat="45.70144" lon="5.85117">
        <ele>648.3138</ele>
        <time>2014-11-22T13:31:45Z</time>
      </trkpt>
      <trkpt lat="45.70149" lon="5.85113">
        <ele>648.3138</ele>
        <time>2014-11-22T13:31:50Z</time>
      </trkpt>
      <trkpt lat="45.70156" lon="5.85111">
        <ele>647.9529</ele>
        <time>2014-11-22T13:31:55Z</time>
      </trkpt>
      <trkpt lat="45.7016" lon="5.8511">
        <ele>647.9529</ele>
        <time>2014-11-22T13:32:00Z</time>
      </trkpt>
      <trkpt lat="45.70166" lon="5.85108">
        <ele>646.9586</ele>
        <time>2014-11-22T13:32:05Z</time>
      </trkpt>
      <trkpt lat="45.70177" lon="5.85111">
        <ele>646.5896</ele>
        <time>2014-11-22T13:32:10Z</time>
      </trkpt>
      <trkpt lat="45.70183" lon="5.85113">
        <ele>646.5896</ele>
        <time>2014-11-22T13:32:15Z</time>
      </trkpt>
      <trkpt lat="45.70189" lon="5.85113">
        <ele>645.7329</ele>
        <time>2014-11-22T13:32:20Z</time>
      </trkpt>
      <trkpt lat="45.70199" lon="5.85119">
        <ele>645.89526</ele>
        <time>2014-11-22T13:32:25Z</time>
      </trkpt>
      <trkpt lat="45.70206" lon="5.85122">
        <ele>645.89526</ele>
        <time>2014-11-22T13:32:30Z</time>
      </trkpt>
      <trkpt lat="45.70213" lon="5.85128">
        <ele>646.27905</ele>
        <time>2014-11-22T13:32:35Z</time>
      </trkpt>
      <trkpt lat="45.7022" lon="5.85137">
        <ele>647.0383</ele>
        <time>2014-11-22T13:32:40Z</time>
      </trkpt>
      <trkpt lat="45.70227" lon="5.85139">
        <ele>647.0383</ele>
        <time>2014-11-22T13:32:45Z</time>
      </trkpt>
      <trkpt lat="45.70232" lon="5.8514">
        <ele>647.5795</ele>
        <time>2014-11-22T13:32:50Z</time>
      </trkpt>
      <trkpt lat="45.70239" lon="5.85139">
        <ele>647.5795</ele>
        <time>2014-11-22T13:32:55Z</time>
      </trkpt>
      <trkpt lat="45.70244" lon="5.85138">
        <ele>647.54083</ele>
        <time>2014-11-22T13:33:00Z</time>
      </trkpt>
      <trkpt lat="45.7025" lon="5.85137">
        <ele>647.54083</ele>
        <time>2014-11-22T13:33:05Z</time>
      </trkpt>
      <trkpt lat="45.70256" lon="5.85136">
        <ele>647.0639</ele>
        <time>2014-11-22T13:33:10Z</time>
      </trkpt>
      <trkpt lat="45.70263" lon="5.85133">
        <ele>647.0639</ele>
        <time>2014-11-22T13:33:15Z</time>
      </trkpt>
      <trkpt lat="45.70268" lon="5.85132">
        <ele>645.9644</ele>
        <time>2014-11-22T13:33:20Z</time>
      </trkpt>
      <trkpt lat="45.70274" lon="5.85132">
        <ele>645.9644</ele>
        <time>2014-11-22T13:33:25Z</time>
      </trkpt>
      <trkpt lat="45.7028" lon="5.85132">
        <ele>644.40466</ele>
        <time>2014-11-22T13:33:30Z</time>
      </trkpt>
      <trkpt lat="45.70286" lon="5.8513">
        <ele>644.40466</ele>
        <time>2014-11-22T13:33:35Z</time>
      </trkpt>
      <trkpt lat="45.70294" lon="5.85129">
        <ele>642.49304</ele>
        <time>2014-11-22T13:33:40Z</time>
      </trkpt>
      <trkpt lat="45.70301" lon="5.85131">
        <ele>642.49304</ele>
        <time>2014-11-22T13:33:45Z</time>
      </trkpt>
      <trkpt lat="45.70307" lon="5.8513">
        <ele>640.84973</ele>
        <time>2014-11-22T13:33:50Z</time>
      </trkpt>
      <trkpt lat="45.70314" lon="5.8513">
        <ele>640.84973</ele>
        <time>2014-11-22T13:33:55Z</time>
      </trkpt>
      <trkpt lat="45.7032" lon="5.85132">
        <ele>638.9534</ele>
        <time>2014-11-22T13:34:00Z</time>
      </trkpt>
      <trkpt lat="45.70328" lon="5.85137">
        <ele>638.9534</ele>
        <time>2014-11-22T13:34:05Z</time>
      </trkpt>
      <trkpt lat="45.70335" lon="5.8514">
        <ele>637.6044</ele>
        <time>2014-11-22T13:34:10Z</time>
      </trkpt>
      <trkpt lat="45.70342" lon="5.85141">
        <ele>637.6044</ele>
        <time>2014-11-22T13:34:15Z</time>
      </trkpt>
      <trkpt lat="45.70349" lon="5.85144">
        <ele>636.00037</ele>
        <time>2014-11-22T13:34:20Z</time>
      </trkpt>
      <trkpt lat="45.70356" lon="5.85148">
        <ele>636.00037</ele>
        <time>2014-11-22T13:34:27Z</time>
      </trkpt>
      <trkpt lat="45.70361" lon="5.85152">
        <ele>635.0272</ele>
        <time>2014-11-22T13:34:30Z</time>
      </trkpt>
      <trkpt lat="45.70369" lon="5.85156">
        <ele>635.0272</ele>
        <time>2014-11-22T13:34:35Z</time>
      </trkpt>
      <trkpt lat="45.70376" lon="5.85156">
        <ele>633.9333</ele>
        <time>2014-11-22T13:34:40Z</time>
      </trkpt>
      <trkpt lat="45.7038" lon="5.85159">
        <ele>633.9333</ele>
        <time>2014-11-22T13:34:45Z</time>
      </trkpt>
      <trkpt lat="45.70388" lon="5.8516">
        <ele>633.1175</ele>
        <time>2014-11-22T13:34:50Z</time>
      </trkpt>
      <trkpt lat="45.70396" lon="5.85163">
        <ele>633.1175</ele>
        <time>2014-11-22T13:34:55Z</time>
      </trkpt>
      <trkpt lat="45.70401" lon="5.85164">
        <ele>632.6027</ele>
        <time>2014-11-22T13:35:00Z</time>
      </trkpt>
      <trkpt lat="45.70409" lon="5.85168">
        <ele>632.6027</ele>
        <time>2014-11-22T13:35:05Z</time>
      </trkpt>
      <trkpt lat="45.70417" lon="5.85171">
        <ele>632.5247</ele>
        <time>2014-11-22T13:35:10Z</time>
      </trkpt>
      <trkpt lat="45.70423" lon="5.85172">
        <ele>632.5247</ele>
        <time>2014-11-22T13:35:15Z</time>
      </trkpt>
      <trkpt lat="45.7043" lon="5.85174">
        <ele>632.6332</ele>
        <time>2014-11-22T13:35:20Z</time>
      </trkpt>
      <trkpt lat="45.70437" lon="5.85172">
        <ele>632.6332</ele>
        <time>2014-11-22T13:35:25Z</time>
      </trkpt>
      <trkpt lat="45.70444" lon="5.85171">
        <ele>632.8543</ele>
        <time>2014-11-22T13:35:30Z</time>
      </trkpt>
      <trkpt lat="45.7045" lon="5.85171">
        <ele>632.8543</ele>
        <time>2014-11-22T13:35:35Z</time>
      </trkpt>
      <trkpt lat="45.70455" lon="5.85168">
        <ele>632.62933</ele>
        <time>2014-11-22T13:35:40Z</time>
      </trkpt>
      <trkpt lat="45.70458" lon="5.85168">
        <ele>632.62933</ele>
        <time>2014-11-22T13:35:45Z</time>
      </trkpt>
      <trkpt lat="45.70466" lon="5.85168">
        <ele>632.20544</ele>
        <time>2014-11-22T13:35:50Z</time>
      </trkpt>
      <trkpt lat="45.70472" lon="5.85169">
        <ele>632.20544</ele>
        <time>2014-11-22T13:35:55Z</time>
      </trkpt>
      <trkpt lat="45.70478" lon="5.8517">
        <ele>632.02856</ele>
        <time>2014-11-22T13:36:00Z</time>
      </trkpt>
      <trkpt lat="45.70482" lon="5.85172">
        <ele>632.02856</ele>
        <time>2014-11-22T13:36:05Z</time>
      </trkpt>
      <trkpt lat="45.70486" lon="5.85171">
        <ele>632.02856</ele>
        <time>2014-11-22T13:36:10Z</time>
      </trkpt>
      <trkpt lat="45.70492" lon="5.8517">
        <ele>631.70416</ele>
        <time>2014-11-22T13:36:15Z</time>
      </trkpt>
      <trkpt lat="45.70496" lon="5.85168">
        <ele>631.70416</ele>
        <time>2014-11-22T13:36:20Z</time>
      </trkpt>
      <trkpt lat="45.705" lon="5.85164">
        <ele>630.8525</ele>
        <time>2014-11-22T13:36:25Z</time>
      </trkpt>
      <trkpt lat="45.70505" lon="5.85162">
        <ele>630.8525</ele>
        <time>2014-11-22T13:36:30Z</time>
      </trkpt>
      <trkpt lat="45.70508" lon="5.8516">
        <ele>630.8525</ele>
        <time>2014-11-22T13:36:35Z</time>
      </trkpt>
      <trkpt lat="45.70515" lon="5.85159">
        <ele>629.57007</ele>
        <time>2014-11-22T13:36:40Z</time>
      </trkpt>
      <trkpt lat="45.70523" lon="5.85159">
        <ele>629.57007</ele>
        <time>2014-11-22T13:36:45Z</time>
      </trkpt>
      <trkpt lat="45.7053" lon="5.85156">
        <ele>628.10614</ele>
        <time>2014-11-22T13:36:50Z</time>
      </trkpt>
      <trkpt lat="45.70535" lon="5.85156">
        <ele>628.10614</ele>
        <time>2014-11-22T13:36:55Z</time>
      </trkpt>
      <trkpt lat="45.70541" lon="5.85155">
        <ele>626.90814</ele>
        <time>2014-11-22T13:37:00Z</time>
      </trkpt>
      <trkpt lat="45.70547" lon="5.85154">
        <ele>626.90814</ele>
        <time>2014-11-22T13:37:05Z</time>
      </trkpt>
      <trkpt lat="45.70553" lon="5.85157">
        <ele>626.0153</ele>
        <time>2014-11-22T13:37:10Z</time>
      </trkpt>
      <trkpt lat="45.70559" lon="5.85155">
        <ele>626.0153</ele>
        <time>2014-11-22T13:37:15Z</time>
      </trkpt>
      <trkpt lat="45.70563" lon="5.85154">
        <ele>625.04517</ele>
        <time>2014-11-22T13:37:20Z</time>
      </trkpt>
      <trkpt lat="45.70569" lon="5.8515">
        <ele>625.04517</ele>
        <time>2014-11-22T13:37:25Z</time>
      </trkpt>
      <trkpt lat="45.70572" lon="5.85151">
        <ele>624.3786</ele>
        <time>2014-11-22T13:37:30Z</time>
      </trkpt>
      <trkpt lat="45.70573" lon="5.85152">
        <ele>624.3786</ele>
        <time>2014-11-22T13:37:35Z</time>
      </trkpt>
      <trkpt lat="45.70575" lon="5.85152">
        <ele>624.3786</ele>
        <time>2014-11-22T13:37:40Z</time>
      </trkpt>
      <trkpt lat="45.70582" lon="5.85152">
        <ele>624.29553</ele>
        <time>2014-11-22T13:37:45Z</time>
      </trkpt>
      <trkpt lat="45.7059" lon="5.8515">
        <ele>624.29553</ele>
        <time>2014-11-22T13:37:50Z</time>
      </trkpt>
      <trkpt lat="45.70601" lon="5.85151">
        <ele>623.8287</ele>
        <time>2014-11-22T13:37:55Z</time>
      </trkpt>
      <trkpt lat="45.70609" lon="5.85153">
        <ele>623.8287</ele>
        <time>2014-11-22T13:38:00Z</time>
      </trkpt>
      <trkpt lat="45.70616" lon="5.85154">
        <ele>623.8267</ele>
        <time>2014-11-22T13:38:05Z</time>
      </trkpt>
      <trkpt lat="45.70621" lon="5.85155">
        <ele>623.8267</ele>
        <time>2014-11-22T13:38:10Z</time>
      </trkpt>
      <trkpt lat="45.70627" lon="5.85155">
        <ele>624.4262</ele>
        <time>2014-11-22T13:38:15Z</time>
      </trkpt>
      <trkpt lat="45.70633" lon="5.85154">
        <ele>624.4262</ele>
        <time>2014-11-22T13:38:20Z</time>
      </trkpt>
      <trkpt lat="45.70642" lon="5.85153">
        <ele>625.57904</ele>
        <time>2014-11-22T13:38:25Z</time>
      </trkpt>
      <trkpt lat="45.70646" lon="5.85151">
        <ele>625.57904</ele>
        <time>2014-11-22T13:38:30Z</time>
      </trkpt>
      <trkpt lat="45.70651" lon="5.85148">
        <ele>626.76355</ele>
        <time>2014-11-22T13:38:35Z</time>
      </trkpt>
      <trkpt lat="45.70658" lon="5.85145">
        <ele>626.76355</ele>
        <time>2014-11-22T13:38:40Z</time>
      </trkpt>
      <trkpt lat="45.70667" lon="5.85145">
        <ele>628.5771</ele>
        <time>2014-11-22T13:38:45Z</time>
      </trkpt>
      <trkpt lat="45.70673" lon="5.8514">
        <ele>628.5771</ele>
        <time>2014-11-22T13:38:50Z</time>
      </trkpt>
      <trkpt lat="45.70678" lon="5.85136">
        <ele>630.289</ele>
        <time>2014-11-22T13:38:55Z</time>
      </trkpt>
      <trkpt lat="45.70683" lon="5.85135">
        <ele>630.289</ele>
        <time>2014-11-22T13:39:00Z</time>
      </trkpt>
      <trkpt lat="45.70688" lon="5.8513">
        <ele>631.66925</ele>
        <time>2014-11-22T13:39:05Z</time>
      </trkpt>
      <trkpt lat="45.70693" lon="5.85127">
        <ele>631.66925</ele>
        <time>2014-11-22T13:39:10Z</time>
      </trkpt>
      <trkpt lat="45.70701" lon="5.85123">
        <ele>632.9813</ele>
        <time>2014-11-22T13:39:15Z</time>
      </trkpt>
      <trkpt lat="45.70705" lon="5.8512">
        <ele>632.9813</ele>
        <time>2014-11-22T13:39:20Z</time>
      </trkpt>
      <trkpt lat="45.7071" lon="5.8512">
        <ele>634.42645</ele>
        <time>2014-11-22T13:39:25Z</time>
      </trkpt>
      <trkpt lat="45.70716" lon="5.85115">
        <ele>634.42645</ele>
        <time>2014-11-22T13:39:30Z</time>
      </trkpt>
      <trkpt lat="45.7072" lon="5.85114">
        <ele>635.77277</ele>
        <time>2014-11-22T13:39:35Z</time>
      </trkpt>
      <trkpt lat="45.70723" lon="5.8511">
        <ele>635.77277</ele>
        <time>2014-11-22T13:39:40Z</time>
      </trkpt>
      <trkpt lat="45.70726" lon="5.85108">
        <ele>635.77277</ele>
        <time>2014-11-22T13:39:45Z</time>
      </trkpt>
      <trkpt lat="45.70731" lon="5.85101">
        <ele>636.6331</ele>
        <time>2014-11-22T13:39:50Z</time>
      </trkpt>
      <trkpt lat="45.70736" lon="5.85095">
        <ele>636.6331</ele>
        <time>2014-11-22T13:39:55Z</time>
      </trkpt>
      <trkpt lat="45.70741" lon="5.85093">
        <ele>637.22644</ele>
        <time>2014-11-22T13:40:00Z</time>
      </trkpt>
      <trkpt lat="45.70747" lon="5.8509">
        <ele>637.22644</ele>
        <time>2014-11-22T13:40:05Z</time>
      </trkpt>
      <trkpt lat="45.70753" lon="5.85088">
        <ele>638.01605</ele>
        <time>2014-11-22T13:40:10Z</time>
      </trkpt>
      <trkpt lat="45.70761" lon="5.85086">
        <ele>638.01605</ele>
        <time>2014-11-22T13:40:15Z</time>
      </trkpt>
      <trkpt lat="45.7077" lon="5.85085">
        <ele>639.1858</ele>
        <time>2014-11-22T13:40:20Z</time>
      </trkpt>
      <trkpt lat="45.70779" lon="5.85083">
        <ele>639.1858</ele>
        <time>2014-11-22T13:40:25Z</time>
      </trkpt>
      <trkpt lat="45.70787" lon="5.85079">
        <ele>640.6744</ele>
        <time>2014-11-22T13:40:30Z</time>
      </trkpt>
      <trkpt lat="45.70798" lon="5.85075">
        <ele>642.16504</ele>
        <time>2014-11-22T13:40:35Z</time>
      </trkpt>
      <trkpt lat="45.70802" lon="5.85077">
        <ele>642.16504</ele>
        <time>2014-11-22T13:40:40Z</time>
      </trkpt>
      <trkpt lat="45.70808" lon="5.85075">
        <ele>643.2634</ele>
        <time>2014-11-22T13:40:45Z</time>
      </trkpt>
      <trkpt lat="45.70813" lon="5.85073">
        <ele>643.2634</ele>
        <time>2014-11-22T13:40:50Z</time>
      </trkpt>
      <trkpt lat="45.70822" lon="5.85069">
        <ele>644.03766</ele>
        <time>2014-11-22T13:40:55Z</time>
      </trkpt>
      <trkpt lat="45.70828" lon="5.85067">
        <ele>644.03766</ele>
        <time>2014-11-22T13:41:00Z</time>
      </trkpt>
      <trkpt lat="45.70834" lon="5.85067">
        <ele>644.869</ele>
        <time>2014-11-22T13:41:05Z</time>
      </trkpt>
      <trkpt lat="45.70841" lon="5.85065">
        <ele>644.869</ele>
        <time>2014-11-22T13:41:12Z</time>
      </trkpt>
      <trkpt lat="45.70848" lon="5.8506">
        <ele>646.38464</ele>
        <time>2014-11-22T13:41:15Z</time>
      </trkpt>
      <trkpt lat="45.70853" lon="5.8506">
        <ele>646.38464</ele>
        <time>2014-11-22T13:41:20Z</time>
      </trkpt>
      <trkpt lat="45.70857" lon="5.8506">
        <ele>646.38464</ele>
        <time>2014-11-22T13:41:26Z</time>
      </trkpt>
      <trkpt lat="45.70859" lon="5.8506">
        <ele>647.5064</ele>
        <time>2014-11-22T13:41:31Z</time>
      </trkpt>
      <trkpt lat="45.70866" lon="5.85054">
        <ele>647.5064</ele>
        <time>2014-11-22T13:41:36Z</time>
      </trkpt>
      <trkpt lat="45.70871" lon="5.85052">
        <ele>648.3032</ele>
        <time>2014-11-22T13:41:40Z</time>
      </trkpt>
      <trkpt lat="45.70876" lon="5.85051">
        <ele>648.3032</ele>
        <time>2014-11-22T13:41:46Z</time>
      </trkpt>
      <trkpt lat="45.70884" lon="5.8505">
        <ele>649.128</ele>
        <time>2014-11-22T13:41:51Z</time>
      </trkpt>
      <trkpt lat="45.70891" lon="5.8505">
        <ele>649.128</ele>
        <time>2014-11-22T13:41:56Z</time>
      </trkpt>
      <trkpt lat="45.70898" lon="5.85047">
        <ele>650.01965</ele>
        <time>2014-11-22T13:42:01Z</time>
      </trkpt>
      <trkpt lat="45.70908" lon="5.85043">
        <ele>651.0719</ele>
        <time>2014-11-22T13:42:07Z</time>
      </trkpt>
      <trkpt lat="45.70911" lon="5.85041">
        <ele>651.0719</ele>
        <time>2014-11-22T13:42:11Z</time>
      </trkpt>
      <trkpt lat="45.7092" lon="5.85041">
        <ele>652.32794</ele>
        <time>2014-11-22T13:42:16Z</time>
      </trkpt>
      <trkpt lat="45.70926" lon="5.85038">
        <ele>652.32794</ele>
        <time>2014-11-22T13:42:21Z</time>
      </trkpt>
      <trkpt lat="45.70933" lon="5.85034">
        <ele>653.1645</ele>
        <time>2014-11-22T13:42:27Z</time>
      </trkpt>
      <trkpt lat="45.70941" lon="5.85028">
        <ele>653.8411</ele>
        <time>2014-11-22T13:42:31Z</time>
      </trkpt>
      <trkpt lat="45.70947" lon="5.85026">
        <ele>653.8411</ele>
        <time>2014-11-22T13:42:36Z</time>
      </trkpt>
      <trkpt lat="45.7096" lon="5.85021">
        <ele>655.2043</ele>
        <time>2014-11-22T13:42:41Z</time>
      </trkpt>
      <trkpt lat="45.70968" lon="5.85019">
        <ele>655.2043</ele>
        <time>2014-11-22T13:42:46Z</time>
      </trkpt>
      <trkpt lat="45.70975" lon="5.85017">
        <ele>656.797</ele>
        <time>2014-11-22T13:42:51Z</time>
      </trkpt>
      <trkpt lat="45.70979" lon="5.85013">
        <ele>656.797</ele>
        <time>2014-11-22T13:42:57Z</time>
      </trkpt>
      <trkpt lat="45.70985" lon="5.85011">
        <ele>658.35394</ele>
        <time>2014-11-22T13:43:01Z</time>
      </trkpt>
      <trkpt lat="45.70987" lon="5.85012">
        <ele>658.35394</ele>
        <time>2014-11-22T13:43:06Z</time>
      </trkpt>
      <trkpt lat="45.70993" lon="5.85009">
        <ele>658.35394</ele>
        <time>2014-11-22T13:43:11Z</time>
      </trkpt>
      <trkpt lat="45.70996" lon="5.85008">
        <ele>660.17694</ele>
        <time>2014-11-22T13:43:16Z</time>
      </trkpt>
      <trkpt lat="45.71001" lon="5.85005">
        <ele>660.17694</ele>
        <time>2014-11-22T13:43:21Z</time>
      </trkpt>
      <trkpt lat="45.71004" lon="5.85004">
        <ele>660.17694</ele>
        <time>2014-11-22T13:43:27Z</time>
      </trkpt>
      <trkpt lat="45.7101" lon="5.84995">
        <ele>661.3348</ele>
        <time>2014-11-22T13:43:31Z</time>
      </trkpt>
      <trkpt lat="45.71015" lon="5.84989">
        <ele>661.3348</ele>
        <time>2014-11-22T13:43:36Z</time>
      </trkpt>
      <trkpt lat="45.71022" lon="5.84985">
        <ele>662.6236</ele>
        <time>2014-11-22T13:43:40Z</time>
      </trkpt>
      <trkpt lat="45.71029" lon="5.84982">
        <ele>662.6236</ele>
        <time>2014-11-22T13:43:45Z</time>
      </trkpt>
      <trkpt lat="45.71036" lon="5.84978">
        <ele>664.10376</ele>
        <time>2014-11-22T13:43:50Z</time>
      </trkpt>
      <trkpt lat="45.71043" lon="5.84976">
        <ele>664.10376</ele>
        <time>2014-11-22T13:43:55Z</time>
      </trkpt>
      <trkpt lat="45.7105" lon="5.84975">
        <ele>666.32056</ele>
        <time>2014-11-22T13:44:00Z</time>
      </trkpt>
      <trkpt lat="45.71056" lon="5.84971">
        <ele>666.32056</ele>
        <time>2014-11-22T13:44:05Z</time>
      </trkpt>
      <trkpt lat="45.71061" lon="5.84969">
        <ele>668.63885</ele>
        <time>2014-11-22T13:44:10Z</time>
      </trkpt>
      <trkpt lat="45.71069" lon="5.84964">
        <ele>668.63885</ele>
        <time>2014-11-22T13:44:15Z</time>
      </trkpt>
      <trkpt lat="45.71081" lon="5.84959">
        <ele>671.40686</ele>
        <time>2014-11-22T13:44:20Z</time>
      </trkpt>
      <trkpt lat="45.7109" lon="5.84957">
        <ele>674.2541</ele>
        <time>2014-11-22T13:44:25Z</time>
      </trkpt>
      <trkpt lat="45.71098" lon="5.84955">
        <ele>674.2541</ele>
        <time>2014-11-22T13:44:30Z</time>
      </trkpt>
      <trkpt lat="45.71104" lon="5.84955">
        <ele>677.6444</ele>
        <time>2014-11-22T13:44:35Z</time>
      </trkpt>
      <trkpt lat="45.71111" lon="5.84952">
        <ele>677.6444</ele>
        <time>2014-11-22T13:44:40Z</time>
      </trkpt>
      <trkpt lat="45.71118" lon="5.84952">
        <ele>681.1848</ele>
        <time>2014-11-22T13:44:45Z</time>
      </trkpt>
      <trkpt lat="45.71124" lon="5.84948">
        <ele>681.1848</ele>
        <time>2014-11-22T13:44:50Z</time>
      </trkpt>
      <trkpt lat="45.7113" lon="5.84946">
        <ele>684.1072</ele>
        <time>2014-11-22T13:44:55Z</time>
      </trkpt>
      <trkpt lat="45.71137" lon="5.84945">
        <ele>684.1072</ele>
        <time>2014-11-22T13:45:00Z</time>
      </trkpt>
      <trkpt lat="45.71143" lon="5.84945">
        <ele>686.898</ele>
        <time>2014-11-22T13:45:05Z</time>
      </trkpt>
      <trkpt lat="45.71151" lon="5.84943">
        <ele>686.898</ele>
        <time>2014-11-22T13:45:10Z</time>
      </trkpt>
      <trkpt lat="45.71159" lon="5.84941">
        <ele>689.2159</ele>
        <time>2014-11-22T13:45:15Z</time>
      </trkpt>
      <trkpt lat="45.71171" lon="5.84937">
        <ele>690.9479</ele>
        <time>2014-11-22T13:45:20Z</time>
      </trkpt>
      <trkpt lat="45.71182" lon="5.84934">
        <ele>692.13513</ele>
        <time>2014-11-22T13:45:25Z</time>
      </trkpt>
      <trkpt lat="45.71192" lon="5.84934">
        <ele>693.048</ele>
        <time>2014-11-22T13:45:30Z</time>
      </trkpt>
      <trkpt lat="45.71206" lon="5.84932">
        <ele>693.73627</ele>
        <time>2014-11-22T13:45:35Z</time>
      </trkpt>
      <trkpt lat="45.71223" lon="5.8493">
        <ele>694.59265</ele>
        <time>2014-11-22T13:45:41Z</time>
      </trkpt>
      <trkpt lat="45.71233" lon="5.84936">
        <ele>696.2256</ele>
        <time>2014-11-22T13:45:45Z</time>
      </trkpt>
      <trkpt lat="45.71239" lon="5.84939">
        <ele>696.2256</ele>
        <time>2014-11-22T13:45:50Z</time>
      </trkpt>
      <trkpt lat="45.71241" lon="5.84946">
        <ele>698.851</ele>
        <time>2014-11-22T13:45:55Z</time>
      </trkpt>
      <trkpt lat="45.71239" lon="5.84954">
        <ele>698.851</ele>
        <time>2014-11-22T13:46:00Z</time>
      </trkpt>
      <trkpt lat="45.71237" lon="5.8496">
        <ele>701.7295</ele>
        <time>2014-11-22T13:46:05Z</time>
      </trkpt>
      <trkpt lat="45.71236" lon="5.84966">
        <ele>701.7295</ele>
        <time>2014-11-22T13:46:10Z</time>
      </trkpt>
      <trkpt lat="45.71233" lon="5.84973">
        <ele>704.44916</ele>
        <time>2014-11-22T13:46:15Z</time>
      </trkpt>
      <trkpt lat="45.71229" lon="5.84978">
        <ele>704.44916</ele>
        <time>2014-11-22T13:46:20Z</time>
      </trkpt>
      <trkpt lat="45.71225" lon="5.84984">
        <ele>706.85956</ele>
        <time>2014-11-22T13:46:25Z</time>
      </trkpt>
      <trkpt lat="45.71224" lon="5.84988">
        <ele>706.85956</ele>
        <time>2014-11-22T13:46:30Z</time>
      </trkpt>
      <trkpt lat="45.71228" lon="5.84992">
        <ele>706.85956</ele>
        <time>2014-11-22T13:46:35Z</time>
      </trkpt>
      <trkpt lat="45.71234" lon="5.84995">
        <ele>707.1938</ele>
        <time>2014-11-22T13:46:40Z</time>
      </trkpt>
      <trkpt lat="45.71235" lon="5.85003">
        <ele>707.1938</ele>
        <time>2014-11-22T13:46:45Z</time>
      </trkpt>
      <trkpt lat="45.71235" lon="5.85014">
        <ele>707.27936</ele>
        <time>2014-11-22T13:46:50Z</time>
      </trkpt>
      <trkpt lat="45.71236" lon="5.85018">
        <ele>707.27936</ele>
        <time>2014-11-22T13:46:55Z</time>
      </trkpt>
      <trkpt lat="45.71239" lon="5.85014">
        <ele>707.27936</ele>
        <time>2014-11-22T13:47:00Z</time>
      </trkpt>
      <trkpt lat="45.71245" lon="5.85013">
        <ele>707.1962</ele>
        <time>2014-11-22T13:47:05Z</time>
      </trkpt>
      <trkpt lat="45.71251" lon="5.85013">
        <ele>707.1962</ele>
        <time>2014-11-22T13:47:10Z</time>
      </trkpt>
      <trkpt lat="45.71256" lon="5.85016">
        <ele>706.6011</ele>
        <time>2014-11-22T13:47:15Z</time>
      </trkpt>
      <trkpt lat="45.71256" lon="5.85019">
        <ele>706.6011</ele>
        <time>2014-11-22T13:47:20Z</time>
      </trkpt>
      <trkpt lat="45.71257" lon="5.85021">
        <ele>706.6011</ele>
        <time>2014-11-22T13:47:25Z</time>
      </trkpt>
      <trkpt lat="45.71259" lon="5.85021">
        <ele>706.6011</ele>
        <time>2014-11-22T13:47:30Z</time>
      </trkpt>
      <trkpt lat="45.71259" lon="5.85021">
        <ele>706.6011</ele>
        <time>2014-11-22T13:47:35Z</time>
      </trkpt>
      <trkpt lat="45.71259" lon="5.85021">
        <ele>706.6011</ele>
        <time>2014-11-22T13:47:42Z</time>
      </trkpt>
      <trkpt lat="45.7126" lon="5.8502">
        <ele>706.6011</ele>
        <time>2014-11-22T13:47:46Z</time>
      </trkpt>
      <trkpt lat="45.71261" lon="5.85021">
        <ele>706.6011</ele>
        <time>2014-11-22T13:47:51Z</time>
      </trkpt>
      <trkpt lat="45.71262" lon="5.85021">
        <ele>706.79144</ele>
        <time>2014-11-22T13:47:56Z</time>
      </trkpt>
      <trkpt lat="45.71262" lon="5.85022">
        <ele>706.79144</ele>
        <time>2014-11-22T13:48:00Z</time>
      </trkpt>
      <trkpt lat="45.71262" lon="5.85022">
        <ele>706.79144</ele>
        <time>2014-11-22T13:48:05Z</time>
      </trkpt>
      <trkpt lat="45.71262" lon="5.85022">
        <ele>706.79144</ele>
        <time>2014-11-22T13:48:10Z</time>
      </trkpt>
      <trkpt lat="45.71262" lon="5.85022">
        <ele>706.79144</ele>
        <time>2014-11-22T13:48:15Z</time>
      </trkpt>
      <trkpt lat="45.71262" lon="5.85022">
        <ele>706.79144</ele>
        <time>2014-11-22T13:48:20Z</time>
      </trkpt>
      <trkpt lat="45.71263" lon="5.85023">
        <ele>706.79144</ele>
        <time>2014-11-22T13:48:25Z</time>
      </trkpt>
      <trkpt lat="45.71263" lon="5.85032">
        <ele>706.79144</ele>
        <time>2014-11-22T13:48:30Z</time>
      </trkpt>
      <trkpt lat="45.71262" lon="5.85036">
        <ele>706.25806</ele>
        <time>2014-11-22T13:48:36Z</time>
      </trkpt>
      <trkpt lat="45.71259" lon="5.85041">
        <ele>706.25806</ele>
        <time>2014-11-22T13:48:41Z</time>
      </trkpt>
      <trkpt lat="45.71259" lon="5.85044">
        <ele>706.25806</ele>
        <time>2014-11-22T13:48:45Z</time>
      </trkpt>
      <trkpt lat="45.71258" lon="5.85048">
        <ele>706.04004</ele>
        <time>2014-11-22T13:48:50Z</time>
      </trkpt>
      <trkpt lat="45.71258" lon="5.85049">
        <ele>706.04004</ele>
        <time>2014-11-22T13:48:57Z</time>
      </trkpt>
      <trkpt lat="45.71258" lon="5.85049">
        <ele>706.04004</ele>
        <time>2014-11-22T13:49:00Z</time>
      </trkpt>
      <trkpt lat="45.71258" lon="5.8505">
        <ele>706.04004</ele>
        <time>2014-11-22T13:49:05Z</time>
      </trkpt>
      <trkpt lat="45.71257" lon="5.85044">
        <ele>706.04004</ele>
        <time>2014-11-22T13:49:10Z</time>
      </trkpt>
      <trkpt lat="45.71259" lon="5.8504">
        <ele>706.04004</ele>
        <time>2014-11-22T13:49:15Z</time>
      </trkpt>
      <trkpt lat="45.71259" lon="5.85038">
        <ele>705.2978</ele>
        <time>2014-11-22T13:49:20Z</time>
      </trkpt>
      <trkpt lat="45.71261" lon="5.85033">
        <ele>705.2978</ele>
        <time>2014-11-22T13:49:25Z</time>
      </trkpt>
      <trkpt lat="45.71264" lon="5.85029">
        <ele>705.2978</ele>
        <time>2014-11-22T13:49:31Z</time>
      </trkpt>
      <trkpt lat="45.71264" lon="5.85029">
        <ele>705.2978</ele>
        <time>2014-11-22T13:49:37Z</time>
      </trkpt>
      <trkpt lat="45.71261" lon="5.85028">
        <ele>704.63855</ele>
        <time>2014-11-22T13:49:41Z</time>
      </trkpt>
      <trkpt lat="45.71259" lon="5.85028">
        <ele>704.63855</ele>
        <time>2014-11-22T13:49:46Z</time>
      </trkpt>
      <trkpt lat="45.71259" lon="5.85029">
        <ele>704.63855</ele>
        <time>2014-11-22T13:49:52Z</time>
      </trkpt>
      <trkpt lat="45.7126" lon="5.85028">
        <ele>704.63855</ele>
        <time>2014-11-22T13:49:56Z</time>
      </trkpt>
      <trkpt lat="45.7126" lon="5.85028">
        <ele>704.63855</ele>
        <time>2014-11-22T13:50:01Z</time>
      </trkpt>
      <trkpt lat="45.7126" lon="5.85028">
        <ele>704.63855</ele>
        <time>2014-11-22T13:50:06Z</time>
      </trkpt>
      <trkpt lat="45.71263" lon="5.8503">
        <ele>704.63855</ele>
        <time>2014-11-22T13:50:11Z</time>
      </trkpt>
      <trkpt lat="45.71267" lon="5.85029">
        <ele>704.1921</ele>
        <time>2014-11-22T13:50:16Z</time>
      </trkpt>
      <trkpt lat="45.71272" lon="5.85029">
        <ele>704.1921</ele>
        <time>2014-11-22T13:50:21Z</time>
      </trkpt>
      <trkpt lat="45.71279" lon="5.85028">
        <ele>703.5594</ele>
        <time>2014-11-22T13:50:27Z</time>
      </trkpt>
      <trkpt lat="45.71284" lon="5.85028">
        <ele>703.5594</ele>
        <time>2014-11-22T13:50:32Z</time>
      </trkpt>
      <trkpt lat="45.71286" lon="5.85027">
        <ele>703.5594</ele>
        <time>2014-11-22T13:50:36Z</time>
      </trkpt>
      <trkpt lat="45.71291" lon="5.85024">
        <ele>702.2126</ele>
        <time>2014-11-22T13:50:41Z</time>
      </trkpt>
      <trkpt lat="45.71296" lon="5.85023">
        <ele>702.2126</ele>
        <time>2014-11-22T13:50:46Z</time>
      </trkpt>
      <trkpt lat="45.71299" lon="5.85025">
        <ele>702.2126</ele>
        <time>2014-11-22T13:50:51Z</time>
      </trkpt>
      <trkpt lat="45.71305" lon="5.85028">
        <ele>700.47156</ele>
        <time>2014-11-22T13:50:56Z</time>
      </trkpt>
      <trkpt lat="45.71312" lon="5.85025">
        <ele>700.47156</ele>
        <time>2014-11-22T13:51:01Z</time>
      </trkpt>
      <trkpt lat="45.71313" lon="5.8502">
        <ele>698.2878</ele>
        <time>2014-11-22T13:51:06Z</time>
      </trkpt>
      <trkpt lat="45.71317" lon="5.85015">
        <ele>698.2878</ele>
        <time>2014-11-22T13:51:11Z</time>
      </trkpt>
      <trkpt lat="45.71319" lon="5.85008">
        <ele>695.214</ele>
        <time>2014-11-22T13:51:16Z</time>
      </trkpt>
      <trkpt lat="45.71325" lon="5.85005">
        <ele>695.214</ele>
        <time>2014-11-22T13:51:21Z</time>
      </trkpt>
      <trkpt lat="45.7133" lon="5.85005">
        <ele>693.05743</ele>
        <time>2014-11-22T13:51:26Z</time>
      </trkpt>
      <trkpt lat="45.71336" lon="5.85004">
        <ele>693.05743</ele>
        <time>2014-11-22T13:51:31Z</time>
      </trkpt>
      <trkpt lat="45.71339" lon="5.85">
        <ele>691.61633</ele>
        <time>2014-11-22T13:51:35Z</time>
      </trkpt>
      <trkpt lat="45.71343" lon="5.84993">
        <ele>691.61633</ele>
        <time>2014-11-22T13:51:40Z</time>
      </trkpt>
      <trkpt lat="45.71347" lon="5.84985">
        <ele>689.5199</ele>
        <time>2014-11-22T13:51:45Z</time>
      </trkpt>
      <trkpt lat="45.71355" lon="5.84981">
        <ele>689.5199</ele>
        <time>2014-11-22T13:51:50Z</time>
      </trkpt>
      <trkpt lat="45.7136" lon="5.84971">
        <ele>687.5028</ele>
        <time>2014-11-22T13:51:55Z</time>
      </trkpt>
      <trkpt lat="45.71366" lon="5.8496">
        <ele>685.66895</ele>
        <time>2014-11-22T13:52:00Z</time>
      </trkpt>
      <trkpt lat="45.71368" lon="5.84954">
        <ele>685.66895</ele>
        <time>2014-11-22T13:52:05Z</time>
      </trkpt>
      <trkpt lat="45.71372" lon="5.84951">
        <ele>682.8889</ele>
        <time>2014-11-22T13:52:10Z</time>
      </trkpt>
      <trkpt lat="45.71374" lon="5.84948">
        <ele>682.8889</ele>
        <time>2014-11-22T13:52:15Z</time>
      </trkpt>
      <trkpt lat="45.71377" lon="5.84944">
        <ele>682.8889</ele>
        <time>2014-11-22T13:52:20Z</time>
      </trkpt>
      <trkpt lat="45.71381" lon="5.84942">
        <ele>678.8535</ele>
        <time>2014-11-22T13:52:25Z</time>
      </trkpt>
      <trkpt lat="45.71388" lon="5.84939">
        <ele>678.8535</ele>
        <time>2014-11-22T13:52:30Z</time>
      </trkpt>
      <trkpt lat="45.71394" lon="5.84938">
        <ele>674.82166</ele>
        <time>2014-11-22T13:52:35Z</time>
      </trkpt>
      <trkpt lat="45.71399" lon="5.84934">
        <ele>674.82166</ele>
        <time>2014-11-22T13:52:40Z</time>
      </trkpt>
      <trkpt lat="45.71404" lon="5.84929">
        <ele>670.7778</ele>
        <time>2014-11-22T13:52:45Z</time>
      </trkpt>
      <trkpt lat="45.71408" lon="5.84926">
        <ele>670.7778</ele>
        <time>2014-11-22T13:52:50Z</time>
      </trkpt>
      <trkpt lat="45.71415" lon="5.84922">
        <ele>666.11633</ele>
        <time>2014-11-22T13:52:55Z</time>
      </trkpt>
      <trkpt lat="45.7142" lon="5.84919">
        <ele>666.11633</ele>
        <time>2014-11-22T13:53:00Z</time>
      </trkpt>
      <trkpt lat="45.71425" lon="5.84916">
        <ele>660.9839</ele>
        <time>2014-11-22T13:53:05Z</time>
      </trkpt>
      <trkpt lat="45.71429" lon="5.84913">
        <ele>660.9839</ele>
        <time>2014-11-22T13:53:10Z</time>
      </trkpt>
      <trkpt lat="45.71435" lon="5.84911">
        <ele>655.8918</ele>
        <time>2014-11-22T13:53:15Z</time>
      </trkpt>
      <trkpt lat="45.71442" lon="5.84908">
        <ele>655.8918</ele>
        <time>2014-11-22T13:53:20Z</time>
      </trkpt>
      <trkpt lat="45.71446" lon="5.84909">
        <ele>651.8899</ele>
        <time>2014-11-22T13:53:25Z</time>
      </trkpt>
      <trkpt lat="45.71449" lon="5.84909">
        <ele>651.8899</ele>
        <time>2014-11-22T13:53:30Z</time>
      </trkpt>
      <trkpt lat="45.71451" lon="5.84908">
        <ele>651.8899</ele>
        <time>2014-11-22T13:53:35Z</time>
      </trkpt>
      <trkpt lat="45.71456" lon="5.84907">
        <ele>648.6362</ele>
        <time>2014-11-22T13:53:40Z</time>
      </trkpt>
      <trkpt lat="45.71461" lon="5.84903">
        <ele>648.6362</ele>
        <time>2014-11-22T13:53:45Z</time>
      </trkpt>
      <trkpt lat="45.71465" lon="5.84902">
        <ele>645.0042</ele>
        <time>2014-11-22T13:53:50Z</time>
      </trkpt>
      <trkpt lat="45.71469" lon="5.849">
        <ele>645.0042</ele>
        <time>2014-11-22T13:53:55Z</time>
      </trkpt>
      <trkpt lat="45.71477" lon="5.84899">
        <ele>641.46405</ele>
        <time>2014-11-22T13:54:01Z</time>
      </trkpt>
      <trkpt lat="45.71484" lon="5.84897">
        <ele>641.46405</ele>
        <time>2014-11-22T13:54:05Z</time>
      </trkpt>
      <trkpt lat="45.71488" lon="5.84888">
        <ele>638.0184</ele>
        <time>2014-11-22T13:54:10Z</time>
      </trkpt>
      <trkpt lat="45.71491" lon="5.84879">
        <ele>638.0184</ele>
        <time>2014-11-22T13:54:15Z</time>
      </trkpt>
      <trkpt lat="45.71494" lon="5.84876">
        <ele>634.424</ele>
        <time>2014-11-22T13:54:20Z</time>
      </trkpt>
      <trkpt lat="45.71502" lon="5.84869">
        <ele>634.424</ele>
        <time>2014-11-22T13:54:25Z</time>
      </trkpt>
      <trkpt lat="45.71506" lon="5.84868">
        <ele>631.40686</ele>
        <time>2014-11-22T13:54:30Z</time>
      </trkpt>
      <trkpt lat="45.7151" lon="5.84863">
        <ele>631.40686</ele>
        <time>2014-11-22T13:54:35Z</time>
      </trkpt>
      <trkpt lat="45.71512" lon="5.84862">
        <ele>631.40686</ele>
        <time>2014-11-22T13:54:40Z</time>
      </trkpt>
      <trkpt lat="45.71514" lon="5.84862">
        <ele>631.40686</ele>
        <time>2014-11-22T13:54:45Z</time>
      </trkpt>
      <trkpt lat="45.71518" lon="5.8486">
        <ele>629.29156</ele>
        <time>2014-11-22T13:54:50Z</time>
      </trkpt>
      <trkpt lat="45.71525" lon="5.84857">
        <ele>629.29156</ele>
        <time>2014-11-22T13:54:55Z</time>
      </trkpt>
      <trkpt lat="45.71528" lon="5.84854">
        <ele>627.65564</ele>
        <time>2014-11-22T13:55:00Z</time>
      </trkpt>
      <trkpt lat="45.7154" lon="5.84851">
        <ele>626.73975</ele>
        <time>2014-11-22T13:55:05Z</time>
      </trkpt>
      <trkpt lat="45.71552" lon="5.84844">
        <ele>626.491</ele>
        <time>2014-11-22T13:55:10Z</time>
      </trkpt>
      <trkpt lat="45.71558" lon="5.84842">
        <ele>626.491</ele>
        <time>2014-11-22T13:55:15Z</time>
      </trkpt>
      <trkpt lat="45.71563" lon="5.8484">
        <ele>626.58435</ele>
        <time>2014-11-22T13:55:20Z</time>
      </trkpt>
      <trkpt lat="45.71565" lon="5.84839">
        <ele>626.58435</ele>
        <time>2014-11-22T13:55:25Z</time>
      </trkpt>
      <trkpt lat="45.7157" lon="5.84838">
        <ele>626.58435</ele>
        <time>2014-11-22T13:55:30Z</time>
      </trkpt>
      <trkpt lat="45.71573" lon="5.84834">
        <ele>626.0255</ele>
        <time>2014-11-22T13:55:35Z</time>
      </trkpt>
      <trkpt lat="45.71579" lon="5.84834">
        <ele>626.0255</ele>
        <time>2014-11-22T13:55:40Z</time>
      </trkpt>
      <trkpt lat="45.71586" lon="5.84836">
        <ele>625.6676</ele>
        <time>2014-11-22T13:55:45Z</time>
      </trkpt>
      <trkpt lat="45.7159" lon="5.84832">
        <ele>625.6676</ele>
        <time>2014-11-22T13:55:50Z</time>
      </trkpt>
      <trkpt lat="45.71595" lon="5.84832">
        <ele>624.62836</ele>
        <time>2014-11-22T13:55:55Z</time>
      </trkpt>
      <trkpt lat="45.71599" lon="5.84829">
        <ele>624.62836</ele>
        <time>2014-11-22T13:56:00Z</time>
      </trkpt>
      <trkpt lat="45.71608" lon="5.84828">
        <ele>623.6199</ele>
        <time>2014-11-22T13:56:05Z</time>
      </trkpt>
      <trkpt lat="45.71617" lon="5.84829">
        <ele>623.2295</ele>
        <time>2014-11-22T13:56:10Z</time>
      </trkpt>
      <trkpt lat="45.71622" lon="5.84829">
        <ele>623.2295</ele>
        <time>2014-11-22T13:56:15Z</time>
      </trkpt>
      <trkpt lat="45.71625" lon="5.84826">
        <ele>623.2295</ele>
        <time>2014-11-22T13:56:20Z</time>
      </trkpt>
      <trkpt lat="45.71632" lon="5.84826">
        <ele>622.5007</ele>
        <time>2014-11-22T13:56:27Z</time>
      </trkpt>
      <trkpt lat="45.71638" lon="5.84823">
        <ele>622.5007</ele>
        <time>2014-11-22T13:56:30Z</time>
      </trkpt>
      <trkpt lat="45.71643" lon="5.84816">
        <ele>621.67224</ele>
        <time>2014-11-22T13:56:35Z</time>
      </trkpt>
      <trkpt lat="45.71648" lon="5.84818">
        <ele>621.67224</ele>
        <time>2014-11-22T13:56:41Z</time>
      </trkpt>
      <trkpt lat="45.71654" lon="5.84817">
        <ele>620.80695</ele>
        <time>2014-11-22T13:56:46Z</time>
      </trkpt>
      <trkpt lat="45.71661" lon="5.84819">
        <ele>620.80695</ele>
        <time>2014-11-22T13:56:51Z</time>
      </trkpt>
      <trkpt lat="45.71666" lon="5.8482">
        <ele>620.035</ele>
        <time>2014-11-22T13:56:56Z</time>
      </trkpt>
      <trkpt lat="45.71671" lon="5.8482">
        <ele>620.035</ele>
        <time>2014-11-22T13:57:01Z</time>
      </trkpt>
      <trkpt lat="45.71676" lon="5.84823">
        <ele>619.1885</ele>
        <time>2014-11-22T13:57:05Z</time>
      </trkpt>
      <trkpt lat="45.71682" lon="5.84822">
        <ele>619.1885</ele>
        <time>2014-11-22T13:57:10Z</time>
      </trkpt>
      <trkpt lat="45.7169" lon="5.84823">
        <ele>617.99677</ele>
        <time>2014-11-22T13:57:15Z</time>
      </trkpt>
      <trkpt lat="45.71696" lon="5.84822">
        <ele>617.99677</ele>
        <time>2014-11-22T13:57:20Z</time>
      </trkpt>
      <trkpt lat="45.717" lon="5.84821">
        <ele>616.181</ele>
        <time>2014-11-22T13:57:25Z</time>
      </trkpt>
      <trkpt lat="45.71706" lon="5.8482">
        <ele>616.181</ele>
        <time>2014-11-22T13:57:30Z</time>
      </trkpt>
      <trkpt lat="45.71712" lon="5.84821">
        <ele>614.5512</ele>
        <time>2014-11-22T13:57:35Z</time>
      </trkpt>
      <trkpt lat="45.71718" lon="5.84821">
        <ele>614.5512</ele>
        <time>2014-11-22T13:57:40Z</time>
      </trkpt>
      <trkpt lat="45.71722" lon="5.84818">
        <ele>612.4014</ele>
        <time>2014-11-22T13:57:45Z</time>
      </trkpt>
      <trkpt lat="45.71728" lon="5.8482">
        <ele>612.4014</ele>
        <time>2014-11-22T13:57:50Z</time>
      </trkpt>
      <trkpt lat="45.71734" lon="5.84821">
        <ele>610.59247</ele>
        <time>2014-11-22T13:57:55Z</time>
      </trkpt>
      <trkpt lat="45.71739" lon="5.8482">
        <ele>610.59247</ele>
        <time>2014-11-22T13:58:00Z</time>
      </trkpt>
      <trkpt lat="45.71742" lon="5.84822">
        <ele>610.59247</ele>
        <time>2014-11-22T13:58:05Z</time>
      </trkpt>
      <trkpt lat="45.7175" lon="5.84824">
        <ele>608.8688</ele>
        <time>2014-11-22T13:58:10Z</time>
      </trkpt>
      <trkpt lat="45.71755" lon="5.84823">
        <ele>608.8688</ele>
        <time>2014-11-22T13:58:15Z</time>
      </trkpt>
      <trkpt lat="45.71758" lon="5.84818">
        <ele>606.50323</ele>
        <time>2014-11-22T13:58:20Z</time>
      </trkpt>
      <trkpt lat="45.71763" lon="5.84814">
        <ele>606.50323</ele>
        <time>2014-11-22T13:58:25Z</time>
      </trkpt>
      <trkpt lat="45.71769" lon="5.84815">
        <ele>604.049</ele>
        <time>2014-11-22T13:58:30Z</time>
      </trkpt>
      <trkpt lat="45.71772" lon="5.84816">
        <ele>604.049</ele>
        <time>2014-11-22T13:58:35Z</time>
      </trkpt>
      <trkpt lat="45.71778" lon="5.84818">
        <ele>601.94666</ele>
        <time>2014-11-22T13:58:40Z</time>
      </trkpt>
      <trkpt lat="45.71783" lon="5.84817">
        <ele>601.94666</ele>
        <time>2014-11-22T13:58:45Z</time>
      </trkpt>
      <trkpt lat="45.71789" lon="5.84817">
        <ele>599.8396</ele>
        <time>2014-11-22T13:58:50Z</time>
      </trkpt>
      <trkpt lat="45.71792" lon="5.84817">
        <ele>599.8396</ele>
        <time>2014-11-22T13:58:55Z</time>
      </trkpt>
      <trkpt lat="45.71794" lon="5.84818">
        <ele>599.8396</ele>
        <time>2014-11-22T13:59:00Z</time>
      </trkpt>
      <trkpt lat="45.71794" lon="5.84816">
        <ele>599.8396</ele>
        <time>2014-11-22T13:59:05Z</time>
      </trkpt>
      <trkpt lat="45.71794" lon="5.84814">
        <ele>599.8396</ele>
        <time>2014-11-22T13:59:10Z</time>
      </trkpt>
      <trkpt lat="45.71794" lon="5.84815">
        <ele>599.8396</ele>
        <time>2014-11-22T13:59:15Z</time>
      </trkpt>
      <trkpt lat="45.71796" lon="5.84813">
        <ele>598.4927</ele>
        <time>2014-11-22T13:59:20Z</time>
      </trkpt>
      <trkpt lat="45.71796" lon="5.84816">
        <ele>598.4927</ele>
        <time>2014-11-22T13:59:25Z</time>
      </trkpt>
      <trkpt lat="45.71795" lon="5.84818">
        <ele>598.4927</ele>
        <time>2014-11-22T13:59:30Z</time>
      </trkpt>
      <trkpt lat="45.71795" lon="5.84819">
        <ele>598.4927</ele>
        <time>2014-11-22T13:59:35Z</time>
      </trkpt>
      <trkpt lat="45.71795" lon="5.84819">
        <ele>598.4927</ele>
        <time>2014-11-22T13:59:40Z</time>
      </trkpt>
      <trkpt lat="45.71795" lon="5.84819">
        <ele>598.4927</ele>
        <time>2014-11-22T13:59:45Z</time>
      </trkpt>
      <trkpt lat="45.71796" lon="5.84817">
        <ele>598.4927</ele>
        <time>2014-11-22T13:59:50Z</time>
      </trkpt>
      <trkpt lat="45.71795" lon="5.84817">
        <ele>598.4927</ele>
        <time>2014-11-22T13:59:55Z</time>
      </trkpt>
      <trkpt lat="45.71795" lon="5.84817">
        <ele>598.4927</ele>
        <time>2014-11-22T14:00:00Z</time>
      </trkpt>
      <trkpt lat="45.71795" lon="5.84817">
        <ele>598.4927</ele>
        <time>2014-11-22T14:00:05Z</time>
      </trkpt>
      <trkpt lat="45.71795" lon="5.84817">
        <ele>598.4927</ele>
        <time>2014-11-22T14:00:10Z</time>
      </trkpt>
      <trkpt lat="45.71795" lon="5.84818">
        <ele>598.4927</ele>
        <time>2014-11-22T14:00:15Z</time>
      </trkpt>
      <trkpt lat="45.71795" lon="5.84818">
        <ele>598.4927</ele>
        <time>2014-11-22T14:00:20Z</time>
      </trkpt>
      <trkpt lat="45.71793" lon="5.84818">
        <ele>597.2145</ele>
        <time>2014-11-22T14:00:25Z</time>
      </trkpt>
      <trkpt lat="45.71793" lon="5.84817">
        <ele>597.2145</ele>
        <time>2014-11-22T14:00:30Z</time>
      </trkpt>
      <trkpt lat="45.71793" lon="5.84817">
        <ele>597.2145</ele>
        <time>2014-11-22T14:00:35Z</time>
      </trkpt>
      <trkpt lat="45.71793" lon="5.84817">
        <ele>597.2145</ele>
        <time>2014-11-22T14:00:40Z</time>
      </trkpt>
      <trkpt lat="45.71793" lon="5.84817">
        <ele>597.2145</ele>
        <time>2014-11-22T14:00:45Z</time>
      </trkpt>
      <trkpt lat="45.71793" lon="5.84817">
        <ele>597.2145</ele>
        <time>2014-11-22T14:00:50Z</time>
      </trkpt>
      <trkpt lat="45.71793" lon="5.84817">
        <ele>597.2145</ele>
        <time>2014-11-22T14:00:55Z</time>
      </trkpt>
      <trkpt lat="45.71793" lon="5.84817">
        <ele>597.2145</ele>
        <time>2014-11-22T14:01:00Z</time>
      </trkpt>
      <trkpt lat="45.71794" lon="5.84817">
        <ele>597.2145</ele>
        <time>2014-11-22T14:01:05Z</time>
      </trkpt>
      <trkpt lat="45.71795" lon="5.84814">
        <ele>597.2145</ele>
        <time>2014-11-22T14:01:10Z</time>
      </trkpt>
      <trkpt lat="45.71797" lon="5.84809">
        <ele>597.2145</ele>
        <time>2014-11-22T14:01:15Z</time>
      </trkpt>
      <trkpt lat="45.71798" lon="5.84803">
        <ele>595.2777</ele>
        <time>2014-11-22T14:01:20Z</time>
      </trkpt>
      <trkpt lat="45.718" lon="5.84798">
        <ele>595.2777</ele>
        <time>2014-11-22T14:01:25Z</time>
      </trkpt>
      <trkpt lat="45.71804" lon="5.84792">
        <ele>593.0768</ele>
        <time>2014-11-22T14:01:30Z</time>
      </trkpt>
      <trkpt lat="45.7181" lon="5.84786">
        <ele>593.0768</ele>
        <time>2014-11-22T14:01:35Z</time>
      </trkpt>
      <trkpt lat="45.71815" lon="5.8478">
        <ele>591.4966</ele>
        <time>2014-11-22T14:01:40Z</time>
      </trkpt>
      <trkpt lat="45.71819" lon="5.84776">
        <ele>591.4966</ele>
        <time>2014-11-22T14:01:45Z</time>
      </trkpt>
      <trkpt lat="45.71822" lon="5.84772">
        <ele>590.3032</ele>
        <time>2014-11-22T14:01:50Z</time>
      </trkpt>
      <trkpt lat="45.71825" lon="5.84766">
        <ele>590.3032</ele>
        <time>2014-11-22T14:01:55Z</time>
      </trkpt>
      <trkpt lat="45.71828" lon="5.84762">
        <ele>588.9619</ele>
        <time>2014-11-22T14:02:00Z</time>
      </trkpt>
      <trkpt lat="45.71832" lon="5.84757">
        <ele>588.9619</ele>
        <time>2014-11-22T14:02:05Z</time>
      </trkpt>
      <trkpt lat="45.71839" lon="5.84751">
        <ele>588.59155</ele>
        <time>2014-11-22T14:02:10Z</time>
      </trkpt>
      <trkpt lat="45.71848" lon="5.84743">
        <ele>588.55444</ele>
        <time>2014-11-22T14:02:15Z</time>
      </trkpt>
      <trkpt lat="45.71856" lon="5.84735">
        <ele>589.4981</ele>
        <time>2014-11-22T14:02:20Z</time>
      </trkpt>
      <trkpt lat="45.71864" lon="5.84734">
        <ele>589.4981</ele>
        <time>2014-11-22T14:02:25Z</time>
      </trkpt>
      <trkpt lat="45.7187" lon="5.84732">
        <ele>591.25616</ele>
        <time>2014-11-22T14:02:30Z</time>
      </trkpt>
      <trkpt lat="45.71875" lon="5.84728">
        <ele>591.25616</ele>
        <time>2014-11-22T14:02:35Z</time>
      </trkpt>
      <trkpt lat="45.71879" lon="5.84729">
        <ele>593.70087</ele>
        <time>2014-11-22T14:02:40Z</time>
      </trkpt>
      <trkpt lat="45.7188" lon="5.84729">
        <ele>593.70087</ele>
        <time>2014-11-22T14:02:45Z</time>
      </trkpt>
      <trkpt lat="45.71883" lon="5.84727">
        <ele>593.70087</ele>
        <time>2014-11-22T14:02:50Z</time>
      </trkpt>
      <trkpt lat="45.71888" lon="5.84723">
        <ele>596.23645</ele>
        <time>2014-11-22T14:02:55Z</time>
      </trkpt>
      <trkpt lat="45.71894" lon="5.84717">
        <ele>596.23645</ele>
        <time>2014-11-22T14:03:00Z</time>
      </trkpt>
      <trkpt lat="45.71896" lon="5.84714">
        <ele>598.54144</ele>
        <time>2014-11-22T14:03:05Z</time>
      </trkpt>
      <trkpt lat="45.719" lon="5.84709">
        <ele>598.54144</ele>
        <time>2014-11-22T14:03:10Z</time>
      </trkpt>
      <trkpt lat="45.71907" lon="5.84704">
        <ele>601.25543</ele>
        <time>2014-11-22T14:03:15Z</time>
      </trkpt>
      <trkpt lat="45.71912" lon="5.84701">
        <ele>601.25543</ele>
        <time>2014-11-22T14:03:20Z</time>
      </trkpt>
      <trkpt lat="45.71919" lon="5.84698">
        <ele>604.29266</ele>
        <time>2014-11-22T14:03:25Z</time>
      </trkpt>
      <trkpt lat="45.71924" lon="5.84695">
        <ele>604.29266</ele>
        <time>2014-11-22T14:03:30Z</time>
      </trkpt>
      <trkpt lat="45.71931" lon="5.84689">
        <ele>607.0398</ele>
        <time>2014-11-22T14:03:35Z</time>
      </trkpt>
      <trkpt lat="45.71936" lon="5.84685">
        <ele>607.0398</ele>
        <time>2014-11-22T14:03:40Z</time>
      </trkpt>
      <trkpt lat="45.71939" lon="5.84682">
        <ele>609.63574</ele>
        <time>2014-11-22T14:03:45Z</time>
      </trkpt>
      <trkpt lat="45.71941" lon="5.84677">
        <ele>609.63574</ele>
        <time>2014-11-22T14:03:50Z</time>
      </trkpt>
      <trkpt lat="45.71945" lon="5.84676">
        <ele>609.63574</ele>
        <time>2014-11-22T14:03:55Z</time>
      </trkpt>
      <trkpt lat="45.7195" lon="5.84666">
        <ele>611.83514</ele>
        <time>2014-11-22T14:04:00Z</time>
      </trkpt>
      <trkpt lat="45.71959" lon="5.84661">
        <ele>611.83514</ele>
        <time>2014-11-22T14:04:05Z</time>
      </trkpt>
      <trkpt lat="45.71967" lon="5.84657">
        <ele>614.8387</ele>
        <time>2014-11-22T14:04:10Z</time>
      </trkpt>
      <trkpt lat="45.71974" lon="5.84652">
        <ele>614.8387</ele>
        <time>2014-11-22T14:04:15Z</time>
      </trkpt>
      <trkpt lat="45.7198" lon="5.8465">
        <ele>618.2581</ele>
        <time>2014-11-22T14:04:20Z</time>
      </trkpt>
      <trkpt lat="45.71986" lon="5.84647">
        <ele>618.2581</ele>
        <time>2014-11-22T14:04:25Z</time>
      </trkpt>
      <trkpt lat="45.71989" lon="5.84644">
        <ele>621.142</ele>
        <time>2014-11-22T14:04:30Z</time>
      </trkpt>
      <trkpt lat="45.71994" lon="5.84641">
        <ele>621.142</ele>
        <time>2014-11-22T14:04:35Z</time>
      </trkpt>
      <trkpt lat="45.71999" lon="5.84638">
        <ele>623.432</ele>
        <time>2014-11-22T14:04:40Z</time>
      </trkpt>
      <trkpt lat="45.72005" lon="5.84635">
        <ele>623.432</ele>
        <time>2014-11-22T14:04:45Z</time>
      </trkpt>
      <trkpt lat="45.72012" lon="5.84634">
        <ele>625.7389</ele>
        <time>2014-11-22T14:04:50Z</time>
      </trkpt>
      <trkpt lat="45.7202" lon="5.84633">
        <ele>625.7389</ele>
        <time>2014-11-22T14:04:55Z</time>
      </trkpt>
      <trkpt lat="45.72026" lon="5.84632">
        <ele>627.8075</ele>
        <time>2014-11-22T14:05:00Z</time>
      </trkpt>
      <trkpt lat="45.72033" lon="5.84632">
        <ele>627.8075</ele>
        <time>2014-11-22T14:05:05Z</time>
      </trkpt>
      <trkpt lat="45.72041" lon="5.84633">
        <ele>629.92114</ele>
        <time>2014-11-22T14:05:10Z</time>
      </trkpt>
      <trkpt lat="45.72048" lon="5.84632">
        <ele>629.92114</ele>
        <time>2014-11-22T14:05:15Z</time>
      </trkpt>
      <trkpt lat="45.72052" lon="5.84628">
        <ele>631.4634</ele>
        <time>2014-11-22T14:05:20Z</time>
      </trkpt>
      <trkpt lat="45.72057" lon="5.84623">
        <ele>631.4634</ele>
        <time>2014-11-22T14:05:25Z</time>
      </trkpt>
      <trkpt lat="45.72063" lon="5.84618">
        <ele>632.672</ele>
        <time>2014-11-22T14:05:30Z</time>
      </trkpt>
      <trkpt lat="45.72067" lon="5.84614">
        <ele>632.672</ele>
        <time>2014-11-22T14:05:35Z</time>
      </trkpt>
      <trkpt lat="45.72073" lon="5.84609">
        <ele>633.6246</ele>
        <time>2014-11-22T14:05:40Z</time>
      </trkpt>
      <trkpt lat="45.7208" lon="5.84604">
        <ele>633.6246</ele>
        <time>2014-11-22T14:05:45Z</time>
      </trkpt>
      <trkpt lat="45.72088" lon="5.84598">
        <ele>634.69653</ele>
        <time>2014-11-22T14:05:50Z</time>
      </trkpt>
      <trkpt lat="45.72094" lon="5.84593">
        <ele>634.69653</ele>
        <time>2014-11-22T14:05:55Z</time>
      </trkpt>
      <trkpt lat="45.721" lon="5.84588">
        <ele>635.6303</ele>
        <time>2014-11-22T14:06:00Z</time>
      </trkpt>
      <trkpt lat="45.72107" lon="5.84584">
        <ele>635.6303</ele>
        <time>2014-11-22T14:06:05Z</time>
      </trkpt>
      <trkpt lat="45.72113" lon="5.84578">
        <ele>636.6493</ele>
        <time>2014-11-22T14:06:10Z</time>
      </trkpt>
      <trkpt lat="45.7212" lon="5.84573">
        <ele>636.6493</ele>
        <time>2014-11-22T14:06:15Z</time>
      </trkpt>
      <trkpt lat="45.72125" lon="5.8457">
        <ele>637.4992</ele>
        <time>2014-11-22T14:06:21Z</time>
      </trkpt>
      <trkpt lat="45.72132" lon="5.84567">
        <ele>637.4992</ele>
        <time>2014-11-22T14:06:26Z</time>
      </trkpt>
      <trkpt lat="45.72138" lon="5.84564">
        <ele>638.3198</ele>
        <time>2014-11-22T14:06:31Z</time>
      </trkpt>
      <trkpt lat="45.72143" lon="5.8456">
        <ele>638.3198</ele>
        <time>2014-11-22T14:06:36Z</time>
      </trkpt>
      <trkpt lat="45.72148" lon="5.84556">
        <ele>638.88086</ele>
        <time>2014-11-22T14:06:41Z</time>
      </trkpt>
      <trkpt lat="45.72152" lon="5.84553">
        <ele>638.88086</ele>
        <time>2014-11-22T14:06:45Z</time>
      </trkpt>
      <trkpt lat="45.72158" lon="5.84549">
        <ele>639.3011</ele>
        <time>2014-11-22T14:06:51Z</time>
      </trkpt>
      <trkpt lat="45.72166" lon="5.84544">
        <ele>639.3011</ele>
        <time>2014-11-22T14:06:56Z</time>
      </trkpt>
      <trkpt lat="45.72172" lon="5.8454">
        <ele>639.8212</ele>
        <time>2014-11-22T14:07:02Z</time>
      </trkpt>
      <trkpt lat="45.7218" lon="5.84534">
        <ele>640.2027</ele>
        <time>2014-11-22T14:07:06Z</time>
      </trkpt>
      <trkpt lat="45.72185" lon="5.84532">
        <ele>640.2027</ele>
        <time>2014-11-22T14:07:10Z</time>
      </trkpt>
      <trkpt lat="45.72192" lon="5.84526">
        <ele>640.3983</ele>
        <time>2014-11-22T14:07:16Z</time>
      </trkpt>
      <trkpt lat="45.72199" lon="5.84521">
        <ele>640.3983</ele>
        <time>2014-11-22T14:07:21Z</time>
      </trkpt>
      <trkpt lat="45.72203" lon="5.84515">
        <ele>640.27826</ele>
        <time>2014-11-22T14:07:26Z</time>
      </trkpt>
      <trkpt lat="45.7221" lon="5.84513">
        <ele>640.27826</ele>
        <time>2014-11-22T14:07:32Z</time>
      </trkpt>
      <trkpt lat="45.72215" lon="5.8451">
        <ele>640.3864</ele>
        <time>2014-11-22T14:07:37Z</time>
      </trkpt>
      <trkpt lat="45.72218" lon="5.84506">
        <ele>640.3864</ele>
        <time>2014-11-22T14:07:41Z</time>
      </trkpt>
      <trkpt lat="45.72222" lon="5.84503">
        <ele>640.3864</ele>
        <time>2014-11-22T14:07:46Z</time>
      </trkpt>
      <trkpt lat="45.72229" lon="5.84498">
        <ele>639.64087</ele>
        <time>2014-11-22T14:07:52Z</time>
      </trkpt>
      <trkpt lat="45.72232" lon="5.84492">
        <ele>639.64087</ele>
        <time>2014-11-22T14:07:56Z</time>
      </trkpt>
      <trkpt lat="45.72237" lon="5.84489">
        <ele>638.56934</ele>
        <time>2014-11-22T14:08:01Z</time>
      </trkpt>
      <trkpt lat="45.72241" lon="5.84487">
        <ele>638.56934</ele>
        <time>2014-11-22T14:08:06Z</time>
      </trkpt>
      <trkpt lat="45.72246" lon="5.84484">
        <ele>637.5466</ele>
        <time>2014-11-22T14:08:11Z</time>
      </trkpt>
      <trkpt lat="45.72251" lon="5.84479">
        <ele>637.5466</ele>
        <time>2014-11-22T14:08:16Z</time>
      </trkpt>
      <trkpt lat="45.72256" lon="5.84473">
        <ele>636.28546</ele>
        <time>2014-11-22T14:08:21Z</time>
      </trkpt>
      <trkpt lat="45.7226" lon="5.84469">
        <ele>636.28546</ele>
        <time>2014-11-22T14:08:26Z</time>
      </trkpt>
      <trkpt lat="45.72264" lon="5.84465">
        <ele>635.0685</ele>
        <time>2014-11-22T14:08:31Z</time>
      </trkpt>
      <trkpt lat="45.72269" lon="5.8446">
        <ele>635.0685</ele>
        <time>2014-11-22T14:08:37Z</time>
      </trkpt>
      <trkpt lat="45.72273" lon="5.84457">
        <ele>634.6904</ele>
        <time>2014-11-22T14:08:41Z</time>
      </trkpt>
      <trkpt lat="45.72275" lon="5.84454">
        <ele>634.6904</ele>
        <time>2014-11-22T14:08:46Z</time>
      </trkpt>
      <trkpt lat="45.72278" lon="5.84446">
        <ele>634.0408</ele>
        <time>2014-11-22T14:08:52Z</time>
      </trkpt>
      <trkpt lat="45.7228" lon="5.84439">
        <ele>634.0408</ele>
        <time>2014-11-22T14:08:56Z</time>
      </trkpt>
      <trkpt lat="45.72282" lon="5.84434">
        <ele>633.0713</ele>
        <time>2014-11-22T14:09:00Z</time>
      </trkpt>
      <trkpt lat="45.72286" lon="5.84429">
        <ele>633.0713</ele>
        <time>2014-11-22T14:09:05Z</time>
      </trkpt>
      <trkpt lat="45.72292" lon="5.84424">
        <ele>632.93427</ele>
        <time>2014-11-22T14:09:10Z</time>
      </trkpt>
      <trkpt lat="45.72297" lon="5.8442">
        <ele>632.93427</ele>
        <time>2014-11-22T14:09:15Z</time>
      </trkpt>
      <trkpt lat="45.72302" lon="5.84416">
        <ele>632.9514</ele>
        <time>2014-11-22T14:09:20Z</time>
      </trkpt>
      <trkpt lat="45.72306" lon="5.84413">
        <ele>632.9514</ele>
        <time>2014-11-22T14:09:25Z</time>
      </trkpt>
      <trkpt lat="45.72313" lon="5.84407">
        <ele>632.8106</ele>
        <time>2014-11-22T14:09:30Z</time>
      </trkpt>
      <trkpt lat="45.72318" lon="5.844">
        <ele>632.8106</ele>
        <time>2014-11-22T14:09:35Z</time>
      </trkpt>
      <trkpt lat="45.72322" lon="5.84393">
        <ele>632.52594</ele>
        <time>2014-11-22T14:09:40Z</time>
      </trkpt>
      <trkpt lat="45.72332" lon="5.84386">
        <ele>633.52295</ele>
        <time>2014-11-22T14:09:45Z</time>
      </trkpt>
      <trkpt lat="45.72342" lon="5.84383">
        <ele>635.18787</ele>
        <time>2014-11-22T14:09:50Z</time>
      </trkpt>
      <trkpt lat="45.7235" lon="5.84381">
        <ele>635.18787</ele>
        <time>2014-11-22T14:09:55Z</time>
      </trkpt>
      <trkpt lat="45.72357" lon="5.84377">
        <ele>637.88666</ele>
        <time>2014-11-22T14:10:00Z</time>
      </trkpt>
      <trkpt lat="45.72364" lon="5.84374">
        <ele>637.88666</ele>
        <time>2014-11-22T14:10:05Z</time>
      </trkpt>
      <trkpt lat="45.72366" lon="5.84373">
        <ele>639.66437</ele>
        <time>2014-11-22T14:10:10Z</time>
      </trkpt>
      <trkpt lat="45.72371" lon="5.8437">
        <ele>639.66437</ele>
        <time>2014-11-22T14:10:15Z</time>
      </trkpt>
      <trkpt lat="45.72375" lon="5.84368">
        <ele>641.306</ele>
        <time>2014-11-22T14:10:20Z</time>
      </trkpt>
      <trkpt lat="45.7238" lon="5.84365">
        <ele>641.306</ele>
        <time>2014-11-22T14:10:25Z</time>
      </trkpt>
      <trkpt lat="45.72384" lon="5.84363">
        <ele>642.5883</ele>
        <time>2014-11-22T14:10:30Z</time>
      </trkpt>
      <trkpt lat="45.72388" lon="5.84362">
        <ele>642.5883</ele>
        <time>2014-11-22T14:10:35Z</time>
      </trkpt>
      <trkpt lat="45.72392" lon="5.84357">
        <ele>643.66565</ele>
        <time>2014-11-22T14:10:40Z</time>
      </trkpt>
      <trkpt lat="45.72396" lon="5.84354">
        <ele>643.66565</ele>
        <time>2014-11-22T14:10:45Z</time>
      </trkpt>
      <trkpt lat="45.72399" lon="5.84351">
        <ele>643.66565</ele>
        <time>2014-11-22T14:10:50Z</time>
      </trkpt>
      <trkpt lat="45.72404" lon="5.84346">
        <ele>644.5375</ele>
        <time>2014-11-22T14:10:55Z</time>
      </trkpt>
      <trkpt lat="45.7241" lon="5.84342">
        <ele>644.5375</ele>
        <time>2014-11-22T14:11:00Z</time>
      </trkpt>
      <trkpt lat="45.72412" lon="5.84338">
        <ele>645.0167</ele>
        <time>2014-11-22T14:11:05Z</time>
      </trkpt>
      <trkpt lat="45.72417" lon="5.8433">
        <ele>645.0167</ele>
        <time>2014-11-22T14:11:10Z</time>
      </trkpt>
      <trkpt lat="45.72425" lon="5.84322">
        <ele>645.8821</ele>
        <time>2014-11-22T14:11:15Z</time>
      </trkpt>
      <trkpt lat="45.7243" lon="5.84315">
        <ele>645.8821</ele>
        <time>2014-11-22T14:11:20Z</time>
      </trkpt>
      <trkpt lat="45.72435" lon="5.84307">
        <ele>646.6724</ele>
        <time>2014-11-22T14:11:25Z</time>
      </trkpt>
      <trkpt lat="45.72441" lon="5.84301">
        <ele>646.6724</ele>
        <time>2014-11-22T14:11:30Z</time>
      </trkpt>
      <trkpt lat="45.72446" lon="5.84295">
        <ele>648.3009</ele>
        <time>2014-11-22T14:11:35Z</time>
      </trkpt>
      <trkpt lat="45.72454" lon="5.8429">
        <ele>648.3009</ele>
        <time>2014-11-22T14:11:40Z</time>
      </trkpt>
      <trkpt lat="45.72461" lon="5.84285">
        <ele>650.6745</ele>
        <time>2014-11-22T14:11:45Z</time>
      </trkpt>
      <trkpt lat="45.72467" lon="5.84278">
        <ele>650.6745</ele>
        <time>2014-11-22T14:11:50Z</time>
      </trkpt>
      <trkpt lat="45.72475" lon="5.84272">
        <ele>654.5842</ele>
        <time>2014-11-22T14:11:55Z</time>
      </trkpt>
      <trkpt lat="45.72482" lon="5.84267">
        <ele>654.5842</ele>
        <time>2014-11-22T14:12:00Z</time>
      </trkpt>
      <trkpt lat="45.72487" lon="5.84263">
        <ele>658.5824</ele>
        <time>2014-11-22T14:12:05Z</time>
      </trkpt>
      <trkpt lat="45.7249" lon="5.84259">
        <ele>658.5824</ele>
        <time>2014-11-22T14:12:10Z</time>
      </trkpt>
      <trkpt lat="45.72493" lon="5.84254">
        <ele>658.5824</ele>
        <time>2014-11-22T14:12:15Z</time>
      </trkpt>
      <trkpt lat="45.72497" lon="5.84248">
        <ele>662.1779</ele>
        <time>2014-11-22T14:12:20Z</time>
      </trkpt>
      <trkpt lat="45.72504" lon="5.84241">
        <ele>662.1779</ele>
        <time>2014-11-22T14:12:25Z</time>
      </trkpt>
      <trkpt lat="45.72509" lon="5.84235">
        <ele>665.9689</ele>
        <time>2014-11-22T14:12:30Z</time>
      </trkpt>
      <trkpt lat="45.72513" lon="5.84228">
        <ele>665.9689</ele>
        <time>2014-11-22T14:12:35Z</time>
      </trkpt>
      <trkpt lat="45.72516" lon="5.84222">
        <ele>668.6644</ele>
        <time>2014-11-22T14:12:40Z</time>
      </trkpt>
      <trkpt lat="45.7252" lon="5.84217">
        <ele>668.6644</ele>
        <time>2014-11-22T14:12:45Z</time>
      </trkpt>
      <trkpt lat="45.72526" lon="5.84212">
        <ele>671.3054</ele>
        <time>2014-11-22T14:12:50Z</time>
      </trkpt>
      <trkpt lat="45.72529" lon="5.84204">
        <ele>671.3054</ele>
        <time>2014-11-22T14:12:55Z</time>
      </trkpt>
      <trkpt lat="45.72534" lon="5.84196">
        <ele>674.07837</ele>
        <time>2014-11-22T14:13:00Z</time>
      </trkpt>
      <trkpt lat="45.72539" lon="5.84191">
        <ele>674.07837</ele>
        <time>2014-11-22T14:13:05Z</time>
      </trkpt>
      <trkpt lat="45.72545" lon="5.84183">
        <ele>676.76666</ele>
        <time>2014-11-22T14:13:10Z</time>
      </trkpt>
      <trkpt lat="45.72552" lon="5.84173">
        <ele>679.22766</ele>
        <time>2014-11-22T14:13:15Z</time>
      </trkpt>
      <trkpt lat="45.7256" lon="5.84169">
        <ele>679.22766</ele>
        <time>2014-11-22T14:13:20Z</time>
      </trkpt>
      <trkpt lat="45.72568" lon="5.84167">
        <ele>682.065</ele>
        <time>2014-11-22T14:13:25Z</time>
      </trkpt>
      <trkpt lat="45.72574" lon="5.84163">
        <ele>682.065</ele>
        <time>2014-11-22T14:13:30Z</time>
      </trkpt>
      <trkpt lat="45.72581" lon="5.84159">
        <ele>684.36707</ele>
        <time>2014-11-22T14:13:35Z</time>
      </trkpt>
      <trkpt lat="45.72587" lon="5.84157">
        <ele>684.36707</ele>
        <time>2014-11-22T14:13:40Z</time>
      </trkpt>
      <trkpt lat="45.72595" lon="5.84153">
        <ele>686.3861</ele>
        <time>2014-11-22T14:13:45Z</time>
      </trkpt>
      <trkpt lat="45.726" lon="5.8415">
        <ele>686.3861</ele>
        <time>2014-11-22T14:13:50Z</time>
      </trkpt>
      <trkpt lat="45.72607" lon="5.84148">
        <ele>687.9388</ele>
        <time>2014-11-22T14:13:55Z</time>
      </trkpt>
      <trkpt lat="45.72612" lon="5.84144">
        <ele>687.9388</ele>
        <time>2014-11-22T14:14:00Z</time>
      </trkpt>
      <trkpt lat="45.72619" lon="5.84141">
        <ele>689.08734</ele>
        <time>2014-11-22T14:14:05Z</time>
      </trkpt>
      <trkpt lat="45.72624" lon="5.84138">
        <ele>689.08734</ele>
        <time>2014-11-22T14:14:10Z</time>
      </trkpt>
      <trkpt lat="45.72631" lon="5.84135">
        <ele>689.4152</ele>
        <time>2014-11-22T14:14:15Z</time>
      </trkpt>
      <trkpt lat="45.72639" lon="5.84131">
        <ele>689.4152</ele>
        <time>2014-11-22T14:14:20Z</time>
      </trkpt>
      <trkpt lat="45.72644" lon="5.84129">
        <ele>689.83563</ele>
        <time>2014-11-22T14:14:26Z</time>
      </trkpt>
      <trkpt lat="45.72649" lon="5.84128">
        <ele>689.83563</ele>
        <time>2014-11-22T14:14:32Z</time>
      </trkpt>
      <trkpt lat="45.72654" lon="5.84126">
        <ele>689.79694</ele>
        <time>2014-11-22T14:14:36Z</time>
      </trkpt>
      <trkpt lat="45.7266" lon="5.84122">
        <ele>689.79694</ele>
        <time>2014-11-22T14:14:41Z</time>
      </trkpt>
      <trkpt lat="45.72663" lon="5.84119">
        <ele>688.86127</ele>
        <time>2014-11-22T14:14:46Z</time>
      </trkpt>
      <trkpt lat="45.72672" lon="5.84117">
        <ele>688.86127</ele>
        <time>2014-11-22T14:14:52Z</time>
      </trkpt>
      <trkpt lat="45.72676" lon="5.84116">
        <ele>688.05225</ele>
        <time>2014-11-22T14:14:55Z</time>
      </trkpt>
      <trkpt lat="45.72682" lon="5.84115">
        <ele>688.05225</ele>
        <time>2014-11-22T14:15:01Z</time>
      </trkpt>
      <trkpt lat="45.72688" lon="5.84116">
        <ele>686.73285</ele>
        <time>2014-11-22T14:15:06Z</time>
      </trkpt>
      <trkpt lat="45.72693" lon="5.84117">
        <ele>686.73285</ele>
        <time>2014-11-22T14:15:11Z</time>
      </trkpt>
      <trkpt lat="45.727" lon="5.84118">
        <ele>685.17883</ele>
        <time>2014-11-22T14:15:16Z</time>
      </trkpt>
      <trkpt lat="45.72706" lon="5.84117">
        <ele>685.17883</ele>
        <time>2014-11-22T14:15:22Z</time>
      </trkpt>
      <trkpt lat="45.72711" lon="5.84115">
        <ele>683.6464</ele>
        <time>2014-11-22T14:15:26Z</time>
      </trkpt>
      <trkpt lat="45.72716" lon="5.84115">
        <ele>683.6464</ele>
        <time>2014-11-22T14:15:31Z</time>
      </trkpt>
      <trkpt lat="45.72721" lon="5.84114">
        <ele>681.8109</ele>
        <time>2014-11-22T14:15:36Z</time>
      </trkpt>
      <trkpt lat="45.72727" lon="5.84112">
        <ele>681.8109</ele>
        <time>2014-11-22T14:15:41Z</time>
      </trkpt>
      <trkpt lat="45.72732" lon="5.84106">
        <ele>679.37225</ele>
        <time>2014-11-22T14:15:45Z</time>
      </trkpt>
      <trkpt lat="45.72735" lon="5.84104">
        <ele>679.37225</ele>
        <time>2014-11-22T14:15:51Z</time>
      </trkpt>
      <trkpt lat="45.72742" lon="5.84098">
        <ele>676.22687</ele>
        <time>2014-11-22T14:15:56Z</time>
      </trkpt>
      <trkpt lat="45.72746" lon="5.84095">
        <ele>676.22687</ele>
        <time>2014-11-22T14:16:01Z</time>
      </trkpt>
      <trkpt lat="45.72752" lon="5.84091">
        <ele>672.65546</ele>
        <time>2014-11-22T14:16:06Z</time>
      </trkpt>
      <trkpt lat="45.72758" lon="5.84089">
        <ele>672.65546</ele>
        <time>2014-11-22T14:16:11Z</time>
      </trkpt>
      <trkpt lat="45.72767" lon="5.84086">
        <ele>668.19867</ele>
        <time>2014-11-22T14:16:16Z</time>
      </trkpt>
      <trkpt lat="45.72775" lon="5.84084">
        <ele>668.19867</ele>
        <time>2014-11-22T14:16:22Z</time>
      </trkpt>
      <trkpt lat="45.72782" lon="5.84081">
        <ele>663.60034</ele>
        <time>2014-11-22T14:16:25Z</time>
      </trkpt>
      <trkpt lat="45.72792" lon="5.84077">
        <ele>659.9679</ele>
        <time>2014-11-22T14:16:31Z</time>
      </trkpt>
      <trkpt lat="45.72797" lon="5.84072">
        <ele>659.9679</ele>
        <time>2014-11-22T14:16:36Z</time>
      </trkpt>
      <trkpt lat="45.72805" lon="5.84065">
        <ele>656.75366</ele>
        <time>2014-11-22T14:16:41Z</time>
      </trkpt>
      <trkpt lat="45.72813" lon="5.84058">
        <ele>656.75366</ele>
        <time>2014-11-22T14:16:46Z</time>
      </trkpt>
      <trkpt lat="45.72816" lon="5.84059">
        <ele>654.8466</ele>
        <time>2014-11-22T14:16:51Z</time>
      </trkpt>
      <trkpt lat="45.72824" lon="5.84055">
        <ele>654.8466</ele>
        <time>2014-11-22T14:16:57Z</time>
      </trkpt>
      <trkpt lat="45.72832" lon="5.84051">
        <ele>653.7551</ele>
        <time>2014-11-22T14:17:01Z</time>
      </trkpt>
      <trkpt lat="45.72838" lon="5.84045">
        <ele>653.7551</ele>
        <time>2014-11-22T14:17:06Z</time>
      </trkpt>
      <trkpt lat="45.72846" lon="5.84043">
        <ele>652.77606</ele>
        <time>2014-11-22T14:17:11Z</time>
      </trkpt>
      <trkpt lat="45.72853" lon="5.84039">
        <ele>652.77606</ele>
        <time>2014-11-22T14:17:16Z</time>
      </trkpt>
      <trkpt lat="45.72861" lon="5.84036">
        <ele>651.96356</ele>
        <time>2014-11-22T14:17:21Z</time>
      </trkpt>
      <trkpt lat="45.72867" lon="5.84032">
        <ele>651.96356</ele>
        <time>2014-11-22T14:17:25Z</time>
      </trkpt>
      <trkpt lat="45.72874" lon="5.8403">
        <ele>650.92035</ele>
        <time>2014-11-22T14:17:30Z</time>
      </trkpt>
      <trkpt lat="45.72878" lon="5.84026">
        <ele>650.92035</ele>
        <time>2014-11-22T14:17:35Z</time>
      </trkpt>
      <trkpt lat="45.72883" lon="5.84024">
        <ele>650.1001</ele>
        <time>2014-11-22T14:17:41Z</time>
      </trkpt>
      <trkpt lat="45.72887" lon="5.84022">
        <ele>650.1001</ele>
        <time>2014-11-22T14:17:46Z</time>
      </trkpt>
      <trkpt lat="45.72893" lon="5.8402">
        <ele>649.40344</ele>
        <time>2014-11-22T14:17:50Z</time>
      </trkpt>
      <trkpt lat="45.729" lon="5.84017">
        <ele>649.40344</ele>
        <time>2014-11-22T14:17:56Z</time>
      </trkpt>
      <trkpt lat="45.72908" lon="5.84015">
        <ele>649.199</ele>
        <time>2014-11-22T14:18:01Z</time>
      </trkpt>
      <trkpt lat="45.72914" lon="5.84013">
        <ele>649.199</ele>
        <time>2014-11-22T14:18:06Z</time>
      </trkpt>
      <trkpt lat="45.7292" lon="5.84008">
        <ele>649.62476</ele>
        <time>2014-11-22T14:18:11Z</time>
      </trkpt>
      <trkpt lat="45.72922" lon="5.84009">
        <ele>649.62476</ele>
        <time>2014-11-22T14:18:16Z</time>
      </trkpt>
      <trkpt lat="45.72922" lon="5.84011">
        <ele>649.62476</ele>
        <time>2014-11-22T14:18:21Z</time>
      </trkpt>
      <trkpt lat="45.72923" lon="5.84007">
        <ele>649.62476</ele>
        <time>2014-11-22T14:18:26Z</time>
      </trkpt>
      <trkpt lat="45.72924" lon="5.84007">
        <ele>649.62476</ele>
        <time>2014-11-22T14:18:31Z</time>
      </trkpt>
      <trkpt lat="45.72928" lon="5.84005">
        <ele>649.9422</ele>
        <time>2014-11-22T14:18:36Z</time>
      </trkpt>
      <trkpt lat="45.72937" lon="5.84003">
        <ele>650.56213</ele>
        <time>2014-11-22T14:18:40Z</time>
      </trkpt>
      <trkpt lat="45.72947" lon="5.83997">
        <ele>650.42316</ele>
        <time>2014-11-22T14:18:45Z</time>
      </trkpt>
      <trkpt lat="45.72954" lon="5.83991">
        <ele>650.42316</ele>
        <time>2014-11-22T14:18:50Z</time>
      </trkpt>
      <trkpt lat="45.7296" lon="5.83982">
        <ele>649.4518</ele>
        <time>2014-11-22T14:18:55Z</time>
      </trkpt>
      <trkpt lat="45.72973" lon="5.83974">
        <ele>648.96545</ele>
        <time>2014-11-22T14:19:00Z</time>
      </trkpt>
      <trkpt lat="45.72989" lon="5.83968">
        <ele>648.8574</ele>
        <time>2014-11-22T14:19:05Z</time>
      </trkpt>
      <trkpt lat="45.73007" lon="5.83964">
        <ele>649.1576</ele>
        <time>2014-11-22T14:19:10Z</time>
      </trkpt>
      <trkpt lat="45.73027" lon="5.83958">
        <ele>650.1226</ele>
        <time>2014-11-22T14:19:15Z</time>
      </trkpt>
      <trkpt lat="45.73042" lon="5.83954">
        <ele>651.78674</ele>
        <time>2014-11-22T14:19:20Z</time>
      </trkpt>
      <trkpt lat="45.73053" lon="5.83953">
        <ele>653.8627</ele>
        <time>2014-11-22T14:19:25Z</time>
      </trkpt>
      <trkpt lat="45.73069" lon="5.83943">
        <ele>655.4776</ele>
        <time>2014-11-22T14:19:30Z</time>
      </trkpt>
      <trkpt lat="45.73082" lon="5.83931">
        <ele>657.1355</ele>
        <time>2014-11-22T14:19:35Z</time>
      </trkpt>
      <trkpt lat="45.73103" lon="5.8393">
        <ele>659.07263</ele>
        <time>2014-11-22T14:19:40Z</time>
      </trkpt>
      <trkpt lat="45.73127" lon="5.83922">
        <ele>660.2245</ele>
        <time>2014-11-22T14:19:45Z</time>
      </trkpt>
      <trkpt lat="45.73138" lon="5.83921">
        <ele>661.43726</ele>
        <time>2014-11-22T14:19:50Z</time>
      </trkpt>
      <trkpt lat="45.73149" lon="5.83923">
        <ele>662.9183</ele>
        <time>2014-11-22T14:19:55Z</time>
      </trkpt>
      <trkpt lat="45.73159" lon="5.83921">
        <ele>664.3546</ele>
        <time>2014-11-22T14:20:00Z</time>
      </trkpt>
      <trkpt lat="45.73169" lon="5.8392">
        <ele>665.84564</ele>
        <time>2014-11-22T14:20:05Z</time>
      </trkpt>
      <trkpt lat="45.73177" lon="5.83917">
        <ele>665.84564</ele>
        <time>2014-11-22T14:20:10Z</time>
      </trkpt>
      <trkpt lat="45.73181" lon="5.83916">
        <ele>666.44556</ele>
        <time>2014-11-22T14:20:15Z</time>
      </trkpt>
      <trkpt lat="45.73188" lon="5.83913">
        <ele>666.44556</ele>
        <time>2014-11-22T14:20:20Z</time>
      </trkpt>
      <trkpt lat="45.73192" lon="5.83912">
        <ele>666.6498</ele>
        <time>2014-11-22T14:20:25Z</time>
      </trkpt>
      <trkpt lat="45.73201" lon="5.8391">
        <ele>666.6498</ele>
        <time>2014-11-22T14:20:30Z</time>
      </trkpt>
      <trkpt lat="45.73206" lon="5.8391">
        <ele>666.9042</ele>
        <time>2014-11-22T14:20:35Z</time>
      </trkpt>
      <trkpt lat="45.73211" lon="5.83908">
        <ele>666.9042</ele>
        <time>2014-11-22T14:20:40Z</time>
      </trkpt>
      <trkpt lat="45.73218" lon="5.83912">
        <ele>667.4631</ele>
        <time>2014-11-22T14:20:45Z</time>
      </trkpt>
      <trkpt lat="45.73222" lon="5.83913">
        <ele>667.4631</ele>
        <time>2014-11-22T14:20:50Z</time>
      </trkpt>
      <trkpt lat="45.73226" lon="5.83908">
        <ele>667.2645</ele>
        <time>2014-11-22T14:20:55Z</time>
      </trkpt>
      <trkpt lat="45.73234" lon="5.83905">
        <ele>667.2645</ele>
        <time>2014-11-22T14:21:00Z</time>
      </trkpt>
      <trkpt lat="45.73239" lon="5.83903">
        <ele>666.92633</ele>
        <time>2014-11-22T14:21:05Z</time>
      </trkpt>
      <trkpt lat="45.73246" lon="5.83904">
        <ele>666.92633</ele>
        <time>2014-11-22T14:21:10Z</time>
      </trkpt>
      <trkpt lat="45.73254" lon="5.839">
        <ele>666.74744</ele>
        <time>2014-11-22T14:21:15Z</time>
      </trkpt>
      <trkpt lat="45.73262" lon="5.83898">
        <ele>666.74744</ele>
        <time>2014-11-22T14:21:20Z</time>
      </trkpt>
      <trkpt lat="45.73268" lon="5.83895">
        <ele>666.2409</ele>
        <time>2014-11-22T14:21:25Z</time>
      </trkpt>
      <trkpt lat="45.73278" lon="5.83894">
        <ele>665.60486</ele>
        <time>2014-11-22T14:21:30Z</time>
      </trkpt>
      <trkpt lat="45.73289" lon="5.83896">
        <ele>665.2106</ele>
        <time>2014-11-22T14:21:35Z</time>
      </trkpt>
      <trkpt lat="45.73295" lon="5.83899">
        <ele>665.2106</ele>
        <time>2014-11-22T14:21:40Z</time>
      </trkpt>
      <trkpt lat="45.733" lon="5.83902">
        <ele>665.1422</ele>
        <time>2014-11-22T14:21:45Z</time>
      </trkpt>
      <trkpt lat="45.73308" lon="5.83899">
        <ele>665.1422</ele>
        <time>2014-11-22T14:21:50Z</time>
      </trkpt>
      <trkpt lat="45.73314" lon="5.83899">
        <ele>665.0876</ele>
        <time>2014-11-22T14:21:55Z</time>
      </trkpt>
      <trkpt lat="45.7332" lon="5.83899">
        <ele>665.0876</ele>
        <time>2014-11-22T14:22:00Z</time>
      </trkpt>
      <trkpt lat="45.73324" lon="5.83896">
        <ele>664.6998</ele>
        <time>2014-11-22T14:22:05Z</time>
      </trkpt>
      <trkpt lat="45.73331" lon="5.83894">
        <ele>664.6998</ele>
        <time>2014-11-22T14:22:10Z</time>
      </trkpt>
      <trkpt lat="45.73339" lon="5.83894">
        <ele>664.20624</ele>
        <time>2014-11-22T14:22:15Z</time>
      </trkpt>
      <trkpt lat="45.73344" lon="5.83896">
        <ele>664.20624</ele>
        <time>2014-11-22T14:22:20Z</time>
      </trkpt>
      <trkpt lat="45.73347" lon="5.83894">
        <ele>664.20624</ele>
        <time>2014-11-22T14:22:25Z</time>
      </trkpt>
      <trkpt lat="45.73353" lon="5.83892">
        <ele>663.60144</ele>
        <time>2014-11-22T14:22:30Z</time>
      </trkpt>
      <trkpt lat="45.73361" lon="5.83892">
        <ele>663.60144</ele>
        <time>2014-11-22T14:22:35Z</time>
      </trkpt>
      <trkpt lat="45.7337" lon="5.83891">
        <ele>663.4573</ele>
        <time>2014-11-22T14:22:40Z</time>
      </trkpt>
      <trkpt lat="45.73379" lon="5.83895">
        <ele>663.35114</ele>
        <time>2014-11-22T14:22:45Z</time>
      </trkpt>
      <trkpt lat="45.73385" lon="5.83896">
        <ele>663.35114</ele>
        <time>2014-11-22T14:22:50Z</time>
      </trkpt>
      <trkpt lat="45.73393" lon="5.83897">
        <ele>663.3959</ele>
        <time>2014-11-22T14:22:55Z</time>
      </trkpt>
      <trkpt lat="45.734" lon="5.83904">
        <ele>663.7099</ele>
        <time>2014-11-22T14:23:00Z</time>
      </trkpt>
      <trkpt lat="45.73407" lon="5.83909">
        <ele>663.7099</ele>
        <time>2014-11-22T14:23:05Z</time>
      </trkpt>
      <trkpt lat="45.7341" lon="5.83917">
        <ele>664.47424</ele>
        <time>2014-11-22T14:23:10Z</time>
      </trkpt>
      <trkpt lat="45.73415" lon="5.83921">
        <ele>664.47424</ele>
        <time>2014-11-22T14:23:15Z</time>
      </trkpt>
      <trkpt lat="45.7342" lon="5.83923">
        <ele>664.3279</ele>
        <time>2014-11-22T14:23:20Z</time>
      </trkpt>
      <trkpt lat="45.73424" lon="5.83927">
        <ele>664.3279</ele>
        <time>2014-11-22T14:23:25Z</time>
      </trkpt>
      <trkpt lat="45.73427" lon="5.83928">
        <ele>664.3279</ele>
        <time>2014-11-22T14:23:30Z</time>
      </trkpt>
      <trkpt lat="45.73433" lon="5.83925">
        <ele>664.46216</ele>
        <time>2014-11-22T14:23:35Z</time>
      </trkpt>
      <trkpt lat="45.73436" lon="5.83919">
        <ele>664.46216</ele>
        <time>2014-11-22T14:23:40Z</time>
      </trkpt>
      <trkpt lat="45.73438" lon="5.83912">
        <ele>664.3518</ele>
        <time>2014-11-22T14:23:45Z</time>
      </trkpt>
      <trkpt lat="45.73444" lon="5.8391">
        <ele>664.3518</ele>
        <time>2014-11-22T14:23:50Z</time>
      </trkpt>
      <trkpt lat="45.73445" lon="5.83903">
        <ele>663.98615</ele>
        <time>2014-11-22T14:23:55Z</time>
      </trkpt>
      <trkpt lat="45.73449" lon="5.83898">
        <ele>663.98615</ele>
        <time>2014-11-22T14:24:00Z</time>
      </trkpt>
      <trkpt lat="45.73454" lon="5.83892">
        <ele>663.6301</ele>
        <time>2014-11-22T14:24:05Z</time>
      </trkpt>
      <trkpt lat="45.73457" lon="5.8388">
        <ele>663.6301</ele>
        <time>2014-11-22T14:24:10Z</time>
      </trkpt>
      <trkpt lat="45.7346" lon="5.83871">
        <ele>663.52893</ele>
        <time>2014-11-22T14:24:15Z</time>
      </trkpt>
      <trkpt lat="45.73464" lon="5.8386">
        <ele>664.16864</ele>
        <time>2014-11-22T14:24:20Z</time>
      </trkpt>
      <trkpt lat="45.73469" lon="5.83852">
        <ele>664.16864</ele>
        <time>2014-11-22T14:24:25Z</time>
      </trkpt>
      <trkpt lat="45.73469" lon="5.83839">
        <ele>664.3834</ele>
        <time>2014-11-22T14:24:30Z</time>
      </trkpt>
      <trkpt lat="45.73469" lon="5.83832">
        <ele>664.3834</ele>
        <time>2014-11-22T14:24:35Z</time>
      </trkpt>
      <trkpt lat="45.73466" lon="5.83822">
        <ele>664.82355</ele>
        <time>2014-11-22T14:24:40Z</time>
      </trkpt>
      <trkpt lat="45.73467" lon="5.83815">
        <ele>664.82355</ele>
        <time>2014-11-22T14:24:45Z</time>
      </trkpt>
      <trkpt lat="45.73461" lon="5.83807">
        <ele>665.0823</ele>
        <time>2014-11-22T14:24:50Z</time>
      </trkpt>
      <trkpt lat="45.73455" lon="5.83799">
        <ele>665.0823</ele>
        <time>2014-11-22T14:24:55Z</time>
      </trkpt>
      <trkpt lat="45.73449" lon="5.83794">
        <ele>665.43164</ele>
        <time>2014-11-22T14:25:00Z</time>
      </trkpt>
      <trkpt lat="45.73445" lon="5.8379">
        <ele>665.43164</ele>
        <time>2014-11-22T14:25:05Z</time>
      </trkpt>
      <trkpt lat="45.73438" lon="5.83787">
        <ele>665.69116</ele>
        <time>2014-11-22T14:25:10Z</time>
      </trkpt>
      <trkpt lat="45.73433" lon="5.83785">
        <ele>665.69116</ele>
        <time>2014-11-22T14:25:15Z</time>
      </trkpt>
      <trkpt lat="45.73425" lon="5.83783">
        <ele>666.47205</ele>
        <time>2014-11-22T14:25:20Z</time>
      </trkpt>
      <trkpt lat="45.7342" lon="5.83782">
        <ele>666.47205</ele>
        <time>2014-11-22T14:25:25Z</time>
      </trkpt>
      <trkpt lat="45.73415" lon="5.83778">
        <ele>666.62427</ele>
        <time>2014-11-22T14:25:30Z</time>
      </trkpt>
      <trkpt lat="45.7341" lon="5.83772">
        <ele>666.62427</ele>
        <time>2014-11-22T14:25:35Z</time>
      </trkpt>
      <trkpt lat="45.73411" lon="5.83768">
        <ele>668.0239</ele>
        <time>2014-11-22T14:25:40Z</time>
      </trkpt>
      <trkpt lat="45.73412" lon="5.83764">
        <ele>668.0239</ele>
        <time>2014-11-22T14:25:45Z</time>
      </trkpt>
      <trkpt lat="45.73411" lon="5.83764">
        <ele>668.0239</ele>
        <time>2014-11-22T14:25:50Z</time>
      </trkpt>
      <trkpt lat="45.73411" lon="5.83763">
        <ele>668.0239</ele>
        <time>2014-11-22T14:25:55Z</time>
      </trkpt>
      <trkpt lat="45.73411" lon="5.83763">
        <ele>668.0239</ele>
        <time>2014-11-22T14:26:00Z</time>
      </trkpt>
      <trkpt lat="45.73411" lon="5.83763">
        <ele>668.0239</ele>
        <time>2014-11-22T14:26:05Z</time>
      </trkpt>
      <trkpt lat="45.73413" lon="5.83759">
        <ele>668.0239</ele>
        <time>2014-11-22T14:26:10Z</time>
      </trkpt>
      <trkpt lat="45.73415" lon="5.83755">
        <ele>673.4146</ele>
        <time>2014-11-22T14:26:15Z</time>
      </trkpt>
      <trkpt lat="45.73418" lon="5.83751">
        <ele>673.4146</ele>
        <time>2014-11-22T14:26:20Z</time>
      </trkpt>
      <trkpt lat="45.73422" lon="5.83748">
        <ele>673.4146</ele>
        <time>2014-11-22T14:26:25Z</time>
      </trkpt>
      <trkpt lat="45.73427" lon="5.83745">
        <ele>678.48193</ele>
        <time>2014-11-22T14:26:30Z</time>
      </trkpt>
      <trkpt lat="45.73429" lon="5.83742">
        <ele>678.48193</ele>
        <time>2014-11-22T14:26:35Z</time>
      </trkpt>
      <trkpt lat="45.7343" lon="5.8374">
        <ele>678.48193</ele>
        <time>2014-11-22T14:26:40Z</time>
      </trkpt>
      <trkpt lat="45.73432" lon="5.83738">
        <ele>678.48193</ele>
        <time>2014-11-22T14:26:45Z</time>
      </trkpt>
      <trkpt lat="45.73436" lon="5.83734">
        <ele>683.2358</ele>
        <time>2014-11-22T14:26:50Z</time>
      </trkpt>
      <trkpt lat="45.73439" lon="5.8373">
        <ele>683.2358</ele>
        <time>2014-11-22T14:26:55Z</time>
      </trkpt>
      <trkpt lat="45.73442" lon="5.8373">
        <ele>683.2358</ele>
        <time>2014-11-22T14:27:00Z</time>
      </trkpt>
      <trkpt lat="45.73442" lon="5.83729">
        <ele>683.2358</ele>
        <time>2014-11-22T14:27:05Z</time>
      </trkpt>
      <trkpt lat="45.73442" lon="5.83729">
        <ele>683.2358</ele>
        <time>2014-11-22T14:27:10Z</time>
      </trkpt>
      <trkpt lat="45.73442" lon="5.83729">
        <ele>683.2358</ele>
        <time>2014-11-22T14:27:15Z</time>
      </trkpt>
      <trkpt lat="45.73443" lon="5.83728">
        <ele>683.2358</ele>
        <time>2014-11-22T14:27:20Z</time>
      </trkpt>
      <trkpt lat="45.73443" lon="5.83726">
        <ele>688.11847</ele>
        <time>2014-11-22T14:27:25Z</time>
      </trkpt>
      <trkpt lat="45.73443" lon="5.83726">
        <ele>688.11847</ele>
        <time>2014-11-22T14:27:30Z</time>
      </trkpt>
      <trkpt lat="45.73443" lon="5.83726">
        <ele>688.11847</ele>
        <time>2014-11-22T14:27:35Z</time>
      </trkpt>
      <trkpt lat="45.73443" lon="5.83726">
        <ele>688.11847</ele>
        <time>2014-11-22T14:27:40Z</time>
      </trkpt>
      <trkpt lat="45.73443" lon="5.83726">
        <ele>688.11847</ele>
        <time>2014-11-22T14:27:45Z</time>
      </trkpt>
      <trkpt lat="45.73443" lon="5.83726">
        <ele>688.11847</ele>
        <time>2014-11-22T14:27:50Z</time>
      </trkpt>
      <trkpt lat="45.73444" lon="5.83727">
        <ele>688.11847</ele>
        <time>2014-11-22T14:27:55Z</time>
      </trkpt>
      <trkpt lat="45.73445" lon="5.83727">
        <ele>688.11847</ele>
        <time>2014-11-22T14:28:00Z</time>
      </trkpt>
      <trkpt lat="45.73446" lon="5.83726">
        <ele>688.11847</ele>
        <time>2014-11-22T14:28:05Z</time>
      </trkpt>
      <trkpt lat="45.73448" lon="5.83721">
        <ele>688.11847</ele>
        <time>2014-11-22T14:28:10Z</time>
      </trkpt>
      <trkpt lat="45.7345" lon="5.83718">
        <ele>692.4301</ele>
        <time>2014-11-22T14:28:15Z</time>
      </trkpt>
      <trkpt lat="45.73455" lon="5.83716">
        <ele>692.4301</ele>
        <time>2014-11-22T14:28:20Z</time>
      </trkpt>
      <trkpt lat="45.73457" lon="5.8371">
        <ele>696.38855</ele>
        <time>2014-11-22T14:28:25Z</time>
      </trkpt>
      <trkpt lat="45.7346" lon="5.83705">
        <ele>696.38855</ele>
        <time>2014-11-22T14:28:30Z</time>
      </trkpt>
      <trkpt lat="45.73463" lon="5.837">
        <ele>699.9086</ele>
        <time>2014-11-22T14:28:35Z</time>
      </trkpt>
      <trkpt lat="45.73466" lon="5.83693">
        <ele>699.9086</ele>
        <time>2014-11-22T14:28:40Z</time>
      </trkpt>
      <trkpt lat="45.73474" lon="5.83694">
        <ele>702.2068</ele>
        <time>2014-11-22T14:28:45Z</time>
      </trkpt>
      <trkpt lat="45.73478" lon="5.83688">
        <ele>702.2068</ele>
        <time>2014-11-22T14:28:50Z</time>
      </trkpt>
      <trkpt lat="45.73484" lon="5.83681">
        <ele>704.95276</ele>
        <time>2014-11-22T14:28:55Z</time>
      </trkpt>
      <trkpt lat="45.73491" lon="5.83675">
        <ele>704.95276</ele>
        <time>2014-11-22T14:29:00Z</time>
      </trkpt>
      <trkpt lat="45.73495" lon="5.83666">
        <ele>706.60876</ele>
        <time>2014-11-22T14:29:05Z</time>
      </trkpt>
      <trkpt lat="45.73497" lon="5.83663">
        <ele>706.60876</ele>
        <time>2014-11-22T14:29:10Z</time>
      </trkpt>
      <trkpt lat="45.73501" lon="5.83658">
        <ele>706.60876</ele>
        <time>2014-11-22T14:29:15Z</time>
      </trkpt>
      <trkpt lat="45.73503" lon="5.83655">
        <ele>708.9524</ele>
        <time>2014-11-22T14:29:20Z</time>
      </trkpt>
      <trkpt lat="45.73504" lon="5.83652">
        <ele>708.9524</ele>
        <time>2014-11-22T14:29:25Z</time>
      </trkpt>
      <trkpt lat="45.73505" lon="5.83652">
        <ele>708.9524</ele>
        <time>2014-11-22T14:29:30Z</time>
      </trkpt>
      <trkpt lat="45.73505" lon="5.83652">
        <ele>708.9524</ele>
        <time>2014-11-22T14:29:35Z</time>
      </trkpt>
      <trkpt lat="45.73505" lon="5.83652">
        <ele>708.9524</ele>
        <time>2014-11-22T14:29:40Z</time>
      </trkpt>
      <trkpt lat="45.73506" lon="5.8365">
        <ele>708.9524</ele>
        <time>2014-11-22T14:29:45Z</time>
      </trkpt>
      <trkpt lat="45.73507" lon="5.83646">
        <ele>708.9524</ele>
        <time>2014-11-22T14:29:50Z</time>
      </trkpt>
      <trkpt lat="45.73511" lon="5.83638">
        <ele>712.9229</ele>
        <time>2014-11-22T14:29:55Z</time>
      </trkpt>
      <trkpt lat="45.73515" lon="5.8363">
        <ele>712.9229</ele>
        <time>2014-11-22T14:30:00Z</time>
      </trkpt>
      <trkpt lat="45.73523" lon="5.8362">
        <ele>718.19006</ele>
        <time>2014-11-22T14:30:05Z</time>
      </trkpt>
      <trkpt lat="45.73528" lon="5.8361">
        <ele>718.19006</ele>
        <time>2014-11-22T14:30:10Z</time>
      </trkpt>
      <trkpt lat="45.73535" lon="5.83606">
        <ele>723.9833</ele>
        <time>2014-11-22T14:30:15Z</time>
      </trkpt>
      <trkpt lat="45.73543" lon="5.83601">
        <ele>729.60175</ele>
        <time>2014-11-22T14:30:20Z</time>
      </trkpt>
      <trkpt lat="45.73546" lon="5.83596">
        <ele>729.60175</ele>
        <time>2014-11-22T14:30:25Z</time>
      </trkpt>
      <trkpt lat="45.73548" lon="5.83594">
        <ele>729.60175</ele>
        <time>2014-11-22T14:30:30Z</time>
      </trkpt>
      <trkpt lat="45.73555" lon="5.83591">
        <ele>735.70844</ele>
        <time>2014-11-22T14:30:35Z</time>
      </trkpt>
      <trkpt lat="45.7356" lon="5.83588">
        <ele>735.70844</ele>
        <time>2014-11-22T14:30:40Z</time>
      </trkpt>
      <trkpt lat="45.73564" lon="5.83584">
        <ele>739.9333</ele>
        <time>2014-11-22T14:30:45Z</time>
      </trkpt>
      <trkpt lat="45.73572" lon="5.83581">
        <ele>739.9333</ele>
        <time>2014-11-22T14:30:50Z</time>
      </trkpt>
      <trkpt lat="45.73576" lon="5.8357">
        <ele>744.16425</ele>
        <time>2014-11-22T14:30:55Z</time>
      </trkpt>
      <trkpt lat="45.73578" lon="5.83563">
        <ele>744.16425</ele>
        <time>2014-11-22T14:31:00Z</time>
      </trkpt>
      <trkpt lat="45.73574" lon="5.83552">
        <ele>747.7011</ele>
        <time>2014-11-22T14:31:05Z</time>
      </trkpt>
      <trkpt lat="45.73574" lon="5.83544">
        <ele>747.7011</ele>
        <time>2014-11-22T14:31:10Z</time>
      </trkpt>
      <trkpt lat="45.73576" lon="5.83539">
        <ele>747.7011</ele>
        <time>2014-11-22T14:31:15Z</time>
      </trkpt>
      <trkpt lat="45.7358" lon="5.83529">
        <ele>751.02136</ele>
        <time>2014-11-22T14:31:20Z</time>
      </trkpt>
      <trkpt lat="45.73585" lon="5.83519">
        <ele>751.02136</ele>
        <time>2014-11-22T14:31:25Z</time>
      </trkpt>
      <trkpt lat="45.7359" lon="5.83514">
        <ele>754.76996</ele>
        <time>2014-11-22T14:31:30Z</time>
      </trkpt>
      <trkpt lat="45.73593" lon="5.83509">
        <ele>754.76996</ele>
        <time>2014-11-22T14:31:35Z</time>
      </trkpt>
      <trkpt lat="45.73594" lon="5.83508">
        <ele>754.76996</ele>
        <time>2014-11-22T14:31:40Z</time>
      </trkpt>
      <trkpt lat="45.73596" lon="5.83507">
        <ele>754.76996</ele>
        <time>2014-11-22T14:31:45Z</time>
      </trkpt>
      <trkpt lat="45.73597" lon="5.83507">
        <ele>761.1722</ele>
        <time>2014-11-22T14:31:50Z</time>
      </trkpt>
      <trkpt lat="45.73597" lon="5.83507">
        <ele>761.1722</ele>
        <time>2014-11-22T14:31:55Z</time>
      </trkpt>
      <trkpt lat="45.73598" lon="5.83508">
        <ele>761.1722</ele>
        <time>2014-11-22T14:32:00Z</time>
      </trkpt>
      <trkpt lat="45.73599" lon="5.83508">
        <ele>761.1722</ele>
        <time>2014-11-22T14:32:05Z</time>
      </trkpt>
      <trkpt lat="45.736" lon="5.83508">
        <ele>761.1722</ele>
        <time>2014-11-22T14:32:10Z</time>
      </trkpt>
      <trkpt lat="45.736" lon="5.83507">
        <ele>761.1722</ele>
        <time>2014-11-22T14:32:15Z</time>
      </trkpt>
      <trkpt lat="45.73603" lon="5.83501">
        <ele>767.2676</ele>
        <time>2014-11-22T14:32:20Z</time>
      </trkpt>
      <trkpt lat="45.73607" lon="5.83498">
        <ele>767.2676</ele>
        <time>2014-11-22T14:32:25Z</time>
      </trkpt>
      <trkpt lat="45.73612" lon="5.83492">
        <ele>772.40393</ele>
        <time>2014-11-22T14:32:30Z</time>
      </trkpt>
      <trkpt lat="45.73618" lon="5.83486">
        <ele>772.40393</ele>
        <time>2014-11-22T14:32:35Z</time>
      </trkpt>
      <trkpt lat="45.7362" lon="5.83479">
        <ele>776.78705</ele>
        <time>2014-11-22T14:32:40Z</time>
      </trkpt>
      <trkpt lat="45.73626" lon="5.83472">
        <ele>776.78705</ele>
        <time>2014-11-22T14:32:45Z</time>
      </trkpt>
      <trkpt lat="45.73629" lon="5.83465">
        <ele>780.82605</ele>
        <time>2014-11-22T14:32:50Z</time>
      </trkpt>
      <trkpt lat="45.73631" lon="5.8346">
        <ele>780.82605</ele>
        <time>2014-11-22T14:32:55Z</time>
      </trkpt>
      <trkpt lat="45.73635" lon="5.83455">
        <ele>780.82605</ele>
        <time>2014-11-22T14:33:00Z</time>
      </trkpt>
      <trkpt lat="45.73641" lon="5.83448">
        <ele>784.2529</ele>
        <time>2014-11-22T14:33:05Z</time>
      </trkpt>
      <trkpt lat="45.73643" lon="5.83442">
        <ele>784.2529</ele>
        <time>2014-11-22T14:33:10Z</time>
      </trkpt>
      <trkpt lat="45.73649" lon="5.83435">
        <ele>786.5042</ele>
        <time>2014-11-22T14:33:15Z</time>
      </trkpt>
      <trkpt lat="45.73654" lon="5.83427">
        <ele>786.5042</ele>
        <time>2014-11-22T14:33:20Z</time>
      </trkpt>
      <trkpt lat="45.73658" lon="5.83416">
        <ele>788.6756</ele>
        <time>2014-11-22T14:33:25Z</time>
      </trkpt>
      <trkpt lat="45.73663" lon="5.83406">
        <ele>788.6756</ele>
        <time>2014-11-22T14:33:30Z</time>
      </trkpt>
      <trkpt lat="45.73667" lon="5.83398">
        <ele>790.7163</ele>
        <time>2014-11-22T14:33:35Z</time>
      </trkpt>
      <trkpt lat="45.73669" lon="5.83393">
        <ele>790.7163</ele>
        <time>2014-11-22T14:33:40Z</time>
      </trkpt>
      <trkpt lat="45.7367" lon="5.83386">
        <ele>790.7163</ele>
        <time>2014-11-22T14:33:45Z</time>
      </trkpt>
      <trkpt lat="45.73673" lon="5.83381">
        <ele>791.5998</ele>
        <time>2014-11-22T14:33:50Z</time>
      </trkpt>
      <trkpt lat="45.73677" lon="5.83376">
        <ele>791.5998</ele>
        <time>2014-11-22T14:33:55Z</time>
      </trkpt>
      <trkpt lat="45.73681" lon="5.83369">
        <ele>792.07916</ele>
        <time>2014-11-22T14:34:00Z</time>
      </trkpt>
      <trkpt lat="45.73684" lon="5.83361">
        <ele>792.07916</ele>
        <time>2014-11-22T14:34:05Z</time>
      </trkpt>
      <trkpt lat="45.73688" lon="5.83353">
        <ele>791.97424</ele>
        <time>2014-11-22T14:34:10Z</time>
      </trkpt>
      <trkpt lat="45.73691" lon="5.83347">
        <ele>791.97424</ele>
        <time>2014-11-22T14:34:15Z</time>
      </trkpt>
      <trkpt lat="45.73696" lon="5.83339">
        <ele>792.11426</ele>
        <time>2014-11-22T14:34:20Z</time>
      </trkpt>
      <trkpt lat="45.73701" lon="5.83333">
        <ele>792.11426</ele>
        <time>2014-11-22T14:34:25Z</time>
      </trkpt>
      <trkpt lat="45.73708" lon="5.83325">
        <ele>791.99896</ele>
        <time>2014-11-22T14:34:30Z</time>
      </trkpt>
      <trkpt lat="45.73711" lon="5.8332">
        <ele>791.99896</ele>
        <time>2014-11-22T14:34:35Z</time>
      </trkpt>
      <trkpt lat="45.73713" lon="5.83317">
        <ele>791.99896</ele>
        <time>2014-11-22T14:34:40Z</time>
      </trkpt>
      <trkpt lat="45.73716" lon="5.83313">
        <ele>791.6554</ele>
        <time>2014-11-22T14:34:45Z</time>
      </trkpt>
      <trkpt lat="45.7372" lon="5.83311">
        <ele>791.6554</ele>
        <time>2014-11-22T14:34:50Z</time>
      </trkpt>
      <trkpt lat="45.73726" lon="5.83306">
        <ele>790.8068</ele>
        <time>2014-11-22T14:34:55Z</time>
      </trkpt>
      <trkpt lat="45.73736" lon="5.83302">
        <ele>789.7891</ele>
        <time>2014-11-22T14:35:00Z</time>
      </trkpt>
      <trkpt lat="45.73744" lon="5.83298">
        <ele>789.7891</ele>
        <time>2014-11-22T14:35:05Z</time>
      </trkpt>
      <trkpt lat="45.73748" lon="5.83295">
        <ele>788.38074</ele>
        <time>2014-11-22T14:35:10Z</time>
      </trkpt>
      <trkpt lat="45.73759" lon="5.8329">
        <ele>786.83856</ele>
        <time>2014-11-22T14:35:15Z</time>
      </trkpt>
      <trkpt lat="45.73766" lon="5.83285">
        <ele>786.83856</ele>
        <time>2014-11-22T14:35:20Z</time>
      </trkpt>
      <trkpt lat="45.73777" lon="5.8328">
        <ele>786.12146</ele>
        <time>2014-11-22T14:35:25Z</time>
      </trkpt>
      <trkpt lat="45.73784" lon="5.83272">
        <ele>786.12146</ele>
        <time>2014-11-22T14:35:30Z</time>
      </trkpt>
      <trkpt lat="45.73789" lon="5.8327">
        <ele>784.7377</ele>
        <time>2014-11-22T14:35:35Z</time>
      </trkpt>
      <trkpt lat="45.73793" lon="5.83268">
        <ele>784.7377</ele>
        <time>2014-11-22T14:35:40Z</time>
      </trkpt>
      <trkpt lat="45.73799" lon="5.83263">
        <ele>783.5405</ele>
        <time>2014-11-22T14:35:45Z</time>
      </trkpt>
      <trkpt lat="45.73802" lon="5.8326">
        <ele>783.5405</ele>
        <time>2014-11-22T14:35:50Z</time>
      </trkpt>
      <trkpt lat="45.73807" lon="5.83255">
        <ele>782.22455</ele>
        <time>2014-11-22T14:35:55Z</time>
      </trkpt>
      <trkpt lat="45.73812" lon="5.8325">
        <ele>782.22455</ele>
        <time>2014-11-22T14:36:00Z</time>
      </trkpt>
      <trkpt lat="45.73823" lon="5.83237">
        <ele>780.7953</ele>
        <time>2014-11-22T14:36:05Z</time>
      </trkpt>
      <trkpt lat="45.73829" lon="5.83227">
        <ele>779.5029</ele>
        <time>2014-11-22T14:36:10Z</time>
      </trkpt>
      <trkpt lat="45.73833" lon="5.83219">
        <ele>779.5029</ele>
        <time>2014-11-22T14:36:15Z</time>
      </trkpt>
      <trkpt lat="45.73838" lon="5.83214">
        <ele>778.3913</ele>
        <time>2014-11-22T14:36:20Z</time>
      </trkpt>
      <trkpt lat="45.73841" lon="5.83206">
        <ele>778.3913</ele>
        <time>2014-11-22T14:36:25Z</time>
      </trkpt>
      <trkpt lat="45.73847" lon="5.83198">
        <ele>777.34174</ele>
        <time>2014-11-22T14:36:30Z</time>
      </trkpt>
      <trkpt lat="45.7385" lon="5.8319">
        <ele>777.34174</ele>
        <time>2014-11-22T14:36:35Z</time>
      </trkpt>
      <trkpt lat="45.73856" lon="5.83175">
        <ele>775.94135</ele>
        <time>2014-11-22T14:36:40Z</time>
      </trkpt>
      <trkpt lat="45.73865" lon="5.83159">
        <ele>773.8082</ele>
        <time>2014-11-22T14:36:45Z</time>
      </trkpt>
      <trkpt lat="45.73876" lon="5.83147">
        <ele>770.92175</ele>
        <time>2014-11-22T14:36:50Z</time>
      </trkpt>
      <trkpt lat="45.73883" lon="5.83134">
        <ele>768.0861</ele>
        <time>2014-11-22T14:36:55Z</time>
      </trkpt>
      <trkpt lat="45.73892" lon="5.83123">
        <ele>765.54156</ele>
        <time>2014-11-22T14:37:00Z</time>
      </trkpt>
      <trkpt lat="45.73904" lon="5.83117">
        <ele>763.56726</ele>
        <time>2014-11-22T14:37:05Z</time>
      </trkpt>
      <trkpt lat="45.73913" lon="5.83109">
        <ele>762.0307</ele>
        <time>2014-11-22T14:37:10Z</time>
      </trkpt>
      <trkpt lat="45.73918" lon="5.83103">
        <ele>762.0307</ele>
        <time>2014-11-22T14:37:15Z</time>
      </trkpt>
      <trkpt lat="45.73923" lon="5.83096">
        <ele>761.36975</ele>
        <time>2014-11-22T14:37:20Z</time>
      </trkpt>
      <trkpt lat="45.73935" lon="5.83081">
        <ele>760.8632</ele>
        <time>2014-11-22T14:37:25Z</time>
      </trkpt>
      <trkpt lat="45.73947" lon="5.83063">
        <ele>760.6635</ele>
        <time>2014-11-22T14:37:30Z</time>
      </trkpt>
      <trkpt lat="45.7396" lon="5.83051">
        <ele>760.31976</ele>
        <time>2014-11-22T14:37:35Z</time>
      </trkpt>
      <trkpt lat="45.73967" lon="5.83035">
        <ele>760.1638</ele>
        <time>2014-11-22T14:37:40Z</time>
      </trkpt>
      <trkpt lat="45.73977" lon="5.83018">
        <ele>760.14197</ele>
        <time>2014-11-22T14:37:45Z</time>
      </trkpt>
      <trkpt lat="45.74" lon="5.83002">
        <ele>760.4055</ele>
        <time>2014-11-22T14:37:50Z</time>
      </trkpt>
      <trkpt lat="45.74018" lon="5.82988">
        <ele>761.209</ele>
        <time>2014-11-22T14:37:55Z</time>
      </trkpt>
      <trkpt lat="45.74026" lon="5.82981">
        <ele>762.03687</ele>
        <time>2014-11-22T14:38:00Z</time>
      </trkpt>
      <trkpt lat="45.74042" lon="5.82968">
        <ele>762.28174</ele>
        <time>2014-11-22T14:38:05Z</time>
      </trkpt>
      <trkpt lat="45.74054" lon="5.82952">
        <ele>762.7655</ele>
        <time>2014-11-22T14:38:10Z</time>
      </trkpt>
      <trkpt lat="45.74058" lon="5.82948">
        <ele>762.7655</ele>
        <time>2014-11-22T14:38:15Z</time>
      </trkpt>
      <trkpt lat="45.7406" lon="5.82947">
        <ele>762.7655</ele>
        <time>2014-11-22T14:38:20Z</time>
      </trkpt>
      <trkpt lat="45.74062" lon="5.82944">
        <ele>763.4419</ele>
        <time>2014-11-22T14:38:25Z</time>
      </trkpt>
      <trkpt lat="45.74066" lon="5.8294">
        <ele>763.4419</ele>
        <time>2014-11-22T14:38:30Z</time>
      </trkpt>
      <trkpt lat="45.7407" lon="5.82935">
        <ele>763.1288</ele>
        <time>2014-11-22T14:38:35Z</time>
      </trkpt>
      <trkpt lat="45.74075" lon="5.82934">
        <ele>763.1288</ele>
        <time>2014-11-22T14:38:40Z</time>
      </trkpt>
      <trkpt lat="45.7408" lon="5.82932">
        <ele>762.7222</ele>
        <time>2014-11-22T14:38:45Z</time>
      </trkpt>
      <trkpt lat="45.74082" lon="5.82927">
        <ele>762.7222</ele>
        <time>2014-11-22T14:38:50Z</time>
      </trkpt>
      <trkpt lat="45.74086" lon="5.82924">
        <ele>762.7222</ele>
        <time>2014-11-22T14:38:55Z</time>
      </trkpt>
      <trkpt lat="45.74091" lon="5.82921">
        <ele>761.97174</ele>
        <time>2014-11-22T14:39:00Z</time>
      </trkpt>
      <trkpt lat="45.74096" lon="5.82921">
        <ele>761.97174</ele>
        <time>2014-11-22T14:39:05Z</time>
      </trkpt>
      <trkpt lat="45.74101" lon="5.82923">
        <ele>761.4098</ele>
        <time>2014-11-22T14:39:10Z</time>
      </trkpt>
      <trkpt lat="45.74104" lon="5.82923">
        <ele>761.4098</ele>
        <time>2014-11-22T14:39:15Z</time>
      </trkpt>
      <trkpt lat="45.7411" lon="5.82922">
        <ele>760.50586</ele>
        <time>2014-11-22T14:39:20Z</time>
      </trkpt>
      <trkpt lat="45.74116" lon="5.82922">
        <ele>760.50586</ele>
        <time>2014-11-22T14:39:25Z</time>
      </trkpt>
      <trkpt lat="45.74123" lon="5.82924">
        <ele>758.2793</ele>
        <time>2014-11-22T14:39:30Z</time>
      </trkpt>
      <trkpt lat="45.74128" lon="5.82929">
        <ele>758.2793</ele>
        <time>2014-11-22T14:39:35Z</time>
      </trkpt>
      <trkpt lat="45.74135" lon="5.82932">
        <ele>755.9578</ele>
        <time>2014-11-22T14:39:40Z</time>
      </trkpt>
      <trkpt lat="45.74142" lon="5.8293">
        <ele>755.9578</ele>
        <time>2014-11-22T14:39:45Z</time>
      </trkpt>
      <trkpt lat="45.74143" lon="5.8293">
        <ele>755.9578</ele>
        <time>2014-11-22T14:39:50Z</time>
      </trkpt>
      <trkpt lat="45.74148" lon="5.82933">
        <ele>753.75684</ele>
        <time>2014-11-22T14:39:55Z</time>
      </trkpt>
      <trkpt lat="45.74151" lon="5.82934">
        <ele>753.75684</ele>
        <time>2014-11-22T14:40:00Z</time>
      </trkpt>
      <trkpt lat="45.74156" lon="5.82936">
        <ele>753.75684</ele>
        <time>2014-11-22T14:40:05Z</time>
      </trkpt>
      <trkpt lat="45.7416" lon="5.82936">
        <ele>751.3854</ele>
        <time>2014-11-22T14:40:10Z</time>
      </trkpt>
      <trkpt lat="45.74165" lon="5.82936">
        <ele>751.3854</ele>
        <time>2014-11-22T14:40:15Z</time>
      </trkpt>
      <trkpt lat="45.74169" lon="5.82939">
        <ele>748.4877</ele>
        <time>2014-11-22T14:40:20Z</time>
      </trkpt>
      <trkpt lat="45.74173" lon="5.82944">
        <ele>748.4877</ele>
        <time>2014-11-22T14:40:25Z</time>
      </trkpt>
      <trkpt lat="45.74178" lon="5.82945">
        <ele>745.1822</ele>
        <time>2014-11-22T14:40:30Z</time>
      </trkpt>
      <trkpt lat="45.74181" lon="5.82947">
        <ele>745.1822</ele>
        <time>2014-11-22T14:40:35Z</time>
      </trkpt>
      <trkpt lat="45.74183" lon="5.82949">
        <ele>745.1822</ele>
        <time>2014-11-22T14:40:40Z</time>
      </trkpt>
      <trkpt lat="45.7419" lon="5.82952">
        <ele>741.9111</ele>
        <time>2014-11-22T14:40:45Z</time>
      </trkpt>
      <trkpt lat="45.74196" lon="5.82954">
        <ele>741.9111</ele>
        <time>2014-11-22T14:40:50Z</time>
      </trkpt>
      <trkpt lat="45.74203" lon="5.82957">
        <ele>739.37195</ele>
        <time>2014-11-22T14:40:55Z</time>
      </trkpt>
      <trkpt lat="45.74213" lon="5.82961">
        <ele>737.34424</ele>
        <time>2014-11-22T14:41:00Z</time>
      </trkpt>
      <trkpt lat="45.7422" lon="5.82964">
        <ele>737.34424</ele>
        <time>2014-11-22T14:41:05Z</time>
      </trkpt>
      <trkpt lat="45.74226" lon="5.82968">
        <ele>735.0311</ele>
        <time>2014-11-22T14:41:10Z</time>
      </trkpt>
      <trkpt lat="45.74235" lon="5.82972">
        <ele>733.06384</ele>
        <time>2014-11-22T14:41:15Z</time>
      </trkpt>
      <trkpt lat="45.74242" lon="5.82978">
        <ele>733.06384</ele>
        <time>2014-11-22T14:41:20Z</time>
      </trkpt>
      <trkpt lat="45.74248" lon="5.82979">
        <ele>731.73804</ele>
        <time>2014-11-22T14:41:25Z</time>
      </trkpt>
      <trkpt lat="45.74249" lon="5.82983">
        <ele>731.73804</ele>
        <time>2014-11-22T14:41:30Z</time>
      </trkpt>
      <trkpt lat="45.74253" lon="5.82982">
        <ele>731.73804</ele>
        <time>2014-11-22T14:41:35Z</time>
      </trkpt>
      <trkpt lat="45.74256" lon="5.82981">
        <ele>730.2302</ele>
        <time>2014-11-22T14:41:40Z</time>
      </trkpt>
      <trkpt lat="45.74259" lon="5.82982">
        <ele>730.2302</ele>
        <time>2014-11-22T14:41:45Z</time>
      </trkpt>
      <trkpt lat="45.74265" lon="5.8298">
        <ele>727.56165</ele>
        <time>2014-11-22T14:41:50Z</time>
      </trkpt>
      <trkpt lat="45.7427" lon="5.8298">
        <ele>727.56165</ele>
        <time>2014-11-22T14:41:55Z</time>
      </trkpt>
      <trkpt lat="45.74274" lon="5.82979">
        <ele>727.56165</ele>
        <time>2014-11-22T14:42:00Z</time>
      </trkpt>
      <trkpt lat="45.74279" lon="5.82979">
        <ele>725.33606</ele>
        <time>2014-11-22T14:42:05Z</time>
      </trkpt>
      <trkpt lat="45.74283" lon="5.82978">
        <ele>725.33606</ele>
        <time>2014-11-22T14:42:10Z</time>
      </trkpt>
      <trkpt lat="45.74292" lon="5.8297">
        <ele>722.6169</ele>
        <time>2014-11-22T14:42:15Z</time>
      </trkpt>
      <trkpt lat="45.74297" lon="5.82966">
        <ele>722.6169</ele>
        <time>2014-11-22T14:42:20Z</time>
      </trkpt>
      <trkpt lat="45.74304" lon="5.82961">
        <ele>721.95294</ele>
        <time>2014-11-22T14:42:25Z</time>
      </trkpt>
      <trkpt lat="45.74311" lon="5.82951">
        <ele>719.92114</ele>
        <time>2014-11-22T14:42:30Z</time>
      </trkpt>
      <trkpt lat="45.74316" lon="5.82944">
        <ele>719.92114</ele>
        <time>2014-11-22T14:42:35Z</time>
      </trkpt>
      <trkpt lat="45.74321" lon="5.82941">
        <ele>717.38837</ele>
        <time>2014-11-22T14:42:40Z</time>
      </trkpt>
      <trkpt lat="45.74328" lon="5.82937">
        <ele>717.38837</ele>
        <time>2014-11-22T14:42:45Z</time>
      </trkpt>
      <trkpt lat="45.74333" lon="5.82929">
        <ele>715.05853</ele>
        <time>2014-11-22T14:42:50Z</time>
      </trkpt>
      <trkpt lat="45.7434" lon="5.82922">
        <ele>715.05853</ele>
        <time>2014-11-22T14:42:55Z</time>
      </trkpt>
      <trkpt lat="45.74346" lon="5.82915">
        <ele>712.8622</ele>
        <time>2014-11-22T14:43:00Z</time>
      </trkpt>
      <trkpt lat="45.74351" lon="5.82909">
        <ele>712.8622</ele>
        <time>2014-11-22T14:43:05Z</time>
      </trkpt>
      <trkpt lat="45.74357" lon="5.82905">
        <ele>710.6916</ele>
        <time>2014-11-22T14:43:10Z</time>
      </trkpt>
      <trkpt lat="45.74363" lon="5.82903">
        <ele>710.6916</ele>
        <time>2014-11-22T14:43:15Z</time>
      </trkpt>
      <trkpt lat="45.74369" lon="5.82902">
        <ele>708.7922</ele>
        <time>2014-11-22T14:43:20Z</time>
      </trkpt>
      <trkpt lat="45.74376" lon="5.82901">
        <ele>708.7922</ele>
        <time>2014-11-22T14:43:25Z</time>
      </trkpt>
      <trkpt lat="45.74381" lon="5.82899">
        <ele>706.75665</ele>
        <time>2014-11-22T14:43:30Z</time>
      </trkpt>
      <trkpt lat="45.74387" lon="5.82898">
        <ele>706.75665</ele>
        <time>2014-11-22T14:43:35Z</time>
      </trkpt>
      <trkpt lat="45.74394" lon="5.82897">
        <ele>704.64</ele>
        <time>2014-11-22T14:43:40Z</time>
      </trkpt>
      <trkpt lat="45.74402" lon="5.82897">
        <ele>704.64</ele>
        <time>2014-11-22T14:43:45Z</time>
      </trkpt>
      <trkpt lat="45.74409" lon="5.82894">
        <ele>702.8537</ele>
        <time>2014-11-22T14:43:50Z</time>
      </trkpt>
      <trkpt lat="45.74415" lon="5.82892">
        <ele>702.8537</ele>
        <time>2014-11-22T14:43:55Z</time>
      </trkpt>
      <trkpt lat="45.74416" lon="5.82892">
        <ele>702.8537</ele>
        <time>2014-11-22T14:44:00Z</time>
      </trkpt>
      <trkpt lat="45.74415" lon="5.82892">
        <ele>702.8537</ele>
        <time>2014-11-22T14:44:05Z</time>
      </trkpt>
      <trkpt lat="45.74415" lon="5.82892">
        <ele>702.8537</ele>
        <time>2014-11-22T14:44:10Z</time>
      </trkpt>
      <trkpt lat="45.74415" lon="5.82892">
        <ele>702.8537</ele>
        <time>2014-11-22T14:44:15Z</time>
      </trkpt>
      <trkpt lat="45.74415" lon="5.82891">
        <ele>702.8537</ele>
        <time>2014-11-22T14:44:20Z</time>
      </trkpt>
      <trkpt lat="45.74413" lon="5.82893">
        <ele>702.3831</ele>
        <time>2014-11-22T14:44:25Z</time>
      </trkpt>
      <trkpt lat="45.74413" lon="5.82892">
        <ele>702.3831</ele>
        <time>2014-11-22T14:44:30Z</time>
      </trkpt>
      <trkpt lat="45.74413" lon="5.82892">
        <ele>702.3831</ele>
        <time>2014-11-22T14:44:35Z</time>
      </trkpt>
      <trkpt lat="45.74414" lon="5.82893">
        <ele>702.3831</ele>
        <time>2014-11-22T14:44:40Z</time>
      </trkpt>
      <trkpt lat="45.74414" lon="5.82893">
        <ele>702.3831</ele>
        <time>2014-11-22T14:44:45Z</time>
      </trkpt>
      <trkpt lat="45.74413" lon="5.82893">
        <ele>702.3831</ele>
        <time>2014-11-22T14:44:50Z</time>
      </trkpt>
      <trkpt lat="45.74413" lon="5.82893">
        <ele>702.3831</ele>
        <time>2014-11-22T14:44:55Z</time>
      </trkpt>
      <trkpt lat="45.74416" lon="5.82892">
        <ele>702.3831</ele>
        <time>2014-11-22T14:45:00Z</time>
      </trkpt>
      <trkpt lat="45.74421" lon="5.82891">
        <ele>702.4368</ele>
        <time>2014-11-22T14:45:05Z</time>
      </trkpt>
      <trkpt lat="45.74426" lon="5.82888">
        <ele>702.4368</ele>
        <time>2014-11-22T14:45:10Z</time>
      </trkpt>
      <trkpt lat="45.74431" lon="5.82883">
        <ele>702.62604</ele>
        <time>2014-11-22T14:45:15Z</time>
      </trkpt>
      <trkpt lat="45.74438" lon="5.82879">
        <ele>702.62604</ele>
        <time>2014-11-22T14:45:20Z</time>
      </trkpt>
      <trkpt lat="45.74443" lon="5.82876">
        <ele>702.7196</ele>
        <time>2014-11-22T14:45:25Z</time>
      </trkpt>
      <trkpt lat="45.7445" lon="5.82875">
        <ele>702.7196</ele>
        <time>2014-11-22T14:45:30Z</time>
      </trkpt>
      <trkpt lat="45.74456" lon="5.82873">
        <ele>702.7918</ele>
        <time>2014-11-22T14:45:35Z</time>
      </trkpt>
      <trkpt lat="45.74463" lon="5.82872">
        <ele>702.7918</ele>
        <time>2014-11-22T14:45:40Z</time>
      </trkpt>
      <trkpt lat="45.74468" lon="5.82873">
        <ele>702.7242</ele>
        <time>2014-11-22T14:45:45Z</time>
      </trkpt>
      <trkpt lat="45.74473" lon="5.82875">
        <ele>702.7242</ele>
        <time>2014-11-22T14:45:50Z</time>
      </trkpt>
      <trkpt lat="45.74479" lon="5.82877">
        <ele>702.8684</ele>
        <time>2014-11-22T14:45:55Z</time>
      </trkpt>
      <trkpt lat="45.74487" lon="5.82881">
        <ele>702.8684</ele>
        <time>2014-11-22T14:46:00Z</time>
      </trkpt>
      <trkpt lat="45.74495" lon="5.82885">
        <ele>704.2704</ele>
        <time>2014-11-22T14:46:05Z</time>
      </trkpt>
      <trkpt lat="45.745" lon="5.8289">
        <ele>704.2704</ele>
        <time>2014-11-22T14:46:10Z</time>
      </trkpt>
      <trkpt lat="45.74508" lon="5.82894">
        <ele>704.9989</ele>
        <time>2014-11-22T14:46:15Z</time>
      </trkpt>
      <trkpt lat="45.74513" lon="5.829">
        <ele>704.9989</ele>
        <time>2014-11-22T14:46:20Z</time>
      </trkpt>
      <trkpt lat="45.74518" lon="5.82905">
        <ele>705.88947</ele>
        <time>2014-11-22T14:46:25Z</time>
      </trkpt>
      <trkpt lat="45.74523" lon="5.82902">
        <ele>705.88947</ele>
        <time>2014-11-22T14:46:30Z</time>
      </trkpt>
      <trkpt lat="45.74527" lon="5.82898">
        <ele>707.32666</ele>
        <time>2014-11-22T14:46:35Z</time>
      </trkpt>
      <trkpt lat="45.74529" lon="5.82896">
        <ele>707.32666</ele>
        <time>2014-11-22T14:46:40Z</time>
      </trkpt>
      <trkpt lat="45.7453" lon="5.82896">
        <ele>707.32666</ele>
        <time>2014-11-22T14:46:45Z</time>
      </trkpt>
      <trkpt lat="45.74532" lon="5.82896">
        <ele>707.32666</ele>
        <time>2014-11-22T14:46:50Z</time>
      </trkpt>
      <trkpt lat="45.74534" lon="5.82894">
        <ele>707.32666</ele>
        <time>2014-11-22T14:46:55Z</time>
      </trkpt>
      <trkpt lat="45.74536" lon="5.8289">
        <ele>708.55566</ele>
        <time>2014-11-22T14:47:00Z</time>
      </trkpt>
      <trkpt lat="45.74538" lon="5.82886">
        <ele>708.55566</ele>
        <time>2014-11-22T14:47:05Z</time>
      </trkpt>
      <trkpt lat="45.74541" lon="5.82879">
        <ele>709.62714</ele>
        <time>2014-11-22T14:47:10Z</time>
      </trkpt>
      <trkpt lat="45.74544" lon="5.82871">
        <ele>709.62714</ele>
        <time>2014-11-22T14:47:15Z</time>
      </trkpt>
      <trkpt lat="45.74545" lon="5.82866">
        <ele>709.8537</ele>
        <time>2014-11-22T14:47:20Z</time>
      </trkpt>
      <trkpt lat="45.74546" lon="5.82856">
        <ele>709.8537</ele>
        <time>2014-11-22T14:47:25Z</time>
      </trkpt>
      <trkpt lat="45.74548" lon="5.82846">
        <ele>711.8146</ele>
        <time>2014-11-22T14:47:30Z</time>
      </trkpt>
      <trkpt lat="45.74552" lon="5.82838">
        <ele>711.8146</ele>
        <time>2014-11-22T14:47:35Z</time>
      </trkpt>
      <trkpt lat="45.74556" lon="5.82833">
        <ele>714.21985</ele>
        <time>2014-11-22T14:47:40Z</time>
      </trkpt>
      <trkpt lat="45.74558" lon="5.82823">
        <ele>714.21985</ele>
        <time>2014-11-22T14:47:45Z</time>
      </trkpt>
      <trkpt lat="45.74562" lon="5.82816">
        <ele>716.6516</ele>
        <time>2014-11-22T14:47:50Z</time>
      </trkpt>
      <trkpt lat="45.74567" lon="5.82811">
        <ele>716.6516</ele>
        <time>2014-11-22T14:47:55Z</time>
      </trkpt>
      <trkpt lat="45.74572" lon="5.82806">
        <ele>719.5152</ele>
        <time>2014-11-22T14:48:00Z</time>
      </trkpt>
      <trkpt lat="45.74576" lon="5.82802">
        <ele>719.5152</ele>
        <time>2014-11-22T14:48:05Z</time>
      </trkpt>
      <trkpt lat="45.74576" lon="5.828">
        <ele>719.5152</ele>
        <time>2014-11-22T14:48:10Z</time>
      </trkpt>
      <trkpt lat="45.74576" lon="5.82798">
        <ele>719.5152</ele>
        <time>2014-11-22T14:48:15Z</time>
      </trkpt>
      <trkpt lat="45.74576" lon="5.82798">
        <ele>719.5152</ele>
        <time>2014-11-22T14:48:20Z</time>
      </trkpt>
      <trkpt lat="45.74576" lon="5.82798">
        <ele>719.5152</ele>
        <time>2014-11-22T14:48:25Z</time>
      </trkpt>
      <trkpt lat="45.74576" lon="5.82798">
        <ele>719.5152</ele>
        <time>2014-11-22T14:48:30Z</time>
      </trkpt>
      <trkpt lat="45.74576" lon="5.82798">
        <ele>719.5152</ele>
        <time>2014-11-22T14:48:35Z</time>
      </trkpt>
      <trkpt lat="45.74577" lon="5.82798">
        <ele>719.5152</ele>
        <time>2014-11-22T14:48:40Z</time>
      </trkpt>
      <trkpt lat="45.74578" lon="5.82799">
        <ele>722.9548</ele>
        <time>2014-11-22T14:48:45Z</time>
      </trkpt>
      <trkpt lat="45.74578" lon="5.82798">
        <ele>722.9548</ele>
        <time>2014-11-22T14:48:50Z</time>
      </trkpt>
      <trkpt lat="45.7458" lon="5.82796">
        <ele>722.9548</ele>
        <time>2014-11-22T14:48:55Z</time>
      </trkpt>
      <trkpt lat="45.74583" lon="5.82792">
        <ele>722.9548</ele>
        <time>2014-11-22T14:49:00Z</time>
      </trkpt>
      <trkpt lat="45.74587" lon="5.82786">
        <ele>726.09357</ele>
        <time>2014-11-22T14:49:05Z</time>
      </trkpt>
      <trkpt lat="45.74591" lon="5.8278">
        <ele>726.09357</ele>
        <time>2014-11-22T14:49:10Z</time>
      </trkpt>
      <trkpt lat="45.74596" lon="5.82773">
        <ele>728.6967</ele>
        <time>2014-11-22T14:49:15Z</time>
      </trkpt>
      <trkpt lat="45.74599" lon="5.8277">
        <ele>728.6967</ele>
        <time>2014-11-22T14:49:20Z</time>
      </trkpt>
      <trkpt lat="45.74603" lon="5.82768">
        <ele>728.6967</ele>
        <time>2014-11-22T14:49:25Z</time>
      </trkpt>
      <trkpt lat="45.74609" lon="5.82766">
        <ele>730.8511</ele>
        <time>2014-11-22T14:49:30Z</time>
      </trkpt>
      <trkpt lat="45.74615" lon="5.82762">
        <ele>730.8511</ele>
        <time>2014-11-22T14:49:35Z</time>
      </trkpt>
      <trkpt lat="45.74618" lon="5.8276">
        <ele>732.9124</ele>
        <time>2014-11-22T14:49:40Z</time>
      </trkpt>
      <trkpt lat="45.74622" lon="5.8276">
        <ele>732.9124</ele>
        <time>2014-11-22T14:49:45Z</time>
      </trkpt>
      <trkpt lat="45.74628" lon="5.82758">
        <ele>734.6776</ele>
        <time>2014-11-22T14:49:50Z</time>
      </trkpt>
      <trkpt lat="45.74632" lon="5.82757">
        <ele>734.6776</ele>
        <time>2014-11-22T14:49:55Z</time>
      </trkpt>
      <trkpt lat="45.74638" lon="5.82753">
        <ele>735.8156</ele>
        <time>2014-11-22T14:50:00Z</time>
      </trkpt>
      <trkpt lat="45.74644" lon="5.82751">
        <ele>735.8156</ele>
        <time>2014-11-22T14:50:05Z</time>
      </trkpt>
      <trkpt lat="45.7465" lon="5.8275">
        <ele>737.01587</ele>
        <time>2014-11-22T14:50:10Z</time>
      </trkpt>
      <trkpt lat="45.74661" lon="5.82747">
        <ele>738.024</ele>
        <time>2014-11-22T14:50:15Z</time>
      </trkpt>
      <trkpt lat="45.74665" lon="5.82747">
        <ele>738.024</ele>
        <time>2014-11-22T14:50:20Z</time>
      </trkpt>
      <trkpt lat="45.7467" lon="5.82744">
        <ele>738.80664</ele>
        <time>2014-11-22T14:50:25Z</time>
      </trkpt>
      <trkpt lat="45.74676" lon="5.82743">
        <ele>738.80664</ele>
        <time>2014-11-22T14:50:30Z</time>
      </trkpt>
      <trkpt lat="45.74685" lon="5.82747">
        <ele>739.6654</ele>
        <time>2014-11-22T14:50:35Z</time>
      </trkpt>
      <trkpt lat="45.74685" lon="5.82748">
        <ele>739.6654</ele>
        <time>2014-11-22T14:50:40Z</time>
      </trkpt>
      <trkpt lat="45.74689" lon="5.82753">
        <ele>739.6654</ele>
        <time>2014-11-22T14:50:45Z</time>
      </trkpt>
      <trkpt lat="45.74694" lon="5.82758">
        <ele>739.82764</ele>
        <time>2014-11-22T14:50:50Z</time>
      </trkpt>
      <trkpt lat="45.74697" lon="5.82766">
        <ele>739.82764</ele>
        <time>2014-11-22T14:50:55Z</time>
      </trkpt>
      <trkpt lat="45.74699" lon="5.82774">
        <ele>740.0209</ele>
        <time>2014-11-22T14:51:00Z</time>
      </trkpt>
      <trkpt lat="45.74701" lon="5.82782">
        <ele>740.0209</ele>
        <time>2014-11-22T14:51:05Z</time>
      </trkpt>
      <trkpt lat="45.74704" lon="5.82789">
        <ele>740.05457</ele>
        <time>2014-11-22T14:51:10Z</time>
      </trkpt>
      <trkpt lat="45.74708" lon="5.82793">
        <ele>740.05457</ele>
        <time>2014-11-22T14:51:15Z</time>
      </trkpt>
      <trkpt lat="45.74709" lon="5.82794">
        <ele>740.05457</ele>
        <time>2014-11-22T14:51:20Z</time>
      </trkpt>
      <trkpt lat="45.74709" lon="5.82794">
        <ele>740.05457</ele>
        <time>2014-11-22T14:51:25Z</time>
      </trkpt>
      <trkpt lat="45.74707" lon="5.82792">
        <ele>740.05457</ele>
        <time>2014-11-22T14:51:30Z</time>
      </trkpt>
      <trkpt lat="45.74706" lon="5.82786">
        <ele>739.4646</ele>
        <time>2014-11-22T14:51:35Z</time>
      </trkpt>
      <trkpt lat="45.74704" lon="5.8278">
        <ele>739.4646</ele>
        <time>2014-11-22T14:51:40Z</time>
      </trkpt>
      <trkpt lat="45.747" lon="5.82771">
        <ele>738.8028</ele>
        <time>2014-11-22T14:51:45Z</time>
      </trkpt>
      <trkpt lat="45.74698" lon="5.82764">
        <ele>738.8028</ele>
        <time>2014-11-22T14:51:50Z</time>
      </trkpt>
      <trkpt lat="45.74701" lon="5.82758">
        <ele>737.9037</ele>
        <time>2014-11-22T14:51:55Z</time>
      </trkpt>
      <trkpt lat="45.74703" lon="5.82763">
        <ele>737.9037</ele>
        <time>2014-11-22T14:52:00Z</time>
      </trkpt>
      <trkpt lat="45.74706" lon="5.8277">
        <ele>737.49365</ele>
        <time>2014-11-22T14:52:05Z</time>
      </trkpt>
      <trkpt lat="45.74709" lon="5.82777">
        <ele>737.49365</ele>
        <time>2014-11-22T14:52:10Z</time>
      </trkpt>
      <trkpt lat="45.74713" lon="5.82783">
        <ele>737.4231</ele>
        <time>2014-11-22T14:52:15Z</time>
      </trkpt>
      <trkpt lat="45.74719" lon="5.82783">
        <ele>737.4231</ele>
        <time>2014-11-22T14:52:20Z</time>
      </trkpt>
      <trkpt lat="45.7472" lon="5.82776">
        <ele>737.5671</ele>
        <time>2014-11-22T14:52:25Z</time>
      </trkpt>
      <trkpt lat="45.74724" lon="5.8277">
        <ele>737.5671</ele>
        <time>2014-11-22T14:52:30Z</time>
      </trkpt>
      <trkpt lat="45.74726" lon="5.82763">
        <ele>737.3769</ele>
        <time>2014-11-22T14:52:35Z</time>
      </trkpt>
      <trkpt lat="45.74731" lon="5.82757">
        <ele>737.3769</ele>
        <time>2014-11-22T14:52:40Z</time>
      </trkpt>
      <trkpt lat="45.74733" lon="5.82751">
        <ele>736.17224</ele>
        <time>2014-11-22T14:52:45Z</time>
      </trkpt>
      <trkpt lat="45.74738" lon="5.82743">
        <ele>736.17224</ele>
        <time>2014-11-22T14:52:50Z</time>
      </trkpt>
      <trkpt lat="45.74745" lon="5.82736">
        <ele>735.63165</ele>
        <time>2014-11-22T14:52:55Z</time>
      </trkpt>
      <trkpt lat="45.74753" lon="5.8273">
        <ele>735.46375</ele>
        <time>2014-11-22T14:53:00Z</time>
      </trkpt>
      <trkpt lat="45.7476" lon="5.82726">
        <ele>735.46375</ele>
        <time>2014-11-22T14:53:05Z</time>
      </trkpt>
      <trkpt lat="45.74765" lon="5.8272">
        <ele>735.57056</ele>
        <time>2014-11-22T14:53:10Z</time>
      </trkpt>
      <trkpt lat="45.74772" lon="5.82713">
        <ele>735.57056</ele>
        <time>2014-11-22T14:53:15Z</time>
      </trkpt>
      <trkpt lat="45.74775" lon="5.82705">
        <ele>735.8607</ele>
        <time>2014-11-22T14:53:20Z</time>
      </trkpt>
      <trkpt lat="45.74781" lon="5.82699">
        <ele>735.8607</ele>
        <time>2014-11-22T14:53:25Z</time>
      </trkpt>
      <trkpt lat="45.74781" lon="5.82697">
        <ele>735.8607</ele>
        <time>2014-11-22T14:53:30Z</time>
      </trkpt>
      <trkpt lat="45.74785" lon="5.82693">
        <ele>736.3353</ele>
        <time>2014-11-22T14:53:35Z</time>
      </trkpt>
      <trkpt lat="45.7479" lon="5.82689">
        <ele>736.3353</ele>
        <time>2014-11-22T14:53:40Z</time>
      </trkpt>
      <trkpt lat="45.74792" lon="5.82685">
        <ele>736.4475</ele>
        <time>2014-11-22T14:53:45Z</time>
      </trkpt>
      <trkpt lat="45.74799" lon="5.8268">
        <ele>736.4475</ele>
        <time>2014-11-22T14:53:50Z</time>
      </trkpt>
      <trkpt lat="45.7481" lon="5.8268">
        <ele>736.6426</ele>
        <time>2014-11-22T14:53:55Z</time>
      </trkpt>
      <trkpt lat="45.74816" lon="5.8268">
        <ele>736.6426</ele>
        <time>2014-11-22T14:54:00Z</time>
      </trkpt>
      <trkpt lat="45.74818" lon="5.82681">
        <ele>736.6426</ele>
        <time>2014-11-22T14:54:05Z</time>
      </trkpt>
      <trkpt lat="45.7482" lon="5.82676">
        <ele>736.7999</ele>
        <time>2014-11-22T14:54:10Z</time>
      </trkpt>
      <trkpt lat="45.74822" lon="5.82664">
        <ele>736.7999</ele>
        <time>2014-11-22T14:54:15Z</time>
      </trkpt>
      <trkpt lat="45.74825" lon="5.82655">
        <ele>736.69244</ele>
        <time>2014-11-22T14:54:20Z</time>
      </trkpt>
      <trkpt lat="45.7483" lon="5.82647">
        <ele>736.69244</ele>
        <time>2014-11-22T14:54:25Z</time>
      </trkpt>
      <trkpt lat="45.74835" lon="5.8264">
        <ele>736.8599</ele>
        <time>2014-11-22T14:54:30Z</time>
      </trkpt>
      <trkpt lat="45.74841" lon="5.82634">
        <ele>736.8599</ele>
        <time>2014-11-22T14:54:35Z</time>
      </trkpt>
      <trkpt lat="45.74848" lon="5.82628">
        <ele>737.0091</ele>
        <time>2014-11-22T14:54:40Z</time>
      </trkpt>
      <trkpt lat="45.74854" lon="5.82623">
        <ele>737.0091</ele>
        <time>2014-11-22T14:54:45Z</time>
      </trkpt>
      <trkpt lat="45.74859" lon="5.82616">
        <ele>736.7532</ele>
        <time>2014-11-22T14:54:50Z</time>
      </trkpt>
      <trkpt lat="45.74867" lon="5.82611">
        <ele>736.7532</ele>
        <time>2014-11-22T14:54:55Z</time>
      </trkpt>
      <trkpt lat="45.74871" lon="5.82606">
        <ele>736.46967</ele>
        <time>2014-11-22T14:55:00Z</time>
      </trkpt>
      <trkpt lat="45.74877" lon="5.82601">
        <ele>736.46967</ele>
        <time>2014-11-22T14:55:05Z</time>
      </trkpt>
      <trkpt lat="45.74881" lon="5.82593">
        <ele>736.53735</ele>
        <time>2014-11-22T14:55:10Z</time>
      </trkpt>
      <trkpt lat="45.74884" lon="5.82593">
        <ele>736.53735</ele>
        <time>2014-11-22T14:55:16Z</time>
      </trkpt>
      <trkpt lat="45.74888" lon="5.82591">
        <ele>736.53735</ele>
        <time>2014-11-22T14:55:20Z</time>
      </trkpt>
      <trkpt lat="45.74892" lon="5.82589">
        <ele>735.60565</ele>
        <time>2014-11-22T14:55:25Z</time>
      </trkpt>
      <trkpt lat="45.74898" lon="5.82587">
        <ele>735.60565</ele>
        <time>2014-11-22T14:55:30Z</time>
      </trkpt>
      <trkpt lat="45.74899" lon="5.82587">
        <ele>735.60565</ele>
        <time>2014-11-22T14:55:35Z</time>
      </trkpt>
      <trkpt lat="45.74902" lon="5.82587">
        <ele>734.78955</ele>
        <time>2014-11-22T14:55:40Z</time>
      </trkpt>
      <trkpt lat="45.74909" lon="5.82585">
        <ele>734.78955</ele>
        <time>2014-11-22T14:55:45Z</time>
      </trkpt>
      <trkpt lat="45.74912" lon="5.82584">
        <ele>733.7237</ele>
        <time>2014-11-22T14:55:50Z</time>
      </trkpt>
      <trkpt lat="45.74917" lon="5.82582">
        <ele>733.7237</ele>
        <time>2014-11-22T14:55:55Z</time>
      </trkpt>
      <trkpt lat="45.74922" lon="5.82581">
        <ele>732.6036</ele>
        <time>2014-11-22T14:56:00Z</time>
      </trkpt>
      <trkpt lat="45.74926" lon="5.8258">
        <ele>732.6036</ele>
        <time>2014-11-22T14:56:05Z</time>
      </trkpt>
      <trkpt lat="45.74928" lon="5.82581">
        <ele>732.6036</ele>
        <time>2014-11-22T14:56:10Z</time>
      </trkpt>
      <trkpt lat="45.74929" lon="5.82581">
        <ele>732.6036</ele>
        <time>2014-11-22T14:56:15Z</time>
      </trkpt>
      <trkpt lat="45.74931" lon="5.8258">
        <ele>732.35974</ele>
        <time>2014-11-22T14:56:20Z</time>
      </trkpt>
      <trkpt lat="45.74935" lon="5.82578">
        <ele>732.35974</ele>
        <time>2014-11-22T14:56:25Z</time>
      </trkpt>
      <trkpt lat="45.74937" lon="5.82576">
        <ele>732.35974</ele>
        <time>2014-11-22T14:56:30Z</time>
      </trkpt>
      <trkpt lat="45.74939" lon="5.82578">
        <ele>731.66156</ele>
        <time>2014-11-22T14:56:35Z</time>
      </trkpt>
      <trkpt lat="45.74941" lon="5.82576">
        <ele>731.66156</ele>
        <time>2014-11-22T14:56:40Z</time>
      </trkpt>
      <trkpt lat="45.74942" lon="5.82576">
        <ele>731.66156</ele>
        <time>2014-11-22T14:56:47Z</time>
      </trkpt>
      <trkpt lat="45.74943" lon="5.82575">
        <ele>731.66156</ele>
        <time>2014-11-22T14:56:50Z</time>
      </trkpt>
      <trkpt lat="45.74945" lon="5.82575">
        <ele>731.66156</ele>
        <time>2014-11-22T14:56:56Z</time>
      </trkpt>
      <trkpt lat="45.74949" lon="5.82576">
        <ele>729.9977</ele>
        <time>2014-11-22T14:57:01Z</time>
      </trkpt>
      <trkpt lat="45.74955" lon="5.8258">
        <ele>729.9977</ele>
        <time>2014-11-22T14:57:07Z</time>
      </trkpt>
      <trkpt lat="45.74959" lon="5.82586">
        <ele>728.75616</ele>
        <time>2014-11-22T14:57:11Z</time>
      </trkpt>
      <trkpt lat="45.74965" lon="5.82592">
        <ele>728.75616</ele>
        <time>2014-11-22T14:57:16Z</time>
      </trkpt>
      <trkpt lat="45.74969" lon="5.82595">
        <ele>727.3196</ele>
        <time>2014-11-22T14:57:20Z</time>
      </trkpt>
      <trkpt lat="45.74978" lon="5.82598">
        <ele>727.3196</ele>
        <time>2014-11-22T14:57:27Z</time>
      </trkpt>
      <trkpt lat="45.74982" lon="5.82598">
        <ele>725.7359</ele>
        <time>2014-11-22T14:57:30Z</time>
      </trkpt>
      <trkpt lat="45.7499" lon="5.826">
        <ele>725.7359</ele>
        <time>2014-11-22T14:57:35Z</time>
      </trkpt>
      <trkpt lat="45.74999" lon="5.826">
        <ele>723.9923</ele>
        <time>2014-11-22T14:57:40Z</time>
      </trkpt>
      <trkpt lat="45.75006" lon="5.826">
        <ele>723.9923</ele>
        <time>2014-11-22T14:57:45Z</time>
      </trkpt>
      <trkpt lat="45.75014" lon="5.82596">
        <ele>722.1206</ele>
        <time>2014-11-22T14:57:50Z</time>
      </trkpt>
      <trkpt lat="45.75021" lon="5.82592">
        <ele>722.1206</ele>
        <time>2014-11-22T14:57:55Z</time>
      </trkpt>
      <trkpt lat="45.75028" lon="5.82587">
        <ele>720.17914</ele>
        <time>2014-11-22T14:58:00Z</time>
      </trkpt>
      <trkpt lat="45.75034" lon="5.82581">
        <ele>720.17914</ele>
        <time>2014-11-22T14:58:05Z</time>
      </trkpt>
      <trkpt lat="45.75041" lon="5.82574">
        <ele>718.0061</ele>
        <time>2014-11-22T14:58:10Z</time>
      </trkpt>
      <trkpt lat="45.75047" lon="5.82569">
        <ele>718.0061</ele>
        <time>2014-11-22T14:58:15Z</time>
      </trkpt>
      <trkpt lat="45.75053" lon="5.82561">
        <ele>715.8554</ele>
        <time>2014-11-22T14:58:20Z</time>
      </trkpt>
      <trkpt lat="45.75059" lon="5.82556">
        <ele>715.8554</ele>
        <time>2014-11-22T14:58:25Z</time>
      </trkpt>
      <trkpt lat="45.75067" lon="5.82549">
        <ele>714.2073</ele>
        <time>2014-11-22T14:58:30Z</time>
      </trkpt>
      <trkpt lat="45.75072" lon="5.82546">
        <ele>714.2073</ele>
        <time>2014-11-22T14:58:35Z</time>
      </trkpt>
      <trkpt lat="45.75078" lon="5.82543">
        <ele>712.5394</ele>
        <time>2014-11-22T14:58:40Z</time>
      </trkpt>
      <trkpt lat="45.75085" lon="5.82546">
        <ele>712.5394</ele>
        <time>2014-11-22T14:58:45Z</time>
      </trkpt>
      <trkpt lat="45.75093" lon="5.82547">
        <ele>711.04535</ele>
        <time>2014-11-22T14:58:50Z</time>
      </trkpt>
      <trkpt lat="45.75101" lon="5.82546">
        <ele>711.04535</ele>
        <time>2014-11-22T14:58:55Z</time>
      </trkpt>
      <trkpt lat="45.75108" lon="5.82542">
        <ele>709.83136</ele>
        <time>2014-11-22T14:59:00Z</time>
      </trkpt>
      <trkpt lat="45.75113" lon="5.8254">
        <ele>709.83136</ele>
        <time>2014-11-22T14:59:05Z</time>
      </trkpt>
      <trkpt lat="45.75118" lon="5.82536">
        <ele>708.6495</ele>
        <time>2014-11-22T14:59:10Z</time>
      </trkpt>
      <trkpt lat="45.75117" lon="5.82538">
        <ele>708.6495</ele>
        <time>2014-11-22T14:59:15Z</time>
      </trkpt>
      <trkpt lat="45.75115" lon="5.82542">
        <ele>708.6495</ele>
        <time>2014-11-22T14:59:20Z</time>
      </trkpt>
      <trkpt lat="45.75114" lon="5.82544">
        <ele>708.6495</ele>
        <time>2014-11-22T14:59:25Z</time>
      </trkpt>
      <trkpt lat="45.75116" lon="5.82542">
        <ele>708.6495</ele>
        <time>2014-11-22T14:59:30Z</time>
      </trkpt>
      <trkpt lat="45.75117" lon="5.82546">
        <ele>707.11096</ele>
        <time>2014-11-22T14:59:35Z</time>
      </trkpt>
      <trkpt lat="45.75116" lon="5.82546">
        <ele>707.11096</ele>
        <time>2014-11-22T14:59:40Z</time>
      </trkpt>
      <trkpt lat="45.75116" lon="5.82547">
        <ele>707.11096</ele>
        <time>2014-11-22T14:59:45Z</time>
      </trkpt>
      <trkpt lat="45.75116" lon="5.82547">
        <ele>707.11096</ele>
        <time>2014-11-22T14:59:50Z</time>
      </trkpt>
      <trkpt lat="45.75116" lon="5.8255">
        <ele>707.11096</ele>
        <time>2014-11-22T14:59:55Z</time>
      </trkpt>
      <trkpt lat="45.75117" lon="5.82549">
        <ele>707.11096</ele>
        <time>2014-11-22T15:00:00Z</time>
      </trkpt>
      <trkpt lat="45.75117" lon="5.82549">
        <ele>707.11096</ele>
        <time>2014-11-22T15:00:05Z</time>
      </trkpt>
      <trkpt lat="45.7512" lon="5.82542">
        <ele>706.0382</ele>
        <time>2014-11-22T15:00:11Z</time>
      </trkpt>
      <trkpt lat="45.75124" lon="5.82531">
        <ele>706.0382</ele>
        <time>2014-11-22T15:00:16Z</time>
      </trkpt>
      <trkpt lat="45.75128" lon="5.82523">
        <ele>705.0246</ele>
        <time>2014-11-22T15:00:22Z</time>
      </trkpt>
      <trkpt lat="45.75132" lon="5.82517">
        <ele>705.0246</ele>
        <time>2014-11-22T15:00:26Z</time>
      </trkpt>
      <trkpt lat="45.75136" lon="5.82509">
        <ele>703.9379</ele>
        <time>2014-11-22T15:00:31Z</time>
      </trkpt>
      <trkpt lat="45.75141" lon="5.82503">
        <ele>703.9379</ele>
        <time>2014-11-22T15:00:36Z</time>
      </trkpt>
      <trkpt lat="45.75149" lon="5.82498">
        <ele>703.1602</ele>
        <time>2014-11-22T15:00:40Z</time>
      </trkpt>
      <trkpt lat="45.75156" lon="5.82494">
        <ele>703.1602</ele>
        <time>2014-11-22T15:00:45Z</time>
      </trkpt>
      <trkpt lat="45.75163" lon="5.82491">
        <ele>702.8282</ele>
        <time>2014-11-22T15:00:50Z</time>
      </trkpt>
      <trkpt lat="45.7517" lon="5.82489">
        <ele>702.8282</ele>
        <time>2014-11-22T15:00:55Z</time>
      </trkpt>
      <trkpt lat="45.75177" lon="5.82487">
        <ele>702.8079</ele>
        <time>2014-11-22T15:01:00Z</time>
      </trkpt>
      <trkpt lat="45.75184" lon="5.82485">
        <ele>702.8079</ele>
        <time>2014-11-22T15:01:05Z</time>
      </trkpt>
      <trkpt lat="45.75191" lon="5.82484">
        <ele>703.1183</ele>
        <time>2014-11-22T15:01:10Z</time>
      </trkpt>
      <trkpt lat="45.75199" lon="5.82482">
        <ele>703.1183</ele>
        <time>2014-11-22T15:01:15Z</time>
      </trkpt>
      <trkpt lat="45.75205" lon="5.8248">
        <ele>703.6173</ele>
        <time>2014-11-22T15:01:20Z</time>
      </trkpt>
      <trkpt lat="45.75213" lon="5.82479">
        <ele>703.6173</ele>
        <time>2014-11-22T15:01:25Z</time>
      </trkpt>
      <trkpt lat="45.7522" lon="5.82478">
        <ele>704.2881</ele>
        <time>2014-11-22T15:01:30Z</time>
      </trkpt>
      <trkpt lat="45.75226" lon="5.82478">
        <ele>704.2881</ele>
        <time>2014-11-22T15:01:35Z</time>
      </trkpt>
      <trkpt lat="45.75233" lon="5.82476">
        <ele>705.01355</ele>
        <time>2014-11-22T15:01:40Z</time>
      </trkpt>
      <trkpt lat="45.75239" lon="5.82473">
        <ele>705.01355</ele>
        <time>2014-11-22T15:01:45Z</time>
      </trkpt>
      <trkpt lat="45.75246" lon="5.82471">
        <ele>705.80035</ele>
        <time>2014-11-22T15:01:50Z</time>
      </trkpt>
      <trkpt lat="45.75253" lon="5.82467">
        <ele>705.80035</ele>
        <time>2014-11-22T15:01:55Z</time>
      </trkpt>
      <trkpt lat="45.7526" lon="5.82463">
        <ele>706.7263</ele>
        <time>2014-11-22T15:02:00Z</time>
      </trkpt>
      <trkpt lat="45.75266" lon="5.8246">
        <ele>706.7263</ele>
        <time>2014-11-22T15:02:05Z</time>
      </trkpt>
      <trkpt lat="45.75272" lon="5.82455">
        <ele>707.5896</ele>
        <time>2014-11-22T15:02:10Z</time>
      </trkpt>
      <trkpt lat="45.75277" lon="5.82448">
        <ele>707.5896</ele>
        <time>2014-11-22T15:02:15Z</time>
      </trkpt>
      <trkpt lat="45.75281" lon="5.82441">
        <ele>708.54895</ele>
        <time>2014-11-22T15:02:20Z</time>
      </trkpt>
      <trkpt lat="45.75286" lon="5.82435">
        <ele>708.54895</ele>
        <time>2014-11-22T15:02:25Z</time>
      </trkpt>
      <trkpt lat="45.75291" lon="5.82428">
        <ele>709.5065</ele>
        <time>2014-11-22T15:02:30Z</time>
      </trkpt>
      <trkpt lat="45.75296" lon="5.82421">
        <ele>709.5065</ele>
        <time>2014-11-22T15:02:35Z</time>
      </trkpt>
      <trkpt lat="45.75303" lon="5.82414">
        <ele>710.8036</ele>
        <time>2014-11-22T15:02:40Z</time>
      </trkpt>
      <trkpt lat="45.75309" lon="5.82408">
        <ele>710.8036</ele>
        <time>2014-11-22T15:02:45Z</time>
      </trkpt>
      <trkpt lat="45.75315" lon="5.82402">
        <ele>712.46765</ele>
        <time>2014-11-22T15:02:50Z</time>
      </trkpt>
      <trkpt lat="45.75321" lon="5.82397">
        <ele>712.46765</ele>
        <time>2014-11-22T15:02:55Z</time>
      </trkpt>
      <trkpt lat="45.75327" lon="5.82392">
        <ele>714.19147</ele>
        <time>2014-11-22T15:03:00Z</time>
      </trkpt>
      <trkpt lat="45.75332" lon="5.82387">
        <ele>714.19147</ele>
        <time>2014-11-22T15:03:05Z</time>
      </trkpt>
      <trkpt lat="45.75339" lon="5.82381">
        <ele>715.993</ele>
        <time>2014-11-22T15:03:10Z</time>
      </trkpt>
      <trkpt lat="45.75344" lon="5.82376">
        <ele>715.993</ele>
        <time>2014-11-22T15:03:15Z</time>
      </trkpt>
      <trkpt lat="45.75351" lon="5.82371">
        <ele>717.74457</ele>
        <time>2014-11-22T15:03:20Z</time>
      </trkpt>
      <trkpt lat="45.75357" lon="5.82366">
        <ele>717.74457</ele>
        <time>2014-11-22T15:03:25Z</time>
      </trkpt>
      <trkpt lat="45.75362" lon="5.82362">
        <ele>719.2849</ele>
        <time>2014-11-22T15:03:30Z</time>
      </trkpt>
      <trkpt lat="45.75367" lon="5.82356">
        <ele>719.2849</ele>
        <time>2014-11-22T15:03:35Z</time>
      </trkpt>
      <trkpt lat="45.75373" lon="5.8235">
        <ele>720.6239</ele>
        <time>2014-11-22T15:03:40Z</time>
      </trkpt>
      <trkpt lat="45.75379" lon="5.82345">
        <ele>720.6239</ele>
        <time>2014-11-22T15:03:45Z</time>
      </trkpt>
      <trkpt lat="45.75385" lon="5.8234">
        <ele>721.77124</ele>
        <time>2014-11-22T15:03:50Z</time>
      </trkpt>
      <trkpt lat="45.7539" lon="5.82335">
        <ele>721.77124</ele>
        <time>2014-11-22T15:03:55Z</time>
      </trkpt>
      <trkpt lat="45.75394" lon="5.8233">
        <ele>722.5493</ele>
        <time>2014-11-22T15:04:00Z</time>
      </trkpt>
      <trkpt lat="45.754" lon="5.82323">
        <ele>722.5493</ele>
        <time>2014-11-22T15:04:05Z</time>
      </trkpt>
      <trkpt lat="45.75404" lon="5.82318">
        <ele>723.0973</ele>
        <time>2014-11-22T15:04:10Z</time>
      </trkpt>
      <trkpt lat="45.75409" lon="5.82311">
        <ele>723.0973</ele>
        <time>2014-11-22T15:04:16Z</time>
      </trkpt>
      <trkpt lat="45.75413" lon="5.82304">
        <ele>723.7322</ele>
        <time>2014-11-22T15:04:20Z</time>
      </trkpt>
      <trkpt lat="45.75417" lon="5.82296">
        <ele>723.7322</ele>
        <time>2014-11-22T15:04:25Z</time>
      </trkpt>
      <trkpt lat="45.7542" lon="5.82289">
        <ele>724.4163</ele>
        <time>2014-11-22T15:04:30Z</time>
      </trkpt>
      <trkpt lat="45.75422" lon="5.8228">
        <ele>724.4163</ele>
        <time>2014-11-22T15:04:35Z</time>
      </trkpt>
      <trkpt lat="45.75424" lon="5.82273">
        <ele>725.22986</ele>
        <time>2014-11-22T15:04:40Z</time>
      </trkpt>
      <trkpt lat="45.75427" lon="5.82266">
        <ele>725.22986</ele>
        <time>2014-11-22T15:04:45Z</time>
      </trkpt>
      <trkpt lat="45.75431" lon="5.82259">
        <ele>725.38226</ele>
        <time>2014-11-22T15:04:50Z</time>
      </trkpt>
      <trkpt lat="45.75433" lon="5.8225">
        <ele>725.38226</ele>
        <time>2014-11-22T15:04:55Z</time>
      </trkpt>
      <trkpt lat="45.75437" lon="5.8224">
        <ele>725.2239</ele>
        <time>2014-11-22T15:05:00Z</time>
      </trkpt>
      <trkpt lat="45.75441" lon="5.82228">
        <ele>725.2239</ele>
        <time>2014-11-22T15:05:05Z</time>
      </trkpt>
      <trkpt lat="45.75446" lon="5.82218">
        <ele>725.48376</ele>
        <time>2014-11-22T15:05:10Z</time>
      </trkpt>
      <trkpt lat="45.75451" lon="5.8221">
        <ele>725.48376</ele>
        <time>2014-11-22T15:05:15Z</time>
      </trkpt>
      <trkpt lat="45.75456" lon="5.82201">
        <ele>725.72675</ele>
        <time>2014-11-22T15:05:20Z</time>
      </trkpt>
      <trkpt lat="45.75459" lon="5.82191">
        <ele>725.72675</ele>
        <time>2014-11-22T15:05:25Z</time>
      </trkpt>
      <trkpt lat="45.75462" lon="5.82183">
        <ele>726.24146</ele>
        <time>2014-11-22T15:05:30Z</time>
      </trkpt>
      <trkpt lat="45.75466" lon="5.82175">
        <ele>726.24146</ele>
        <time>2014-11-22T15:05:35Z</time>
      </trkpt>
      <trkpt lat="45.75468" lon="5.82166">
        <ele>726.58856</ele>
        <time>2014-11-22T15:05:40Z</time>
      </trkpt>
      <trkpt lat="45.75469" lon="5.82158">
        <ele>726.58856</ele>
        <time>2014-11-22T15:05:45Z</time>
      </trkpt>
      <trkpt lat="45.75468" lon="5.82149">
        <ele>726.9379</ele>
        <time>2014-11-22T15:05:50Z</time>
      </trkpt>
      <trkpt lat="45.75467" lon="5.82142">
        <ele>726.9379</ele>
        <time>2014-11-22T15:05:56Z</time>
      </trkpt>
      <trkpt lat="45.75466" lon="5.82136">
        <ele>727.3606</ele>
        <time>2014-11-22T15:06:01Z</time>
      </trkpt>
      <trkpt lat="45.75466" lon="5.82136">
        <ele>727.3606</ele>
        <time>2014-11-22T15:06:06Z</time>
      </trkpt>
      <trkpt lat="45.75465" lon="5.82136">
        <ele>727.3606</ele>
        <time>2014-11-22T15:06:11Z</time>
      </trkpt>
      <trkpt lat="45.75465" lon="5.82136">
        <ele>727.3606</ele>
        <time>2014-11-22T15:06:16Z</time>
      </trkpt>
      <trkpt lat="45.75465" lon="5.82136">
        <ele>727.3606</ele>
        <time>2014-11-22T15:06:21Z</time>
      </trkpt>
      <trkpt lat="45.75465" lon="5.82136">
        <ele>727.3606</ele>
        <time>2014-11-22T15:06:25Z</time>
      </trkpt>
      <trkpt lat="45.75466" lon="5.82136">
        <ele>727.3606</ele>
        <time>2014-11-22T15:06:31Z</time>
      </trkpt>
      <trkpt lat="45.75466" lon="5.82136">
        <ele>727.3606</ele>
        <time>2014-11-22T15:06:37Z</time>
      </trkpt>
      <trkpt lat="45.75465" lon="5.82135">
        <ele>727.3606</ele>
        <time>2014-11-22T15:06:41Z</time>
      </trkpt>
      <trkpt lat="45.75466" lon="5.82135">
        <ele>727.3606</ele>
        <time>2014-11-22T15:06:46Z</time>
      </trkpt>
      <trkpt lat="45.75466" lon="5.82136">
        <ele>727.3606</ele>
        <time>2014-11-22T15:06:51Z</time>
      </trkpt>
      <trkpt lat="45.75466" lon="5.82136">
        <ele>727.3606</ele>
        <time>2014-11-22T15:06:57Z</time>
      </trkpt>
      <trkpt lat="45.75466" lon="5.82136">
        <ele>727.3606</ele>
        <time>2014-11-22T15:07:01Z</time>
      </trkpt>
      <trkpt lat="45.75465" lon="5.82134">
        <ele>727.3606</ele>
        <time>2014-11-22T15:07:05Z</time>
      </trkpt>
      <trkpt lat="45.7546" lon="5.82129">
        <ele>727.6485</ele>
        <time>2014-11-22T15:07:11Z</time>
      </trkpt>
      <trkpt lat="45.75454" lon="5.82124">
        <ele>727.6485</ele>
        <time>2014-11-22T15:07:16Z</time>
      </trkpt>
      <trkpt lat="45.75449" lon="5.8212">
        <ele>727.53723</ele>
        <time>2014-11-22T15:07:21Z</time>
      </trkpt>
      <trkpt lat="45.75447" lon="5.82116">
        <ele>727.53723</ele>
        <time>2014-11-22T15:07:26Z</time>
      </trkpt>
      <trkpt lat="45.75444" lon="5.82112">
        <ele>727.53723</ele>
        <time>2014-11-22T15:07:32Z</time>
      </trkpt>
      <trkpt lat="45.75442" lon="5.82109">
        <ele>727.04236</ele>
        <time>2014-11-22T15:07:36Z</time>
      </trkpt>
      <trkpt lat="45.75439" lon="5.82105">
        <ele>727.04236</ele>
        <time>2014-11-22T15:07:41Z</time>
      </trkpt>
      <trkpt lat="45.75436" lon="5.82098">
        <ele>726.28033</ele>
        <time>2014-11-22T15:07:45Z</time>
      </trkpt>
      <trkpt lat="45.75436" lon="5.82098">
        <ele>726.28033</ele>
        <time>2014-11-22T15:07:50Z</time>
      </trkpt>
      <trkpt lat="45.75435" lon="5.82096">
        <ele>726.28033</ele>
        <time>2014-11-22T15:07:55Z</time>
      </trkpt>
      <trkpt lat="45.75432" lon="5.82088">
        <ele>726.28033</ele>
        <time>2014-11-22T15:08:00Z</time>
      </trkpt>
      <trkpt lat="45.75431" lon="5.82087">
        <ele>725.54724</ele>
        <time>2014-11-22T15:08:05Z</time>
      </trkpt>
      <trkpt lat="45.75431" lon="5.82088">
        <ele>725.54724</ele>
        <time>2014-11-22T15:08:10Z</time>
      </trkpt>
      <trkpt lat="45.7543" lon="5.82084">
        <ele>725.54724</ele>
        <time>2014-11-22T15:08:15Z</time>
      </trkpt>
      <trkpt lat="45.75428" lon="5.8208">
        <ele>725.54724</ele>
        <time>2014-11-22T15:08:20Z</time>
      </trkpt>
      <trkpt lat="45.75428" lon="5.82075">
        <ele>724.2671</ele>
        <time>2014-11-22T15:08:25Z</time>
      </trkpt>
      <trkpt lat="45.75427" lon="5.82075">
        <ele>724.2671</ele>
        <time>2014-11-22T15:08:30Z</time>
      </trkpt>
      <trkpt lat="45.75427" lon="5.82074">
        <ele>724.2671</ele>
        <time>2014-11-22T15:08:35Z</time>
      </trkpt>
      <trkpt lat="45.75424" lon="5.82068">
        <ele>724.2671</ele>
        <time>2014-11-22T15:08:40Z</time>
      </trkpt>
      <trkpt lat="45.75419" lon="5.82062">
        <ele>722.9742</ele>
        <time>2014-11-22T15:08:45Z</time>
      </trkpt>
      <trkpt lat="45.75413" lon="5.82057">
        <ele>722.9742</ele>
        <time>2014-11-22T15:08:50Z</time>
      </trkpt>
      <trkpt lat="45.75408" lon="5.82051">
        <ele>721.7746</ele>
        <time>2014-11-22T15:08:55Z</time>
      </trkpt>
      <trkpt lat="45.75404" lon="5.82043">
        <ele>721.7746</ele>
        <time>2014-11-22T15:09:00Z</time>
      </trkpt>
      <trkpt lat="45.75401" lon="5.82035">
        <ele>720.4204</ele>
        <time>2014-11-22T15:09:05Z</time>
      </trkpt>
      <trkpt lat="45.754" lon="5.82025">
        <ele>720.4204</ele>
        <time>2014-11-22T15:09:10Z</time>
      </trkpt>
      <trkpt lat="45.75401" lon="5.82016">
        <ele>718.9129</ele>
        <time>2014-11-22T15:09:15Z</time>
      </trkpt>
      <trkpt lat="45.75401" lon="5.82016">
        <ele>718.9129</ele>
        <time>2014-11-22T15:09:20Z</time>
      </trkpt>
      <trkpt lat="45.75403" lon="5.82011">
        <ele>718.9129</ele>
        <time>2014-11-22T15:09:25Z</time>
      </trkpt>
      <trkpt lat="45.75406" lon="5.82003">
        <ele>717.4699</ele>
        <time>2014-11-22T15:09:30Z</time>
      </trkpt>
      <trkpt lat="45.75409" lon="5.81997">
        <ele>717.4699</ele>
        <time>2014-11-22T15:09:35Z</time>
      </trkpt>
      <trkpt lat="45.75414" lon="5.81991">
        <ele>715.7887</ele>
        <time>2014-11-22T15:09:40Z</time>
      </trkpt>
      <trkpt lat="45.75419" lon="5.81985">
        <ele>715.7887</ele>
        <time>2014-11-22T15:09:45Z</time>
      </trkpt>
      <trkpt lat="45.75424" lon="5.8198">
        <ele>714.20886</ele>
        <time>2014-11-22T15:09:50Z</time>
      </trkpt>
      <trkpt lat="45.75427" lon="5.81977">
        <ele>714.20886</ele>
        <time>2014-11-22T15:09:55Z</time>
      </trkpt>
      <trkpt lat="45.75431" lon="5.8197">
        <ele>712.5982</ele>
        <time>2014-11-22T15:10:00Z</time>
      </trkpt>
      <trkpt lat="45.75437" lon="5.81963">
        <ele>712.5982</ele>
        <time>2014-11-22T15:10:05Z</time>
      </trkpt>
      <trkpt lat="45.75441" lon="5.81957">
        <ele>711.0647</ele>
        <time>2014-11-22T15:10:10Z</time>
      </trkpt>
      <trkpt lat="45.75446" lon="5.81951">
        <ele>711.0647</ele>
        <time>2014-11-22T15:10:15Z</time>
      </trkpt>
      <trkpt lat="45.75452" lon="5.81944">
        <ele>709.7514</ele>
        <time>2014-11-22T15:10:20Z</time>
      </trkpt>
      <trkpt lat="45.75457" lon="5.81939">
        <ele>709.7514</ele>
        <time>2014-11-22T15:10:25Z</time>
      </trkpt>
      <trkpt lat="45.75463" lon="5.81932">
        <ele>708.3146</ele>
        <time>2014-11-22T15:10:30Z</time>
      </trkpt>
      <trkpt lat="45.75468" lon="5.81925">
        <ele>708.3146</ele>
        <time>2014-11-22T15:10:35Z</time>
      </trkpt>
      <trkpt lat="45.75474" lon="5.81921">
        <ele>706.53674</ele>
        <time>2014-11-22T15:10:40Z</time>
      </trkpt>
      <trkpt lat="45.75475" lon="5.81921">
        <ele>706.53674</ele>
        <time>2014-11-22T15:10:45Z</time>
      </trkpt>
      <trkpt lat="45.75475" lon="5.81921">
        <ele>706.53674</ele>
        <time>2014-11-22T15:10:50Z</time>
      </trkpt>
      <trkpt lat="45.75479" lon="5.81928">
        <ele>706.53674</ele>
        <time>2014-11-22T15:10:55Z</time>
      </trkpt>
      <trkpt lat="45.75481" lon="5.81938">
        <ele>704.7507</ele>
        <time>2014-11-22T15:11:00Z</time>
      </trkpt>
      <trkpt lat="45.75483" lon="5.8195">
        <ele>704.7507</ele>
        <time>2014-11-22T15:11:05Z</time>
      </trkpt>
      <trkpt lat="45.75487" lon="5.81959">
        <ele>702.8898</ele>
        <time>2014-11-22T15:11:10Z</time>
      </trkpt>
      <trkpt lat="45.75491" lon="5.81966">
        <ele>702.8898</ele>
        <time>2014-11-22T15:11:15Z</time>
      </trkpt>
      <trkpt lat="45.75497" lon="5.81973">
        <ele>701.0366</ele>
        <time>2014-11-22T15:11:20Z</time>
      </trkpt>
      <trkpt lat="45.75509" lon="5.81988">
        <ele>699.32526</ele>
        <time>2014-11-22T15:11:25Z</time>
      </trkpt>
      <trkpt lat="45.75524" lon="5.82004">
        <ele>698.2251</ele>
        <time>2014-11-22T15:11:30Z</time>
      </trkpt>
      <trkpt lat="45.7553" lon="5.8201">
        <ele>698.2251</ele>
        <time>2014-11-22T15:11:35Z</time>
      </trkpt>
      <trkpt lat="45.75532" lon="5.82012">
        <ele>697.13184</ele>
        <time>2014-11-22T15:11:40Z</time>
      </trkpt>
      <trkpt lat="45.75533" lon="5.8201">
        <ele>697.13184</ele>
        <time>2014-11-22T15:11:45Z</time>
      </trkpt>
      <trkpt lat="45.75533" lon="5.8201">
        <ele>697.13184</ele>
        <time>2014-11-22T15:11:50Z</time>
      </trkpt>
      <trkpt lat="45.75534" lon="5.8201">
        <ele>697.13184</ele>
        <time>2014-11-22T15:11:55Z</time>
      </trkpt>
      <trkpt lat="45.75539" lon="5.8201">
        <ele>697.13184</ele>
        <time>2014-11-22T15:12:00Z</time>
      </trkpt>
      <trkpt lat="45.75544" lon="5.82011">
        <ele>695.31226</ele>
        <time>2014-11-22T15:12:05Z</time>
      </trkpt>
      <trkpt lat="45.75548" lon="5.82012">
        <ele>695.31226</ele>
        <time>2014-11-22T15:12:10Z</time>
      </trkpt>
      <trkpt lat="45.75553" lon="5.82012">
        <ele>693.5734</ele>
        <time>2014-11-22T15:12:15Z</time>
      </trkpt>
      <trkpt lat="45.7556" lon="5.82011">
        <ele>693.5734</ele>
        <time>2014-11-22T15:12:20Z</time>
      </trkpt>
      <trkpt lat="45.75563" lon="5.8201">
        <ele>691.6251</ele>
        <time>2014-11-22T15:12:25Z</time>
      </trkpt>
      <trkpt lat="45.7557" lon="5.82009">
        <ele>691.6251</ele>
        <time>2014-11-22T15:12:30Z</time>
      </trkpt>
      <trkpt lat="45.75577" lon="5.82009">
        <ele>690.23645</ele>
        <time>2014-11-22T15:12:35Z</time>
      </trkpt>
      <trkpt lat="45.75582" lon="5.82009">
        <ele>690.23645</ele>
        <time>2014-11-22T15:12:40Z</time>
      </trkpt>
      <trkpt lat="45.75587" lon="5.82009">
        <ele>688.6341</ele>
        <time>2014-11-22T15:12:45Z</time>
      </trkpt>
      <trkpt lat="45.7559" lon="5.82008">
        <ele>688.6341</ele>
        <time>2014-11-22T15:12:50Z</time>
      </trkpt>
      <trkpt lat="45.75596" lon="5.82009">
        <ele>686.246</ele>
        <time>2014-11-22T15:12:55Z</time>
      </trkpt>
      <trkpt lat="45.756" lon="5.82009">
        <ele>686.246</ele>
        <time>2014-11-22T15:13:01Z</time>
      </trkpt>
      <trkpt lat="45.75602" lon="5.82008">
        <ele>686.246</ele>
        <time>2014-11-22T15:13:06Z</time>
      </trkpt>
      <trkpt lat="45.75607" lon="5.8201">
        <ele>683.63947</ele>
        <time>2014-11-22T15:13:11Z</time>
      </trkpt>
      <trkpt lat="45.7561" lon="5.82011">
        <ele>683.63947</ele>
        <time>2014-11-22T15:13:15Z</time>
      </trkpt>
      <trkpt lat="45.75614" lon="5.82015">
        <ele>683.63947</ele>
        <time>2014-11-22T15:13:21Z</time>
      </trkpt>
      <trkpt lat="45.75617" lon="5.82016">
        <ele>681.4848</ele>
        <time>2014-11-22T15:13:25Z</time>
      </trkpt>
      <trkpt lat="45.7562" lon="5.8202">
        <ele>681.4848</ele>
        <time>2014-11-22T15:13:30Z</time>
      </trkpt>
      <trkpt lat="45.75627" lon="5.82016">
        <ele>678.87396</ele>
        <time>2014-11-22T15:13:37Z</time>
      </trkpt>
      <trkpt lat="45.7563" lon="5.82015">
        <ele>678.87396</ele>
        <time>2014-11-22T15:13:41Z</time>
      </trkpt>
      <trkpt lat="45.75637" lon="5.82015">
        <ele>676.6386</ele>
        <time>2014-11-22T15:13:47Z</time>
      </trkpt>
      <trkpt lat="45.7564" lon="5.82016">
        <ele>676.6386</ele>
        <time>2014-11-22T15:13:51Z</time>
      </trkpt>
      <trkpt lat="45.75646" lon="5.82017">
        <ele>676.6386</ele>
        <time>2014-11-22T15:13:56Z</time>
      </trkpt>
      <trkpt lat="45.7565" lon="5.82016">
        <ele>673.67444</ele>
        <time>2014-11-22T15:14:02Z</time>
      </trkpt>
      <trkpt lat="45.75653" lon="5.82015">
        <ele>673.67444</ele>
        <time>2014-11-22T15:14:07Z</time>
      </trkpt>
      <trkpt lat="45.75656" lon="5.82016">
        <ele>673.67444</ele>
        <time>2014-11-22T15:14:11Z</time>
      </trkpt>
      <trkpt lat="45.75656" lon="5.82018">
        <ele>673.67444</ele>
        <time>2014-11-22T15:14:16Z</time>
      </trkpt>
      <trkpt lat="45.75657" lon="5.82019">
        <ele>673.67444</ele>
        <time>2014-11-22T15:14:21Z</time>
      </trkpt>
      <trkpt lat="45.75657" lon="5.8202">
        <ele>671.02106</ele>
        <time>2014-11-22T15:14:26Z</time>
      </trkpt>
      <trkpt lat="45.75657" lon="5.8202">
        <ele>671.02106</ele>
        <time>2014-11-22T15:14:31Z</time>
      </trkpt>
      <trkpt lat="45.75657" lon="5.8202">
        <ele>671.02106</ele>
        <time>2014-11-22T15:14:36Z</time>
      </trkpt>
      <trkpt lat="45.75657" lon="5.8202">
        <ele>671.02106</ele>
        <time>2014-11-22T15:14:42Z</time>
      </trkpt>
      <trkpt lat="45.75657" lon="5.82019">
        <ele>671.02106</ele>
        <time>2014-11-22T15:14:46Z</time>
      </trkpt>
      <trkpt lat="45.75659" lon="5.82019">
        <ele>671.02106</ele>
        <time>2014-11-22T15:14:51Z</time>
      </trkpt>
      <trkpt lat="45.75665" lon="5.82015">
        <ele>667.7097</ele>
        <time>2014-11-22T15:14:56Z</time>
      </trkpt>
      <trkpt lat="45.75668" lon="5.82016">
        <ele>667.7097</ele>
        <time>2014-11-22T15:15:01Z</time>
      </trkpt>
      <trkpt lat="45.75673" lon="5.82015">
        <ele>667.7097</ele>
        <time>2014-11-22T15:15:06Z</time>
      </trkpt>
      <trkpt lat="45.75678" lon="5.82014">
        <ele>664.5015</ele>
        <time>2014-11-22T15:15:10Z</time>
      </trkpt>
      <trkpt lat="45.75683" lon="5.82013">
        <ele>664.5015</ele>
        <time>2014-11-22T15:15:15Z</time>
      </trkpt>
      <trkpt lat="45.75688" lon="5.82011">
        <ele>661.3664</ele>
        <time>2014-11-22T15:15:20Z</time>
      </trkpt>
      <trkpt lat="45.75691" lon="5.82004">
        <ele>661.3664</ele>
        <time>2014-11-22T15:15:25Z</time>
      </trkpt>
      <trkpt lat="45.75693" lon="5.81997">
        <ele>657.7573</ele>
        <time>2014-11-22T15:15:30Z</time>
      </trkpt>
      <trkpt lat="45.75697" lon="5.8199">
        <ele>657.7573</ele>
        <time>2014-11-22T15:15:35Z</time>
      </trkpt>
      <trkpt lat="45.75699" lon="5.81981">
        <ele>654.24945</ele>
        <time>2014-11-22T15:15:40Z</time>
      </trkpt>
      <trkpt lat="45.757" lon="5.81974">
        <ele>654.24945</ele>
        <time>2014-11-22T15:15:45Z</time>
      </trkpt>
      <trkpt lat="45.757" lon="5.81966">
        <ele>650.8274</ele>
        <time>2014-11-22T15:15:50Z</time>
      </trkpt>
      <trkpt lat="45.75695" lon="5.81962">
        <ele>650.8274</ele>
        <time>2014-11-22T15:15:55Z</time>
      </trkpt>
      <trkpt lat="45.75692" lon="5.81957">
        <ele>647.57764</ele>
        <time>2014-11-22T15:16:00Z</time>
      </trkpt>
      <trkpt lat="45.75692" lon="5.81957">
        <ele>647.57764</ele>
        <time>2014-11-22T15:16:05Z</time>
      </trkpt>
      <trkpt lat="45.75691" lon="5.81957">
        <ele>647.57764</ele>
        <time>2014-11-22T15:16:10Z</time>
      </trkpt>
      <trkpt lat="45.75691" lon="5.81958">
        <ele>647.57764</ele>
        <time>2014-11-22T15:16:15Z</time>
      </trkpt>
      <trkpt lat="45.75692" lon="5.81957">
        <ele>647.57764</ele>
        <time>2014-11-22T15:16:20Z</time>
      </trkpt>
      <trkpt lat="45.75693" lon="5.81952">
        <ele>647.57764</ele>
        <time>2014-11-22T15:16:25Z</time>
      </trkpt>
      <trkpt lat="45.75694" lon="5.81944">
        <ele>644.3344</ele>
        <time>2014-11-22T15:16:30Z</time>
      </trkpt>
      <trkpt lat="45.75696" lon="5.81938">
        <ele>644.3344</ele>
        <time>2014-11-22T15:16:35Z</time>
      </trkpt>
      <trkpt lat="45.75699" lon="5.8193">
        <ele>641.2322</ele>
        <time>2014-11-22T15:16:40Z</time>
      </trkpt>
      <trkpt lat="45.75702" lon="5.81923">
        <ele>641.2322</ele>
        <time>2014-11-22T15:16:45Z</time>
      </trkpt>
      <trkpt lat="45.75707" lon="5.81917">
        <ele>638.1068</ele>
        <time>2014-11-22T15:16:50Z</time>
      </trkpt>
      <trkpt lat="45.75712" lon="5.81911">
        <ele>638.1068</ele>
        <time>2014-11-22T15:16:55Z</time>
      </trkpt>
      <trkpt lat="45.75718" lon="5.81906">
        <ele>635.2528</ele>
        <time>2014-11-22T15:17:00Z</time>
      </trkpt>
      <trkpt lat="45.75723" lon="5.81903">
        <ele>635.2528</ele>
        <time>2014-11-22T15:17:05Z</time>
      </trkpt>
      <trkpt lat="45.75729" lon="5.81898">
        <ele>632.59607</ele>
        <time>2014-11-22T15:17:10Z</time>
      </trkpt>
      <trkpt lat="45.75734" lon="5.81894">
        <ele>632.59607</ele>
        <time>2014-11-22T15:17:15Z</time>
      </trkpt>
      <trkpt lat="45.7574" lon="5.8189">
        <ele>630.1682</ele>
        <time>2014-11-22T15:17:20Z</time>
      </trkpt>
      <trkpt lat="45.75746" lon="5.81884">
        <ele>630.1682</ele>
        <time>2014-11-22T15:17:25Z</time>
      </trkpt>
      <trkpt lat="45.75751" lon="5.81881">
        <ele>628.19946</ele>
        <time>2014-11-22T15:17:30Z</time>
      </trkpt>
      <trkpt lat="45.75756" lon="5.81879">
        <ele>628.19946</ele>
        <time>2014-11-22T15:17:35Z</time>
      </trkpt>
      <trkpt lat="45.75763" lon="5.81878">
        <ele>626.3973</ele>
        <time>2014-11-22T15:17:40Z</time>
      </trkpt>
      <trkpt lat="45.75769" lon="5.81877">
        <ele>626.3973</ele>
        <time>2014-11-22T15:17:45Z</time>
      </trkpt>
      <trkpt lat="45.75773" lon="5.81878">
        <ele>625.09515</ele>
        <time>2014-11-22T15:17:50Z</time>
      </trkpt>
      <trkpt lat="45.75774" lon="5.81875">
        <ele>625.09515</ele>
        <time>2014-11-22T15:17:55Z</time>
      </trkpt>
      <trkpt lat="45.75774" lon="5.81868">
        <ele>625.09515</ele>
        <time>2014-11-22T15:18:00Z</time>
      </trkpt>
      <trkpt lat="45.75773" lon="5.81864">
        <ele>623.6639</ele>
        <time>2014-11-22T15:18:05Z</time>
      </trkpt>
      <trkpt lat="45.75773" lon="5.81856">
        <ele>623.6639</ele>
        <time>2014-11-22T15:18:10Z</time>
      </trkpt>
      <trkpt lat="45.75773" lon="5.8185">
        <ele>622.5727</ele>
        <time>2014-11-22T15:18:15Z</time>
      </trkpt>
      <trkpt lat="45.75772" lon="5.81844">
        <ele>622.5727</ele>
        <time>2014-11-22T15:18:20Z</time>
      </trkpt>
      <trkpt lat="45.75773" lon="5.81837">
        <ele>621.6212</ele>
        <time>2014-11-22T15:18:25Z</time>
      </trkpt>
      <trkpt lat="45.75776" lon="5.81825">
        <ele>621.6212</ele>
        <time>2014-11-22T15:18:30Z</time>
      </trkpt>
      <trkpt lat="45.75781" lon="5.8182">
        <ele>620.8826</ele>
        <time>2014-11-22T15:18:35Z</time>
      </trkpt>
      <trkpt lat="45.75786" lon="5.8182">
        <ele>620.8826</ele>
        <time>2014-11-22T15:18:40Z</time>
      </trkpt>
      <trkpt lat="45.75789" lon="5.81817">
        <ele>620.5394</ele>
        <time>2014-11-22T15:18:45Z</time>
      </trkpt>
      <trkpt lat="45.75793" lon="5.81815">
        <ele>620.5394</ele>
        <time>2014-11-22T15:18:50Z</time>
      </trkpt>
      <trkpt lat="45.75797" lon="5.81814">
        <ele>620.5394</ele>
        <time>2014-11-22T15:18:55Z</time>
      </trkpt>
      <trkpt lat="45.75803" lon="5.81809">
        <ele>620.12537</ele>
        <time>2014-11-22T15:19:00Z</time>
      </trkpt>
      <trkpt lat="45.7581" lon="5.81805">
        <ele>620.12537</ele>
        <time>2014-11-22T15:19:05Z</time>
      </trkpt>
      <trkpt lat="45.75814" lon="5.81803">
        <ele>619.0933</ele>
        <time>2014-11-22T15:19:10Z</time>
      </trkpt>
      <trkpt lat="45.75818" lon="5.81803">
        <ele>619.0933</ele>
        <time>2014-11-22T15:19:15Z</time>
      </trkpt>
      <trkpt lat="45.75824" lon="5.81803">
        <ele>618.0334</ele>
        <time>2014-11-22T15:19:20Z</time>
      </trkpt>
      <trkpt lat="45.75829" lon="5.81804">
        <ele>618.0334</ele>
        <time>2014-11-22T15:19:25Z</time>
      </trkpt>
      <trkpt lat="45.75835" lon="5.81804">
        <ele>616.2096</ele>
        <time>2014-11-22T15:19:30Z</time>
      </trkpt>
      <trkpt lat="45.75839" lon="5.81804">
        <ele>616.2096</ele>
        <time>2014-11-22T15:19:35Z</time>
      </trkpt>
      <trkpt lat="45.75846" lon="5.81806">
        <ele>615.20483</ele>
        <time>2014-11-22T15:19:40Z</time>
      </trkpt>
      <trkpt lat="45.75853" lon="5.81807">
        <ele>615.20483</ele>
        <time>2014-11-22T15:19:45Z</time>
      </trkpt>
      <trkpt lat="45.75859" lon="5.81807">
        <ele>614.52356</ele>
        <time>2014-11-22T15:19:50Z</time>
      </trkpt>
      <trkpt lat="45.75862" lon="5.81807">
        <ele>614.52356</ele>
        <time>2014-11-22T15:19:55Z</time>
      </trkpt>
      <trkpt lat="45.75862" lon="5.81808">
        <ele>614.52356</ele>
        <time>2014-11-22T15:20:00Z</time>
      </trkpt>
      <trkpt lat="45.75864" lon="5.81809">
        <ele>614.52356</ele>
        <time>2014-11-22T15:20:05Z</time>
      </trkpt>
      <trkpt lat="45.7587" lon="5.81803">
        <ele>613.17236</ele>
        <time>2014-11-22T15:20:10Z</time>
      </trkpt>
      <trkpt lat="45.75875" lon="5.81802">
        <ele>613.17236</ele>
        <time>2014-11-22T15:20:15Z</time>
      </trkpt>
      <trkpt lat="45.75882" lon="5.81798">
        <ele>611.4866</ele>
        <time>2014-11-22T15:20:20Z</time>
      </trkpt>
      <trkpt lat="45.75887" lon="5.81798">
        <ele>611.4866</ele>
        <time>2014-11-22T15:20:25Z</time>
      </trkpt>
      <trkpt lat="45.75894" lon="5.81799">
        <ele>609.8931</ele>
        <time>2014-11-22T15:20:30Z</time>
      </trkpt>
      <trkpt lat="45.75901" lon="5.81799">
        <ele>609.8931</ele>
        <time>2014-11-22T15:20:35Z</time>
      </trkpt>
      <trkpt lat="45.75907" lon="5.81799">
        <ele>608.60004</ele>
        <time>2014-11-22T15:20:40Z</time>
      </trkpt>
      <trkpt lat="45.75913" lon="5.81798">
        <ele>608.60004</ele>
        <time>2014-11-22T15:20:45Z</time>
      </trkpt>
      <trkpt lat="45.75918" lon="5.81797">
        <ele>608.0152</ele>
        <time>2014-11-22T15:20:50Z</time>
      </trkpt>
      <trkpt lat="45.75927" lon="5.81796">
        <ele>607.6647</ele>
        <time>2014-11-22T15:20:55Z</time>
      </trkpt>
      <trkpt lat="45.75933" lon="5.81796">
        <ele>607.6647</ele>
        <time>2014-11-22T15:21:00Z</time>
      </trkpt>
      <trkpt lat="45.75941" lon="5.81794">
        <ele>607.1516</ele>
        <time>2014-11-22T15:21:05Z</time>
      </trkpt>
      <trkpt lat="45.75948" lon="5.81795">
        <ele>607.1516</ele>
        <time>2014-11-22T15:21:10Z</time>
      </trkpt>
      <trkpt lat="45.75952" lon="5.81797">
        <ele>606.1523</ele>
        <time>2014-11-22T15:21:15Z</time>
      </trkpt>
      <trkpt lat="45.75955" lon="5.81797">
        <ele>606.1523</ele>
        <time>2014-11-22T15:21:20Z</time>
      </trkpt>
      <trkpt lat="45.75964" lon="5.81797">
        <ele>604.48334</ele>
        <time>2014-11-22T15:21:25Z</time>
      </trkpt>
      <trkpt lat="45.75968" lon="5.81802">
        <ele>604.48334</ele>
        <time>2014-11-22T15:21:30Z</time>
      </trkpt>
      <trkpt lat="45.75973" lon="5.81802">
        <ele>602.49567</ele>
        <time>2014-11-22T15:21:35Z</time>
      </trkpt>
      <trkpt lat="45.75979" lon="5.81804">
        <ele>602.49567</ele>
        <time>2014-11-22T15:21:40Z</time>
      </trkpt>
      <trkpt lat="45.75985" lon="5.81803">
        <ele>600.5442</ele>
        <time>2014-11-22T15:21:45Z</time>
      </trkpt>
      <trkpt lat="45.7599" lon="5.81802">
        <ele>600.5442</ele>
        <time>2014-11-22T15:21:50Z</time>
      </trkpt>
      <trkpt lat="45.75996" lon="5.81801">
        <ele>599.07294</ele>
        <time>2014-11-22T15:21:55Z</time>
      </trkpt>
      <trkpt lat="45.75999" lon="5.81803">
        <ele>599.07294</ele>
        <time>2014-11-22T15:22:01Z</time>
      </trkpt>
      <trkpt lat="45.76003" lon="5.81811">
        <ele>597.7139</ele>
        <time>2014-11-22T15:22:05Z</time>
      </trkpt>
      <trkpt lat="45.76004" lon="5.81817">
        <ele>597.7139</ele>
        <time>2014-11-22T15:22:12Z</time>
      </trkpt>
      <trkpt lat="45.76004" lon="5.81817">
        <ele>597.7139</ele>
        <time>2014-11-22T15:22:16Z</time>
      </trkpt>
      <trkpt lat="45.76008" lon="5.81817">
        <ele>597.7139</ele>
        <time>2014-11-22T15:22:21Z</time>
      </trkpt>
      <trkpt lat="45.76013" lon="5.81819">
        <ele>595.5782</ele>
        <time>2014-11-22T15:22:26Z</time>
      </trkpt>
      <trkpt lat="45.76016" lon="5.81822">
        <ele>595.5782</ele>
        <time>2014-11-22T15:22:30Z</time>
      </trkpt>
      <trkpt lat="45.76021" lon="5.81824">
        <ele>595.5782</ele>
        <time>2014-11-22T15:22:36Z</time>
      </trkpt>
      <trkpt lat="45.76021" lon="5.81825">
        <ele>593.21344</ele>
        <time>2014-11-22T15:22:41Z</time>
      </trkpt>
      <trkpt lat="45.76023" lon="5.81828">
        <ele>593.21344</ele>
        <time>2014-11-22T15:22:46Z</time>
      </trkpt>
      <trkpt lat="45.76024" lon="5.81833">
        <ele>593.21344</ele>
        <time>2014-11-22T15:22:50Z</time>
      </trkpt>
      <trkpt lat="45.76023" lon="5.81835">
        <ele>593.21344</ele>
        <time>2014-11-22T15:22:55Z</time>
      </trkpt>
      <trkpt lat="45.76023" lon="5.81837">
        <ele>591.0558</ele>
        <time>2014-11-22T15:23:00Z</time>
      </trkpt>
      <trkpt lat="45.76022" lon="5.81839">
        <ele>591.0558</ele>
        <time>2014-11-22T15:23:05Z</time>
      </trkpt>
      <trkpt lat="45.76023" lon="5.8184">
        <ele>591.0558</ele>
        <time>2014-11-22T15:23:10Z</time>
      </trkpt>
      <trkpt lat="45.76023" lon="5.81842">
        <ele>591.0558</ele>
        <time>2014-11-22T15:23:15Z</time>
      </trkpt>
      <trkpt lat="45.76024" lon="5.81843">
        <ele>591.0558</ele>
        <time>2014-11-22T15:23:20Z</time>
      </trkpt>
      <trkpt lat="45.76023" lon="5.81844">
        <ele>591.0558</ele>
        <time>2014-11-22T15:23:25Z</time>
      </trkpt>
      <trkpt lat="45.76022" lon="5.81845">
        <ele>591.0558</ele>
        <time>2014-11-22T15:23:30Z</time>
      </trkpt>
      <trkpt lat="45.76023" lon="5.8185">
        <ele>588.6153</ele>
        <time>2014-11-22T15:23:35Z</time>
      </trkpt>
      <trkpt lat="45.76024" lon="5.81856">
        <ele>588.6153</ele>
        <time>2014-11-22T15:23:40Z</time>
      </trkpt>
      <trkpt lat="45.76022" lon="5.81863">
        <ele>586.53394</ele>
        <time>2014-11-22T15:23:45Z</time>
      </trkpt>
      <trkpt lat="45.76021" lon="5.81868">
        <ele>586.53394</ele>
        <time>2014-11-22T15:23:50Z</time>
      </trkpt>
      <trkpt lat="45.76019" lon="5.81871">
        <ele>586.53394</ele>
        <time>2014-11-22T15:23:55Z</time>
      </trkpt>
      <trkpt lat="45.76017" lon="5.81876">
        <ele>584.714</ele>
        <time>2014-11-22T15:24:00Z</time>
      </trkpt>
      <trkpt lat="45.76014" lon="5.8188">
        <ele>584.714</ele>
        <time>2014-11-22T15:24:05Z</time>
      </trkpt>
      <trkpt lat="45.76009" lon="5.81884">
        <ele>582.57416</ele>
        <time>2014-11-22T15:24:10Z</time>
      </trkpt>
      <trkpt lat="45.76005" lon="5.81889">
        <ele>582.57416</ele>
        <time>2014-11-22T15:24:15Z</time>
      </trkpt>
      <trkpt lat="45.76" lon="5.81895">
        <ele>580.1965</ele>
        <time>2014-11-22T15:24:20Z</time>
      </trkpt>
      <trkpt lat="45.75996" lon="5.81901">
        <ele>580.1965</ele>
        <time>2014-11-22T15:24:25Z</time>
      </trkpt>
      <trkpt lat="45.75993" lon="5.81903">
        <ele>578.3205</ele>
        <time>2014-11-22T15:24:30Z</time>
      </trkpt>
      <trkpt lat="45.75984" lon="5.8191">
        <ele>577.22656</ele>
        <time>2014-11-22T15:24:35Z</time>
      </trkpt>
      <trkpt lat="45.75979" lon="5.81913">
        <ele>577.22656</ele>
        <time>2014-11-22T15:24:40Z</time>
      </trkpt>
      <trkpt lat="45.75978" lon="5.8192">
        <ele>575.5726</ele>
        <time>2014-11-22T15:24:45Z</time>
      </trkpt>
      <trkpt lat="45.75972" lon="5.81926">
        <ele>575.5726</ele>
        <time>2014-11-22T15:24:50Z</time>
      </trkpt>
      <trkpt lat="45.75968" lon="5.81933">
        <ele>573.9757</ele>
        <time>2014-11-22T15:24:56Z</time>
      </trkpt>
      <trkpt lat="45.75963" lon="5.81937">
        <ele>573.9757</ele>
        <time>2014-11-22T15:25:00Z</time>
      </trkpt>
      <trkpt lat="45.75962" lon="5.81944">
        <ele>572.4456</ele>
        <time>2014-11-22T15:25:05Z</time>
      </trkpt>
      <trkpt lat="45.75968" lon="5.81949">
        <ele>572.4456</ele>
        <time>2014-11-22T15:25:10Z</time>
      </trkpt>
      <trkpt lat="45.75972" lon="5.81948">
        <ele>571.07745</ele>
        <time>2014-11-22T15:25:15Z</time>
      </trkpt>
      <trkpt lat="45.75977" lon="5.81946">
        <ele>571.07745</ele>
        <time>2014-11-22T15:25:20Z</time>
      </trkpt>
      <trkpt lat="45.75982" lon="5.81943">
        <ele>569.33936</ele>
        <time>2014-11-22T15:25:25Z</time>
      </trkpt>
      <trkpt lat="45.75986" lon="5.81945">
        <ele>569.33936</ele>
        <time>2014-11-22T15:25:30Z</time>
      </trkpt>
      <trkpt lat="45.75993" lon="5.81944">
        <ele>567.87805</ele>
        <time>2014-11-22T15:25:35Z</time>
      </trkpt>
      <trkpt lat="45.75999" lon="5.81943">
        <ele>567.87805</ele>
        <time>2014-11-22T15:25:40Z</time>
      </trkpt>
      <trkpt lat="45.76007" lon="5.81943">
        <ele>565.9373</ele>
        <time>2014-11-22T15:25:45Z</time>
      </trkpt>
      <trkpt lat="45.76014" lon="5.81947">
        <ele>565.9373</ele>
        <time>2014-11-22T15:25:50Z</time>
      </trkpt>
      <trkpt lat="45.7602" lon="5.81948">
        <ele>564.21576</ele>
        <time>2014-11-22T15:25:55Z</time>
      </trkpt>
      <trkpt lat="45.76027" lon="5.81948">
        <ele>564.21576</ele>
        <time>2014-11-22T15:26:00Z</time>
      </trkpt>
      <trkpt lat="45.76032" lon="5.81951">
        <ele>562.26483</ele>
        <time>2014-11-22T15:26:05Z</time>
      </trkpt>
      <trkpt lat="45.76039" lon="5.81953">
        <ele>562.26483</ele>
        <time>2014-11-22T15:26:10Z</time>
      </trkpt>
      <trkpt lat="45.76042" lon="5.81959">
        <ele>560.44775</ele>
        <time>2014-11-22T15:26:15Z</time>
      </trkpt>
      <trkpt lat="45.76041" lon="5.81962">
        <ele>560.44775</ele>
        <time>2014-11-22T15:26:20Z</time>
      </trkpt>
      <trkpt lat="45.76037" lon="5.81968">
        <ele>560.44775</ele>
        <time>2014-11-22T15:26:25Z</time>
      </trkpt>
      <trkpt lat="45.76033" lon="5.81974">
        <ele>558.4811</ele>
        <time>2014-11-22T15:26:30Z</time>
      </trkpt>
      <trkpt lat="45.76028" lon="5.8198">
        <ele>558.4811</ele>
        <time>2014-11-22T15:26:35Z</time>
      </trkpt>
      <trkpt lat="45.76023" lon="5.81984">
        <ele>556.6357</ele>
        <time>2014-11-22T15:26:40Z</time>
      </trkpt>
      <trkpt lat="45.76021" lon="5.81993">
        <ele>556.6357</ele>
        <time>2014-11-22T15:26:45Z</time>
      </trkpt>
      <trkpt lat="45.76016" lon="5.81997">
        <ele>555.3354</ele>
        <time>2014-11-22T15:26:50Z</time>
      </trkpt>
      <trkpt lat="45.76011" lon="5.82002">
        <ele>555.3354</ele>
        <time>2014-11-22T15:26:55Z</time>
      </trkpt>
      <trkpt lat="45.76009" lon="5.82008">
        <ele>554.1065</ele>
        <time>2014-11-22T15:27:00Z</time>
      </trkpt>
      <trkpt lat="45.76009" lon="5.82011">
        <ele>554.1065</ele>
        <time>2014-11-22T15:27:05Z</time>
      </trkpt>
      <trkpt lat="45.76011" lon="5.82018">
        <ele>554.1065</ele>
        <time>2014-11-22T15:27:10Z</time>
      </trkpt>
      <trkpt lat="45.76014" lon="5.82022">
        <ele>552.48114</ele>
        <time>2014-11-22T15:27:15Z</time>
      </trkpt>
      <trkpt lat="45.76014" lon="5.82026">
        <ele>552.48114</ele>
        <time>2014-11-22T15:27:20Z</time>
      </trkpt>
      <trkpt lat="45.76013" lon="5.82025">
        <ele>552.48114</ele>
        <time>2014-11-22T15:27:25Z</time>
      </trkpt>
      <trkpt lat="45.76014" lon="5.82025">
        <ele>552.48114</ele>
        <time>2014-11-22T15:27:30Z</time>
      </trkpt>
      <trkpt lat="45.76016" lon="5.82027">
        <ele>552.48114</ele>
        <time>2014-11-22T15:27:37Z</time>
      </trkpt>
      <trkpt lat="45.76016" lon="5.82028">
        <ele>552.48114</ele>
        <time>2014-11-22T15:27:40Z</time>
      </trkpt>
      <trkpt lat="45.76014" lon="5.82029">
        <ele>550.9782</ele>
        <time>2014-11-22T15:27:47Z</time>
      </trkpt>
      <trkpt lat="45.76011" lon="5.82028">
        <ele>550.9782</ele>
        <time>2014-11-22T15:27:51Z</time>
      </trkpt>
      <trkpt lat="45.76011" lon="5.82029">
        <ele>550.9782</ele>
        <time>2014-11-22T15:27:56Z</time>
      </trkpt>
      <trkpt lat="45.76011" lon="5.82029">
        <ele>550.9782</ele>
        <time>2014-11-22T15:28:01Z</time>
      </trkpt>
      <trkpt lat="45.76011" lon="5.82029">
        <ele>550.9782</ele>
        <time>2014-11-22T15:28:05Z</time>
      </trkpt>
      <trkpt lat="45.76012" lon="5.82029">
        <ele>550.9782</ele>
        <time>2014-11-22T15:28:10Z</time>
      </trkpt>
      <trkpt lat="45.76016" lon="5.82026">
        <ele>549.5591</ele>
        <time>2014-11-22T15:28:16Z</time>
      </trkpt>
      <trkpt lat="45.76018" lon="5.82028">
        <ele>549.5591</ele>
        <time>2014-11-22T15:28:21Z</time>
      </trkpt>
      <trkpt lat="45.76019" lon="5.82027">
        <ele>549.5591</ele>
        <time>2014-11-22T15:28:26Z</time>
      </trkpt>
      <trkpt lat="45.7602" lon="5.82028">
        <ele>549.5591</ele>
        <time>2014-11-22T15:28:31Z</time>
      </trkpt>
      <trkpt lat="45.76022" lon="5.82026">
        <ele>549.5591</ele>
        <time>2014-11-22T15:28:36Z</time>
      </trkpt>
      <trkpt lat="45.76029" lon="5.82022">
        <ele>548.53394</ele>
        <time>2014-11-22T15:28:40Z</time>
      </trkpt>
      <trkpt lat="45.76035" lon="5.82022">
        <ele>548.53394</ele>
        <time>2014-11-22T15:28:45Z</time>
      </trkpt>
      <trkpt lat="45.76038" lon="5.82023">
        <ele>547.425</ele>
        <time>2014-11-22T15:28:50Z</time>
      </trkpt>
      <trkpt lat="45.76042" lon="5.82021">
        <ele>547.425</ele>
        <time>2014-11-22T15:28:55Z</time>
      </trkpt>
      <trkpt lat="45.76049" lon="5.82018">
        <ele>545.3001</ele>
        <time>2014-11-22T15:29:00Z</time>
      </trkpt>
      <trkpt lat="45.76056" lon="5.82014">
        <ele>545.3001</ele>
        <time>2014-11-22T15:29:05Z</time>
      </trkpt>
      <trkpt lat="45.76064" lon="5.82012">
        <ele>543.15735</ele>
        <time>2014-11-22T15:29:10Z</time>
      </trkpt>
      <trkpt lat="45.7607" lon="5.8201">
        <ele>543.15735</ele>
        <time>2014-11-22T15:29:15Z</time>
      </trkpt>
      <trkpt lat="45.76079" lon="5.8201">
        <ele>541.3306</ele>
        <time>2014-11-22T15:29:20Z</time>
      </trkpt>
      <trkpt lat="45.76085" lon="5.8201">
        <ele>541.3306</ele>
        <time>2014-11-22T15:29:25Z</time>
      </trkpt>
      <trkpt lat="45.76091" lon="5.82009">
        <ele>539.3649</ele>
        <time>2014-11-22T15:29:30Z</time>
      </trkpt>
      <trkpt lat="45.76097" lon="5.82011">
        <ele>539.3649</ele>
        <time>2014-11-22T15:29:35Z</time>
      </trkpt>
      <trkpt lat="45.76099" lon="5.82012">
        <ele>539.3649</ele>
        <time>2014-11-22T15:29:40Z</time>
      </trkpt>
      <trkpt lat="45.76102" lon="5.82014">
        <ele>537.1126</ele>
        <time>2014-11-22T15:29:45Z</time>
      </trkpt>
      <trkpt lat="45.76105" lon="5.82014">
        <ele>537.1126</ele>
        <time>2014-11-22T15:29:50Z</time>
      </trkpt>
      <trkpt lat="45.76109" lon="5.82017">
        <ele>537.1126</ele>
        <time>2014-11-22T15:29:55Z</time>
      </trkpt>
      <trkpt lat="45.76113" lon="5.82019">
        <ele>534.84125</ele>
        <time>2014-11-22T15:30:00Z</time>
      </trkpt>
      <trkpt lat="45.76117" lon="5.82021">
        <ele>534.84125</ele>
        <time>2014-11-22T15:30:05Z</time>
      </trkpt>
      <trkpt lat="45.76119" lon="5.82025">
        <ele>534.84125</ele>
        <time>2014-11-22T15:30:10Z</time>
      </trkpt>
      <trkpt lat="45.7612" lon="5.82025">
        <ele>534.84125</ele>
        <time>2014-11-22T15:30:15Z</time>
      </trkpt>
      <trkpt lat="45.76122" lon="5.82028">
        <ele>532.7846</ele>
        <time>2014-11-22T15:30:20Z</time>
      </trkpt>
      <trkpt lat="45.76122" lon="5.82029">
        <ele>532.7846</ele>
        <time>2014-11-22T15:30:25Z</time>
      </trkpt>
      <trkpt lat="45.76122" lon="5.82028">
        <ele>532.7846</ele>
        <time>2014-11-22T15:30:30Z</time>
      </trkpt>
      <trkpt lat="45.76126" lon="5.8203">
        <ele>532.7846</ele>
        <time>2014-11-22T15:30:35Z</time>
      </trkpt>
      <trkpt lat="45.76127" lon="5.82032">
        <ele>532.7846</ele>
        <time>2014-11-22T15:30:40Z</time>
      </trkpt>
      <trkpt lat="45.76131" lon="5.82036">
        <ele>529.9334</ele>
        <time>2014-11-22T15:30:45Z</time>
      </trkpt>
      <trkpt lat="45.76136" lon="5.82038">
        <ele>529.9334</ele>
        <time>2014-11-22T15:30:50Z</time>
      </trkpt>
      <trkpt lat="45.76138" lon="5.8204">
        <ele>529.9334</ele>
        <time>2014-11-22T15:30:55Z</time>
      </trkpt>
      <trkpt lat="45.76145" lon="5.82045">
        <ele>526.98346</ele>
        <time>2014-11-22T15:31:00Z</time>
      </trkpt>
      <trkpt lat="45.76152" lon="5.82049">
        <ele>526.98346</ele>
        <time>2014-11-22T15:31:05Z</time>
      </trkpt>
      <trkpt lat="45.76158" lon="5.82051">
        <ele>524.34906</ele>
        <time>2014-11-22T15:31:10Z</time>
      </trkpt>
      <trkpt lat="45.76156" lon="5.82052">
        <ele>524.34906</ele>
        <time>2014-11-22T15:31:15Z</time>
      </trkpt>
      <trkpt lat="45.76161" lon="5.82057">
        <ele>524.34906</ele>
        <time>2014-11-22T15:31:21Z</time>
      </trkpt>
      <trkpt lat="45.76163" lon="5.82057">
        <ele>521.5916</ele>
        <time>2014-11-22T15:31:27Z</time>
      </trkpt>
      <trkpt lat="45.76167" lon="5.8206">
        <ele>521.5916</ele>
        <time>2014-11-22T15:31:31Z</time>
      </trkpt>
      <trkpt lat="45.76172" lon="5.82062">
        <ele>519.1267</ele>
        <time>2014-11-22T15:31:36Z</time>
      </trkpt>
      <trkpt lat="45.76175" lon="5.82064">
        <ele>519.1267</ele>
        <time>2014-11-22T15:31:42Z</time>
      </trkpt>
      <trkpt lat="45.76178" lon="5.82063">
        <ele>519.1267</ele>
        <time>2014-11-22T15:31:46Z</time>
      </trkpt>
      <trkpt lat="45.76182" lon="5.82067">
        <ele>516.2719</ele>
        <time>2014-11-22T15:31:50Z</time>
      </trkpt>
      <trkpt lat="45.76186" lon="5.82069">
        <ele>516.2719</ele>
        <time>2014-11-22T15:31:55Z</time>
      </trkpt>
      <trkpt lat="45.76191" lon="5.82073">
        <ele>513.5491</ele>
        <time>2014-11-22T15:32:00Z</time>
      </trkpt>
      <trkpt lat="45.76195" lon="5.82077">
        <ele>513.5491</ele>
        <time>2014-11-22T15:32:05Z</time>
      </trkpt>
      <trkpt lat="45.76193" lon="5.82076">
        <ele>513.5491</ele>
        <time>2014-11-22T15:32:10Z</time>
      </trkpt>
      <trkpt lat="45.76194" lon="5.82077">
        <ele>513.5491</ele>
        <time>2014-11-22T15:32:15Z</time>
      </trkpt>
      <trkpt lat="45.76194" lon="5.82077">
        <ele>513.5491</ele>
        <time>2014-11-22T15:32:20Z</time>
      </trkpt>
      <trkpt lat="45.76199" lon="5.82078">
        <ele>510.27374</ele>
        <time>2014-11-22T15:32:25Z</time>
      </trkpt>
      <trkpt lat="45.76205" lon="5.82079">
        <ele>510.27374</ele>
        <time>2014-11-22T15:32:30Z</time>
      </trkpt>
      <trkpt lat="45.7621" lon="5.82081">
        <ele>507.70135</ele>
        <time>2014-11-22T15:32:35Z</time>
      </trkpt>
      <trkpt lat="45.76217" lon="5.82082">
        <ele>507.70135</ele>
        <time>2014-11-22T15:32:40Z</time>
      </trkpt>
      <trkpt lat="45.76222" lon="5.82083">
        <ele>505.10504</ele>
        <time>2014-11-22T15:32:45Z</time>
      </trkpt>
      <trkpt lat="45.76227" lon="5.82087">
        <ele>505.10504</ele>
        <time>2014-11-22T15:32:50Z</time>
      </trkpt>
      <trkpt lat="45.76229" lon="5.82087">
        <ele>505.10504</ele>
        <time>2014-11-22T15:32:55Z</time>
      </trkpt>
      <trkpt lat="45.76235" lon="5.8209">
        <ele>502.33026</ele>
        <time>2014-11-22T15:33:00Z</time>
      </trkpt>
      <trkpt lat="45.7624" lon="5.82093">
        <ele>502.33026</ele>
        <time>2014-11-22T15:33:05Z</time>
      </trkpt>
      <trkpt lat="45.76245" lon="5.82094">
        <ele>499.27744</ele>
        <time>2014-11-22T15:33:10Z</time>
      </trkpt>
      <trkpt lat="45.76251" lon="5.82097">
        <ele>499.27744</ele>
        <time>2014-11-22T15:33:15Z</time>
      </trkpt>
      <trkpt lat="45.76253" lon="5.821">
        <ele>496.05676</ele>
        <time>2014-11-22T15:33:20Z</time>
      </trkpt>
      <trkpt lat="45.76256" lon="5.82101">
        <ele>496.05676</ele>
        <time>2014-11-22T15:33:25Z</time>
      </trkpt>
      <trkpt lat="45.76264" lon="5.82106">
        <ele>493.23196</ele>
        <time>2014-11-22T15:33:30Z</time>
      </trkpt>
      <trkpt lat="45.76269" lon="5.82109">
        <ele>493.23196</ele>
        <time>2014-11-22T15:33:35Z</time>
      </trkpt>
      <trkpt lat="45.76276" lon="5.82105">
        <ele>490.61792</ele>
        <time>2014-11-22T15:33:40Z</time>
      </trkpt>
      <trkpt lat="45.76281" lon="5.82106">
        <ele>490.61792</ele>
        <time>2014-11-22T15:33:45Z</time>
      </trkpt>
      <trkpt lat="45.76288" lon="5.82107">
        <ele>488.21545</ele>
        <time>2014-11-22T15:33:50Z</time>
      </trkpt>
      <trkpt lat="45.76292" lon="5.82109">
        <ele>488.21545</ele>
        <time>2014-11-22T15:33:57Z</time>
      </trkpt>
      <trkpt lat="45.76301" lon="5.82109">
        <ele>485.63553</ele>
        <time>2014-11-22T15:34:01Z</time>
      </trkpt>
      <trkpt lat="45.76304" lon="5.82113">
        <ele>485.63553</ele>
        <time>2014-11-22T15:34:06Z</time>
      </trkpt>
      <trkpt lat="45.76311" lon="5.82115">
        <ele>483.19543</ele>
        <time>2014-11-22T15:34:11Z</time>
      </trkpt>
      <trkpt lat="45.76313" lon="5.82116">
        <ele>483.19543</ele>
        <time>2014-11-22T15:34:16Z</time>
      </trkpt>
      <trkpt lat="45.76318" lon="5.82118">
        <ele>483.19543</ele>
        <time>2014-11-22T15:34:21Z</time>
      </trkpt>
      <trkpt lat="45.76322" lon="5.82116">
        <ele>480.22314</ele>
        <time>2014-11-22T15:34:25Z</time>
      </trkpt>
      <trkpt lat="45.76325" lon="5.82118">
        <ele>480.22314</ele>
        <time>2014-11-22T15:34:31Z</time>
      </trkpt>
      <trkpt lat="45.76331" lon="5.82122">
        <ele>477.49527</ele>
        <time>2014-11-22T15:34:36Z</time>
      </trkpt>
      <trkpt lat="45.76337" lon="5.82121">
        <ele>477.49527</ele>
        <time>2014-11-22T15:34:41Z</time>
      </trkpt>
      <trkpt lat="45.76344" lon="5.82126">
        <ele>475.50006</ele>
        <time>2014-11-22T15:34:47Z</time>
      </trkpt>
      <trkpt lat="45.76349" lon="5.82127">
        <ele>475.50006</ele>
        <time>2014-11-22T15:34:51Z</time>
      </trkpt>
      <trkpt lat="45.76356" lon="5.82134">
        <ele>474.26987</ele>
        <time>2014-11-22T15:34:57Z</time>
      </trkpt>
      <trkpt lat="45.76362" lon="5.82134">
        <ele>474.26987</ele>
        <time>2014-11-22T15:35:01Z</time>
      </trkpt>
      <trkpt lat="45.76368" lon="5.82135">
        <ele>472.8092</ele>
        <time>2014-11-22T15:35:05Z</time>
      </trkpt>
      <trkpt lat="45.76371" lon="5.82137">
        <ele>472.8092</ele>
        <time>2014-11-22T15:35:10Z</time>
      </trkpt>
      <trkpt lat="45.76378" lon="5.82136">
        <ele>471.10428</ele>
        <time>2014-11-22T15:35:15Z</time>
      </trkpt>
      <trkpt lat="45.76384" lon="5.8214">
        <ele>471.10428</ele>
        <time>2014-11-22T15:35:20Z</time>
      </trkpt>
      <trkpt lat="45.76389" lon="5.82144">
        <ele>469.532</ele>
        <time>2014-11-22T15:35:25Z</time>
      </trkpt>
      <trkpt lat="45.76397" lon="5.82145">
        <ele>469.532</ele>
        <time>2014-11-22T15:35:30Z</time>
      </trkpt>
      <trkpt lat="45.76399" lon="5.82142">
        <ele>468.0809</ele>
        <time>2014-11-22T15:35:35Z</time>
      </trkpt>
      <trkpt lat="45.76402" lon="5.82142">
        <ele>468.0809</ele>
        <time>2014-11-22T15:35:40Z</time>
      </trkpt>
      <trkpt lat="45.76402" lon="5.82141">
        <ele>468.0809</ele>
        <time>2014-11-22T15:35:45Z</time>
      </trkpt>
      <trkpt lat="45.76402" lon="5.82141">
        <ele>468.0809</ele>
        <time>2014-11-22T15:35:50Z</time>
      </trkpt>
      <trkpt lat="45.76402" lon="5.82142">
        <ele>468.0809</ele>
        <time>2014-11-22T15:35:55Z</time>
      </trkpt>
      <trkpt lat="45.76401" lon="5.82142">
        <ele>468.0809</ele>
        <time>2014-11-22T15:36:00Z</time>
      </trkpt>
      <trkpt lat="45.764" lon="5.82141">
        <ele>468.0809</ele>
        <time>2014-11-22T15:36:05Z</time>
      </trkpt>
      <trkpt lat="45.76402" lon="5.82141">
        <ele>468.0809</ele>
        <time>2014-11-22T15:36:10Z</time>
      </trkpt>
      <trkpt lat="45.76403" lon="5.82139">
        <ele>468.0809</ele>
        <time>2014-11-22T15:36:15Z</time>
      </trkpt>
      <trkpt lat="45.76404" lon="5.82141">
        <ele>467.27322</ele>
        <time>2014-11-22T15:36:20Z</time>
      </trkpt>
      <trkpt lat="45.76405" lon="5.82142">
        <ele>467.27322</ele>
        <time>2014-11-22T15:36:25Z</time>
      </trkpt>
      <trkpt lat="45.76408" lon="5.82141">
        <ele>467.27322</ele>
        <time>2014-11-22T15:36:30Z</time>
      </trkpt>
      <trkpt lat="45.76414" lon="5.82141">
        <ele>465.83286</ele>
        <time>2014-11-22T15:36:35Z</time>
      </trkpt>
      <trkpt lat="45.7642" lon="5.82143">
        <ele>465.83286</ele>
        <time>2014-11-22T15:36:40Z</time>
      </trkpt>
      <trkpt lat="45.76426" lon="5.82144">
        <ele>464.5391</ele>
        <time>2014-11-22T15:36:45Z</time>
      </trkpt>
      <trkpt lat="45.76433" lon="5.82142">
        <ele>464.5391</ele>
        <time>2014-11-22T15:36:50Z</time>
      </trkpt>
      <trkpt lat="45.76436" lon="5.82142">
        <ele>463.11923</ele>
        <time>2014-11-22T15:36:55Z</time>
      </trkpt>
      <trkpt lat="45.76442" lon="5.82143">
        <ele>463.11923</ele>
        <time>2014-11-22T15:37:00Z</time>
      </trkpt>
      <trkpt lat="45.76448" lon="5.82143">
        <ele>461.14798</ele>
        <time>2014-11-22T15:37:05Z</time>
      </trkpt>
      <trkpt lat="45.76453" lon="5.82146">
        <ele>461.14798</ele>
        <time>2014-11-22T15:37:10Z</time>
      </trkpt>
      <trkpt lat="45.76461" lon="5.82148">
        <ele>459.29935</ele>
        <time>2014-11-22T15:37:15Z</time>
      </trkpt>
      <trkpt lat="45.76467" lon="5.82151">
        <ele>459.29935</ele>
        <time>2014-11-22T15:37:20Z</time>
      </trkpt>
      <trkpt lat="45.76472" lon="5.82153">
        <ele>457.59213</ele>
        <time>2014-11-22T15:37:25Z</time>
      </trkpt>
      <trkpt lat="45.76478" lon="5.82153">
        <ele>457.59213</ele>
        <time>2014-11-22T15:37:30Z</time>
      </trkpt>
      <trkpt lat="45.76485" lon="5.82156">
        <ele>455.76962</ele>
        <time>2014-11-22T15:37:35Z</time>
      </trkpt>
      <trkpt lat="45.7649" lon="5.82157">
        <ele>455.76962</ele>
        <time>2014-11-22T15:37:40Z</time>
      </trkpt>
      <trkpt lat="45.76492" lon="5.82159">
        <ele>455.76962</ele>
        <time>2014-11-22T15:37:45Z</time>
      </trkpt>
      <trkpt lat="45.76497" lon="5.8216">
        <ele>453.9834</ele>
        <time>2014-11-22T15:37:50Z</time>
      </trkpt>
      <trkpt lat="45.76503" lon="5.82162">
        <ele>453.9834</ele>
        <time>2014-11-22T15:37:55Z</time>
      </trkpt>
      <trkpt lat="45.76508" lon="5.82163">
        <ele>451.99915</ele>
        <time>2014-11-22T15:38:00Z</time>
      </trkpt>
      <trkpt lat="45.76514" lon="5.8216">
        <ele>451.99915</ele>
        <time>2014-11-22T15:38:05Z</time>
      </trkpt>
      <trkpt lat="45.76518" lon="5.82162">
        <ele>449.65796</ele>
        <time>2014-11-22T15:38:10Z</time>
      </trkpt>
      <trkpt lat="45.76525" lon="5.82163">
        <ele>449.65796</ele>
        <time>2014-11-22T15:38:15Z</time>
      </trkpt>
      <trkpt lat="45.76534" lon="5.82167">
        <ele>447.34683</ele>
        <time>2014-11-22T15:38:20Z</time>
      </trkpt>
      <trkpt lat="45.76543" lon="5.82173">
        <ele>445.17932</ele>
        <time>2014-11-22T15:38:25Z</time>
      </trkpt>
      <trkpt lat="45.76553" lon="5.82175">
        <ele>443.60605</ele>
        <time>2014-11-22T15:38:30Z</time>
      </trkpt>
      <trkpt lat="45.76575" lon="5.82184">
        <ele>442.48093</ele>
        <time>2014-11-22T15:38:35Z</time>
      </trkpt>
      <trkpt lat="45.76602" lon="5.8219">
        <ele>441.63852</ele>
        <time>2014-11-22T15:38:40Z</time>
      </trkpt>
      <trkpt lat="45.76625" lon="5.82197">
        <ele>440.9968</ele>
        <time>2014-11-22T15:38:45Z</time>
      </trkpt>
      <trkpt lat="45.76632" lon="5.822">
        <ele>440.9968</ele>
        <time>2014-11-22T15:38:50Z</time>
      </trkpt>
      <trkpt lat="45.76639" lon="5.82206">
        <ele>440.85397</ele>
        <time>2014-11-22T15:38:55Z</time>
      </trkpt>
      <trkpt lat="45.76645" lon="5.82209">
        <ele>440.85397</ele>
        <time>2014-11-22T15:39:00Z</time>
      </trkpt>
      <trkpt lat="45.76651" lon="5.82215">
        <ele>441.1823</ele>
        <time>2014-11-22T15:39:05Z</time>
      </trkpt>
      <trkpt lat="45.76657" lon="5.82216">
        <ele>441.1823</ele>
        <time>2014-11-22T15:39:10Z</time>
      </trkpt>
      <trkpt lat="45.76663" lon="5.82221">
        <ele>441.23434</ele>
        <time>2014-11-22T15:39:15Z</time>
      </trkpt>
      <trkpt lat="45.76669" lon="5.82225">
        <ele>441.23434</ele>
        <time>2014-11-22T15:39:20Z</time>
      </trkpt>
      <trkpt lat="45.76676" lon="5.8223">
        <ele>441.34152</ele>
        <time>2014-11-22T15:39:25Z</time>
      </trkpt>
      <trkpt lat="45.76683" lon="5.82236">
        <ele>441.34152</ele>
        <time>2014-11-22T15:39:30Z</time>
      </trkpt>
      <trkpt lat="45.76687" lon="5.82243">
        <ele>441.30652</ele>
        <time>2014-11-22T15:39:35Z</time>
      </trkpt>
      <trkpt lat="45.76691" lon="5.82251">
        <ele>441.30652</ele>
        <time>2014-11-22T15:39:40Z</time>
      </trkpt>
      <trkpt lat="45.76695" lon="5.82258">
        <ele>441.0334</ele>
        <time>2014-11-22T15:39:45Z</time>
      </trkpt>
      <trkpt lat="45.76698" lon="5.82267">
        <ele>441.0334</ele>
        <time>2014-11-22T15:39:50Z</time>
      </trkpt>
      <trkpt lat="45.76702" lon="5.82276">
        <ele>440.852</ele>
        <time>2014-11-22T15:39:55Z</time>
      </trkpt>
      <trkpt lat="45.76707" lon="5.82284">
        <ele>440.852</ele>
        <time>2014-11-22T15:40:00Z</time>
      </trkpt>
      <trkpt lat="45.76711" lon="5.82291">
        <ele>440.79404</ele>
        <time>2014-11-22T15:40:05Z</time>
      </trkpt>
      <trkpt lat="45.76715" lon="5.823">
        <ele>440.79404</ele>
        <time>2014-11-22T15:40:10Z</time>
      </trkpt>
      <trkpt lat="45.76719" lon="5.8231">
        <ele>441.33533</ele>
        <time>2014-11-22T15:40:15Z</time>
      </trkpt>
      <trkpt lat="45.76722" lon="5.82322">
        <ele>441.33533</ele>
        <time>2014-11-22T15:40:20Z</time>
      </trkpt>
      <trkpt lat="45.76724" lon="5.82331">
        <ele>442.43964</ele>
        <time>2014-11-22T15:40:25Z</time>
      </trkpt>
      <trkpt lat="45.76731" lon="5.82338">
        <ele>442.43964</ele>
        <time>2014-11-22T15:40:30Z</time>
      </trkpt>
      <trkpt lat="45.76735" lon="5.82342">
        <ele>443.36584</ele>
        <time>2014-11-22T15:40:35Z</time>
      </trkpt>
      <trkpt lat="45.7674" lon="5.82341">
        <ele>443.36584</ele>
        <time>2014-11-22T15:40:40Z</time>
      </trkpt>
      <trkpt lat="45.76745" lon="5.82336">
        <ele>444.26373</ele>
        <time>2014-11-22T15:40:45Z</time>
      </trkpt>
      <trkpt lat="45.7675" lon="5.82331">
        <ele>444.26373</ele>
        <time>2014-11-22T15:40:50Z</time>
      </trkpt>
      <trkpt lat="45.76755" lon="5.82322">
        <ele>445.157</ele>
        <time>2014-11-22T15:40:55Z</time>
      </trkpt>
      <trkpt lat="45.76761" lon="5.82315">
        <ele>445.157</ele>
        <time>2014-11-22T15:41:00Z</time>
      </trkpt>
      <trkpt lat="45.76766" lon="5.82308">
        <ele>446.28406</ele>
        <time>2014-11-22T15:41:05Z</time>
      </trkpt>
      <trkpt lat="45.76772" lon="5.82299">
        <ele>446.28406</ele>
        <time>2014-11-22T15:41:10Z</time>
      </trkpt>
      <trkpt lat="45.76776" lon="5.82291">
        <ele>447.90845</ele>
        <time>2014-11-22T15:41:15Z</time>
      </trkpt>
      <trkpt lat="45.76782" lon="5.82285">
        <ele>447.90845</ele>
        <time>2014-11-22T15:41:20Z</time>
      </trkpt>
      <trkpt lat="45.76787" lon="5.82279">
        <ele>449.75436</ele>
        <time>2014-11-22T15:41:25Z</time>
      </trkpt>
      <trkpt lat="45.76793" lon="5.82274">
        <ele>449.75436</ele>
        <time>2014-11-22T15:41:30Z</time>
      </trkpt>
      <trkpt lat="45.76799" lon="5.82268">
        <ele>451.94058</ele>
        <time>2014-11-22T15:41:35Z</time>
      </trkpt>
      <trkpt lat="45.76805" lon="5.8226">
        <ele>451.94058</ele>
        <time>2014-11-22T15:41:40Z</time>
      </trkpt>
      <trkpt lat="45.7681" lon="5.82252">
        <ele>454.3314</ele>
        <time>2014-11-22T15:41:45Z</time>
      </trkpt>
      <trkpt lat="45.76815" lon="5.82247">
        <ele>454.3314</ele>
        <time>2014-11-22T15:41:50Z</time>
      </trkpt>
      <trkpt lat="45.7682" lon="5.82241">
        <ele>456.59897</ele>
        <time>2014-11-22T15:41:55Z</time>
      </trkpt>
      <trkpt lat="45.76827" lon="5.82237">
        <ele>456.59897</ele>
        <time>2014-11-22T15:42:00Z</time>
      </trkpt>
      <trkpt lat="45.76834" lon="5.82233">
        <ele>458.93008</ele>
        <time>2014-11-22T15:42:05Z</time>
      </trkpt>
      <trkpt lat="45.7684" lon="5.82228">
        <ele>458.93008</ele>
        <time>2014-11-22T15:42:10Z</time>
      </trkpt>
      <trkpt lat="45.76845" lon="5.82223">
        <ele>461.2529</ele>
        <time>2014-11-22T15:42:15Z</time>
      </trkpt>
      <trkpt lat="45.76851" lon="5.82219">
        <ele>461.2529</ele>
        <time>2014-11-22T15:42:20Z</time>
      </trkpt>
      <trkpt lat="45.76856" lon="5.82217">
        <ele>463.47232</ele>
        <time>2014-11-22T15:42:25Z</time>
      </trkpt>
      <trkpt lat="45.76861" lon="5.82212">
        <ele>463.47232</ele>
        <time>2014-11-22T15:42:30Z</time>
      </trkpt>
      <trkpt lat="45.76867" lon="5.82208">
        <ele>465.7025</ele>
        <time>2014-11-22T15:42:37Z</time>
      </trkpt>
      <trkpt lat="45.76873" lon="5.82202">
        <ele>465.7025</ele>
        <time>2014-11-22T15:42:42Z</time>
      </trkpt>
      <trkpt lat="45.76873" lon="5.82202">
        <ele>465.7025</ele>
        <time>2014-11-22T15:42:46Z</time>
      </trkpt>
      <trkpt lat="45.76873" lon="5.822">
        <ele>465.7025</ele>
        <time>2014-11-22T15:42:51Z</time>
      </trkpt>
      <trkpt lat="45.76874" lon="5.822">
        <ele>465.7025</ele>
        <time>2014-11-22T15:42:56Z</time>
      </trkpt>
      <trkpt lat="45.76877" lon="5.82199">
        <ele>467.9055</ele>
        <time>2014-11-22T15:43:01Z</time>
      </trkpt>
      <trkpt lat="45.76884" lon="5.82195">
        <ele>467.9055</ele>
        <time>2014-11-22T15:43:06Z</time>
      </trkpt>
      <trkpt lat="45.76888" lon="5.82192">
        <ele>469.70038</ele>
        <time>2014-11-22T15:43:10Z</time>
      </trkpt>
      <trkpt lat="45.76891" lon="5.82192">
        <ele>469.70038</ele>
        <time>2014-11-22T15:43:16Z</time>
      </trkpt>
      <trkpt lat="45.76896" lon="5.82196">
        <ele>471.24023</ele>
        <time>2014-11-22T15:43:22Z</time>
      </trkpt>
      <trkpt lat="45.76902" lon="5.82194">
        <ele>471.24023</ele>
        <time>2014-11-22T15:43:25Z</time>
      </trkpt>
      <trkpt lat="45.76909" lon="5.82193">
        <ele>472.65338</ele>
        <time>2014-11-22T15:43:30Z</time>
      </trkpt>
      <trkpt lat="45.76916" lon="5.82191">
        <ele>472.65338</ele>
        <time>2014-11-22T15:43:35Z</time>
      </trkpt>
      <trkpt lat="45.76924" lon="5.82187">
        <ele>473.97293</ele>
        <time>2014-11-22T15:43:40Z</time>
      </trkpt>
      <trkpt lat="45.7693" lon="5.82182">
        <ele>473.97293</ele>
        <time>2014-11-22T15:43:45Z</time>
      </trkpt>
      <trkpt lat="45.76937" lon="5.82179">
        <ele>475.6047</ele>
        <time>2014-11-22T15:43:50Z</time>
      </trkpt>
      <trkpt lat="45.76943" lon="5.82176">
        <ele>475.6047</ele>
        <time>2014-11-22T15:43:55Z</time>
      </trkpt>
      <trkpt lat="45.7695" lon="5.82173">
        <ele>477.5063</ele>
        <time>2014-11-22T15:44:00Z</time>
      </trkpt>
      <trkpt lat="45.76957" lon="5.82169">
        <ele>477.5063</ele>
        <time>2014-11-22T15:44:05Z</time>
      </trkpt>
      <trkpt lat="45.76963" lon="5.82167">
        <ele>479.1478</ele>
        <time>2014-11-22T15:44:10Z</time>
      </trkpt>
      <trkpt lat="45.76969" lon="5.82165">
        <ele>479.1478</ele>
        <time>2014-11-22T15:44:15Z</time>
      </trkpt>
      <trkpt lat="45.76976" lon="5.82163">
        <ele>480.60138</ele>
        <time>2014-11-22T15:44:20Z</time>
      </trkpt>
      <trkpt lat="45.76983" lon="5.82159">
        <ele>480.60138</ele>
        <time>2014-11-22T15:44:25Z</time>
      </trkpt>
      <trkpt lat="45.76989" lon="5.82156">
        <ele>482.2228</ele>
        <time>2014-11-22T15:44:30Z</time>
      </trkpt>
      <trkpt lat="45.76997" lon="5.82154">
        <ele>482.2228</ele>
        <time>2014-11-22T15:44:35Z</time>
      </trkpt>
      <trkpt lat="45.77003" lon="5.82152">
        <ele>483.41925</ele>
        <time>2014-11-22T15:44:40Z</time>
      </trkpt>
      <trkpt lat="45.77009" lon="5.82149">
        <ele>483.41925</ele>
        <time>2014-11-22T15:44:45Z</time>
      </trkpt>
      <trkpt lat="45.77016" lon="5.82146">
        <ele>484.4354</ele>
        <time>2014-11-22T15:44:50Z</time>
      </trkpt>
      <trkpt lat="45.77023" lon="5.82142">
        <ele>484.4354</ele>
        <time>2014-11-22T15:44:55Z</time>
      </trkpt>
      <trkpt lat="45.7703" lon="5.82139">
        <ele>485.38345</ele>
        <time>2014-11-22T15:45:00Z</time>
      </trkpt>
      <trkpt lat="45.77037" lon="5.82136">
        <ele>485.38345</ele>
        <time>2014-11-22T15:45:05Z</time>
      </trkpt>
      <trkpt lat="45.77044" lon="5.82133">
        <ele>486.1516</ele>
        <time>2014-11-22T15:45:10Z</time>
      </trkpt>
      <trkpt lat="45.77051" lon="5.82129">
        <ele>486.1516</ele>
        <time>2014-11-22T15:45:15Z</time>
      </trkpt>
      <trkpt lat="45.77056" lon="5.82123">
        <ele>487.01166</ele>
        <time>2014-11-22T15:45:20Z</time>
      </trkpt>
      <trkpt lat="45.77061" lon="5.82116">
        <ele>487.01166</ele>
        <time>2014-11-22T15:45:25Z</time>
      </trkpt>
      <trkpt lat="45.77068" lon="5.82111">
        <ele>487.76862</ele>
        <time>2014-11-22T15:45:30Z</time>
      </trkpt>
      <trkpt lat="45.77073" lon="5.82106">
        <ele>487.76862</ele>
        <time>2014-11-22T15:45:35Z</time>
      </trkpt>
      <trkpt lat="45.77078" lon="5.82098">
        <ele>488.29993</ele>
        <time>2014-11-22T15:45:40Z</time>
      </trkpt>
      <trkpt lat="45.77083" lon="5.82091">
        <ele>488.29993</ele>
        <time>2014-11-22T15:45:45Z</time>
      </trkpt>
      <trkpt lat="45.77087" lon="5.82084">
        <ele>488.40637</ele>
        <time>2014-11-22T15:45:50Z</time>
      </trkpt>
      <trkpt lat="45.77089" lon="5.82074">
        <ele>488.40637</ele>
        <time>2014-11-22T15:45:55Z</time>
      </trkpt>
      <trkpt lat="45.77088" lon="5.82062">
        <ele>488.56766</ele>
        <time>2014-11-22T15:46:00Z</time>
      </trkpt>
      <trkpt lat="45.77086" lon="5.82051">
        <ele>488.56766</ele>
        <time>2014-11-22T15:46:05Z</time>
      </trkpt>
      <trkpt lat="45.77084" lon="5.82042">
        <ele>488.92554</ele>
        <time>2014-11-22T15:46:10Z</time>
      </trkpt>
      <trkpt lat="45.77083" lon="5.82032">
        <ele>488.92554</ele>
        <time>2014-11-22T15:46:15Z</time>
      </trkpt>
      <trkpt lat="45.77081" lon="5.82022">
        <ele>489.02014</ele>
        <time>2014-11-22T15:46:20Z</time>
      </trkpt>
      <trkpt lat="45.77079" lon="5.82012">
        <ele>489.02014</ele>
        <time>2014-11-22T15:46:25Z</time>
      </trkpt>
      <trkpt lat="45.77078" lon="5.82002">
        <ele>489.01697</ele>
        <time>2014-11-22T15:46:30Z</time>
      </trkpt>
      <trkpt lat="45.77077" lon="5.81992">
        <ele>489.01697</ele>
        <time>2014-11-22T15:46:35Z</time>
      </trkpt>
      <trkpt lat="45.77075" lon="5.81981">
        <ele>488.969</ele>
        <time>2014-11-22T15:46:40Z</time>
      </trkpt>
      <trkpt lat="45.77073" lon="5.81972">
        <ele>488.969</ele>
        <time>2014-11-22T15:46:45Z</time>
      </trkpt>
      <trkpt lat="45.77074" lon="5.81963">
        <ele>488.7957</ele>
        <time>2014-11-22T15:46:50Z</time>
      </trkpt>
      <trkpt lat="45.77077" lon="5.81959">
        <ele>488.7957</ele>
        <time>2014-11-22T15:46:55Z</time>
      </trkpt>
      <trkpt lat="45.77081" lon="5.81955">
        <ele>487.60144</ele>
        <time>2014-11-22T15:47:00Z</time>
      </trkpt>
      <trkpt lat="45.77087" lon="5.81948">
        <ele>487.60144</ele>
        <time>2014-11-22T15:47:05Z</time>
      </trkpt>
      <trkpt lat="45.77091" lon="5.81944">
        <ele>485.15027</ele>
        <time>2014-11-22T15:47:10Z</time>
      </trkpt>
      <trkpt lat="45.77105" lon="5.81941">
        <ele>482.62485</ele>
        <time>2014-11-22T15:47:15Z</time>
      </trkpt>
      <trkpt lat="45.77121" lon="5.81939">
        <ele>480.29984</ele>
        <time>2014-11-22T15:47:20Z</time>
      </trkpt>
      <trkpt lat="45.77126" lon="5.8194">
        <ele>480.29984</ele>
        <time>2014-11-22T15:47:25Z</time>
      </trkpt>
      <trkpt lat="45.77127" lon="5.81939">
        <ele>480.29984</ele>
        <time>2014-11-22T15:47:30Z</time>
      </trkpt>
      <trkpt lat="45.77126" lon="5.81941">
        <ele>480.29984</ele>
        <time>2014-11-22T15:47:35Z</time>
      </trkpt>
      <trkpt lat="45.77129" lon="5.81939">
        <ele>479.0343</ele>
        <time>2014-11-22T15:47:40Z</time>
      </trkpt>
      <trkpt lat="45.77129" lon="5.8194">
        <ele>479.0343</ele>
        <time>2014-11-22T15:47:45Z</time>
      </trkpt>
      <trkpt lat="45.77131" lon="5.81943">
        <ele>479.0343</ele>
        <time>2014-11-22T15:47:50Z</time>
      </trkpt>
      <trkpt lat="45.77131" lon="5.81943">
        <ele>479.0343</ele>
        <time>2014-11-22T15:47:55Z</time>
      </trkpt>
      <trkpt lat="45.77131" lon="5.81944">
        <ele>479.0343</ele>
        <time>2014-11-22T15:48:00Z</time>
      </trkpt>
      <trkpt lat="45.77131" lon="5.81945">
        <ele>479.0343</ele>
        <time>2014-11-22T15:48:05Z</time>
      </trkpt>
      <trkpt lat="45.77133" lon="5.81945">
        <ele>479.0343</ele>
        <time>2014-11-22T15:48:10Z</time>
      </trkpt>
      <trkpt lat="45.77139" lon="5.8194">
        <ele>477.43076</ele>
        <time>2014-11-22T15:48:15Z</time>
      </trkpt>
      <trkpt lat="45.77155" lon="5.81931">
        <ele>475.449</ele>
        <time>2014-11-22T15:48:20Z</time>
      </trkpt>
      <trkpt lat="45.7717" lon="5.81931">
        <ele>473.58597</ele>
        <time>2014-11-22T15:48:25Z</time>
      </trkpt>
      <trkpt lat="45.77178" lon="5.81932">
        <ele>473.58597</ele>
        <time>2014-11-22T15:48:30Z</time>
      </trkpt>
      <trkpt lat="45.7719" lon="5.8194">
        <ele>472.43134</ele>
        <time>2014-11-22T15:48:36Z</time>
      </trkpt>
      <trkpt lat="45.77196" lon="5.81942">
        <ele>472.43134</ele>
        <time>2014-11-22T15:48:40Z</time>
      </trkpt>
      <trkpt lat="45.77205" lon="5.81944">
        <ele>471.33328</ele>
        <time>2014-11-22T15:48:45Z</time>
      </trkpt>
      <trkpt lat="45.77209" lon="5.81945">
        <ele>471.33328</ele>
        <time>2014-11-22T15:48:50Z</time>
      </trkpt>
      <trkpt lat="45.77213" lon="5.81946">
        <ele>471.33328</ele>
        <time>2014-11-22T15:48:55Z</time>
      </trkpt>
      <trkpt lat="45.77219" lon="5.81946">
        <ele>469.3993</ele>
        <time>2014-11-22T15:49:00Z</time>
      </trkpt>
      <trkpt lat="45.77227" lon="5.8195">
        <ele>469.3993</ele>
        <time>2014-11-22T15:49:05Z</time>
      </trkpt>
      <trkpt lat="45.77235" lon="5.81955">
        <ele>467.72134</ele>
        <time>2014-11-22T15:49:10Z</time>
      </trkpt>
      <trkpt lat="45.77242" lon="5.8196">
        <ele>467.72134</ele>
        <time>2014-11-22T15:49:15Z</time>
      </trkpt>
      <trkpt lat="45.77249" lon="5.81967">
        <ele>466.14307</ele>
        <time>2014-11-22T15:49:20Z</time>
      </trkpt>
      <trkpt lat="45.77257" lon="5.81974">
        <ele>464.70642</ele>
        <time>2014-11-22T15:49:25Z</time>
      </trkpt>
      <trkpt lat="45.77263" lon="5.81977">
        <ele>464.70642</ele>
        <time>2014-11-22T15:49:30Z</time>
      </trkpt>
      <trkpt lat="45.77266" lon="5.81977">
        <ele>462.58508</ele>
        <time>2014-11-22T15:49:35Z</time>
      </trkpt>
      <trkpt lat="45.77272" lon="5.81979">
        <ele>462.58508</ele>
        <time>2014-11-22T15:49:40Z</time>
      </trkpt>
      <trkpt lat="45.77278" lon="5.81979">
        <ele>460.36987</ele>
        <time>2014-11-22T15:49:45Z</time>
      </trkpt>
      <trkpt lat="45.77284" lon="5.8198">
        <ele>460.36987</ele>
        <time>2014-11-22T15:49:50Z</time>
      </trkpt>
      <trkpt lat="45.77288" lon="5.8198">
        <ele>458.36325</ele>
        <time>2014-11-22T15:49:55Z</time>
      </trkpt>
      <trkpt lat="45.77287" lon="5.81979">
        <ele>458.36325</ele>
        <time>2014-11-22T15:50:00Z</time>
      </trkpt>
      <trkpt lat="45.77289" lon="5.81979">
        <ele>458.36325</ele>
        <time>2014-11-22T15:50:05Z</time>
      </trkpt>
      <trkpt lat="45.77293" lon="5.81982">
        <ele>458.36325</ele>
        <time>2014-11-22T15:50:10Z</time>
      </trkpt>
      <trkpt lat="45.77297" lon="5.81984">
        <ele>456.4268</ele>
        <time>2014-11-22T15:50:15Z</time>
      </trkpt>
      <trkpt lat="45.77305" lon="5.81988">
        <ele>456.4268</ele>
        <time>2014-11-22T15:50:20Z</time>
      </trkpt>
      <trkpt lat="45.77313" lon="5.81989">
        <ele>454.80655</ele>
        <time>2014-11-22T15:50:25Z</time>
      </trkpt>
      <trkpt lat="45.77319" lon="5.81992">
        <ele>454.80655</ele>
        <time>2014-11-22T15:50:30Z</time>
      </trkpt>
      <trkpt lat="45.77327" lon="5.81994">
        <ele>453.47</ele>
        <time>2014-11-22T15:50:35Z</time>
      </trkpt>
      <trkpt lat="45.77333" lon="5.81997">
        <ele>453.47</ele>
        <time>2014-11-22T15:50:40Z</time>
      </trkpt>
      <trkpt lat="45.77339" lon="5.82">
        <ele>452.0978</ele>
        <time>2014-11-22T15:50:45Z</time>
      </trkpt>
      <trkpt lat="45.77342" lon="5.81999">
        <ele>452.0978</ele>
        <time>2014-11-22T15:50:50Z</time>
      </trkpt>
      <trkpt lat="45.7735" lon="5.82001">
        <ele>451.25873</ele>
        <time>2014-11-22T15:50:55Z</time>
      </trkpt>
      <trkpt lat="45.77358" lon="5.82002">
        <ele>451.25873</ele>
        <time>2014-11-22T15:51:00Z</time>
      </trkpt>
      <trkpt lat="45.77366" lon="5.82001">
        <ele>450.71417</ele>
        <time>2014-11-22T15:51:05Z</time>
      </trkpt>
      <trkpt lat="45.77373" lon="5.81999">
        <ele>450.71417</ele>
        <time>2014-11-22T15:51:10Z</time>
      </trkpt>
      <trkpt lat="45.7738" lon="5.81995">
        <ele>450.37183</ele>
        <time>2014-11-22T15:51:15Z</time>
      </trkpt>
      <trkpt lat="45.77386" lon="5.81991">
        <ele>450.37183</ele>
        <time>2014-11-22T15:51:20Z</time>
      </trkpt>
      <trkpt lat="45.77391" lon="5.81986">
        <ele>450.1454</ele>
        <time>2014-11-22T15:51:25Z</time>
      </trkpt>
      <trkpt lat="45.77395" lon="5.81979">
        <ele>450.1454</ele>
        <time>2014-11-22T15:51:30Z</time>
      </trkpt>
      <trkpt lat="45.77397" lon="5.8197">
        <ele>449.70947</ele>
        <time>2014-11-22T15:51:35Z</time>
      </trkpt>
      <trkpt lat="45.774" lon="5.81961">
        <ele>449.70947</ele>
        <time>2014-11-22T15:51:40Z</time>
      </trkpt>
      <trkpt lat="45.77407" lon="5.81959">
        <ele>449.05118</ele>
        <time>2014-11-22T15:51:45Z</time>
      </trkpt>
      <trkpt lat="45.77412" lon="5.8196">
        <ele>449.05118</ele>
        <time>2014-11-22T15:51:50Z</time>
      </trkpt>
      <trkpt lat="45.7742" lon="5.81966">
        <ele>448.11588</ele>
        <time>2014-11-22T15:51:56Z</time>
      </trkpt>
      <trkpt lat="45.77424" lon="5.81967">
        <ele>448.11588</ele>
        <time>2014-11-22T15:52:01Z</time>
      </trkpt>
      <trkpt lat="45.7743" lon="5.81974">
        <ele>446.95444</ele>
        <time>2014-11-22T15:52:06Z</time>
      </trkpt>
      <trkpt lat="45.77437" lon="5.81979">
        <ele>446.95444</ele>
        <time>2014-11-22T15:52:10Z</time>
      </trkpt>
      <trkpt lat="45.77444" lon="5.81982">
        <ele>445.90268</ele>
        <time>2014-11-22T15:52:15Z</time>
      </trkpt>
      <trkpt lat="45.7745" lon="5.81984">
        <ele>445.90268</ele>
        <time>2014-11-22T15:52:20Z</time>
      </trkpt>
      <trkpt lat="45.77458" lon="5.81983">
        <ele>444.53647</ele>
        <time>2014-11-22T15:52:25Z</time>
      </trkpt>
      <trkpt lat="45.77464" lon="5.81985">
        <ele>444.53647</ele>
        <time>2014-11-22T15:52:30Z</time>
      </trkpt>
      <trkpt lat="45.77471" lon="5.81988">
        <ele>443.28488</ele>
        <time>2014-11-22T15:52:35Z</time>
      </trkpt>
      <trkpt lat="45.77476" lon="5.81992">
        <ele>443.28488</ele>
        <time>2014-11-22T15:52:40Z</time>
      </trkpt>
      <trkpt lat="45.77482" lon="5.81993">
        <ele>441.57956</ele>
        <time>2014-11-22T15:52:45Z</time>
      </trkpt>
      <trkpt lat="45.77488" lon="5.81991">
        <ele>441.57956</ele>
        <time>2014-11-22T15:52:50Z</time>
      </trkpt>
      <trkpt lat="45.77492" lon="5.81992">
        <ele>439.58682</ele>
        <time>2014-11-22T15:52:55Z</time>
      </trkpt>
      <trkpt lat="45.77497" lon="5.81992">
        <ele>439.58682</ele>
        <time>2014-11-22T15:53:00Z</time>
      </trkpt>
      <trkpt lat="45.77502" lon="5.81994">
        <ele>437.40378</ele>
        <time>2014-11-22T15:53:05Z</time>
      </trkpt>
      <trkpt lat="45.77506" lon="5.81995">
        <ele>437.40378</ele>
        <time>2014-11-22T15:53:10Z</time>
      </trkpt>
      <trkpt lat="45.77513" lon="5.81996">
        <ele>434.65958</ele>
        <time>2014-11-22T15:53:15Z</time>
      </trkpt>
      <trkpt lat="45.77519" lon="5.81996">
        <ele>434.65958</ele>
        <time>2014-11-22T15:53:20Z</time>
      </trkpt>
      <trkpt lat="45.77526" lon="5.81994">
        <ele>432.22275</ele>
        <time>2014-11-22T15:53:25Z</time>
      </trkpt>
      <trkpt lat="45.77532" lon="5.81993">
        <ele>432.22275</ele>
        <time>2014-11-22T15:53:30Z</time>
      </trkpt>
      <trkpt lat="45.77533" lon="5.81993">
        <ele>432.22275</ele>
        <time>2014-11-22T15:53:35Z</time>
      </trkpt>
      <trkpt lat="45.77537" lon="5.81995">
        <ele>429.39816</ele>
        <time>2014-11-22T15:53:40Z</time>
      </trkpt>
      <trkpt lat="45.77541" lon="5.81994">
        <ele>429.39816</ele>
        <time>2014-11-22T15:53:45Z</time>
      </trkpt>
      <trkpt lat="45.77547" lon="5.81993">
        <ele>426.69562</ele>
        <time>2014-11-22T15:53:50Z</time>
      </trkpt>
      <trkpt lat="45.77555" lon="5.81989">
        <ele>426.69562</ele>
        <time>2014-11-22T15:53:55Z</time>
      </trkpt>
      <trkpt lat="45.77562" lon="5.81986">
        <ele>424.81754</ele>
        <time>2014-11-22T15:54:00Z</time>
      </trkpt>
      <trkpt lat="45.77567" lon="5.81983">
        <ele>424.81754</ele>
        <time>2014-11-22T15:54:05Z</time>
      </trkpt>
      <trkpt lat="45.77571" lon="5.81977">
        <ele>422.56772</ele>
        <time>2014-11-22T15:54:10Z</time>
      </trkpt>
      <trkpt lat="45.77577" lon="5.8197">
        <ele>422.56772</ele>
        <time>2014-11-22T15:54:15Z</time>
      </trkpt>
      <trkpt lat="45.77583" lon="5.81962">
        <ele>420.7986</ele>
        <time>2014-11-22T15:54:20Z</time>
      </trkpt>
      <trkpt lat="45.7759" lon="5.81958">
        <ele>420.7986</ele>
        <time>2014-11-22T15:54:25Z</time>
      </trkpt>
      <trkpt lat="45.77596" lon="5.8196">
        <ele>419.27536</ele>
        <time>2014-11-22T15:54:30Z</time>
      </trkpt>
      <trkpt lat="45.77603" lon="5.81962">
        <ele>419.27536</ele>
        <time>2014-11-22T15:54:35Z</time>
      </trkpt>
      <trkpt lat="45.77609" lon="5.81967">
        <ele>417.92365</ele>
        <time>2014-11-22T15:54:40Z</time>
      </trkpt>
      <trkpt lat="45.77613" lon="5.81974">
        <ele>417.92365</ele>
        <time>2014-11-22T15:54:45Z</time>
      </trkpt>
      <trkpt lat="45.77617" lon="5.81981">
        <ele>416.21283</ele>
        <time>2014-11-22T15:54:50Z</time>
      </trkpt>
      <trkpt lat="45.77624" lon="5.81986">
        <ele>416.21283</ele>
        <time>2014-11-22T15:54:55Z</time>
      </trkpt>
      <trkpt lat="45.77632" lon="5.8199">
        <ele>414.80502</ele>
        <time>2014-11-22T15:55:00Z</time>
      </trkpt>
      <trkpt lat="45.77638" lon="5.81991">
        <ele>414.80502</ele>
        <time>2014-11-22T15:55:05Z</time>
      </trkpt>
      <trkpt lat="45.77647" lon="5.81988">
        <ele>413.39044</ele>
        <time>2014-11-22T15:55:10Z</time>
      </trkpt>
      <trkpt lat="45.77651" lon="5.81982">
        <ele>413.39044</ele>
        <time>2014-11-22T15:55:15Z</time>
      </trkpt>
      <trkpt lat="45.77653" lon="5.81972">
        <ele>411.9413</ele>
        <time>2014-11-22T15:55:20Z</time>
      </trkpt>
      <trkpt lat="45.77651" lon="5.81962">
        <ele>411.9413</ele>
        <time>2014-11-22T15:55:25Z</time>
      </trkpt>
      <trkpt lat="45.77647" lon="5.81954">
        <ele>410.57608</ele>
        <time>2014-11-22T15:55:30Z</time>
      </trkpt>
      <trkpt lat="45.7764" lon="5.81948">
        <ele>410.57608</ele>
        <time>2014-11-22T15:55:35Z</time>
      </trkpt>
      <trkpt lat="45.77634" lon="5.81945">
        <ele>409.50494</ele>
        <time>2014-11-22T15:55:40Z</time>
      </trkpt>
      <trkpt lat="45.77627" lon="5.81942">
        <ele>409.50494</ele>
        <time>2014-11-22T15:55:45Z</time>
      </trkpt>
      <trkpt lat="45.7762" lon="5.81939">
        <ele>408.87857</ele>
        <time>2014-11-22T15:55:50Z</time>
      </trkpt>
      <trkpt lat="45.77613" lon="5.81937">
        <ele>408.87857</ele>
        <time>2014-11-22T15:55:55Z</time>
      </trkpt>
      <trkpt lat="45.77607" lon="5.81934">
        <ele>408.3308</ele>
        <time>2014-11-22T15:56:00Z</time>
      </trkpt>
      <trkpt lat="45.77601" lon="5.81931">
        <ele>408.3308</ele>
        <time>2014-11-22T15:56:05Z</time>
      </trkpt>
      <trkpt lat="45.77594" lon="5.81928">
        <ele>407.78156</ele>
        <time>2014-11-22T15:56:10Z</time>
      </trkpt>
      <trkpt lat="45.77588" lon="5.81925">
        <ele>407.78156</ele>
        <time>2014-11-22T15:56:15Z</time>
      </trkpt>
      <trkpt lat="45.77581" lon="5.8192">
        <ele>407.25735</ele>
        <time>2014-11-22T15:56:20Z</time>
      </trkpt>
      <trkpt lat="45.77574" lon="5.81917">
        <ele>407.25735</ele>
        <time>2014-11-22T15:56:25Z</time>
      </trkpt>
      <trkpt lat="45.77567" lon="5.81913">
        <ele>406.59537</ele>
        <time>2014-11-22T15:56:30Z</time>
      </trkpt>
      <trkpt lat="45.77562" lon="5.81909">
        <ele>406.59537</ele>
        <time>2014-11-22T15:56:35Z</time>
      </trkpt>
      <trkpt lat="45.77556" lon="5.81904">
        <ele>405.80356</ele>
        <time>2014-11-22T15:56:40Z</time>
      </trkpt>
      <trkpt lat="45.77551" lon="5.81897">
        <ele>405.80356</ele>
        <time>2014-11-22T15:56:45Z</time>
      </trkpt>
      <trkpt lat="45.77549" lon="5.81889">
        <ele>405.07706</ele>
        <time>2014-11-22T15:56:50Z</time>
      </trkpt>
      <trkpt lat="45.77549" lon="5.81889">
        <ele>405.07706</ele>
        <time>2014-11-22T15:56:55Z</time>
      </trkpt>
      <trkpt lat="45.77547" lon="5.81881">
        <ele>405.07706</ele>
        <time>2014-11-22T15:57:00Z</time>
      </trkpt>
      <trkpt lat="45.77546" lon="5.8187">
        <ele>404.65402</ele>
        <time>2014-11-22T15:57:05Z</time>
      </trkpt>
      <trkpt lat="45.77545" lon="5.81861">
        <ele>404.65402</ele>
        <time>2014-11-22T15:57:10Z</time>
      </trkpt>
      <trkpt lat="45.77545" lon="5.81853">
        <ele>403.87524</ele>
        <time>2014-11-22T15:57:15Z</time>
      </trkpt>
      <trkpt lat="45.77544" lon="5.81844">
        <ele>403.87524</ele>
        <time>2014-11-22T15:57:20Z</time>
      </trkpt>
      <trkpt lat="45.77544" lon="5.81835">
        <ele>402.7938</ele>
        <time>2014-11-22T15:57:25Z</time>
      </trkpt>
      <trkpt lat="45.77543" lon="5.81826">
        <ele>402.7938</ele>
        <time>2014-11-22T15:57:30Z</time>
      </trkpt>
      <trkpt lat="45.77542" lon="5.81815">
        <ele>401.57495</ele>
        <time>2014-11-22T15:57:35Z</time>
      </trkpt>
      <trkpt lat="45.77541" lon="5.81804">
        <ele>401.57495</ele>
        <time>2014-11-22T15:57:40Z</time>
      </trkpt>
      <trkpt lat="45.77541" lon="5.81793">
        <ele>401.04968</ele>
        <time>2014-11-22T15:57:45Z</time>
      </trkpt>
      <trkpt lat="45.7754" lon="5.81785">
        <ele>401.04968</ele>
        <time>2014-11-22T15:57:50Z</time>
      </trkpt>
      <trkpt lat="45.77539" lon="5.81775">
        <ele>400.28534</ele>
        <time>2014-11-22T15:57:55Z</time>
      </trkpt>
      <trkpt lat="45.77539" lon="5.81766">
        <ele>400.28534</ele>
        <time>2014-11-22T15:58:00Z</time>
      </trkpt>
      <trkpt lat="45.77538" lon="5.81756">
        <ele>399.52823</ele>
        <time>2014-11-22T15:58:06Z</time>
      </trkpt>
      <trkpt lat="45.77537" lon="5.81746">
        <ele>399.52823</ele>
        <time>2014-11-22T15:58:11Z</time>
      </trkpt>
      <trkpt lat="45.77536" lon="5.81736">
        <ele>398.63177</ele>
        <time>2014-11-22T15:58:16Z</time>
      </trkpt>
      <trkpt lat="45.77536" lon="5.8173">
        <ele>398.63177</ele>
        <time>2014-11-22T15:58:20Z</time>
      </trkpt>
      <trkpt lat="45.77534" lon="5.81722">
        <ele>397.15805</ele>
        <time>2014-11-22T15:58:25Z</time>
      </trkpt>
      <trkpt lat="45.7753" lon="5.81713">
        <ele>397.15805</ele>
        <time>2014-11-22T15:58:30Z</time>
      </trkpt>
      <trkpt lat="45.77524" lon="5.81705">
        <ele>395.82693</ele>
        <time>2014-11-22T15:58:35Z</time>
      </trkpt>
      <trkpt lat="45.77519" lon="5.81696">
        <ele>395.82693</ele>
        <time>2014-11-22T15:58:40Z</time>
      </trkpt>
      <trkpt lat="45.77515" lon="5.81688">
        <ele>394.80066</ele>
        <time>2014-11-22T15:58:45Z</time>
      </trkpt>
      <trkpt lat="45.77516" lon="5.81682">
        <ele>394.80066</ele>
        <time>2014-11-22T15:58:50Z</time>
      </trkpt>
      <trkpt lat="45.77517" lon="5.81677">
        <ele>394.80066</ele>
        <time>2014-11-22T15:58:55Z</time>
      </trkpt>
      <trkpt lat="45.77515" lon="5.81672">
        <ele>393.6379</ele>
        <time>2014-11-22T15:59:00Z</time>
      </trkpt>
      <trkpt lat="45.77513" lon="5.81663">
        <ele>393.6379</ele>
        <time>2014-11-22T15:59:05Z</time>
      </trkpt>
      <trkpt lat="45.77511" lon="5.81654">
        <ele>392.60745</ele>
        <time>2014-11-22T15:59:10Z</time>
      </trkpt>
      <trkpt lat="45.77511" lon="5.81647">
        <ele>392.60745</ele>
        <time>2014-11-22T15:59:15Z</time>
      </trkpt>
      <trkpt lat="45.77509" lon="5.8164">
        <ele>391.0501</ele>
        <time>2014-11-22T15:59:20Z</time>
      </trkpt>
      <trkpt lat="45.77509" lon="5.81633">
        <ele>391.0501</ele>
        <time>2014-11-22T15:59:25Z</time>
      </trkpt>
      <trkpt lat="45.77509" lon="5.81621">
        <ele>389.4086</ele>
        <time>2014-11-22T15:59:30Z</time>
      </trkpt>
      <trkpt lat="45.77513" lon="5.81612">
        <ele>389.4086</ele>
        <time>2014-11-22T15:59:35Z</time>
      </trkpt>
      <trkpt lat="45.77516" lon="5.81605">
        <ele>387.7908</ele>
        <time>2014-11-22T15:59:40Z</time>
      </trkpt>
      <trkpt lat="45.77518" lon="5.81592">
        <ele>387.7908</ele>
        <time>2014-11-22T15:59:45Z</time>
      </trkpt>
      <trkpt lat="45.77521" lon="5.81583">
        <ele>386.77216</ele>
        <time>2014-11-22T15:59:50Z</time>
      </trkpt>
      <trkpt lat="45.77524" lon="5.81574">
        <ele>386.77216</ele>
        <time>2014-11-22T15:59:55Z</time>
      </trkpt>
      <trkpt lat="45.77527" lon="5.81567">
        <ele>385.9474</ele>
        <time>2014-11-22T16:00:00Z</time>
      </trkpt>
      <trkpt lat="45.77531" lon="5.81559">
        <ele>385.9474</ele>
        <time>2014-11-22T16:00:05Z</time>
      </trkpt>
      <trkpt lat="45.77535" lon="5.81552">
        <ele>385.28644</ele>
        <time>2014-11-22T16:00:10Z</time>
      </trkpt>
      <trkpt lat="45.77541" lon="5.81547">
        <ele>385.28644</ele>
        <time>2014-11-22T16:00:15Z</time>
      </trkpt>
      <trkpt lat="45.77546" lon="5.8154">
        <ele>384.54477</ele>
        <time>2014-11-22T16:00:20Z</time>
      </trkpt>
      <trkpt lat="45.77551" lon="5.81534">
        <ele>384.54477</ele>
        <time>2014-11-22T16:00:25Z</time>
      </trkpt>
      <trkpt lat="45.77557" lon="5.81527">
        <ele>383.6834</ele>
        <time>2014-11-22T16:00:30Z</time>
      </trkpt>
      <trkpt lat="45.77562" lon="5.81521">
        <ele>383.6834</ele>
        <time>2014-11-22T16:00:35Z</time>
      </trkpt>
      <trkpt lat="45.77568" lon="5.81515">
        <ele>382.537</ele>
        <time>2014-11-22T16:00:40Z</time>
      </trkpt>
      <trkpt lat="45.77574" lon="5.81508">
        <ele>382.537</ele>
        <time>2014-11-22T16:00:45Z</time>
      </trkpt>
      <trkpt lat="45.7758" lon="5.81501">
        <ele>381.4286</ele>
        <time>2014-11-22T16:00:50Z</time>
      </trkpt>
      <trkpt lat="45.77585" lon="5.81492">
        <ele>381.4286</ele>
        <time>2014-11-22T16:00:55Z</time>
      </trkpt>
      <trkpt lat="45.7759" lon="5.81484">
        <ele>380.57104</ele>
        <time>2014-11-22T16:01:00Z</time>
      </trkpt>
      <trkpt lat="45.77596" lon="5.81477">
        <ele>380.57104</ele>
        <time>2014-11-22T16:01:05Z</time>
      </trkpt>
      <trkpt lat="45.77601" lon="5.8147">
        <ele>379.94473</ele>
        <time>2014-11-22T16:01:10Z</time>
      </trkpt>
      <trkpt lat="45.77607" lon="5.81463">
        <ele>379.94473</ele>
        <time>2014-11-22T16:01:15Z</time>
      </trkpt>
      <trkpt lat="45.77612" lon="5.81456">
        <ele>379.6605</ele>
        <time>2014-11-22T16:01:20Z</time>
      </trkpt>
      <trkpt lat="45.77616" lon="5.81448">
        <ele>379.6605</ele>
        <time>2014-11-22T16:01:25Z</time>
      </trkpt>
      <trkpt lat="45.77619" lon="5.8144">
        <ele>379.5752</ele>
        <time>2014-11-22T16:01:30Z</time>
      </trkpt>
      <trkpt lat="45.7762" lon="5.81432">
        <ele>379.5752</ele>
        <time>2014-11-22T16:01:35Z</time>
      </trkpt>
      <trkpt lat="45.77624" lon="5.81423">
        <ele>379.7718</ele>
        <time>2014-11-22T16:01:40Z</time>
      </trkpt>
      <trkpt lat="45.77626" lon="5.81413">
        <ele>379.7718</ele>
        <time>2014-11-22T16:01:45Z</time>
      </trkpt>
      <trkpt lat="45.77629" lon="5.81403">
        <ele>380.21118</ele>
        <time>2014-11-22T16:01:50Z</time>
      </trkpt>
      <trkpt lat="45.77631" lon="5.81392">
        <ele>380.21118</ele>
        <time>2014-11-22T16:01:55Z</time>
      </trkpt>
      <trkpt lat="45.77633" lon="5.81382">
        <ele>380.842</ele>
        <time>2014-11-22T16:02:00Z</time>
      </trkpt>
      <trkpt lat="45.77636" lon="5.81372">
        <ele>380.842</ele>
        <time>2014-11-22T16:02:05Z</time>
      </trkpt>
      <trkpt lat="45.77638" lon="5.81363">
        <ele>381.6307</ele>
        <time>2014-11-22T16:02:10Z</time>
      </trkpt>
      <trkpt lat="45.77639" lon="5.81352">
        <ele>381.6307</ele>
        <time>2014-11-22T16:02:15Z</time>
      </trkpt>
      <trkpt lat="45.77639" lon="5.81342">
        <ele>382.74756</ele>
        <time>2014-11-22T16:02:20Z</time>
      </trkpt>
      <trkpt lat="45.7764" lon="5.81334">
        <ele>382.74756</ele>
        <time>2014-11-22T16:02:25Z</time>
      </trkpt>
      <trkpt lat="45.77641" lon="5.81323">
        <ele>383.87387</ele>
        <time>2014-11-22T16:02:30Z</time>
      </trkpt>
      <trkpt lat="45.77643" lon="5.81311">
        <ele>383.87387</ele>
        <time>2014-11-22T16:02:35Z</time>
      </trkpt>
      <trkpt lat="45.77645" lon="5.813">
        <ele>385.27655</ele>
        <time>2014-11-22T16:02:40Z</time>
      </trkpt>
      <trkpt lat="45.77647" lon="5.81291">
        <ele>385.27655</ele>
        <time>2014-11-22T16:02:45Z</time>
      </trkpt>
      <trkpt lat="45.77651" lon="5.81282">
        <ele>386.81308</ele>
        <time>2014-11-22T16:02:50Z</time>
      </trkpt>
      <trkpt lat="45.77657" lon="5.81274">
        <ele>386.81308</ele>
        <time>2014-11-22T16:02:55Z</time>
      </trkpt>
      <trkpt lat="45.77662" lon="5.81267">
        <ele>388.43762</ele>
        <time>2014-11-22T16:03:00Z</time>
      </trkpt>
      <trkpt lat="45.77666" lon="5.81258">
        <ele>388.43762</ele>
        <time>2014-11-22T16:03:05Z</time>
      </trkpt>
      <trkpt lat="45.77669" lon="5.8125">
        <ele>390.19406</ele>
        <time>2014-11-22T16:03:10Z</time>
      </trkpt>
      <trkpt lat="45.77671" lon="5.81242">
        <ele>390.19406</ele>
        <time>2014-11-22T16:03:15Z</time>
      </trkpt>
      <trkpt lat="45.77674" lon="5.81233">
        <ele>391.9644</ele>
        <time>2014-11-22T16:03:20Z</time>
      </trkpt>
      <trkpt lat="45.77675" lon="5.81225">
        <ele>391.9644</ele>
        <time>2014-11-22T16:03:25Z</time>
      </trkpt>
      <trkpt lat="45.77676" lon="5.81215">
        <ele>393.5672</ele>
        <time>2014-11-22T16:03:30Z</time>
      </trkpt>
      <trkpt lat="45.77677" lon="5.81202">
        <ele>393.5672</ele>
        <time>2014-11-22T16:03:35Z</time>
      </trkpt>
      <trkpt lat="45.77678" lon="5.81192">
        <ele>395.51245</ele>
        <time>2014-11-22T16:03:40Z</time>
      </trkpt>
      <trkpt lat="45.77679" lon="5.81182">
        <ele>395.51245</ele>
        <time>2014-11-22T16:03:45Z</time>
      </trkpt>
      <trkpt lat="45.77677" lon="5.81174">
        <ele>396.9172</ele>
        <time>2014-11-22T16:03:50Z</time>
      </trkpt>
      <trkpt lat="45.77672" lon="5.81167">
        <ele>396.9172</ele>
        <time>2014-11-22T16:03:55Z</time>
      </trkpt>
      <trkpt lat="45.77668" lon="5.81157">
        <ele>398.37738</ele>
        <time>2014-11-22T16:04:00Z</time>
      </trkpt>
      <trkpt lat="45.77664" lon="5.81151">
        <ele>398.37738</ele>
        <time>2014-11-22T16:04:05Z</time>
      </trkpt>
      <trkpt lat="45.77664" lon="5.8114">
        <ele>399.71017</ele>
        <time>2014-11-22T16:04:10Z</time>
      </trkpt>
      <trkpt lat="45.77665" lon="5.8113">
        <ele>399.71017</ele>
        <time>2014-11-22T16:04:15Z</time>
      </trkpt>
      <trkpt lat="45.77665" lon="5.81122">
        <ele>401.07816</ele>
        <time>2014-11-22T16:04:20Z</time>
      </trkpt>
      <trkpt lat="45.77663" lon="5.81113">
        <ele>401.07816</ele>
        <time>2014-11-22T16:04:25Z</time>
      </trkpt>
      <trkpt lat="45.77663" lon="5.81102">
        <ele>402.5457</ele>
        <time>2014-11-22T16:04:30Z</time>
      </trkpt>
      <trkpt lat="45.77661" lon="5.81095">
        <ele>402.5457</ele>
        <time>2014-11-22T16:04:35Z</time>
      </trkpt>
      <trkpt lat="45.77656" lon="5.81088">
        <ele>403.8696</ele>
        <time>2014-11-22T16:04:40Z</time>
      </trkpt>
      <trkpt lat="45.77651" lon="5.81086">
        <ele>403.8696</ele>
        <time>2014-11-22T16:04:45Z</time>
      </trkpt>
      <trkpt lat="45.77647" lon="5.81084">
        <ele>403.8696</ele>
        <time>2014-11-22T16:04:50Z</time>
      </trkpt>
      <trkpt lat="45.77642" lon="5.8108">
        <ele>405.19992</ele>
        <time>2014-11-22T16:04:55Z</time>
      </trkpt>
      <trkpt lat="45.77636" lon="5.81076">
        <ele>405.19992</ele>
        <time>2014-11-22T16:05:00Z</time>
      </trkpt>
      <trkpt lat="45.77628" lon="5.81074">
        <ele>406.92078</ele>
        <time>2014-11-22T16:05:05Z</time>
      </trkpt>
      <trkpt lat="45.77621" lon="5.81072">
        <ele>406.92078</ele>
        <time>2014-11-22T16:05:10Z</time>
      </trkpt>
      <trkpt lat="45.77613" lon="5.8107">
        <ele>408.49377</ele>
        <time>2014-11-22T16:05:15Z</time>
      </trkpt>
      <trkpt lat="45.77606" lon="5.81069">
        <ele>408.49377</ele>
        <time>2014-11-22T16:05:20Z</time>
      </trkpt>
      <trkpt lat="45.776" lon="5.81065">
        <ele>410.04022</ele>
        <time>2014-11-22T16:05:25Z</time>
      </trkpt>
      <trkpt lat="45.77593" lon="5.81064">
        <ele>410.04022</ele>
        <time>2014-11-22T16:05:30Z</time>
      </trkpt>
      <trkpt lat="45.77586" lon="5.81062">
        <ele>411.47116</ele>
        <time>2014-11-22T16:05:35Z</time>
      </trkpt>
      <trkpt lat="45.77579" lon="5.8106">
        <ele>411.47116</ele>
        <time>2014-11-22T16:05:40Z</time>
      </trkpt>
      <trkpt lat="45.77572" lon="5.81057">
        <ele>412.81992</ele>
        <time>2014-11-22T16:05:45Z</time>
      </trkpt>
      <trkpt lat="45.77565" lon="5.81054">
        <ele>412.81992</ele>
        <time>2014-11-22T16:05:50Z</time>
      </trkpt>
      <trkpt lat="45.77558" lon="5.81052">
        <ele>414.23303</ele>
        <time>2014-11-22T16:05:55Z</time>
      </trkpt>
      <trkpt lat="45.77553" lon="5.81049">
        <ele>414.23303</ele>
        <time>2014-11-22T16:06:00Z</time>
      </trkpt>
      <trkpt lat="45.77546" lon="5.81048">
        <ele>415.67343</ele>
        <time>2014-11-22T16:06:05Z</time>
      </trkpt>
      <trkpt lat="45.77539" lon="5.81046">
        <ele>415.67343</ele>
        <time>2014-11-22T16:06:10Z</time>
      </trkpt>
      <trkpt lat="45.77533" lon="5.81041">
        <ele>417.0492</ele>
        <time>2014-11-22T16:06:15Z</time>
      </trkpt>
      <trkpt lat="45.7753" lon="5.81033">
        <ele>417.0492</ele>
        <time>2014-11-22T16:06:20Z</time>
      </trkpt>
      <trkpt lat="45.77529" lon="5.81024">
        <ele>418.23227</ele>
        <time>2014-11-22T16:06:25Z</time>
      </trkpt>
      <trkpt lat="45.77529" lon="5.81014">
        <ele>418.23227</ele>
        <time>2014-11-22T16:06:30Z</time>
      </trkpt>
      <trkpt lat="45.7753" lon="5.81003">
        <ele>419.50824</ele>
        <time>2014-11-22T16:06:35Z</time>
      </trkpt>
      <trkpt lat="45.77529" lon="5.80993">
        <ele>419.50824</ele>
        <time>2014-11-22T16:06:40Z</time>
      </trkpt>
      <trkpt lat="45.77529" lon="5.80984">
        <ele>420.70932</ele>
        <time>2014-11-22T16:06:45Z</time>
      </trkpt>
      <trkpt lat="45.7753" lon="5.80974">
        <ele>420.70932</ele>
        <time>2014-11-22T16:06:50Z</time>
      </trkpt>
      <trkpt lat="45.77529" lon="5.80965">
        <ele>421.55066</ele>
        <time>2014-11-22T16:06:55Z</time>
      </trkpt>
      <trkpt lat="45.7753" lon="5.80956">
        <ele>421.55066</ele>
        <time>2014-11-22T16:07:00Z</time>
      </trkpt>
      <trkpt lat="45.77531" lon="5.80948">
        <ele>421.89926</ele>
        <time>2014-11-22T16:07:05Z</time>
      </trkpt>
      <trkpt lat="45.77532" lon="5.8094">
        <ele>421.89926</ele>
        <time>2014-11-22T16:07:10Z</time>
      </trkpt>
      <trkpt lat="45.77532" lon="5.80929">
        <ele>422.12335</ele>
        <time>2014-11-22T16:07:15Z</time>
      </trkpt>
      <trkpt lat="45.77533" lon="5.8092">
        <ele>422.12335</ele>
        <time>2014-11-22T16:07:20Z</time>
      </trkpt>
      <trkpt lat="45.77534" lon="5.80914">
        <ele>421.68558</ele>
        <time>2014-11-22T16:07:25Z</time>
      </trkpt>
      <trkpt lat="45.77536" lon="5.80906">
        <ele>421.68558</ele>
        <time>2014-11-22T16:07:30Z</time>
      </trkpt>
      <trkpt lat="45.77536" lon="5.80898">
        <ele>421.40137</ele>
        <time>2014-11-22T16:07:35Z</time>
      </trkpt>
      <trkpt lat="45.77537" lon="5.80886">
        <ele>421.40137</ele>
        <time>2014-11-22T16:07:40Z</time>
      </trkpt>
      <trkpt lat="45.77537" lon="5.80876">
        <ele>421.65125</ele>
        <time>2014-11-22T16:07:45Z</time>
      </trkpt>
      <trkpt lat="45.77539" lon="5.80866">
        <ele>421.65125</ele>
        <time>2014-11-22T16:07:50Z</time>
      </trkpt>
      <trkpt lat="45.77538" lon="5.80855">
        <ele>422.52707</ele>
        <time>2014-11-22T16:07:55Z</time>
      </trkpt>
      <trkpt lat="45.77539" lon="5.80845">
        <ele>422.52707</ele>
        <time>2014-11-22T16:08:00Z</time>
      </trkpt>
      <trkpt lat="45.77538" lon="5.80837">
        <ele>423.46365</ele>
        <time>2014-11-22T16:08:05Z</time>
      </trkpt>
      <trkpt lat="45.77534" lon="5.80829">
        <ele>423.46365</ele>
        <time>2014-11-22T16:08:10Z</time>
      </trkpt>
      <trkpt lat="45.7753" lon="5.80821">
        <ele>424.47052</ele>
        <time>2014-11-22T16:08:15Z</time>
      </trkpt>
      <trkpt lat="45.77525" lon="5.80811">
        <ele>424.47052</ele>
        <time>2014-11-22T16:08:20Z</time>
      </trkpt>
      <trkpt lat="45.77521" lon="5.80804">
        <ele>425.71484</ele>
        <time>2014-11-22T16:08:25Z</time>
      </trkpt>
      <trkpt lat="45.77519" lon="5.80795">
        <ele>425.71484</ele>
        <time>2014-11-22T16:08:30Z</time>
      </trkpt>
      <trkpt lat="45.77516" lon="5.80792">
        <ele>427.25006</ele>
        <time>2014-11-22T16:08:35Z</time>
      </trkpt>
      <trkpt lat="45.77517" lon="5.80792">
        <ele>427.25006</ele>
        <time>2014-11-22T16:08:40Z</time>
      </trkpt>
      <trkpt lat="45.77517" lon="5.80792">
        <ele>427.25006</ele>
        <time>2014-11-22T16:08:45Z</time>
      </trkpt>
      <trkpt lat="45.77516" lon="5.80794">
        <ele>427.25006</ele>
        <time>2014-11-22T16:08:50Z</time>
      </trkpt>
      <trkpt lat="45.77516" lon="5.80792">
        <ele>427.25006</ele>
        <time>2014-11-22T16:08:55Z</time>
      </trkpt>
      <trkpt lat="45.77516" lon="5.80791">
        <ele>427.25006</ele>
        <time>2014-11-22T16:09:00Z</time>
      </trkpt>
      <trkpt lat="45.77516" lon="5.8079">
        <ele>427.25006</ele>
        <time>2014-11-22T16:09:05Z</time>
      </trkpt>
      <trkpt lat="45.77515" lon="5.80789">
        <ele>427.25006</ele>
        <time>2014-11-22T16:09:10Z</time>
      </trkpt>
      <trkpt lat="45.77516" lon="5.8079">
        <ele>427.25006</ele>
        <time>2014-11-22T16:09:15Z</time>
      </trkpt>
      <trkpt lat="45.77516" lon="5.8079">
        <ele>427.25006</ele>
        <time>2014-11-22T16:09:20Z</time>
      </trkpt>
      <trkpt lat="45.77516" lon="5.8079">
        <ele>427.25006</ele>
        <time>2014-11-22T16:09:25Z</time>
      </trkpt>
      <trkpt lat="45.77517" lon="5.8079">
        <ele>427.25006</ele>
        <time>2014-11-22T16:09:30Z</time>
      </trkpt>
      <trkpt lat="45.77517" lon="5.8079">
        <ele>427.25006</ele>
        <time>2014-11-22T16:09:35Z</time>
      </trkpt>
      <trkpt lat="45.77516" lon="5.80787">
        <ele>429.03848</ele>
        <time>2014-11-22T16:09:40Z</time>
      </trkpt>
      <trkpt lat="45.77515" lon="5.8078">
        <ele>429.03848</ele>
        <time>2014-11-22T16:09:45Z</time>
      </trkpt>
      <trkpt lat="45.77516" lon="5.80772">
        <ele>430.5401</ele>
        <time>2014-11-22T16:09:50Z</time>
      </trkpt>
      <trkpt lat="45.77515" lon="5.80765">
        <ele>430.5401</ele>
        <time>2014-11-22T16:09:55Z</time>
      </trkpt>
      <trkpt lat="45.77515" lon="5.80757">
        <ele>431.60135</ele>
        <time>2014-11-22T16:10:00Z</time>
      </trkpt>
      <trkpt lat="45.77513" lon="5.80748">
        <ele>431.60135</ele>
        <time>2014-11-22T16:10:05Z</time>
      </trkpt>
      <trkpt lat="45.77511" lon="5.80742">
        <ele>432.08124</ele>
        <time>2014-11-22T16:10:10Z</time>
      </trkpt>
      <trkpt lat="45.77511" lon="5.80739">
        <ele>432.08124</ele>
        <time>2014-11-22T16:10:15Z</time>
      </trkpt>
      <trkpt lat="45.7751" lon="5.80739">
        <ele>432.08124</ele>
        <time>2014-11-22T16:10:20Z</time>
      </trkpt>
      <trkpt lat="45.7751" lon="5.80739">
        <ele>432.08124</ele>
        <time>2014-11-22T16:10:25Z</time>
      </trkpt>
      <trkpt lat="45.7751" lon="5.80738">
        <ele>432.08124</ele>
        <time>2014-11-22T16:10:30Z</time>
      </trkpt>
      <trkpt lat="45.7751" lon="5.80737">
        <ele>432.08124</ele>
        <time>2014-11-22T16:10:35Z</time>
      </trkpt>
      <trkpt lat="45.7751" lon="5.80737">
        <ele>432.08124</ele>
        <time>2014-11-22T16:10:40Z</time>
      </trkpt>
      <trkpt lat="45.7751" lon="5.80733">
        <ele>432.08124</ele>
        <time>2014-11-22T16:10:45Z</time>
      </trkpt>
      <trkpt lat="45.77509" lon="5.80724">
        <ele>432.61462</ele>
        <time>2014-11-22T16:10:50Z</time>
      </trkpt>
      <trkpt lat="45.77509" lon="5.80718">
        <ele>432.61462</ele>
        <time>2014-11-22T16:10:55Z</time>
      </trkpt>
      <trkpt lat="45.77508" lon="5.80709">
        <ele>432.98257</ele>
        <time>2014-11-22T16:11:00Z</time>
      </trkpt>
      <trkpt lat="45.77507" lon="5.80701">
        <ele>432.98257</ele>
        <time>2014-11-22T16:11:05Z</time>
      </trkpt>
      <trkpt lat="45.77508" lon="5.80691">
        <ele>433.05484</ele>
        <time>2014-11-22T16:11:10Z</time>
      </trkpt>
      <trkpt lat="45.77506" lon="5.80682">
        <ele>433.05484</ele>
        <time>2014-11-22T16:11:15Z</time>
      </trkpt>
      <trkpt lat="45.77507" lon="5.80672">
        <ele>433.2448</ele>
        <time>2014-11-22T16:11:20Z</time>
      </trkpt>
      <trkpt lat="45.77511" lon="5.80664">
        <ele>433.2448</ele>
        <time>2014-11-22T16:11:25Z</time>
      </trkpt>
      <trkpt lat="45.77513" lon="5.80654">
        <ele>433.474</ele>
        <time>2014-11-22T16:11:30Z</time>
      </trkpt>
      <trkpt lat="45.77517" lon="5.80647">
        <ele>433.474</ele>
        <time>2014-11-22T16:11:35Z</time>
      </trkpt>
      <trkpt lat="45.77519" lon="5.8064">
        <ele>433.98672</ele>
        <time>2014-11-22T16:11:40Z</time>
      </trkpt>
      <trkpt lat="45.77521" lon="5.80632">
        <ele>433.98672</ele>
        <time>2014-11-22T16:11:45Z</time>
      </trkpt>
      <trkpt lat="45.77523" lon="5.80625">
        <ele>434.25916</ele>
        <time>2014-11-22T16:11:51Z</time>
      </trkpt>
      <trkpt lat="45.77524" lon="5.8062">
        <ele>434.25916</ele>
        <time>2014-11-22T16:11:55Z</time>
      </trkpt>
      <trkpt lat="45.77523" lon="5.8061">
        <ele>433.89307</ele>
        <time>2014-11-22T16:12:00Z</time>
      </trkpt>
      <trkpt lat="45.77521" lon="5.80599">
        <ele>433.89307</ele>
        <time>2014-11-22T16:12:05Z</time>
      </trkpt>
      <trkpt lat="45.7752" lon="5.8059">
        <ele>433.51566</ele>
        <time>2014-11-22T16:12:10Z</time>
      </trkpt>
      <trkpt lat="45.7752" lon="5.80579">
        <ele>433.51566</ele>
        <time>2014-11-22T16:12:16Z</time>
      </trkpt>
      <trkpt lat="45.77521" lon="5.80572">
        <ele>433.10278</ele>
        <time>2014-11-22T16:12:20Z</time>
      </trkpt>
      <trkpt lat="45.77522" lon="5.80565">
        <ele>433.10278</ele>
        <time>2014-11-22T16:12:26Z</time>
      </trkpt>
      <trkpt lat="45.77525" lon="5.80557">
        <ele>432.3728</ele>
        <time>2014-11-22T16:12:31Z</time>
      </trkpt>
      <trkpt lat="45.77527" lon="5.80545">
        <ele>432.3728</ele>
        <time>2014-11-22T16:12:36Z</time>
      </trkpt>
      <trkpt lat="45.7753" lon="5.80538">
        <ele>431.64203</ele>
        <time>2014-11-22T16:12:41Z</time>
      </trkpt>
      <trkpt lat="45.77532" lon="5.80529">
        <ele>431.64203</ele>
        <time>2014-11-22T16:12:46Z</time>
      </trkpt>
      <trkpt lat="45.77532" lon="5.80523">
        <ele>430.51175</ele>
        <time>2014-11-22T16:12:51Z</time>
      </trkpt>
      <trkpt lat="45.77532" lon="5.80515">
        <ele>430.51175</ele>
        <time>2014-11-22T16:12:56Z</time>
      </trkpt>
      <trkpt lat="45.77533" lon="5.80513">
        <ele>430.51175</ele>
        <time>2014-11-22T16:13:01Z</time>
      </trkpt>
      <trkpt lat="45.77532" lon="5.80511">
        <ele>430.51175</ele>
        <time>2014-11-22T16:13:06Z</time>
      </trkpt>
      <trkpt lat="45.77532" lon="5.80509">
        <ele>429.69446</ele>
        <time>2014-11-22T16:13:11Z</time>
      </trkpt>
      <trkpt lat="45.77532" lon="5.80508">
        <ele>429.69446</ele>
        <time>2014-11-22T16:13:15Z</time>
      </trkpt>
      <trkpt lat="45.77532" lon="5.80509">
        <ele>429.69446</ele>
        <time>2014-11-22T16:13:21Z</time>
      </trkpt>
      <trkpt lat="45.77532" lon="5.80508">
        <ele>429.69446</ele>
        <time>2014-11-22T16:13:26Z</time>
      </trkpt>
      <trkpt lat="45.77532" lon="5.80508">
        <ele>429.69446</ele>
        <time>2014-11-22T16:13:32Z</time>
      </trkpt>
      <trkpt lat="45.77532" lon="5.80508">
        <ele>429.69446</ele>
        <time>2014-11-22T16:13:36Z</time>
      </trkpt>
      <trkpt lat="45.77532" lon="5.80508">
        <ele>429.69446</ele>
        <time>2014-11-22T16:13:42Z</time>
      </trkpt>
      <trkpt lat="45.77532" lon="5.80508">
        <ele>429.69446</ele>
        <time>2014-11-22T16:13:46Z</time>
      </trkpt>
      <trkpt lat="45.77532" lon="5.80508">
        <ele>429.69446</ele>
        <time>2014-11-22T16:13:52Z</time>
      </trkpt>
      <trkpt lat="45.77532" lon="5.80508">
        <ele>429.69446</ele>
        <time>2014-11-22T16:13:56Z</time>
      </trkpt>
      <trkpt lat="45.7753" lon="5.80506">
        <ele>429.69446</ele>
        <time>2014-11-22T16:14:01Z</time>
      </trkpt>
      <trkpt lat="45.7753" lon="5.80505">
        <ele>429.69446</ele>
        <time>2014-11-22T16:14:06Z</time>
      </trkpt>
      <trkpt lat="45.7753" lon="5.80505">
        <ele>429.69446</ele>
        <time>2014-11-22T16:14:11Z</time>
      </trkpt>
      <trkpt lat="45.7753" lon="5.80505">
        <ele>429.69446</ele>
        <time>2014-11-22T16:14:15Z</time>
      </trkpt>
      <trkpt lat="45.7753" lon="5.80505">
        <ele>429.69446</ele>
        <time>2014-11-22T16:14:20Z</time>
      </trkpt>
      <trkpt lat="45.7753" lon="5.80505">
        <ele>429.69446</ele>
        <time>2014-11-22T16:14:26Z</time>
      </trkpt>
      <trkpt lat="45.7753" lon="5.80505">
        <ele>429.69446</ele>
        <time>2014-11-22T16:14:31Z</time>
      </trkpt>
      <trkpt lat="45.7753" lon="5.80505">
        <ele>429.69446</ele>
        <time>2014-11-22T16:14:36Z</time>
      </trkpt>
      <trkpt lat="45.7753" lon="5.80505">
        <ele>429.69446</ele>
        <time>2014-11-22T16:14:40Z</time>
      </trkpt>
      <trkpt lat="45.77531" lon="5.80506">
        <ele>429.69446</ele>
        <time>2014-11-22T16:14:46Z</time>
      </trkpt>
      <trkpt lat="45.7753" lon="5.80508">
        <ele>429.69446</ele>
        <time>2014-11-22T16:14:52Z</time>
      </trkpt>
      <trkpt lat="45.7753" lon="5.80507">
        <ele>429.69446</ele>
        <time>2014-11-22T16:14:56Z</time>
      </trkpt>
      <trkpt lat="45.77531" lon="5.80508">
        <ele>428.58118</ele>
        <time>2014-11-22T16:15:01Z</time>
      </trkpt>
      <trkpt lat="45.77531" lon="5.80508">
        <ele>428.58118</ele>
        <time>2014-11-22T16:15:06Z</time>
      </trkpt>
      <trkpt lat="45.77531" lon="5.80508">
        <ele>428.58118</ele>
        <time>2014-11-22T16:15:11Z</time>
      </trkpt>
      <trkpt lat="45.77531" lon="5.80508">
        <ele>428.58118</ele>
        <time>2014-11-22T16:15:16Z</time>
      </trkpt>
      <trkpt lat="45.77531" lon="5.80508">
        <ele>428.58118</ele>
        <time>2014-11-22T16:15:21Z</time>
      </trkpt>
      <trkpt lat="45.77531" lon="5.80508">
        <ele>428.58118</ele>
        <time>2014-11-22T16:15:26Z</time>
      </trkpt>
      <trkpt lat="45.77531" lon="5.80508">
        <ele>428.58118</ele>
        <time>2014-11-22T16:15:31Z</time>
      </trkpt>
      <trkpt lat="45.77531" lon="5.80508">
        <ele>428.58118</ele>
        <time>2014-11-22T16:15:36Z</time>
      </trkpt>
      <trkpt lat="45.77531" lon="5.80508">
        <ele>428.58118</ele>
        <time>2014-11-22T16:15:41Z</time>
      </trkpt>
      <trkpt lat="45.77531" lon="5.80508">
        <ele>428.58118</ele>
        <time>2014-11-22T16:15:46Z</time>
      </trkpt>
      <trkpt lat="45.77531" lon="5.80508">
        <ele>428.58118</ele>
        <time>2014-11-22T16:15:50Z</time>
      </trkpt>
      <trkpt lat="45.77531" lon="5.80508">
        <ele>428.58118</ele>
        <time>2014-11-22T16:15:56Z</time>
      </trkpt>
      <trkpt lat="45.77531" lon="5.80508">
        <ele>428.58118</ele>
        <time>2014-11-22T16:16:01Z</time>
      </trkpt>
      <trkpt lat="45.77531" lon="5.80508">
        <ele>428.58118</ele>
        <time>2014-11-22T16:16:05Z</time>
      </trkpt>
      <trkpt lat="45.77531" lon="5.80508">
        <ele>428.58118</ele>
        <time>2014-11-22T16:16:11Z</time>
      </trkpt>
      <trkpt lat="45.77531" lon="5.80508">
        <ele>428.58118</ele>
        <time>2014-11-22T16:16:16Z</time>
      </trkpt>
      <trkpt lat="45.77531" lon="5.80508">
        <ele>428.58118</ele>
        <time>2014-11-22T16:16:21Z</time>
      </trkpt>
      <trkpt lat="45.77531" lon="5.80508">
        <ele>428.58118</ele>
        <time>2014-11-22T16:16:27Z</time>
      </trkpt>
      <trkpt lat="45.77531" lon="5.80508">
        <ele>428.58118</ele>
        <time>2014-11-22T16:16:31Z</time>
      </trkpt>
      <trkpt lat="45.77531" lon="5.80506">
        <ele>428.58118</ele>
        <time>2014-11-22T16:16:37Z</time>
      </trkpt>
      <trkpt lat="45.77532" lon="5.80507">
        <ele>428.58118</ele>
        <time>2014-11-22T16:16:40Z</time>
      </trkpt>
      <trkpt lat="45.77532" lon="5.80506">
        <ele>428.58118</ele>
        <time>2014-11-22T16:16:45Z</time>
      </trkpt>
    </trkseg>
  </trk>
  <trk>
    <name><![CDATA[boucle St Pierre d\'Alvey/St Pierre de Curtille_2]]></name>
    <trkseg>
      <trkpt lat="45.7754" lon="5.80505">
        <ele>432.4</ele>
      </trkpt>
      <trkpt lat="45.7754" lon="5.80504">
        <ele>432.3</ele>
      </trkpt>
      <trkpt lat="45.77542" lon="5.80501">
        <ele>432.1</ele>
      </trkpt>
      <trkpt lat="45.77545" lon="5.80498">
        <ele>432</ele>
      </trkpt>
      <trkpt lat="45.77548" lon="5.80496">
        <ele>432</ele>
      </trkpt>
      <trkpt lat="45.77551" lon="5.80494">
        <ele>432</ele>
      </trkpt>
      <trkpt lat="45.77554" lon="5.80491">
        <ele>432</ele>
      </trkpt>
      <trkpt lat="45.77556" lon="5.80489">
        <ele>432</ele>
      </trkpt>
      <trkpt lat="45.77557" lon="5.80487">
        <ele>431.9</ele>
      </trkpt>
      <trkpt lat="45.7756" lon="5.80485">
        <ele>431.8</ele>
      </trkpt>
      <trkpt lat="45.77563" lon="5.80482">
        <ele>431.6</ele>
      </trkpt>
      <trkpt lat="45.77565" lon="5.8048">
        <ele>431.6</ele>
      </trkpt>
      <trkpt lat="45.77567" lon="5.80478">
        <ele>431.5</ele>
      </trkpt>
      <trkpt lat="45.77569" lon="5.80475">
        <ele>431.5</ele>
      </trkpt>
      <trkpt lat="45.7757" lon="5.80473">
        <ele>431.5</ele>
      </trkpt>
      <trkpt lat="45.77571" lon="5.8047">
        <ele>431.4</ele>
      </trkpt>
      <trkpt lat="45.77572" lon="5.80467">
        <ele>431.2</ele>
      </trkpt>
      <trkpt lat="45.77574" lon="5.80465">
        <ele>431.1</ele>
      </trkpt>
      <trkpt lat="45.77575" lon="5.80464">
        <ele>431</ele>
      </trkpt>
      <trkpt lat="45.77577" lon="5.80463">
        <ele>430.9</ele>
      </trkpt>
      <trkpt lat="45.77579" lon="5.80462">
        <ele>430.8</ele>
      </trkpt>
      <trkpt lat="45.77582" lon="5.80461">
        <ele>430.6</ele>
      </trkpt>
      <trkpt lat="45.77584" lon="5.80461">
        <ele>430.6</ele>
      </trkpt>
      <trkpt lat="45.77588" lon="5.8046">
        <ele>430.6</ele>
      </trkpt>
      <trkpt lat="45.77591" lon="5.8046">
        <ele>430.7</ele>
      </trkpt>
      <trkpt lat="45.77594" lon="5.80459">
        <ele>430.7</ele>
      </trkpt>
      <trkpt lat="45.77597" lon="5.80459">
        <ele>430.8</ele>
      </trkpt>
      <trkpt lat="45.776" lon="5.80459">
        <ele>430.8</ele>
      </trkpt>
      <trkpt lat="45.77604" lon="5.80458">
        <ele>430.9</ele>
      </trkpt>
      <trkpt lat="45.77607" lon="5.80458">
        <ele>430.9</ele>
      </trkpt>
      <trkpt lat="45.77611" lon="5.80457">
        <ele>431</ele>
      </trkpt>
      <trkpt lat="45.77614" lon="5.80455">
        <ele>431</ele>
      </trkpt>
      <trkpt lat="45.77616" lon="5.80453">
        <ele>431</ele>
      </trkpt>
      <trkpt lat="45.77618" lon="5.80451">
        <ele>431</ele>
      </trkpt>
      <trkpt lat="45.77619" lon="5.80449">
        <ele>431</ele>
      </trkpt>
      <trkpt lat="45.77621" lon="5.80446">
        <ele>431</ele>
      </trkpt>
      <trkpt lat="45.77622" lon="5.80443">
        <ele>431.1</ele>
      </trkpt>
      <trkpt lat="45.77623" lon="5.80441">
        <ele>431.2</ele>
      </trkpt>
      <trkpt lat="45.77624" lon="5.80437">
        <ele>431.4</ele>
      </trkpt>
      <trkpt lat="45.77624" lon="5.80434">
        <ele>431.6</ele>
      </trkpt>
      <trkpt lat="45.77625" lon="5.8043">
        <ele>431.8</ele>
      </trkpt>
      <trkpt lat="45.77627" lon="5.80421">
        <ele>432.3</ele>
      </trkpt>
      <trkpt lat="45.77629" lon="5.8041">
        <ele>433</ele>
      </trkpt>
      <trkpt lat="45.77631" lon="5.80405">
        <ele>433.4</ele>
      </trkpt>
      <trkpt lat="45.77632" lon="5.804">
        <ele>433.8</ele>
      </trkpt>
      <trkpt lat="45.77634" lon="5.80398">
        <ele>434</ele>
      </trkpt>
      <trkpt lat="45.77637" lon="5.80395">
        <ele>434.5</ele>
      </trkpt>
      <trkpt lat="45.7764" lon="5.80389">
        <ele>435</ele>
      </trkpt>
      <trkpt lat="45.77644" lon="5.8038">
        <ele>435.4</ele>
      </trkpt>
      <trkpt lat="45.77647" lon="5.80368">
        <ele>436</ele>
      </trkpt>
      <trkpt lat="45.77649" lon="5.80355">
        <ele>436.8</ele>
      </trkpt>
      <trkpt lat="45.77649" lon="5.80342">
        <ele>437.8</ele>
      </trkpt>
      <trkpt lat="45.77648" lon="5.80327">
        <ele>439</ele>
      </trkpt>
      <trkpt lat="45.77644" lon="5.80313">
        <ele>440.4</ele>
      </trkpt>
      <trkpt lat="45.77643" lon="5.80309">
        <ele>440.8</ele>
      </trkpt>
      <trkpt lat="45.77641" lon="5.80302">
        <ele>441.5</ele>
      </trkpt>
      <trkpt lat="45.77636" lon="5.80292">
        <ele>442.4</ele>
      </trkpt>
      <trkpt lat="45.77629" lon="5.80279">
        <ele>443.5</ele>
      </trkpt>
      <trkpt lat="45.77622" lon="5.80266">
        <ele>444.9</ele>
      </trkpt>
      <trkpt lat="45.77612" lon="5.80255">
        <ele>446.3</ele>
      </trkpt>
      <trkpt lat="45.77598" lon="5.8024">
        <ele>449.8</ele>
      </trkpt>
      <trkpt lat="45.77589" lon="5.8023">
        <ele>451.8</ele>
      </trkpt>
      <trkpt lat="45.7758" lon="5.80223">
        <ele>452.9</ele>
      </trkpt>
      <trkpt lat="45.77565" lon="5.80211">
        <ele>455.1</ele>
      </trkpt>
      <trkpt lat="45.77554" lon="5.80198">
        <ele>457.3</ele>
      </trkpt>
      <trkpt lat="45.77544" lon="5.80191">
        <ele>458.1</ele>
      </trkpt>
      <trkpt lat="45.77536" lon="5.80185">
        <ele>458.5</ele>
      </trkpt>
      <trkpt lat="45.7753" lon="5.8018">
        <ele>458.7</ele>
      </trkpt>
      <trkpt lat="45.77527" lon="5.80174">
        <ele>459.1</ele>
      </trkpt>
      <trkpt lat="45.77525" lon="5.80168">
        <ele>459.6</ele>
      </trkpt>
      <trkpt lat="45.77524" lon="5.80162">
        <ele>459.8</ele>
      </trkpt>
      <trkpt lat="45.77524" lon="5.80156">
        <ele>460</ele>
      </trkpt>
      <trkpt lat="45.77524" lon="5.80151">
        <ele>460.2</ele>
      </trkpt>
      <trkpt lat="45.77523" lon="5.80141">
        <ele>460.4</ele>
      </trkpt>
      <trkpt lat="45.77514" lon="5.80129">
        <ele>460.6</ele>
      </trkpt>
      <trkpt lat="45.77495" lon="5.8012">
        <ele>459.5</ele>
      </trkpt>
      <trkpt lat="45.77453" lon="5.801">
        <ele>459.2</ele>
      </trkpt>
      <trkpt lat="45.77409" lon="5.80104">
        <ele>453.6</ele>
      </trkpt>
      <trkpt lat="45.77387" lon="5.80155">
        <ele>447.7</ele>
      </trkpt>
      <trkpt lat="45.77378" lon="5.80211">
        <ele>440.5</ele>
      </trkpt>
      <trkpt lat="45.77366" lon="5.80263">
        <ele>437.3</ele>
      </trkpt>
      <trkpt lat="45.77335" lon="5.80308">
        <ele>431.8</ele>
      </trkpt>
      <trkpt lat="45.77303" lon="5.80331">
        <ele>425.5</ele>
      </trkpt>
      <trkpt lat="45.77282" lon="5.80374">
        <ele>417.4</ele>
      </trkpt>
      <trkpt lat="45.77273" lon="5.80434">
        <ele>408</ele>
      </trkpt>
      <trkpt lat="45.77268" lon="5.80426">
        <ele>408.5</ele>
      </trkpt>
      <trkpt lat="45.77261" lon="5.80419">
        <ele>408.1</ele>
      </trkpt>
      <trkpt lat="45.77254" lon="5.80413">
        <ele>407.5</ele>
      </trkpt>
      <trkpt lat="45.77245" lon="5.80405">
        <ele>407.3</ele>
      </trkpt>
      <trkpt lat="45.77237" lon="5.80398">
        <ele>406.9</ele>
      </trkpt>
      <trkpt lat="45.77229" lon="5.8039">
        <ele>406.3</ele>
      </trkpt>
      <trkpt lat="45.77221" lon="5.80382">
        <ele>405.6</ele>
      </trkpt>
      <trkpt lat="45.77216" lon="5.80375">
        <ele>405.6</ele>
      </trkpt>
      <trkpt lat="45.77207" lon="5.80367">
        <ele>405.2</ele>
      </trkpt>
      <trkpt lat="45.77199" lon="5.80359">
        <ele>405</ele>
      </trkpt>
      <trkpt lat="45.77192" lon="5.80352">
        <ele>405.1</ele>
      </trkpt>
      <trkpt lat="45.77184" lon="5.80345">
        <ele>405.2</ele>
      </trkpt>
      <trkpt lat="45.77178" lon="5.80339">
        <ele>405.4</ele>
      </trkpt>
      <trkpt lat="45.77173" lon="5.80334">
        <ele>405.6</ele>
      </trkpt>
      <trkpt lat="45.7716" lon="5.8032">
        <ele>406.6</ele>
      </trkpt>
      <trkpt lat="45.77152" lon="5.80311">
        <ele>407</ele>
      </trkpt>
      <trkpt lat="45.77144" lon="5.80302">
        <ele>407.4</ele>
      </trkpt>
      <trkpt lat="45.77138" lon="5.80294">
        <ele>408.4</ele>
      </trkpt>
      <trkpt lat="45.77132" lon="5.80287">
        <ele>409</ele>
      </trkpt>
      <trkpt lat="45.77127" lon="5.8028">
        <ele>409.5</ele>
      </trkpt>
      <trkpt lat="45.77121" lon="5.80274">
        <ele>409.6</ele>
      </trkpt>
      <trkpt lat="45.77113" lon="5.80268">
        <ele>409.7</ele>
      </trkpt>
      <trkpt lat="45.77108" lon="5.80263">
        <ele>410.5</ele>
      </trkpt>
      <trkpt lat="45.77101" lon="5.80259">
        <ele>411</ele>
      </trkpt>
      <trkpt lat="45.77093" lon="5.80254">
        <ele>411.7</ele>
      </trkpt>
      <trkpt lat="45.77086" lon="5.80249">
        <ele>412.3</ele>
      </trkpt>
      <trkpt lat="45.77078" lon="5.80245">
        <ele>412.5</ele>
      </trkpt>
      <trkpt lat="45.7707" lon="5.80241">
        <ele>412.7</ele>
      </trkpt>
      <trkpt lat="45.77062" lon="5.80237">
        <ele>412.8</ele>
      </trkpt>
      <trkpt lat="45.77054" lon="5.80234">
        <ele>412.7</ele>
      </trkpt>
      <trkpt lat="45.77046" lon="5.80231">
        <ele>413.1</ele>
      </trkpt>
      <trkpt lat="45.77038" lon="5.80229">
        <ele>413.3</ele>
      </trkpt>
      <trkpt lat="45.77025" lon="5.80225">
        <ele>413.6</ele>
      </trkpt>
      <trkpt lat="45.77015" lon="5.80222">
        <ele>413.6</ele>
      </trkpt>
      <trkpt lat="45.77008" lon="5.8022">
        <ele>413.5</ele>
      </trkpt>
      <trkpt lat="45.76999" lon="5.80218">
        <ele>413.4</ele>
      </trkpt>
      <trkpt lat="45.76991" lon="5.80216">
        <ele>413.4</ele>
      </trkpt>
      <trkpt lat="45.76982" lon="5.80214">
        <ele>413.4</ele>
      </trkpt>
      <trkpt lat="45.76975" lon="5.80212">
        <ele>413.5</ele>
      </trkpt>
      <trkpt lat="45.76965" lon="5.8021">
        <ele>414.1</ele>
      </trkpt>
      <trkpt lat="45.76957" lon="5.80207">
        <ele>414.7</ele>
      </trkpt>
      <trkpt lat="45.76949" lon="5.80204">
        <ele>415.2</ele>
      </trkpt>
      <trkpt lat="45.76942" lon="5.80201">
        <ele>415.7</ele>
      </trkpt>
      <trkpt lat="45.76934" lon="5.80196">
        <ele>416.6</ele>
      </trkpt>
      <trkpt lat="45.76927" lon="5.80191">
        <ele>417.2</ele>
      </trkpt>
      <trkpt lat="45.7692" lon="5.80185">
        <ele>417.5</ele>
      </trkpt>
      <trkpt lat="45.76913" lon="5.80178">
        <ele>417.8</ele>
      </trkpt>
      <trkpt lat="45.76907" lon="5.8017">
        <ele>418.2</ele>
      </trkpt>
      <trkpt lat="45.76899" lon="5.8016">
        <ele>418.6</ele>
      </trkpt>
      <trkpt lat="45.76889" lon="5.80147">
        <ele>418.6</ele>
      </trkpt>
      <trkpt lat="45.76881" lon="5.80135">
        <ele>419.4</ele>
      </trkpt>
      <trkpt lat="45.76872" lon="5.80124">
        <ele>420.3</ele>
      </trkpt>
      <trkpt lat="45.76866" lon="5.80117">
        <ele>420.3</ele>
      </trkpt>
      <trkpt lat="45.76859" lon="5.80107">
        <ele>420.6</ele>
      </trkpt>
      <trkpt lat="45.76855" lon="5.80099">
        <ele>421.6</ele>
      </trkpt>
      <trkpt lat="45.76852" lon="5.80095">
        <ele>422.1</ele>
      </trkpt>
      <trkpt lat="45.76849" lon="5.80088">
        <ele>422.7</ele>
      </trkpt>
      <trkpt lat="45.76846" lon="5.80079">
        <ele>423.7</ele>
      </trkpt>
      <trkpt lat="45.76844" lon="5.80072">
        <ele>424.8</ele>
      </trkpt>
      <trkpt lat="45.76843" lon="5.8006">
        <ele>426.4</ele>
      </trkpt>
      <trkpt lat="45.76843" lon="5.80052">
        <ele>427.3</ele>
      </trkpt>
      <trkpt lat="45.76846" lon="5.8004">
        <ele>428</ele>
      </trkpt>
      <trkpt lat="45.76859" lon="5.80015">
        <ele>425.2</ele>
      </trkpt>
      <trkpt lat="45.76855" lon="5.79997">
        <ele>426.3</ele>
      </trkpt>
      <trkpt lat="45.76852" lon="5.79982">
        <ele>426.3</ele>
      </trkpt>
      <trkpt lat="45.76847" lon="5.79968">
        <ele>426.1</ele>
      </trkpt>
      <trkpt lat="45.76841" lon="5.7996">
        <ele>425.7</ele>
      </trkpt>
      <trkpt lat="45.76837" lon="5.79953">
        <ele>424.7</ele>
      </trkpt>
      <trkpt lat="45.76829" lon="5.79946">
        <ele>423.5</ele>
      </trkpt>
      <trkpt lat="45.7681" lon="5.79938">
        <ele>423.5</ele>
      </trkpt>
      <trkpt lat="45.76799" lon="5.79932">
        <ele>422.9</ele>
      </trkpt>
      <trkpt lat="45.76785" lon="5.79923">
        <ele>421.7</ele>
      </trkpt>
      <trkpt lat="45.7678" lon="5.79919">
        <ele>421.2</ele>
      </trkpt>
      <trkpt lat="45.76777" lon="5.79915">
        <ele>421</ele>
      </trkpt>
      <trkpt lat="45.76774" lon="5.79907">
        <ele>421.3</ele>
      </trkpt>
      <trkpt lat="45.76769" lon="5.79891">
        <ele>421.9</ele>
      </trkpt>
      <trkpt lat="45.76768" lon="5.79888">
        <ele>422.2</ele>
      </trkpt>
      <trkpt lat="45.76765" lon="5.79881">
        <ele>423.4</ele>
      </trkpt>
      <trkpt lat="45.76759" lon="5.79873">
        <ele>424.9</ele>
      </trkpt>
      <trkpt lat="45.76751" lon="5.79863">
        <ele>426.7</ele>
      </trkpt>
      <trkpt lat="45.76745" lon="5.79856">
        <ele>428.1</ele>
      </trkpt>
      <trkpt lat="45.76738" lon="5.79851">
        <ele>429.2</ele>
      </trkpt>
      <trkpt lat="45.76732" lon="5.79848">
        <ele>429.8</ele>
      </trkpt>
      <trkpt lat="45.76725" lon="5.79846">
        <ele>430.3</ele>
      </trkpt>
      <trkpt lat="45.76711" lon="5.79842">
        <ele>432.7</ele>
      </trkpt>
      <trkpt lat="45.76706" lon="5.79842">
        <ele>433.3</ele>
      </trkpt>
      <trkpt lat="45.76701" lon="5.7984">
        <ele>434.4</ele>
      </trkpt>
      <trkpt lat="45.7669" lon="5.79834">
        <ele>436.8</ele>
      </trkpt>
      <trkpt lat="45.76682" lon="5.79827">
        <ele>437.8</ele>
      </trkpt>
      <trkpt lat="45.76676" lon="5.7982">
        <ele>438.6</ele>
      </trkpt>
      <trkpt lat="45.76516" lon="5.79866">
        <ele>428</ele>
      </trkpt>
      <trkpt lat="45.76522" lon="5.79857">
        <ele>429.2</ele>
      </trkpt>
      <trkpt lat="45.76525" lon="5.79839">
        <ele>430.9</ele>
      </trkpt>
      <trkpt lat="45.76525" lon="5.79821">
        <ele>433</ele>
      </trkpt>
      <trkpt lat="45.76523" lon="5.79808">
        <ele>434.9</ele>
      </trkpt>
      <trkpt lat="45.76511" lon="5.79785">
        <ele>435.7</ele>
      </trkpt>
      <trkpt lat="45.76495" lon="5.79768">
        <ele>431.9</ele>
      </trkpt>
      <trkpt lat="45.76485" lon="5.79755">
        <ele>430.9</ele>
      </trkpt>
      <trkpt lat="45.76479" lon="5.79745">
        <ele>430.8</ele>
      </trkpt>
      <trkpt lat="45.76476" lon="5.79733">
        <ele>430.9</ele>
      </trkpt>
      <trkpt lat="45.76474" lon="5.79718">
        <ele>431.2</ele>
      </trkpt>
      <trkpt lat="45.76477" lon="5.797">
        <ele>432.3</ele>
      </trkpt>
      <trkpt lat="45.76479" lon="5.79679">
        <ele>433.6</ele>
      </trkpt>
      <trkpt lat="45.7648" lon="5.79661">
        <ele>432.8</ele>
      </trkpt>
      <trkpt lat="45.76478" lon="5.79641">
        <ele>425.8</ele>
      </trkpt>
      <trkpt lat="45.76473" lon="5.79625">
        <ele>421.8</ele>
      </trkpt>
      <trkpt lat="45.7646" lon="5.79603">
        <ele>418.4</ele>
      </trkpt>
      <trkpt lat="45.76452" lon="5.79595">
        <ele>417.5</ele>
      </trkpt>
      <trkpt lat="45.76442" lon="5.79589">
        <ele>416.4</ele>
      </trkpt>
      <trkpt lat="45.76434" lon="5.79585">
        <ele>415.8</ele>
      </trkpt>
      <trkpt lat="45.76427" lon="5.79585">
        <ele>415.1</ele>
      </trkpt>
      <trkpt lat="45.7642" lon="5.79588">
        <ele>414.5</ele>
      </trkpt>
      <trkpt lat="45.76413" lon="5.79586">
        <ele>414.1</ele>
      </trkpt>
      <trkpt lat="45.76408" lon="5.79583">
        <ele>413.9</ele>
      </trkpt>
      <trkpt lat="45.76408" lon="5.79576">
        <ele>412.7</ele>
      </trkpt>
      <trkpt lat="45.7641" lon="5.79551">
        <ele>408.8</ele>
      </trkpt>
      <trkpt lat="45.76411" lon="5.79539">
        <ele>407.1</ele>
      </trkpt>
      <trkpt lat="45.76408" lon="5.79515">
        <ele>403.1</ele>
      </trkpt>
      <trkpt lat="45.76402" lon="5.79494">
        <ele>398.9</ele>
      </trkpt>
      <trkpt lat="45.76403" lon="5.79475">
        <ele>396.5</ele>
      </trkpt>
      <trkpt lat="45.76411" lon="5.79453">
        <ele>393.8</ele>
      </trkpt>
      <trkpt lat="45.76416" lon="5.79417">
        <ele>386.8</ele>
      </trkpt>
      <trkpt lat="45.76421" lon="5.79393">
        <ele>383</ele>
      </trkpt>
      <trkpt lat="45.76425" lon="5.79369">
        <ele>379.8</ele>
      </trkpt>
      <trkpt lat="45.76424" lon="5.79352">
        <ele>377.8</ele>
      </trkpt>
      <trkpt lat="45.76429" lon="5.79346">
        <ele>379.2</ele>
      </trkpt>
      <trkpt lat="45.76424" lon="5.79352">
        <ele>377.8</ele>
      </trkpt>
      <trkpt lat="45.76407" lon="5.79368">
        <ele>373.3</ele>
      </trkpt>
      <trkpt lat="45.76393" lon="5.79378">
        <ele>369.5</ele>
      </trkpt>
      <trkpt lat="45.76382" lon="5.79385">
        <ele>366.1</ele>
      </trkpt>
      <trkpt lat="45.7637" lon="5.79394">
        <ele>363.4</ele>
      </trkpt>
      <trkpt lat="45.76361" lon="5.794">
        <ele>361.6</ele>
      </trkpt>
      <trkpt lat="45.76351" lon="5.79408">
        <ele>360.9</ele>
      </trkpt>
      <trkpt lat="45.76347" lon="5.7941">
        <ele>360.4</ele>
      </trkpt>
      <trkpt lat="45.76341" lon="5.79411">
        <ele>359.3</ele>
      </trkpt>
      <trkpt lat="45.76337" lon="5.79411">
        <ele>358.5</ele>
      </trkpt>
      <trkpt lat="45.7633" lon="5.79412">
        <ele>357.5</ele>
      </trkpt>
      <trkpt lat="45.76324" lon="5.79413">
        <ele>356.9</ele>
      </trkpt>
      <trkpt lat="45.76319" lon="5.79416">
        <ele>356.4</ele>
      </trkpt>
      <trkpt lat="45.76313" lon="5.79419">
        <ele>356.6</ele>
      </trkpt>
      <trkpt lat="45.76309" lon="5.79422">
        <ele>357.1</ele>
      </trkpt>
      <trkpt lat="45.76304" lon="5.79426">
        <ele>357.8</ele>
      </trkpt>
      <trkpt lat="45.76299" lon="5.7943">
        <ele>358.2</ele>
      </trkpt>
      <trkpt lat="45.76294" lon="5.79435">
        <ele>358.6</ele>
      </trkpt>
      <trkpt lat="45.76289" lon="5.79437">
        <ele>358</ele>
      </trkpt>
      <trkpt lat="45.76283" lon="5.79441">
        <ele>357.6</ele>
      </trkpt>
      <trkpt lat="45.76279" lon="5.79444">
        <ele>357.2</ele>
      </trkpt>
      <trkpt lat="45.76273" lon="5.79447">
        <ele>357</ele>
      </trkpt>
      <trkpt lat="45.76267" lon="5.79451">
        <ele>357.1</ele>
      </trkpt>
      <trkpt lat="45.76259" lon="5.79455">
        <ele>356.6</ele>
      </trkpt>
      <trkpt lat="45.76253" lon="5.79459">
        <ele>356.3</ele>
      </trkpt>
      <trkpt lat="45.76244" lon="5.79465">
        <ele>355.3</ele>
      </trkpt>
      <trkpt lat="45.7624" lon="5.7947">
        <ele>355.2</ele>
      </trkpt>
      <trkpt lat="45.76231" lon="5.79479">
        <ele>354.3</ele>
      </trkpt>
      <trkpt lat="45.76225" lon="5.79486">
        <ele>353.5</ele>
      </trkpt>
      <trkpt lat="45.76218" lon="5.79494">
        <ele>352.2</ele>
      </trkpt>
      <trkpt lat="45.76213" lon="5.79502">
        <ele>351.7</ele>
      </trkpt>
      <trkpt lat="45.76209" lon="5.79509">
        <ele>351.2</ele>
      </trkpt>
      <trkpt lat="45.76205" lon="5.79516">
        <ele>350.7</ele>
      </trkpt>
      <trkpt lat="45.76202" lon="5.79524">
        <ele>350.7</ele>
      </trkpt>
      <trkpt lat="45.762" lon="5.79532">
        <ele>350.5</ele>
      </trkpt>
      <trkpt lat="45.76198" lon="5.79538">
        <ele>349.9</ele>
      </trkpt>
      <trkpt lat="45.76197" lon="5.79545">
        <ele>349.7</ele>
      </trkpt>
      <trkpt lat="45.76196" lon="5.79551">
        <ele>349.5</ele>
      </trkpt>
      <trkpt lat="45.76195" lon="5.79558">
        <ele>349.1</ele>
      </trkpt>
      <trkpt lat="45.76194" lon="5.79567">
        <ele>348.4</ele>
      </trkpt>
      <trkpt lat="45.76192" lon="5.79574">
        <ele>347.3</ele>
      </trkpt>
      <trkpt lat="45.76191" lon="5.79581">
        <ele>346.6</ele>
      </trkpt>
      <trkpt lat="45.7619" lon="5.79587">
        <ele>346.2</ele>
      </trkpt>
      <trkpt lat="45.76188" lon="5.79593">
        <ele>345.6</ele>
      </trkpt>
      <trkpt lat="45.76187" lon="5.79599">
        <ele>345.3</ele>
      </trkpt>
      <trkpt lat="45.76186" lon="5.79606">
        <ele>345.2</ele>
      </trkpt>
      <trkpt lat="45.76185" lon="5.79613">
        <ele>344.9</ele>
      </trkpt>
      <trkpt lat="45.76185" lon="5.79624">
        <ele>344.9</ele>
      </trkpt>
      <trkpt lat="45.76185" lon="5.79637">
        <ele>344.9</ele>
      </trkpt>
      <trkpt lat="45.76185" lon="5.79646">
        <ele>344.8</ele>
      </trkpt>
      <trkpt lat="45.76186" lon="5.79659">
        <ele>344.8</ele>
      </trkpt>
      <trkpt lat="45.76186" lon="5.79665">
        <ele>344.7</ele>
      </trkpt>
      <trkpt lat="45.76185" lon="5.79672">
        <ele>344.8</ele>
      </trkpt>
      <trkpt lat="45.76183" lon="5.79675">
        <ele>344.3</ele>
      </trkpt>
      <trkpt lat="45.7618" lon="5.79678">
        <ele>343.5</ele>
      </trkpt>
      <trkpt lat="45.76177" lon="5.79682">
        <ele>342.9</ele>
      </trkpt>
      <trkpt lat="45.76173" lon="5.79686">
        <ele>342</ele>
      </trkpt>
      <trkpt lat="45.76168" lon="5.79691">
        <ele>340.9</ele>
      </trkpt>
      <trkpt lat="45.76162" lon="5.79696">
        <ele>340.1</ele>
      </trkpt>
      <trkpt lat="45.76155" lon="5.79702">
        <ele>339.3</ele>
      </trkpt>
      <trkpt lat="45.76149" lon="5.79706">
        <ele>338.7</ele>
      </trkpt>
      <trkpt lat="45.76144" lon="5.79711">
        <ele>338.6</ele>
      </trkpt>
      <trkpt lat="45.76138" lon="5.79716">
        <ele>338.6</ele>
      </trkpt>
      <trkpt lat="45.76133" lon="5.79719">
        <ele>339.3</ele>
      </trkpt>
      <trkpt lat="45.76129" lon="5.7972">
        <ele>339.4</ele>
      </trkpt>
      <trkpt lat="45.76125" lon="5.7972">
        <ele>339.4</ele>
      </trkpt>
      <trkpt lat="45.76123" lon="5.79719">
        <ele>339.2</ele>
      </trkpt>
      <trkpt lat="45.7612" lon="5.79716">
        <ele>338.3</ele>
      </trkpt>
      <trkpt lat="45.76115" lon="5.79711">
        <ele>336.8</ele>
      </trkpt>
      <trkpt lat="45.76112" lon="5.79709">
        <ele>336.2</ele>
      </trkpt>
      <trkpt lat="45.76108" lon="5.79707">
        <ele>335.5</ele>
      </trkpt>
      <trkpt lat="45.76105" lon="5.79705">
        <ele>335</ele>
      </trkpt>
      <trkpt lat="45.76102" lon="5.79702">
        <ele>334</ele>
      </trkpt>
      <trkpt lat="45.76098" lon="5.797">
        <ele>333.5</ele>
      </trkpt>
      <trkpt lat="45.76094" lon="5.79699">
        <ele>333.2</ele>
      </trkpt>
      <trkpt lat="45.7609" lon="5.79698">
        <ele>332.9</ele>
      </trkpt>
      <trkpt lat="45.76085" lon="5.79698">
        <ele>332.9</ele>
      </trkpt>
      <trkpt lat="45.76079" lon="5.79698">
        <ele>332.3</ele>
      </trkpt>
      <trkpt lat="45.76073" lon="5.79699">
        <ele>331.8</ele>
      </trkpt>
      <trkpt lat="45.76067" lon="5.797">
        <ele>331.2</ele>
      </trkpt>
      <trkpt lat="45.76061" lon="5.79702">
        <ele>330.6</ele>
      </trkpt>
      <trkpt lat="45.76056" lon="5.79704">
        <ele>330.1</ele>
      </trkpt>
      <trkpt lat="45.76052" lon="5.79707">
        <ele>329.9</ele>
      </trkpt>
      <trkpt lat="45.76046" lon="5.79715">
        <ele>329.8</ele>
      </trkpt>
      <trkpt lat="45.76042" lon="5.79705">
        <ele>328.6</ele>
      </trkpt>
      <trkpt lat="45.76045" lon="5.79703">
        <ele>328.8</ele>
      </trkpt>
      <trkpt lat="45.7605" lon="5.79699">
        <ele>329</ele>
      </trkpt>
      <trkpt lat="45.76055" lon="5.79695">
        <ele>329</ele>
      </trkpt>
      <trkpt lat="45.7605" lon="5.79699">
        <ele>329</ele>
      </trkpt>
      <trkpt lat="45.76045" lon="5.79703">
        <ele>328.8</ele>
      </trkpt>
      <trkpt lat="45.76042" lon="5.79705">
        <ele>328.6</ele>
      </trkpt>
      <trkpt lat="45.76046" lon="5.79715">
        <ele>329.8</ele>
      </trkpt>
      <trkpt lat="45.76044" lon="5.79723">
        <ele>329.9</ele>
      </trkpt>
      <trkpt lat="45.76041" lon="5.79736">
        <ele>329.9</ele>
      </trkpt>
      <trkpt lat="45.76042" lon="5.79741">
        <ele>330.2</ele>
      </trkpt>
      <trkpt lat="45.76045" lon="5.7975">
        <ele>331.1</ele>
      </trkpt>
      <trkpt lat="45.76049" lon="5.79758">
        <ele>331.6</ele>
      </trkpt>
      <trkpt lat="45.76033" lon="5.79771">
        <ele>328.8</ele>
      </trkpt>
      <trkpt lat="45.76018" lon="5.79783">
        <ele>328.7</ele>
      </trkpt>
      <trkpt lat="45.76015" lon="5.79785">
        <ele>329</ele>
      </trkpt>
      <trkpt lat="45.76013" lon="5.79786">
        <ele>329.1</ele>
      </trkpt>
      <trkpt lat="45.7601" lon="5.79785">
        <ele>329.2</ele>
      </trkpt>
      <trkpt lat="45.76001" lon="5.79769">
        <ele>328.3</ele>
      </trkpt>
      <trkpt lat="45.75989" lon="5.79751">
        <ele>328.3</ele>
      </trkpt>
      <trkpt lat="45.75974" lon="5.79728">
        <ele>327.5</ele>
      </trkpt>
      <trkpt lat="45.75966" lon="5.79718">
        <ele>327.6</ele>
      </trkpt>
      <trkpt lat="45.75957" lon="5.79713">
        <ele>328.5</ele>
      </trkpt>
      <trkpt lat="45.75944" lon="5.7971">
        <ele>329.5</ele>
      </trkpt>
      <trkpt lat="45.75929" lon="5.79708">
        <ele>328.4</ele>
      </trkpt>
      <trkpt lat="45.75908" lon="5.79708">
        <ele>326.7</ele>
      </trkpt>
      <trkpt lat="45.75876" lon="5.79704">
        <ele>324.5</ele>
      </trkpt>
      <trkpt lat="45.75851" lon="5.79695">
        <ele>323.1</ele>
      </trkpt>
      <trkpt lat="45.75835" lon="5.7969">
        <ele>322.7</ele>
      </trkpt>
      <trkpt lat="45.75833" lon="5.79681">
        <ele>322</ele>
      </trkpt>
      <trkpt lat="45.75831" lon="5.79667">
        <ele>321</ele>
      </trkpt>
      <trkpt lat="45.75829" lon="5.7966">
        <ele>321</ele>
      </trkpt>
      <trkpt lat="45.75828" lon="5.79656">
        <ele>321</ele>
      </trkpt>
      <trkpt lat="45.75826" lon="5.79653">
        <ele>321</ele>
      </trkpt>
      <trkpt lat="45.75824" lon="5.7965">
        <ele>321</ele>
      </trkpt>
      <trkpt lat="45.7582" lon="5.79647">
        <ele>321</ele>
      </trkpt>
      <trkpt lat="45.75817" lon="5.79646">
        <ele>321</ele>
      </trkpt>
      <trkpt lat="45.75813" lon="5.79646">
        <ele>321</ele>
      </trkpt>
      <trkpt lat="45.75808" lon="5.79647">
        <ele>321</ele>
      </trkpt>
      <trkpt lat="45.75803" lon="5.79648">
        <ele>321.1</ele>
      </trkpt>
      <trkpt lat="45.75794" lon="5.79652">
        <ele>321.4</ele>
      </trkpt>
      <trkpt lat="45.75776" lon="5.79659">
        <ele>322.1</ele>
      </trkpt>
      <trkpt lat="45.75752" lon="5.79671">
        <ele>323.1</ele>
      </trkpt>
      <trkpt lat="45.75722" lon="5.79686">
        <ele>324</ele>
      </trkpt>
      <trkpt lat="45.75714" lon="5.79691">
        <ele>324</ele>
      </trkpt>
      <trkpt lat="45.75711" lon="5.79684">
        <ele>324</ele>
      </trkpt>
      <trkpt lat="45.75711" lon="5.79677">
        <ele>324</ele>
      </trkpt>
      <trkpt lat="45.75712" lon="5.79672">
        <ele>324</ele>
      </trkpt>
      <trkpt lat="45.75715" lon="5.79658">
        <ele>324</ele>
      </trkpt>
      <trkpt lat="45.7572" lon="5.79634">
        <ele>324.4</ele>
      </trkpt>
      <trkpt lat="45.75721" lon="5.79629">
        <ele>324.7</ele>
      </trkpt>
      <trkpt lat="45.75722" lon="5.79625">
        <ele>325</ele>
      </trkpt>
      <trkpt lat="45.75721" lon="5.79622">
        <ele>325.2</ele>
      </trkpt>
      <trkpt lat="45.7572" lon="5.79619">
        <ele>325.4</ele>
      </trkpt>
      <trkpt lat="45.75719" lon="5.79616">
        <ele>325.6</ele>
      </trkpt>
      <trkpt lat="45.75717" lon="5.79614">
        <ele>325.6</ele>
      </trkpt>
      <trkpt lat="45.75715" lon="5.79613">
        <ele>325.6</ele>
      </trkpt>
      <trkpt lat="45.75712" lon="5.79612">
        <ele>325.6</ele>
      </trkpt>
      <trkpt lat="45.75709" lon="5.79612">
        <ele>325.5</ele>
      </trkpt>
      <trkpt lat="45.75705" lon="5.79612">
        <ele>325.3</ele>
      </trkpt>
      <trkpt lat="45.757" lon="5.79612">
        <ele>325.2</ele>
      </trkpt>
      <trkpt lat="45.75695" lon="5.79612">
        <ele>325</ele>
      </trkpt>
      <trkpt lat="45.75689" lon="5.79612">
        <ele>325.2</ele>
      </trkpt>
      <trkpt lat="45.75681" lon="5.79612">
        <ele>325.4</ele>
      </trkpt>
      <trkpt lat="45.75675" lon="5.79612">
        <ele>325.7</ele>
      </trkpt>
      <trkpt lat="45.75668" lon="5.7961">
        <ele>325.9</ele>
      </trkpt>
      <trkpt lat="45.75661" lon="5.79608">
        <ele>325.9</ele>
      </trkpt>
      <trkpt lat="45.75656" lon="5.79606">
        <ele>325.9</ele>
      </trkpt>
      <trkpt lat="45.75652" lon="5.79604">
        <ele>325.9</ele>
      </trkpt>
      <trkpt lat="45.75648" lon="5.79602">
        <ele>325.9</ele>
      </trkpt>
      <trkpt lat="45.75644" lon="5.79599">
        <ele>325.9</ele>
      </trkpt>
      <trkpt lat="45.75641" lon="5.79595">
        <ele>326</ele>
      </trkpt>
      <trkpt lat="45.75638" lon="5.7959">
        <ele>326.1</ele>
      </trkpt>
      <trkpt lat="45.75634" lon="5.79586">
        <ele>326.5</ele>
      </trkpt>
      <trkpt lat="45.75631" lon="5.79581">
        <ele>326.5</ele>
      </trkpt>
      <trkpt lat="45.75627" lon="5.79574">
        <ele>325.8</ele>
      </trkpt>
      <trkpt lat="45.75622" lon="5.79567">
        <ele>325.1</ele>
      </trkpt>
      <trkpt lat="45.75618" lon="5.79558">
        <ele>323.9</ele>
      </trkpt>
      <trkpt lat="45.75614" lon="5.79548">
        <ele>323</ele>
      </trkpt>
      <trkpt lat="45.75611" lon="5.7954">
        <ele>322.3</ele>
      </trkpt>
      <trkpt lat="45.75607" lon="5.79531">
        <ele>321.6</ele>
      </trkpt>
      <trkpt lat="45.75605" lon="5.79526">
        <ele>321.2</ele>
      </trkpt>
      <trkpt lat="45.75603" lon="5.79524">
        <ele>321.2</ele>
      </trkpt>
      <trkpt lat="45.75597" lon="5.79515">
        <ele>320.6</ele>
      </trkpt>
      <trkpt lat="45.75583" lon="5.79494">
        <ele>319.6</ele>
      </trkpt>
      <trkpt lat="45.75579" lon="5.79486">
        <ele>319</ele>
      </trkpt>
      <trkpt lat="45.75576" lon="5.79488">
        <ele>319.4</ele>
      </trkpt>
      <trkpt lat="45.75572" lon="5.7949">
        <ele>319.7</ele>
      </trkpt>
      <trkpt lat="45.75569" lon="5.79491">
        <ele>320</ele>
      </trkpt>
      <trkpt lat="45.75563" lon="5.79493">
        <ele>320.8</ele>
      </trkpt>
      <trkpt lat="45.75558" lon="5.79493">
        <ele>321.1</ele>
      </trkpt>
      <trkpt lat="45.75552" lon="5.79493">
        <ele>321.3</ele>
      </trkpt>
      <trkpt lat="45.75545" lon="5.79493">
        <ele>321.5</ele>
      </trkpt>
      <trkpt lat="45.75539" lon="5.79493">
        <ele>321.7</ele>
      </trkpt>
      <trkpt lat="45.75526" lon="5.79492">
        <ele>321.8</ele>
      </trkpt>
      <trkpt lat="45.75511" lon="5.79491">
        <ele>322</ele>
      </trkpt>
      <trkpt lat="45.75501" lon="5.7949">
        <ele>322</ele>
      </trkpt>
      <trkpt lat="45.75488" lon="5.79489">
        <ele>323.1</ele>
      </trkpt>
      <trkpt lat="45.75473" lon="5.79487">
        <ele>324.1</ele>
      </trkpt>
      <trkpt lat="45.75461" lon="5.79486">
        <ele>325.1</ele>
      </trkpt>
      <trkpt lat="45.7545" lon="5.79484">
        <ele>325.8</ele>
      </trkpt>
      <trkpt lat="45.75437" lon="5.79482">
        <ele>326.6</ele>
      </trkpt>
      <trkpt lat="45.75431" lon="5.79481">
        <ele>326.9</ele>
      </trkpt>
      <trkpt lat="45.75426" lon="5.7948">
        <ele>327.2</ele>
      </trkpt>
      <trkpt lat="45.7542" lon="5.79478">
        <ele>327.3</ele>
      </trkpt>
      <trkpt lat="45.75414" lon="5.79477">
        <ele>327.6</ele>
      </trkpt>
      <trkpt lat="45.75411" lon="5.79477">
        <ele>327.9</ele>
      </trkpt>
      <trkpt lat="45.75414" lon="5.79477">
        <ele>327.6</ele>
      </trkpt>
      <trkpt lat="45.7542" lon="5.79478">
        <ele>327.3</ele>
      </trkpt>
      <trkpt lat="45.75426" lon="5.7948">
        <ele>327.2</ele>
      </trkpt>
      <trkpt lat="45.7542" lon="5.79473">
        <ele>325.8</ele>
      </trkpt>
      <trkpt lat="45.75413" lon="5.79468">
        <ele>324.9</ele>
      </trkpt>
      <trkpt lat="45.75405" lon="5.79466">
        <ele>325.1</ele>
      </trkpt>
      <trkpt lat="45.75396" lon="5.79464">
        <ele>325.1</ele>
      </trkpt>
      <trkpt lat="45.75387" lon="5.79461">
        <ele>324.7</ele>
      </trkpt>
      <trkpt lat="45.75379" lon="5.79459">
        <ele>324.2</ele>
      </trkpt>
      <trkpt lat="45.75371" lon="5.79456">
        <ele>323.6</ele>
      </trkpt>
      <trkpt lat="45.75362" lon="5.79454">
        <ele>323.3</ele>
      </trkpt>
      <trkpt lat="45.75354" lon="5.79451">
        <ele>322.6</ele>
      </trkpt>
      <trkpt lat="45.75345" lon="5.79448">
        <ele>321.9</ele>
      </trkpt>
      <trkpt lat="45.75336" lon="5.79445">
        <ele>321</ele>
      </trkpt>
      <trkpt lat="45.75328" lon="5.79442">
        <ele>320.4</ele>
      </trkpt>
      <trkpt lat="45.75321" lon="5.7944">
        <ele>320</ele>
      </trkpt>
      <trkpt lat="45.75315" lon="5.79438">
        <ele>319.7</ele>
      </trkpt>
      <trkpt lat="45.75307" lon="5.79436">
        <ele>319.2</ele>
      </trkpt>
      <trkpt lat="45.753" lon="5.79433">
        <ele>318.1</ele>
      </trkpt>
      <trkpt lat="45.75294" lon="5.79429">
        <ele>316.6</ele>
      </trkpt>
      <trkpt lat="45.75281" lon="5.79424">
        <ele>314.5</ele>
      </trkpt>
      <trkpt lat="45.75274" lon="5.79421">
        <ele>313.4</ele>
      </trkpt>
      <trkpt lat="45.75266" lon="5.79417">
        <ele>312.1</ele>
      </trkpt>
      <trkpt lat="45.75259" lon="5.79414">
        <ele>311</ele>
      </trkpt>
      <trkpt lat="45.75251" lon="5.7941">
        <ele>309.6</ele>
      </trkpt>
      <trkpt lat="45.75244" lon="5.79405">
        <ele>308.5</ele>
      </trkpt>
      <trkpt lat="45.75236" lon="5.79404">
        <ele>309.2</ele>
      </trkpt>
      <trkpt lat="45.75229" lon="5.79402">
        <ele>309.3</ele>
      </trkpt>
      <trkpt lat="45.75223" lon="5.79401">
        <ele>309.7</ele>
      </trkpt>
      <trkpt lat="45.75214" lon="5.79395">
        <ele>309.6</ele>
      </trkpt>
      <trkpt lat="45.75208" lon="5.79391">
        <ele>309.8</ele>
      </trkpt>
      <trkpt lat="45.75202" lon="5.79388">
        <ele>310.4</ele>
      </trkpt>
      <trkpt lat="45.75196" lon="5.79385">
        <ele>310.9</ele>
      </trkpt>
      <trkpt lat="45.7519" lon="5.7938">
        <ele>310.8</ele>
      </trkpt>
      <trkpt lat="45.75184" lon="5.79375">
        <ele>310.8</ele>
      </trkpt>
      <trkpt lat="45.75177" lon="5.79371">
        <ele>311.6</ele>
      </trkpt>
      <trkpt lat="45.75171" lon="5.79366">
        <ele>311.6</ele>
      </trkpt>
      <trkpt lat="45.75166" lon="5.7936">
        <ele>310.7</ele>
      </trkpt>
      <trkpt lat="45.75159" lon="5.79355">
        <ele>310.3</ele>
      </trkpt>
      <trkpt lat="45.75156" lon="5.79351">
        <ele>309.8</ele>
      </trkpt>
      <trkpt lat="45.75153" lon="5.79347">
        <ele>309.4</ele>
      </trkpt>
      <trkpt lat="45.75158" lon="5.7934">
        <ele>306.8</ele>
      </trkpt>
      <trkpt lat="45.75159" lon="5.79337">
        <ele>305.8</ele>
      </trkpt>
      <trkpt lat="45.75165" lon="5.7933">
        <ele>303.5</ele>
      </trkpt>
      <trkpt lat="45.75172" lon="5.79327">
        <ele>301.5</ele>
      </trkpt>
      <trkpt lat="45.75178" lon="5.79323">
        <ele>299.5</ele>
      </trkpt>
      <trkpt lat="45.75186" lon="5.79315">
        <ele>296.2</ele>
      </trkpt>
      <trkpt lat="45.75193" lon="5.79304">
        <ele>292.6</ele>
      </trkpt>
      <trkpt lat="45.75196" lon="5.79298">
        <ele>291.4</ele>
      </trkpt>
      <trkpt lat="45.75197" lon="5.79287">
        <ele>290.8</ele>
      </trkpt>
      <trkpt lat="45.75197" lon="5.79275">
        <ele>290.1</ele>
      </trkpt>
      <trkpt lat="45.75199" lon="5.7926">
        <ele>287.7</ele>
      </trkpt>
      <trkpt lat="45.75206" lon="5.7925">
        <ele>285.8</ele>
      </trkpt>
      <trkpt lat="45.75215" lon="5.79244">
        <ele>284.3</ele>
      </trkpt>
      <trkpt lat="45.75233" lon="5.79235">
        <ele>287.8</ele>
      </trkpt>
      <trkpt lat="45.75232" lon="5.79229">
        <ele>287.5</ele>
      </trkpt>
      <trkpt lat="45.75232" lon="5.79227">
        <ele>287.5</ele>
      </trkpt>
      <trkpt lat="45.75231" lon="5.79221">
        <ele>287.1</ele>
      </trkpt>
      <trkpt lat="45.75231" lon="5.79212">
        <ele>286.7</ele>
      </trkpt>
      <trkpt lat="45.75231" lon="5.79205">
        <ele>286.4</ele>
      </trkpt>
      <trkpt lat="45.75231" lon="5.79197">
        <ele>286.1</ele>
      </trkpt>
      <trkpt lat="45.75232" lon="5.79188">
        <ele>285.8</ele>
      </trkpt>
      <trkpt lat="45.75233" lon="5.79179">
        <ele>285.4</ele>
      </trkpt>
      <trkpt lat="45.75235" lon="5.7917">
        <ele>285.9</ele>
      </trkpt>
      <trkpt lat="45.75236" lon="5.7916">
        <ele>285.5</ele>
      </trkpt>
      <trkpt lat="45.75237" lon="5.79151">
        <ele>284.8</ele>
      </trkpt>
      <trkpt lat="45.75237" lon="5.79143">
        <ele>283.6</ele>
      </trkpt>
      <trkpt lat="45.75237" lon="5.79132">
        <ele>282.2</ele>
      </trkpt>
      <trkpt lat="45.75238" lon="5.79123">
        <ele>281.6</ele>
      </trkpt>
      <trkpt lat="45.75239" lon="5.79114">
        <ele>281</ele>
      </trkpt>
      <trkpt lat="45.7524" lon="5.79105">
        <ele>279.7</ele>
      </trkpt>
      <trkpt lat="45.75242" lon="5.79095">
        <ele>278.3</ele>
      </trkpt>
      <trkpt lat="45.75245" lon="5.79087">
        <ele>277.4</ele>
      </trkpt>
      <trkpt lat="45.75248" lon="5.79078">
        <ele>276.1</ele>
      </trkpt>
      <trkpt lat="45.7526" lon="5.79051">
        <ele>274.4</ele>
      </trkpt>
      <trkpt lat="45.75282" lon="5.79011">
        <ele>272.1</ele>
      </trkpt>
      <trkpt lat="45.75302" lon="5.78972">
        <ele>265.8</ele>
      </trkpt>
      <trkpt lat="45.75305" lon="5.78966">
        <ele>265.7</ele>
      </trkpt>
      <trkpt lat="45.75309" lon="5.78963">
        <ele>267.1</ele>
      </trkpt>
      <trkpt lat="45.75311" lon="5.7896">
        <ele>267.5</ele>
      </trkpt>
      <trkpt lat="45.75314" lon="5.78957">
        <ele>268.3</ele>
      </trkpt>
      <trkpt lat="45.75316" lon="5.78954">
        <ele>268.3</ele>
      </trkpt>
      <trkpt lat="45.75317" lon="5.78951">
        <ele>268</ele>
      </trkpt>
      <trkpt lat="45.75318" lon="5.78946">
        <ele>266.9</ele>
      </trkpt>
      <trkpt lat="45.75317" lon="5.78942">
        <ele>265.4</ele>
      </trkpt>
      <trkpt lat="45.75316" lon="5.78939">
        <ele>264.1</ele>
      </trkpt>
      <trkpt lat="45.75323" lon="5.7893">
        <ele>263.8</ele>
      </trkpt>
      <trkpt lat="45.75316" lon="5.78939">
        <ele>264.1</ele>
      </trkpt>
      <trkpt lat="45.75314" lon="5.78937">
        <ele>262.8</ele>
      </trkpt>
      <trkpt lat="45.75312" lon="5.78936">
        <ele>261.8</ele>
      </trkpt>
      <trkpt lat="45.75309" lon="5.78935">
        <ele>260.5</ele>
      </trkpt>
      <trkpt lat="45.75306" lon="5.78937">
        <ele>260</ele>
      </trkpt>
      <trkpt lat="45.75301" lon="5.78942">
        <ele>259.8</ele>
      </trkpt>
      <trkpt lat="45.75297" lon="5.78948">
        <ele>259.9</ele>
      </trkpt>
      <trkpt lat="45.75293" lon="5.78955">
        <ele>259.8</ele>
      </trkpt>
      <trkpt lat="45.75288" lon="5.78962">
        <ele>259.5</ele>
      </trkpt>
      <trkpt lat="45.75281" lon="5.7897">
        <ele>258.6</ele>
      </trkpt>
      <trkpt lat="45.75264" lon="5.78988">
        <ele>258.2</ele>
      </trkpt>
      <trkpt lat="45.75253" lon="5.78999">
        <ele>256.1</ele>
      </trkpt>
      <trkpt lat="45.75249" lon="5.79004">
        <ele>255.8</ele>
      </trkpt>
      <trkpt lat="45.75243" lon="5.79009">
        <ele>256.2</ele>
      </trkpt>
      <trkpt lat="45.75239" lon="5.79012">
        <ele>256.4</ele>
      </trkpt>
      <trkpt lat="45.75235" lon="5.79012">
        <ele>255.9</ele>
      </trkpt>
      <trkpt lat="45.75231" lon="5.79012">
        <ele>255.3</ele>
      </trkpt>
      <trkpt lat="45.75228" lon="5.7901">
        <ele>254.3</ele>
      </trkpt>
      <trkpt lat="45.75225" lon="5.79007">
        <ele>253.2</ele>
      </trkpt>
      <trkpt lat="45.75224" lon="5.79003">
        <ele>252</ele>
      </trkpt>
      <trkpt lat="45.75223" lon="5.78997">
        <ele>250.8</ele>
      </trkpt>
      <trkpt lat="45.75223" lon="5.78996">
        <ele>250.7</ele>
      </trkpt>
      <trkpt lat="45.75219" lon="5.79003">
        <ele>250.9</ele>
      </trkpt>
      <trkpt lat="45.75218" lon="5.79004">
        <ele>250.8</ele>
      </trkpt>
      <trkpt lat="45.75219" lon="5.79003">
        <ele>250.9</ele>
      </trkpt>
      <trkpt lat="45.75223" lon="5.78996">
        <ele>250.7</ele>
      </trkpt>
      <trkpt lat="45.75223" lon="5.78993">
        <ele>250.3</ele>
      </trkpt>
      <trkpt lat="45.75224" lon="5.78987">
        <ele>249.8</ele>
      </trkpt>
      <trkpt lat="45.75228" lon="5.78978">
        <ele>249.3</ele>
      </trkpt>
      <trkpt lat="45.75233" lon="5.78971">
        <ele>249</ele>
      </trkpt>
      <trkpt lat="45.75237" lon="5.78964">
        <ele>248.4</ele>
      </trkpt>
      <trkpt lat="45.75243" lon="5.78955">
        <ele>247.7</ele>
      </trkpt>
      <trkpt lat="45.75247" lon="5.78949">
        <ele>247.3</ele>
      </trkpt>
      <trkpt lat="45.75251" lon="5.78942">
        <ele>246.9</ele>
      </trkpt>
      <trkpt lat="45.75255" lon="5.78934">
        <ele>246.7</ele>
      </trkpt>
      <trkpt lat="45.7526" lon="5.78925">
        <ele>246.3</ele>
      </trkpt>
      <trkpt lat="45.75263" lon="5.78917">
        <ele>245.5</ele>
      </trkpt>
      <trkpt lat="45.75267" lon="5.78906">
        <ele>244.3</ele>
      </trkpt>
      <trkpt lat="45.75254" lon="5.78914">
        <ele>244</ele>
      </trkpt>
      <trkpt lat="45.75253" lon="5.78914">
        <ele>243.9</ele>
      </trkpt>
      <trkpt lat="45.75237" lon="5.78921">
        <ele>243.1</ele>
      </trkpt>
      <trkpt lat="45.75226" lon="5.78927">
        <ele>242.5</ele>
      </trkpt>
      <trkpt lat="45.75214" lon="5.78933">
        <ele>241.8</ele>
      </trkpt>
      <trkpt lat="45.75194" lon="5.78945">
        <ele>239</ele>
      </trkpt>
      <trkpt lat="45.75188" lon="5.78948">
        <ele>238.7</ele>
      </trkpt>
      <trkpt lat="45.75187" lon="5.78949">
        <ele>238.6</ele>
      </trkpt>
      <trkpt lat="45.75185" lon="5.78945">
        <ele>238.3</ele>
      </trkpt>
      <trkpt lat="45.75183" lon="5.78941">
        <ele>238.1</ele>
      </trkpt>
      <trkpt lat="45.75181" lon="5.78935">
        <ele>237.9</ele>
      </trkpt>
      <trkpt lat="45.7518" lon="5.78929">
        <ele>237.6</ele>
      </trkpt>
      <trkpt lat="45.75178" lon="5.78922">
        <ele>237.2</ele>
      </trkpt>
      <trkpt lat="45.75175" lon="5.78909">
        <ele>236.2</ele>
      </trkpt>
      <trkpt lat="45.75169" lon="5.78883">
        <ele>234.4</ele>
      </trkpt>
      <trkpt lat="45.75164" lon="5.78863">
        <ele>234</ele>
      </trkpt>
      <trkpt lat="45.75158" lon="5.78844">
        <ele>234.2</ele>
      </trkpt>
      <trkpt lat="45.75156" lon="5.78835">
        <ele>234.2</ele>
      </trkpt>
      <trkpt lat="45.75155" lon="5.7883">
        <ele>234</ele>
      </trkpt>
      <trkpt lat="45.75154" lon="5.78825">
        <ele>233.6</ele>
      </trkpt>
      <trkpt lat="45.75152" lon="5.78817">
        <ele>233.1</ele>
      </trkpt>
      <trkpt lat="45.75151" lon="5.7881">
        <ele>232.7</ele>
      </trkpt>
      <trkpt lat="45.7515" lon="5.78805">
        <ele>232.4</ele>
      </trkpt>
      <trkpt lat="45.7515" lon="5.788">
        <ele>232.4</ele>
      </trkpt>
      <trkpt lat="45.7515" lon="5.78794">
        <ele>232.4</ele>
      </trkpt>
      <trkpt lat="45.7515" lon="5.78789">
        <ele>232.4</ele>
      </trkpt>
      <trkpt lat="45.7515" lon="5.78783">
        <ele>232.4</ele>
      </trkpt>
      <trkpt lat="45.75151" lon="5.78779">
        <ele>232.4</ele>
      </trkpt>
      <trkpt lat="45.75151" lon="5.7877">
        <ele>232.1</ele>
      </trkpt>
      <trkpt lat="45.7515" lon="5.78758">
        <ele>231.7</ele>
      </trkpt>
      <trkpt lat="45.75149" lon="5.78748">
        <ele>231.4</ele>
      </trkpt>
      <trkpt lat="45.75149" lon="5.78741">
        <ele>231.6</ele>
      </trkpt>
      <trkpt lat="45.75148" lon="5.78733">
        <ele>231.7</ele>
      </trkpt>
      <trkpt lat="45.75148" lon="5.78726">
        <ele>231.9</ele>
      </trkpt>
      <trkpt lat="45.75148" lon="5.78719">
        <ele>231.8</ele>
      </trkpt>
      <trkpt lat="45.75149" lon="5.78713">
        <ele>231.5</ele>
      </trkpt>
      <trkpt lat="45.7515" lon="5.78707">
        <ele>231.1</ele>
      </trkpt>
      <trkpt lat="45.75152" lon="5.78699">
        <ele>230.7</ele>
      </trkpt>
      <trkpt lat="45.75153" lon="5.78694">
        <ele>230.5</ele>
      </trkpt>
      <trkpt lat="45.75155" lon="5.78687">
        <ele>230.6</ele>
      </trkpt>
      <trkpt lat="45.75155" lon="5.78681">
        <ele>230.6</ele>
      </trkpt>
      <trkpt lat="45.75156" lon="5.78673">
        <ele>230.6</ele>
      </trkpt>
      <trkpt lat="45.75156" lon="5.78667">
        <ele>230.6</ele>
      </trkpt>
      <trkpt lat="45.75156" lon="5.78661">
        <ele>230.5</ele>
      </trkpt>
      <trkpt lat="45.75155" lon="5.78653">
        <ele>230.3</ele>
      </trkpt>
      <trkpt lat="45.75155" lon="5.78644">
        <ele>230.1</ele>
      </trkpt>
      <trkpt lat="45.75155" lon="5.78637">
        <ele>230</ele>
      </trkpt>
      <trkpt lat="45.75154" lon="5.7863">
        <ele>230</ele>
      </trkpt>
      <trkpt lat="45.75153" lon="5.78623">
        <ele>230</ele>
      </trkpt>
      <trkpt lat="45.75152" lon="5.78614">
        <ele>230</ele>
      </trkpt>
      <trkpt lat="45.7515" lon="5.78608">
        <ele>229.9</ele>
      </trkpt>
      <trkpt lat="45.7515" lon="5.78606">
        <ele>229.8</ele>
      </trkpt>
      <trkpt lat="45.75148" lon="5.78599">
        <ele>229.6</ele>
      </trkpt>
      <trkpt lat="45.75147" lon="5.78592">
        <ele>229.3</ele>
      </trkpt>
      <trkpt lat="45.75145" lon="5.78584">
        <ele>229</ele>
      </trkpt>
      <trkpt lat="45.75144" lon="5.78576">
        <ele>229</ele>
      </trkpt>
      <trkpt lat="45.75143" lon="5.78567">
        <ele>229</ele>
      </trkpt>
      <trkpt lat="45.75141" lon="5.78557">
        <ele>229</ele>
      </trkpt>
      <trkpt lat="45.7514" lon="5.78546">
        <ele>229</ele>
      </trkpt>
      <trkpt lat="45.75139" lon="5.78538">
        <ele>229</ele>
      </trkpt>
      <trkpt lat="45.75137" lon="5.7853">
        <ele>229</ele>
      </trkpt>
      <trkpt lat="45.75136" lon="5.78522">
        <ele>229</ele>
      </trkpt>
      <trkpt lat="45.75136" lon="5.78516">
        <ele>229</ele>
      </trkpt>
      <trkpt lat="45.75136" lon="5.78508">
        <ele>229</ele>
      </trkpt>
      <trkpt lat="45.75136" lon="5.78502">
        <ele>229</ele>
      </trkpt>
      <trkpt lat="45.75136" lon="5.78496">
        <ele>228.6</ele>
      </trkpt>
      <trkpt lat="45.75137" lon="5.78491">
        <ele>228.1</ele>
      </trkpt>
      <trkpt lat="45.75137" lon="5.78484">
        <ele>227.4</ele>
      </trkpt>
      <trkpt lat="45.75141" lon="5.78481">
        <ele>227</ele>
      </trkpt>
      <trkpt lat="45.75146" lon="5.78479">
        <ele>227.1</ele>
      </trkpt>
      <trkpt lat="45.75149" lon="5.78479">
        <ele>227.3</ele>
      </trkpt>
      <trkpt lat="45.75146" lon="5.78479">
        <ele>227.1</ele>
      </trkpt>
      <trkpt lat="45.75141" lon="5.78481">
        <ele>227</ele>
      </trkpt>
      <trkpt lat="45.75137" lon="5.78484">
        <ele>227.4</ele>
      </trkpt>
      <trkpt lat="45.75133" lon="5.78481">
        <ele>227.4</ele>
      </trkpt>
      <trkpt lat="45.7513" lon="5.78481">
        <ele>227.6</ele>
      </trkpt>
      <trkpt lat="45.75127" lon="5.78481">
        <ele>227.8</ele>
      </trkpt>
      <trkpt lat="45.75122" lon="5.78481">
        <ele>228.2</ele>
      </trkpt>
      <trkpt lat="45.75117" lon="5.78482">
        <ele>228.6</ele>
      </trkpt>
      <trkpt lat="45.7511" lon="5.78483">
        <ele>229</ele>
      </trkpt>
      <trkpt lat="45.75105" lon="5.78483">
        <ele>228.9</ele>
      </trkpt>
      <trkpt lat="45.75099" lon="5.78483">
        <ele>228.7</ele>
      </trkpt>
      <trkpt lat="45.75094" lon="5.78482">
        <ele>228.6</ele>
      </trkpt>
      <trkpt lat="45.7509" lon="5.78482">
        <ele>228.5</ele>
      </trkpt>
      <trkpt lat="45.75085" lon="5.78482">
        <ele>228.4</ele>
      </trkpt>
      <trkpt lat="45.7508" lon="5.78481">
        <ele>228.2</ele>
      </trkpt>
      <trkpt lat="45.75075" lon="5.78482">
        <ele>228.1</ele>
      </trkpt>
      <trkpt lat="45.7507" lon="5.78482">
        <ele>228</ele>
      </trkpt>
      <trkpt lat="45.75065" lon="5.78483">
        <ele>228</ele>
      </trkpt>
      <trkpt lat="45.75059" lon="5.78485">
        <ele>228</ele>
      </trkpt>
      <trkpt lat="45.75053" lon="5.78485">
        <ele>227.9</ele>
      </trkpt>
      <trkpt lat="45.75047" lon="5.78486">
        <ele>227.8</ele>
      </trkpt>
      <trkpt lat="45.75042" lon="5.78486">
        <ele>227.7</ele>
      </trkpt>
      <trkpt lat="45.75036" lon="5.78487">
        <ele>227.7</ele>
      </trkpt>
      <trkpt lat="45.75029" lon="5.78487">
        <ele>227.6</ele>
      </trkpt>
      <trkpt lat="45.75023" lon="5.78487">
        <ele>227.6</ele>
      </trkpt>
      <trkpt lat="45.75017" lon="5.78488">
        <ele>227.7</ele>
      </trkpt>
      <trkpt lat="45.75012" lon="5.78487">
        <ele>227.6</ele>
      </trkpt>
      <trkpt lat="45.75005" lon="5.78487">
        <ele>227.6</ele>
      </trkpt>
      <trkpt lat="45.75001" lon="5.78487">
        <ele>227.6</ele>
      </trkpt>
      <trkpt lat="45.74996" lon="5.78486">
        <ele>227.5</ele>
      </trkpt>
      <trkpt lat="45.74992" lon="5.78486">
        <ele>227.6</ele>
      </trkpt>
      <trkpt lat="45.74986" lon="5.78485">
        <ele>227.7</ele>
      </trkpt>
      <trkpt lat="45.74982" lon="5.78484">
        <ele>227.6</ele>
      </trkpt>
      <trkpt lat="45.74978" lon="5.78483">
        <ele>227.6</ele>
      </trkpt>
      <trkpt lat="45.74973" lon="5.78482">
        <ele>227.7</ele>
      </trkpt>
      <trkpt lat="45.74967" lon="5.78481">
        <ele>227.6</ele>
      </trkpt>
      <trkpt lat="45.74961" lon="5.7848">
        <ele>227.6</ele>
      </trkpt>
      <trkpt lat="45.74956" lon="5.7848">
        <ele>227.6</ele>
      </trkpt>
      <trkpt lat="45.7495" lon="5.7848">
        <ele>227.6</ele>
      </trkpt>
      <trkpt lat="45.74944" lon="5.78479">
        <ele>227.5</ele>
      </trkpt>
      <trkpt lat="45.74938" lon="5.78479">
        <ele>227.5</ele>
      </trkpt>
      <trkpt lat="45.74933" lon="5.7848">
        <ele>227.6</ele>
      </trkpt>
      <trkpt lat="45.74928" lon="5.78481">
        <ele>227.6</ele>
      </trkpt>
      <trkpt lat="45.74922" lon="5.78482">
        <ele>227.7</ele>
      </trkpt>
      <trkpt lat="45.74917" lon="5.78484">
        <ele>227.8</ele>
      </trkpt>
      <trkpt lat="45.74913" lon="5.78485">
        <ele>227.8</ele>
      </trkpt>
      <trkpt lat="45.74906" lon="5.78487">
        <ele>227.9</ele>
      </trkpt>
      <trkpt lat="45.74901" lon="5.78488">
        <ele>227.9</ele>
      </trkpt>
      <trkpt lat="45.74894" lon="5.78488">
        <ele>227.8</ele>
      </trkpt>
      <trkpt lat="45.74889" lon="5.78489">
        <ele>227.8</ele>
      </trkpt>
      <trkpt lat="45.74881" lon="5.78491">
        <ele>227.9</ele>
      </trkpt>
      <trkpt lat="45.74876" lon="5.78492">
        <ele>228</ele>
      </trkpt>
      <trkpt lat="45.74871" lon="5.78493">
        <ele>228.1</ele>
      </trkpt>
      <trkpt lat="45.74866" lon="5.78494">
        <ele>228.2</ele>
      </trkpt>
      <trkpt lat="45.74862" lon="5.78495">
        <ele>228.3</ele>
      </trkpt>
      <trkpt lat="45.74858" lon="5.78496">
        <ele>228.2</ele>
      </trkpt>
      <trkpt lat="45.74854" lon="5.78499">
        <ele>228.3</ele>
      </trkpt>
      <trkpt lat="45.7485" lon="5.78502">
        <ele>228.3</ele>
      </trkpt>
      <trkpt lat="45.74846" lon="5.78505">
        <ele>228.1</ele>
      </trkpt>
      <trkpt lat="45.74842" lon="5.78509">
        <ele>228.1</ele>
      </trkpt>
      <trkpt lat="45.74839" lon="5.78512">
        <ele>228.1</ele>
      </trkpt>
      <trkpt lat="45.74837" lon="5.78516">
        <ele>228.3</ele>
      </trkpt>
      <trkpt lat="45.74834" lon="5.78522">
        <ele>228.6</ele>
      </trkpt>
      <trkpt lat="45.74833" lon="5.78526">
        <ele>228.9</ele>
      </trkpt>
      <trkpt lat="45.74831" lon="5.78536">
        <ele>229.1</ele>
      </trkpt>
      <trkpt lat="45.74836" lon="5.78537">
        <ele>229</ele>
      </trkpt>
      <trkpt lat="45.74837" lon="5.78537">
        <ele>229</ele>
      </trkpt>
      <trkpt lat="45.74836" lon="5.78537">
        <ele>229</ele>
      </trkpt>
      <trkpt lat="45.74831" lon="5.78536">
        <ele>229.1</ele>
      </trkpt>
      <trkpt lat="45.74819" lon="5.78537">
        <ele>229.3</ele>
      </trkpt>
      <trkpt lat="45.74814" lon="5.78537">
        <ele>229.5</ele>
      </trkpt>
      <trkpt lat="45.74808" lon="5.78536">
        <ele>229.6</ele>
      </trkpt>
      <trkpt lat="45.748" lon="5.78534">
        <ele>229.7</ele>
      </trkpt>
      <trkpt lat="45.74793" lon="5.78533">
        <ele>229.5</ele>
      </trkpt>
      <trkpt lat="45.74786" lon="5.78532">
        <ele>229.4</ele>
      </trkpt>
      <trkpt lat="45.74779" lon="5.78534">
        <ele>229.2</ele>
      </trkpt>
      <trkpt lat="45.74772" lon="5.78536">
        <ele>229.1</ele>
      </trkpt>
      <trkpt lat="45.74764" lon="5.7854">
        <ele>228.9</ele>
      </trkpt>
      <trkpt lat="45.74758" lon="5.78544">
        <ele>228.9</ele>
      </trkpt>
      <trkpt lat="45.74752" lon="5.78547">
        <ele>228.8</ele>
      </trkpt>
      <trkpt lat="45.74746" lon="5.78549">
        <ele>228.8</ele>
      </trkpt>
      <trkpt lat="45.7474" lon="5.7855">
        <ele>228.8</ele>
      </trkpt>
      <trkpt lat="45.74734" lon="5.7855">
        <ele>228.8</ele>
      </trkpt>
      <trkpt lat="45.74725" lon="5.7855">
        <ele>228.8</ele>
      </trkpt>
      <trkpt lat="45.74717" lon="5.78551">
        <ele>228.9</ele>
      </trkpt>
      <trkpt lat="45.74709" lon="5.78551">
        <ele>228.9</ele>
      </trkpt>
      <trkpt lat="45.74703" lon="5.78552">
        <ele>229</ele>
      </trkpt>
      <trkpt lat="45.74694" lon="5.78556">
        <ele>229</ele>
      </trkpt>
      <trkpt lat="45.74687" lon="5.7856">
        <ele>228.5</ele>
      </trkpt>
      <trkpt lat="45.7468" lon="5.78565">
        <ele>228.3</ele>
      </trkpt>
      <trkpt lat="45.74672" lon="5.78571">
        <ele>228.3</ele>
      </trkpt>
      <trkpt lat="45.74665" lon="5.78578">
        <ele>228.5</ele>
      </trkpt>
      <trkpt lat="45.74658" lon="5.78584">
        <ele>228.4</ele>
      </trkpt>
      <trkpt lat="45.74649" lon="5.78591">
        <ele>228</ele>
      </trkpt>
      <trkpt lat="45.74643" lon="5.78595">
        <ele>227.9</ele>
      </trkpt>
      <trkpt lat="45.74637" lon="5.78597">
        <ele>228</ele>
      </trkpt>
      <trkpt lat="45.7463" lon="5.78599">
        <ele>228.3</ele>
      </trkpt>
      <trkpt lat="45.74626" lon="5.786">
        <ele>228.4</ele>
      </trkpt>
      <trkpt lat="45.7462" lon="5.786">
        <ele>228.5</ele>
      </trkpt>
      <trkpt lat="45.74614" lon="5.786">
        <ele>228.6</ele>
      </trkpt>
      <trkpt lat="45.7461" lon="5.78599">
        <ele>228.6</ele>
      </trkpt>
      <trkpt lat="45.74605" lon="5.78597">
        <ele>228.5</ele>
      </trkpt>
      <trkpt lat="45.746" lon="5.78595">
        <ele>228.4</ele>
      </trkpt>
      <trkpt lat="45.74595" lon="5.78593">
        <ele>228.3</ele>
      </trkpt>
      <trkpt lat="45.74585" lon="5.78588">
        <ele>228.2</ele>
      </trkpt>
      <trkpt lat="45.74577" lon="5.78581">
        <ele>228.2</ele>
      </trkpt>
      <trkpt lat="45.74567" lon="5.78575">
        <ele>228.2</ele>
      </trkpt>
      <trkpt lat="45.74559" lon="5.78569">
        <ele>228</ele>
      </trkpt>
      <trkpt lat="45.74548" lon="5.78562">
        <ele>227.7</ele>
      </trkpt>
      <trkpt lat="45.74535" lon="5.78552">
        <ele>227.8</ele>
      </trkpt>
      <trkpt lat="45.74521" lon="5.78542">
        <ele>228</ele>
      </trkpt>
      <trkpt lat="45.74503" lon="5.7853">
        <ele>228</ele>
      </trkpt>
      <trkpt lat="45.74484" lon="5.78517">
        <ele>228.5</ele>
      </trkpt>
      <trkpt lat="45.74466" lon="5.78504">
        <ele>228.3</ele>
      </trkpt>
      <trkpt lat="45.74454" lon="5.78494">
        <ele>228.4</ele>
      </trkpt>
      <trkpt lat="45.74442" lon="5.78486">
        <ele>228</ele>
      </trkpt>
      <trkpt lat="45.74432" lon="5.7848">
        <ele>227.6</ele>
      </trkpt>
      <trkpt lat="45.74425" lon="5.78477">
        <ele>227.3</ele>
      </trkpt>
      <trkpt lat="45.74417" lon="5.78476">
        <ele>227.3</ele>
      </trkpt>
      <trkpt lat="45.74409" lon="5.78475">
        <ele>227.4</ele>
      </trkpt>
      <trkpt lat="45.74399" lon="5.78474">
        <ele>227.7</ele>
      </trkpt>
      <trkpt lat="45.74385" lon="5.7847">
        <ele>227.7</ele>
      </trkpt>
      <trkpt lat="45.74373" lon="5.78466">
        <ele>227.2</ele>
      </trkpt>
      <trkpt lat="45.74364" lon="5.78462">
        <ele>226.9</ele>
      </trkpt>
      <trkpt lat="45.74356" lon="5.78457">
        <ele>226.7</ele>
      </trkpt>
      <trkpt lat="45.74347" lon="5.7845">
        <ele>226.8</ele>
      </trkpt>
      <trkpt lat="45.74332" lon="5.78438">
        <ele>227.3</ele>
      </trkpt>
      <trkpt lat="45.74327" lon="5.78434">
        <ele>227.1</ele>
      </trkpt>
      <trkpt lat="45.74323" lon="5.78432">
        <ele>227.1</ele>
      </trkpt>
      <trkpt lat="45.7431" lon="5.78426">
        <ele>227.7</ele>
      </trkpt>
      <trkpt lat="45.74284" lon="5.78416">
        <ele>228</ele>
      </trkpt>
      <trkpt lat="45.74273" lon="5.78411">
        <ele>227.8</ele>
      </trkpt>
      <trkpt lat="45.74264" lon="5.78408">
        <ele>227.8</ele>
      </trkpt>
      <trkpt lat="45.74257" lon="5.78404">
        <ele>227.9</ele>
      </trkpt>
      <trkpt lat="45.7425" lon="5.78399">
        <ele>228</ele>
      </trkpt>
      <trkpt lat="45.74238" lon="5.78389">
        <ele>228</ele>
      </trkpt>
      <trkpt lat="45.74218" lon="5.78372">
        <ele>228</ele>
      </trkpt>
      <trkpt lat="45.74212" lon="5.78366">
        <ele>228</ele>
      </trkpt>
      <trkpt lat="45.74207" lon="5.78363">
        <ele>228</ele>
      </trkpt>
      <trkpt lat="45.74202" lon="5.78359">
        <ele>228</ele>
      </trkpt>
      <trkpt lat="45.74181" lon="5.78343">
        <ele>228</ele>
      </trkpt>
      <trkpt lat="45.74162" lon="5.7833">
        <ele>228</ele>
      </trkpt>
      <trkpt lat="45.74152" lon="5.78322">
        <ele>228</ele>
      </trkpt>
      <trkpt lat="45.74147" lon="5.78319">
        <ele>228</ele>
      </trkpt>
      <trkpt lat="45.74143" lon="5.78314">
        <ele>228</ele>
      </trkpt>
      <trkpt lat="45.74139" lon="5.78309">
        <ele>228</ele>
      </trkpt>
      <trkpt lat="45.74137" lon="5.78303">
        <ele>228.1</ele>
      </trkpt>
      <trkpt lat="45.74134" lon="5.78298">
        <ele>228.3</ele>
      </trkpt>
      <trkpt lat="45.74131" lon="5.78291">
        <ele>228.4</ele>
      </trkpt>
      <trkpt lat="45.74128" lon="5.78284">
        <ele>228.5</ele>
      </trkpt>
      <trkpt lat="45.74124" lon="5.78277">
        <ele>228.5</ele>
      </trkpt>
      <trkpt lat="45.74121" lon="5.78269">
        <ele>228.5</ele>
      </trkpt>
      <trkpt lat="45.74118" lon="5.78259">
        <ele>228.6</ele>
      </trkpt>
      <trkpt lat="45.74116" lon="5.78252">
        <ele>228.7</ele>
      </trkpt>
      <trkpt lat="45.74114" lon="5.78246">
        <ele>228.7</ele>
      </trkpt>
      <trkpt lat="45.74112" lon="5.78238">
        <ele>228.5</ele>
      </trkpt>
      <trkpt lat="45.7411" lon="5.78229">
        <ele>228.3</ele>
      </trkpt>
      <trkpt lat="45.74108" lon="5.78222">
        <ele>228.1</ele>
      </trkpt>
      <trkpt lat="45.74107" lon="5.78214">
        <ele>228.4</ele>
      </trkpt>
      <trkpt lat="45.74104" lon="5.78201">
        <ele>228.8</ele>
      </trkpt>
      <trkpt lat="45.74101" lon="5.78181">
        <ele>228.7</ele>
      </trkpt>
      <trkpt lat="45.741" lon="5.7818">
        <ele>228.7</ele>
      </trkpt>
      <trkpt lat="45.74099" lon="5.78176">
        <ele>228.6</ele>
      </trkpt>
      <trkpt lat="45.74098" lon="5.78172">
        <ele>228.6</ele>
      </trkpt>
      <trkpt lat="45.74096" lon="5.78166">
        <ele>228.6</ele>
      </trkpt>
      <trkpt lat="45.74095" lon="5.78162">
        <ele>228.7</ele>
      </trkpt>
      <trkpt lat="45.74092" lon="5.78157">
        <ele>228.8</ele>
      </trkpt>
      <trkpt lat="45.7409" lon="5.78153">
        <ele>228.9</ele>
      </trkpt>
      <trkpt lat="45.74087" lon="5.78139">
        <ele>229</ele>
      </trkpt>
      <trkpt lat="45.74084" lon="5.78128">
        <ele>229</ele>
      </trkpt>
      <trkpt lat="45.74082" lon="5.78118">
        <ele>229.2</ele>
      </trkpt>
      <trkpt lat="45.7408" lon="5.78111">
        <ele>229.4</ele>
      </trkpt>
      <trkpt lat="45.74078" lon="5.78105">
        <ele>229.3</ele>
      </trkpt>
      <trkpt lat="45.74075" lon="5.78098">
        <ele>229.1</ele>
      </trkpt>
      <trkpt lat="45.74072" lon="5.78092">
        <ele>229</ele>
      </trkpt>
      <trkpt lat="45.74068" lon="5.78087">
        <ele>228.8</ele>
      </trkpt>
      <trkpt lat="45.74065" lon="5.78082">
        <ele>228.7</ele>
      </trkpt>
      <trkpt lat="45.74061" lon="5.78078">
        <ele>228.8</ele>
      </trkpt>
      <trkpt lat="45.74057" lon="5.78074">
        <ele>228.9</ele>
      </trkpt>
      <trkpt lat="45.74052" lon="5.78068">
        <ele>229.5</ele>
      </trkpt>
      <trkpt lat="45.7405" lon="5.78066">
        <ele>229.6</ele>
      </trkpt>
      <trkpt lat="45.74049" lon="5.78064">
        <ele>229.6</ele>
      </trkpt>
      <trkpt lat="45.74044" lon="5.78061">
        <ele>229.7</ele>
      </trkpt>
      <trkpt lat="45.7404" lon="5.78058">
        <ele>229.4</ele>
      </trkpt>
      <trkpt lat="45.74037" lon="5.78057">
        <ele>229.3</ele>
      </trkpt>
      <trkpt lat="45.74038" lon="5.78055">
        <ele>229</ele>
      </trkpt>
      <trkpt lat="45.74038" lon="5.7805">
        <ele>228.8</ele>
      </trkpt>
      <trkpt lat="45.74038" lon="5.78044">
        <ele>228.6</ele>
      </trkpt>
      <trkpt lat="45.74038" lon="5.78038">
        <ele>228.4</ele>
      </trkpt>
      <trkpt lat="45.74038" lon="5.78024">
        <ele>228</ele>
      </trkpt>
      <trkpt lat="45.74038" lon="5.78019">
        <ele>228</ele>
      </trkpt>
      <trkpt lat="45.74043" lon="5.77988">
        <ele>228</ele>
      </trkpt>
      <trkpt lat="45.74046" lon="5.7795">
        <ele>228</ele>
      </trkpt>
      <trkpt lat="45.74047" lon="5.77894">
        <ele>228</ele>
      </trkpt>
      <trkpt lat="45.74046" lon="5.7786">
        <ele>228</ele>
      </trkpt>
      <trkpt lat="45.74046" lon="5.77852">
        <ele>228</ele>
      </trkpt>
      <trkpt lat="45.74045" lon="5.77787">
        <ele>228</ele>
      </trkpt>
      <trkpt lat="45.74045" lon="5.77779">
        <ele>228</ele>
      </trkpt>
      <trkpt lat="45.74046" lon="5.77762">
        <ele>228</ele>
      </trkpt>
      <trkpt lat="45.74046" lon="5.77756">
        <ele>228</ele>
      </trkpt>
      <trkpt lat="45.74047" lon="5.77752">
        <ele>228</ele>
      </trkpt>
      <trkpt lat="45.74046" lon="5.77743">
        <ele>228</ele>
      </trkpt>
      <trkpt lat="45.74046" lon="5.77739">
        <ele>228</ele>
      </trkpt>
      <trkpt lat="45.74044" lon="5.77735">
        <ele>228</ele>
      </trkpt>
      <trkpt lat="45.74042" lon="5.77731">
        <ele>228</ele>
      </trkpt>
      <trkpt lat="45.74039" lon="5.77728">
        <ele>228</ele>
      </trkpt>
      <trkpt lat="45.74034" lon="5.77726">
        <ele>228</ele>
      </trkpt>
      <trkpt lat="45.74029" lon="5.77724">
        <ele>228</ele>
      </trkpt>
      <trkpt lat="45.74019" lon="5.77722">
        <ele>228</ele>
      </trkpt>
      <trkpt lat="45.74012" lon="5.7772">
        <ele>228</ele>
      </trkpt>
      <trkpt lat="45.74006" lon="5.77718">
        <ele>228</ele>
      </trkpt>
      <trkpt lat="45.73999" lon="5.77716">
        <ele>228</ele>
      </trkpt>
      <trkpt lat="45.73992" lon="5.77714">
        <ele>228</ele>
      </trkpt>
      <trkpt lat="45.73985" lon="5.77712">
        <ele>228</ele>
      </trkpt>
      <trkpt lat="45.7398" lon="5.7771">
        <ele>228</ele>
      </trkpt>
      <trkpt lat="45.73975" lon="5.77709">
        <ele>228</ele>
      </trkpt>
      <trkpt lat="45.73971" lon="5.77708">
        <ele>228</ele>
      </trkpt>
      <trkpt lat="45.73968" lon="5.77707">
        <ele>228</ele>
      </trkpt>
      <trkpt lat="45.73967" lon="5.77706">
        <ele>228</ele>
      </trkpt>
      <trkpt lat="45.73962" lon="5.77701">
        <ele>228</ele>
      </trkpt>
      <trkpt lat="45.73956" lon="5.77704">
        <ele>228</ele>
      </trkpt>
      <trkpt lat="45.73911" lon="5.77699">
        <ele>228</ele>
      </trkpt>
      <trkpt lat="45.73902" lon="5.77698">
        <ele>228</ele>
      </trkpt>
      <trkpt lat="45.7389" lon="5.77697">
        <ele>228</ele>
      </trkpt>
      <trkpt lat="45.73881" lon="5.77698">
        <ele>228</ele>
      </trkpt>
      <trkpt lat="45.73866" lon="5.77702">
        <ele>228</ele>
      </trkpt>
      <trkpt lat="45.7386" lon="5.77704">
        <ele>228</ele>
      </trkpt>
      <trkpt lat="45.73855" lon="5.77707">
        <ele>228</ele>
      </trkpt>
      <trkpt lat="45.73846" lon="5.77712">
        <ele>228</ele>
      </trkpt>
      <trkpt lat="45.73837" lon="5.77718">
        <ele>228</ele>
      </trkpt>
      <trkpt lat="45.73827" lon="5.77725">
        <ele>228</ele>
      </trkpt>
      <trkpt lat="45.73818" lon="5.77732">
        <ele>228</ele>
      </trkpt>
      <trkpt lat="45.73808" lon="5.7774">
        <ele>228</ele>
      </trkpt>
      <trkpt lat="45.73799" lon="5.77749">
        <ele>228</ele>
      </trkpt>
      <trkpt lat="45.73791" lon="5.77758">
        <ele>228</ele>
      </trkpt>
      <trkpt lat="45.73785" lon="5.77767">
        <ele>228</ele>
      </trkpt>
      <trkpt lat="45.73781" lon="5.77777">
        <ele>228</ele>
      </trkpt>
      <trkpt lat="45.73779" lon="5.77786">
        <ele>228</ele>
      </trkpt>
      <trkpt lat="45.73778" lon="5.778">
        <ele>228</ele>
      </trkpt>
      <trkpt lat="45.73777" lon="5.77819">
        <ele>228</ele>
      </trkpt>
      <trkpt lat="45.73777" lon="5.77825">
        <ele>228</ele>
      </trkpt>
      <trkpt lat="45.73776" lon="5.7784">
        <ele>228</ele>
      </trkpt>
      <trkpt lat="45.73776" lon="5.77842">
        <ele>228</ele>
      </trkpt>
      <trkpt lat="45.73689" lon="5.77827">
        <ele>227.2</ele>
      </trkpt>
      <trkpt lat="45.73605" lon="5.77988">
        <ele>227.2</ele>
      </trkpt>
      <trkpt lat="45.73607" lon="5.77816">
        <ele>227</ele>
      </trkpt>
      <trkpt lat="45.73575" lon="5.77784">
        <ele>227</ele>
      </trkpt>
      <trkpt lat="45.73548" lon="5.77739">
        <ele>227</ele>
      </trkpt>
      <trkpt lat="45.73517" lon="5.7772">
        <ele>227</ele>
      </trkpt>
      <trkpt lat="45.73513" lon="5.77707">
        <ele>227</ele>
      </trkpt>
      <trkpt lat="45.73521" lon="5.77683">
        <ele>227</ele>
      </trkpt>
      <trkpt lat="45.73524" lon="5.7767">
        <ele>227</ele>
      </trkpt>
      <trkpt lat="45.73536" lon="5.7763">
        <ele>227</ele>
      </trkpt>
      <trkpt lat="45.73542" lon="5.77606">
        <ele>227</ele>
      </trkpt>
      <trkpt lat="45.73548" lon="5.77583">
        <ele>227</ele>
      </trkpt>
      <trkpt lat="45.73552" lon="5.77572">
        <ele>227</ele>
      </trkpt>
      <trkpt lat="45.73557" lon="5.77561">
        <ele>227</ele>
      </trkpt>
      <trkpt lat="45.73567" lon="5.77544">
        <ele>227</ele>
      </trkpt>
      <trkpt lat="45.73599" lon="5.77502">
        <ele>227</ele>
      </trkpt>
      <trkpt lat="45.73618" lon="5.77475">
        <ele>227</ele>
      </trkpt>
      <trkpt lat="45.73634" lon="5.77451">
        <ele>227</ele>
      </trkpt>
      <trkpt lat="45.73641" lon="5.77441">
        <ele>227</ele>
      </trkpt>
      <trkpt lat="45.73652" lon="5.77419">
        <ele>227</ele>
      </trkpt>
      <trkpt lat="45.73662" lon="5.77392">
        <ele>227</ele>
      </trkpt>
      <trkpt lat="45.73698" lon="5.77306">
        <ele>227</ele>
      </trkpt>
      <trkpt lat="45.73699" lon="5.77305">
        <ele>227</ele>
      </trkpt>
      <trkpt lat="45.73699" lon="5.77304">
        <ele>227</ele>
      </trkpt>
      <trkpt lat="45.73698" lon="5.77302">
        <ele>227</ele>
      </trkpt>
      <trkpt lat="45.73698" lon="5.77301">
        <ele>227</ele>
      </trkpt>
      <trkpt lat="45.73696" lon="5.77301">
        <ele>227</ele>
      </trkpt>
      <trkpt lat="45.73695" lon="5.77301">
        <ele>227</ele>
      </trkpt>
      <trkpt lat="45.73617" lon="5.77324">
        <ele>226.6</ele>
      </trkpt>
      <trkpt lat="45.73589" lon="5.77333">
        <ele>226.2</ele>
      </trkpt>
      <trkpt lat="45.73581" lon="5.77337">
        <ele>226.1</ele>
      </trkpt>
      <trkpt lat="45.73569" lon="5.77341">
        <ele>225.8</ele>
      </trkpt>
      <trkpt lat="45.73557" lon="5.77345">
        <ele>225.7</ele>
      </trkpt>
      <trkpt lat="45.73546" lon="5.77348">
        <ele>225.8</ele>
      </trkpt>
      <trkpt lat="45.73536" lon="5.77353">
        <ele>226.1</ele>
      </trkpt>
      <trkpt lat="45.73524" lon="5.77357">
        <ele>226.2</ele>
      </trkpt>
      <trkpt lat="45.7351" lon="5.77364">
        <ele>225.9</ele>
      </trkpt>
      <trkpt lat="45.735" lon="5.7737">
        <ele>225.6</ele>
      </trkpt>
      <trkpt lat="45.7349" lon="5.77374">
        <ele>225.7</ele>
      </trkpt>
      <trkpt lat="45.7348" lon="5.77379">
        <ele>226.2</ele>
      </trkpt>
      <trkpt lat="45.73468" lon="5.77383">
        <ele>226.8</ele>
      </trkpt>
      <trkpt lat="45.73455" lon="5.77387">
        <ele>227.1</ele>
      </trkpt>
      <trkpt lat="45.73444" lon="5.77392">
        <ele>227</ele>
      </trkpt>
      <trkpt lat="45.73431" lon="5.77399">
        <ele>226.1</ele>
      </trkpt>
      <trkpt lat="45.7342" lon="5.77405">
        <ele>225.9</ele>
      </trkpt>
      <trkpt lat="45.73408" lon="5.77411">
        <ele>226.1</ele>
      </trkpt>
      <trkpt lat="45.73398" lon="5.77415">
        <ele>226.1</ele>
      </trkpt>
      <trkpt lat="45.73385" lon="5.77422">
        <ele>225.9</ele>
      </trkpt>
      <trkpt lat="45.73376" lon="5.77428">
        <ele>225.6</ele>
      </trkpt>
      <trkpt lat="45.73363" lon="5.77436">
        <ele>225.8</ele>
      </trkpt>
      <trkpt lat="45.73353" lon="5.77444">
        <ele>226.1</ele>
      </trkpt>
      <trkpt lat="45.73341" lon="5.77453">
        <ele>225.5</ele>
      </trkpt>
      <trkpt lat="45.7333" lon="5.77462">
        <ele>225.6</ele>
      </trkpt>
      <trkpt lat="45.73321" lon="5.7747">
        <ele>225.5</ele>
      </trkpt>
      <trkpt lat="45.73312" lon="5.7748">
        <ele>225.3</ele>
      </trkpt>
      <trkpt lat="45.73302" lon="5.77487">
        <ele>225.5</ele>
      </trkpt>
      <trkpt lat="45.73293" lon="5.77492">
        <ele>226</ele>
      </trkpt>
      <trkpt lat="45.73284" lon="5.77496">
        <ele>226.4</ele>
      </trkpt>
      <trkpt lat="45.73272" lon="5.77501">
        <ele>226.4</ele>
      </trkpt>
      <trkpt lat="45.73262" lon="5.77507">
        <ele>225.7</ele>
      </trkpt>
      <trkpt lat="45.73253" lon="5.77514">
        <ele>225.7</ele>
      </trkpt>
      <trkpt lat="45.73241" lon="5.77524">
        <ele>226.3</ele>
      </trkpt>
      <trkpt lat="45.73232" lon="5.77533">
        <ele>226.5</ele>
      </trkpt>
      <trkpt lat="45.73223" lon="5.77543">
        <ele>226.6</ele>
      </trkpt>
      <trkpt lat="45.73212" lon="5.77553">
        <ele>226.8</ele>
      </trkpt>
      <trkpt lat="45.73202" lon="5.77562">
        <ele>227</ele>
      </trkpt>
      <trkpt lat="45.73191" lon="5.77569">
        <ele>226.8</ele>
      </trkpt>
      <trkpt lat="45.73182" lon="5.77575">
        <ele>226.8</ele>
      </trkpt>
      <trkpt lat="45.73174" lon="5.7758">
        <ele>227.3</ele>
      </trkpt>
      <trkpt lat="45.73166" lon="5.77584">
        <ele>227.9</ele>
      </trkpt>
      <trkpt lat="45.73146" lon="5.77598">
        <ele>226.1</ele>
      </trkpt>
      <trkpt lat="45.73119" lon="5.77613">
        <ele>226.3</ele>
      </trkpt>
      <trkpt lat="45.73093" lon="5.77629">
        <ele>225.9</ele>
      </trkpt>
      <trkpt lat="45.73081" lon="5.77635">
        <ele>226.3</ele>
      </trkpt>
      <trkpt lat="45.73072" lon="5.77638">
        <ele>226.5</ele>
      </trkpt>
      <trkpt lat="45.73063" lon="5.77641">
        <ele>226.3</ele>
      </trkpt>
      <trkpt lat="45.73053" lon="5.77645">
        <ele>226</ele>
      </trkpt>
      <trkpt lat="45.73045" lon="5.77649">
        <ele>225.6</ele>
      </trkpt>
      <trkpt lat="45.73036" lon="5.77654">
        <ele>225.6</ele>
      </trkpt>
      <trkpt lat="45.73025" lon="5.7766">
        <ele>225.9</ele>
      </trkpt>
      <trkpt lat="45.73016" lon="5.77665">
        <ele>226</ele>
      </trkpt>
      <trkpt lat="45.73005" lon="5.77673">
        <ele>225.7</ele>
      </trkpt>
      <trkpt lat="45.72995" lon="5.7768">
        <ele>225.8</ele>
      </trkpt>
      <trkpt lat="45.72986" lon="5.77686">
        <ele>226.1</ele>
      </trkpt>
      <trkpt lat="45.72977" lon="5.77691">
        <ele>226.5</ele>
      </trkpt>
      <trkpt lat="45.72971" lon="5.77696">
        <ele>226.9</ele>
      </trkpt>
      <trkpt lat="45.72961" lon="5.777">
        <ele>226.4</ele>
      </trkpt>
      <trkpt lat="45.72954" lon="5.77703">
        <ele>226.3</ele>
      </trkpt>
      <trkpt lat="45.72943" lon="5.77706">
        <ele>226.2</ele>
      </trkpt>
      <trkpt lat="45.72933" lon="5.77709">
        <ele>226.2</ele>
      </trkpt>
      <trkpt lat="45.72921" lon="5.77712">
        <ele>226.2</ele>
      </trkpt>
      <trkpt lat="45.72909" lon="5.77714">
        <ele>226.3</ele>
      </trkpt>
      <trkpt lat="45.72896" lon="5.77718">
        <ele>226.6</ele>
      </trkpt>
      <trkpt lat="45.72881" lon="5.77723">
        <ele>226.5</ele>
      </trkpt>
      <trkpt lat="45.72869" lon="5.77728">
        <ele>226.1</ele>
      </trkpt>
      <trkpt lat="45.72859" lon="5.77732">
        <ele>226</ele>
      </trkpt>
      <trkpt lat="45.72849" lon="5.77736">
        <ele>225.8</ele>
      </trkpt>
      <trkpt lat="45.72841" lon="5.7774">
        <ele>225.7</ele>
      </trkpt>
      <trkpt lat="45.72831" lon="5.77746">
        <ele>225.7</ele>
      </trkpt>
      <trkpt lat="45.72822" lon="5.77752">
        <ele>226.1</ele>
      </trkpt>
      <trkpt lat="45.72814" lon="5.77756">
        <ele>226.4</ele>
      </trkpt>
      <trkpt lat="45.72806" lon="5.7776">
        <ele>226.7</ele>
      </trkpt>
      <trkpt lat="45.72801" lon="5.7776">
        <ele>226.7</ele>
      </trkpt>
      <trkpt lat="45.72794" lon="5.77756">
        <ele>226.3</ele>
      </trkpt>
      <trkpt lat="45.72788" lon="5.77753">
        <ele>226.1</ele>
      </trkpt>
      <trkpt lat="45.72778" lon="5.7775">
        <ele>226</ele>
      </trkpt>
      <trkpt lat="45.72769" lon="5.77748">
        <ele>226.1</ele>
      </trkpt>
      <trkpt lat="45.72755" lon="5.77747">
        <ele>226.4</ele>
      </trkpt>
      <trkpt lat="45.72745" lon="5.77746">
        <ele>226.4</ele>
      </trkpt>
      <trkpt lat="45.72731" lon="5.77745">
        <ele>226.3</ele>
      </trkpt>
      <trkpt lat="45.72716" lon="5.77744">
        <ele>226.1</ele>
      </trkpt>
      <trkpt lat="45.72705" lon="5.77741">
        <ele>225.7</ele>
      </trkpt>
      <trkpt lat="45.72692" lon="5.77739">
        <ele>225.4</ele>
      </trkpt>
      <trkpt lat="45.7268" lon="5.77737">
        <ele>225.1</ele>
      </trkpt>
      <trkpt lat="45.72672" lon="5.77736">
        <ele>225</ele>
      </trkpt>
      <trkpt lat="45.72663" lon="5.77733">
        <ele>224.9</ele>
      </trkpt>
      <trkpt lat="45.72656" lon="5.7773">
        <ele>225.2</ele>
      </trkpt>
      <trkpt lat="45.72651" lon="5.77728">
        <ele>225.6</ele>
      </trkpt>
      <trkpt lat="45.72641" lon="5.77721">
        <ele>226.5</ele>
      </trkpt>
      <trkpt lat="45.72632" lon="5.77715">
        <ele>226.2</ele>
      </trkpt>
      <trkpt lat="45.72622" lon="5.77707">
        <ele>225.8</ele>
      </trkpt>
      <trkpt lat="45.72613" lon="5.77699">
        <ele>226</ele>
      </trkpt>
      <trkpt lat="45.726" lon="5.77688">
        <ele>225.8</ele>
      </trkpt>
      <trkpt lat="45.72588" lon="5.77678">
        <ele>225.5</ele>
      </trkpt>
      <trkpt lat="45.72575" lon="5.77669">
        <ele>225.7</ele>
      </trkpt>
      <trkpt lat="45.72564" lon="5.77661">
        <ele>225.7</ele>
      </trkpt>
      <trkpt lat="45.72551" lon="5.77651">
        <ele>225.1</ele>
      </trkpt>
      <trkpt lat="45.72542" lon="5.77644">
        <ele>225.3</ele>
      </trkpt>
      <trkpt lat="45.72533" lon="5.77637">
        <ele>226</ele>
      </trkpt>
      <trkpt lat="45.7252" lon="5.77628">
        <ele>225.7</ele>
      </trkpt>
      <trkpt lat="45.7251" lon="5.7762">
        <ele>225.2</ele>
      </trkpt>
      <trkpt lat="45.725" lon="5.77613">
        <ele>225.1</ele>
      </trkpt>
      <trkpt lat="45.7249" lon="5.77607">
        <ele>225.3</ele>
      </trkpt>
      <trkpt lat="45.7248" lon="5.77602">
        <ele>225.3</ele>
      </trkpt>
      <trkpt lat="45.7247" lon="5.77598">
        <ele>225.3</ele>
      </trkpt>
      <trkpt lat="45.72462" lon="5.77595">
        <ele>225.5</ele>
      </trkpt>
      <trkpt lat="45.72454" lon="5.77593">
        <ele>226.1</ele>
      </trkpt>
      <trkpt lat="45.72444" lon="5.7759">
        <ele>227</ele>
      </trkpt>
      <trkpt lat="45.72443" lon="5.77589">
        <ele>227</ele>
      </trkpt>
      <trkpt lat="45.72437" lon="5.77588">
        <ele>227</ele>
      </trkpt>
      <trkpt lat="45.7243" lon="5.77587">
        <ele>227</ele>
      </trkpt>
      <trkpt lat="45.72428" lon="5.77587">
        <ele>227</ele>
      </trkpt>
      <trkpt lat="45.72417" lon="5.77592">
        <ele>227</ele>
      </trkpt>
      <trkpt lat="45.72405" lon="5.77588">
        <ele>227</ele>
      </trkpt>
      <trkpt lat="45.72389" lon="5.77565">
        <ele>227.7</ele>
      </trkpt>
      <trkpt lat="45.72347" lon="5.77493">
        <ele>227</ele>
      </trkpt>
      <trkpt lat="45.72293" lon="5.7739">
        <ele>227</ele>
      </trkpt>
      <trkpt lat="45.72206" lon="5.77242">
        <ele>226.9</ele>
      </trkpt>
      <trkpt lat="45.7216" lon="5.77174">
        <ele>226.6</ele>
      </trkpt>
      <trkpt lat="45.72153" lon="5.77161">
        <ele>226.6</ele>
      </trkpt>
      <trkpt lat="45.72152" lon="5.77149">
        <ele>226.8</ele>
      </trkpt>
      <trkpt lat="45.72152" lon="5.77142">
        <ele>226.9</ele>
      </trkpt>
      <trkpt lat="45.72155" lon="5.77129">
        <ele>226.9</ele>
      </trkpt>
      <trkpt lat="45.72162" lon="5.77114">
        <ele>226.8</ele>
      </trkpt>
      <trkpt lat="45.7217" lon="5.77096">
        <ele>226.7</ele>
      </trkpt>
      <trkpt lat="45.72174" lon="5.77078">
        <ele>226.2</ele>
      </trkpt>
      <trkpt lat="45.72174" lon="5.77068">
        <ele>226.1</ele>
      </trkpt>
      <trkpt lat="45.72174" lon="5.77052">
        <ele>225.8</ele>
      </trkpt>
      <trkpt lat="45.72172" lon="5.77038">
        <ele>225.7</ele>
      </trkpt>
      <trkpt lat="45.7216" lon="5.77004">
        <ele>226</ele>
      </trkpt>
      <trkpt lat="45.72145" lon="5.76966">
        <ele>225.5</ele>
      </trkpt>
      <trkpt lat="45.72139" lon="5.76935">
        <ele>225.6</ele>
      </trkpt>
      <trkpt lat="45.7213" lon="5.76909">
        <ele>224.8</ele>
      </trkpt>
      <trkpt lat="45.72116" lon="5.76875">
        <ele>224.9</ele>
      </trkpt>
      <trkpt lat="45.72091" lon="5.76843">
        <ele>225.4</ele>
      </trkpt>
      <trkpt lat="45.72077" lon="5.76825">
        <ele>225.3</ele>
      </trkpt>
      <trkpt lat="45.72029" lon="5.76982">
        <ele>226</ele>
      </trkpt>
      <trkpt lat="45.71977" lon="5.76965">
        <ele>226</ele>
      </trkpt>
      <trkpt lat="45.71713" lon="5.76816">
        <ele>226</ele>
      </trkpt>
      <trkpt lat="45.71662" lon="5.7678">
        <ele>226</ele>
      </trkpt>
      <trkpt lat="45.71646" lon="5.76767">
        <ele>225.9</ele>
      </trkpt>
      <trkpt lat="45.71598" lon="5.76756">
        <ele>225.6</ele>
      </trkpt>
      <trkpt lat="45.71568" lon="5.76767">
        <ele>225.6</ele>
      </trkpt>
      <trkpt lat="45.71575" lon="5.7677">
        <ele>225.7</ele>
      </trkpt>
      <trkpt lat="45.71578" lon="5.76764">
        <ele>225.5</ele>
      </trkpt>
      <trkpt lat="45.7157" lon="5.76748">
        <ele>225</ele>
      </trkpt>
      <trkpt lat="45.71548" lon="5.76684">
        <ele>225.2</ele>
      </trkpt>
      <trkpt lat="45.71541" lon="5.76666">
        <ele>225</ele>
      </trkpt>
      <trkpt lat="45.71532" lon="5.76649">
        <ele>225.1</ele>
      </trkpt>
      <trkpt lat="45.71521" lon="5.76634">
        <ele>225.3</ele>
      </trkpt>
      <trkpt lat="45.71509" lon="5.76622">
        <ele>225.5</ele>
      </trkpt>
      <trkpt lat="45.71485" lon="5.76601">
        <ele>225.2</ele>
      </trkpt>
      <trkpt lat="45.71449" lon="5.76576">
        <ele>225</ele>
      </trkpt>
      <trkpt lat="45.71437" lon="5.7657">
        <ele>225</ele>
      </trkpt>
      <trkpt lat="45.71404" lon="5.76546">
        <ele>225.5</ele>
      </trkpt>
      <trkpt lat="45.7138" lon="5.76529">
        <ele>225</ele>
      </trkpt>
      <trkpt lat="45.71364" lon="5.76518">
        <ele>225.4</ele>
      </trkpt>
      <trkpt lat="45.71348" lon="5.76511">
        <ele>225.5</ele>
      </trkpt>
      <trkpt lat="45.71328" lon="5.76502">
        <ele>225.1</ele>
      </trkpt>
      <trkpt lat="45.71316" lon="5.765">
        <ele>225</ele>
      </trkpt>
      <trkpt lat="45.71279" lon="5.76486">
        <ele>225</ele>
      </trkpt>
      <trkpt lat="45.71266" lon="5.76479">
        <ele>225</ele>
      </trkpt>
      <trkpt lat="45.71246" lon="5.76466">
        <ele>225</ele>
      </trkpt>
      <trkpt lat="45.71224" lon="5.76455">
        <ele>225</ele>
      </trkpt>
      <trkpt lat="45.71204" lon="5.7644">
        <ele>225</ele>
      </trkpt>
      <trkpt lat="45.71193" lon="5.76433">
        <ele>225</ele>
      </trkpt>
      <trkpt lat="45.71182" lon="5.76425">
        <ele>225</ele>
      </trkpt>
      <trkpt lat="45.71168" lon="5.76412">
        <ele>225</ele>
      </trkpt>
      <trkpt lat="45.71153" lon="5.76398">
        <ele>225</ele>
      </trkpt>
      <trkpt lat="45.71144" lon="5.76388">
        <ele>225</ele>
      </trkpt>
      <trkpt lat="45.71135" lon="5.76378">
        <ele>225</ele>
      </trkpt>
      <trkpt lat="45.71126" lon="5.76369">
        <ele>225</ele>
      </trkpt>
      <trkpt lat="45.71105" lon="5.76353">
        <ele>225</ele>
      </trkpt>
      <trkpt lat="45.71066" lon="5.76332">
        <ele>225</ele>
      </trkpt>
      <trkpt lat="45.71058" lon="5.76325">
        <ele>225</ele>
      </trkpt>
      <trkpt lat="45.7105" lon="5.76314">
        <ele>225</ele>
      </trkpt>
      <trkpt lat="45.71027" lon="5.76275">
        <ele>225</ele>
      </trkpt>
      <trkpt lat="45.71021" lon="5.76267">
        <ele>225</ele>
      </trkpt>
      <trkpt lat="45.71011" lon="5.76256">
        <ele>225</ele>
      </trkpt>
      <trkpt lat="45.70997" lon="5.7625">
        <ele>225</ele>
      </trkpt>
      <trkpt lat="45.7099" lon="5.76252">
        <ele>225</ele>
      </trkpt>
      <trkpt lat="45.70984" lon="5.76258">
        <ele>225</ele>
      </trkpt>
      <trkpt lat="45.70979" lon="5.76258">
        <ele>225</ele>
      </trkpt>
      <trkpt lat="45.70976" lon="5.76255">
        <ele>225</ele>
      </trkpt>
      <trkpt lat="45.70972" lon="5.76249">
        <ele>225</ele>
      </trkpt>
      <trkpt lat="45.70952" lon="5.7621">
        <ele>225</ele>
      </trkpt>
      <trkpt lat="45.7095" lon="5.76204">
        <ele>225</ele>
      </trkpt>
      <trkpt lat="45.70946" lon="5.76196">
        <ele>225</ele>
      </trkpt>
      <trkpt lat="45.70938" lon="5.76182">
        <ele>225.1</ele>
      </trkpt>
      <trkpt lat="45.70931" lon="5.76172">
        <ele>225.1</ele>
      </trkpt>
      <trkpt lat="45.7092" lon="5.76162">
        <ele>224.8</ele>
      </trkpt>
      <trkpt lat="45.70908" lon="5.76155">
        <ele>224.7</ele>
      </trkpt>
      <trkpt lat="45.70889" lon="5.76151">
        <ele>225</ele>
      </trkpt>
      <trkpt lat="45.70876" lon="5.7615">
        <ele>225</ele>
      </trkpt>
      <trkpt lat="45.70849" lon="5.76152">
        <ele>225</ele>
      </trkpt>
      <trkpt lat="45.70815" lon="5.76151">
        <ele>225.3</ele>
      </trkpt>
      <trkpt lat="45.70811" lon="5.7615">
        <ele>225.3</ele>
      </trkpt>
      <trkpt lat="45.70796" lon="5.76149">
        <ele>225.4</ele>
      </trkpt>
      <trkpt lat="45.70778" lon="5.76143">
        <ele>225.1</ele>
      </trkpt>
      <trkpt lat="45.70749" lon="5.76131">
        <ele>224.7</ele>
      </trkpt>
      <trkpt lat="45.70708" lon="5.76102">
        <ele>225.2</ele>
      </trkpt>
      <trkpt lat="45.70692" lon="5.76089">
        <ele>225.4</ele>
      </trkpt>
      <trkpt lat="45.70688" lon="5.76086">
        <ele>225.5</ele>
      </trkpt>
      <trkpt lat="45.70686" lon="5.76082">
        <ele>225.6</ele>
      </trkpt>
      <trkpt lat="45.70685" lon="5.7608">
        <ele>225.6</ele>
      </trkpt>
      <trkpt lat="45.70684" lon="5.76077">
        <ele>225.6</ele>
      </trkpt>
      <trkpt lat="45.70684" lon="5.76074">
        <ele>225.5</ele>
      </trkpt>
      <trkpt lat="45.70685" lon="5.76071">
        <ele>225.4</ele>
      </trkpt>
      <trkpt lat="45.70685" lon="5.7607">
        <ele>225.4</ele>
      </trkpt>
      <trkpt lat="45.70686" lon="5.76068">
        <ele>225.3</ele>
      </trkpt>
      <trkpt lat="45.70689" lon="5.76062">
        <ele>225.1</ele>
      </trkpt>
      <trkpt lat="45.70693" lon="5.76051">
        <ele>225.2</ele>
      </trkpt>
      <trkpt lat="45.70679" lon="5.76036">
        <ele>225.3</ele>
      </trkpt>
      <trkpt lat="45.70668" lon="5.76021">
        <ele>225.3</ele>
      </trkpt>
      <trkpt lat="45.70663" lon="5.76014">
        <ele>225.7</ele>
      </trkpt>
      <trkpt lat="45.7066" lon="5.76006">
        <ele>226.1</ele>
      </trkpt>
      <trkpt lat="45.70658" lon="5.76001">
        <ele>226.3</ele>
      </trkpt>
      <trkpt lat="45.70656" lon="5.75996">
        <ele>226.4</ele>
      </trkpt>
      <trkpt lat="45.70654" lon="5.75991">
        <ele>226.5</ele>
      </trkpt>
      <trkpt lat="45.70636" lon="5.75862">
        <ele>225.2</ele>
      </trkpt>
      <trkpt lat="45.7062" lon="5.75741">
        <ele>223.3</ele>
      </trkpt>
      <trkpt lat="45.70615" lon="5.75711">
        <ele>223.8</ele>
      </trkpt>
      <trkpt lat="45.70612" lon="5.75692">
        <ele>225</ele>
      </trkpt>
      <trkpt lat="45.70609" lon="5.75668">
        <ele>225.2</ele>
      </trkpt>
      <trkpt lat="45.70608" lon="5.75652">
        <ele>225.2</ele>
      </trkpt>
      <trkpt lat="45.70607" lon="5.7564">
        <ele>225.3</ele>
      </trkpt>
      <trkpt lat="45.70609" lon="5.7563">
        <ele>225.1</ele>
      </trkpt>
      <trkpt lat="45.70611" lon="5.75622">
        <ele>225</ele>
      </trkpt>
      <trkpt lat="45.70616" lon="5.75609">
        <ele>224.9</ele>
      </trkpt>
      <trkpt lat="45.7062" lon="5.75599">
        <ele>224.4</ele>
      </trkpt>
      <trkpt lat="45.70629" lon="5.75583">
        <ele>224.3</ele>
      </trkpt>
      <trkpt lat="45.70623" lon="5.75574">
        <ele>223.9</ele>
      </trkpt>
      <trkpt lat="45.70616" lon="5.75565">
        <ele>223.4</ele>
      </trkpt>
      <trkpt lat="45.7061" lon="5.75556">
        <ele>223.1</ele>
      </trkpt>
      <trkpt lat="45.70606" lon="5.75551">
        <ele>223.8</ele>
      </trkpt>
      <trkpt lat="45.70603" lon="5.75547">
        <ele>224.3</ele>
      </trkpt>
      <trkpt lat="45.70601" lon="5.75548">
        <ele>224.4</ele>
      </trkpt>
      <trkpt lat="45.70599" lon="5.7555">
        <ele>224.5</ele>
      </trkpt>
      <trkpt lat="45.70594" lon="5.75559">
        <ele>224.8</ele>
      </trkpt>
      <trkpt lat="45.70591" lon="5.75565">
        <ele>225.2</ele>
      </trkpt>
      <trkpt lat="45.70582" lon="5.75587">
        <ele>225.9</ele>
      </trkpt>
      <trkpt lat="45.70573" lon="5.756">
        <ele>225.8</ele>
      </trkpt>
      <trkpt lat="45.70567" lon="5.75608">
        <ele>226.2</ele>
      </trkpt>
      <trkpt lat="45.7056" lon="5.75588">
        <ele>226.1</ele>
      </trkpt>
      <trkpt lat="45.70556" lon="5.75578">
        <ele>226</ele>
      </trkpt>
      <trkpt lat="45.70555" lon="5.75576">
        <ele>226</ele>
      </trkpt>
      <trkpt lat="45.70556" lon="5.75578">
        <ele>226</ele>
      </trkpt>
      <trkpt lat="45.7056" lon="5.75588">
        <ele>226.1</ele>
      </trkpt>
      <trkpt lat="45.70567" lon="5.75608">
        <ele>226.2</ele>
      </trkpt>
      <trkpt lat="45.70568" lon="5.75613">
        <ele>226.1</ele>
      </trkpt>
      <trkpt lat="45.70568" lon="5.75618">
        <ele>226.2</ele>
      </trkpt>
      <trkpt lat="45.70566" lon="5.75623">
        <ele>226.3</ele>
      </trkpt>
      <trkpt lat="45.7056" lon="5.75634">
        <ele>226.3</ele>
      </trkpt>
      <trkpt lat="45.70553" lon="5.75646">
        <ele>225.9</ele>
      </trkpt>
      <trkpt lat="45.70546" lon="5.75661">
        <ele>225.8</ele>
      </trkpt>
      <trkpt lat="45.7054" lon="5.75673">
        <ele>225.9</ele>
      </trkpt>
      <trkpt lat="45.70533" lon="5.75687">
        <ele>225.9</ele>
      </trkpt>
      <trkpt lat="45.70527" lon="5.75698">
        <ele>226.1</ele>
      </trkpt>
      <trkpt lat="45.7052" lon="5.75706">
        <ele>226.4</ele>
      </trkpt>
      <trkpt lat="45.70516" lon="5.75709">
        <ele>226.6</ele>
      </trkpt>
      <trkpt lat="45.70511" lon="5.75711">
        <ele>226.8</ele>
      </trkpt>
      <trkpt lat="45.70512" lon="5.75706">
        <ele>226.9</ele>
      </trkpt>
      <trkpt lat="45.70512" lon="5.757">
        <ele>227</ele>
      </trkpt>
      <trkpt lat="45.70512" lon="5.75695">
        <ele>227.1</ele>
      </trkpt>
      <trkpt lat="45.70511" lon="5.7569">
        <ele>227.2</ele>
      </trkpt>
      <trkpt lat="45.70509" lon="5.75685">
        <ele>227.2</ele>
      </trkpt>
      <trkpt lat="45.70504" lon="5.75677">
        <ele>227.3</ele>
      </trkpt>
      <trkpt lat="45.70487" lon="5.75656">
        <ele>227.8</ele>
      </trkpt>
      <trkpt lat="45.70483" lon="5.7565">
        <ele>227.9</ele>
      </trkpt>
      <trkpt lat="45.70472" lon="5.75641">
        <ele>228.1</ele>
      </trkpt>
      <trkpt lat="45.70462" lon="5.75634">
        <ele>228.4</ele>
      </trkpt>
      <trkpt lat="45.70452" lon="5.75629">
        <ele>228.7</ele>
      </trkpt>
      <trkpt lat="45.70448" lon="5.75629">
        <ele>228.9</ele>
      </trkpt>
      <trkpt lat="45.70446" lon="5.75629">
        <ele>228.9</ele>
      </trkpt>
      <trkpt lat="45.70439" lon="5.75629">
        <ele>229.1</ele>
      </trkpt>
      <trkpt lat="45.70428" lon="5.75629">
        <ele>229.4</ele>
      </trkpt>
      <trkpt lat="45.70416" lon="5.75629">
        <ele>229.7</ele>
      </trkpt>
      <trkpt lat="45.70405" lon="5.75631">
        <ele>229.8</ele>
      </trkpt>
      <trkpt lat="45.70397" lon="5.75633">
        <ele>229.9</ele>
      </trkpt>
      <trkpt lat="45.70394" lon="5.75634">
        <ele>230</ele>
      </trkpt>
      <trkpt lat="45.70384" lon="5.75639">
        <ele>230</ele>
      </trkpt>
      <trkpt lat="45.70372" lon="5.75646">
        <ele>230.3</ele>
      </trkpt>
      <trkpt lat="45.70359" lon="5.75654">
        <ele>230.5</ele>
      </trkpt>
      <trkpt lat="45.70356" lon="5.75656">
        <ele>230.6</ele>
      </trkpt>
      <trkpt lat="45.7035" lon="5.75652">
        <ele>230.5</ele>
      </trkpt>
      <trkpt lat="45.70326" lon="5.75636">
        <ele>230.2</ele>
      </trkpt>
      <trkpt lat="45.70322" lon="5.75633">
        <ele>230.2</ele>
      </trkpt>
      <trkpt lat="45.70292" lon="5.75618">
        <ele>230.2</ele>
      </trkpt>
      <trkpt lat="45.70278" lon="5.75612">
        <ele>230</ele>
      </trkpt>
      <trkpt lat="45.70266" lon="5.75605">
        <ele>231.1</ele>
      </trkpt>
      <trkpt lat="45.70246" lon="5.75596">
        <ele>232.1</ele>
      </trkpt>
      <trkpt lat="45.7024" lon="5.75594">
        <ele>232.2</ele>
      </trkpt>
      <trkpt lat="45.70234" lon="5.75593">
        <ele>232.4</ele>
      </trkpt>
      <trkpt lat="45.70223" lon="5.7559">
        <ele>233</ele>
      </trkpt>
      <trkpt lat="45.70212" lon="5.75586">
        <ele>233.4</ele>
      </trkpt>
      <trkpt lat="45.70207" lon="5.75587">
        <ele>233.5</ele>
      </trkpt>
      <trkpt lat="45.70199" lon="5.75604">
        <ele>233.8</ele>
      </trkpt>
      <trkpt lat="45.70187" lon="5.75634">
        <ele>234.3</ele>
      </trkpt>
      <trkpt lat="45.70176" lon="5.75666">
        <ele>234.7</ele>
      </trkpt>
      <trkpt lat="45.70171" lon="5.75679">
        <ele>234.8</ele>
      </trkpt>
      <trkpt lat="45.70163" lon="5.75675">
        <ele>235</ele>
      </trkpt>
      <trkpt lat="45.70154" lon="5.75672">
        <ele>235</ele>
      </trkpt>
      <trkpt lat="45.70141" lon="5.75671">
        <ele>235</ele>
      </trkpt>
      <trkpt lat="45.70126" lon="5.75669">
        <ele>235.5</ele>
      </trkpt>
      <trkpt lat="45.70117" lon="5.7567">
        <ele>235.8</ele>
      </trkpt>
      <trkpt lat="45.70115" lon="5.7567">
        <ele>235.9</ele>
      </trkpt>
      <trkpt lat="45.70014" lon="5.75674">
        <ele>237.5</ele>
      </trkpt>
      <trkpt lat="45.69986" lon="5.7567">
        <ele>238.5</ele>
      </trkpt>
      <trkpt lat="45.69973" lon="5.75669">
        <ele>239</ele>
      </trkpt>
      <trkpt lat="45.69971" lon="5.75676">
        <ele>239</ele>
      </trkpt>
      <trkpt lat="45.69969" lon="5.75681">
        <ele>239</ele>
      </trkpt>
      <trkpt lat="45.69971" lon="5.75676">
        <ele>239</ele>
      </trkpt>
      <trkpt lat="45.69973" lon="5.75669">
        <ele>239</ele>
      </trkpt>
      <trkpt lat="45.69966" lon="5.75665">
        <ele>239</ele>
      </trkpt>
      <trkpt lat="45.6995" lon="5.75659">
        <ele>239</ele>
      </trkpt>
      <trkpt lat="45.69939" lon="5.75644">
        <ele>239</ele>
      </trkpt>
      <trkpt lat="45.69925" lon="5.75622">
        <ele>239</ele>
      </trkpt>
      <trkpt lat="45.69919" lon="5.75615">
        <ele>239</ele>
      </trkpt>
      <trkpt lat="45.69901" lon="5.75593">
        <ele>239.6</ele>
      </trkpt>
      <trkpt lat="45.69887" lon="5.75572">
        <ele>240.1</ele>
      </trkpt>
      <trkpt lat="45.69866" lon="5.75541">
        <ele>240.4</ele>
      </trkpt>
      <trkpt lat="45.69852" lon="5.75519">
        <ele>240.3</ele>
      </trkpt>
      <trkpt lat="45.69847" lon="5.75512">
        <ele>240.5</ele>
      </trkpt>
      <trkpt lat="45.69819" lon="5.7548">
        <ele>241.1</ele>
      </trkpt>
      <trkpt lat="45.69799" lon="5.75459">
        <ele>241.2</ele>
      </trkpt>
      <trkpt lat="45.69787" lon="5.75446">
        <ele>241.7</ele>
      </trkpt>
      <trkpt lat="45.69735" lon="5.75399">
        <ele>242.7</ele>
      </trkpt>
      <trkpt lat="45.69694" lon="5.75361">
        <ele>244</ele>
      </trkpt>
      <trkpt lat="45.69676" lon="5.75345">
        <ele>244</ele>
      </trkpt>
      <trkpt lat="45.69611" lon="5.75293">
        <ele>244.5</ele>
      </trkpt>
      <trkpt lat="45.69563" lon="5.75254">
        <ele>244.9</ele>
      </trkpt>
      <trkpt lat="45.69548" lon="5.75243">
        <ele>244.6</ele>
      </trkpt>
      <trkpt lat="45.69545" lon="5.75241">
        <ele>244.4</ele>
      </trkpt>
      <trkpt lat="45.69539" lon="5.75239">
        <ele>244.1</ele>
      </trkpt>
      <trkpt lat="45.69517" lon="5.75241">
        <ele>243.5</ele>
      </trkpt>
      <trkpt lat="45.6951" lon="5.75243">
        <ele>243.3</ele>
      </trkpt>
      <trkpt lat="45.69502" lon="5.75246">
        <ele>243</ele>
      </trkpt>
      <trkpt lat="45.69494" lon="5.75249">
        <ele>243</ele>
      </trkpt>
      <trkpt lat="45.69486" lon="5.75251">
        <ele>243</ele>
      </trkpt>
      <trkpt lat="45.69478" lon="5.75253">
        <ele>242.9</ele>
      </trkpt>
      <trkpt lat="45.69469" lon="5.75254">
        <ele>242.9</ele>
      </trkpt>
      <trkpt lat="45.69453" lon="5.75254">
        <ele>243</ele>
      </trkpt>
      <trkpt lat="45.6944" lon="5.75253">
        <ele>243</ele>
      </trkpt>
      <trkpt lat="45.69427" lon="5.7525">
        <ele>243</ele>
      </trkpt>
      <trkpt lat="45.69407" lon="5.75247">
        <ele>243</ele>
      </trkpt>
      <trkpt lat="45.69384" lon="5.75241">
        <ele>243.2</ele>
      </trkpt>
      <trkpt lat="45.69355" lon="5.75234">
        <ele>244</ele>
      </trkpt>
      <trkpt lat="45.69337" lon="5.7523">
        <ele>244</ele>
      </trkpt>
      <trkpt lat="45.69325" lon="5.75231">
        <ele>244</ele>
      </trkpt>
      <trkpt lat="45.69308" lon="5.75236">
        <ele>244</ele>
      </trkpt>
      <trkpt lat="45.69293" lon="5.75246">
        <ele>244</ele>
      </trkpt>
      <trkpt lat="45.69276" lon="5.75269">
        <ele>245.3</ele>
      </trkpt>
      <trkpt lat="45.69264" lon="5.75284">
        <ele>245.5</ele>
      </trkpt>
      <trkpt lat="45.69255" lon="5.75295">
        <ele>246.5</ele>
      </trkpt>
      <trkpt lat="45.6925" lon="5.75302">
        <ele>247.5</ele>
      </trkpt>
      <trkpt lat="45.69246" lon="5.75308">
        <ele>247.7</ele>
      </trkpt>
      <trkpt lat="45.69243" lon="5.75298">
        <ele>246.5</ele>
      </trkpt>
      <trkpt lat="45.6924" lon="5.75286">
        <ele>245.4</ele>
      </trkpt>
      <trkpt lat="45.69237" lon="5.75273">
        <ele>245.1</ele>
      </trkpt>
      <trkpt lat="45.69236" lon="5.75264">
        <ele>245.5</ele>
      </trkpt>
      <trkpt lat="45.69236" lon="5.75255">
        <ele>245.8</ele>
      </trkpt>
      <trkpt lat="45.69237" lon="5.75246">
        <ele>246</ele>
      </trkpt>
      <trkpt lat="45.69239" lon="5.7522">
        <ele>246.1</ele>
      </trkpt>
      <trkpt lat="45.69244" lon="5.75181">
        <ele>247.1</ele>
      </trkpt>
      <trkpt lat="45.69245" lon="5.75175">
        <ele>247.1</ele>
      </trkpt>
      <trkpt lat="45.69247" lon="5.75152">
        <ele>247.6</ele>
      </trkpt>
      <trkpt lat="45.69247" lon="5.75147">
        <ele>247.7</ele>
      </trkpt>
      <trkpt lat="45.69247" lon="5.7514">
        <ele>248</ele>
      </trkpt>
      <trkpt lat="45.69248" lon="5.75138">
        <ele>248</ele>
      </trkpt>
      <trkpt lat="45.69248" lon="5.75136">
        <ele>248</ele>
      </trkpt>
      <trkpt lat="45.69248" lon="5.75131">
        <ele>248</ele>
      </trkpt>
      <trkpt lat="45.69249" lon="5.75116">
        <ele>248</ele>
      </trkpt>
      <trkpt lat="45.6925" lon="5.75085">
        <ele>248.9</ele>
      </trkpt>
      <trkpt lat="45.69248" lon="5.75058">
        <ele>250</ele>
      </trkpt>
      <trkpt lat="45.69247" lon="5.75052">
        <ele>250.3</ele>
      </trkpt>
      <trkpt lat="45.69246" lon="5.75041">
        <ele>251.1</ele>
      </trkpt>
      <trkpt lat="45.69242" lon="5.75032">
        <ele>252.6</ele>
      </trkpt>
      <trkpt lat="45.69237" lon="5.7502">
        <ele>253.7</ele>
      </trkpt>
      <trkpt lat="45.69239" lon="5.75014">
        <ele>253</ele>
      </trkpt>
      <trkpt lat="45.69239" lon="5.75009">
        <ele>252.7</ele>
      </trkpt>
      <trkpt lat="45.69239" lon="5.75006">
        <ele>252.5</ele>
      </trkpt>
      <trkpt lat="45.69237" lon="5.75003">
        <ele>252.6</ele>
      </trkpt>
      <trkpt lat="45.69234" lon="5.74996">
        <ele>252.6</ele>
      </trkpt>
      <trkpt lat="45.6922" lon="5.74983">
        <ele>253.7</ele>
      </trkpt>
      <trkpt lat="45.69205" lon="5.74967">
        <ele>254.1</ele>
      </trkpt>
      <trkpt lat="45.69187" lon="5.7495">
        <ele>254.8</ele>
      </trkpt>
      <trkpt lat="45.69178" lon="5.7494">
        <ele>255</ele>
      </trkpt>
      <trkpt lat="45.69173" lon="5.74929">
        <ele>254.9</ele>
      </trkpt>
      <trkpt lat="45.69169" lon="5.74918">
        <ele>254.8</ele>
      </trkpt>
      <trkpt lat="45.69167" lon="5.74907">
        <ele>255.3</ele>
      </trkpt>
      <trkpt lat="45.69167" lon="5.74892">
        <ele>255.9</ele>
      </trkpt>
      <trkpt lat="45.69165" lon="5.74879">
        <ele>257</ele>
      </trkpt>
      <trkpt lat="45.69164" lon="5.74872">
        <ele>257.6</ele>
      </trkpt>
      <trkpt lat="45.6916" lon="5.74865">
        <ele>258.1</ele>
      </trkpt>
      <trkpt lat="45.69156" lon="5.7486">
        <ele>258.5</ele>
      </trkpt>
      <trkpt lat="45.69143" lon="5.74854">
        <ele>259.1</ele>
      </trkpt>
      <trkpt lat="45.69128" lon="5.74844">
        <ele>260.7</ele>
      </trkpt>
      <trkpt lat="45.69114" lon="5.74835">
        <ele>261.9</ele>
      </trkpt>
      <trkpt lat="45.69109" lon="5.74832">
        <ele>262.4</ele>
      </trkpt>
      <trkpt lat="45.6909" lon="5.7482">
        <ele>265.2</ele>
      </trkpt>
      <trkpt lat="45.69073" lon="5.74809">
        <ele>267.6</ele>
      </trkpt>
      <trkpt lat="45.69056" lon="5.74803">
        <ele>268.6</ele>
      </trkpt>
      <trkpt lat="45.6904" lon="5.74802">
        <ele>269.9</ele>
      </trkpt>
      <trkpt lat="45.69021" lon="5.748">
        <ele>271</ele>
      </trkpt>
      <trkpt lat="45.69012" lon="5.74798">
        <ele>271.6</ele>
      </trkpt>
      <trkpt lat="45.68993" lon="5.74789">
        <ele>273.4</ele>
      </trkpt>
      <trkpt lat="45.6898" lon="5.74778">
        <ele>275.2</ele>
      </trkpt>
      <trkpt lat="45.68974" lon="5.74772">
        <ele>276.1</ele>
      </trkpt>
      <trkpt lat="45.68972" lon="5.7477">
        <ele>276.4</ele>
      </trkpt>
      <trkpt lat="45.68964" lon="5.74764">
        <ele>277.2</ele>
      </trkpt>
      <trkpt lat="45.6896" lon="5.7476">
        <ele>277.8</ele>
      </trkpt>
      <trkpt lat="45.68959" lon="5.74746">
        <ele>280.3</ele>
      </trkpt>
      <trkpt lat="45.6896" lon="5.74716">
        <ele>285.3</ele>
      </trkpt>
      <trkpt lat="45.6896" lon="5.74706">
        <ele>286.4</ele>
      </trkpt>
      <trkpt lat="45.68958" lon="5.74699">
        <ele>287</ele>
      </trkpt>
      <trkpt lat="45.68953" lon="5.74691">
        <ele>287.8</ele>
      </trkpt>
      <trkpt lat="45.68949" lon="5.74683">
        <ele>288.7</ele>
      </trkpt>
      <trkpt lat="45.68948" lon="5.74677">
        <ele>289.6</ele>
      </trkpt>
      <trkpt lat="45.68947" lon="5.7467">
        <ele>290.5</ele>
      </trkpt>
      <trkpt lat="45.68943" lon="5.74664">
        <ele>291.6</ele>
      </trkpt>
      <trkpt lat="45.68938" lon="5.74658">
        <ele>292.9</ele>
      </trkpt>
      <trkpt lat="45.68933" lon="5.74656">
        <ele>293</ele>
      </trkpt>
      <trkpt lat="45.6893" lon="5.74655">
        <ele>293</ele>
      </trkpt>
      <trkpt lat="45.68921" lon="5.74651">
        <ele>293.2</ele>
      </trkpt>
      <trkpt lat="45.68922" lon="5.74647">
        <ele>294</ele>
      </trkpt>
      <trkpt lat="45.68922" lon="5.74643">
        <ele>294.8</ele>
      </trkpt>
      <trkpt lat="45.6892" lon="5.74636">
        <ele>295.9</ele>
      </trkpt>
      <trkpt lat="45.68915" lon="5.74631">
        <ele>296.4</ele>
      </trkpt>
      <trkpt lat="45.689" lon="5.74624">
        <ele>296.8</ele>
      </trkpt>
      <trkpt lat="45.68886" lon="5.74616">
        <ele>297.3</ele>
      </trkpt>
      <trkpt lat="45.68875" lon="5.74609">
        <ele>298.2</ele>
      </trkpt>
      <trkpt lat="45.68867" lon="5.74599">
        <ele>298.9</ele>
      </trkpt>
      <trkpt lat="45.68857" lon="5.74589">
        <ele>299.8</ele>
      </trkpt>
      <trkpt lat="45.68843" lon="5.74572">
        <ele>301.9</ele>
      </trkpt>
      <trkpt lat="45.68841" lon="5.7457">
        <ele>302.1</ele>
      </trkpt>
      <trkpt lat="45.68836" lon="5.74562">
        <ele>302.6</ele>
      </trkpt>
      <trkpt lat="45.68827" lon="5.7455">
        <ele>303.6</ele>
      </trkpt>
      <trkpt lat="45.68817" lon="5.74542">
        <ele>304.2</ele>
      </trkpt>
      <trkpt lat="45.68813" lon="5.74532">
        <ele>304.9</ele>
      </trkpt>
      <trkpt lat="45.68806" lon="5.7451">
        <ele>306.3</ele>
      </trkpt>
      <trkpt lat="45.68798" lon="5.74495">
        <ele>307.6</ele>
      </trkpt>
      <trkpt lat="45.68789" lon="5.74484">
        <ele>310.3</ele>
      </trkpt>
      <trkpt lat="45.68776" lon="5.74474">
        <ele>313.3</ele>
      </trkpt>
      <trkpt lat="45.68753" lon="5.74465">
        <ele>314.9</ele>
      </trkpt>
      <trkpt lat="45.68724" lon="5.74457">
        <ele>316.1</ele>
      </trkpt>
      <trkpt lat="45.68704" lon="5.74452">
        <ele>319.1</ele>
      </trkpt>
      <trkpt lat="45.68682" lon="5.74447">
        <ele>321.3</ele>
      </trkpt>
      <trkpt lat="45.68654" lon="5.74434">
        <ele>324.3</ele>
      </trkpt>
      <trkpt lat="45.68626" lon="5.74424">
        <ele>326.5</ele>
      </trkpt>
      <trkpt lat="45.68607" lon="5.74417">
        <ele>328.1</ele>
      </trkpt>
      <trkpt lat="45.68601" lon="5.74415">
        <ele>328.8</ele>
      </trkpt>
      <trkpt lat="45.68577" lon="5.74409">
        <ele>330.4</ele>
      </trkpt>
      <trkpt lat="45.68551" lon="5.74408">
        <ele>330.7</ele>
      </trkpt>
      <trkpt lat="45.68527" lon="5.74408">
        <ele>331.6</ele>
      </trkpt>
      <trkpt lat="45.68498" lon="5.74406">
        <ele>331.3</ele>
      </trkpt>
      <trkpt lat="45.68476" lon="5.74407">
        <ele>330.8</ele>
      </trkpt>
      <trkpt lat="45.68451" lon="5.74406">
        <ele>330.2</ele>
      </trkpt>
      <trkpt lat="45.68425" lon="5.74403">
        <ele>330.5</ele>
      </trkpt>
      <trkpt lat="45.68393" lon="5.74392">
        <ele>332.4</ele>
      </trkpt>
      <trkpt lat="45.68383" lon="5.7439">
        <ele>332.6</ele>
      </trkpt>
      <trkpt lat="45.68374" lon="5.74386">
        <ele>333.1</ele>
      </trkpt>
      <trkpt lat="45.68361" lon="5.74377">
        <ele>335</ele>
      </trkpt>
      <trkpt lat="45.68343" lon="5.74366">
        <ele>335.4</ele>
      </trkpt>
      <trkpt lat="45.68312" lon="5.74348">
        <ele>335.2</ele>
      </trkpt>
      <trkpt lat="45.68303" lon="5.74344">
        <ele>334.8</ele>
      </trkpt>
      <trkpt lat="45.68291" lon="5.74338">
        <ele>334.6</ele>
      </trkpt>
      <trkpt lat="45.68303" lon="5.74344">
        <ele>334.8</ele>
      </trkpt>
      <trkpt lat="45.68312" lon="5.74348">
        <ele>335.2</ele>
      </trkpt>
      <trkpt lat="45.68302" lon="5.74334">
        <ele>336.5</ele>
      </trkpt>
      <trkpt lat="45.68288" lon="5.74311">
        <ele>339.1</ele>
      </trkpt>
      <trkpt lat="45.68269" lon="5.74287">
        <ele>340.3</ele>
      </trkpt>
      <trkpt lat="45.68247" lon="5.74265">
        <ele>340.4</ele>
      </trkpt>
      <trkpt lat="45.68177" lon="5.74181">
        <ele>347</ele>
      </trkpt>
      <trkpt lat="45.68134" lon="5.74143">
        <ele>354.9</ele>
      </trkpt>
      <trkpt lat="45.68125" lon="5.74135">
        <ele>356.6</ele>
      </trkpt>
      <trkpt lat="45.68118" lon="5.74125">
        <ele>358.7</ele>
      </trkpt>
      <trkpt lat="45.68106" lon="5.74108">
        <ele>362.5</ele>
      </trkpt>
      <trkpt lat="45.68097" lon="5.74099">
        <ele>364.8</ele>
      </trkpt>
      <trkpt lat="45.68075" lon="5.74084">
        <ele>367.3</ele>
      </trkpt>
      <trkpt lat="45.68062" lon="5.74072">
        <ele>369.9</ele>
      </trkpt>
      <trkpt lat="45.68052" lon="5.74061">
        <ele>372.4</ele>
      </trkpt>
      <trkpt lat="45.68046" lon="5.74048">
        <ele>374</ele>
      </trkpt>
      <trkpt lat="45.68042" lon="5.74035">
        <ele>375.5</ele>
      </trkpt>
      <trkpt lat="45.68039" lon="5.74023">
        <ele>377.4</ele>
      </trkpt>
      <trkpt lat="45.68033" lon="5.74016">
        <ele>377.5</ele>
      </trkpt>
      <trkpt lat="45.68021" lon="5.74007">
        <ele>378.1</ele>
      </trkpt>
      <trkpt lat="45.68007" lon="5.73998">
        <ele>379.2</ele>
      </trkpt>
      <trkpt lat="45.67991" lon="5.73991">
        <ele>379.6</ele>
      </trkpt>
      <trkpt lat="45.67971" lon="5.73982">
        <ele>380</ele>
      </trkpt>
      <trkpt lat="45.67957" lon="5.73977">
        <ele>381.9</ele>
      </trkpt>
      <trkpt lat="45.67949" lon="5.73974">
        <ele>383.2</ele>
      </trkpt>
      <trkpt lat="45.67933" lon="5.73974">
        <ele>385</ele>
      </trkpt>
      <trkpt lat="45.6792" lon="5.73968">
        <ele>387.3</ele>
      </trkpt>
      <trkpt lat="45.67905" lon="5.7396">
        <ele>389.2</ele>
      </trkpt>
      <trkpt lat="45.67885" lon="5.73949">
        <ele>391.9</ele>
      </trkpt>
      <trkpt lat="45.67881" lon="5.73945">
        <ele>392.6</ele>
      </trkpt>
      <trkpt lat="45.67878" lon="5.73938">
        <ele>393.7</ele>
      </trkpt>
      <trkpt lat="45.67874" lon="5.73923">
        <ele>396</ele>
      </trkpt>
      <trkpt lat="45.67867" lon="5.739">
        <ele>399.3</ele>
      </trkpt>
      <trkpt lat="45.67861" lon="5.73854">
        <ele>406.3</ele>
      </trkpt>
      <trkpt lat="45.67858" lon="5.73843">
        <ele>408.3</ele>
      </trkpt>
      <trkpt lat="45.67851" lon="5.73836">
        <ele>409.6</ele>
      </trkpt>
      <trkpt lat="45.67842" lon="5.73834">
        <ele>409.9</ele>
      </trkpt>
      <trkpt lat="45.67831" lon="5.73832">
        <ele>410.4</ele>
      </trkpt>
      <trkpt lat="45.67828" lon="5.73829">
        <ele>410.9</ele>
      </trkpt>
      <trkpt lat="45.67825" lon="5.73822">
        <ele>412</ele>
      </trkpt>
      <trkpt lat="45.67822" lon="5.73807">
        <ele>413.9</ele>
      </trkpt>
      <trkpt lat="45.67816" lon="5.73783">
        <ele>415.7</ele>
      </trkpt>
      <trkpt lat="45.67812" lon="5.73777">
        <ele>416.3</ele>
      </trkpt>
      <trkpt lat="45.67805" lon="5.73773">
        <ele>417.1</ele>
      </trkpt>
      <trkpt lat="45.67788" lon="5.73767">
        <ele>420</ele>
      </trkpt>
      <trkpt lat="45.67777" lon="5.73761">
        <ele>421.3</ele>
      </trkpt>
      <trkpt lat="45.67766" lon="5.73748">
        <ele>423</ele>
      </trkpt>
      <trkpt lat="45.67763" lon="5.7374">
        <ele>423.7</ele>
      </trkpt>
      <trkpt lat="45.67761" lon="5.73734">
        <ele>424.1</ele>
      </trkpt>
      <trkpt lat="45.6776" lon="5.73732">
        <ele>424.3</ele>
      </trkpt>
      <trkpt lat="45.67759" lon="5.73717">
        <ele>424.8</ele>
      </trkpt>
      <trkpt lat="45.67758" lon="5.73696">
        <ele>426.3</ele>
      </trkpt>
      <trkpt lat="45.67757" lon="5.73681">
        <ele>428.1</ele>
      </trkpt>
      <trkpt lat="45.67757" lon="5.73654">
        <ele>431.1</ele>
      </trkpt>
      <trkpt lat="45.67756" lon="5.73636">
        <ele>433</ele>
      </trkpt>
      <trkpt lat="45.67755" lon="5.73627">
        <ele>433.6</ele>
      </trkpt>
      <trkpt lat="45.67753" lon="5.73622">
        <ele>434</ele>
      </trkpt>
      <trkpt lat="45.67751" lon="5.73617">
        <ele>434.5</ele>
      </trkpt>
      <trkpt lat="45.67746" lon="5.73611">
        <ele>434.9</ele>
      </trkpt>
      <trkpt lat="45.67736" lon="5.73606">
        <ele>435.1</ele>
      </trkpt>
      <trkpt lat="45.67712" lon="5.73596">
        <ele>435.8</ele>
      </trkpt>
      <trkpt lat="45.67679" lon="5.73582">
        <ele>436.1</ele>
      </trkpt>
      <trkpt lat="45.67645" lon="5.73569">
        <ele>436.8</ele>
      </trkpt>
      <trkpt lat="45.67626" lon="5.73561">
        <ele>437.1</ele>
      </trkpt>
      <trkpt lat="45.67613" lon="5.73554">
        <ele>436.5</ele>
      </trkpt>
      <trkpt lat="45.67604" lon="5.73544">
        <ele>436.4</ele>
      </trkpt>
      <trkpt lat="45.67595" lon="5.73535">
        <ele>435.8</ele>
      </trkpt>
      <trkpt lat="45.67588" lon="5.73523">
        <ele>435.6</ele>
      </trkpt>
      <trkpt lat="45.67581" lon="5.73504">
        <ele>436.1</ele>
      </trkpt>
      <trkpt lat="45.67574" lon="5.73491">
        <ele>435.3</ele>
      </trkpt>
      <trkpt lat="45.67568" lon="5.7348">
        <ele>434.4</ele>
      </trkpt>
      <trkpt lat="45.67564" lon="5.73474">
        <ele>433.8</ele>
      </trkpt>
      <trkpt lat="45.67558" lon="5.73468">
        <ele>433.1</ele>
      </trkpt>
      <trkpt lat="45.67545" lon="5.73459">
        <ele>432.6</ele>
      </trkpt>
      <trkpt lat="45.67534" lon="5.7345">
        <ele>432.3</ele>
      </trkpt>
      <trkpt lat="45.67521" lon="5.73437">
        <ele>432.3</ele>
      </trkpt>
      <trkpt lat="45.67511" lon="5.73425">
        <ele>432.5</ele>
      </trkpt>
      <trkpt lat="45.67496" lon="5.73409">
        <ele>432.4</ele>
      </trkpt>
      <trkpt lat="45.67479" lon="5.73393">
        <ele>432.3</ele>
      </trkpt>
      <trkpt lat="45.67475" lon="5.73389">
        <ele>432.2</ele>
      </trkpt>
      <trkpt lat="45.67469" lon="5.73383">
        <ele>432.5</ele>
      </trkpt>
      <trkpt lat="45.67468" lon="5.73361">
        <ele>434.9</ele>
      </trkpt>
      <trkpt lat="45.67468" lon="5.73347">
        <ele>435.9</ele>
      </trkpt>
      <trkpt lat="45.6747" lon="5.73337">
        <ele>436.7</ele>
      </trkpt>
      <trkpt lat="45.67471" lon="5.73331">
        <ele>437.4</ele>
      </trkpt>
      <trkpt lat="45.67474" lon="5.73322">
        <ele>438.7</ele>
      </trkpt>
      <trkpt lat="45.67479" lon="5.73314">
        <ele>439.9</ele>
      </trkpt>
      <trkpt lat="45.67482" lon="5.73311">
        <ele>440.4</ele>
      </trkpt>
      <trkpt lat="45.67488" lon="5.73307">
        <ele>440.9</ele>
      </trkpt>
      <trkpt lat="45.67504" lon="5.733">
        <ele>441.6</ele>
      </trkpt>
      <trkpt lat="45.67533" lon="5.73261">
        <ele>445.7</ele>
      </trkpt>
      <trkpt lat="45.67529" lon="5.73223">
        <ele>450</ele>
      </trkpt>
      <trkpt lat="45.67519" lon="5.73221">
        <ele>450.8</ele>
      </trkpt>
      <trkpt lat="45.67511" lon="5.73218">
        <ele>451.7</ele>
      </trkpt>
      <trkpt lat="45.67504" lon="5.73216">
        <ele>452.4</ele>
      </trkpt>
      <trkpt lat="45.67452" lon="5.73203">
        <ele>454.7</ele>
      </trkpt>
      <trkpt lat="45.67416" lon="5.73191">
        <ele>456.5</ele>
      </trkpt>
      <trkpt lat="45.67401" lon="5.73185">
        <ele>457.9</ele>
      </trkpt>
      <trkpt lat="45.67382" lon="5.73173">
        <ele>459.9</ele>
      </trkpt>
      <trkpt lat="45.67365" lon="5.73159">
        <ele>461.3</ele>
      </trkpt>
      <trkpt lat="45.67357" lon="5.73152">
        <ele>461.9</ele>
      </trkpt>
      <trkpt lat="45.67347" lon="5.73138">
        <ele>463.1</ele>
      </trkpt>
      <trkpt lat="45.67336" lon="5.73124">
        <ele>464.3</ele>
      </trkpt>
      <trkpt lat="45.67335" lon="5.73122">
        <ele>464.6</ele>
      </trkpt>
      <trkpt lat="45.6733" lon="5.73117">
        <ele>465.1</ele>
      </trkpt>
      <trkpt lat="45.67327" lon="5.73115">
        <ele>465.3</ele>
      </trkpt>
      <trkpt lat="45.67316" lon="5.73112">
        <ele>465.3</ele>
      </trkpt>
      <trkpt lat="45.67312" lon="5.73112">
        <ele>465.2</ele>
      </trkpt>
      <trkpt lat="45.67307" lon="5.73113">
        <ele>464.9</ele>
      </trkpt>
      <trkpt lat="45.673" lon="5.73116">
        <ele>465</ele>
      </trkpt>
      <trkpt lat="45.67291" lon="5.73123">
        <ele>465</ele>
      </trkpt>
      <trkpt lat="45.67278" lon="5.73131">
        <ele>464.8</ele>
      </trkpt>
      <trkpt lat="45.67269" lon="5.73134">
        <ele>464.6</ele>
      </trkpt>
      <trkpt lat="45.67254" lon="5.73135">
        <ele>464.5</ele>
      </trkpt>
      <trkpt lat="45.67239" lon="5.73134">
        <ele>464.3</ele>
      </trkpt>
      <trkpt lat="45.67226" lon="5.73131">
        <ele>464.3</ele>
      </trkpt>
      <trkpt lat="45.67216" lon="5.73132">
        <ele>463.8</ele>
      </trkpt>
      <trkpt lat="45.67205" lon="5.73135">
        <ele>462.9</ele>
      </trkpt>
      <trkpt lat="45.67195" lon="5.73136">
        <ele>462.5</ele>
      </trkpt>
      <trkpt lat="45.6718" lon="5.73132">
        <ele>462.4</ele>
      </trkpt>
      <trkpt lat="45.67168" lon="5.73125">
        <ele>462.6</ele>
      </trkpt>
      <trkpt lat="45.67157" lon="5.73114">
        <ele>463.4</ele>
      </trkpt>
      <trkpt lat="45.67145" lon="5.73107">
        <ele>463.7</ele>
      </trkpt>
      <trkpt lat="45.67138" lon="5.73114">
        <ele>462.9</ele>
      </trkpt>
      <trkpt lat="45.67134" lon="5.73118">
        <ele>462.9</ele>
      </trkpt>
      <trkpt lat="45.6713" lon="5.73122">
        <ele>462.9</ele>
      </trkpt>
      <trkpt lat="45.67122" lon="5.73134">
        <ele>462.8</ele>
      </trkpt>
      <trkpt lat="45.67113" lon="5.7315">
        <ele>464.1</ele>
      </trkpt>
      <trkpt lat="45.67095" lon="5.73186">
        <ele>467.6</ele>
      </trkpt>
      <trkpt lat="45.67087" lon="5.73193">
        <ele>467.3</ele>
      </trkpt>
      <trkpt lat="45.67064" lon="5.73179">
        <ele>468.9</ele>
      </trkpt>
      <trkpt lat="45.67048" lon="5.7317">
        <ele>469.3</ele>
      </trkpt>
      <trkpt lat="45.6703" lon="5.73164">
        <ele>469.7</ele>
      </trkpt>
      <trkpt lat="45.67014" lon="5.7316">
        <ele>469.6</ele>
      </trkpt>
      <trkpt lat="45.66998" lon="5.73158">
        <ele>469.8</ele>
      </trkpt>
      <trkpt lat="45.66984" lon="5.73158">
        <ele>470.3</ele>
      </trkpt>
      <trkpt lat="45.66971" lon="5.73158">
        <ele>470.7</ele>
      </trkpt>
      <trkpt lat="45.66961" lon="5.73158">
        <ele>470.8</ele>
      </trkpt>
      <trkpt lat="45.66954" lon="5.73157">
        <ele>470.9</ele>
      </trkpt>
      <trkpt lat="45.66935" lon="5.7315">
        <ele>471.3</ele>
      </trkpt>
      <trkpt lat="45.66905" lon="5.73132">
        <ele>472.6</ele>
      </trkpt>
      <trkpt lat="45.66884" lon="5.73118">
        <ele>473.7</ele>
      </trkpt>
      <trkpt lat="45.66844" lon="5.73099">
        <ele>476.4</ele>
      </trkpt>
      <trkpt lat="45.66816" lon="5.73085">
        <ele>477.4</ele>
      </trkpt>
      <trkpt lat="45.66795" lon="5.73077">
        <ele>477.9</ele>
      </trkpt>
      <trkpt lat="45.66779" lon="5.73074">
        <ele>478.3</ele>
      </trkpt>
      <trkpt lat="45.66767" lon="5.73073">
        <ele>478.4</ele>
      </trkpt>
      <trkpt lat="45.66753" lon="5.73076">
        <ele>478.7</ele>
      </trkpt>
      <trkpt lat="45.66738" lon="5.73078">
        <ele>479.2</ele>
      </trkpt>
      <trkpt lat="45.66727" lon="5.73078">
        <ele>479.6</ele>
      </trkpt>
      <trkpt lat="45.66717" lon="5.73079">
        <ele>479.9</ele>
      </trkpt>
      <trkpt lat="45.6671" lon="5.73078">
        <ele>479.9</ele>
      </trkpt>
      <trkpt lat="45.66702" lon="5.73077">
        <ele>479.9</ele>
      </trkpt>
      <trkpt lat="45.66695" lon="5.73073">
        <ele>480</ele>
      </trkpt>
      <trkpt lat="45.66678" lon="5.73064">
        <ele>480.9</ele>
      </trkpt>
      <trkpt lat="45.66659" lon="5.73052">
        <ele>481.3</ele>
      </trkpt>
      <trkpt lat="45.66645" lon="5.73047">
        <ele>481.8</ele>
      </trkpt>
      <trkpt lat="45.66621" lon="5.73038">
        <ele>482.9</ele>
      </trkpt>
      <trkpt lat="45.66588" lon="5.73028">
        <ele>483</ele>
      </trkpt>
      <trkpt lat="45.6656" lon="5.73017">
        <ele>484.2</ele>
      </trkpt>
      <trkpt lat="45.66537" lon="5.73005">
        <ele>485.7</ele>
      </trkpt>
      <trkpt lat="45.66518" lon="5.7299">
        <ele>486.5</ele>
      </trkpt>
      <trkpt lat="45.66498" lon="5.72972">
        <ele>488.1</ele>
      </trkpt>
      <trkpt lat="45.66489" lon="5.72958">
        <ele>488.8</ele>
      </trkpt>
      <trkpt lat="45.66479" lon="5.72945">
        <ele>489.5</ele>
      </trkpt>
      <trkpt lat="45.66473" lon="5.7294">
        <ele>489.9</ele>
      </trkpt>
      <trkpt lat="45.66468" lon="5.72934">
        <ele>490.4</ele>
      </trkpt>
      <trkpt lat="45.66463" lon="5.72929">
        <ele>490.9</ele>
      </trkpt>
      <trkpt lat="45.66453" lon="5.72942">
        <ele>491.4</ele>
      </trkpt>
      <trkpt lat="45.66451" lon="5.72944">
        <ele>491.5</ele>
      </trkpt>
      <trkpt lat="45.66446" lon="5.72948">
        <ele>491.9</ele>
      </trkpt>
      <trkpt lat="45.66441" lon="5.72948">
        <ele>492.5</ele>
      </trkpt>
      <trkpt lat="45.66436" lon="5.72947">
        <ele>493.2</ele>
      </trkpt>
      <trkpt lat="45.66427" lon="5.72939">
        <ele>494.8</ele>
      </trkpt>
      <trkpt lat="45.6642" lon="5.72929">
        <ele>496.6</ele>
      </trkpt>
      <trkpt lat="45.66415" lon="5.72923">
        <ele>497.8</ele>
      </trkpt>
      <trkpt lat="45.66411" lon="5.72914">
        <ele>499</ele>
      </trkpt>
      <trkpt lat="45.66408" lon="5.72906">
        <ele>499.9</ele>
      </trkpt>
      <trkpt lat="45.66405" lon="5.72898">
        <ele>500.9</ele>
      </trkpt>
      <trkpt lat="45.66401" lon="5.72889">
        <ele>502.4</ele>
      </trkpt>
      <trkpt lat="45.66397" lon="5.72883">
        <ele>502.8</ele>
      </trkpt>
      <trkpt lat="45.66391" lon="5.72876">
        <ele>503.6</ele>
      </trkpt>
      <trkpt lat="45.66379" lon="5.72867">
        <ele>506</ele>
      </trkpt>
      <trkpt lat="45.66342" lon="5.72831">
        <ele>513.2</ele>
      </trkpt>
      <trkpt lat="45.66324" lon="5.72815">
        <ele>515.9</ele>
      </trkpt>
      <trkpt lat="45.66311" lon="5.72806">
        <ele>518</ele>
      </trkpt>
      <trkpt lat="45.66302" lon="5.72801">
        <ele>519.3</ele>
      </trkpt>
      <trkpt lat="45.66293" lon="5.72798">
        <ele>520</ele>
      </trkpt>
      <trkpt lat="45.66278" lon="5.72792">
        <ele>521.5</ele>
      </trkpt>
      <trkpt lat="45.66257" lon="5.72781">
        <ele>523.1</ele>
      </trkpt>
      <trkpt lat="45.66247" lon="5.72774">
        <ele>524.1</ele>
      </trkpt>
      <trkpt lat="45.66239" lon="5.72766">
        <ele>524.4</ele>
      </trkpt>
      <trkpt lat="45.66231" lon="5.72756">
        <ele>525.2</ele>
      </trkpt>
      <trkpt lat="45.66225" lon="5.72751">
        <ele>525.8</ele>
      </trkpt>
      <trkpt lat="45.66221" lon="5.72748">
        <ele>526.1</ele>
      </trkpt>
      <trkpt lat="45.66216" lon="5.72745">
        <ele>526.5</ele>
      </trkpt>
      <trkpt lat="45.6621" lon="5.7274">
        <ele>527</ele>
      </trkpt>
      <trkpt lat="45.66206" lon="5.72736">
        <ele>527.4</ele>
      </trkpt>
      <trkpt lat="45.66204" lon="5.7273">
        <ele>527.8</ele>
      </trkpt>
      <trkpt lat="45.662" lon="5.72716">
        <ele>528.6</ele>
      </trkpt>
      <trkpt lat="45.66195" lon="5.72707">
        <ele>529</ele>
      </trkpt>
      <trkpt lat="45.66194" lon="5.72705">
        <ele>529</ele>
      </trkpt>
      <trkpt lat="45.66188" lon="5.727">
        <ele>529.7</ele>
      </trkpt>
      <trkpt lat="45.66176" lon="5.72694">
        <ele>531</ele>
      </trkpt>
      <trkpt lat="45.66167" lon="5.72689">
        <ele>532.4</ele>
      </trkpt>
      <trkpt lat="45.66163" lon="5.72685">
        <ele>533</ele>
      </trkpt>
      <trkpt lat="45.66156" lon="5.72677">
        <ele>534.2</ele>
      </trkpt>
      <trkpt lat="45.6615" lon="5.7267">
        <ele>535</ele>
      </trkpt>
      <trkpt lat="45.66114" lon="5.72637">
        <ele>541.7</ele>
      </trkpt>
      <trkpt lat="45.66098" lon="5.72622">
        <ele>544.7</ele>
      </trkpt>
      <trkpt lat="45.66078" lon="5.72603">
        <ele>549.8</ele>
      </trkpt>
      <trkpt lat="45.66068" lon="5.72595">
        <ele>551.1</ele>
      </trkpt>
      <trkpt lat="45.66059" lon="5.72591">
        <ele>552.4</ele>
      </trkpt>
      <trkpt lat="45.66029" lon="5.7258">
        <ele>555.3</ele>
      </trkpt>
      <trkpt lat="45.66003" lon="5.7257">
        <ele>557.3</ele>
      </trkpt>
      <trkpt lat="45.65966" lon="5.72547">
        <ele>562.1</ele>
      </trkpt>
      <trkpt lat="45.65943" lon="5.72529">
        <ele>565.8</ele>
      </trkpt>
      <trkpt lat="45.65917" lon="5.72505">
        <ele>572.6</ele>
      </trkpt>
      <trkpt lat="45.65902" lon="5.72495">
        <ele>574.9</ele>
      </trkpt>
      <trkpt lat="45.65888" lon="5.72488">
        <ele>576.6</ele>
      </trkpt>
      <trkpt lat="45.65876" lon="5.72484">
        <ele>578.3</ele>
      </trkpt>
      <trkpt lat="45.65859" lon="5.72482">
        <ele>579.6</ele>
      </trkpt>
      <trkpt lat="45.6585" lon="5.7248">
        <ele>580.6</ele>
      </trkpt>
      <trkpt lat="45.65841" lon="5.7248">
        <ele>580.9</ele>
      </trkpt>
      <trkpt lat="45.6583" lon="5.72481">
        <ele>580.9</ele>
      </trkpt>
      <trkpt lat="45.6582" lon="5.72482">
        <ele>580.6</ele>
      </trkpt>
      <trkpt lat="45.65811" lon="5.72484">
        <ele>580.2</ele>
      </trkpt>
      <trkpt lat="45.65799" lon="5.72485">
        <ele>579.9</ele>
      </trkpt>
      <trkpt lat="45.65786" lon="5.72486">
        <ele>579.9</ele>
      </trkpt>
      <trkpt lat="45.65774" lon="5.72485">
        <ele>580.2</ele>
      </trkpt>
      <trkpt lat="45.65767" lon="5.72471">
        <ele>583.5</ele>
      </trkpt>
      <trkpt lat="45.65755" lon="5.7246">
        <ele>587.3</ele>
      </trkpt>
      <trkpt lat="45.65742" lon="5.7245">
        <ele>591</ele>
      </trkpt>
      <trkpt lat="45.65731" lon="5.72444">
        <ele>593.2</ele>
      </trkpt>
      <trkpt lat="45.65719" lon="5.72437">
        <ele>595.2</ele>
      </trkpt>
      <trkpt lat="45.65686" lon="5.72429">
        <ele>596.9</ele>
      </trkpt>
      <trkpt lat="45.65574" lon="5.72413">
        <ele>608.6</ele>
      </trkpt>
      <trkpt lat="45.65472" lon="5.72418">
        <ele>614</ele>
      </trkpt>
      <trkpt lat="45.65461" lon="5.72424">
        <ele>616.5</ele>
      </trkpt>
      <trkpt lat="45.6545" lon="5.72429">
        <ele>618.6</ele>
      </trkpt>
      <trkpt lat="45.65439" lon="5.72436">
        <ele>619.3</ele>
      </trkpt>
      <trkpt lat="45.65434" lon="5.72439">
        <ele>619.5</ele>
      </trkpt>
      <trkpt lat="45.65432" lon="5.72446">
        <ele>618.8</ele>
      </trkpt>
      <trkpt lat="45.65433" lon="5.72455">
        <ele>619</ele>
      </trkpt>
      <trkpt lat="45.65435" lon="5.72474">
        <ele>619.2</ele>
      </trkpt>
      <trkpt lat="45.6544" lon="5.72497">
        <ele>620.3</ele>
      </trkpt>
      <trkpt lat="45.65446" lon="5.72525">
        <ele>621.3</ele>
      </trkpt>
      <trkpt lat="45.65446" lon="5.72538">
        <ele>621.2</ele>
      </trkpt>
      <trkpt lat="45.65446" lon="5.72546">
        <ele>621.1</ele>
      </trkpt>
      <trkpt lat="45.65444" lon="5.72551">
        <ele>621.3</ele>
      </trkpt>
      <trkpt lat="45.6544" lon="5.72555">
        <ele>622</ele>
      </trkpt>
      <trkpt lat="45.65433" lon="5.7256">
        <ele>624</ele>
      </trkpt>
      <trkpt lat="45.65421" lon="5.72563">
        <ele>626.5</ele>
      </trkpt>
      <trkpt lat="45.65407" lon="5.72568">
        <ele>628.7</ele>
      </trkpt>
      <trkpt lat="45.65387" lon="5.72578">
        <ele>631.1</ele>
      </trkpt>
      <trkpt lat="45.65377" lon="5.72585">
        <ele>632.1</ele>
      </trkpt>
      <trkpt lat="45.65382" lon="5.7259">
        <ele>632.5</ele>
      </trkpt>
      <trkpt lat="45.65383" lon="5.72591">
        <ele>632.6</ele>
      </trkpt>
      <trkpt lat="45.65382" lon="5.7259">
        <ele>632.5</ele>
      </trkpt>
      <trkpt lat="45.65377" lon="5.72585">
        <ele>632.1</ele>
      </trkpt>
      <trkpt lat="45.6537" lon="5.72575">
        <ele>632.4</ele>
      </trkpt>
      <trkpt lat="45.65356" lon="5.72554">
        <ele>633.2</ele>
      </trkpt>
      <trkpt lat="45.65343" lon="5.72535">
        <ele>634.1</ele>
      </trkpt>
      <trkpt lat="45.65332" lon="5.72519">
        <ele>635.1</ele>
      </trkpt>
      <trkpt lat="45.65318" lon="5.7249">
        <ele>636.8</ele>
      </trkpt>
      <trkpt lat="45.65311" lon="5.72474">
        <ele>637.6</ele>
      </trkpt>
      <trkpt lat="45.65307" lon="5.72456">
        <ele>638.5</ele>
      </trkpt>
      <trkpt lat="45.65305" lon="5.72437">
        <ele>639.3</ele>
      </trkpt>
      <trkpt lat="45.65305" lon="5.7243">
        <ele>639.6</ele>
      </trkpt>
      <trkpt lat="45.65303" lon="5.72416">
        <ele>640.3</ele>
      </trkpt>
      <trkpt lat="45.65301" lon="5.72393">
        <ele>642.2</ele>
      </trkpt>
      <trkpt lat="45.65298" lon="5.72375">
        <ele>644.3</ele>
      </trkpt>
      <trkpt lat="45.65299" lon="5.72369">
        <ele>644.9</ele>
      </trkpt>
      <trkpt lat="45.65286" lon="5.72359">
        <ele>647.4</ele>
      </trkpt>
      <trkpt lat="45.65281" lon="5.72354">
        <ele>648.5</ele>
      </trkpt>
      <trkpt lat="45.65278" lon="5.72349">
        <ele>649.3</ele>
      </trkpt>
      <trkpt lat="45.65276" lon="5.72343">
        <ele>650.1</ele>
      </trkpt>
      <trkpt lat="45.65274" lon="5.72332">
        <ele>651.6</ele>
      </trkpt>
      <trkpt lat="45.65273" lon="5.72317">
        <ele>653.8</ele>
      </trkpt>
      <trkpt lat="45.65273" lon="5.72296">
        <ele>655.7</ele>
      </trkpt>
      <trkpt lat="45.65275" lon="5.7228">
        <ele>656.2</ele>
      </trkpt>
      <trkpt lat="45.65276" lon="5.72263">
        <ele>657.2</ele>
      </trkpt>
      <trkpt lat="45.65278" lon="5.72247">
        <ele>658.4</ele>
      </trkpt>
      <trkpt lat="45.65278" lon="5.72229">
        <ele>661</ele>
      </trkpt>
      <trkpt lat="45.65277" lon="5.72204">
        <ele>663.4</ele>
      </trkpt>
      <trkpt lat="45.65276" lon="5.72195">
        <ele>664.1</ele>
      </trkpt>
      <trkpt lat="45.65273" lon="5.7219">
        <ele>664.7</ele>
      </trkpt>
      <trkpt lat="45.65268" lon="5.72186">
        <ele>665.3</ele>
      </trkpt>
      <trkpt lat="45.65261" lon="5.72186">
        <ele>665.8</ele>
      </trkpt>
      <trkpt lat="45.65251" lon="5.72186">
        <ele>666.6</ele>
      </trkpt>
      <trkpt lat="45.6524" lon="5.72186">
        <ele>668</ele>
      </trkpt>
      <trkpt lat="45.6523" lon="5.72183">
        <ele>669.4</ele>
      </trkpt>
      <trkpt lat="45.65219" lon="5.72179">
        <ele>670.9</ele>
      </trkpt>
      <trkpt lat="45.65209" lon="5.72173">
        <ele>672.1</ele>
      </trkpt>
      <trkpt lat="45.65201" lon="5.72169">
        <ele>673.2</ele>
      </trkpt>
      <trkpt lat="45.65191" lon="5.72167">
        <ele>674.2</ele>
      </trkpt>
      <trkpt lat="45.65183" lon="5.72166">
        <ele>674.9</ele>
      </trkpt>
      <trkpt lat="45.65173" lon="5.72168">
        <ele>675.4</ele>
      </trkpt>
      <trkpt lat="45.65164" lon="5.7217">
        <ele>675.9</ele>
      </trkpt>
      <trkpt lat="45.65151" lon="5.72174">
        <ele>676.6</ele>
      </trkpt>
      <trkpt lat="45.6514" lon="5.72178">
        <ele>676.9</ele>
      </trkpt>
      <trkpt lat="45.65129" lon="5.72181">
        <ele>677.3</ele>
      </trkpt>
      <trkpt lat="45.65118" lon="5.72183">
        <ele>677.9</ele>
      </trkpt>
      <trkpt lat="45.65107" lon="5.72185">
        <ele>678.2</ele>
      </trkpt>
      <trkpt lat="45.65095" lon="5.72188">
        <ele>678</ele>
      </trkpt>
      <trkpt lat="45.65083" lon="5.72189">
        <ele>678.2</ele>
      </trkpt>
      <trkpt lat="45.65074" lon="5.72191">
        <ele>678.8</ele>
      </trkpt>
      <trkpt lat="45.65066" lon="5.72195">
        <ele>678.8</ele>
      </trkpt>
      <trkpt lat="45.65056" lon="5.72197">
        <ele>679.6</ele>
      </trkpt>
      <trkpt lat="45.65044" lon="5.722">
        <ele>680</ele>
      </trkpt>
      <trkpt lat="45.6503" lon="5.722">
        <ele>680.9</ele>
      </trkpt>
      <trkpt lat="45.65017" lon="5.72201">
        <ele>680.9</ele>
      </trkpt>
      <trkpt lat="45.64961" lon="5.72194">
        <ele>679.7</ele>
      </trkpt>
      <trkpt lat="45.64942" lon="5.72194">
        <ele>679.1</ele>
      </trkpt>
      <trkpt lat="45.64921" lon="5.72195">
        <ele>679</ele>
      </trkpt>
      <trkpt lat="45.64889" lon="5.72205">
        <ele>675.9</ele>
      </trkpt>
      <trkpt lat="45.64827" lon="5.72231">
        <ele>672.9</ele>
      </trkpt>
      <trkpt lat="45.64722" lon="5.72264">
        <ele>669.5</ele>
      </trkpt>
      <trkpt lat="45.64703" lon="5.72272">
        <ele>668.6</ele>
      </trkpt>
      <trkpt lat="45.64701" lon="5.72266">
        <ele>669.6</ele>
      </trkpt>
      <trkpt lat="45.64699" lon="5.72262">
        <ele>670.2</ele>
      </trkpt>
      <trkpt lat="45.64691" lon="5.72254">
        <ele>671.5</ele>
      </trkpt>
      <trkpt lat="45.64699" lon="5.72262">
        <ele>670.2</ele>
      </trkpt>
      <trkpt lat="45.64701" lon="5.72266">
        <ele>669.6</ele>
      </trkpt>
      <trkpt lat="45.64703" lon="5.72272">
        <ele>668.6</ele>
      </trkpt>
      <trkpt lat="45.64703" lon="5.72278">
        <ele>667.7</ele>
      </trkpt>
      <trkpt lat="45.64702" lon="5.72284">
        <ele>667.3</ele>
      </trkpt>
      <trkpt lat="45.64699" lon="5.72289">
        <ele>667</ele>
      </trkpt>
      <trkpt lat="45.64694" lon="5.72292">
        <ele>667</ele>
      </trkpt>
      <trkpt lat="45.64688" lon="5.72297">
        <ele>666.5</ele>
      </trkpt>
      <trkpt lat="45.64676" lon="5.72305">
        <ele>665.4</ele>
      </trkpt>
      <trkpt lat="45.64665" lon="5.72314">
        <ele>664.6</ele>
      </trkpt>
      <trkpt lat="45.64656" lon="5.72322">
        <ele>663.4</ele>
      </trkpt>
      <trkpt lat="45.64649" lon="5.7233">
        <ele>662.3</ele>
      </trkpt>
      <trkpt lat="45.64642" lon="5.72344">
        <ele>660.1</ele>
      </trkpt>
      <trkpt lat="45.64637" lon="5.72354">
        <ele>658.7</ele>
      </trkpt>
      <trkpt lat="45.64632" lon="5.72358">
        <ele>657.9</ele>
      </trkpt>
      <trkpt lat="45.64626" lon="5.7236">
        <ele>657.2</ele>
      </trkpt>
      <trkpt lat="45.64618" lon="5.72363">
        <ele>656.2</ele>
      </trkpt>
      <trkpt lat="45.64612" lon="5.72366">
        <ele>655.2</ele>
      </trkpt>
      <trkpt lat="45.64608" lon="5.72372">
        <ele>654.3</ele>
      </trkpt>
      <trkpt lat="45.64602" lon="5.72379">
        <ele>653.4</ele>
      </trkpt>
      <trkpt lat="45.64596" lon="5.72391">
        <ele>651.9</ele>
      </trkpt>
      <trkpt lat="45.64593" lon="5.724">
        <ele>651.4</ele>
      </trkpt>
      <trkpt lat="45.64591" lon="5.72409">
        <ele>650.8</ele>
      </trkpt>
      <trkpt lat="45.6459" lon="5.72422">
        <ele>650.1</ele>
      </trkpt>
      <trkpt lat="45.64591" lon="5.72432">
        <ele>649.6</ele>
      </trkpt>
      <trkpt lat="45.64592" lon="5.72445">
        <ele>649</ele>
      </trkpt>
      <trkpt lat="45.64592" lon="5.72455">
        <ele>648.3</ele>
      </trkpt>
      <trkpt lat="45.64592" lon="5.72457">
        <ele>648.2</ele>
      </trkpt>
      <trkpt lat="45.64593" lon="5.7246">
        <ele>647.8</ele>
      </trkpt>
      <trkpt lat="45.64594" lon="5.72463">
        <ele>647.5</ele>
      </trkpt>
      <trkpt lat="45.64595" lon="5.72469">
        <ele>647</ele>
      </trkpt>
      <trkpt lat="45.64595" lon="5.72472">
        <ele>646.8</ele>
      </trkpt>
      <trkpt lat="45.64595" lon="5.72475">
        <ele>646.4</ele>
      </trkpt>
      <trkpt lat="45.64594" lon="5.72479">
        <ele>645.9</ele>
      </trkpt>
      <trkpt lat="45.64592" lon="5.72482">
        <ele>645.7</ele>
      </trkpt>
      <trkpt lat="45.64591" lon="5.72483">
        <ele>645.6</ele>
      </trkpt>
      <trkpt lat="45.64589" lon="5.72486">
        <ele>645.4</ele>
      </trkpt>
      <trkpt lat="45.64587" lon="5.72487">
        <ele>645.5</ele>
      </trkpt>
      <trkpt lat="45.6458" lon="5.72494">
        <ele>645.2</ele>
      </trkpt>
      <trkpt lat="45.64571" lon="5.72491">
        <ele>646.5</ele>
      </trkpt>
      <trkpt lat="45.64556" lon="5.72492">
        <ele>647.7</ele>
      </trkpt>
      <trkpt lat="45.64545" lon="5.72494">
        <ele>648.1</ele>
      </trkpt>
      <trkpt lat="45.64534" lon="5.72494">
        <ele>648.8</ele>
      </trkpt>
      <trkpt lat="45.64517" lon="5.72493">
        <ele>650.2</ele>
      </trkpt>
      <trkpt lat="45.64499" lon="5.7249">
        <ele>651.8</ele>
      </trkpt>
      <trkpt lat="45.64483" lon="5.72488">
        <ele>652.4</ele>
      </trkpt>
      <trkpt lat="45.64463" lon="5.72481">
        <ele>654.5</ele>
      </trkpt>
      <trkpt lat="45.64444" lon="5.72473">
        <ele>656.8</ele>
      </trkpt>
      <trkpt lat="45.64419" lon="5.7246">
        <ele>660.2</ele>
      </trkpt>
      <trkpt lat="45.64394" lon="5.72449">
        <ele>662</ele>
      </trkpt>
      <trkpt lat="45.6437" lon="5.72439">
        <ele>664.2</ele>
      </trkpt>
      <trkpt lat="45.64354" lon="5.72429">
        <ele>666.1</ele>
      </trkpt>
      <trkpt lat="45.64347" lon="5.72422">
        <ele>667</ele>
      </trkpt>
      <trkpt lat="45.64331" lon="5.72423">
        <ele>665.8</ele>
      </trkpt>
      <trkpt lat="45.64321" lon="5.72422">
        <ele>664.7</ele>
      </trkpt>
      <trkpt lat="45.64314" lon="5.72422">
        <ele>663.8</ele>
      </trkpt>
      <trkpt lat="45.6431" lon="5.72422">
        <ele>663.4</ele>
      </trkpt>
      <trkpt lat="45.64292" lon="5.72415">
        <ele>661.3</ele>
      </trkpt>
      <trkpt lat="45.64272" lon="5.72407">
        <ele>659.7</ele>
      </trkpt>
      <trkpt lat="45.64259" lon="5.72404">
        <ele>658.4</ele>
      </trkpt>
      <trkpt lat="45.64257" lon="5.72403">
        <ele>658.4</ele>
      </trkpt>
      <trkpt lat="45.64246" lon="5.72401">
        <ele>657.5</ele>
      </trkpt>
      <trkpt lat="45.64224" lon="5.72399">
        <ele>656.3</ele>
      </trkpt>
      <trkpt lat="45.6421" lon="5.72401">
        <ele>656</ele>
      </trkpt>
      <trkpt lat="45.64205" lon="5.72402">
        <ele>656</ele>
      </trkpt>
      <trkpt lat="45.64201" lon="5.72404">
        <ele>655.7</ele>
      </trkpt>
      <trkpt lat="45.64164" lon="5.72403">
        <ele>656.8</ele>
      </trkpt>
      <trkpt lat="45.64158" lon="5.72403">
        <ele>656.4</ele>
      </trkpt>
      <trkpt lat="45.64153" lon="5.72399">
        <ele>656.9</ele>
      </trkpt>
      <trkpt lat="45.64151" lon="5.72397">
        <ele>657.1</ele>
      </trkpt>
      <trkpt lat="45.64147" lon="5.72395">
        <ele>657.3</ele>
      </trkpt>
      <trkpt lat="45.64112" lon="5.72389">
        <ele>655.1</ele>
      </trkpt>
      <trkpt lat="45.64075" lon="5.72371">
        <ele>654.5</ele>
      </trkpt>
      <trkpt lat="45.64029" lon="5.72336">
        <ele>652.7</ele>
      </trkpt>
      <trkpt lat="45.64005" lon="5.72333">
        <ele>653</ele>
      </trkpt>
      <trkpt lat="45.6395" lon="5.72327">
        <ele>654.9</ele>
      </trkpt>
      <trkpt lat="45.63793" lon="5.72325">
        <ele>656.3</ele>
      </trkpt>
      <trkpt lat="45.6375" lon="5.72328">
        <ele>655</ele>
      </trkpt>
      <trkpt lat="45.63706" lon="5.72333">
        <ele>652.1</ele>
      </trkpt>
      <trkpt lat="45.63659" lon="5.72344">
        <ele>652</ele>
      </trkpt>
      <trkpt lat="45.63643" lon="5.72352">
        <ele>651.3</ele>
      </trkpt>
      <trkpt lat="45.63624" lon="5.72353">
        <ele>649.2</ele>
      </trkpt>
      <trkpt lat="45.63606" lon="5.72355">
        <ele>647</ele>
      </trkpt>
      <trkpt lat="45.63587" lon="5.72361">
        <ele>645.9</ele>
      </trkpt>
      <trkpt lat="45.63575" lon="5.72369">
        <ele>642.9</ele>
      </trkpt>
      <trkpt lat="45.63564" lon="5.7238">
        <ele>639</ele>
      </trkpt>
      <trkpt lat="45.63558" lon="5.72385">
        <ele>637.3</ele>
      </trkpt>
      <trkpt lat="45.63564" lon="5.7238">
        <ele>639</ele>
      </trkpt>
      <trkpt lat="45.63534" lon="5.72359">
        <ele>642.2</ele>
      </trkpt>
      <trkpt lat="45.63533" lon="5.72356">
        <ele>642.7</ele>
      </trkpt>
      <trkpt lat="45.63514" lon="5.72319">
        <ele>647.9</ele>
      </trkpt>
      <trkpt lat="45.63508" lon="5.72308">
        <ele>647.6</ele>
      </trkpt>
      <trkpt lat="45.63501" lon="5.72298">
        <ele>646.7</ele>
      </trkpt>
      <trkpt lat="45.63491" lon="5.72292">
        <ele>647.1</ele>
      </trkpt>
      <trkpt lat="45.63484" lon="5.7229">
        <ele>647.1</ele>
      </trkpt>
      <trkpt lat="45.63469" lon="5.72288">
        <ele>646.9</ele>
      </trkpt>
      <trkpt lat="45.63457" lon="5.72289">
        <ele>647.7</ele>
      </trkpt>
      <trkpt lat="45.63442" lon="5.72297">
        <ele>648.8</ele>
      </trkpt>
      <trkpt lat="45.63432" lon="5.72314">
        <ele>648.9</ele>
      </trkpt>
      <trkpt lat="45.63431" lon="5.72328">
        <ele>647.5</ele>
      </trkpt>
      <trkpt lat="45.63434" lon="5.72334">
        <ele>646.4</ele>
      </trkpt>
      <trkpt lat="45.63434" lon="5.72337">
        <ele>646.2</ele>
      </trkpt>
      <trkpt lat="45.63433" lon="5.72339">
        <ele>646.1</ele>
      </trkpt>
      <trkpt lat="45.6343" lon="5.72346">
        <ele>645.7</ele>
      </trkpt>
      <trkpt lat="45.63428" lon="5.7235">
        <ele>645.5</ele>
      </trkpt>
      <trkpt lat="45.63426" lon="5.72351">
        <ele>645.5</ele>
      </trkpt>
      <trkpt lat="45.63424" lon="5.7235">
        <ele>645.9</ele>
      </trkpt>
      <trkpt lat="45.63422" lon="5.72348">
        <ele>646.3</ele>
      </trkpt>
      <trkpt lat="45.63405" lon="5.72333">
        <ele>649.9</ele>
      </trkpt>
      <trkpt lat="45.63367" lon="5.72309">
        <ele>655.8</ele>
      </trkpt>
      <trkpt lat="45.63321" lon="5.72303">
        <ele>662.9</ele>
      </trkpt>
      <trkpt lat="45.63146" lon="5.72308">
        <ele>666.3</ele>
      </trkpt>
      <trkpt lat="45.6314" lon="5.72308">
        <ele>665.6</ele>
      </trkpt>
      <trkpt lat="45.63135" lon="5.72308">
        <ele>666.2</ele>
      </trkpt>
      <trkpt lat="45.63128" lon="5.7231">
        <ele>667</ele>
      </trkpt>
      <trkpt lat="45.63053" lon="5.72338">
        <ele>666.7</ele>
      </trkpt>
      <trkpt lat="45.63043" lon="5.7234">
        <ele>666.8</ele>
      </trkpt>
      <trkpt lat="45.63037" lon="5.72342">
        <ele>666.8</ele>
      </trkpt>
      <trkpt lat="45.62933" lon="5.72339">
        <ele>683.3</ele>
      </trkpt>
      <trkpt lat="45.62894" lon="5.72335">
        <ele>691.5</ele>
      </trkpt>
      <trkpt lat="45.62892" lon="5.72335">
        <ele>692</ele>
      </trkpt>
      <trkpt lat="45.62859" lon="5.72386">
        <ele>689.8</ele>
      </trkpt>
      <trkpt lat="45.6284" lon="5.72408">
        <ele>691.4</ele>
      </trkpt>
      <trkpt lat="45.6282" lon="5.72426">
        <ele>689.8</ele>
      </trkpt>
      <trkpt lat="45.62805" lon="5.72436">
        <ele>688.2</ele>
      </trkpt>
      <trkpt lat="45.62792" lon="5.72444">
        <ele>687.1</ele>
      </trkpt>
      <trkpt lat="45.62746" lon="5.72468">
        <ele>685.7</ele>
      </trkpt>
      <trkpt lat="45.62742" lon="5.72471">
        <ele>685.5</ele>
      </trkpt>
      <trkpt lat="45.62699" lon="5.72515">
        <ele>681.2</ele>
      </trkpt>
      <trkpt lat="45.62656" lon="5.72558">
        <ele>676.6</ele>
      </trkpt>
      <trkpt lat="45.62603" lon="5.72601">
        <ele>672.3</ele>
      </trkpt>
      <trkpt lat="45.62578" lon="5.72613">
        <ele>671</ele>
      </trkpt>
      <trkpt lat="45.62546" lon="5.72628">
        <ele>670.6</ele>
      </trkpt>
      <trkpt lat="45.62543" lon="5.7263">
        <ele>670.3</ele>
      </trkpt>
      <trkpt lat="45.62542" lon="5.72632">
        <ele>670</ele>
      </trkpt>
      <trkpt lat="45.6254" lon="5.72633">
        <ele>669.9</ele>
      </trkpt>
      <trkpt lat="45.62539" lon="5.72635">
        <ele>669.5</ele>
      </trkpt>
      <trkpt lat="45.62538" lon="5.72637">
        <ele>669.1</ele>
      </trkpt>
      <trkpt lat="45.62538" lon="5.72639">
        <ele>668.6</ele>
      </trkpt>
      <trkpt lat="45.62554" lon="5.72634">
        <ele>669</ele>
      </trkpt>
      <trkpt lat="45.62566" lon="5.72632">
        <ele>668.5</ele>
      </trkpt>
      <trkpt lat="45.62592" lon="5.72629">
        <ele>667.7</ele>
      </trkpt>
      <trkpt lat="45.62648" lon="5.7262">
        <ele>665</ele>
      </trkpt>
      <trkpt lat="45.62661" lon="5.72618">
        <ele>664.2</ele>
      </trkpt>
      <trkpt lat="45.62659" lon="5.72624">
        <ele>663.4</ele>
      </trkpt>
      <trkpt lat="45.62657" lon="5.72627">
        <ele>663.1</ele>
      </trkpt>
      <trkpt lat="45.62653" lon="5.7263">
        <ele>662.9</ele>
      </trkpt>
      <trkpt lat="45.62651" lon="5.72631">
        <ele>663</ele>
      </trkpt>
    </trkseg>
  </trk>
</gpx>